<?xml version="1.0" encoding="UTF-8" standalone="no" ?>
<gpx xmlns="http://www.topografix.com/GPX/1/1" xmlns:xsi="http://www.w3.org/2001/XMLSchema-instance" xsi:schemaLocation="http://www.topografix.com/GPX/1/1 http://www.topografix.com/GPX/1/1/gpx.xsd" version="1.1" creator="VisuGPX - https://www.visugpx.com">
  <metadata>
    <name>voyage total </name>
  </metadata>
  <trk>
    <name><![CDATA[J7]]></name>
    <trkseg>
      <trkpt lat="47.44662" lon="-2.26516">
        <ele>4.2</ele>
        <time>2020-06-06T08:02:14Z</time>
      </trkpt>
      <trkpt lat="47.44657" lon="-2.26525">
        <ele>4.2</ele>
        <time>2020-06-06T08:02:15Z</time>
      </trkpt>
      <trkpt lat="47.44657" lon="-2.2653">
        <ele>4.2</ele>
        <time>2020-06-06T08:02:16Z</time>
      </trkpt>
      <trkpt lat="47.44657" lon="-2.26535">
        <ele>4.2</ele>
        <time>2020-06-06T08:02:17Z</time>
      </trkpt>
      <trkpt lat="47.44658" lon="-2.2654">
        <ele>4.2</ele>
        <time>2020-06-06T08:02:18Z</time>
      </trkpt>
      <trkpt lat="47.44658" lon="-2.26545">
        <ele>4.2</ele>
        <time>2020-06-06T08:02:19Z</time>
      </trkpt>
      <trkpt lat="47.44658" lon="-2.2655">
        <ele>4.2</ele>
        <time>2020-06-06T08:02:20Z</time>
      </trkpt>
      <trkpt lat="47.44658" lon="-2.26556">
        <ele>4.2</ele>
        <time>2020-06-06T08:02:21Z</time>
      </trkpt>
      <trkpt lat="47.44659" lon="-2.26562">
        <ele>4.2</ele>
        <time>2020-06-06T08:02:22Z</time>
      </trkpt>
      <trkpt lat="47.4466" lon="-2.2657">
        <ele>4.2</ele>
        <time>2020-06-06T08:02:23Z</time>
      </trkpt>
      <trkpt lat="47.44661" lon="-2.26579">
        <ele>4.2</ele>
        <time>2020-06-06T08:02:24Z</time>
      </trkpt>
      <trkpt lat="47.44661" lon="-2.26586">
        <ele>4.2</ele>
        <time>2020-06-06T08:02:25Z</time>
      </trkpt>
      <trkpt lat="47.44662" lon="-2.26594">
        <ele>4.2</ele>
        <time>2020-06-06T08:02:26Z</time>
      </trkpt>
      <trkpt lat="47.44663" lon="-2.26604">
        <ele>4.2</ele>
        <time>2020-06-06T08:02:27Z</time>
      </trkpt>
      <trkpt lat="47.44663" lon="-2.26614">
        <ele>4.1</ele>
        <time>2020-06-06T08:02:28Z</time>
      </trkpt>
      <trkpt lat="47.44664" lon="-2.26625">
        <ele>4.1</ele>
        <time>2020-06-06T08:02:29Z</time>
      </trkpt>
      <trkpt lat="47.44664" lon="-2.26637">
        <ele>4.1</ele>
        <time>2020-06-06T08:02:31Z</time>
      </trkpt>
      <trkpt lat="47.44664" lon="-2.26647">
        <ele>4</ele>
        <time>2020-06-06T08:02:32Z</time>
      </trkpt>
      <trkpt lat="47.44665" lon="-2.26656">
        <ele>4</ele>
        <time>2020-06-06T08:02:33Z</time>
      </trkpt>
      <trkpt lat="47.44665" lon="-2.26665">
        <ele>3.9</ele>
        <time>2020-06-06T08:02:34Z</time>
      </trkpt>
      <trkpt lat="47.44665" lon="-2.26675">
        <ele>3.9</ele>
        <time>2020-06-06T08:02:35Z</time>
      </trkpt>
      <trkpt lat="47.44666" lon="-2.26687">
        <ele>3.8</ele>
        <time>2020-06-06T08:02:36Z</time>
      </trkpt>
      <trkpt lat="47.44666" lon="-2.26696">
        <ele>3.8</ele>
        <time>2020-06-06T08:02:37Z</time>
      </trkpt>
      <trkpt lat="47.44666" lon="-2.26706">
        <ele>3.8</ele>
        <time>2020-06-06T08:02:38Z</time>
      </trkpt>
      <trkpt lat="47.44667" lon="-2.26715">
        <ele>3.8</ele>
        <time>2020-06-06T08:02:39Z</time>
      </trkpt>
      <trkpt lat="47.44668" lon="-2.26725">
        <ele>3.8</ele>
        <time>2020-06-06T08:02:40Z</time>
      </trkpt>
      <trkpt lat="47.44669" lon="-2.26735">
        <ele>3.8</ele>
        <time>2020-06-06T08:02:41Z</time>
      </trkpt>
      <trkpt lat="47.44669" lon="-2.26745">
        <ele>3.8</ele>
        <time>2020-06-06T08:02:42Z</time>
      </trkpt>
      <trkpt lat="47.4467" lon="-2.26756">
        <ele>3.8</ele>
        <time>2020-06-06T08:02:43Z</time>
      </trkpt>
      <trkpt lat="47.44672" lon="-2.2677">
        <ele>3.8</ele>
        <time>2020-06-06T08:02:44Z</time>
      </trkpt>
      <trkpt lat="47.44674" lon="-2.2678">
        <ele>3.8</ele>
        <time>2020-06-06T08:02:45Z</time>
      </trkpt>
      <trkpt lat="47.44675" lon="-2.26789">
        <ele>3.8</ele>
        <time>2020-06-06T08:02:46Z</time>
      </trkpt>
      <trkpt lat="47.44677" lon="-2.268">
        <ele>3.8</ele>
        <time>2020-06-06T08:02:47Z</time>
      </trkpt>
      <trkpt lat="47.44678" lon="-2.26821">
        <ele>3.8</ele>
        <time>2020-06-06T08:02:48Z</time>
      </trkpt>
      <trkpt lat="47.44679" lon="-2.26831">
        <ele>3.8</ele>
        <time>2020-06-06T08:02:49Z</time>
      </trkpt>
      <trkpt lat="47.44681" lon="-2.26841">
        <ele>3.8</ele>
        <time>2020-06-06T08:02:50Z</time>
      </trkpt>
      <trkpt lat="47.44682" lon="-2.26851">
        <ele>3.8</ele>
        <time>2020-06-06T08:02:51Z</time>
      </trkpt>
      <trkpt lat="47.44683" lon="-2.2686">
        <ele>3.8</ele>
        <time>2020-06-06T08:02:52Z</time>
      </trkpt>
      <trkpt lat="47.44684" lon="-2.26869">
        <ele>3.8</ele>
        <time>2020-06-06T08:02:53Z</time>
      </trkpt>
      <trkpt lat="47.44684" lon="-2.26879">
        <ele>3.7</ele>
        <time>2020-06-06T08:02:54Z</time>
      </trkpt>
      <trkpt lat="47.44686" lon="-2.26888">
        <ele>3.7</ele>
        <time>2020-06-06T08:02:55Z</time>
      </trkpt>
      <trkpt lat="47.44687" lon="-2.26898">
        <ele>3.6</ele>
        <time>2020-06-06T08:02:56Z</time>
      </trkpt>
      <trkpt lat="47.44688" lon="-2.26907">
        <ele>3.6</ele>
        <time>2020-06-06T08:02:57Z</time>
      </trkpt>
      <trkpt lat="47.44689" lon="-2.26916">
        <ele>3.5</ele>
        <time>2020-06-06T08:02:58Z</time>
      </trkpt>
      <trkpt lat="47.44691" lon="-2.26924">
        <ele>3.5</ele>
        <time>2020-06-06T08:02:59Z</time>
      </trkpt>
      <trkpt lat="47.44692" lon="-2.26933">
        <ele>3.5</ele>
        <time>2020-06-06T08:03:00Z</time>
      </trkpt>
      <trkpt lat="47.44693" lon="-2.26941">
        <ele>3.4</ele>
        <time>2020-06-06T08:03:01Z</time>
      </trkpt>
      <trkpt lat="47.44694" lon="-2.2695">
        <ele>3.4</ele>
        <time>2020-06-06T08:03:02Z</time>
      </trkpt>
      <trkpt lat="47.44696" lon="-2.26959">
        <ele>3.3</ele>
        <time>2020-06-06T08:03:03Z</time>
      </trkpt>
      <trkpt lat="47.44697" lon="-2.26967">
        <ele>3.3</ele>
        <time>2020-06-06T08:03:04Z</time>
      </trkpt>
      <trkpt lat="47.44698" lon="-2.26976">
        <ele>3.3</ele>
        <time>2020-06-06T08:03:05Z</time>
      </trkpt>
      <trkpt lat="47.44699" lon="-2.26985">
        <ele>3.3</ele>
        <time>2020-06-06T08:03:06Z</time>
      </trkpt>
      <trkpt lat="47.447" lon="-2.26995">
        <ele>3.2</ele>
        <time>2020-06-06T08:03:07Z</time>
      </trkpt>
      <trkpt lat="47.44701" lon="-2.27006">
        <ele>3.2</ele>
        <time>2020-06-06T08:03:08Z</time>
      </trkpt>
      <trkpt lat="47.44702" lon="-2.27017">
        <ele>3.1</ele>
        <time>2020-06-06T08:03:09Z</time>
      </trkpt>
      <trkpt lat="47.44703" lon="-2.27027">
        <ele>3.1</ele>
        <time>2020-06-06T08:03:10Z</time>
      </trkpt>
      <trkpt lat="47.44704" lon="-2.27036">
        <ele>3</ele>
        <time>2020-06-06T08:03:11Z</time>
      </trkpt>
      <trkpt lat="47.44705" lon="-2.27046">
        <ele>2.9</ele>
        <time>2020-06-06T08:03:12Z</time>
      </trkpt>
      <trkpt lat="47.44706" lon="-2.27057">
        <ele>2.9</ele>
        <time>2020-06-06T08:03:13Z</time>
      </trkpt>
      <trkpt lat="47.44707" lon="-2.27067">
        <ele>2.8</ele>
        <time>2020-06-06T08:03:14Z</time>
      </trkpt>
      <trkpt lat="47.44708" lon="-2.27077">
        <ele>2.8</ele>
        <time>2020-06-06T08:03:15Z</time>
      </trkpt>
      <trkpt lat="47.44709" lon="-2.27086">
        <ele>2.8</ele>
        <time>2020-06-06T08:03:16Z</time>
      </trkpt>
      <trkpt lat="47.44709" lon="-2.27095">
        <ele>2.7</ele>
        <time>2020-06-06T08:03:17Z</time>
      </trkpt>
      <trkpt lat="47.4471" lon="-2.27105">
        <ele>2.7</ele>
        <time>2020-06-06T08:03:18Z</time>
      </trkpt>
      <trkpt lat="47.44711" lon="-2.27115">
        <ele>2.7</ele>
        <time>2020-06-06T08:03:19Z</time>
      </trkpt>
      <trkpt lat="47.44711" lon="-2.27125">
        <ele>2.6</ele>
        <time>2020-06-06T08:03:20Z</time>
      </trkpt>
      <trkpt lat="47.44713" lon="-2.27134">
        <ele>2.6</ele>
        <time>2020-06-06T08:03:21Z</time>
      </trkpt>
      <trkpt lat="47.44714" lon="-2.27144">
        <ele>2.6</ele>
        <time>2020-06-06T08:03:22Z</time>
      </trkpt>
      <trkpt lat="47.44715" lon="-2.27153">
        <ele>2.5</ele>
        <time>2020-06-06T08:03:23Z</time>
      </trkpt>
      <trkpt lat="47.44716" lon="-2.27163">
        <ele>2.5</ele>
        <time>2020-06-06T08:03:24Z</time>
      </trkpt>
      <trkpt lat="47.44717" lon="-2.27172">
        <ele>2.4</ele>
        <time>2020-06-06T08:03:25Z</time>
      </trkpt>
      <trkpt lat="47.44718" lon="-2.27181">
        <ele>2.4</ele>
        <time>2020-06-06T08:03:26Z</time>
      </trkpt>
      <trkpt lat="47.44719" lon="-2.2719">
        <ele>2.3</ele>
        <time>2020-06-06T08:03:27Z</time>
      </trkpt>
      <trkpt lat="47.4472" lon="-2.27199">
        <ele>2.3</ele>
        <time>2020-06-06T08:03:28Z</time>
      </trkpt>
      <trkpt lat="47.44721" lon="-2.27208">
        <ele>2.4</ele>
        <time>2020-06-06T08:03:29Z</time>
      </trkpt>
      <trkpt lat="47.44722" lon="-2.27217">
        <ele>2.4</ele>
        <time>2020-06-06T08:03:30Z</time>
      </trkpt>
      <trkpt lat="47.44722" lon="-2.27227">
        <ele>2.4</ele>
        <time>2020-06-06T08:03:31Z</time>
      </trkpt>
      <trkpt lat="47.44723" lon="-2.27236">
        <ele>2.4</ele>
        <time>2020-06-06T08:03:32Z</time>
      </trkpt>
      <trkpt lat="47.44723" lon="-2.27246">
        <ele>2.4</ele>
        <time>2020-06-06T08:03:33Z</time>
      </trkpt>
      <trkpt lat="47.44723" lon="-2.27255">
        <ele>2.4</ele>
        <time>2020-06-06T08:03:34Z</time>
      </trkpt>
      <trkpt lat="47.44724" lon="-2.27265">
        <ele>2.4</ele>
        <time>2020-06-06T08:03:35Z</time>
      </trkpt>
      <trkpt lat="47.44725" lon="-2.27275">
        <ele>2.4</ele>
        <time>2020-06-06T08:03:36Z</time>
      </trkpt>
      <trkpt lat="47.44727" lon="-2.27284">
        <ele>2.4</ele>
        <time>2020-06-06T08:03:37Z</time>
      </trkpt>
      <trkpt lat="47.44728" lon="-2.27293">
        <ele>2.4</ele>
        <time>2020-06-06T08:03:38Z</time>
      </trkpt>
      <trkpt lat="47.44729" lon="-2.27301">
        <ele>2.4</ele>
        <time>2020-06-06T08:03:39Z</time>
      </trkpt>
      <trkpt lat="47.4473" lon="-2.2731">
        <ele>2.5</ele>
        <time>2020-06-06T08:03:40Z</time>
      </trkpt>
      <trkpt lat="47.4473" lon="-2.27318">
        <ele>2.5</ele>
        <time>2020-06-06T08:03:41Z</time>
      </trkpt>
      <trkpt lat="47.44731" lon="-2.27327">
        <ele>2.5</ele>
        <time>2020-06-06T08:03:42Z</time>
      </trkpt>
      <trkpt lat="47.44732" lon="-2.27337">
        <ele>2.5</ele>
        <time>2020-06-06T08:03:43Z</time>
      </trkpt>
      <trkpt lat="47.44734" lon="-2.27346">
        <ele>2.5</ele>
        <time>2020-06-06T08:03:44Z</time>
      </trkpt>
      <trkpt lat="47.44735" lon="-2.27355">
        <ele>2.5</ele>
        <time>2020-06-06T08:03:45Z</time>
      </trkpt>
      <trkpt lat="47.44736" lon="-2.27364">
        <ele>2.5</ele>
        <time>2020-06-06T08:03:46Z</time>
      </trkpt>
      <trkpt lat="47.44737" lon="-2.27373">
        <ele>2.5</ele>
        <time>2020-06-06T08:03:47Z</time>
      </trkpt>
      <trkpt lat="47.44738" lon="-2.27382">
        <ele>2.5</ele>
        <time>2020-06-06T08:03:48Z</time>
      </trkpt>
      <trkpt lat="47.44738" lon="-2.27391">
        <ele>2.5</ele>
        <time>2020-06-06T08:03:49Z</time>
      </trkpt>
      <trkpt lat="47.44738" lon="-2.274">
        <ele>2.5</ele>
        <time>2020-06-06T08:03:50Z</time>
      </trkpt>
      <trkpt lat="47.44739" lon="-2.27409">
        <ele>2.5</ele>
        <time>2020-06-06T08:03:51Z</time>
      </trkpt>
      <trkpt lat="47.44741" lon="-2.27418">
        <ele>2.5</ele>
        <time>2020-06-06T08:03:52Z</time>
      </trkpt>
      <trkpt lat="47.44742" lon="-2.27427">
        <ele>2.5</ele>
        <time>2020-06-06T08:03:53Z</time>
      </trkpt>
      <trkpt lat="47.44743" lon="-2.27436">
        <ele>2.5</ele>
        <time>2020-06-06T08:03:54Z</time>
      </trkpt>
      <trkpt lat="47.44744" lon="-2.27444">
        <ele>2.5</ele>
        <time>2020-06-06T08:03:55Z</time>
      </trkpt>
      <trkpt lat="47.44745" lon="-2.27453">
        <ele>2.5</ele>
        <time>2020-06-06T08:03:56Z</time>
      </trkpt>
      <trkpt lat="47.44746" lon="-2.27461">
        <ele>2.5</ele>
        <time>2020-06-06T08:03:57Z</time>
      </trkpt>
      <trkpt lat="47.44748" lon="-2.2747">
        <ele>2.5</ele>
        <time>2020-06-06T08:03:58Z</time>
      </trkpt>
      <trkpt lat="47.44748" lon="-2.27478">
        <ele>2.5</ele>
        <time>2020-06-06T08:03:59Z</time>
      </trkpt>
      <trkpt lat="47.44748" lon="-2.27487">
        <ele>2.5</ele>
        <time>2020-06-06T08:04:00Z</time>
      </trkpt>
      <trkpt lat="47.44749" lon="-2.27496">
        <ele>2.5</ele>
        <time>2020-06-06T08:04:01Z</time>
      </trkpt>
      <trkpt lat="47.4475" lon="-2.27505">
        <ele>2.5</ele>
        <time>2020-06-06T08:04:02Z</time>
      </trkpt>
      <trkpt lat="47.44751" lon="-2.27514">
        <ele>2.5</ele>
        <time>2020-06-06T08:04:03Z</time>
      </trkpt>
      <trkpt lat="47.44752" lon="-2.27524">
        <ele>2.5</ele>
        <time>2020-06-06T08:04:04Z</time>
      </trkpt>
      <trkpt lat="47.44753" lon="-2.27533">
        <ele>2.5</ele>
        <time>2020-06-06T08:04:05Z</time>
      </trkpt>
      <trkpt lat="47.44755" lon="-2.27541">
        <ele>2.5</ele>
        <time>2020-06-06T08:04:06Z</time>
      </trkpt>
      <trkpt lat="47.44756" lon="-2.2755">
        <ele>2.6</ele>
        <time>2020-06-06T08:04:07Z</time>
      </trkpt>
      <trkpt lat="47.44757" lon="-2.27559">
        <ele>2.6</ele>
        <time>2020-06-06T08:04:08Z</time>
      </trkpt>
      <trkpt lat="47.44757" lon="-2.27568">
        <ele>2.7</ele>
        <time>2020-06-06T08:04:09Z</time>
      </trkpt>
      <trkpt lat="47.44759" lon="-2.27576">
        <ele>2.7</ele>
        <time>2020-06-06T08:04:10Z</time>
      </trkpt>
      <trkpt lat="47.4476" lon="-2.27585">
        <ele>2.8</ele>
        <time>2020-06-06T08:04:11Z</time>
      </trkpt>
      <trkpt lat="47.44761" lon="-2.27594">
        <ele>2.8</ele>
        <time>2020-06-06T08:04:12Z</time>
      </trkpt>
      <trkpt lat="47.44762" lon="-2.27604">
        <ele>2.8</ele>
        <time>2020-06-06T08:04:13Z</time>
      </trkpt>
      <trkpt lat="47.44763" lon="-2.27613">
        <ele>2.8</ele>
        <time>2020-06-06T08:04:14Z</time>
      </trkpt>
      <trkpt lat="47.44763" lon="-2.27622">
        <ele>2.8</ele>
        <time>2020-06-06T08:04:15Z</time>
      </trkpt>
      <trkpt lat="47.44764" lon="-2.27631">
        <ele>2.8</ele>
        <time>2020-06-06T08:04:16Z</time>
      </trkpt>
      <trkpt lat="47.44765" lon="-2.2764">
        <ele>2.9</ele>
        <time>2020-06-06T08:04:17Z</time>
      </trkpt>
      <trkpt lat="47.44767" lon="-2.27649">
        <ele>2.9</ele>
        <time>2020-06-06T08:04:18Z</time>
      </trkpt>
      <trkpt lat="47.44768" lon="-2.27658">
        <ele>2.9</ele>
        <time>2020-06-06T08:04:19Z</time>
      </trkpt>
      <trkpt lat="47.44768" lon="-2.27668">
        <ele>2.9</ele>
        <time>2020-06-06T08:04:20Z</time>
      </trkpt>
      <trkpt lat="47.44769" lon="-2.27677">
        <ele>2.9</ele>
        <time>2020-06-06T08:04:21Z</time>
      </trkpt>
      <trkpt lat="47.4477" lon="-2.27686">
        <ele>2.9</ele>
        <time>2020-06-06T08:04:22Z</time>
      </trkpt>
      <trkpt lat="47.44771" lon="-2.27695">
        <ele>2.9</ele>
        <time>2020-06-06T08:04:23Z</time>
      </trkpt>
      <trkpt lat="47.44771" lon="-2.27704">
        <ele>2.9</ele>
        <time>2020-06-06T08:04:24Z</time>
      </trkpt>
      <trkpt lat="47.44772" lon="-2.27714">
        <ele>2.9</ele>
        <time>2020-06-06T08:04:25Z</time>
      </trkpt>
      <trkpt lat="47.44772" lon="-2.27723">
        <ele>2.9</ele>
        <time>2020-06-06T08:04:26Z</time>
      </trkpt>
      <trkpt lat="47.44773" lon="-2.27732">
        <ele>2.9</ele>
        <time>2020-06-06T08:04:27Z</time>
      </trkpt>
      <trkpt lat="47.44774" lon="-2.27741">
        <ele>2.8</ele>
        <time>2020-06-06T08:04:28Z</time>
      </trkpt>
      <trkpt lat="47.44774" lon="-2.2775">
        <ele>2.8</ele>
        <time>2020-06-06T08:04:29Z</time>
      </trkpt>
      <trkpt lat="47.44775" lon="-2.27759">
        <ele>2.8</ele>
        <time>2020-06-06T08:04:30Z</time>
      </trkpt>
      <trkpt lat="47.44776" lon="-2.27768">
        <ele>2.8</ele>
        <time>2020-06-06T08:04:31Z</time>
      </trkpt>
      <trkpt lat="47.44777" lon="-2.27777">
        <ele>2.8</ele>
        <time>2020-06-06T08:04:32Z</time>
      </trkpt>
      <trkpt lat="47.44779" lon="-2.27787">
        <ele>2.8</ele>
        <time>2020-06-06T08:04:33Z</time>
      </trkpt>
      <trkpt lat="47.44779" lon="-2.27796">
        <ele>2.8</ele>
        <time>2020-06-06T08:04:34Z</time>
      </trkpt>
      <trkpt lat="47.4478" lon="-2.27805">
        <ele>2.8</ele>
        <time>2020-06-06T08:04:35Z</time>
      </trkpt>
      <trkpt lat="47.44781" lon="-2.27815">
        <ele>2.8</ele>
        <time>2020-06-06T08:04:36Z</time>
      </trkpt>
      <trkpt lat="47.44782" lon="-2.27824">
        <ele>2.9</ele>
        <time>2020-06-06T08:04:37Z</time>
      </trkpt>
      <trkpt lat="47.44782" lon="-2.27833">
        <ele>2.9</ele>
        <time>2020-06-06T08:04:38Z</time>
      </trkpt>
      <trkpt lat="47.44783" lon="-2.27842">
        <ele>2.9</ele>
        <time>2020-06-06T08:04:39Z</time>
      </trkpt>
      <trkpt lat="47.44783" lon="-2.27852">
        <ele>2.9</ele>
        <time>2020-06-06T08:04:40Z</time>
      </trkpt>
      <trkpt lat="47.44784" lon="-2.27861">
        <ele>2.8</ele>
        <time>2020-06-06T08:04:41Z</time>
      </trkpt>
      <trkpt lat="47.44785" lon="-2.27871">
        <ele>2.8</ele>
        <time>2020-06-06T08:04:42Z</time>
      </trkpt>
      <trkpt lat="47.44785" lon="-2.2788">
        <ele>2.8</ele>
        <time>2020-06-06T08:04:43Z</time>
      </trkpt>
      <trkpt lat="47.44786" lon="-2.27889">
        <ele>2.8</ele>
        <time>2020-06-06T08:04:44Z</time>
      </trkpt>
      <trkpt lat="47.44788" lon="-2.27898">
        <ele>2.8</ele>
        <time>2020-06-06T08:04:45Z</time>
      </trkpt>
      <trkpt lat="47.44789" lon="-2.27907">
        <ele>2.8</ele>
        <time>2020-06-06T08:04:46Z</time>
      </trkpt>
      <trkpt lat="47.44791" lon="-2.27916">
        <ele>2.8</ele>
        <time>2020-06-06T08:04:47Z</time>
      </trkpt>
      <trkpt lat="47.44791" lon="-2.27926">
        <ele>2.8</ele>
        <time>2020-06-06T08:04:48Z</time>
      </trkpt>
      <trkpt lat="47.44792" lon="-2.27935">
        <ele>2.8</ele>
        <time>2020-06-06T08:04:49Z</time>
      </trkpt>
      <trkpt lat="47.44793" lon="-2.27943">
        <ele>2.7</ele>
        <time>2020-06-06T08:04:50Z</time>
      </trkpt>
      <trkpt lat="47.44795" lon="-2.27952">
        <ele>2.7</ele>
        <time>2020-06-06T08:04:51Z</time>
      </trkpt>
      <trkpt lat="47.44795" lon="-2.27961">
        <ele>2.6</ele>
        <time>2020-06-06T08:04:52Z</time>
      </trkpt>
      <trkpt lat="47.44796" lon="-2.27969">
        <ele>2.6</ele>
        <time>2020-06-06T08:04:53Z</time>
      </trkpt>
      <trkpt lat="47.44796" lon="-2.27978">
        <ele>2.5</ele>
        <time>2020-06-06T08:04:54Z</time>
      </trkpt>
      <trkpt lat="47.44797" lon="-2.27986">
        <ele>2.5</ele>
        <time>2020-06-06T08:04:55Z</time>
      </trkpt>
      <trkpt lat="47.44797" lon="-2.27994">
        <ele>2.5</ele>
        <time>2020-06-06T08:04:56Z</time>
      </trkpt>
      <trkpt lat="47.44798" lon="-2.28002">
        <ele>2.5</ele>
        <time>2020-06-06T08:04:57Z</time>
      </trkpt>
      <trkpt lat="47.44799" lon="-2.2801">
        <ele>2.5</ele>
        <time>2020-06-06T08:04:58Z</time>
      </trkpt>
      <trkpt lat="47.44801" lon="-2.28018">
        <ele>2.5</ele>
        <time>2020-06-06T08:04:59Z</time>
      </trkpt>
      <trkpt lat="47.44802" lon="-2.28027">
        <ele>2.5</ele>
        <time>2020-06-06T08:05:00Z</time>
      </trkpt>
      <trkpt lat="47.44803" lon="-2.28036">
        <ele>2.5</ele>
        <time>2020-06-06T08:05:01Z</time>
      </trkpt>
      <trkpt lat="47.44805" lon="-2.28045">
        <ele>2.4</ele>
        <time>2020-06-06T08:05:02Z</time>
      </trkpt>
      <trkpt lat="47.44806" lon="-2.28053">
        <ele>2.4</ele>
        <time>2020-06-06T08:05:03Z</time>
      </trkpt>
      <trkpt lat="47.44808" lon="-2.28062">
        <ele>2.4</ele>
        <time>2020-06-06T08:05:04Z</time>
      </trkpt>
      <trkpt lat="47.4481" lon="-2.2807">
        <ele>2.4</ele>
        <time>2020-06-06T08:05:05Z</time>
      </trkpt>
      <trkpt lat="47.44811" lon="-2.28078">
        <ele>2.4</ele>
        <time>2020-06-06T08:05:06Z</time>
      </trkpt>
      <trkpt lat="47.44811" lon="-2.28085">
        <ele>2.4</ele>
        <time>2020-06-06T08:05:07Z</time>
      </trkpt>
      <trkpt lat="47.44812" lon="-2.28092">
        <ele>2.4</ele>
        <time>2020-06-06T08:05:08Z</time>
      </trkpt>
      <trkpt lat="47.44813" lon="-2.28099">
        <ele>2.4</ele>
        <time>2020-06-06T08:05:09Z</time>
      </trkpt>
      <trkpt lat="47.44814" lon="-2.28106">
        <ele>2.5</ele>
        <time>2020-06-06T08:05:10Z</time>
      </trkpt>
      <trkpt lat="47.44814" lon="-2.28114">
        <ele>2.5</ele>
        <time>2020-06-06T08:05:11Z</time>
      </trkpt>
      <trkpt lat="47.44814" lon="-2.28122">
        <ele>2.5</ele>
        <time>2020-06-06T08:05:12Z</time>
      </trkpt>
      <trkpt lat="47.44815" lon="-2.2813">
        <ele>2.6</ele>
        <time>2020-06-06T08:05:13Z</time>
      </trkpt>
      <trkpt lat="47.44815" lon="-2.28138">
        <ele>2.6</ele>
        <time>2020-06-06T08:05:14Z</time>
      </trkpt>
      <trkpt lat="47.44816" lon="-2.28147">
        <ele>2.6</ele>
        <time>2020-06-06T08:05:15Z</time>
      </trkpt>
      <trkpt lat="47.44817" lon="-2.28155">
        <ele>2.6</ele>
        <time>2020-06-06T08:05:16Z</time>
      </trkpt>
      <trkpt lat="47.44818" lon="-2.28163">
        <ele>2.6</ele>
        <time>2020-06-06T08:05:17Z</time>
      </trkpt>
      <trkpt lat="47.4482" lon="-2.28171">
        <ele>2.5</ele>
        <time>2020-06-06T08:05:18Z</time>
      </trkpt>
      <trkpt lat="47.4482" lon="-2.28178">
        <ele>2.5</ele>
        <time>2020-06-06T08:05:19Z</time>
      </trkpt>
      <trkpt lat="47.44821" lon="-2.28186">
        <ele>2.5</ele>
        <time>2020-06-06T08:05:20Z</time>
      </trkpt>
      <trkpt lat="47.44821" lon="-2.28194">
        <ele>2.4</ele>
        <time>2020-06-06T08:05:21Z</time>
      </trkpt>
      <trkpt lat="47.44822" lon="-2.28203">
        <ele>2.4</ele>
        <time>2020-06-06T08:05:22Z</time>
      </trkpt>
      <trkpt lat="47.44822" lon="-2.28211">
        <ele>2.4</ele>
        <time>2020-06-06T08:05:23Z</time>
      </trkpt>
      <trkpt lat="47.44823" lon="-2.28218">
        <ele>2.4</ele>
        <time>2020-06-06T08:05:24Z</time>
      </trkpt>
      <trkpt lat="47.44823" lon="-2.28225">
        <ele>2.4</ele>
        <time>2020-06-06T08:05:25Z</time>
      </trkpt>
      <trkpt lat="47.44824" lon="-2.28233">
        <ele>2.4</ele>
        <time>2020-06-06T08:05:26Z</time>
      </trkpt>
      <trkpt lat="47.44825" lon="-2.28241">
        <ele>2.5</ele>
        <time>2020-06-06T08:05:27Z</time>
      </trkpt>
      <trkpt lat="47.44825" lon="-2.28248">
        <ele>2.5</ele>
        <time>2020-06-06T08:05:28Z</time>
      </trkpt>
      <trkpt lat="47.44826" lon="-2.28256">
        <ele>2.5</ele>
        <time>2020-06-06T08:05:29Z</time>
      </trkpt>
      <trkpt lat="47.44827" lon="-2.28264">
        <ele>2.5</ele>
        <time>2020-06-06T08:05:30Z</time>
      </trkpt>
      <trkpt lat="47.44829" lon="-2.28271">
        <ele>2.5</ele>
        <time>2020-06-06T08:05:31Z</time>
      </trkpt>
      <trkpt lat="47.44829" lon="-2.28279">
        <ele>2.5</ele>
        <time>2020-06-06T08:05:32Z</time>
      </trkpt>
      <trkpt lat="47.44831" lon="-2.28287">
        <ele>2.5</ele>
        <time>2020-06-06T08:05:33Z</time>
      </trkpt>
      <trkpt lat="47.44831" lon="-2.28294">
        <ele>2.4</ele>
        <time>2020-06-06T08:05:34Z</time>
      </trkpt>
      <trkpt lat="47.44832" lon="-2.28302">
        <ele>2.4</ele>
        <time>2020-06-06T08:05:35Z</time>
      </trkpt>
      <trkpt lat="47.44833" lon="-2.2831">
        <ele>2.4</ele>
        <time>2020-06-06T08:05:36Z</time>
      </trkpt>
      <trkpt lat="47.44834" lon="-2.28318">
        <ele>2.4</ele>
        <time>2020-06-06T08:05:37Z</time>
      </trkpt>
      <trkpt lat="47.44835" lon="-2.28325">
        <ele>2.5</ele>
        <time>2020-06-06T08:05:38Z</time>
      </trkpt>
      <trkpt lat="47.44836" lon="-2.28332">
        <ele>2.5</ele>
        <time>2020-06-06T08:05:39Z</time>
      </trkpt>
      <trkpt lat="47.44837" lon="-2.2834">
        <ele>2.5</ele>
        <time>2020-06-06T08:05:40Z</time>
      </trkpt>
      <trkpt lat="47.44838" lon="-2.28347">
        <ele>2.5</ele>
        <time>2020-06-06T08:05:41Z</time>
      </trkpt>
      <trkpt lat="47.44838" lon="-2.28355">
        <ele>2.5</ele>
        <time>2020-06-06T08:05:42Z</time>
      </trkpt>
      <trkpt lat="47.44839" lon="-2.28363">
        <ele>2.5</ele>
        <time>2020-06-06T08:05:43Z</time>
      </trkpt>
      <trkpt lat="47.4484" lon="-2.28371">
        <ele>2.5</ele>
        <time>2020-06-06T08:05:44Z</time>
      </trkpt>
      <trkpt lat="47.44841" lon="-2.2838">
        <ele>2.5</ele>
        <time>2020-06-06T08:05:45Z</time>
      </trkpt>
      <trkpt lat="47.44841" lon="-2.28388">
        <ele>2.5</ele>
        <time>2020-06-06T08:05:46Z</time>
      </trkpt>
      <trkpt lat="47.44841" lon="-2.28397">
        <ele>2.5</ele>
        <time>2020-06-06T08:05:47Z</time>
      </trkpt>
      <trkpt lat="47.44842" lon="-2.28405">
        <ele>2.5</ele>
        <time>2020-06-06T08:05:48Z</time>
      </trkpt>
      <trkpt lat="47.44843" lon="-2.28413">
        <ele>2.5</ele>
        <time>2020-06-06T08:05:49Z</time>
      </trkpt>
      <trkpt lat="47.44844" lon="-2.28421">
        <ele>2.5</ele>
        <time>2020-06-06T08:05:50Z</time>
      </trkpt>
      <trkpt lat="47.44845" lon="-2.28429">
        <ele>2.6</ele>
        <time>2020-06-06T08:05:51Z</time>
      </trkpt>
      <trkpt lat="47.44847" lon="-2.28437">
        <ele>2.6</ele>
        <time>2020-06-06T08:05:52Z</time>
      </trkpt>
      <trkpt lat="47.44848" lon="-2.28446">
        <ele>2.6</ele>
        <time>2020-06-06T08:05:53Z</time>
      </trkpt>
      <trkpt lat="47.4485" lon="-2.28454">
        <ele>2.6</ele>
        <time>2020-06-06T08:05:54Z</time>
      </trkpt>
      <trkpt lat="47.44851" lon="-2.28462">
        <ele>2.7</ele>
        <time>2020-06-06T08:05:55Z</time>
      </trkpt>
      <trkpt lat="47.44851" lon="-2.2847">
        <ele>2.7</ele>
        <time>2020-06-06T08:05:56Z</time>
      </trkpt>
      <trkpt lat="47.44852" lon="-2.28478">
        <ele>2.7</ele>
        <time>2020-06-06T08:05:57Z</time>
      </trkpt>
      <trkpt lat="47.44853" lon="-2.28486">
        <ele>2.7</ele>
        <time>2020-06-06T08:05:58Z</time>
      </trkpt>
      <trkpt lat="47.44853" lon="-2.28494">
        <ele>2.8</ele>
        <time>2020-06-06T08:05:59Z</time>
      </trkpt>
      <trkpt lat="47.44854" lon="-2.28502">
        <ele>2.8</ele>
        <time>2020-06-06T08:06:00Z</time>
      </trkpt>
      <trkpt lat="47.44854" lon="-2.2851">
        <ele>2.9</ele>
        <time>2020-06-06T08:06:01Z</time>
      </trkpt>
      <trkpt lat="47.44855" lon="-2.28518">
        <ele>2.9</ele>
        <time>2020-06-06T08:06:02Z</time>
      </trkpt>
      <trkpt lat="47.44856" lon="-2.28526">
        <ele>2.9</ele>
        <time>2020-06-06T08:06:03Z</time>
      </trkpt>
      <trkpt lat="47.44856" lon="-2.28535">
        <ele>3</ele>
        <time>2020-06-06T08:06:04Z</time>
      </trkpt>
      <trkpt lat="47.44856" lon="-2.28543">
        <ele>3.1</ele>
        <time>2020-06-06T08:06:05Z</time>
      </trkpt>
      <trkpt lat="47.44856" lon="-2.28552">
        <ele>3.1</ele>
        <time>2020-06-06T08:06:06Z</time>
      </trkpt>
      <trkpt lat="47.44856" lon="-2.2856">
        <ele>3.2</ele>
        <time>2020-06-06T08:06:07Z</time>
      </trkpt>
      <trkpt lat="47.44857" lon="-2.28568">
        <ele>3.3</ele>
        <time>2020-06-06T08:06:08Z</time>
      </trkpt>
      <trkpt lat="47.44858" lon="-2.28576">
        <ele>3.4</ele>
        <time>2020-06-06T08:06:09Z</time>
      </trkpt>
      <trkpt lat="47.44859" lon="-2.28585">
        <ele>3.5</ele>
        <time>2020-06-06T08:06:10Z</time>
      </trkpt>
      <trkpt lat="47.44859" lon="-2.28593">
        <ele>3.6</ele>
        <time>2020-06-06T08:06:11Z</time>
      </trkpt>
      <trkpt lat="47.44859" lon="-2.28601">
        <ele>3.7</ele>
        <time>2020-06-06T08:06:12Z</time>
      </trkpt>
      <trkpt lat="47.44859" lon="-2.28609">
        <ele>3.8</ele>
        <time>2020-06-06T08:06:13Z</time>
      </trkpt>
      <trkpt lat="47.44859" lon="-2.28617">
        <ele>3.9</ele>
        <time>2020-06-06T08:06:14Z</time>
      </trkpt>
      <trkpt lat="47.44859" lon="-2.28625">
        <ele>4</ele>
        <time>2020-06-06T08:06:15Z</time>
      </trkpt>
      <trkpt lat="47.44858" lon="-2.28632">
        <ele>4.1</ele>
        <time>2020-06-06T08:06:16Z</time>
      </trkpt>
      <trkpt lat="47.44857" lon="-2.2864">
        <ele>4.2</ele>
        <time>2020-06-06T08:06:17Z</time>
      </trkpt>
      <trkpt lat="47.44857" lon="-2.28648">
        <ele>4.3</ele>
        <time>2020-06-06T08:06:18Z</time>
      </trkpt>
      <trkpt lat="47.44857" lon="-2.28655">
        <ele>4.4</ele>
        <time>2020-06-06T08:06:19Z</time>
      </trkpt>
      <trkpt lat="47.44857" lon="-2.28663">
        <ele>4.5</ele>
        <time>2020-06-06T08:06:20Z</time>
      </trkpt>
      <trkpt lat="47.44857" lon="-2.28671">
        <ele>4.6</ele>
        <time>2020-06-06T08:06:21Z</time>
      </trkpt>
      <trkpt lat="47.44858" lon="-2.28678">
        <ele>4.8</ele>
        <time>2020-06-06T08:06:22Z</time>
      </trkpt>
      <trkpt lat="47.44859" lon="-2.28686">
        <ele>5</ele>
        <time>2020-06-06T08:06:23Z</time>
      </trkpt>
      <trkpt lat="47.4486" lon="-2.28694">
        <ele>5.1</ele>
        <time>2020-06-06T08:06:24Z</time>
      </trkpt>
      <trkpt lat="47.44861" lon="-2.28701">
        <ele>5.3</ele>
        <time>2020-06-06T08:06:25Z</time>
      </trkpt>
      <trkpt lat="47.44861" lon="-2.28709">
        <ele>5.4</ele>
        <time>2020-06-06T08:06:26Z</time>
      </trkpt>
      <trkpt lat="47.44861" lon="-2.28717">
        <ele>5.6</ele>
        <time>2020-06-06T08:06:27Z</time>
      </trkpt>
      <trkpt lat="47.44862" lon="-2.28724">
        <ele>5.8</ele>
        <time>2020-06-06T08:06:28Z</time>
      </trkpt>
      <trkpt lat="47.44862" lon="-2.28732">
        <ele>6</ele>
        <time>2020-06-06T08:06:29Z</time>
      </trkpt>
      <trkpt lat="47.44863" lon="-2.28739">
        <ele>6.1</ele>
        <time>2020-06-06T08:06:30Z</time>
      </trkpt>
      <trkpt lat="47.44863" lon="-2.28746">
        <ele>6.3</ele>
        <time>2020-06-06T08:06:31Z</time>
      </trkpt>
      <trkpt lat="47.44863" lon="-2.28753">
        <ele>6.5</ele>
        <time>2020-06-06T08:06:32Z</time>
      </trkpt>
      <trkpt lat="47.44864" lon="-2.2876">
        <ele>6.7</ele>
        <time>2020-06-06T08:06:33Z</time>
      </trkpt>
      <trkpt lat="47.44864" lon="-2.28767">
        <ele>6.9</ele>
        <time>2020-06-06T08:06:34Z</time>
      </trkpt>
      <trkpt lat="47.44865" lon="-2.28774">
        <ele>7.1</ele>
        <time>2020-06-06T08:06:35Z</time>
      </trkpt>
      <trkpt lat="47.44866" lon="-2.28781">
        <ele>7.3</ele>
        <time>2020-06-06T08:06:36Z</time>
      </trkpt>
      <trkpt lat="47.44866" lon="-2.28789">
        <ele>7.6</ele>
        <time>2020-06-06T08:06:37Z</time>
      </trkpt>
      <trkpt lat="47.44866" lon="-2.28796">
        <ele>7.8</ele>
        <time>2020-06-06T08:06:38Z</time>
      </trkpt>
      <trkpt lat="47.44865" lon="-2.28803">
        <ele>8</ele>
        <time>2020-06-06T08:06:39Z</time>
      </trkpt>
      <trkpt lat="47.44865" lon="-2.28809">
        <ele>8.2</ele>
        <time>2020-06-06T08:06:40Z</time>
      </trkpt>
      <trkpt lat="47.44865" lon="-2.28816">
        <ele>8.4</ele>
        <time>2020-06-06T08:06:41Z</time>
      </trkpt>
      <trkpt lat="47.44864" lon="-2.28823">
        <ele>8.6</ele>
        <time>2020-06-06T08:06:42Z</time>
      </trkpt>
      <trkpt lat="47.44863" lon="-2.28831">
        <ele>8.8</ele>
        <time>2020-06-06T08:06:43Z</time>
      </trkpt>
      <trkpt lat="47.44863" lon="-2.28838">
        <ele>9</ele>
        <time>2020-06-06T08:06:44Z</time>
      </trkpt>
      <trkpt lat="47.44864" lon="-2.28845">
        <ele>9.2</ele>
        <time>2020-06-06T08:06:45Z</time>
      </trkpt>
      <trkpt lat="47.44864" lon="-2.28853">
        <ele>9.4</ele>
        <time>2020-06-06T08:06:46Z</time>
      </trkpt>
      <trkpt lat="47.44864" lon="-2.28862">
        <ele>9.5</ele>
        <time>2020-06-06T08:06:47Z</time>
      </trkpt>
      <trkpt lat="47.44864" lon="-2.2887">
        <ele>9.6</ele>
        <time>2020-06-06T08:06:48Z</time>
      </trkpt>
      <trkpt lat="47.44863" lon="-2.28878">
        <ele>9.8</ele>
        <time>2020-06-06T08:06:49Z</time>
      </trkpt>
      <trkpt lat="47.44864" lon="-2.28885">
        <ele>9.9</ele>
        <time>2020-06-06T08:06:50Z</time>
      </trkpt>
      <trkpt lat="47.44864" lon="-2.28893">
        <ele>10</ele>
        <time>2020-06-06T08:06:51Z</time>
      </trkpt>
      <trkpt lat="47.44864" lon="-2.28899">
        <ele>10.1</ele>
        <time>2020-06-06T08:06:52Z</time>
      </trkpt>
      <trkpt lat="47.44864" lon="-2.28906">
        <ele>10.2</ele>
        <time>2020-06-06T08:06:53Z</time>
      </trkpt>
      <trkpt lat="47.44864" lon="-2.28913">
        <ele>10.2</ele>
        <time>2020-06-06T08:06:54Z</time>
      </trkpt>
      <trkpt lat="47.44865" lon="-2.2892">
        <ele>10.3</ele>
        <time>2020-06-06T08:06:55Z</time>
      </trkpt>
      <trkpt lat="47.44865" lon="-2.28927">
        <ele>10.4</ele>
        <time>2020-06-06T08:06:56Z</time>
      </trkpt>
      <trkpt lat="47.44866" lon="-2.28934">
        <ele>10.5</ele>
        <time>2020-06-06T08:06:57Z</time>
      </trkpt>
      <trkpt lat="47.44866" lon="-2.2894">
        <ele>10.5</ele>
        <time>2020-06-06T08:06:58Z</time>
      </trkpt>
      <trkpt lat="47.44867" lon="-2.28946">
        <ele>10.6</ele>
        <time>2020-06-06T08:06:59Z</time>
      </trkpt>
      <trkpt lat="47.44866" lon="-2.28953">
        <ele>10.6</ele>
        <time>2020-06-06T08:07:00Z</time>
      </trkpt>
      <trkpt lat="47.44866" lon="-2.28959">
        <ele>10.7</ele>
        <time>2020-06-06T08:07:01Z</time>
      </trkpt>
      <trkpt lat="47.44866" lon="-2.28966">
        <ele>10.8</ele>
        <time>2020-06-06T08:07:02Z</time>
      </trkpt>
      <trkpt lat="47.44867" lon="-2.28974">
        <ele>10.8</ele>
        <time>2020-06-06T08:07:03Z</time>
      </trkpt>
      <trkpt lat="47.44868" lon="-2.28982">
        <ele>10.8</ele>
        <time>2020-06-06T08:07:04Z</time>
      </trkpt>
      <trkpt lat="47.44868" lon="-2.2899">
        <ele>10.9</ele>
        <time>2020-06-06T08:07:05Z</time>
      </trkpt>
      <trkpt lat="47.44867" lon="-2.28997">
        <ele>10.9</ele>
        <time>2020-06-06T08:07:06Z</time>
      </trkpt>
      <trkpt lat="47.44867" lon="-2.29004">
        <ele>10.9</ele>
        <time>2020-06-06T08:07:07Z</time>
      </trkpt>
      <trkpt lat="47.44867" lon="-2.29011">
        <ele>10.9</ele>
        <time>2020-06-06T08:07:08Z</time>
      </trkpt>
      <trkpt lat="47.44867" lon="-2.29018">
        <ele>10.9</ele>
        <time>2020-06-06T08:07:09Z</time>
      </trkpt>
      <trkpt lat="47.44868" lon="-2.29026">
        <ele>10.9</ele>
        <time>2020-06-06T08:07:10Z</time>
      </trkpt>
      <trkpt lat="47.44867" lon="-2.29035">
        <ele>10.9</ele>
        <time>2020-06-06T08:07:11Z</time>
      </trkpt>
      <trkpt lat="47.44867" lon="-2.29044">
        <ele>10.9</ele>
        <time>2020-06-06T08:07:12Z</time>
      </trkpt>
      <trkpt lat="47.44868" lon="-2.29052">
        <ele>10.9</ele>
        <time>2020-06-06T08:07:13Z</time>
      </trkpt>
      <trkpt lat="47.44868" lon="-2.29059">
        <ele>10.9</ele>
        <time>2020-06-06T08:07:14Z</time>
      </trkpt>
      <trkpt lat="47.44869" lon="-2.29067">
        <ele>11</ele>
        <time>2020-06-06T08:07:15Z</time>
      </trkpt>
      <trkpt lat="47.44869" lon="-2.29075">
        <ele>11</ele>
        <time>2020-06-06T08:07:16Z</time>
      </trkpt>
      <trkpt lat="47.44869" lon="-2.29083">
        <ele>11</ele>
        <time>2020-06-06T08:07:17Z</time>
      </trkpt>
      <trkpt lat="47.44869" lon="-2.29091">
        <ele>11.1</ele>
        <time>2020-06-06T08:07:18Z</time>
      </trkpt>
      <trkpt lat="47.44869" lon="-2.29099">
        <ele>11.1</ele>
        <time>2020-06-06T08:07:19Z</time>
      </trkpt>
      <trkpt lat="47.4487" lon="-2.29107">
        <ele>11.1</ele>
        <time>2020-06-06T08:07:20Z</time>
      </trkpt>
      <trkpt lat="47.44871" lon="-2.29114">
        <ele>11.1</ele>
        <time>2020-06-06T08:07:21Z</time>
      </trkpt>
      <trkpt lat="47.44871" lon="-2.2912">
        <ele>11.1</ele>
        <time>2020-06-06T08:07:22Z</time>
      </trkpt>
      <trkpt lat="47.44872" lon="-2.29127">
        <ele>11.1</ele>
        <time>2020-06-06T08:07:23Z</time>
      </trkpt>
      <trkpt lat="47.44873" lon="-2.29135">
        <ele>11.1</ele>
        <time>2020-06-06T08:07:24Z</time>
      </trkpt>
      <trkpt lat="47.44874" lon="-2.29144">
        <ele>11.1</ele>
        <time>2020-06-06T08:07:25Z</time>
      </trkpt>
      <trkpt lat="47.44874" lon="-2.29153">
        <ele>11</ele>
        <time>2020-06-06T08:07:26Z</time>
      </trkpt>
      <trkpt lat="47.44874" lon="-2.29161">
        <ele>11</ele>
        <time>2020-06-06T08:07:27Z</time>
      </trkpt>
      <trkpt lat="47.44874" lon="-2.29169">
        <ele>11</ele>
        <time>2020-06-06T08:07:28Z</time>
      </trkpt>
      <trkpt lat="47.44875" lon="-2.29178">
        <ele>11</ele>
        <time>2020-06-06T08:07:29Z</time>
      </trkpt>
      <trkpt lat="47.44875" lon="-2.29184">
        <ele>11</ele>
        <time>2020-06-06T08:07:30Z</time>
      </trkpt>
      <trkpt lat="47.44875" lon="-2.29192">
        <ele>11</ele>
        <time>2020-06-06T08:07:31Z</time>
      </trkpt>
      <trkpt lat="47.44876" lon="-2.29201">
        <ele>11</ele>
        <time>2020-06-06T08:07:32Z</time>
      </trkpt>
      <trkpt lat="47.44876" lon="-2.29208">
        <ele>11</ele>
        <time>2020-06-06T08:07:33Z</time>
      </trkpt>
      <trkpt lat="47.44876" lon="-2.29215">
        <ele>10.9</ele>
        <time>2020-06-06T08:07:34Z</time>
      </trkpt>
      <trkpt lat="47.44876" lon="-2.29223">
        <ele>10.9</ele>
        <time>2020-06-06T08:07:35Z</time>
      </trkpt>
      <trkpt lat="47.44876" lon="-2.29233">
        <ele>10.8</ele>
        <time>2020-06-06T08:07:36Z</time>
      </trkpt>
      <trkpt lat="47.44876" lon="-2.29243">
        <ele>10.7</ele>
        <time>2020-06-06T08:07:37Z</time>
      </trkpt>
      <trkpt lat="47.44876" lon="-2.29251">
        <ele>10.7</ele>
        <time>2020-06-06T08:07:38Z</time>
      </trkpt>
      <trkpt lat="47.44876" lon="-2.29259">
        <ele>10.6</ele>
        <time>2020-06-06T08:07:39Z</time>
      </trkpt>
      <trkpt lat="47.44876" lon="-2.29266">
        <ele>10.6</ele>
        <time>2020-06-06T08:07:40Z</time>
      </trkpt>
      <trkpt lat="47.44876" lon="-2.29274">
        <ele>10.6</ele>
        <time>2020-06-06T08:07:41Z</time>
      </trkpt>
      <trkpt lat="47.44876" lon="-2.2928">
        <ele>10.6</ele>
        <time>2020-06-06T08:07:42Z</time>
      </trkpt>
      <trkpt lat="47.44877" lon="-2.29287">
        <ele>10.5</ele>
        <time>2020-06-06T08:07:43Z</time>
      </trkpt>
      <trkpt lat="47.44877" lon="-2.29294">
        <ele>10.5</ele>
        <time>2020-06-06T08:07:44Z</time>
      </trkpt>
      <trkpt lat="47.44878" lon="-2.29302">
        <ele>10.5</ele>
        <time>2020-06-06T08:07:45Z</time>
      </trkpt>
      <trkpt lat="47.44878" lon="-2.2931">
        <ele>10.5</ele>
        <time>2020-06-06T08:07:46Z</time>
      </trkpt>
      <trkpt lat="47.44879" lon="-2.29319">
        <ele>10.4</ele>
        <time>2020-06-06T08:07:47Z</time>
      </trkpt>
      <trkpt lat="47.4488" lon="-2.29325">
        <ele>10.4</ele>
        <time>2020-06-06T08:07:48Z</time>
      </trkpt>
      <trkpt lat="47.4488" lon="-2.29333">
        <ele>10.4</ele>
        <time>2020-06-06T08:07:49Z</time>
      </trkpt>
      <trkpt lat="47.4488" lon="-2.29341">
        <ele>10.3</ele>
        <time>2020-06-06T08:07:50Z</time>
      </trkpt>
      <trkpt lat="47.44881" lon="-2.29349">
        <ele>10.3</ele>
        <time>2020-06-06T08:07:51Z</time>
      </trkpt>
      <trkpt lat="47.44881" lon="-2.29358">
        <ele>10.3</ele>
        <time>2020-06-06T08:07:52Z</time>
      </trkpt>
      <trkpt lat="47.44881" lon="-2.29368">
        <ele>10.2</ele>
        <time>2020-06-06T08:07:53Z</time>
      </trkpt>
      <trkpt lat="47.44882" lon="-2.29377">
        <ele>10.1</ele>
        <time>2020-06-06T08:07:54Z</time>
      </trkpt>
      <trkpt lat="47.44882" lon="-2.29384">
        <ele>10.1</ele>
        <time>2020-06-06T08:07:55Z</time>
      </trkpt>
      <trkpt lat="47.44882" lon="-2.29393">
        <ele>10.1</ele>
        <time>2020-06-06T08:07:56Z</time>
      </trkpt>
      <trkpt lat="47.44883" lon="-2.29402">
        <ele>10</ele>
        <time>2020-06-06T08:07:57Z</time>
      </trkpt>
      <trkpt lat="47.44883" lon="-2.2941">
        <ele>9.9</ele>
        <time>2020-06-06T08:07:58Z</time>
      </trkpt>
      <trkpt lat="47.44883" lon="-2.29418">
        <ele>9.9</ele>
        <time>2020-06-06T08:07:59Z</time>
      </trkpt>
      <trkpt lat="47.44884" lon="-2.29425">
        <ele>9.9</ele>
        <time>2020-06-06T08:08:00Z</time>
      </trkpt>
      <trkpt lat="47.44884" lon="-2.29434">
        <ele>9.8</ele>
        <time>2020-06-06T08:08:01Z</time>
      </trkpt>
      <trkpt lat="47.44884" lon="-2.29444">
        <ele>9.8</ele>
        <time>2020-06-06T08:08:02Z</time>
      </trkpt>
      <trkpt lat="47.44884" lon="-2.29454">
        <ele>9.7</ele>
        <time>2020-06-06T08:08:03Z</time>
      </trkpt>
      <trkpt lat="47.44884" lon="-2.29466">
        <ele>9.7</ele>
        <time>2020-06-06T08:08:04Z</time>
      </trkpt>
      <trkpt lat="47.44884" lon="-2.29477">
        <ele>9.6</ele>
        <time>2020-06-06T08:08:05Z</time>
      </trkpt>
      <trkpt lat="47.44884" lon="-2.29488">
        <ele>9.6</ele>
        <time>2020-06-06T08:08:06Z</time>
      </trkpt>
      <trkpt lat="47.44885" lon="-2.29497">
        <ele>9.6</ele>
        <time>2020-06-06T08:08:07Z</time>
      </trkpt>
      <trkpt lat="47.44884" lon="-2.29506">
        <ele>9.6</ele>
        <time>2020-06-06T08:08:08Z</time>
      </trkpt>
      <trkpt lat="47.44884" lon="-2.29515">
        <ele>9.6</ele>
        <time>2020-06-06T08:08:09Z</time>
      </trkpt>
      <trkpt lat="47.44884" lon="-2.29524">
        <ele>9.5</ele>
        <time>2020-06-06T08:08:10Z</time>
      </trkpt>
      <trkpt lat="47.44884" lon="-2.29533">
        <ele>9.5</ele>
        <time>2020-06-06T08:08:11Z</time>
      </trkpt>
      <trkpt lat="47.44884" lon="-2.29542">
        <ele>9.4</ele>
        <time>2020-06-06T08:08:12Z</time>
      </trkpt>
      <trkpt lat="47.44884" lon="-2.2955">
        <ele>9.3</ele>
        <time>2020-06-06T08:08:13Z</time>
      </trkpt>
      <trkpt lat="47.44884" lon="-2.29559">
        <ele>9.2</ele>
        <time>2020-06-06T08:08:14Z</time>
      </trkpt>
      <trkpt lat="47.44884" lon="-2.29568">
        <ele>9.2</ele>
        <time>2020-06-06T08:08:15Z</time>
      </trkpt>
      <trkpt lat="47.44884" lon="-2.29576">
        <ele>9.1</ele>
        <time>2020-06-06T08:08:16Z</time>
      </trkpt>
      <trkpt lat="47.44885" lon="-2.29586">
        <ele>9</ele>
        <time>2020-06-06T08:08:17Z</time>
      </trkpt>
      <trkpt lat="47.44886" lon="-2.29596">
        <ele>8.9</ele>
        <time>2020-06-06T08:08:18Z</time>
      </trkpt>
      <trkpt lat="47.44886" lon="-2.29606">
        <ele>8.7</ele>
        <time>2020-06-06T08:08:19Z</time>
      </trkpt>
      <trkpt lat="47.44886" lon="-2.29617">
        <ele>8.6</ele>
        <time>2020-06-06T08:08:20Z</time>
      </trkpt>
      <trkpt lat="47.44886" lon="-2.2963">
        <ele>8.5</ele>
        <time>2020-06-06T08:08:21Z</time>
      </trkpt>
      <trkpt lat="47.44887" lon="-2.29641">
        <ele>8.3</ele>
        <time>2020-06-06T08:08:22Z</time>
      </trkpt>
      <trkpt lat="47.44887" lon="-2.29652">
        <ele>8.3</ele>
        <time>2020-06-06T08:08:23Z</time>
      </trkpt>
      <trkpt lat="47.44888" lon="-2.29661">
        <ele>8.2</ele>
        <time>2020-06-06T08:08:24Z</time>
      </trkpt>
      <trkpt lat="47.44888" lon="-2.29671">
        <ele>8.1</ele>
        <time>2020-06-06T08:08:25Z</time>
      </trkpt>
      <trkpt lat="47.44889" lon="-2.29682">
        <ele>8</ele>
        <time>2020-06-06T08:08:26Z</time>
      </trkpt>
      <trkpt lat="47.44889" lon="-2.29692">
        <ele>8</ele>
        <time>2020-06-06T08:08:27Z</time>
      </trkpt>
      <trkpt lat="47.44889" lon="-2.29701">
        <ele>8</ele>
        <time>2020-06-06T08:08:28Z</time>
      </trkpt>
      <trkpt lat="47.44889" lon="-2.29711">
        <ele>8</ele>
        <time>2020-06-06T08:08:29Z</time>
      </trkpt>
      <trkpt lat="47.44889" lon="-2.2972">
        <ele>8</ele>
        <time>2020-06-06T08:08:30Z</time>
      </trkpt>
      <trkpt lat="47.44889" lon="-2.2973">
        <ele>8.1</ele>
        <time>2020-06-06T08:08:31Z</time>
      </trkpt>
      <trkpt lat="47.44889" lon="-2.2974">
        <ele>8.1</ele>
        <time>2020-06-06T08:08:32Z</time>
      </trkpt>
      <trkpt lat="47.44889" lon="-2.29749">
        <ele>8.1</ele>
        <time>2020-06-06T08:08:33Z</time>
      </trkpt>
      <trkpt lat="47.44889" lon="-2.29759">
        <ele>8.1</ele>
        <time>2020-06-06T08:08:34Z</time>
      </trkpt>
      <trkpt lat="47.4489" lon="-2.29768">
        <ele>8.1</ele>
        <time>2020-06-06T08:08:35Z</time>
      </trkpt>
      <trkpt lat="47.44891" lon="-2.29777">
        <ele>8.2</ele>
        <time>2020-06-06T08:08:36Z</time>
      </trkpt>
      <trkpt lat="47.44892" lon="-2.29786">
        <ele>8.2</ele>
        <time>2020-06-06T08:08:37Z</time>
      </trkpt>
      <trkpt lat="47.44892" lon="-2.29796">
        <ele>8.2</ele>
        <time>2020-06-06T08:08:38Z</time>
      </trkpt>
      <trkpt lat="47.44891" lon="-2.29806">
        <ele>8.2</ele>
        <time>2020-06-06T08:08:39Z</time>
      </trkpt>
      <trkpt lat="47.44892" lon="-2.29815">
        <ele>8.3</ele>
        <time>2020-06-06T08:08:40Z</time>
      </trkpt>
      <trkpt lat="47.44892" lon="-2.29825">
        <ele>8.3</ele>
        <time>2020-06-06T08:08:41Z</time>
      </trkpt>
      <trkpt lat="47.44893" lon="-2.29835">
        <ele>8.4</ele>
        <time>2020-06-06T08:08:42Z</time>
      </trkpt>
      <trkpt lat="47.44892" lon="-2.29845">
        <ele>8.4</ele>
        <time>2020-06-06T08:08:43Z</time>
      </trkpt>
      <trkpt lat="47.44892" lon="-2.29854">
        <ele>8.3</ele>
        <time>2020-06-06T08:08:44Z</time>
      </trkpt>
      <trkpt lat="47.44892" lon="-2.29863">
        <ele>8.2</ele>
        <time>2020-06-06T08:08:45Z</time>
      </trkpt>
      <trkpt lat="47.44892" lon="-2.29872">
        <ele>8.2</ele>
        <time>2020-06-06T08:08:46Z</time>
      </trkpt>
      <trkpt lat="47.44892" lon="-2.29882">
        <ele>8.1</ele>
        <time>2020-06-06T08:08:47Z</time>
      </trkpt>
      <trkpt lat="47.44892" lon="-2.29891">
        <ele>8.1</ele>
        <time>2020-06-06T08:08:48Z</time>
      </trkpt>
      <trkpt lat="47.44893" lon="-2.299">
        <ele>8.1</ele>
        <time>2020-06-06T08:08:49Z</time>
      </trkpt>
      <trkpt lat="47.44893" lon="-2.29908">
        <ele>8</ele>
        <time>2020-06-06T08:08:50Z</time>
      </trkpt>
      <trkpt lat="47.44895" lon="-2.29917">
        <ele>8</ele>
        <time>2020-06-06T08:08:51Z</time>
      </trkpt>
      <trkpt lat="47.44895" lon="-2.29926">
        <ele>7.9</ele>
        <time>2020-06-06T08:08:52Z</time>
      </trkpt>
      <trkpt lat="47.44895" lon="-2.29935">
        <ele>7.8</ele>
        <time>2020-06-06T08:08:53Z</time>
      </trkpt>
      <trkpt lat="47.44895" lon="-2.29943">
        <ele>7.8</ele>
        <time>2020-06-06T08:08:54Z</time>
      </trkpt>
      <trkpt lat="47.44895" lon="-2.29952">
        <ele>7.7</ele>
        <time>2020-06-06T08:08:55Z</time>
      </trkpt>
      <trkpt lat="47.44894" lon="-2.29959">
        <ele>7.6</ele>
        <time>2020-06-06T08:08:56Z</time>
      </trkpt>
      <trkpt lat="47.44896" lon="-2.29967">
        <ele>7.5</ele>
        <time>2020-06-06T08:08:57Z</time>
      </trkpt>
      <trkpt lat="47.44895" lon="-2.29976">
        <ele>7.4</ele>
        <time>2020-06-06T08:08:58Z</time>
      </trkpt>
      <trkpt lat="47.44896" lon="-2.29985">
        <ele>7.3</ele>
        <time>2020-06-06T08:08:59Z</time>
      </trkpt>
      <trkpt lat="47.44897" lon="-2.29994">
        <ele>7.2</ele>
        <time>2020-06-06T08:09:00Z</time>
      </trkpt>
      <trkpt lat="47.44898" lon="-2.30003">
        <ele>7</ele>
        <time>2020-06-06T08:09:01Z</time>
      </trkpt>
      <trkpt lat="47.44898" lon="-2.30012">
        <ele>6.9</ele>
        <time>2020-06-06T08:09:02Z</time>
      </trkpt>
      <trkpt lat="47.44898" lon="-2.30022">
        <ele>6.8</ele>
        <time>2020-06-06T08:09:03Z</time>
      </trkpt>
      <trkpt lat="47.44898" lon="-2.30032">
        <ele>6.7</ele>
        <time>2020-06-06T08:09:04Z</time>
      </trkpt>
      <trkpt lat="47.44898" lon="-2.30042">
        <ele>6.6</ele>
        <time>2020-06-06T08:09:05Z</time>
      </trkpt>
      <trkpt lat="47.44898" lon="-2.30051">
        <ele>6.5</ele>
        <time>2020-06-06T08:09:06Z</time>
      </trkpt>
      <trkpt lat="47.44899" lon="-2.3006">
        <ele>6.4</ele>
        <time>2020-06-06T08:09:07Z</time>
      </trkpt>
      <trkpt lat="47.44899" lon="-2.3007">
        <ele>6.3</ele>
        <time>2020-06-06T08:09:08Z</time>
      </trkpt>
      <trkpt lat="47.44899" lon="-2.3008">
        <ele>6.2</ele>
        <time>2020-06-06T08:09:09Z</time>
      </trkpt>
      <trkpt lat="47.44899" lon="-2.3009">
        <ele>6</ele>
        <time>2020-06-06T08:09:10Z</time>
      </trkpt>
      <trkpt lat="47.44899" lon="-2.301">
        <ele>5.9</ele>
        <time>2020-06-06T08:09:11Z</time>
      </trkpt>
      <trkpt lat="47.44899" lon="-2.3011">
        <ele>5.8</ele>
        <time>2020-06-06T08:09:12Z</time>
      </trkpt>
      <trkpt lat="47.44899" lon="-2.30121">
        <ele>5.8</ele>
        <time>2020-06-06T08:09:13Z</time>
      </trkpt>
      <trkpt lat="47.449" lon="-2.30132">
        <ele>5.7</ele>
        <time>2020-06-06T08:09:14Z</time>
      </trkpt>
      <trkpt lat="47.449" lon="-2.30141">
        <ele>5.7</ele>
        <time>2020-06-06T08:09:15Z</time>
      </trkpt>
      <trkpt lat="47.44901" lon="-2.30151">
        <ele>5.6</ele>
        <time>2020-06-06T08:09:16Z</time>
      </trkpt>
      <trkpt lat="47.44902" lon="-2.30161">
        <ele>5.5</ele>
        <time>2020-06-06T08:09:17Z</time>
      </trkpt>
      <trkpt lat="47.44902" lon="-2.30171">
        <ele>5.5</ele>
        <time>2020-06-06T08:09:18Z</time>
      </trkpt>
      <trkpt lat="47.44903" lon="-2.3018">
        <ele>5.5</ele>
        <time>2020-06-06T08:09:19Z</time>
      </trkpt>
      <trkpt lat="47.44903" lon="-2.30189">
        <ele>5.4</ele>
        <time>2020-06-06T08:09:20Z</time>
      </trkpt>
      <trkpt lat="47.44904" lon="-2.30199">
        <ele>5.5</ele>
        <time>2020-06-06T08:09:21Z</time>
      </trkpt>
      <trkpt lat="47.44905" lon="-2.30208">
        <ele>5.3</ele>
        <time>2020-06-06T08:09:22Z</time>
      </trkpt>
      <trkpt lat="47.44905" lon="-2.30217">
        <ele>5.2</ele>
        <time>2020-06-06T08:09:23Z</time>
      </trkpt>
      <trkpt lat="47.44905" lon="-2.30226">
        <ele>5.1</ele>
        <time>2020-06-06T08:09:24Z</time>
      </trkpt>
      <trkpt lat="47.44906" lon="-2.30236">
        <ele>5.1</ele>
        <time>2020-06-06T08:09:25Z</time>
      </trkpt>
      <trkpt lat="47.44907" lon="-2.30245">
        <ele>5</ele>
        <time>2020-06-06T08:09:26Z</time>
      </trkpt>
      <trkpt lat="47.44908" lon="-2.30256">
        <ele>5</ele>
        <time>2020-06-06T08:09:27Z</time>
      </trkpt>
      <trkpt lat="47.44908" lon="-2.30265">
        <ele>5</ele>
        <time>2020-06-06T08:09:28Z</time>
      </trkpt>
      <trkpt lat="47.44909" lon="-2.30275">
        <ele>5</ele>
        <time>2020-06-06T08:09:29Z</time>
      </trkpt>
      <trkpt lat="47.44909" lon="-2.30285">
        <ele>5</ele>
        <time>2020-06-06T08:09:30Z</time>
      </trkpt>
      <trkpt lat="47.44909" lon="-2.30295">
        <ele>5</ele>
        <time>2020-06-06T08:09:31Z</time>
      </trkpt>
      <trkpt lat="47.4491" lon="-2.30304">
        <ele>5</ele>
        <time>2020-06-06T08:09:32Z</time>
      </trkpt>
      <trkpt lat="47.4491" lon="-2.30315">
        <ele>5</ele>
        <time>2020-06-06T08:09:33Z</time>
      </trkpt>
      <trkpt lat="47.44911" lon="-2.30325">
        <ele>5</ele>
        <time>2020-06-06T08:09:34Z</time>
      </trkpt>
      <trkpt lat="47.4491" lon="-2.30334">
        <ele>5</ele>
        <time>2020-06-06T08:09:35Z</time>
      </trkpt>
      <trkpt lat="47.44911" lon="-2.30344">
        <ele>5</ele>
        <time>2020-06-06T08:09:36Z</time>
      </trkpt>
      <trkpt lat="47.44911" lon="-2.30354">
        <ele>5.1</ele>
        <time>2020-06-06T08:09:37Z</time>
      </trkpt>
      <trkpt lat="47.44911" lon="-2.30364">
        <ele>5.1</ele>
        <time>2020-06-06T08:09:38Z</time>
      </trkpt>
      <trkpt lat="47.44911" lon="-2.30373">
        <ele>5.1</ele>
        <time>2020-06-06T08:09:39Z</time>
      </trkpt>
      <trkpt lat="47.44911" lon="-2.30383">
        <ele>5.2</ele>
        <time>2020-06-06T08:09:40Z</time>
      </trkpt>
      <trkpt lat="47.44911" lon="-2.30392">
        <ele>5.2</ele>
        <time>2020-06-06T08:09:41Z</time>
      </trkpt>
      <trkpt lat="47.44911" lon="-2.30401">
        <ele>5.2</ele>
        <time>2020-06-06T08:09:42Z</time>
      </trkpt>
      <trkpt lat="47.44912" lon="-2.3041">
        <ele>5.3</ele>
        <time>2020-06-06T08:09:43Z</time>
      </trkpt>
      <trkpt lat="47.44912" lon="-2.30419">
        <ele>5.3</ele>
        <time>2020-06-06T08:09:44Z</time>
      </trkpt>
      <trkpt lat="47.44912" lon="-2.30429">
        <ele>5.3</ele>
        <time>2020-06-06T08:09:45Z</time>
      </trkpt>
      <trkpt lat="47.44913" lon="-2.30439">
        <ele>5.4</ele>
        <time>2020-06-06T08:09:46Z</time>
      </trkpt>
      <trkpt lat="47.44913" lon="-2.30448">
        <ele>5.4</ele>
        <time>2020-06-06T08:09:47Z</time>
      </trkpt>
      <trkpt lat="47.44914" lon="-2.30458">
        <ele>5.4</ele>
        <time>2020-06-06T08:09:48Z</time>
      </trkpt>
      <trkpt lat="47.44914" lon="-2.30467">
        <ele>5.5</ele>
        <time>2020-06-06T08:09:49Z</time>
      </trkpt>
      <trkpt lat="47.44914" lon="-2.30476">
        <ele>5.5</ele>
        <time>2020-06-06T08:09:50Z</time>
      </trkpt>
      <trkpt lat="47.44915" lon="-2.30486">
        <ele>5.6</ele>
        <time>2020-06-06T08:09:51Z</time>
      </trkpt>
      <trkpt lat="47.44915" lon="-2.30495">
        <ele>5.6</ele>
        <time>2020-06-06T08:09:52Z</time>
      </trkpt>
      <trkpt lat="47.44915" lon="-2.30504">
        <ele>5.6</ele>
        <time>2020-06-06T08:09:53Z</time>
      </trkpt>
      <trkpt lat="47.44916" lon="-2.30513">
        <ele>5.6</ele>
        <time>2020-06-06T08:09:54Z</time>
      </trkpt>
      <trkpt lat="47.44916" lon="-2.30522">
        <ele>5.6</ele>
        <time>2020-06-06T08:09:55Z</time>
      </trkpt>
      <trkpt lat="47.44916" lon="-2.30531">
        <ele>5.6</ele>
        <time>2020-06-06T08:09:56Z</time>
      </trkpt>
      <trkpt lat="47.44917" lon="-2.30539">
        <ele>5.7</ele>
        <time>2020-06-06T08:09:57Z</time>
      </trkpt>
      <trkpt lat="47.44917" lon="-2.30548">
        <ele>5.7</ele>
        <time>2020-06-06T08:09:58Z</time>
      </trkpt>
      <trkpt lat="47.44918" lon="-2.30558">
        <ele>5.8</ele>
        <time>2020-06-06T08:09:59Z</time>
      </trkpt>
      <trkpt lat="47.44918" lon="-2.30568">
        <ele>5.9</ele>
        <time>2020-06-06T08:10:00Z</time>
      </trkpt>
      <trkpt lat="47.44918" lon="-2.30578">
        <ele>5.9</ele>
        <time>2020-06-06T08:10:01Z</time>
      </trkpt>
      <trkpt lat="47.44919" lon="-2.30587">
        <ele>5.9</ele>
        <time>2020-06-06T08:10:02Z</time>
      </trkpt>
      <trkpt lat="47.44918" lon="-2.30597">
        <ele>6</ele>
        <time>2020-06-06T08:10:03Z</time>
      </trkpt>
      <trkpt lat="47.44919" lon="-2.30606">
        <ele>6</ele>
        <time>2020-06-06T08:10:04Z</time>
      </trkpt>
      <trkpt lat="47.44919" lon="-2.30615">
        <ele>6</ele>
        <time>2020-06-06T08:10:05Z</time>
      </trkpt>
      <trkpt lat="47.44918" lon="-2.30625">
        <ele>6</ele>
        <time>2020-06-06T08:10:06Z</time>
      </trkpt>
      <trkpt lat="47.44919" lon="-2.30634">
        <ele>6.1</ele>
        <time>2020-06-06T08:10:07Z</time>
      </trkpt>
      <trkpt lat="47.4492" lon="-2.30643">
        <ele>6.1</ele>
        <time>2020-06-06T08:10:08Z</time>
      </trkpt>
      <trkpt lat="47.44921" lon="-2.30652">
        <ele>6.2</ele>
        <time>2020-06-06T08:10:09Z</time>
      </trkpt>
      <trkpt lat="47.44921" lon="-2.30661">
        <ele>6.2</ele>
        <time>2020-06-06T08:10:10Z</time>
      </trkpt>
      <trkpt lat="47.44922" lon="-2.3067">
        <ele>6.2</ele>
        <time>2020-06-06T08:10:11Z</time>
      </trkpt>
      <trkpt lat="47.44921" lon="-2.30679">
        <ele>6.2</ele>
        <time>2020-06-06T08:10:12Z</time>
      </trkpt>
      <trkpt lat="47.44921" lon="-2.30688">
        <ele>6.2</ele>
        <time>2020-06-06T08:10:13Z</time>
      </trkpt>
      <trkpt lat="47.44921" lon="-2.30697">
        <ele>6.3</ele>
        <time>2020-06-06T08:10:14Z</time>
      </trkpt>
      <trkpt lat="47.44922" lon="-2.30706">
        <ele>6.3</ele>
        <time>2020-06-06T08:10:15Z</time>
      </trkpt>
      <trkpt lat="47.44922" lon="-2.30715">
        <ele>6.3</ele>
        <time>2020-06-06T08:10:16Z</time>
      </trkpt>
      <trkpt lat="47.44922" lon="-2.30724">
        <ele>6.3</ele>
        <time>2020-06-06T08:10:17Z</time>
      </trkpt>
      <trkpt lat="47.44922" lon="-2.30734">
        <ele>6.3</ele>
        <time>2020-06-06T08:10:18Z</time>
      </trkpt>
      <trkpt lat="47.44922" lon="-2.30744">
        <ele>6.3</ele>
        <time>2020-06-06T08:10:19Z</time>
      </trkpt>
      <trkpt lat="47.44922" lon="-2.30754">
        <ele>6.3</ele>
        <time>2020-06-06T08:10:20Z</time>
      </trkpt>
      <trkpt lat="47.44922" lon="-2.30764">
        <ele>6.3</ele>
        <time>2020-06-06T08:10:21Z</time>
      </trkpt>
      <trkpt lat="47.44922" lon="-2.30774">
        <ele>6.3</ele>
        <time>2020-06-06T08:10:22Z</time>
      </trkpt>
      <trkpt lat="47.44922" lon="-2.30784">
        <ele>6.3</ele>
        <time>2020-06-06T08:10:23Z</time>
      </trkpt>
      <trkpt lat="47.44923" lon="-2.30794">
        <ele>6.4</ele>
        <time>2020-06-06T08:10:24Z</time>
      </trkpt>
      <trkpt lat="47.44923" lon="-2.30804">
        <ele>6.4</ele>
        <time>2020-06-06T08:10:25Z</time>
      </trkpt>
      <trkpt lat="47.44923" lon="-2.30814">
        <ele>6.4</ele>
        <time>2020-06-06T08:10:26Z</time>
      </trkpt>
      <trkpt lat="47.44923" lon="-2.30823">
        <ele>6.5</ele>
        <time>2020-06-06T08:10:27Z</time>
      </trkpt>
      <trkpt lat="47.44922" lon="-2.30833">
        <ele>6.5</ele>
        <time>2020-06-06T08:10:28Z</time>
      </trkpt>
      <trkpt lat="47.44922" lon="-2.30842">
        <ele>6.6</ele>
        <time>2020-06-06T08:10:29Z</time>
      </trkpt>
      <trkpt lat="47.44922" lon="-2.30851">
        <ele>6.7</ele>
        <time>2020-06-06T08:10:30Z</time>
      </trkpt>
      <trkpt lat="47.44923" lon="-2.3086">
        <ele>6.8</ele>
        <time>2020-06-06T08:10:31Z</time>
      </trkpt>
      <trkpt lat="47.44923" lon="-2.30869">
        <ele>6.8</ele>
        <time>2020-06-06T08:10:32Z</time>
      </trkpt>
      <trkpt lat="47.44922" lon="-2.30878">
        <ele>6.9</ele>
        <time>2020-06-06T08:10:33Z</time>
      </trkpt>
      <trkpt lat="47.44923" lon="-2.30887">
        <ele>7</ele>
        <time>2020-06-06T08:10:34Z</time>
      </trkpt>
      <trkpt lat="47.44924" lon="-2.30896">
        <ele>7</ele>
        <time>2020-06-06T08:10:35Z</time>
      </trkpt>
      <trkpt lat="47.44924" lon="-2.30905">
        <ele>7.1</ele>
        <time>2020-06-06T08:10:36Z</time>
      </trkpt>
      <trkpt lat="47.44924" lon="-2.30913">
        <ele>7.2</ele>
        <time>2020-06-06T08:10:37Z</time>
      </trkpt>
      <trkpt lat="47.44925" lon="-2.30922">
        <ele>7.2</ele>
        <time>2020-06-06T08:10:38Z</time>
      </trkpt>
      <trkpt lat="47.44925" lon="-2.30931">
        <ele>7.3</ele>
        <time>2020-06-06T08:10:39Z</time>
      </trkpt>
      <trkpt lat="47.44926" lon="-2.30941">
        <ele>7.4</ele>
        <time>2020-06-06T08:10:40Z</time>
      </trkpt>
      <trkpt lat="47.44926" lon="-2.3095">
        <ele>7.4</ele>
        <time>2020-06-06T08:10:41Z</time>
      </trkpt>
      <trkpt lat="47.44925" lon="-2.30959">
        <ele>7.5</ele>
        <time>2020-06-06T08:10:42Z</time>
      </trkpt>
      <trkpt lat="47.44926" lon="-2.30967">
        <ele>7.6</ele>
        <time>2020-06-06T08:10:43Z</time>
      </trkpt>
      <trkpt lat="47.44926" lon="-2.30976">
        <ele>7.7</ele>
        <time>2020-06-06T08:10:44Z</time>
      </trkpt>
      <trkpt lat="47.44927" lon="-2.30984">
        <ele>7.7</ele>
        <time>2020-06-06T08:10:45Z</time>
      </trkpt>
      <trkpt lat="47.44927" lon="-2.30993">
        <ele>7.7</ele>
        <time>2020-06-06T08:10:46Z</time>
      </trkpt>
      <trkpt lat="47.44927" lon="-2.31002">
        <ele>7.8</ele>
        <time>2020-06-06T08:10:47Z</time>
      </trkpt>
      <trkpt lat="47.44928" lon="-2.3101">
        <ele>7.8</ele>
        <time>2020-06-06T08:10:48Z</time>
      </trkpt>
      <trkpt lat="47.44928" lon="-2.31018">
        <ele>7.9</ele>
        <time>2020-06-06T08:10:49Z</time>
      </trkpt>
      <trkpt lat="47.44928" lon="-2.31026">
        <ele>7.9</ele>
        <time>2020-06-06T08:10:50Z</time>
      </trkpt>
      <trkpt lat="47.44929" lon="-2.31035">
        <ele>8</ele>
        <time>2020-06-06T08:10:51Z</time>
      </trkpt>
      <trkpt lat="47.44929" lon="-2.31043">
        <ele>8</ele>
        <time>2020-06-06T08:10:52Z</time>
      </trkpt>
      <trkpt lat="47.44929" lon="-2.31051">
        <ele>8.1</ele>
        <time>2020-06-06T08:10:53Z</time>
      </trkpt>
      <trkpt lat="47.44929" lon="-2.31059">
        <ele>8.1</ele>
        <time>2020-06-06T08:10:54Z</time>
      </trkpt>
      <trkpt lat="47.4493" lon="-2.31067">
        <ele>8.2</ele>
        <time>2020-06-06T08:10:55Z</time>
      </trkpt>
      <trkpt lat="47.44929" lon="-2.31074">
        <ele>8.2</ele>
        <time>2020-06-06T08:10:56Z</time>
      </trkpt>
      <trkpt lat="47.44929" lon="-2.31082">
        <ele>8.2</ele>
        <time>2020-06-06T08:10:57Z</time>
      </trkpt>
      <trkpt lat="47.44928" lon="-2.31089">
        <ele>8.3</ele>
        <time>2020-06-06T08:10:58Z</time>
      </trkpt>
      <trkpt lat="47.44928" lon="-2.31096">
        <ele>8.3</ele>
        <time>2020-06-06T08:10:59Z</time>
      </trkpt>
      <trkpt lat="47.44929" lon="-2.31102">
        <ele>8.3</ele>
        <time>2020-06-06T08:11:00Z</time>
      </trkpt>
      <trkpt lat="47.4493" lon="-2.31109">
        <ele>8.3</ele>
        <time>2020-06-06T08:11:01Z</time>
      </trkpt>
      <trkpt lat="47.44929" lon="-2.31114">
        <ele>8.3</ele>
        <time>2020-06-06T08:11:02Z</time>
      </trkpt>
      <trkpt lat="47.44928" lon="-2.31119">
        <ele>8.3</ele>
        <time>2020-06-06T08:11:03Z</time>
      </trkpt>
      <trkpt lat="47.44927" lon="-2.31123">
        <ele>8.3</ele>
        <time>2020-06-06T08:11:04Z</time>
      </trkpt>
      <trkpt lat="47.44927" lon="-2.31124">
        <ele>8.3</ele>
        <time>2020-06-06T08:11:05Z</time>
      </trkpt>
      <trkpt lat="47.44926" lon="-2.31126">
        <ele>8.3</ele>
        <time>2020-06-06T08:11:06Z</time>
      </trkpt>
      <trkpt lat="47.44924" lon="-2.31127">
        <ele>8.3</ele>
        <time>2020-06-06T08:11:07Z</time>
      </trkpt>
      <trkpt lat="47.44923" lon="-2.3113">
        <ele>8.3</ele>
        <time>2020-06-06T08:11:08Z</time>
      </trkpt>
      <trkpt lat="47.44923" lon="-2.31132">
        <ele>8.3</ele>
        <time>2020-06-06T08:11:09Z</time>
      </trkpt>
      <trkpt lat="47.44922" lon="-2.31133">
        <ele>8.3</ele>
        <time>2020-06-06T08:11:10Z</time>
      </trkpt>
      <trkpt lat="47.44922" lon="-2.31133">
        <ele>8.3</ele>
        <time>2020-06-06T08:11:11Z</time>
      </trkpt>
      <trkpt lat="47.44922" lon="-2.31133">
        <ele>8.3</ele>
        <time>2020-06-06T08:11:12Z</time>
      </trkpt>
      <trkpt lat="47.44922" lon="-2.31133">
        <ele>8.3</ele>
        <time>2020-06-06T08:11:13Z</time>
      </trkpt>
      <trkpt lat="47.44922" lon="-2.31133">
        <ele>8.3</ele>
        <time>2020-06-06T08:11:14Z</time>
      </trkpt>
      <trkpt lat="47.44922" lon="-2.31133">
        <ele>8.3</ele>
        <time>2020-06-06T08:11:15Z</time>
      </trkpt>
      <trkpt lat="47.44921" lon="-2.31133">
        <ele>8.3</ele>
        <time>2020-06-06T08:11:16Z</time>
      </trkpt>
      <trkpt lat="47.44922" lon="-2.31134">
        <ele>8.3</ele>
        <time>2020-06-06T08:11:17Z</time>
      </trkpt>
      <trkpt lat="47.44921" lon="-2.31134">
        <ele>8.3</ele>
        <time>2020-06-06T08:11:18Z</time>
      </trkpt>
      <trkpt lat="47.44922" lon="-2.31134">
        <ele>8.3</ele>
        <time>2020-06-06T08:11:19Z</time>
      </trkpt>
      <trkpt lat="47.44921" lon="-2.31134">
        <ele>8.3</ele>
        <time>2020-06-06T08:11:20Z</time>
      </trkpt>
      <trkpt lat="47.44921" lon="-2.31134">
        <ele>8.3</ele>
        <time>2020-06-06T08:11:21Z</time>
      </trkpt>
      <trkpt lat="47.44933" lon="-2.31138">
        <ele>8.3</ele>
        <time>2020-06-06T08:14:00Z</time>
      </trkpt>
      <trkpt lat="47.44927" lon="-2.31136">
        <ele>8.4</ele>
        <time>2020-06-06T08:14:01Z</time>
      </trkpt>
      <trkpt lat="47.44924" lon="-2.3113">
        <ele>8.4</ele>
        <time>2020-06-06T08:14:02Z</time>
      </trkpt>
      <trkpt lat="47.44916" lon="-2.31132">
        <ele>8.4</ele>
        <time>2020-06-06T08:14:03Z</time>
      </trkpt>
      <trkpt lat="47.44915" lon="-2.31134">
        <ele>8.4</ele>
        <time>2020-06-06T08:14:04Z</time>
      </trkpt>
      <trkpt lat="47.44916" lon="-2.31135">
        <ele>8.4</ele>
        <time>2020-06-06T08:14:05Z</time>
      </trkpt>
      <trkpt lat="47.44917" lon="-2.31137">
        <ele>8.4</ele>
        <time>2020-06-06T08:14:06Z</time>
      </trkpt>
      <trkpt lat="47.44919" lon="-2.31139">
        <ele>8.4</ele>
        <time>2020-06-06T08:14:07Z</time>
      </trkpt>
      <trkpt lat="47.44928" lon="-2.31142">
        <ele>8.4</ele>
        <time>2020-06-06T08:14:08Z</time>
      </trkpt>
      <trkpt lat="47.4493" lon="-2.31141">
        <ele>8.4</ele>
        <time>2020-06-06T08:14:10Z</time>
      </trkpt>
      <trkpt lat="47.44931" lon="-2.31146">
        <ele>8.4</ele>
        <time>2020-06-06T08:14:11Z</time>
      </trkpt>
      <trkpt lat="47.44929" lon="-2.31149">
        <ele>8.4</ele>
        <time>2020-06-06T08:14:12Z</time>
      </trkpt>
      <trkpt lat="47.44928" lon="-2.31152">
        <ele>8.5</ele>
        <time>2020-06-06T08:14:13Z</time>
      </trkpt>
      <trkpt lat="47.44927" lon="-2.31154">
        <ele>8.5</ele>
        <time>2020-06-06T08:14:14Z</time>
      </trkpt>
      <trkpt lat="47.44928" lon="-2.31159">
        <ele>8.5</ele>
        <time>2020-06-06T08:14:15Z</time>
      </trkpt>
      <trkpt lat="47.44929" lon="-2.3116">
        <ele>8.5</ele>
        <time>2020-06-06T08:14:16Z</time>
      </trkpt>
      <trkpt lat="47.4493" lon="-2.31164">
        <ele>8.5</ele>
        <time>2020-06-06T08:14:17Z</time>
      </trkpt>
      <trkpt lat="47.4493" lon="-2.31168">
        <ele>8.5</ele>
        <time>2020-06-06T08:14:19Z</time>
      </trkpt>
      <trkpt lat="47.44929" lon="-2.31173">
        <ele>8.5</ele>
        <time>2020-06-06T08:14:20Z</time>
      </trkpt>
      <trkpt lat="47.44928" lon="-2.31177">
        <ele>8.5</ele>
        <time>2020-06-06T08:14:21Z</time>
      </trkpt>
      <trkpt lat="47.44929" lon="-2.31182">
        <ele>8.5</ele>
        <time>2020-06-06T08:14:22Z</time>
      </trkpt>
      <trkpt lat="47.4493" lon="-2.31188">
        <ele>8.5</ele>
        <time>2020-06-06T08:14:23Z</time>
      </trkpt>
      <trkpt lat="47.4493" lon="-2.31191">
        <ele>8.5</ele>
        <time>2020-06-06T08:14:24Z</time>
      </trkpt>
      <trkpt lat="47.44931" lon="-2.31196">
        <ele>8.5</ele>
        <time>2020-06-06T08:14:25Z</time>
      </trkpt>
      <trkpt lat="47.44931" lon="-2.31202">
        <ele>8.5</ele>
        <time>2020-06-06T08:14:26Z</time>
      </trkpt>
      <trkpt lat="47.44931" lon="-2.31209">
        <ele>8.5</ele>
        <time>2020-06-06T08:14:27Z</time>
      </trkpt>
      <trkpt lat="47.44932" lon="-2.31215">
        <ele>8.5</ele>
        <time>2020-06-06T08:14:28Z</time>
      </trkpt>
      <trkpt lat="47.44932" lon="-2.31222">
        <ele>8.5</ele>
        <time>2020-06-06T08:14:29Z</time>
      </trkpt>
      <trkpt lat="47.44931" lon="-2.31228">
        <ele>8.5</ele>
        <time>2020-06-06T08:14:30Z</time>
      </trkpt>
      <trkpt lat="47.44931" lon="-2.31234">
        <ele>8.5</ele>
        <time>2020-06-06T08:14:31Z</time>
      </trkpt>
      <trkpt lat="47.44931" lon="-2.31241">
        <ele>8.5</ele>
        <time>2020-06-06T08:14:32Z</time>
      </trkpt>
      <trkpt lat="47.44931" lon="-2.31246">
        <ele>8.5</ele>
        <time>2020-06-06T08:14:33Z</time>
      </trkpt>
      <trkpt lat="47.44931" lon="-2.31252">
        <ele>8.5</ele>
        <time>2020-06-06T08:14:34Z</time>
      </trkpt>
      <trkpt lat="47.44931" lon="-2.31258">
        <ele>8.5</ele>
        <time>2020-06-06T08:14:35Z</time>
      </trkpt>
      <trkpt lat="47.44932" lon="-2.31264">
        <ele>8.6</ele>
        <time>2020-06-06T08:14:36Z</time>
      </trkpt>
      <trkpt lat="47.44931" lon="-2.31268">
        <ele>8.6</ele>
        <time>2020-06-06T08:14:37Z</time>
      </trkpt>
      <trkpt lat="47.44931" lon="-2.31274">
        <ele>8.6</ele>
        <time>2020-06-06T08:14:38Z</time>
      </trkpt>
      <trkpt lat="47.44931" lon="-2.31276">
        <ele>8.6</ele>
        <time>2020-06-06T08:14:39Z</time>
      </trkpt>
      <trkpt lat="47.44931" lon="-2.3128">
        <ele>8.6</ele>
        <time>2020-06-06T08:14:40Z</time>
      </trkpt>
      <trkpt lat="47.44932" lon="-2.31283">
        <ele>8.6</ele>
        <time>2020-06-06T08:14:41Z</time>
      </trkpt>
      <trkpt lat="47.44932" lon="-2.31285">
        <ele>8.6</ele>
        <time>2020-06-06T08:14:42Z</time>
      </trkpt>
      <trkpt lat="47.44932" lon="-2.31286">
        <ele>8.6</ele>
        <time>2020-06-06T08:14:43Z</time>
      </trkpt>
      <trkpt lat="47.44934" lon="-2.31287">
        <ele>8.6</ele>
        <time>2020-06-06T08:14:44Z</time>
      </trkpt>
      <trkpt lat="47.44935" lon="-2.31288">
        <ele>8.6</ele>
        <time>2020-06-06T08:14:45Z</time>
      </trkpt>
      <trkpt lat="47.44937" lon="-2.31291">
        <ele>8.7</ele>
        <time>2020-06-06T08:14:46Z</time>
      </trkpt>
      <trkpt lat="47.4494" lon="-2.31293">
        <ele>8.7</ele>
        <time>2020-06-06T08:14:47Z</time>
      </trkpt>
      <trkpt lat="47.4494" lon="-2.31294">
        <ele>8.7</ele>
        <time>2020-06-06T08:14:48Z</time>
      </trkpt>
      <trkpt lat="47.44942" lon="-2.31299">
        <ele>8.7</ele>
        <time>2020-06-06T08:14:49Z</time>
      </trkpt>
      <trkpt lat="47.44944" lon="-2.31302">
        <ele>8.7</ele>
        <time>2020-06-06T08:14:50Z</time>
      </trkpt>
      <trkpt lat="47.44946" lon="-2.31312">
        <ele>8.8</ele>
        <time>2020-06-06T08:14:51Z</time>
      </trkpt>
      <trkpt lat="47.44947" lon="-2.31319">
        <ele>8.9</ele>
        <time>2020-06-06T08:14:52Z</time>
      </trkpt>
      <trkpt lat="47.44949" lon="-2.31324">
        <ele>8.9</ele>
        <time>2020-06-06T08:14:53Z</time>
      </trkpt>
      <trkpt lat="47.4495" lon="-2.31329">
        <ele>8.9</ele>
        <time>2020-06-06T08:14:54Z</time>
      </trkpt>
      <trkpt lat="47.44949" lon="-2.31335">
        <ele>8.9</ele>
        <time>2020-06-06T08:14:55Z</time>
      </trkpt>
      <trkpt lat="47.44948" lon="-2.31341">
        <ele>8.9</ele>
        <time>2020-06-06T08:14:56Z</time>
      </trkpt>
      <trkpt lat="47.44945" lon="-2.31347">
        <ele>8.9</ele>
        <time>2020-06-06T08:14:57Z</time>
      </trkpt>
      <trkpt lat="47.44943" lon="-2.31355">
        <ele>8.9</ele>
        <time>2020-06-06T08:14:58Z</time>
      </trkpt>
      <trkpt lat="47.4494" lon="-2.31363">
        <ele>9</ele>
        <time>2020-06-06T08:14:59Z</time>
      </trkpt>
      <trkpt lat="47.44938" lon="-2.31369">
        <ele>9.1</ele>
        <time>2020-06-06T08:15:00Z</time>
      </trkpt>
      <trkpt lat="47.44936" lon="-2.31374">
        <ele>9</ele>
        <time>2020-06-06T08:15:01Z</time>
      </trkpt>
      <trkpt lat="47.44934" lon="-2.3138">
        <ele>9.2</ele>
        <time>2020-06-06T08:15:02Z</time>
      </trkpt>
      <trkpt lat="47.44934" lon="-2.31387">
        <ele>9.3</ele>
        <time>2020-06-06T08:15:03Z</time>
      </trkpt>
      <trkpt lat="47.44934" lon="-2.31394">
        <ele>9.4</ele>
        <time>2020-06-06T08:15:04Z</time>
      </trkpt>
      <trkpt lat="47.44934" lon="-2.31404">
        <ele>9.6</ele>
        <time>2020-06-06T08:15:05Z</time>
      </trkpt>
      <trkpt lat="47.44934" lon="-2.31413">
        <ele>9.8</ele>
        <time>2020-06-06T08:15:06Z</time>
      </trkpt>
      <trkpt lat="47.44934" lon="-2.31421">
        <ele>10</ele>
        <time>2020-06-06T08:15:07Z</time>
      </trkpt>
      <trkpt lat="47.44935" lon="-2.31429">
        <ele>10.1</ele>
        <time>2020-06-06T08:15:08Z</time>
      </trkpt>
      <trkpt lat="47.44936" lon="-2.31435">
        <ele>10.3</ele>
        <time>2020-06-06T08:15:09Z</time>
      </trkpt>
      <trkpt lat="47.44935" lon="-2.31441">
        <ele>10.5</ele>
        <time>2020-06-06T08:15:10Z</time>
      </trkpt>
      <trkpt lat="47.44933" lon="-2.31448">
        <ele>10.7</ele>
        <time>2020-06-06T08:15:11Z</time>
      </trkpt>
      <trkpt lat="47.44933" lon="-2.31457">
        <ele>10.9</ele>
        <time>2020-06-06T08:15:12Z</time>
      </trkpt>
      <trkpt lat="47.44933" lon="-2.31465">
        <ele>11.2</ele>
        <time>2020-06-06T08:15:13Z</time>
      </trkpt>
      <trkpt lat="47.44933" lon="-2.31472">
        <ele>11.4</ele>
        <time>2020-06-06T08:15:14Z</time>
      </trkpt>
      <trkpt lat="47.44933" lon="-2.31479">
        <ele>11.6</ele>
        <time>2020-06-06T08:15:15Z</time>
      </trkpt>
      <trkpt lat="47.44933" lon="-2.31487">
        <ele>11.9</ele>
        <time>2020-06-06T08:15:16Z</time>
      </trkpt>
      <trkpt lat="47.44932" lon="-2.31495">
        <ele>12.2</ele>
        <time>2020-06-06T08:15:17Z</time>
      </trkpt>
      <trkpt lat="47.44932" lon="-2.31505">
        <ele>12.6</ele>
        <time>2020-06-06T08:15:18Z</time>
      </trkpt>
      <trkpt lat="47.44931" lon="-2.31515">
        <ele>13</ele>
        <time>2020-06-06T08:15:19Z</time>
      </trkpt>
      <trkpt lat="47.44931" lon="-2.31525">
        <ele>13.4</ele>
        <time>2020-06-06T08:15:20Z</time>
      </trkpt>
      <trkpt lat="47.4493" lon="-2.31534">
        <ele>13.8</ele>
        <time>2020-06-06T08:15:21Z</time>
      </trkpt>
      <trkpt lat="47.44929" lon="-2.31542">
        <ele>14.1</ele>
        <time>2020-06-06T08:15:22Z</time>
      </trkpt>
      <trkpt lat="47.44929" lon="-2.31551">
        <ele>14.5</ele>
        <time>2020-06-06T08:15:23Z</time>
      </trkpt>
      <trkpt lat="47.44929" lon="-2.31561">
        <ele>14.9</ele>
        <time>2020-06-06T08:15:24Z</time>
      </trkpt>
      <trkpt lat="47.44929" lon="-2.3157">
        <ele>15.3</ele>
        <time>2020-06-06T08:15:25Z</time>
      </trkpt>
      <trkpt lat="47.44929" lon="-2.31578">
        <ele>15.7</ele>
        <time>2020-06-06T08:15:26Z</time>
      </trkpt>
      <trkpt lat="47.44929" lon="-2.31589">
        <ele>16.2</ele>
        <time>2020-06-06T08:15:27Z</time>
      </trkpt>
      <trkpt lat="47.44929" lon="-2.31599">
        <ele>16.7</ele>
        <time>2020-06-06T08:15:28Z</time>
      </trkpt>
      <trkpt lat="47.4493" lon="-2.31608">
        <ele>17</ele>
        <time>2020-06-06T08:15:29Z</time>
      </trkpt>
      <trkpt lat="47.4493" lon="-2.31617">
        <ele>17.4</ele>
        <time>2020-06-06T08:15:30Z</time>
      </trkpt>
      <trkpt lat="47.4493" lon="-2.31625">
        <ele>17.8</ele>
        <time>2020-06-06T08:15:31Z</time>
      </trkpt>
      <trkpt lat="47.4493" lon="-2.31633">
        <ele>18.2</ele>
        <time>2020-06-06T08:15:32Z</time>
      </trkpt>
      <trkpt lat="47.44931" lon="-2.31639">
        <ele>18.4</ele>
        <time>2020-06-06T08:15:33Z</time>
      </trkpt>
      <trkpt lat="47.44931" lon="-2.31647">
        <ele>18.8</ele>
        <time>2020-06-06T08:15:34Z</time>
      </trkpt>
      <trkpt lat="47.4493" lon="-2.31655">
        <ele>19</ele>
        <time>2020-06-06T08:15:35Z</time>
      </trkpt>
      <trkpt lat="47.44931" lon="-2.31662">
        <ele>19.4</ele>
        <time>2020-06-06T08:15:36Z</time>
      </trkpt>
      <trkpt lat="47.44931" lon="-2.31669">
        <ele>19.6</ele>
        <time>2020-06-06T08:15:37Z</time>
      </trkpt>
      <trkpt lat="47.44931" lon="-2.31675">
        <ele>19.8</ele>
        <time>2020-06-06T08:15:38Z</time>
      </trkpt>
      <trkpt lat="47.44932" lon="-2.3168">
        <ele>20</ele>
        <time>2020-06-06T08:15:39Z</time>
      </trkpt>
      <trkpt lat="47.44932" lon="-2.31685">
        <ele>20.1</ele>
        <time>2020-06-06T08:15:40Z</time>
      </trkpt>
      <trkpt lat="47.44931" lon="-2.3169">
        <ele>20.2</ele>
        <time>2020-06-06T08:15:41Z</time>
      </trkpt>
      <trkpt lat="47.4493" lon="-2.31695">
        <ele>20.4</ele>
        <time>2020-06-06T08:15:42Z</time>
      </trkpt>
      <trkpt lat="47.4493" lon="-2.317">
        <ele>21</ele>
        <time>2020-06-06T08:15:43Z</time>
      </trkpt>
      <trkpt lat="47.44929" lon="-2.31705">
        <ele>21</ele>
        <time>2020-06-06T08:15:44Z</time>
      </trkpt>
      <trkpt lat="47.4493" lon="-2.31708">
        <ele>21</ele>
        <time>2020-06-06T08:15:45Z</time>
      </trkpt>
      <trkpt lat="47.44931" lon="-2.31709">
        <ele>21</ele>
        <time>2020-06-06T08:15:46Z</time>
      </trkpt>
      <trkpt lat="47.44935" lon="-2.31711">
        <ele>21</ele>
        <time>2020-06-06T08:15:47Z</time>
      </trkpt>
      <trkpt lat="47.44936" lon="-2.31711">
        <ele>21.2</ele>
        <time>2020-06-06T08:15:48Z</time>
      </trkpt>
      <trkpt lat="47.44939" lon="-2.31712">
        <ele>21.2</ele>
        <time>2020-06-06T08:15:49Z</time>
      </trkpt>
      <trkpt lat="47.4494" lon="-2.31712">
        <ele>21.2</ele>
        <time>2020-06-06T08:15:50Z</time>
      </trkpt>
      <trkpt lat="47.44943" lon="-2.31712">
        <ele>21.2</ele>
        <time>2020-06-06T08:15:51Z</time>
      </trkpt>
      <trkpt lat="47.44944" lon="-2.31713">
        <ele>21.2</ele>
        <time>2020-06-06T08:15:52Z</time>
      </trkpt>
      <trkpt lat="47.44946" lon="-2.31715">
        <ele>21.2</ele>
        <time>2020-06-06T08:15:53Z</time>
      </trkpt>
      <trkpt lat="47.44948" lon="-2.31719">
        <ele>21.2</ele>
        <time>2020-06-06T08:15:54Z</time>
      </trkpt>
      <trkpt lat="47.44949" lon="-2.3172">
        <ele>21.2</ele>
        <time>2020-06-06T08:15:55Z</time>
      </trkpt>
      <trkpt lat="47.44949" lon="-2.31722">
        <ele>21.2</ele>
        <time>2020-06-06T08:15:56Z</time>
      </trkpt>
      <trkpt lat="47.44949" lon="-2.31722">
        <ele>21.2</ele>
        <time>2020-06-06T08:15:57Z</time>
      </trkpt>
      <trkpt lat="47.44948" lon="-2.31723">
        <ele>21.2</ele>
        <time>2020-06-06T08:15:58Z</time>
      </trkpt>
      <trkpt lat="47.44947" lon="-2.31724">
        <ele>21.2</ele>
        <time>2020-06-06T08:15:59Z</time>
      </trkpt>
      <trkpt lat="47.44947" lon="-2.31725">
        <ele>21.2</ele>
        <time>2020-06-06T08:16:00Z</time>
      </trkpt>
      <trkpt lat="47.44946" lon="-2.31726">
        <ele>21.2</ele>
        <time>2020-06-06T08:16:01Z</time>
      </trkpt>
      <trkpt lat="47.44945" lon="-2.31726">
        <ele>21.2</ele>
        <time>2020-06-06T08:16:02Z</time>
      </trkpt>
      <trkpt lat="47.44942" lon="-2.31729">
        <ele>21.1</ele>
        <time>2020-06-06T08:16:03Z</time>
      </trkpt>
      <trkpt lat="47.44941" lon="-2.3173">
        <ele>21.1</ele>
        <time>2020-06-06T08:16:04Z</time>
      </trkpt>
      <trkpt lat="47.44938" lon="-2.31733">
        <ele>21.1</ele>
        <time>2020-06-06T08:16:05Z</time>
      </trkpt>
      <trkpt lat="47.44935" lon="-2.31736">
        <ele>21.2</ele>
        <time>2020-06-06T08:16:06Z</time>
      </trkpt>
      <trkpt lat="47.44932" lon="-2.3174">
        <ele>21.2</ele>
        <time>2020-06-06T08:16:07Z</time>
      </trkpt>
      <trkpt lat="47.4493" lon="-2.31745">
        <ele>21.3</ele>
        <time>2020-06-06T08:16:08Z</time>
      </trkpt>
      <trkpt lat="47.44928" lon="-2.31749">
        <ele>21.3</ele>
        <time>2020-06-06T08:16:09Z</time>
      </trkpt>
      <trkpt lat="47.44925" lon="-2.31752">
        <ele>21.3</ele>
        <time>2020-06-06T08:16:10Z</time>
      </trkpt>
      <trkpt lat="47.44924" lon="-2.31754">
        <ele>21.3</ele>
        <time>2020-06-06T08:16:11Z</time>
      </trkpt>
      <trkpt lat="47.44921" lon="-2.31756">
        <ele>21.4</ele>
        <time>2020-06-06T08:16:12Z</time>
      </trkpt>
      <trkpt lat="47.44918" lon="-2.31761">
        <ele>21.4</ele>
        <time>2020-06-06T08:16:13Z</time>
      </trkpt>
      <trkpt lat="47.44914" lon="-2.31765">
        <ele>21.4</ele>
        <time>2020-06-06T08:16:14Z</time>
      </trkpt>
      <trkpt lat="47.4491" lon="-2.31768">
        <ele>21.4</ele>
        <time>2020-06-06T08:16:15Z</time>
      </trkpt>
      <trkpt lat="47.44906" lon="-2.31772">
        <ele>21.4</ele>
        <time>2020-06-06T08:16:16Z</time>
      </trkpt>
      <trkpt lat="47.44902" lon="-2.31775">
        <ele>21.4</ele>
        <time>2020-06-06T08:16:17Z</time>
      </trkpt>
      <trkpt lat="47.44899" lon="-2.31778">
        <ele>21.3</ele>
        <time>2020-06-06T08:16:18Z</time>
      </trkpt>
      <trkpt lat="47.44895" lon="-2.31781">
        <ele>21.2</ele>
        <time>2020-06-06T08:16:19Z</time>
      </trkpt>
      <trkpt lat="47.44892" lon="-2.31785">
        <ele>21.1</ele>
        <time>2020-06-06T08:16:20Z</time>
      </trkpt>
      <trkpt lat="47.44888" lon="-2.31789">
        <ele>21</ele>
        <time>2020-06-06T08:16:21Z</time>
      </trkpt>
      <trkpt lat="47.44884" lon="-2.31794">
        <ele>21</ele>
        <time>2020-06-06T08:16:22Z</time>
      </trkpt>
      <trkpt lat="47.44881" lon="-2.31799">
        <ele>20.9</ele>
        <time>2020-06-06T08:16:23Z</time>
      </trkpt>
      <trkpt lat="47.44878" lon="-2.31802">
        <ele>20.8</ele>
        <time>2020-06-06T08:16:24Z</time>
      </trkpt>
      <trkpt lat="47.44875" lon="-2.31806">
        <ele>20.7</ele>
        <time>2020-06-06T08:16:25Z</time>
      </trkpt>
      <trkpt lat="47.44872" lon="-2.3181">
        <ele>20.6</ele>
        <time>2020-06-06T08:16:26Z</time>
      </trkpt>
      <trkpt lat="47.44869" lon="-2.31814">
        <ele>20.5</ele>
        <time>2020-06-06T08:16:27Z</time>
      </trkpt>
      <trkpt lat="47.44867" lon="-2.31818">
        <ele>20.5</ele>
        <time>2020-06-06T08:16:28Z</time>
      </trkpt>
      <trkpt lat="47.44865" lon="-2.31821">
        <ele>20.4</ele>
        <time>2020-06-06T08:16:29Z</time>
      </trkpt>
      <trkpt lat="47.44862" lon="-2.31824">
        <ele>20.3</ele>
        <time>2020-06-06T08:16:30Z</time>
      </trkpt>
      <trkpt lat="47.44859" lon="-2.31827">
        <ele>20.2</ele>
        <time>2020-06-06T08:16:31Z</time>
      </trkpt>
      <trkpt lat="47.44856" lon="-2.31829">
        <ele>20.1</ele>
        <time>2020-06-06T08:16:32Z</time>
      </trkpt>
      <trkpt lat="47.44854" lon="-2.31832">
        <ele>20</ele>
        <time>2020-06-06T08:16:33Z</time>
      </trkpt>
      <trkpt lat="47.44852" lon="-2.31835">
        <ele>20</ele>
        <time>2020-06-06T08:16:34Z</time>
      </trkpt>
      <trkpt lat="47.44852" lon="-2.31835">
        <ele>20</ele>
        <time>2020-06-06T08:16:35Z</time>
      </trkpt>
      <trkpt lat="47.44851" lon="-2.31837">
        <ele>19.9</ele>
        <time>2020-06-06T08:16:36Z</time>
      </trkpt>
      <trkpt lat="47.44851" lon="-2.31838">
        <ele>19.9</ele>
        <time>2020-06-06T08:16:37Z</time>
      </trkpt>
      <trkpt lat="47.44851" lon="-2.31838">
        <ele>19.9</ele>
        <time>2020-06-06T08:16:38Z</time>
      </trkpt>
      <trkpt lat="47.44851" lon="-2.31838">
        <ele>19.9</ele>
        <time>2020-06-06T08:16:39Z</time>
      </trkpt>
      <trkpt lat="47.44851" lon="-2.31839">
        <ele>19.9</ele>
        <time>2020-06-06T08:16:40Z</time>
      </trkpt>
      <trkpt lat="47.44851" lon="-2.31839">
        <ele>19.9</ele>
        <time>2020-06-06T08:16:41Z</time>
      </trkpt>
      <trkpt lat="47.4485" lon="-2.3184">
        <ele>19.9</ele>
        <time>2020-06-06T08:16:42Z</time>
      </trkpt>
      <trkpt lat="47.4485" lon="-2.31841">
        <ele>19.8</ele>
        <time>2020-06-06T08:16:43Z</time>
      </trkpt>
      <trkpt lat="47.44849" lon="-2.31841">
        <ele>19.8</ele>
        <time>2020-06-06T08:16:44Z</time>
      </trkpt>
      <trkpt lat="47.44848" lon="-2.3184">
        <ele>19.8</ele>
        <time>2020-06-06T08:16:45Z</time>
      </trkpt>
      <trkpt lat="47.44846" lon="-2.3184">
        <ele>19.8</ele>
        <time>2020-06-06T08:16:46Z</time>
      </trkpt>
      <trkpt lat="47.44846" lon="-2.3184">
        <ele>19.7</ele>
        <time>2020-06-06T08:16:47Z</time>
      </trkpt>
      <trkpt lat="47.44845" lon="-2.3184">
        <ele>19.7</ele>
        <time>2020-06-06T08:16:48Z</time>
      </trkpt>
      <trkpt lat="47.44842" lon="-2.31841">
        <ele>19.6</ele>
        <time>2020-06-06T08:16:49Z</time>
      </trkpt>
      <trkpt lat="47.44841" lon="-2.31842">
        <ele>19.6</ele>
        <time>2020-06-06T08:16:50Z</time>
      </trkpt>
      <trkpt lat="47.4484" lon="-2.31843">
        <ele>19.6</ele>
        <time>2020-06-06T08:16:51Z</time>
      </trkpt>
      <trkpt lat="47.44837" lon="-2.31844">
        <ele>19.5</ele>
        <time>2020-06-06T08:16:52Z</time>
      </trkpt>
      <trkpt lat="47.44832" lon="-2.31847">
        <ele>19.4</ele>
        <time>2020-06-06T08:16:53Z</time>
      </trkpt>
      <trkpt lat="47.4483" lon="-2.31847">
        <ele>19.3</ele>
        <time>2020-06-06T08:16:54Z</time>
      </trkpt>
      <trkpt lat="47.44829" lon="-2.31847">
        <ele>19.3</ele>
        <time>2020-06-06T08:16:55Z</time>
      </trkpt>
      <trkpt lat="47.44827" lon="-2.31847">
        <ele>19.2</ele>
        <time>2020-06-06T08:16:56Z</time>
      </trkpt>
      <trkpt lat="47.44826" lon="-2.31846">
        <ele>19.2</ele>
        <time>2020-06-06T08:16:57Z</time>
      </trkpt>
      <trkpt lat="47.44826" lon="-2.31847">
        <ele>19.2</ele>
        <time>2020-06-06T08:16:58Z</time>
      </trkpt>
      <trkpt lat="47.44825" lon="-2.31846">
        <ele>19.2</ele>
        <time>2020-06-06T08:16:59Z</time>
      </trkpt>
      <trkpt lat="47.44824" lon="-2.31845">
        <ele>19.1</ele>
        <time>2020-06-06T08:17:00Z</time>
      </trkpt>
      <trkpt lat="47.44823" lon="-2.31844">
        <ele>19.1</ele>
        <time>2020-06-06T08:17:01Z</time>
      </trkpt>
      <trkpt lat="47.44822" lon="-2.31841">
        <ele>19.1</ele>
        <time>2020-06-06T08:17:02Z</time>
      </trkpt>
      <trkpt lat="47.44821" lon="-2.3184">
        <ele>19</ele>
        <time>2020-06-06T08:17:03Z</time>
      </trkpt>
      <trkpt lat="47.44823" lon="-2.31838">
        <ele>19</ele>
        <time>2020-06-06T08:17:04Z</time>
      </trkpt>
      <trkpt lat="47.44825" lon="-2.31836">
        <ele>19</ele>
        <time>2020-06-06T08:17:05Z</time>
      </trkpt>
      <trkpt lat="47.44833" lon="-2.3185">
        <ele>19.4</ele>
        <time>2020-06-06T08:57:19Z</time>
      </trkpt>
      <trkpt lat="47.44834" lon="-2.3185">
        <ele>19.4</ele>
        <time>2020-06-06T08:57:20Z</time>
      </trkpt>
      <trkpt lat="47.44835" lon="-2.31849">
        <ele>19.4</ele>
        <time>2020-06-06T08:57:21Z</time>
      </trkpt>
      <trkpt lat="47.44836" lon="-2.31849">
        <ele>19.4</ele>
        <time>2020-06-06T08:57:22Z</time>
      </trkpt>
      <trkpt lat="47.44837" lon="-2.31849">
        <ele>19.5</ele>
        <time>2020-06-06T08:57:23Z</time>
      </trkpt>
      <trkpt lat="47.44838" lon="-2.31849">
        <ele>19.5</ele>
        <time>2020-06-06T08:57:24Z</time>
      </trkpt>
      <trkpt lat="47.44839" lon="-2.31848">
        <ele>19.5</ele>
        <time>2020-06-06T08:57:25Z</time>
      </trkpt>
      <trkpt lat="47.4484" lon="-2.31848">
        <ele>19.6</ele>
        <time>2020-06-06T08:57:26Z</time>
      </trkpt>
      <trkpt lat="47.44841" lon="-2.31848">
        <ele>19.6</ele>
        <time>2020-06-06T08:57:27Z</time>
      </trkpt>
      <trkpt lat="47.44842" lon="-2.31848">
        <ele>19.6</ele>
        <time>2020-06-06T08:57:28Z</time>
      </trkpt>
      <trkpt lat="47.44843" lon="-2.31848">
        <ele>19.6</ele>
        <time>2020-06-06T08:57:29Z</time>
      </trkpt>
      <trkpt lat="47.44844" lon="-2.31847">
        <ele>19.7</ele>
        <time>2020-06-06T08:59:15Z</time>
      </trkpt>
      <trkpt lat="47.44845" lon="-2.31847">
        <ele>19.7</ele>
        <time>2020-06-06T08:59:16Z</time>
      </trkpt>
      <trkpt lat="47.44848" lon="-2.31844">
        <ele>19.8</ele>
        <time>2020-06-06T08:59:17Z</time>
      </trkpt>
      <trkpt lat="47.44848" lon="-2.31844">
        <ele>19.8</ele>
        <time>2020-06-06T08:59:18Z</time>
      </trkpt>
      <trkpt lat="47.44852" lon="-2.3184">
        <ele>19.9</ele>
        <time>2020-06-06T08:59:19Z</time>
      </trkpt>
      <trkpt lat="47.44853" lon="-2.31838">
        <ele>20</ele>
        <time>2020-06-06T08:59:20Z</time>
      </trkpt>
      <trkpt lat="47.44856" lon="-2.31833">
        <ele>20.1</ele>
        <time>2020-06-06T08:59:21Z</time>
      </trkpt>
      <trkpt lat="47.44859" lon="-2.31829">
        <ele>20.2</ele>
        <time>2020-06-06T08:59:22Z</time>
      </trkpt>
      <trkpt lat="47.44862" lon="-2.31826">
        <ele>20.3</ele>
        <time>2020-06-06T08:59:23Z</time>
      </trkpt>
      <trkpt lat="47.44866" lon="-2.31823">
        <ele>20.4</ele>
        <time>2020-06-06T08:59:24Z</time>
      </trkpt>
      <trkpt lat="47.4487" lon="-2.31818">
        <ele>20.5</ele>
        <time>2020-06-06T08:59:25Z</time>
      </trkpt>
      <trkpt lat="47.44874" lon="-2.31813">
        <ele>20.6</ele>
        <time>2020-06-06T08:59:26Z</time>
      </trkpt>
      <trkpt lat="47.44878" lon="-2.31808">
        <ele>20.7</ele>
        <time>2020-06-06T08:59:27Z</time>
      </trkpt>
      <trkpt lat="47.44882" lon="-2.31803">
        <ele>20.8</ele>
        <time>2020-06-06T08:59:28Z</time>
      </trkpt>
      <trkpt lat="47.44885" lon="-2.318">
        <ele>20.9</ele>
        <time>2020-06-06T08:59:29Z</time>
      </trkpt>
      <trkpt lat="47.44888" lon="-2.31798">
        <ele>21</ele>
        <time>2020-06-06T08:59:30Z</time>
      </trkpt>
      <trkpt lat="47.44892" lon="-2.31795">
        <ele>21.1</ele>
        <time>2020-06-06T08:59:31Z</time>
      </trkpt>
      <trkpt lat="47.44896" lon="-2.31792">
        <ele>21.1</ele>
        <time>2020-06-06T08:59:32Z</time>
      </trkpt>
      <trkpt lat="47.449" lon="-2.31789">
        <ele>21.2</ele>
        <time>2020-06-06T08:59:33Z</time>
      </trkpt>
      <trkpt lat="47.44903" lon="-2.31787">
        <ele>21.3</ele>
        <time>2020-06-06T08:59:34Z</time>
      </trkpt>
      <trkpt lat="47.44906" lon="-2.31783">
        <ele>21.4</ele>
        <time>2020-06-06T08:59:35Z</time>
      </trkpt>
      <trkpt lat="47.44909" lon="-2.31781">
        <ele>21.4</ele>
        <time>2020-06-06T08:59:36Z</time>
      </trkpt>
      <trkpt lat="47.44912" lon="-2.31777">
        <ele>21.4</ele>
        <time>2020-06-06T08:59:37Z</time>
      </trkpt>
      <trkpt lat="47.44914" lon="-2.31776">
        <ele>21.4</ele>
        <time>2020-06-06T08:59:38Z</time>
      </trkpt>
      <trkpt lat="47.44915" lon="-2.31774">
        <ele>21.4</ele>
        <time>2020-06-06T08:59:39Z</time>
      </trkpt>
      <trkpt lat="47.44916" lon="-2.31773">
        <ele>21.4</ele>
        <time>2020-06-06T08:59:40Z</time>
      </trkpt>
      <trkpt lat="47.44917" lon="-2.31771">
        <ele>21.4</ele>
        <time>2020-06-06T08:59:41Z</time>
      </trkpt>
      <trkpt lat="47.44918" lon="-2.3177">
        <ele>21.4</ele>
        <time>2020-06-06T08:59:42Z</time>
      </trkpt>
      <trkpt lat="47.44918" lon="-2.3177">
        <ele>21.4</ele>
        <time>2020-06-06T08:59:43Z</time>
      </trkpt>
      <trkpt lat="47.44919" lon="-2.3177">
        <ele>21.4</ele>
        <time>2020-06-06T08:59:44Z</time>
      </trkpt>
      <trkpt lat="47.44922" lon="-2.31771">
        <ele>21.4</ele>
        <time>2020-06-06T08:59:45Z</time>
      </trkpt>
      <trkpt lat="47.44923" lon="-2.31771">
        <ele>21.4</ele>
        <time>2020-06-06T08:59:46Z</time>
      </trkpt>
      <trkpt lat="47.44925" lon="-2.31771">
        <ele>21.4</ele>
        <time>2020-06-06T08:59:47Z</time>
      </trkpt>
      <trkpt lat="47.44926" lon="-2.31771">
        <ele>21.4</ele>
        <time>2020-06-06T08:59:48Z</time>
      </trkpt>
      <trkpt lat="47.4493" lon="-2.3177">
        <ele>21.3</ele>
        <time>2020-06-06T08:59:49Z</time>
      </trkpt>
      <trkpt lat="47.44931" lon="-2.31769">
        <ele>21.3</ele>
        <time>2020-06-06T08:59:50Z</time>
      </trkpt>
      <trkpt lat="47.44934" lon="-2.31766">
        <ele>21.3</ele>
        <time>2020-06-06T08:59:51Z</time>
      </trkpt>
      <trkpt lat="47.44938" lon="-2.31761">
        <ele>21.2</ele>
        <time>2020-06-06T08:59:52Z</time>
      </trkpt>
      <trkpt lat="47.4494" lon="-2.31758">
        <ele>21.2</ele>
        <time>2020-06-06T08:59:53Z</time>
      </trkpt>
      <trkpt lat="47.44943" lon="-2.31755">
        <ele>21.1</ele>
        <time>2020-06-06T08:59:54Z</time>
      </trkpt>
      <trkpt lat="47.44945" lon="-2.31752">
        <ele>21.1</ele>
        <time>2020-06-06T08:59:55Z</time>
      </trkpt>
      <trkpt lat="47.44946" lon="-2.31751">
        <ele>21.1</ele>
        <time>2020-06-06T08:59:56Z</time>
      </trkpt>
      <trkpt lat="47.44948" lon="-2.31747">
        <ele>21.1</ele>
        <time>2020-06-06T08:59:57Z</time>
      </trkpt>
      <trkpt lat="47.44949" lon="-2.31745">
        <ele>21</ele>
        <time>2020-06-06T08:59:58Z</time>
      </trkpt>
      <trkpt lat="47.44952" lon="-2.31743">
        <ele>20.9</ele>
        <time>2020-06-06T08:59:59Z</time>
      </trkpt>
      <trkpt lat="47.44953" lon="-2.31742">
        <ele>20.8</ele>
        <time>2020-06-06T09:00:00Z</time>
      </trkpt>
      <trkpt lat="47.44956" lon="-2.31741">
        <ele>20.7</ele>
        <time>2020-06-06T09:00:01Z</time>
      </trkpt>
      <trkpt lat="47.44957" lon="-2.31741">
        <ele>20.6</ele>
        <time>2020-06-06T09:00:02Z</time>
      </trkpt>
      <trkpt lat="47.44961" lon="-2.31739">
        <ele>20.5</ele>
        <time>2020-06-06T09:00:03Z</time>
      </trkpt>
      <trkpt lat="47.44962" lon="-2.31738">
        <ele>20.4</ele>
        <time>2020-06-06T09:00:04Z</time>
      </trkpt>
      <trkpt lat="47.44964" lon="-2.31736">
        <ele>20.3</ele>
        <time>2020-06-06T09:00:05Z</time>
      </trkpt>
      <trkpt lat="47.44965" lon="-2.31735">
        <ele>20.2</ele>
        <time>2020-06-06T09:00:06Z</time>
      </trkpt>
      <trkpt lat="47.44968" lon="-2.31734">
        <ele>20.1</ele>
        <time>2020-06-06T09:00:07Z</time>
      </trkpt>
      <trkpt lat="47.44969" lon="-2.31734">
        <ele>20.1</ele>
        <time>2020-06-06T09:00:08Z</time>
      </trkpt>
      <trkpt lat="47.44972" lon="-2.31735">
        <ele>20</ele>
        <time>2020-06-06T09:00:09Z</time>
      </trkpt>
      <trkpt lat="47.44976" lon="-2.31736">
        <ele>19.8</ele>
        <time>2020-06-06T09:00:10Z</time>
      </trkpt>
      <trkpt lat="47.4498" lon="-2.31736">
        <ele>19.7</ele>
        <time>2020-06-06T09:00:11Z</time>
      </trkpt>
      <trkpt lat="47.44983" lon="-2.31737">
        <ele>19.5</ele>
        <time>2020-06-06T09:00:12Z</time>
      </trkpt>
      <trkpt lat="47.44986" lon="-2.31737">
        <ele>19.4</ele>
        <time>2020-06-06T09:00:13Z</time>
      </trkpt>
      <trkpt lat="47.44989" lon="-2.31738">
        <ele>19.3</ele>
        <time>2020-06-06T09:00:14Z</time>
      </trkpt>
      <trkpt lat="47.44993" lon="-2.31738">
        <ele>19.2</ele>
        <time>2020-06-06T09:00:15Z</time>
      </trkpt>
      <trkpt lat="47.44997" lon="-2.31738">
        <ele>19</ele>
        <time>2020-06-06T09:00:16Z</time>
      </trkpt>
      <trkpt lat="47.45001" lon="-2.31738">
        <ele>18.8</ele>
        <time>2020-06-06T09:00:17Z</time>
      </trkpt>
      <trkpt lat="47.45005" lon="-2.31737">
        <ele>18.6</ele>
        <time>2020-06-06T09:00:18Z</time>
      </trkpt>
      <trkpt lat="47.45009" lon="-2.31736">
        <ele>18.5</ele>
        <time>2020-06-06T09:00:19Z</time>
      </trkpt>
      <trkpt lat="47.45013" lon="-2.31736">
        <ele>18.3</ele>
        <time>2020-06-06T09:00:20Z</time>
      </trkpt>
      <trkpt lat="47.45017" lon="-2.31737">
        <ele>18.1</ele>
        <time>2020-06-06T09:00:21Z</time>
      </trkpt>
      <trkpt lat="47.45021" lon="-2.31736">
        <ele>18</ele>
        <time>2020-06-06T09:00:22Z</time>
      </trkpt>
      <trkpt lat="47.45023" lon="-2.31736">
        <ele>17.9</ele>
        <time>2020-06-06T09:00:23Z</time>
      </trkpt>
      <trkpt lat="47.45026" lon="-2.31738">
        <ele>17.7</ele>
        <time>2020-06-06T09:00:24Z</time>
      </trkpt>
      <trkpt lat="47.45029" lon="-2.31742">
        <ele>17.5</ele>
        <time>2020-06-06T09:00:25Z</time>
      </trkpt>
      <trkpt lat="47.45031" lon="-2.31747">
        <ele>17.4</ele>
        <time>2020-06-06T09:00:26Z</time>
      </trkpt>
      <trkpt lat="47.45032" lon="-2.3175">
        <ele>17.2</ele>
        <time>2020-06-06T09:00:27Z</time>
      </trkpt>
      <trkpt lat="47.45034" lon="-2.31755">
        <ele>17.1</ele>
        <time>2020-06-06T09:00:28Z</time>
      </trkpt>
      <trkpt lat="47.45035" lon="-2.3176">
        <ele>17</ele>
        <time>2020-06-06T09:00:29Z</time>
      </trkpt>
      <trkpt lat="47.45037" lon="-2.31764">
        <ele>16.8</ele>
        <time>2020-06-06T09:00:30Z</time>
      </trkpt>
      <trkpt lat="47.45038" lon="-2.31768">
        <ele>16.7</ele>
        <time>2020-06-06T09:00:31Z</time>
      </trkpt>
      <trkpt lat="47.4504" lon="-2.31772">
        <ele>16.6</ele>
        <time>2020-06-06T09:00:32Z</time>
      </trkpt>
      <trkpt lat="47.45041" lon="-2.31776">
        <ele>16.5</ele>
        <time>2020-06-06T09:00:33Z</time>
      </trkpt>
      <trkpt lat="47.45042" lon="-2.3178">
        <ele>16.5</ele>
        <time>2020-06-06T09:00:34Z</time>
      </trkpt>
      <trkpt lat="47.45044" lon="-2.31784">
        <ele>16.4</ele>
        <time>2020-06-06T09:00:35Z</time>
      </trkpt>
      <trkpt lat="47.45046" lon="-2.31789">
        <ele>16.3</ele>
        <time>2020-06-06T09:00:36Z</time>
      </trkpt>
      <trkpt lat="47.45048" lon="-2.31796">
        <ele>16.2</ele>
        <time>2020-06-06T09:00:37Z</time>
      </trkpt>
      <trkpt lat="47.45051" lon="-2.31802">
        <ele>16.2</ele>
        <time>2020-06-06T09:00:38Z</time>
      </trkpt>
      <trkpt lat="47.45054" lon="-2.31809">
        <ele>16.1</ele>
        <time>2020-06-06T09:00:39Z</time>
      </trkpt>
      <trkpt lat="47.45055" lon="-2.31816">
        <ele>16.1</ele>
        <time>2020-06-06T09:00:40Z</time>
      </trkpt>
      <trkpt lat="47.45057" lon="-2.31822">
        <ele>16</ele>
        <time>2020-06-06T09:00:41Z</time>
      </trkpt>
      <trkpt lat="47.45059" lon="-2.31828">
        <ele>15.9</ele>
        <time>2020-06-06T09:00:42Z</time>
      </trkpt>
      <trkpt lat="47.45061" lon="-2.31834">
        <ele>15.9</ele>
        <time>2020-06-06T09:00:43Z</time>
      </trkpt>
      <trkpt lat="47.45065" lon="-2.3184">
        <ele>15.9</ele>
        <time>2020-06-06T09:00:44Z</time>
      </trkpt>
      <trkpt lat="47.45068" lon="-2.31846">
        <ele>15.9</ele>
        <time>2020-06-06T09:00:45Z</time>
      </trkpt>
      <trkpt lat="47.45071" lon="-2.31853">
        <ele>15.9</ele>
        <time>2020-06-06T09:00:46Z</time>
      </trkpt>
      <trkpt lat="47.45073" lon="-2.3186">
        <ele>15.9</ele>
        <time>2020-06-06T09:00:47Z</time>
      </trkpt>
      <trkpt lat="47.45076" lon="-2.31867">
        <ele>15.9</ele>
        <time>2020-06-06T09:00:48Z</time>
      </trkpt>
      <trkpt lat="47.45078" lon="-2.31874">
        <ele>16</ele>
        <time>2020-06-06T09:00:49Z</time>
      </trkpt>
      <trkpt lat="47.45081" lon="-2.31882">
        <ele>15.9</ele>
        <time>2020-06-06T09:00:50Z</time>
      </trkpt>
      <trkpt lat="47.45084" lon="-2.31889">
        <ele>15.9</ele>
        <time>2020-06-06T09:00:51Z</time>
      </trkpt>
      <trkpt lat="47.45088" lon="-2.31895">
        <ele>15.9</ele>
        <time>2020-06-06T09:00:52Z</time>
      </trkpt>
      <trkpt lat="47.45092" lon="-2.31901">
        <ele>15.9</ele>
        <time>2020-06-06T09:00:53Z</time>
      </trkpt>
      <trkpt lat="47.45096" lon="-2.31906">
        <ele>15.9</ele>
        <time>2020-06-06T09:00:54Z</time>
      </trkpt>
      <trkpt lat="47.45101" lon="-2.31911">
        <ele>15.9</ele>
        <time>2020-06-06T09:00:55Z</time>
      </trkpt>
      <trkpt lat="47.45105" lon="-2.31915">
        <ele>16</ele>
        <time>2020-06-06T09:00:56Z</time>
      </trkpt>
      <trkpt lat="47.4511" lon="-2.3192">
        <ele>16</ele>
        <time>2020-06-06T09:00:57Z</time>
      </trkpt>
      <trkpt lat="47.45115" lon="-2.31923">
        <ele>16.1</ele>
        <time>2020-06-06T09:00:58Z</time>
      </trkpt>
      <trkpt lat="47.45119" lon="-2.31926">
        <ele>16.1</ele>
        <time>2020-06-06T09:00:59Z</time>
      </trkpt>
      <trkpt lat="47.45124" lon="-2.31929">
        <ele>16.1</ele>
        <time>2020-06-06T09:01:00Z</time>
      </trkpt>
      <trkpt lat="47.45128" lon="-2.31933">
        <ele>16.1</ele>
        <time>2020-06-06T09:01:01Z</time>
      </trkpt>
      <trkpt lat="47.45133" lon="-2.31936">
        <ele>16.2</ele>
        <time>2020-06-06T09:01:02Z</time>
      </trkpt>
      <trkpt lat="47.45137" lon="-2.3194">
        <ele>16.2</ele>
        <time>2020-06-06T09:01:03Z</time>
      </trkpt>
      <trkpt lat="47.45142" lon="-2.31944">
        <ele>16.2</ele>
        <time>2020-06-06T09:01:04Z</time>
      </trkpt>
      <trkpt lat="47.45146" lon="-2.31949">
        <ele>16.2</ele>
        <time>2020-06-06T09:01:05Z</time>
      </trkpt>
      <trkpt lat="47.45151" lon="-2.31953">
        <ele>16.3</ele>
        <time>2020-06-06T09:01:06Z</time>
      </trkpt>
      <trkpt lat="47.45156" lon="-2.31957">
        <ele>16.3</ele>
        <time>2020-06-06T09:01:07Z</time>
      </trkpt>
      <trkpt lat="47.4516" lon="-2.31962">
        <ele>16.3</ele>
        <time>2020-06-06T09:01:08Z</time>
      </trkpt>
      <trkpt lat="47.45163" lon="-2.31967">
        <ele>16.4</ele>
        <time>2020-06-06T09:01:09Z</time>
      </trkpt>
      <trkpt lat="47.45166" lon="-2.31971">
        <ele>16.5</ele>
        <time>2020-06-06T09:01:10Z</time>
      </trkpt>
      <trkpt lat="47.45169" lon="-2.31974">
        <ele>16.5</ele>
        <time>2020-06-06T09:01:11Z</time>
      </trkpt>
      <trkpt lat="47.4517" lon="-2.31976">
        <ele>16.5</ele>
        <time>2020-06-06T09:01:12Z</time>
      </trkpt>
      <trkpt lat="47.45171" lon="-2.31977">
        <ele>16.6</ele>
        <time>2020-06-06T09:01:13Z</time>
      </trkpt>
      <trkpt lat="47.45172" lon="-2.31977">
        <ele>16.6</ele>
        <time>2020-06-06T09:01:14Z</time>
      </trkpt>
      <trkpt lat="47.45173" lon="-2.31978">
        <ele>16.6</ele>
        <time>2020-06-06T09:01:15Z</time>
      </trkpt>
      <trkpt lat="47.45175" lon="-2.31979">
        <ele>16.6</ele>
        <time>2020-06-06T09:01:16Z</time>
      </trkpt>
      <trkpt lat="47.45176" lon="-2.31981">
        <ele>16.7</ele>
        <time>2020-06-06T09:01:17Z</time>
      </trkpt>
      <trkpt lat="47.45178" lon="-2.31982">
        <ele>16.7</ele>
        <time>2020-06-06T09:01:18Z</time>
      </trkpt>
      <trkpt lat="47.4518" lon="-2.31987">
        <ele>16.7</ele>
        <time>2020-06-06T09:01:19Z</time>
      </trkpt>
      <trkpt lat="47.45181" lon="-2.31988">
        <ele>16.7</ele>
        <time>2020-06-06T09:01:20Z</time>
      </trkpt>
      <trkpt lat="47.45182" lon="-2.31993">
        <ele>16.7</ele>
        <time>2020-06-06T09:01:21Z</time>
      </trkpt>
      <trkpt lat="47.45183" lon="-2.31995">
        <ele>16.7</ele>
        <time>2020-06-06T09:01:22Z</time>
      </trkpt>
      <trkpt lat="47.45184" lon="-2.31999">
        <ele>16.8</ele>
        <time>2020-06-06T09:01:23Z</time>
      </trkpt>
      <trkpt lat="47.45186" lon="-2.32003">
        <ele>16.8</ele>
        <time>2020-06-06T09:01:24Z</time>
      </trkpt>
      <trkpt lat="47.45188" lon="-2.32007">
        <ele>16.8</ele>
        <time>2020-06-06T09:01:25Z</time>
      </trkpt>
      <trkpt lat="47.4519" lon="-2.3201">
        <ele>16.9</ele>
        <time>2020-06-06T09:01:26Z</time>
      </trkpt>
      <trkpt lat="47.45192" lon="-2.32014">
        <ele>16.9</ele>
        <time>2020-06-06T09:01:27Z</time>
      </trkpt>
      <trkpt lat="47.45193" lon="-2.32019">
        <ele>17</ele>
        <time>2020-06-06T09:01:28Z</time>
      </trkpt>
      <trkpt lat="47.45194" lon="-2.32024">
        <ele>17</ele>
        <time>2020-06-06T09:01:29Z</time>
      </trkpt>
      <trkpt lat="47.45196" lon="-2.32028">
        <ele>17.1</ele>
        <time>2020-06-06T09:01:30Z</time>
      </trkpt>
      <trkpt lat="47.45198" lon="-2.32033">
        <ele>17.2</ele>
        <time>2020-06-06T09:01:31Z</time>
      </trkpt>
      <trkpt lat="47.45201" lon="-2.32037">
        <ele>17.2</ele>
        <time>2020-06-06T09:01:32Z</time>
      </trkpt>
      <trkpt lat="47.45204" lon="-2.32042">
        <ele>17.3</ele>
        <time>2020-06-06T09:01:33Z</time>
      </trkpt>
      <trkpt lat="47.45207" lon="-2.32046">
        <ele>17.4</ele>
        <time>2020-06-06T09:01:34Z</time>
      </trkpt>
      <trkpt lat="47.4521" lon="-2.3205">
        <ele>17.5</ele>
        <time>2020-06-06T09:01:35Z</time>
      </trkpt>
      <trkpt lat="47.45213" lon="-2.32054">
        <ele>17.5</ele>
        <time>2020-06-06T09:01:36Z</time>
      </trkpt>
      <trkpt lat="47.45216" lon="-2.32057">
        <ele>17.5</ele>
        <time>2020-06-06T09:01:37Z</time>
      </trkpt>
      <trkpt lat="47.45219" lon="-2.3206">
        <ele>17.4</ele>
        <time>2020-06-06T09:01:38Z</time>
      </trkpt>
      <trkpt lat="47.45223" lon="-2.32064">
        <ele>17.3</ele>
        <time>2020-06-06T09:01:39Z</time>
      </trkpt>
      <trkpt lat="47.45227" lon="-2.32067">
        <ele>17.2</ele>
        <time>2020-06-06T09:01:40Z</time>
      </trkpt>
      <trkpt lat="47.45231" lon="-2.32069">
        <ele>17.1</ele>
        <time>2020-06-06T09:01:41Z</time>
      </trkpt>
      <trkpt lat="47.45235" lon="-2.32072">
        <ele>17</ele>
        <time>2020-06-06T09:01:42Z</time>
      </trkpt>
      <trkpt lat="47.45238" lon="-2.32074">
        <ele>16.9</ele>
        <time>2020-06-06T09:01:43Z</time>
      </trkpt>
      <trkpt lat="47.45242" lon="-2.32076">
        <ele>16.8</ele>
        <time>2020-06-06T09:01:44Z</time>
      </trkpt>
      <trkpt lat="47.45246" lon="-2.32078">
        <ele>16.6</ele>
        <time>2020-06-06T09:01:45Z</time>
      </trkpt>
      <trkpt lat="47.45251" lon="-2.3208">
        <ele>16.5</ele>
        <time>2020-06-06T09:01:46Z</time>
      </trkpt>
      <trkpt lat="47.45256" lon="-2.32082">
        <ele>16.4</ele>
        <time>2020-06-06T09:01:47Z</time>
      </trkpt>
      <trkpt lat="47.45261" lon="-2.32084">
        <ele>16.2</ele>
        <time>2020-06-06T09:01:48Z</time>
      </trkpt>
      <trkpt lat="47.45266" lon="-2.32087">
        <ele>16.1</ele>
        <time>2020-06-06T09:01:49Z</time>
      </trkpt>
      <trkpt lat="47.45271" lon="-2.3209">
        <ele>16</ele>
        <time>2020-06-06T09:01:50Z</time>
      </trkpt>
      <trkpt lat="47.45275" lon="-2.32093">
        <ele>15.9</ele>
        <time>2020-06-06T09:01:51Z</time>
      </trkpt>
      <trkpt lat="47.4528" lon="-2.32095">
        <ele>15.8</ele>
        <time>2020-06-06T09:01:52Z</time>
      </trkpt>
      <trkpt lat="47.45285" lon="-2.32098">
        <ele>15.8</ele>
        <time>2020-06-06T09:01:53Z</time>
      </trkpt>
      <trkpt lat="47.4529" lon="-2.32101">
        <ele>15.9</ele>
        <time>2020-06-06T09:01:54Z</time>
      </trkpt>
      <trkpt lat="47.45295" lon="-2.32105">
        <ele>15.9</ele>
        <time>2020-06-06T09:01:55Z</time>
      </trkpt>
      <trkpt lat="47.453" lon="-2.3211">
        <ele>15.9</ele>
        <time>2020-06-06T09:01:56Z</time>
      </trkpt>
      <trkpt lat="47.45305" lon="-2.32115">
        <ele>15.9</ele>
        <time>2020-06-06T09:01:57Z</time>
      </trkpt>
      <trkpt lat="47.45309" lon="-2.32121">
        <ele>16</ele>
        <time>2020-06-06T09:01:58Z</time>
      </trkpt>
      <trkpt lat="47.45313" lon="-2.32126">
        <ele>16.1</ele>
        <time>2020-06-06T09:01:59Z</time>
      </trkpt>
      <trkpt lat="47.45316" lon="-2.32132">
        <ele>16.2</ele>
        <time>2020-06-06T09:02:00Z</time>
      </trkpt>
      <trkpt lat="47.45319" lon="-2.32138">
        <ele>16.3</ele>
        <time>2020-06-06T09:02:01Z</time>
      </trkpt>
      <trkpt lat="47.45321" lon="-2.32143">
        <ele>16.3</ele>
        <time>2020-06-06T09:02:02Z</time>
      </trkpt>
      <trkpt lat="47.45324" lon="-2.32147">
        <ele>16.4</ele>
        <time>2020-06-06T09:02:03Z</time>
      </trkpt>
      <trkpt lat="47.45327" lon="-2.32151">
        <ele>16.5</ele>
        <time>2020-06-06T09:02:04Z</time>
      </trkpt>
      <trkpt lat="47.4533" lon="-2.32155">
        <ele>16.5</ele>
        <time>2020-06-06T09:02:05Z</time>
      </trkpt>
      <trkpt lat="47.45333" lon="-2.3216">
        <ele>16.6</ele>
        <time>2020-06-06T09:02:06Z</time>
      </trkpt>
      <trkpt lat="47.45337" lon="-2.32164">
        <ele>16.6</ele>
        <time>2020-06-06T09:02:07Z</time>
      </trkpt>
      <trkpt lat="47.45343" lon="-2.32164">
        <ele>16.6</ele>
        <time>2020-06-06T09:02:08Z</time>
      </trkpt>
      <trkpt lat="47.45348" lon="-2.32165">
        <ele>16.7</ele>
        <time>2020-06-06T09:02:09Z</time>
      </trkpt>
      <trkpt lat="47.45354" lon="-2.32165">
        <ele>16.7</ele>
        <time>2020-06-06T09:02:10Z</time>
      </trkpt>
      <trkpt lat="47.45359" lon="-2.32166">
        <ele>16.6</ele>
        <time>2020-06-06T09:02:11Z</time>
      </trkpt>
      <trkpt lat="47.45366" lon="-2.32166">
        <ele>16.6</ele>
        <time>2020-06-06T09:02:12Z</time>
      </trkpt>
      <trkpt lat="47.45372" lon="-2.32167">
        <ele>16.6</ele>
        <time>2020-06-06T09:02:13Z</time>
      </trkpt>
      <trkpt lat="47.45377" lon="-2.32168">
        <ele>16.6</ele>
        <time>2020-06-06T09:02:14Z</time>
      </trkpt>
      <trkpt lat="47.45382" lon="-2.32168">
        <ele>16.6</ele>
        <time>2020-06-06T09:02:15Z</time>
      </trkpt>
      <trkpt lat="47.45387" lon="-2.32168">
        <ele>16.6</ele>
        <time>2020-06-06T09:02:16Z</time>
      </trkpt>
      <trkpt lat="47.45392" lon="-2.32171">
        <ele>16.6</ele>
        <time>2020-06-06T09:02:17Z</time>
      </trkpt>
      <trkpt lat="47.45397" lon="-2.32172">
        <ele>16.6</ele>
        <time>2020-06-06T09:02:18Z</time>
      </trkpt>
      <trkpt lat="47.45402" lon="-2.32174">
        <ele>16.7</ele>
        <time>2020-06-06T09:02:19Z</time>
      </trkpt>
      <trkpt lat="47.45408" lon="-2.32178">
        <ele>16.7</ele>
        <time>2020-06-06T09:02:20Z</time>
      </trkpt>
      <trkpt lat="47.45413" lon="-2.32182">
        <ele>16.8</ele>
        <time>2020-06-06T09:02:21Z</time>
      </trkpt>
      <trkpt lat="47.45418" lon="-2.32185">
        <ele>16.9</ele>
        <time>2020-06-06T09:02:22Z</time>
      </trkpt>
      <trkpt lat="47.45423" lon="-2.32188">
        <ele>17</ele>
        <time>2020-06-06T09:02:23Z</time>
      </trkpt>
      <trkpt lat="47.45427" lon="-2.32193">
        <ele>17</ele>
        <time>2020-06-06T09:02:24Z</time>
      </trkpt>
      <trkpt lat="47.4543" lon="-2.32198">
        <ele>17.1</ele>
        <time>2020-06-06T09:02:25Z</time>
      </trkpt>
      <trkpt lat="47.45434" lon="-2.32203">
        <ele>17.2</ele>
        <time>2020-06-06T09:02:26Z</time>
      </trkpt>
      <trkpt lat="47.45438" lon="-2.32208">
        <ele>17.3</ele>
        <time>2020-06-06T09:02:27Z</time>
      </trkpt>
      <trkpt lat="47.45442" lon="-2.32212">
        <ele>17.4</ele>
        <time>2020-06-06T09:02:28Z</time>
      </trkpt>
      <trkpt lat="47.45445" lon="-2.32217">
        <ele>17.5</ele>
        <time>2020-06-06T09:02:29Z</time>
      </trkpt>
      <trkpt lat="47.45449" lon="-2.32221">
        <ele>17.5</ele>
        <time>2020-06-06T09:02:30Z</time>
      </trkpt>
      <trkpt lat="47.45452" lon="-2.32225">
        <ele>17.6</ele>
        <time>2020-06-06T09:02:31Z</time>
      </trkpt>
      <trkpt lat="47.45456" lon="-2.32229">
        <ele>17.7</ele>
        <time>2020-06-06T09:02:32Z</time>
      </trkpt>
      <trkpt lat="47.45459" lon="-2.32234">
        <ele>17.8</ele>
        <time>2020-06-06T09:02:33Z</time>
      </trkpt>
      <trkpt lat="47.45463" lon="-2.3224">
        <ele>17.9</ele>
        <time>2020-06-06T09:02:34Z</time>
      </trkpt>
      <trkpt lat="47.45468" lon="-2.32245">
        <ele>18</ele>
        <time>2020-06-06T09:02:35Z</time>
      </trkpt>
      <trkpt lat="47.45473" lon="-2.3225">
        <ele>18.1</ele>
        <time>2020-06-06T09:02:36Z</time>
      </trkpt>
      <trkpt lat="47.45477" lon="-2.32254">
        <ele>18.3</ele>
        <time>2020-06-06T09:02:37Z</time>
      </trkpt>
      <trkpt lat="47.45482" lon="-2.32257">
        <ele>18.5</ele>
        <time>2020-06-06T09:02:38Z</time>
      </trkpt>
      <trkpt lat="47.45487" lon="-2.32259">
        <ele>18.8</ele>
        <time>2020-06-06T09:02:39Z</time>
      </trkpt>
      <trkpt lat="47.45492" lon="-2.3226">
        <ele>19.1</ele>
        <time>2020-06-06T09:02:40Z</time>
      </trkpt>
      <trkpt lat="47.45496" lon="-2.32261">
        <ele>19.3</ele>
        <time>2020-06-06T09:02:41Z</time>
      </trkpt>
      <trkpt lat="47.45499" lon="-2.32261">
        <ele>19.5</ele>
        <time>2020-06-06T09:02:42Z</time>
      </trkpt>
      <trkpt lat="47.455" lon="-2.32262">
        <ele>19.5</ele>
        <time>2020-06-06T09:02:43Z</time>
      </trkpt>
      <trkpt lat="47.45501" lon="-2.32262">
        <ele>19.6</ele>
        <time>2020-06-06T09:02:44Z</time>
      </trkpt>
      <trkpt lat="47.45501" lon="-2.3226">
        <ele>19.6</ele>
        <time>2020-06-06T09:02:45Z</time>
      </trkpt>
      <trkpt lat="47.45502" lon="-2.3226">
        <ele>19.6</ele>
        <time>2020-06-06T09:02:46Z</time>
      </trkpt>
      <trkpt lat="47.45502" lon="-2.3226">
        <ele>19.7</ele>
        <time>2020-06-06T09:02:47Z</time>
      </trkpt>
      <trkpt lat="47.45503" lon="-2.32261">
        <ele>19.7</ele>
        <time>2020-06-06T09:02:48Z</time>
      </trkpt>
      <trkpt lat="47.45504" lon="-2.3226">
        <ele>19.7</ele>
        <time>2020-06-06T09:02:49Z</time>
      </trkpt>
      <trkpt lat="47.45505" lon="-2.3226">
        <ele>19.8</ele>
        <time>2020-06-06T09:02:50Z</time>
      </trkpt>
      <trkpt lat="47.45506" lon="-2.3226">
        <ele>19.8</ele>
        <time>2020-06-06T09:02:51Z</time>
      </trkpt>
      <trkpt lat="47.45507" lon="-2.3226">
        <ele>20</ele>
        <time>2020-06-06T09:02:52Z</time>
      </trkpt>
      <trkpt lat="47.45509" lon="-2.32262">
        <ele>20</ele>
        <time>2020-06-06T09:02:53Z</time>
      </trkpt>
      <trkpt lat="47.45512" lon="-2.32267">
        <ele>20.1</ele>
        <time>2020-06-06T09:02:54Z</time>
      </trkpt>
      <trkpt lat="47.45514" lon="-2.32271">
        <ele>20.1</ele>
        <time>2020-06-06T09:02:55Z</time>
      </trkpt>
      <trkpt lat="47.45516" lon="-2.32276">
        <ele>20.1</ele>
        <time>2020-06-06T09:02:56Z</time>
      </trkpt>
      <trkpt lat="47.45519" lon="-2.32281">
        <ele>20.1</ele>
        <time>2020-06-06T09:02:57Z</time>
      </trkpt>
      <trkpt lat="47.45522" lon="-2.32286">
        <ele>20.2</ele>
        <time>2020-06-06T09:02:58Z</time>
      </trkpt>
      <trkpt lat="47.45524" lon="-2.32292">
        <ele>20.2</ele>
        <time>2020-06-06T09:02:59Z</time>
      </trkpt>
      <trkpt lat="47.45527" lon="-2.32297">
        <ele>20.3</ele>
        <time>2020-06-06T09:03:00Z</time>
      </trkpt>
      <trkpt lat="47.4553" lon="-2.32304">
        <ele>20.4</ele>
        <time>2020-06-06T09:03:01Z</time>
      </trkpt>
      <trkpt lat="47.45532" lon="-2.32311">
        <ele>20.4</ele>
        <time>2020-06-06T09:03:02Z</time>
      </trkpt>
      <trkpt lat="47.45535" lon="-2.32318">
        <ele>20.5</ele>
        <time>2020-06-06T09:03:03Z</time>
      </trkpt>
      <trkpt lat="47.45537" lon="-2.32324">
        <ele>20.6</ele>
        <time>2020-06-06T09:03:04Z</time>
      </trkpt>
      <trkpt lat="47.4554" lon="-2.32331">
        <ele>20.7</ele>
        <time>2020-06-06T09:03:05Z</time>
      </trkpt>
      <trkpt lat="47.45544" lon="-2.32336">
        <ele>20.8</ele>
        <time>2020-06-06T09:03:06Z</time>
      </trkpt>
      <trkpt lat="47.45546" lon="-2.32342">
        <ele>20.9</ele>
        <time>2020-06-06T09:03:07Z</time>
      </trkpt>
      <trkpt lat="47.4555" lon="-2.32349">
        <ele>21</ele>
        <time>2020-06-06T09:03:08Z</time>
      </trkpt>
      <trkpt lat="47.45553" lon="-2.32355">
        <ele>21.2</ele>
        <time>2020-06-06T09:03:09Z</time>
      </trkpt>
      <trkpt lat="47.45557" lon="-2.32361">
        <ele>21.3</ele>
        <time>2020-06-06T09:03:10Z</time>
      </trkpt>
      <trkpt lat="47.45561" lon="-2.32367">
        <ele>21.4</ele>
        <time>2020-06-06T09:03:11Z</time>
      </trkpt>
      <trkpt lat="47.45564" lon="-2.32373">
        <ele>21.4</ele>
        <time>2020-06-06T09:03:12Z</time>
      </trkpt>
      <trkpt lat="47.45568" lon="-2.32379">
        <ele>21.5</ele>
        <time>2020-06-06T09:03:13Z</time>
      </trkpt>
      <trkpt lat="47.45572" lon="-2.32385">
        <ele>21.5</ele>
        <time>2020-06-06T09:03:14Z</time>
      </trkpt>
      <trkpt lat="47.45576" lon="-2.32391">
        <ele>21.5</ele>
        <time>2020-06-06T09:03:15Z</time>
      </trkpt>
      <trkpt lat="47.45579" lon="-2.32397">
        <ele>21.5</ele>
        <time>2020-06-06T09:03:16Z</time>
      </trkpt>
      <trkpt lat="47.45583" lon="-2.32403">
        <ele>21.5</ele>
        <time>2020-06-06T09:03:17Z</time>
      </trkpt>
      <trkpt lat="47.45586" lon="-2.32409">
        <ele>21.5</ele>
        <time>2020-06-06T09:03:18Z</time>
      </trkpt>
      <trkpt lat="47.45591" lon="-2.32415">
        <ele>21.6</ele>
        <time>2020-06-06T09:03:19Z</time>
      </trkpt>
      <trkpt lat="47.45594" lon="-2.32422">
        <ele>21.6</ele>
        <time>2020-06-06T09:03:20Z</time>
      </trkpt>
      <trkpt lat="47.45597" lon="-2.32428">
        <ele>21.6</ele>
        <time>2020-06-06T09:03:21Z</time>
      </trkpt>
      <trkpt lat="47.45601" lon="-2.32435">
        <ele>21.6</ele>
        <time>2020-06-06T09:03:22Z</time>
      </trkpt>
      <trkpt lat="47.45605" lon="-2.3244">
        <ele>21.6</ele>
        <time>2020-06-06T09:03:23Z</time>
      </trkpt>
      <trkpt lat="47.45608" lon="-2.32447">
        <ele>21.6</ele>
        <time>2020-06-06T09:03:24Z</time>
      </trkpt>
      <trkpt lat="47.45613" lon="-2.32453">
        <ele>21.6</ele>
        <time>2020-06-06T09:03:25Z</time>
      </trkpt>
      <trkpt lat="47.45616" lon="-2.3246">
        <ele>21.7</ele>
        <time>2020-06-06T09:03:26Z</time>
      </trkpt>
      <trkpt lat="47.4562" lon="-2.32467">
        <ele>21.7</ele>
        <time>2020-06-06T09:03:27Z</time>
      </trkpt>
      <trkpt lat="47.45624" lon="-2.32473">
        <ele>21.7</ele>
        <time>2020-06-06T09:03:28Z</time>
      </trkpt>
      <trkpt lat="47.45628" lon="-2.3248">
        <ele>21.8</ele>
        <time>2020-06-06T09:03:29Z</time>
      </trkpt>
      <trkpt lat="47.45632" lon="-2.32486">
        <ele>21.8</ele>
        <time>2020-06-06T09:03:30Z</time>
      </trkpt>
      <trkpt lat="47.45635" lon="-2.32492">
        <ele>21.8</ele>
        <time>2020-06-06T09:03:31Z</time>
      </trkpt>
      <trkpt lat="47.45638" lon="-2.32499">
        <ele>21.9</ele>
        <time>2020-06-06T09:03:32Z</time>
      </trkpt>
      <trkpt lat="47.45642" lon="-2.32506">
        <ele>21.9</ele>
        <time>2020-06-06T09:03:33Z</time>
      </trkpt>
      <trkpt lat="47.45646" lon="-2.32514">
        <ele>21.9</ele>
        <time>2020-06-06T09:03:34Z</time>
      </trkpt>
      <trkpt lat="47.4565" lon="-2.32521">
        <ele>21.9</ele>
        <time>2020-06-06T09:03:35Z</time>
      </trkpt>
      <trkpt lat="47.45654" lon="-2.32528">
        <ele>21.9</ele>
        <time>2020-06-06T09:03:36Z</time>
      </trkpt>
      <trkpt lat="47.45658" lon="-2.32534">
        <ele>22</ele>
        <time>2020-06-06T09:03:37Z</time>
      </trkpt>
      <trkpt lat="47.45661" lon="-2.32541">
        <ele>22</ele>
        <time>2020-06-06T09:03:38Z</time>
      </trkpt>
      <trkpt lat="47.45665" lon="-2.32548">
        <ele>22.1</ele>
        <time>2020-06-06T09:03:39Z</time>
      </trkpt>
      <trkpt lat="47.45669" lon="-2.32555">
        <ele>22.2</ele>
        <time>2020-06-06T09:03:40Z</time>
      </trkpt>
      <trkpt lat="47.45673" lon="-2.32564">
        <ele>22.3</ele>
        <time>2020-06-06T09:03:41Z</time>
      </trkpt>
      <trkpt lat="47.45677" lon="-2.32571">
        <ele>22.4</ele>
        <time>2020-06-06T09:03:42Z</time>
      </trkpt>
      <trkpt lat="47.45681" lon="-2.32577">
        <ele>22.4</ele>
        <time>2020-06-06T09:03:43Z</time>
      </trkpt>
      <trkpt lat="47.45685" lon="-2.32584">
        <ele>22.5</ele>
        <time>2020-06-06T09:03:44Z</time>
      </trkpt>
      <trkpt lat="47.45689" lon="-2.3259">
        <ele>22.6</ele>
        <time>2020-06-06T09:03:45Z</time>
      </trkpt>
      <trkpt lat="47.45693" lon="-2.32595">
        <ele>22.7</ele>
        <time>2020-06-06T09:03:46Z</time>
      </trkpt>
      <trkpt lat="47.45698" lon="-2.32601">
        <ele>22.8</ele>
        <time>2020-06-06T09:03:47Z</time>
      </trkpt>
      <trkpt lat="47.45703" lon="-2.32605">
        <ele>22.9</ele>
        <time>2020-06-06T09:03:48Z</time>
      </trkpt>
      <trkpt lat="47.4571" lon="-2.3261">
        <ele>23.2</ele>
        <time>2020-06-06T09:03:49Z</time>
      </trkpt>
      <trkpt lat="47.45714" lon="-2.32614">
        <ele>23.3</ele>
        <time>2020-06-06T09:03:50Z</time>
      </trkpt>
      <trkpt lat="47.45719" lon="-2.32619">
        <ele>23.5</ele>
        <time>2020-06-06T09:03:51Z</time>
      </trkpt>
      <trkpt lat="47.45723" lon="-2.32622">
        <ele>23.6</ele>
        <time>2020-06-06T09:03:52Z</time>
      </trkpt>
      <trkpt lat="47.45727" lon="-2.32627">
        <ele>23.7</ele>
        <time>2020-06-06T09:03:53Z</time>
      </trkpt>
      <trkpt lat="47.45733" lon="-2.32631">
        <ele>23.9</ele>
        <time>2020-06-06T09:03:54Z</time>
      </trkpt>
      <trkpt lat="47.45737" lon="-2.32635">
        <ele>24</ele>
        <time>2020-06-06T09:03:55Z</time>
      </trkpt>
      <trkpt lat="47.45742" lon="-2.32639">
        <ele>24.2</ele>
        <time>2020-06-06T09:03:56Z</time>
      </trkpt>
      <trkpt lat="47.45747" lon="-2.32642">
        <ele>24.3</ele>
        <time>2020-06-06T09:03:57Z</time>
      </trkpt>
      <trkpt lat="47.45752" lon="-2.32647">
        <ele>24.5</ele>
        <time>2020-06-06T09:03:58Z</time>
      </trkpt>
      <trkpt lat="47.45757" lon="-2.32649">
        <ele>24.6</ele>
        <time>2020-06-06T09:03:59Z</time>
      </trkpt>
      <trkpt lat="47.45762" lon="-2.32653">
        <ele>24.8</ele>
        <time>2020-06-06T09:04:00Z</time>
      </trkpt>
      <trkpt lat="47.45767" lon="-2.32656">
        <ele>24.9</ele>
        <time>2020-06-06T09:04:01Z</time>
      </trkpt>
      <trkpt lat="47.45772" lon="-2.3266">
        <ele>25.1</ele>
        <time>2020-06-06T09:04:02Z</time>
      </trkpt>
      <trkpt lat="47.45776" lon="-2.32665">
        <ele>25.2</ele>
        <time>2020-06-06T09:04:03Z</time>
      </trkpt>
      <trkpt lat="47.45781" lon="-2.32669">
        <ele>25.4</ele>
        <time>2020-06-06T09:04:04Z</time>
      </trkpt>
      <trkpt lat="47.45785" lon="-2.32674">
        <ele>25.5</ele>
        <time>2020-06-06T09:04:05Z</time>
      </trkpt>
      <trkpt lat="47.4579" lon="-2.32679">
        <ele>25.7</ele>
        <time>2020-06-06T09:04:06Z</time>
      </trkpt>
      <trkpt lat="47.45795" lon="-2.32682">
        <ele>25.8</ele>
        <time>2020-06-06T09:04:07Z</time>
      </trkpt>
      <trkpt lat="47.458" lon="-2.32685">
        <ele>26</ele>
        <time>2020-06-06T09:04:08Z</time>
      </trkpt>
      <trkpt lat="47.45804" lon="-2.32689">
        <ele>26.1</ele>
        <time>2020-06-06T09:04:09Z</time>
      </trkpt>
      <trkpt lat="47.45808" lon="-2.32692">
        <ele>26.2</ele>
        <time>2020-06-06T09:04:10Z</time>
      </trkpt>
      <trkpt lat="47.45813" lon="-2.32695">
        <ele>26.3</ele>
        <time>2020-06-06T09:04:11Z</time>
      </trkpt>
      <trkpt lat="47.45818" lon="-2.32699">
        <ele>26.5</ele>
        <time>2020-06-06T09:04:12Z</time>
      </trkpt>
      <trkpt lat="47.45822" lon="-2.32701">
        <ele>26.6</ele>
        <time>2020-06-06T09:04:13Z</time>
      </trkpt>
      <trkpt lat="47.45827" lon="-2.32705">
        <ele>26.7</ele>
        <time>2020-06-06T09:04:14Z</time>
      </trkpt>
      <trkpt lat="47.45832" lon="-2.32709">
        <ele>26.8</ele>
        <time>2020-06-06T09:04:15Z</time>
      </trkpt>
      <trkpt lat="47.45836" lon="-2.32713">
        <ele>26.9</ele>
        <time>2020-06-06T09:04:16Z</time>
      </trkpt>
      <trkpt lat="47.45841" lon="-2.32717">
        <ele>27</ele>
        <time>2020-06-06T09:04:17Z</time>
      </trkpt>
      <trkpt lat="47.45845" lon="-2.32721">
        <ele>27.1</ele>
        <time>2020-06-06T09:04:18Z</time>
      </trkpt>
      <trkpt lat="47.45849" lon="-2.32724">
        <ele>27.2</ele>
        <time>2020-06-06T09:04:19Z</time>
      </trkpt>
      <trkpt lat="47.45854" lon="-2.32728">
        <ele>27.2</ele>
        <time>2020-06-06T09:04:20Z</time>
      </trkpt>
      <trkpt lat="47.45858" lon="-2.32732">
        <ele>27.2</ele>
        <time>2020-06-06T09:04:21Z</time>
      </trkpt>
      <trkpt lat="47.45863" lon="-2.32736">
        <ele>27.3</ele>
        <time>2020-06-06T09:04:22Z</time>
      </trkpt>
      <trkpt lat="47.45869" lon="-2.3274">
        <ele>27.3</ele>
        <time>2020-06-06T09:04:23Z</time>
      </trkpt>
      <trkpt lat="47.45873" lon="-2.32744">
        <ele>27.4</ele>
        <time>2020-06-06T09:04:24Z</time>
      </trkpt>
      <trkpt lat="47.45879" lon="-2.32748">
        <ele>27.4</ele>
        <time>2020-06-06T09:04:25Z</time>
      </trkpt>
      <trkpt lat="47.45883" lon="-2.32753">
        <ele>27.5</ele>
        <time>2020-06-06T09:04:26Z</time>
      </trkpt>
      <trkpt lat="47.45888" lon="-2.32757">
        <ele>27.6</ele>
        <time>2020-06-06T09:04:27Z</time>
      </trkpt>
      <trkpt lat="47.45892" lon="-2.32761">
        <ele>27.7</ele>
        <time>2020-06-06T09:04:28Z</time>
      </trkpt>
      <trkpt lat="47.45897" lon="-2.32766">
        <ele>27.7</ele>
        <time>2020-06-06T09:04:29Z</time>
      </trkpt>
      <trkpt lat="47.45902" lon="-2.3277">
        <ele>27.8</ele>
        <time>2020-06-06T09:04:30Z</time>
      </trkpt>
      <trkpt lat="47.45907" lon="-2.32774">
        <ele>27.9</ele>
        <time>2020-06-06T09:04:31Z</time>
      </trkpt>
      <trkpt lat="47.45912" lon="-2.32778">
        <ele>28</ele>
        <time>2020-06-06T09:04:32Z</time>
      </trkpt>
      <trkpt lat="47.45915" lon="-2.32782">
        <ele>28</ele>
        <time>2020-06-06T09:04:33Z</time>
      </trkpt>
      <trkpt lat="47.45919" lon="-2.32786">
        <ele>28.1</ele>
        <time>2020-06-06T09:04:34Z</time>
      </trkpt>
      <trkpt lat="47.45924" lon="-2.32789">
        <ele>28.2</ele>
        <time>2020-06-06T09:04:35Z</time>
      </trkpt>
      <trkpt lat="47.45928" lon="-2.32793">
        <ele>28.3</ele>
        <time>2020-06-06T09:04:36Z</time>
      </trkpt>
      <trkpt lat="47.45933" lon="-2.32797">
        <ele>28.3</ele>
        <time>2020-06-06T09:04:37Z</time>
      </trkpt>
      <trkpt lat="47.45937" lon="-2.328">
        <ele>28.4</ele>
        <time>2020-06-06T09:04:38Z</time>
      </trkpt>
      <trkpt lat="47.45942" lon="-2.32804">
        <ele>28.5</ele>
        <time>2020-06-06T09:04:39Z</time>
      </trkpt>
      <trkpt lat="47.45948" lon="-2.32807">
        <ele>28.5</ele>
        <time>2020-06-06T09:04:40Z</time>
      </trkpt>
      <trkpt lat="47.45952" lon="-2.3281">
        <ele>28.5</ele>
        <time>2020-06-06T09:04:41Z</time>
      </trkpt>
      <trkpt lat="47.45957" lon="-2.32814">
        <ele>28.6</ele>
        <time>2020-06-06T09:04:42Z</time>
      </trkpt>
      <trkpt lat="47.45962" lon="-2.32818">
        <ele>28.7</ele>
        <time>2020-06-06T09:04:43Z</time>
      </trkpt>
      <trkpt lat="47.45967" lon="-2.32822">
        <ele>28.7</ele>
        <time>2020-06-06T09:04:44Z</time>
      </trkpt>
      <trkpt lat="47.45973" lon="-2.32826">
        <ele>28.8</ele>
        <time>2020-06-06T09:04:45Z</time>
      </trkpt>
      <trkpt lat="47.45977" lon="-2.3283">
        <ele>28.8</ele>
        <time>2020-06-06T09:04:46Z</time>
      </trkpt>
      <trkpt lat="47.45983" lon="-2.32834">
        <ele>28.8</ele>
        <time>2020-06-06T09:04:47Z</time>
      </trkpt>
      <trkpt lat="47.45989" lon="-2.32839">
        <ele>28.8</ele>
        <time>2020-06-06T09:04:48Z</time>
      </trkpt>
      <trkpt lat="47.45993" lon="-2.32843">
        <ele>28.8</ele>
        <time>2020-06-06T09:04:49Z</time>
      </trkpt>
      <trkpt lat="47.45998" lon="-2.32847">
        <ele>28.7</ele>
        <time>2020-06-06T09:04:50Z</time>
      </trkpt>
      <trkpt lat="47.46005" lon="-2.32853">
        <ele>28.7</ele>
        <time>2020-06-06T09:04:51Z</time>
      </trkpt>
      <trkpt lat="47.4601" lon="-2.32857">
        <ele>28.7</ele>
        <time>2020-06-06T09:04:52Z</time>
      </trkpt>
      <trkpt lat="47.46015" lon="-2.32859">
        <ele>28.7</ele>
        <time>2020-06-06T09:04:53Z</time>
      </trkpt>
      <trkpt lat="47.4602" lon="-2.32863">
        <ele>28.7</ele>
        <time>2020-06-06T09:04:54Z</time>
      </trkpt>
      <trkpt lat="47.46025" lon="-2.32866">
        <ele>28.8</ele>
        <time>2020-06-06T09:04:55Z</time>
      </trkpt>
      <trkpt lat="47.4603" lon="-2.3287">
        <ele>28.8</ele>
        <time>2020-06-06T09:04:56Z</time>
      </trkpt>
      <trkpt lat="47.46035" lon="-2.32873">
        <ele>28.8</ele>
        <time>2020-06-06T09:04:57Z</time>
      </trkpt>
      <trkpt lat="47.4604" lon="-2.32876">
        <ele>28.9</ele>
        <time>2020-06-06T09:04:58Z</time>
      </trkpt>
      <trkpt lat="47.46046" lon="-2.3288">
        <ele>28.9</ele>
        <time>2020-06-06T09:04:59Z</time>
      </trkpt>
      <trkpt lat="47.46053" lon="-2.32884">
        <ele>29</ele>
        <time>2020-06-06T09:05:00Z</time>
      </trkpt>
      <trkpt lat="47.4606" lon="-2.32888">
        <ele>29</ele>
        <time>2020-06-06T09:05:01Z</time>
      </trkpt>
      <trkpt lat="47.46065" lon="-2.32891">
        <ele>29.1</ele>
        <time>2020-06-06T09:05:02Z</time>
      </trkpt>
      <trkpt lat="47.46072" lon="-2.32896">
        <ele>29.1</ele>
        <time>2020-06-06T09:05:03Z</time>
      </trkpt>
      <trkpt lat="47.46077" lon="-2.32899">
        <ele>29.2</ele>
        <time>2020-06-06T09:05:04Z</time>
      </trkpt>
      <trkpt lat="47.46082" lon="-2.32902">
        <ele>29.3</ele>
        <time>2020-06-06T09:05:05Z</time>
      </trkpt>
      <trkpt lat="47.46088" lon="-2.32904">
        <ele>29.3</ele>
        <time>2020-06-06T09:05:06Z</time>
      </trkpt>
      <trkpt lat="47.46094" lon="-2.32907">
        <ele>29.4</ele>
        <time>2020-06-06T09:05:07Z</time>
      </trkpt>
      <trkpt lat="47.46099" lon="-2.3291">
        <ele>29.5</ele>
        <time>2020-06-06T09:05:08Z</time>
      </trkpt>
      <trkpt lat="47.46105" lon="-2.32913">
        <ele>29.6</ele>
        <time>2020-06-06T09:05:09Z</time>
      </trkpt>
      <trkpt lat="47.4611" lon="-2.32916">
        <ele>29.6</ele>
        <time>2020-06-06T09:05:10Z</time>
      </trkpt>
      <trkpt lat="47.46116" lon="-2.32919">
        <ele>29.7</ele>
        <time>2020-06-06T09:05:11Z</time>
      </trkpt>
      <trkpt lat="47.46121" lon="-2.32923">
        <ele>29.7</ele>
        <time>2020-06-06T09:05:12Z</time>
      </trkpt>
      <trkpt lat="47.46126" lon="-2.32926">
        <ele>29.7</ele>
        <time>2020-06-06T09:05:13Z</time>
      </trkpt>
      <trkpt lat="47.4613" lon="-2.32928">
        <ele>29.7</ele>
        <time>2020-06-06T09:05:14Z</time>
      </trkpt>
      <trkpt lat="47.46134" lon="-2.32931">
        <ele>29.7</ele>
        <time>2020-06-06T09:05:15Z</time>
      </trkpt>
      <trkpt lat="47.4614" lon="-2.32935">
        <ele>29.7</ele>
        <time>2020-06-06T09:05:16Z</time>
      </trkpt>
      <trkpt lat="47.46146" lon="-2.3294">
        <ele>29.8</ele>
        <time>2020-06-06T09:05:17Z</time>
      </trkpt>
      <trkpt lat="47.46153" lon="-2.32944">
        <ele>29.8</ele>
        <time>2020-06-06T09:05:18Z</time>
      </trkpt>
      <trkpt lat="47.46158" lon="-2.32948">
        <ele>29.8</ele>
        <time>2020-06-06T09:05:19Z</time>
      </trkpt>
      <trkpt lat="47.46162" lon="-2.3295">
        <ele>29.8</ele>
        <time>2020-06-06T09:05:20Z</time>
      </trkpt>
      <trkpt lat="47.46168" lon="-2.32954">
        <ele>29.8</ele>
        <time>2020-06-06T09:05:21Z</time>
      </trkpt>
      <trkpt lat="47.46173" lon="-2.32958">
        <ele>29.9</ele>
        <time>2020-06-06T09:05:22Z</time>
      </trkpt>
      <trkpt lat="47.46179" lon="-2.32963">
        <ele>29.9</ele>
        <time>2020-06-06T09:05:23Z</time>
      </trkpt>
      <trkpt lat="47.46185" lon="-2.32968">
        <ele>30</ele>
        <time>2020-06-06T09:05:24Z</time>
      </trkpt>
      <trkpt lat="47.4619" lon="-2.32971">
        <ele>30</ele>
        <time>2020-06-06T09:05:25Z</time>
      </trkpt>
      <trkpt lat="47.46195" lon="-2.32976">
        <ele>30</ele>
        <time>2020-06-06T09:05:26Z</time>
      </trkpt>
      <trkpt lat="47.462" lon="-2.3298">
        <ele>30</ele>
        <time>2020-06-06T09:05:27Z</time>
      </trkpt>
      <trkpt lat="47.46203" lon="-2.32984">
        <ele>30</ele>
        <time>2020-06-06T09:05:28Z</time>
      </trkpt>
      <trkpt lat="47.46208" lon="-2.32989">
        <ele>30.1</ele>
        <time>2020-06-06T09:05:29Z</time>
      </trkpt>
      <trkpt lat="47.46214" lon="-2.32994">
        <ele>30.1</ele>
        <time>2020-06-06T09:05:30Z</time>
      </trkpt>
      <trkpt lat="47.46219" lon="-2.32998">
        <ele>30.1</ele>
        <time>2020-06-06T09:05:31Z</time>
      </trkpt>
      <trkpt lat="47.46224" lon="-2.33003">
        <ele>30.1</ele>
        <time>2020-06-06T09:05:32Z</time>
      </trkpt>
      <trkpt lat="47.46229" lon="-2.33007">
        <ele>30.1</ele>
        <time>2020-06-06T09:05:33Z</time>
      </trkpt>
      <trkpt lat="47.46235" lon="-2.33012">
        <ele>30.1</ele>
        <time>2020-06-06T09:05:34Z</time>
      </trkpt>
      <trkpt lat="47.46239" lon="-2.33017">
        <ele>30.2</ele>
        <time>2020-06-06T09:05:35Z</time>
      </trkpt>
      <trkpt lat="47.46244" lon="-2.33023">
        <ele>30.2</ele>
        <time>2020-06-06T09:05:36Z</time>
      </trkpt>
      <trkpt lat="47.46249" lon="-2.33028">
        <ele>30.3</ele>
        <time>2020-06-06T09:05:37Z</time>
      </trkpt>
      <trkpt lat="47.46254" lon="-2.33032">
        <ele>30.3</ele>
        <time>2020-06-06T09:05:38Z</time>
      </trkpt>
      <trkpt lat="47.4626" lon="-2.33038">
        <ele>30.4</ele>
        <time>2020-06-06T09:05:39Z</time>
      </trkpt>
      <trkpt lat="47.46265" lon="-2.33043">
        <ele>30.5</ele>
        <time>2020-06-06T09:05:40Z</time>
      </trkpt>
      <trkpt lat="47.4627" lon="-2.33048">
        <ele>30.6</ele>
        <time>2020-06-06T09:05:41Z</time>
      </trkpt>
      <trkpt lat="47.46274" lon="-2.33053">
        <ele>30.7</ele>
        <time>2020-06-06T09:05:42Z</time>
      </trkpt>
      <trkpt lat="47.46279" lon="-2.33058">
        <ele>30.8</ele>
        <time>2020-06-06T09:05:43Z</time>
      </trkpt>
      <trkpt lat="47.46284" lon="-2.33063">
        <ele>30.9</ele>
        <time>2020-06-06T09:05:44Z</time>
      </trkpt>
      <trkpt lat="47.46289" lon="-2.33068">
        <ele>31</ele>
        <time>2020-06-06T09:05:45Z</time>
      </trkpt>
      <trkpt lat="47.46295" lon="-2.33073">
        <ele>31.1</ele>
        <time>2020-06-06T09:05:46Z</time>
      </trkpt>
      <trkpt lat="47.46301" lon="-2.33078">
        <ele>31.3</ele>
        <time>2020-06-06T09:05:47Z</time>
      </trkpt>
      <trkpt lat="47.46305" lon="-2.33084">
        <ele>31.4</ele>
        <time>2020-06-06T09:05:48Z</time>
      </trkpt>
      <trkpt lat="47.46311" lon="-2.33089">
        <ele>31.6</ele>
        <time>2020-06-06T09:05:49Z</time>
      </trkpt>
      <trkpt lat="47.46317" lon="-2.33094">
        <ele>31.8</ele>
        <time>2020-06-06T09:05:50Z</time>
      </trkpt>
      <trkpt lat="47.46321" lon="-2.33097">
        <ele>31.9</ele>
        <time>2020-06-06T09:05:51Z</time>
      </trkpt>
      <trkpt lat="47.46325" lon="-2.33101">
        <ele>32</ele>
        <time>2020-06-06T09:05:52Z</time>
      </trkpt>
      <trkpt lat="47.46329" lon="-2.33106">
        <ele>32.2</ele>
        <time>2020-06-06T09:05:53Z</time>
      </trkpt>
      <trkpt lat="47.46333" lon="-2.3311">
        <ele>32.3</ele>
        <time>2020-06-06T09:05:54Z</time>
      </trkpt>
      <trkpt lat="47.46338" lon="-2.33113">
        <ele>32.4</ele>
        <time>2020-06-06T09:05:55Z</time>
      </trkpt>
      <trkpt lat="47.46343" lon="-2.33118">
        <ele>32.6</ele>
        <time>2020-06-06T09:05:56Z</time>
      </trkpt>
      <trkpt lat="47.46347" lon="-2.33121">
        <ele>32.7</ele>
        <time>2020-06-06T09:05:57Z</time>
      </trkpt>
      <trkpt lat="47.46352" lon="-2.33123">
        <ele>32.8</ele>
        <time>2020-06-06T09:05:58Z</time>
      </trkpt>
      <trkpt lat="47.46355" lon="-2.33125">
        <ele>32.9</ele>
        <time>2020-06-06T09:05:59Z</time>
      </trkpt>
      <trkpt lat="47.46359" lon="-2.33128">
        <ele>33.1</ele>
        <time>2020-06-06T09:06:00Z</time>
      </trkpt>
      <trkpt lat="47.46363" lon="-2.3313">
        <ele>33.2</ele>
        <time>2020-06-06T09:06:01Z</time>
      </trkpt>
      <trkpt lat="47.46368" lon="-2.33132">
        <ele>33.4</ele>
        <time>2020-06-06T09:06:02Z</time>
      </trkpt>
      <trkpt lat="47.46373" lon="-2.33134">
        <ele>33.5</ele>
        <time>2020-06-06T09:06:03Z</time>
      </trkpt>
      <trkpt lat="47.46379" lon="-2.33137">
        <ele>33.8</ele>
        <time>2020-06-06T09:06:04Z</time>
      </trkpt>
      <trkpt lat="47.46385" lon="-2.33139">
        <ele>34</ele>
        <time>2020-06-06T09:06:05Z</time>
      </trkpt>
      <trkpt lat="47.4639" lon="-2.33142">
        <ele>34.1</ele>
        <time>2020-06-06T09:06:06Z</time>
      </trkpt>
      <trkpt lat="47.46395" lon="-2.33145">
        <ele>34.3</ele>
        <time>2020-06-06T09:06:07Z</time>
      </trkpt>
      <trkpt lat="47.46399" lon="-2.33147">
        <ele>34.5</ele>
        <time>2020-06-06T09:06:08Z</time>
      </trkpt>
      <trkpt lat="47.46403" lon="-2.33149">
        <ele>34.6</ele>
        <time>2020-06-06T09:06:09Z</time>
      </trkpt>
      <trkpt lat="47.46407" lon="-2.33151">
        <ele>34.7</ele>
        <time>2020-06-06T09:06:10Z</time>
      </trkpt>
      <trkpt lat="47.46412" lon="-2.33153">
        <ele>34.8</ele>
        <time>2020-06-06T09:06:11Z</time>
      </trkpt>
      <trkpt lat="47.46418" lon="-2.33154">
        <ele>35</ele>
        <time>2020-06-06T09:06:12Z</time>
      </trkpt>
      <trkpt lat="47.46423" lon="-2.33157">
        <ele>35</ele>
        <time>2020-06-06T09:06:13Z</time>
      </trkpt>
      <trkpt lat="47.46428" lon="-2.33159">
        <ele>35</ele>
        <time>2020-06-06T09:06:14Z</time>
      </trkpt>
      <trkpt lat="47.46433" lon="-2.33162">
        <ele>35.1</ele>
        <time>2020-06-06T09:06:15Z</time>
      </trkpt>
      <trkpt lat="47.46438" lon="-2.33164">
        <ele>35.1</ele>
        <time>2020-06-06T09:06:16Z</time>
      </trkpt>
      <trkpt lat="47.46444" lon="-2.33167">
        <ele>35.1</ele>
        <time>2020-06-06T09:06:17Z</time>
      </trkpt>
      <trkpt lat="47.46448" lon="-2.3317">
        <ele>35.1</ele>
        <time>2020-06-06T09:06:18Z</time>
      </trkpt>
      <trkpt lat="47.46454" lon="-2.33173">
        <ele>35.2</ele>
        <time>2020-06-06T09:06:19Z</time>
      </trkpt>
      <trkpt lat="47.46459" lon="-2.33175">
        <ele>35.2</ele>
        <time>2020-06-06T09:06:20Z</time>
      </trkpt>
      <trkpt lat="47.46464" lon="-2.33178">
        <ele>35.2</ele>
        <time>2020-06-06T09:06:21Z</time>
      </trkpt>
      <trkpt lat="47.46469" lon="-2.3318">
        <ele>35.2</ele>
        <time>2020-06-06T09:06:22Z</time>
      </trkpt>
      <trkpt lat="47.46474" lon="-2.33183">
        <ele>35.1</ele>
        <time>2020-06-06T09:06:23Z</time>
      </trkpt>
      <trkpt lat="47.46479" lon="-2.33186">
        <ele>35.1</ele>
        <time>2020-06-06T09:06:24Z</time>
      </trkpt>
      <trkpt lat="47.46484" lon="-2.33188">
        <ele>35</ele>
        <time>2020-06-06T09:06:25Z</time>
      </trkpt>
      <trkpt lat="47.4649" lon="-2.33191">
        <ele>35</ele>
        <time>2020-06-06T09:06:26Z</time>
      </trkpt>
      <trkpt lat="47.46495" lon="-2.33194">
        <ele>35</ele>
        <time>2020-06-06T09:06:27Z</time>
      </trkpt>
      <trkpt lat="47.465" lon="-2.33197">
        <ele>34.9</ele>
        <time>2020-06-06T09:06:28Z</time>
      </trkpt>
      <trkpt lat="47.46506" lon="-2.33201">
        <ele>34.8</ele>
        <time>2020-06-06T09:06:29Z</time>
      </trkpt>
      <trkpt lat="47.46511" lon="-2.33204">
        <ele>34.8</ele>
        <time>2020-06-06T09:06:30Z</time>
      </trkpt>
      <trkpt lat="47.46517" lon="-2.33208">
        <ele>34.7</ele>
        <time>2020-06-06T09:06:31Z</time>
      </trkpt>
      <trkpt lat="47.46523" lon="-2.33212">
        <ele>34.6</ele>
        <time>2020-06-06T09:06:32Z</time>
      </trkpt>
      <trkpt lat="47.46529" lon="-2.33215">
        <ele>34.5</ele>
        <time>2020-06-06T09:06:33Z</time>
      </trkpt>
      <trkpt lat="47.46536" lon="-2.33218">
        <ele>34.3</ele>
        <time>2020-06-06T09:06:34Z</time>
      </trkpt>
      <trkpt lat="47.46541" lon="-2.33221">
        <ele>34.2</ele>
        <time>2020-06-06T09:06:35Z</time>
      </trkpt>
      <trkpt lat="47.46548" lon="-2.33225">
        <ele>34.1</ele>
        <time>2020-06-06T09:06:36Z</time>
      </trkpt>
      <trkpt lat="47.46554" lon="-2.33228">
        <ele>34</ele>
        <time>2020-06-06T09:06:37Z</time>
      </trkpt>
      <trkpt lat="47.46561" lon="-2.33232">
        <ele>33.8</ele>
        <time>2020-06-06T09:06:38Z</time>
      </trkpt>
      <trkpt lat="47.46568" lon="-2.33235">
        <ele>33.6</ele>
        <time>2020-06-06T09:06:39Z</time>
      </trkpt>
      <trkpt lat="47.46575" lon="-2.33239">
        <ele>33.4</ele>
        <time>2020-06-06T09:06:40Z</time>
      </trkpt>
      <trkpt lat="47.46582" lon="-2.33243">
        <ele>33.2</ele>
        <time>2020-06-06T09:06:41Z</time>
      </trkpt>
      <trkpt lat="47.46589" lon="-2.33247">
        <ele>33.2</ele>
        <time>2020-06-06T09:06:42Z</time>
      </trkpt>
      <trkpt lat="47.46595" lon="-2.33252">
        <ele>33.2</ele>
        <time>2020-06-06T09:06:43Z</time>
      </trkpt>
      <trkpt lat="47.46601" lon="-2.33256">
        <ele>33.2</ele>
        <time>2020-06-06T09:06:44Z</time>
      </trkpt>
      <trkpt lat="47.46608" lon="-2.33262">
        <ele>33.2</ele>
        <time>2020-06-06T09:06:45Z</time>
      </trkpt>
      <trkpt lat="47.46614" lon="-2.33266">
        <ele>33.3</ele>
        <time>2020-06-06T09:06:46Z</time>
      </trkpt>
      <trkpt lat="47.46619" lon="-2.33271">
        <ele>33.3</ele>
        <time>2020-06-06T09:06:47Z</time>
      </trkpt>
      <trkpt lat="47.46625" lon="-2.33276">
        <ele>33.4</ele>
        <time>2020-06-06T09:06:48Z</time>
      </trkpt>
      <trkpt lat="47.46631" lon="-2.33281">
        <ele>33.5</ele>
        <time>2020-06-06T09:06:49Z</time>
      </trkpt>
      <trkpt lat="47.46636" lon="-2.33287">
        <ele>33.6</ele>
        <time>2020-06-06T09:06:50Z</time>
      </trkpt>
      <trkpt lat="47.46641" lon="-2.33292">
        <ele>33.7</ele>
        <time>2020-06-06T09:06:51Z</time>
      </trkpt>
      <trkpt lat="47.46646" lon="-2.33297">
        <ele>33.8</ele>
        <time>2020-06-06T09:06:52Z</time>
      </trkpt>
      <trkpt lat="47.46651" lon="-2.33303">
        <ele>33.8</ele>
        <time>2020-06-06T09:06:53Z</time>
      </trkpt>
      <trkpt lat="47.46655" lon="-2.33309">
        <ele>33.9</ele>
        <time>2020-06-06T09:06:54Z</time>
      </trkpt>
      <trkpt lat="47.46661" lon="-2.33313">
        <ele>34</ele>
        <time>2020-06-06T09:06:55Z</time>
      </trkpt>
      <trkpt lat="47.46667" lon="-2.33317">
        <ele>34</ele>
        <time>2020-06-06T09:06:56Z</time>
      </trkpt>
      <trkpt lat="47.46672" lon="-2.33321">
        <ele>34.1</ele>
        <time>2020-06-06T09:06:57Z</time>
      </trkpt>
      <trkpt lat="47.46677" lon="-2.33325">
        <ele>34.2</ele>
        <time>2020-06-06T09:06:58Z</time>
      </trkpt>
      <trkpt lat="47.46683" lon="-2.33329">
        <ele>34.3</ele>
        <time>2020-06-06T09:06:59Z</time>
      </trkpt>
      <trkpt lat="47.46689" lon="-2.33333">
        <ele>34.4</ele>
        <time>2020-06-06T09:07:00Z</time>
      </trkpt>
      <trkpt lat="47.46693" lon="-2.33338">
        <ele>34.5</ele>
        <time>2020-06-06T09:07:01Z</time>
      </trkpt>
      <trkpt lat="47.46698" lon="-2.33343">
        <ele>34.6</ele>
        <time>2020-06-06T09:07:02Z</time>
      </trkpt>
      <trkpt lat="47.46702" lon="-2.33346">
        <ele>34.7</ele>
        <time>2020-06-06T09:07:03Z</time>
      </trkpt>
      <trkpt lat="47.46707" lon="-2.3335">
        <ele>34.8</ele>
        <time>2020-06-06T09:07:04Z</time>
      </trkpt>
      <trkpt lat="47.46713" lon="-2.33354">
        <ele>34.9</ele>
        <time>2020-06-06T09:07:05Z</time>
      </trkpt>
      <trkpt lat="47.46718" lon="-2.33357">
        <ele>35</ele>
        <time>2020-06-06T09:07:06Z</time>
      </trkpt>
      <trkpt lat="47.46723" lon="-2.33359">
        <ele>35.1</ele>
        <time>2020-06-06T09:07:07Z</time>
      </trkpt>
      <trkpt lat="47.46727" lon="-2.33362">
        <ele>35.2</ele>
        <time>2020-06-06T09:07:08Z</time>
      </trkpt>
      <trkpt lat="47.46732" lon="-2.33365">
        <ele>35.2</ele>
        <time>2020-06-06T09:07:09Z</time>
      </trkpt>
      <trkpt lat="47.46737" lon="-2.33368">
        <ele>35.3</ele>
        <time>2020-06-06T09:07:10Z</time>
      </trkpt>
      <trkpt lat="47.46742" lon="-2.33371">
        <ele>35.4</ele>
        <time>2020-06-06T09:07:11Z</time>
      </trkpt>
      <trkpt lat="47.46747" lon="-2.33372">
        <ele>35.5</ele>
        <time>2020-06-06T09:07:12Z</time>
      </trkpt>
      <trkpt lat="47.46752" lon="-2.33374">
        <ele>35.6</ele>
        <time>2020-06-06T09:07:13Z</time>
      </trkpt>
      <trkpt lat="47.46758" lon="-2.33375">
        <ele>35.7</ele>
        <time>2020-06-06T09:07:14Z</time>
      </trkpt>
      <trkpt lat="47.46763" lon="-2.33376">
        <ele>35.8</ele>
        <time>2020-06-06T09:07:15Z</time>
      </trkpt>
      <trkpt lat="47.46769" lon="-2.33377">
        <ele>35.9</ele>
        <time>2020-06-06T09:07:16Z</time>
      </trkpt>
      <trkpt lat="47.46775" lon="-2.33379">
        <ele>36</ele>
        <time>2020-06-06T09:07:17Z</time>
      </trkpt>
      <trkpt lat="47.46781" lon="-2.33381">
        <ele>36.1</ele>
        <time>2020-06-06T09:07:18Z</time>
      </trkpt>
      <trkpt lat="47.46787" lon="-2.33383">
        <ele>36.2</ele>
        <time>2020-06-06T09:07:19Z</time>
      </trkpt>
      <trkpt lat="47.46793" lon="-2.33386">
        <ele>36.3</ele>
        <time>2020-06-06T09:07:20Z</time>
      </trkpt>
      <trkpt lat="47.46799" lon="-2.33387">
        <ele>36.4</ele>
        <time>2020-06-06T09:07:21Z</time>
      </trkpt>
      <trkpt lat="47.46804" lon="-2.33389">
        <ele>36.5</ele>
        <time>2020-06-06T09:07:22Z</time>
      </trkpt>
      <trkpt lat="47.4681" lon="-2.3339">
        <ele>36.6</ele>
        <time>2020-06-06T09:07:23Z</time>
      </trkpt>
      <trkpt lat="47.46816" lon="-2.33393">
        <ele>36.7</ele>
        <time>2020-06-06T09:07:24Z</time>
      </trkpt>
      <trkpt lat="47.46821" lon="-2.33396">
        <ele>36.8</ele>
        <time>2020-06-06T09:07:25Z</time>
      </trkpt>
      <trkpt lat="47.46827" lon="-2.33397">
        <ele>36.9</ele>
        <time>2020-06-06T09:07:26Z</time>
      </trkpt>
      <trkpt lat="47.46832" lon="-2.334">
        <ele>37</ele>
        <time>2020-06-06T09:07:27Z</time>
      </trkpt>
      <trkpt lat="47.46838" lon="-2.33402">
        <ele>37.1</ele>
        <time>2020-06-06T09:07:28Z</time>
      </trkpt>
      <trkpt lat="47.46843" lon="-2.33403">
        <ele>37.1</ele>
        <time>2020-06-06T09:07:29Z</time>
      </trkpt>
      <trkpt lat="47.46849" lon="-2.33406">
        <ele>37.2</ele>
        <time>2020-06-06T09:07:30Z</time>
      </trkpt>
      <trkpt lat="47.46855" lon="-2.33408">
        <ele>37.2</ele>
        <time>2020-06-06T09:07:31Z</time>
      </trkpt>
      <trkpt lat="47.46861" lon="-2.33411">
        <ele>37.1</ele>
        <time>2020-06-06T09:07:32Z</time>
      </trkpt>
      <trkpt lat="47.46866" lon="-2.33413">
        <ele>37.1</ele>
        <time>2020-06-06T09:07:33Z</time>
      </trkpt>
      <trkpt lat="47.46871" lon="-2.33415">
        <ele>37.1</ele>
        <time>2020-06-06T09:07:34Z</time>
      </trkpt>
      <trkpt lat="47.46877" lon="-2.33417">
        <ele>37</ele>
        <time>2020-06-06T09:07:35Z</time>
      </trkpt>
      <trkpt lat="47.46883" lon="-2.33419">
        <ele>37</ele>
        <time>2020-06-06T09:07:36Z</time>
      </trkpt>
      <trkpt lat="47.4689" lon="-2.33421">
        <ele>36.9</ele>
        <time>2020-06-06T09:07:37Z</time>
      </trkpt>
      <trkpt lat="47.46896" lon="-2.33423">
        <ele>36.8</ele>
        <time>2020-06-06T09:07:38Z</time>
      </trkpt>
      <trkpt lat="47.46903" lon="-2.33426">
        <ele>36.7</ele>
        <time>2020-06-06T09:07:39Z</time>
      </trkpt>
      <trkpt lat="47.46909" lon="-2.33429">
        <ele>36.6</ele>
        <time>2020-06-06T09:07:40Z</time>
      </trkpt>
      <trkpt lat="47.46915" lon="-2.33432">
        <ele>36.6</ele>
        <time>2020-06-06T09:07:41Z</time>
      </trkpt>
      <trkpt lat="47.46922" lon="-2.33435">
        <ele>36.5</ele>
        <time>2020-06-06T09:07:42Z</time>
      </trkpt>
      <trkpt lat="47.46929" lon="-2.33437">
        <ele>36.4</ele>
        <time>2020-06-06T09:07:43Z</time>
      </trkpt>
      <trkpt lat="47.46936" lon="-2.33439">
        <ele>36.3</ele>
        <time>2020-06-06T09:07:44Z</time>
      </trkpt>
      <trkpt lat="47.46942" lon="-2.33442">
        <ele>36.2</ele>
        <time>2020-06-06T09:07:45Z</time>
      </trkpt>
      <trkpt lat="47.46949" lon="-2.33446">
        <ele>36</ele>
        <time>2020-06-06T09:07:46Z</time>
      </trkpt>
      <trkpt lat="47.46956" lon="-2.33448">
        <ele>35.9</ele>
        <time>2020-06-06T09:07:47Z</time>
      </trkpt>
      <trkpt lat="47.46963" lon="-2.3345">
        <ele>35.8</ele>
        <time>2020-06-06T09:07:48Z</time>
      </trkpt>
      <trkpt lat="47.4697" lon="-2.33453">
        <ele>35.6</ele>
        <time>2020-06-06T09:07:49Z</time>
      </trkpt>
      <trkpt lat="47.46976" lon="-2.33455">
        <ele>35.4</ele>
        <time>2020-06-06T09:07:50Z</time>
      </trkpt>
      <trkpt lat="47.46984" lon="-2.33458">
        <ele>35.2</ele>
        <time>2020-06-06T09:07:51Z</time>
      </trkpt>
      <trkpt lat="47.46991" lon="-2.3346">
        <ele>35.1</ele>
        <time>2020-06-06T09:07:52Z</time>
      </trkpt>
      <trkpt lat="47.46998" lon="-2.33462">
        <ele>34.9</ele>
        <time>2020-06-06T09:07:53Z</time>
      </trkpt>
      <trkpt lat="47.47006" lon="-2.33464">
        <ele>34.8</ele>
        <time>2020-06-06T09:07:54Z</time>
      </trkpt>
      <trkpt lat="47.47014" lon="-2.33467">
        <ele>34.6</ele>
        <time>2020-06-06T09:07:55Z</time>
      </trkpt>
      <trkpt lat="47.4702" lon="-2.33471">
        <ele>34.5</ele>
        <time>2020-06-06T09:07:56Z</time>
      </trkpt>
      <trkpt lat="47.47026" lon="-2.33475">
        <ele>34.3</ele>
        <time>2020-06-06T09:07:57Z</time>
      </trkpt>
      <trkpt lat="47.47033" lon="-2.3348">
        <ele>34.1</ele>
        <time>2020-06-06T09:07:58Z</time>
      </trkpt>
      <trkpt lat="47.4704" lon="-2.33485">
        <ele>33.9</ele>
        <time>2020-06-06T09:07:59Z</time>
      </trkpt>
      <trkpt lat="47.47047" lon="-2.3349">
        <ele>33.7</ele>
        <time>2020-06-06T09:08:00Z</time>
      </trkpt>
      <trkpt lat="47.47053" lon="-2.33495">
        <ele>33.5</ele>
        <time>2020-06-06T09:08:01Z</time>
      </trkpt>
      <trkpt lat="47.4706" lon="-2.335">
        <ele>33.2</ele>
        <time>2020-06-06T09:08:02Z</time>
      </trkpt>
      <trkpt lat="47.47067" lon="-2.33504">
        <ele>33</ele>
        <time>2020-06-06T09:08:03Z</time>
      </trkpt>
      <trkpt lat="47.47075" lon="-2.33507">
        <ele>32.8</ele>
        <time>2020-06-06T09:08:04Z</time>
      </trkpt>
      <trkpt lat="47.47084" lon="-2.33509">
        <ele>32.7</ele>
        <time>2020-06-06T09:08:05Z</time>
      </trkpt>
      <trkpt lat="47.47092" lon="-2.33509">
        <ele>32.5</ele>
        <time>2020-06-06T09:08:06Z</time>
      </trkpt>
      <trkpt lat="47.471" lon="-2.33509">
        <ele>32.5</ele>
        <time>2020-06-06T09:08:07Z</time>
      </trkpt>
      <trkpt lat="47.47108" lon="-2.3351">
        <ele>32.4</ele>
        <time>2020-06-06T09:08:08Z</time>
      </trkpt>
      <trkpt lat="47.47116" lon="-2.33508">
        <ele>32.4</ele>
        <time>2020-06-06T09:08:09Z</time>
      </trkpt>
      <trkpt lat="47.47124" lon="-2.33504">
        <ele>32.4</ele>
        <time>2020-06-06T09:08:10Z</time>
      </trkpt>
      <trkpt lat="47.47131" lon="-2.335">
        <ele>32.4</ele>
        <time>2020-06-06T09:08:11Z</time>
      </trkpt>
      <trkpt lat="47.47139" lon="-2.33497">
        <ele>32.5</ele>
        <time>2020-06-06T09:08:12Z</time>
      </trkpt>
      <trkpt lat="47.47146" lon="-2.33493">
        <ele>32.6</ele>
        <time>2020-06-06T09:08:13Z</time>
      </trkpt>
      <trkpt lat="47.47153" lon="-2.3349">
        <ele>32.8</ele>
        <time>2020-06-06T09:08:14Z</time>
      </trkpt>
      <trkpt lat="47.47159" lon="-2.33485">
        <ele>33</ele>
        <time>2020-06-06T09:08:15Z</time>
      </trkpt>
      <trkpt lat="47.47166" lon="-2.33481">
        <ele>33.3</ele>
        <time>2020-06-06T09:08:16Z</time>
      </trkpt>
      <trkpt lat="47.47172" lon="-2.33477">
        <ele>33.5</ele>
        <time>2020-06-06T09:08:17Z</time>
      </trkpt>
      <trkpt lat="47.47178" lon="-2.33473">
        <ele>33.7</ele>
        <time>2020-06-06T09:08:18Z</time>
      </trkpt>
      <trkpt lat="47.47184" lon="-2.3347">
        <ele>33.9</ele>
        <time>2020-06-06T09:08:19Z</time>
      </trkpt>
      <trkpt lat="47.4719" lon="-2.33466">
        <ele>34.2</ele>
        <time>2020-06-06T09:08:20Z</time>
      </trkpt>
      <trkpt lat="47.47196" lon="-2.33463">
        <ele>34.4</ele>
        <time>2020-06-06T09:08:21Z</time>
      </trkpt>
      <trkpt lat="47.47202" lon="-2.33459">
        <ele>34.6</ele>
        <time>2020-06-06T09:08:22Z</time>
      </trkpt>
      <trkpt lat="47.47208" lon="-2.33456">
        <ele>34.8</ele>
        <time>2020-06-06T09:08:23Z</time>
      </trkpt>
      <trkpt lat="47.47214" lon="-2.33453">
        <ele>35</ele>
        <time>2020-06-06T09:08:24Z</time>
      </trkpt>
      <trkpt lat="47.4722" lon="-2.33449">
        <ele>35.2</ele>
        <time>2020-06-06T09:08:25Z</time>
      </trkpt>
      <trkpt lat="47.47226" lon="-2.33445">
        <ele>35.4</ele>
        <time>2020-06-06T09:08:26Z</time>
      </trkpt>
      <trkpt lat="47.47232" lon="-2.33441">
        <ele>35.5</ele>
        <time>2020-06-06T09:08:27Z</time>
      </trkpt>
      <trkpt lat="47.47238" lon="-2.33438">
        <ele>35.7</ele>
        <time>2020-06-06T09:08:28Z</time>
      </trkpt>
      <trkpt lat="47.47244" lon="-2.33435">
        <ele>35.8</ele>
        <time>2020-06-06T09:08:29Z</time>
      </trkpt>
      <trkpt lat="47.47251" lon="-2.33433">
        <ele>35.9</ele>
        <time>2020-06-06T09:08:30Z</time>
      </trkpt>
      <trkpt lat="47.47257" lon="-2.33431">
        <ele>36.1</ele>
        <time>2020-06-06T09:08:31Z</time>
      </trkpt>
      <trkpt lat="47.47263" lon="-2.33429">
        <ele>36.3</ele>
        <time>2020-06-06T09:08:32Z</time>
      </trkpt>
      <trkpt lat="47.47269" lon="-2.33428">
        <ele>36.5</ele>
        <time>2020-06-06T09:08:33Z</time>
      </trkpt>
      <trkpt lat="47.47275" lon="-2.33426">
        <ele>36.6</ele>
        <time>2020-06-06T09:08:34Z</time>
      </trkpt>
      <trkpt lat="47.47281" lon="-2.33425">
        <ele>36.6</ele>
        <time>2020-06-06T09:08:35Z</time>
      </trkpt>
      <trkpt lat="47.47287" lon="-2.33425">
        <ele>36.7</ele>
        <time>2020-06-06T09:08:36Z</time>
      </trkpt>
      <trkpt lat="47.47292" lon="-2.33425">
        <ele>36.7</ele>
        <time>2020-06-06T09:08:37Z</time>
      </trkpt>
      <trkpt lat="47.47298" lon="-2.33426">
        <ele>36.8</ele>
        <time>2020-06-06T09:08:38Z</time>
      </trkpt>
      <trkpt lat="47.47304" lon="-2.33427">
        <ele>36.8</ele>
        <time>2020-06-06T09:08:39Z</time>
      </trkpt>
      <trkpt lat="47.4731" lon="-2.33427">
        <ele>36.8</ele>
        <time>2020-06-06T09:08:40Z</time>
      </trkpt>
      <trkpt lat="47.47317" lon="-2.33427">
        <ele>36.7</ele>
        <time>2020-06-06T09:08:41Z</time>
      </trkpt>
      <trkpt lat="47.47323" lon="-2.33427">
        <ele>36.7</ele>
        <time>2020-06-06T09:08:42Z</time>
      </trkpt>
      <trkpt lat="47.47329" lon="-2.33427">
        <ele>36.7</ele>
        <time>2020-06-06T09:08:43Z</time>
      </trkpt>
      <trkpt lat="47.47335" lon="-2.33428">
        <ele>36.7</ele>
        <time>2020-06-06T09:08:44Z</time>
      </trkpt>
      <trkpt lat="47.47341" lon="-2.33429">
        <ele>36.7</ele>
        <time>2020-06-06T09:08:45Z</time>
      </trkpt>
      <trkpt lat="47.47347" lon="-2.33431">
        <ele>36.7</ele>
        <time>2020-06-06T09:08:46Z</time>
      </trkpt>
      <trkpt lat="47.47352" lon="-2.33432">
        <ele>36.7</ele>
        <time>2020-06-06T09:08:47Z</time>
      </trkpt>
      <trkpt lat="47.47358" lon="-2.33434">
        <ele>36.7</ele>
        <time>2020-06-06T09:08:48Z</time>
      </trkpt>
      <trkpt lat="47.47364" lon="-2.33437">
        <ele>36.8</ele>
        <time>2020-06-06T09:08:49Z</time>
      </trkpt>
      <trkpt lat="47.4737" lon="-2.33438">
        <ele>36.8</ele>
        <time>2020-06-06T09:08:50Z</time>
      </trkpt>
      <trkpt lat="47.47376" lon="-2.3344">
        <ele>36.8</ele>
        <time>2020-06-06T09:08:51Z</time>
      </trkpt>
      <trkpt lat="47.47382" lon="-2.33443">
        <ele>36.8</ele>
        <time>2020-06-06T09:08:52Z</time>
      </trkpt>
      <trkpt lat="47.47388" lon="-2.33446">
        <ele>36.8</ele>
        <time>2020-06-06T09:08:53Z</time>
      </trkpt>
      <trkpt lat="47.47393" lon="-2.3345">
        <ele>36.8</ele>
        <time>2020-06-06T09:08:54Z</time>
      </trkpt>
      <trkpt lat="47.47399" lon="-2.33453">
        <ele>36.8</ele>
        <time>2020-06-06T09:08:55Z</time>
      </trkpt>
      <trkpt lat="47.47404" lon="-2.33457">
        <ele>36.8</ele>
        <time>2020-06-06T09:08:56Z</time>
      </trkpt>
      <trkpt lat="47.4741" lon="-2.3346">
        <ele>36.7</ele>
        <time>2020-06-06T09:08:57Z</time>
      </trkpt>
      <trkpt lat="47.47416" lon="-2.33464">
        <ele>36.7</ele>
        <time>2020-06-06T09:08:58Z</time>
      </trkpt>
      <trkpt lat="47.47421" lon="-2.33467">
        <ele>36.6</ele>
        <time>2020-06-06T09:08:59Z</time>
      </trkpt>
      <trkpt lat="47.47428" lon="-2.33471">
        <ele>36.5</ele>
        <time>2020-06-06T09:09:00Z</time>
      </trkpt>
      <trkpt lat="47.47434" lon="-2.33475">
        <ele>36.3</ele>
        <time>2020-06-06T09:09:01Z</time>
      </trkpt>
      <trkpt lat="47.47441" lon="-2.33479">
        <ele>36.2</ele>
        <time>2020-06-06T09:09:02Z</time>
      </trkpt>
      <trkpt lat="47.47448" lon="-2.33482">
        <ele>35.9</ele>
        <time>2020-06-06T09:09:03Z</time>
      </trkpt>
      <trkpt lat="47.47456" lon="-2.33485">
        <ele>35.7</ele>
        <time>2020-06-06T09:09:04Z</time>
      </trkpt>
      <trkpt lat="47.47463" lon="-2.33489">
        <ele>35.5</ele>
        <time>2020-06-06T09:09:05Z</time>
      </trkpt>
      <trkpt lat="47.4747" lon="-2.33492">
        <ele>35.2</ele>
        <time>2020-06-06T09:09:06Z</time>
      </trkpt>
      <trkpt lat="47.47478" lon="-2.33496">
        <ele>34.9</ele>
        <time>2020-06-06T09:09:07Z</time>
      </trkpt>
      <trkpt lat="47.47486" lon="-2.33499">
        <ele>34.6</ele>
        <time>2020-06-06T09:09:08Z</time>
      </trkpt>
      <trkpt lat="47.47493" lon="-2.33503">
        <ele>34.3</ele>
        <time>2020-06-06T09:09:09Z</time>
      </trkpt>
      <trkpt lat="47.47501" lon="-2.33506">
        <ele>34</ele>
        <time>2020-06-06T09:09:10Z</time>
      </trkpt>
      <trkpt lat="47.47509" lon="-2.33509">
        <ele>33.8</ele>
        <time>2020-06-06T09:09:11Z</time>
      </trkpt>
      <trkpt lat="47.47517" lon="-2.33513">
        <ele>33.6</ele>
        <time>2020-06-06T09:09:12Z</time>
      </trkpt>
      <trkpt lat="47.47525" lon="-2.33517">
        <ele>33.4</ele>
        <time>2020-06-06T09:09:13Z</time>
      </trkpt>
      <trkpt lat="47.47532" lon="-2.3352">
        <ele>33.3</ele>
        <time>2020-06-06T09:09:14Z</time>
      </trkpt>
      <trkpt lat="47.4754" lon="-2.33524">
        <ele>33.2</ele>
        <time>2020-06-06T09:09:15Z</time>
      </trkpt>
      <trkpt lat="47.47548" lon="-2.33527">
        <ele>33</ele>
        <time>2020-06-06T09:09:16Z</time>
      </trkpt>
      <trkpt lat="47.47555" lon="-2.3353">
        <ele>32.9</ele>
        <time>2020-06-06T09:09:17Z</time>
      </trkpt>
      <trkpt lat="47.47562" lon="-2.33532">
        <ele>32.8</ele>
        <time>2020-06-06T09:09:18Z</time>
      </trkpt>
      <trkpt lat="47.47569" lon="-2.33535">
        <ele>32.8</ele>
        <time>2020-06-06T09:09:19Z</time>
      </trkpt>
      <trkpt lat="47.47576" lon="-2.33537">
        <ele>32.8</ele>
        <time>2020-06-06T09:09:20Z</time>
      </trkpt>
      <trkpt lat="47.47582" lon="-2.33539">
        <ele>32.9</ele>
        <time>2020-06-06T09:09:21Z</time>
      </trkpt>
      <trkpt lat="47.47588" lon="-2.33542">
        <ele>33</ele>
        <time>2020-06-06T09:09:22Z</time>
      </trkpt>
      <trkpt lat="47.47594" lon="-2.33545">
        <ele>33.2</ele>
        <time>2020-06-06T09:09:23Z</time>
      </trkpt>
      <trkpt lat="47.476" lon="-2.33547">
        <ele>33.3</ele>
        <time>2020-06-06T09:09:24Z</time>
      </trkpt>
      <trkpt lat="47.47606" lon="-2.33551">
        <ele>33.5</ele>
        <time>2020-06-06T09:09:25Z</time>
      </trkpt>
      <trkpt lat="47.47612" lon="-2.33555">
        <ele>33.7</ele>
        <time>2020-06-06T09:09:26Z</time>
      </trkpt>
      <trkpt lat="47.47617" lon="-2.3356">
        <ele>33.8</ele>
        <time>2020-06-06T09:09:27Z</time>
      </trkpt>
      <trkpt lat="47.47623" lon="-2.33563">
        <ele>34</ele>
        <time>2020-06-06T09:09:28Z</time>
      </trkpt>
      <trkpt lat="47.47629" lon="-2.33568">
        <ele>34.2</ele>
        <time>2020-06-06T09:09:29Z</time>
      </trkpt>
      <trkpt lat="47.47634" lon="-2.33573">
        <ele>34.4</ele>
        <time>2020-06-06T09:09:30Z</time>
      </trkpt>
      <trkpt lat="47.4764" lon="-2.33577">
        <ele>34.5</ele>
        <time>2020-06-06T09:09:31Z</time>
      </trkpt>
      <trkpt lat="47.47645" lon="-2.33582">
        <ele>34.7</ele>
        <time>2020-06-06T09:09:32Z</time>
      </trkpt>
      <trkpt lat="47.47651" lon="-2.33587">
        <ele>34.9</ele>
        <time>2020-06-06T09:09:33Z</time>
      </trkpt>
      <trkpt lat="47.47656" lon="-2.33592">
        <ele>35</ele>
        <time>2020-06-06T09:09:34Z</time>
      </trkpt>
      <trkpt lat="47.47661" lon="-2.33596">
        <ele>35.1</ele>
        <time>2020-06-06T09:09:35Z</time>
      </trkpt>
      <trkpt lat="47.47667" lon="-2.336">
        <ele>35.1</ele>
        <time>2020-06-06T09:09:36Z</time>
      </trkpt>
      <trkpt lat="47.47672" lon="-2.33604">
        <ele>35.2</ele>
        <time>2020-06-06T09:09:37Z</time>
      </trkpt>
      <trkpt lat="47.47678" lon="-2.33608">
        <ele>35.3</ele>
        <time>2020-06-06T09:09:38Z</time>
      </trkpt>
      <trkpt lat="47.47684" lon="-2.33612">
        <ele>35.4</ele>
        <time>2020-06-06T09:09:39Z</time>
      </trkpt>
      <trkpt lat="47.4769" lon="-2.33616">
        <ele>35.4</ele>
        <time>2020-06-06T09:09:40Z</time>
      </trkpt>
      <trkpt lat="47.47695" lon="-2.3362">
        <ele>35.5</ele>
        <time>2020-06-06T09:09:41Z</time>
      </trkpt>
      <trkpt lat="47.47702" lon="-2.33625">
        <ele>35.5</ele>
        <time>2020-06-06T09:09:42Z</time>
      </trkpt>
      <trkpt lat="47.47709" lon="-2.33631">
        <ele>35.6</ele>
        <time>2020-06-06T09:09:43Z</time>
      </trkpt>
      <trkpt lat="47.47715" lon="-2.33636">
        <ele>35.6</ele>
        <time>2020-06-06T09:09:44Z</time>
      </trkpt>
      <trkpt lat="47.47722" lon="-2.33641">
        <ele>35.7</ele>
        <time>2020-06-06T09:09:45Z</time>
      </trkpt>
      <trkpt lat="47.47727" lon="-2.33645">
        <ele>35.7</ele>
        <time>2020-06-06T09:09:46Z</time>
      </trkpt>
      <trkpt lat="47.47733" lon="-2.3365">
        <ele>35.7</ele>
        <time>2020-06-06T09:09:47Z</time>
      </trkpt>
      <trkpt lat="47.47738" lon="-2.33655">
        <ele>35.8</ele>
        <time>2020-06-06T09:09:48Z</time>
      </trkpt>
      <trkpt lat="47.47744" lon="-2.3366">
        <ele>35.8</ele>
        <time>2020-06-06T09:09:49Z</time>
      </trkpt>
      <trkpt lat="47.47751" lon="-2.33665">
        <ele>35.8</ele>
        <time>2020-06-06T09:09:50Z</time>
      </trkpt>
      <trkpt lat="47.47756" lon="-2.33669">
        <ele>35.8</ele>
        <time>2020-06-06T09:09:51Z</time>
      </trkpt>
      <trkpt lat="47.47762" lon="-2.33674">
        <ele>35.8</ele>
        <time>2020-06-06T09:09:52Z</time>
      </trkpt>
      <trkpt lat="47.47768" lon="-2.33679">
        <ele>35.9</ele>
        <time>2020-06-06T09:09:53Z</time>
      </trkpt>
      <trkpt lat="47.47773" lon="-2.33684">
        <ele>35.9</ele>
        <time>2020-06-06T09:09:54Z</time>
      </trkpt>
      <trkpt lat="47.47779" lon="-2.33689">
        <ele>35.8</ele>
        <time>2020-06-06T09:09:55Z</time>
      </trkpt>
      <trkpt lat="47.47785" lon="-2.33694">
        <ele>35.8</ele>
        <time>2020-06-06T09:09:56Z</time>
      </trkpt>
      <trkpt lat="47.4779" lon="-2.33699">
        <ele>35.8</ele>
        <time>2020-06-06T09:09:57Z</time>
      </trkpt>
      <trkpt lat="47.47796" lon="-2.33704">
        <ele>35.8</ele>
        <time>2020-06-06T09:09:58Z</time>
      </trkpt>
      <trkpt lat="47.47801" lon="-2.3371">
        <ele>35.8</ele>
        <time>2020-06-06T09:09:59Z</time>
      </trkpt>
      <trkpt lat="47.47807" lon="-2.33716">
        <ele>35.7</ele>
        <time>2020-06-06T09:10:00Z</time>
      </trkpt>
      <trkpt lat="47.47813" lon="-2.33722">
        <ele>35.6</ele>
        <time>2020-06-06T09:10:01Z</time>
      </trkpt>
      <trkpt lat="47.47818" lon="-2.33727">
        <ele>35.5</ele>
        <time>2020-06-06T09:10:02Z</time>
      </trkpt>
      <trkpt lat="47.47823" lon="-2.33735">
        <ele>35.4</ele>
        <time>2020-06-06T09:10:03Z</time>
      </trkpt>
      <trkpt lat="47.47829" lon="-2.33742">
        <ele>35.4</ele>
        <time>2020-06-06T09:10:04Z</time>
      </trkpt>
      <trkpt lat="47.47834" lon="-2.33749">
        <ele>35.3</ele>
        <time>2020-06-06T09:10:05Z</time>
      </trkpt>
      <trkpt lat="47.47839" lon="-2.33756">
        <ele>35.3</ele>
        <time>2020-06-06T09:10:06Z</time>
      </trkpt>
      <trkpt lat="47.47845" lon="-2.33762">
        <ele>35.3</ele>
        <time>2020-06-06T09:10:07Z</time>
      </trkpt>
      <trkpt lat="47.4785" lon="-2.3377">
        <ele>35.2</ele>
        <time>2020-06-06T09:10:08Z</time>
      </trkpt>
      <trkpt lat="47.47855" lon="-2.33778">
        <ele>35.2</ele>
        <time>2020-06-06T09:10:09Z</time>
      </trkpt>
      <trkpt lat="47.4786" lon="-2.33785">
        <ele>35.2</ele>
        <time>2020-06-06T09:10:10Z</time>
      </trkpt>
      <trkpt lat="47.47866" lon="-2.33792">
        <ele>35.2</ele>
        <time>2020-06-06T09:10:11Z</time>
      </trkpt>
      <trkpt lat="47.47871" lon="-2.33799">
        <ele>35.1</ele>
        <time>2020-06-06T09:10:12Z</time>
      </trkpt>
      <trkpt lat="47.47876" lon="-2.33806">
        <ele>35.1</ele>
        <time>2020-06-06T09:10:13Z</time>
      </trkpt>
      <trkpt lat="47.47881" lon="-2.33813">
        <ele>35.1</ele>
        <time>2020-06-06T09:10:14Z</time>
      </trkpt>
      <trkpt lat="47.47886" lon="-2.3382">
        <ele>35.1</ele>
        <time>2020-06-06T09:10:15Z</time>
      </trkpt>
      <trkpt lat="47.4789" lon="-2.33827">
        <ele>35</ele>
        <time>2020-06-06T09:10:16Z</time>
      </trkpt>
      <trkpt lat="47.47896" lon="-2.33833">
        <ele>35</ele>
        <time>2020-06-06T09:10:17Z</time>
      </trkpt>
      <trkpt lat="47.479" lon="-2.3384">
        <ele>35</ele>
        <time>2020-06-06T09:10:18Z</time>
      </trkpt>
      <trkpt lat="47.47905" lon="-2.33847">
        <ele>34.9</ele>
        <time>2020-06-06T09:10:19Z</time>
      </trkpt>
      <trkpt lat="47.47909" lon="-2.33854">
        <ele>34.9</ele>
        <time>2020-06-06T09:10:20Z</time>
      </trkpt>
      <trkpt lat="47.47914" lon="-2.33862">
        <ele>34.8</ele>
        <time>2020-06-06T09:10:21Z</time>
      </trkpt>
      <trkpt lat="47.47918" lon="-2.33869">
        <ele>34.7</ele>
        <time>2020-06-06T09:10:22Z</time>
      </trkpt>
      <trkpt lat="47.47922" lon="-2.33877">
        <ele>34.6</ele>
        <time>2020-06-06T09:10:23Z</time>
      </trkpt>
      <trkpt lat="47.47927" lon="-2.33886">
        <ele>34.5</ele>
        <time>2020-06-06T09:10:24Z</time>
      </trkpt>
      <trkpt lat="47.47931" lon="-2.33894">
        <ele>34.4</ele>
        <time>2020-06-06T09:10:25Z</time>
      </trkpt>
      <trkpt lat="47.47935" lon="-2.33902">
        <ele>34.3</ele>
        <time>2020-06-06T09:10:26Z</time>
      </trkpt>
      <trkpt lat="47.4794" lon="-2.3391">
        <ele>34.2</ele>
        <time>2020-06-06T09:10:27Z</time>
      </trkpt>
      <trkpt lat="47.47944" lon="-2.33917">
        <ele>34</ele>
        <time>2020-06-06T09:10:28Z</time>
      </trkpt>
      <trkpt lat="47.47949" lon="-2.33926">
        <ele>33.9</ele>
        <time>2020-06-06T09:10:29Z</time>
      </trkpt>
      <trkpt lat="47.47953" lon="-2.33934">
        <ele>33.7</ele>
        <time>2020-06-06T09:10:30Z</time>
      </trkpt>
      <trkpt lat="47.47957" lon="-2.33943">
        <ele>33.6</ele>
        <time>2020-06-06T09:10:31Z</time>
      </trkpt>
      <trkpt lat="47.47961" lon="-2.33953">
        <ele>33.4</ele>
        <time>2020-06-06T09:10:32Z</time>
      </trkpt>
      <trkpt lat="47.47966" lon="-2.33962">
        <ele>33.3</ele>
        <time>2020-06-06T09:10:33Z</time>
      </trkpt>
      <trkpt lat="47.4797" lon="-2.33971">
        <ele>33.1</ele>
        <time>2020-06-06T09:10:34Z</time>
      </trkpt>
      <trkpt lat="47.47975" lon="-2.33979">
        <ele>33</ele>
        <time>2020-06-06T09:10:35Z</time>
      </trkpt>
      <trkpt lat="47.47979" lon="-2.33989">
        <ele>32.9</ele>
        <time>2020-06-06T09:10:36Z</time>
      </trkpt>
      <trkpt lat="47.47984" lon="-2.33998">
        <ele>32.8</ele>
        <time>2020-06-06T09:10:37Z</time>
      </trkpt>
      <trkpt lat="47.47989" lon="-2.34007">
        <ele>32.7</ele>
        <time>2020-06-06T09:10:38Z</time>
      </trkpt>
      <trkpt lat="47.47994" lon="-2.34016">
        <ele>32.6</ele>
        <time>2020-06-06T09:10:39Z</time>
      </trkpt>
      <trkpt lat="47.47999" lon="-2.34024">
        <ele>32.5</ele>
        <time>2020-06-06T09:10:40Z</time>
      </trkpt>
      <trkpt lat="47.48003" lon="-2.34032">
        <ele>32.5</ele>
        <time>2020-06-06T09:10:41Z</time>
      </trkpt>
      <trkpt lat="47.48007" lon="-2.34041">
        <ele>32.4</ele>
        <time>2020-06-06T09:10:42Z</time>
      </trkpt>
      <trkpt lat="47.48012" lon="-2.34049">
        <ele>32.4</ele>
        <time>2020-06-06T09:10:43Z</time>
      </trkpt>
      <trkpt lat="47.48017" lon="-2.34057">
        <ele>32.4</ele>
        <time>2020-06-06T09:10:44Z</time>
      </trkpt>
      <trkpt lat="47.48022" lon="-2.34065">
        <ele>32.5</ele>
        <time>2020-06-06T09:10:45Z</time>
      </trkpt>
      <trkpt lat="47.48026" lon="-2.34073">
        <ele>32.5</ele>
        <time>2020-06-06T09:10:46Z</time>
      </trkpt>
      <trkpt lat="47.48031" lon="-2.34081">
        <ele>32.6</ele>
        <time>2020-06-06T09:10:47Z</time>
      </trkpt>
      <trkpt lat="47.48035" lon="-2.34089">
        <ele>32.7</ele>
        <time>2020-06-06T09:10:48Z</time>
      </trkpt>
      <trkpt lat="47.4804" lon="-2.34097">
        <ele>32.8</ele>
        <time>2020-06-06T09:10:49Z</time>
      </trkpt>
      <trkpt lat="47.48044" lon="-2.34104">
        <ele>32.9</ele>
        <time>2020-06-06T09:10:50Z</time>
      </trkpt>
      <trkpt lat="47.48048" lon="-2.34112">
        <ele>33</ele>
        <time>2020-06-06T09:10:51Z</time>
      </trkpt>
      <trkpt lat="47.48053" lon="-2.3412">
        <ele>33.1</ele>
        <time>2020-06-06T09:10:52Z</time>
      </trkpt>
      <trkpt lat="47.48058" lon="-2.34127">
        <ele>33.2</ele>
        <time>2020-06-06T09:10:53Z</time>
      </trkpt>
      <trkpt lat="47.48063" lon="-2.34133">
        <ele>33.4</ele>
        <time>2020-06-06T09:10:54Z</time>
      </trkpt>
      <trkpt lat="47.48069" lon="-2.34138">
        <ele>33.5</ele>
        <time>2020-06-06T09:10:55Z</time>
      </trkpt>
      <trkpt lat="47.48075" lon="-2.34141">
        <ele>33.7</ele>
        <time>2020-06-06T09:10:56Z</time>
      </trkpt>
      <trkpt lat="47.48082" lon="-2.34142">
        <ele>33.9</ele>
        <time>2020-06-06T09:10:57Z</time>
      </trkpt>
      <trkpt lat="47.48088" lon="-2.34142">
        <ele>34</ele>
        <time>2020-06-06T09:10:58Z</time>
      </trkpt>
      <trkpt lat="47.48095" lon="-2.3414">
        <ele>34.2</ele>
        <time>2020-06-06T09:10:59Z</time>
      </trkpt>
      <trkpt lat="47.48101" lon="-2.34139">
        <ele>34.3</ele>
        <time>2020-06-06T09:11:00Z</time>
      </trkpt>
      <trkpt lat="47.48107" lon="-2.34138">
        <ele>34.5</ele>
        <time>2020-06-06T09:11:01Z</time>
      </trkpt>
      <trkpt lat="47.48114" lon="-2.34138">
        <ele>34.6</ele>
        <time>2020-06-06T09:11:02Z</time>
      </trkpt>
      <trkpt lat="47.48121" lon="-2.34139">
        <ele>34.8</ele>
        <time>2020-06-06T09:11:03Z</time>
      </trkpt>
      <trkpt lat="47.48127" lon="-2.34142">
        <ele>35</ele>
        <time>2020-06-06T09:11:04Z</time>
      </trkpt>
      <trkpt lat="47.48133" lon="-2.34145">
        <ele>35.1</ele>
        <time>2020-06-06T09:11:05Z</time>
      </trkpt>
      <trkpt lat="47.48139" lon="-2.34151">
        <ele>35.3</ele>
        <time>2020-06-06T09:11:06Z</time>
      </trkpt>
      <trkpt lat="47.48144" lon="-2.34158">
        <ele>35.5</ele>
        <time>2020-06-06T09:11:07Z</time>
      </trkpt>
      <trkpt lat="47.48148" lon="-2.34167">
        <ele>35.6</ele>
        <time>2020-06-06T09:11:08Z</time>
      </trkpt>
      <trkpt lat="47.48152" lon="-2.34176">
        <ele>35.9</ele>
        <time>2020-06-06T09:11:09Z</time>
      </trkpt>
      <trkpt lat="47.48155" lon="-2.34185">
        <ele>36.1</ele>
        <time>2020-06-06T09:11:10Z</time>
      </trkpt>
      <trkpt lat="47.48158" lon="-2.34194">
        <ele>36.3</ele>
        <time>2020-06-06T09:11:11Z</time>
      </trkpt>
      <trkpt lat="47.48161" lon="-2.34202">
        <ele>36.5</ele>
        <time>2020-06-06T09:11:12Z</time>
      </trkpt>
      <trkpt lat="47.48164" lon="-2.3421">
        <ele>36.7</ele>
        <time>2020-06-06T09:11:13Z</time>
      </trkpt>
      <trkpt lat="47.48166" lon="-2.34218">
        <ele>36.9</ele>
        <time>2020-06-06T09:11:14Z</time>
      </trkpt>
      <trkpt lat="47.48168" lon="-2.34226">
        <ele>37.1</ele>
        <time>2020-06-06T09:11:15Z</time>
      </trkpt>
      <trkpt lat="47.4817" lon="-2.34234">
        <ele>37.3</ele>
        <time>2020-06-06T09:11:16Z</time>
      </trkpt>
      <trkpt lat="47.48173" lon="-2.34241">
        <ele>37.5</ele>
        <time>2020-06-06T09:11:17Z</time>
      </trkpt>
      <trkpt lat="47.48176" lon="-2.34247">
        <ele>37.6</ele>
        <time>2020-06-06T09:11:18Z</time>
      </trkpt>
      <trkpt lat="47.48179" lon="-2.34253">
        <ele>37.8</ele>
        <time>2020-06-06T09:11:19Z</time>
      </trkpt>
      <trkpt lat="47.48182" lon="-2.34259">
        <ele>38</ele>
        <time>2020-06-06T09:11:20Z</time>
      </trkpt>
      <trkpt lat="47.48185" lon="-2.34264">
        <ele>38.1</ele>
        <time>2020-06-06T09:11:21Z</time>
      </trkpt>
      <trkpt lat="47.48188" lon="-2.3427">
        <ele>38.4</ele>
        <time>2020-06-06T09:11:22Z</time>
      </trkpt>
      <trkpt lat="47.4819" lon="-2.34275">
        <ele>38.4</ele>
        <time>2020-06-06T09:11:23Z</time>
      </trkpt>
      <trkpt lat="47.48191" lon="-2.34281">
        <ele>38.4</ele>
        <time>2020-06-06T09:11:24Z</time>
      </trkpt>
      <trkpt lat="47.48191" lon="-2.34287">
        <ele>38.5</ele>
        <time>2020-06-06T09:11:25Z</time>
      </trkpt>
      <trkpt lat="47.4819" lon="-2.34293">
        <ele>38.5</ele>
        <time>2020-06-06T09:11:26Z</time>
      </trkpt>
      <trkpt lat="47.48189" lon="-2.34299">
        <ele>38.6</ele>
        <time>2020-06-06T09:11:27Z</time>
      </trkpt>
      <trkpt lat="47.48189" lon="-2.34305">
        <ele>38.6</ele>
        <time>2020-06-06T09:11:28Z</time>
      </trkpt>
      <trkpt lat="47.48188" lon="-2.3431">
        <ele>38.7</ele>
        <time>2020-06-06T09:11:29Z</time>
      </trkpt>
      <trkpt lat="47.48186" lon="-2.34314">
        <ele>38.8</ele>
        <time>2020-06-06T09:11:30Z</time>
      </trkpt>
      <trkpt lat="47.48184" lon="-2.34319">
        <ele>38.8</ele>
        <time>2020-06-06T09:11:31Z</time>
      </trkpt>
      <trkpt lat="47.48182" lon="-2.34324">
        <ele>39</ele>
        <time>2020-06-06T09:11:32Z</time>
      </trkpt>
      <trkpt lat="47.48179" lon="-2.34329">
        <ele>39</ele>
        <time>2020-06-06T09:11:33Z</time>
      </trkpt>
      <trkpt lat="47.48179" lon="-2.34333">
        <ele>38.9</ele>
        <time>2020-06-06T09:11:34Z</time>
      </trkpt>
      <trkpt lat="47.48178" lon="-2.34339">
        <ele>38.9</ele>
        <time>2020-06-06T09:11:35Z</time>
      </trkpt>
      <trkpt lat="47.4818" lon="-2.34345">
        <ele>38.8</ele>
        <time>2020-06-06T09:11:36Z</time>
      </trkpt>
      <trkpt lat="47.48182" lon="-2.3435">
        <ele>38.8</ele>
        <time>2020-06-06T09:11:37Z</time>
      </trkpt>
      <trkpt lat="47.48184" lon="-2.34356">
        <ele>38.7</ele>
        <time>2020-06-06T09:11:38Z</time>
      </trkpt>
      <trkpt lat="47.48187" lon="-2.34362">
        <ele>38.7</ele>
        <time>2020-06-06T09:11:39Z</time>
      </trkpt>
      <trkpt lat="47.48189" lon="-2.34368">
        <ele>38.7</ele>
        <time>2020-06-06T09:11:40Z</time>
      </trkpt>
      <trkpt lat="47.48192" lon="-2.34374">
        <ele>38.7</ele>
        <time>2020-06-06T09:11:41Z</time>
      </trkpt>
      <trkpt lat="47.48194" lon="-2.3438">
        <ele>38.7</ele>
        <time>2020-06-06T09:11:42Z</time>
      </trkpt>
      <trkpt lat="47.48196" lon="-2.34386">
        <ele>38.7</ele>
        <time>2020-06-06T09:11:43Z</time>
      </trkpt>
      <trkpt lat="47.48196" lon="-2.34392">
        <ele>38.7</ele>
        <time>2020-06-06T09:11:44Z</time>
      </trkpt>
      <trkpt lat="47.48198" lon="-2.34398">
        <ele>38.7</ele>
        <time>2020-06-06T09:11:45Z</time>
      </trkpt>
      <trkpt lat="47.48199" lon="-2.34405">
        <ele>38.7</ele>
        <time>2020-06-06T09:11:46Z</time>
      </trkpt>
      <trkpt lat="47.48201" lon="-2.34411">
        <ele>38.7</ele>
        <time>2020-06-06T09:11:47Z</time>
      </trkpt>
      <trkpt lat="47.48203" lon="-2.34417">
        <ele>38.8</ele>
        <time>2020-06-06T09:11:48Z</time>
      </trkpt>
      <trkpt lat="47.48205" lon="-2.34423">
        <ele>38.8</ele>
        <time>2020-06-06T09:11:49Z</time>
      </trkpt>
      <trkpt lat="47.48206" lon="-2.34429">
        <ele>38.8</ele>
        <time>2020-06-06T09:11:50Z</time>
      </trkpt>
      <trkpt lat="47.48208" lon="-2.34436">
        <ele>38.8</ele>
        <time>2020-06-06T09:11:51Z</time>
      </trkpt>
      <trkpt lat="47.4821" lon="-2.34442">
        <ele>38.8</ele>
        <time>2020-06-06T09:11:52Z</time>
      </trkpt>
      <trkpt lat="47.48211" lon="-2.34448">
        <ele>38.9</ele>
        <time>2020-06-06T09:11:53Z</time>
      </trkpt>
      <trkpt lat="47.48213" lon="-2.34455">
        <ele>38.9</ele>
        <time>2020-06-06T09:11:54Z</time>
      </trkpt>
      <trkpt lat="47.48213" lon="-2.34462">
        <ele>38.9</ele>
        <time>2020-06-06T09:11:55Z</time>
      </trkpt>
      <trkpt lat="47.48213" lon="-2.34468">
        <ele>38.9</ele>
        <time>2020-06-06T09:11:56Z</time>
      </trkpt>
      <trkpt lat="47.48214" lon="-2.34473">
        <ele>38.9</ele>
        <time>2020-06-06T09:11:57Z</time>
      </trkpt>
      <trkpt lat="47.48215" lon="-2.34477">
        <ele>38.9</ele>
        <time>2020-06-06T09:11:58Z</time>
      </trkpt>
      <trkpt lat="47.48215" lon="-2.34478">
        <ele>38.9</ele>
        <time>2020-06-06T09:11:59Z</time>
      </trkpt>
      <trkpt lat="47.48215" lon="-2.34482">
        <ele>38.9</ele>
        <time>2020-06-06T09:12:00Z</time>
      </trkpt>
      <trkpt lat="47.48215" lon="-2.34483">
        <ele>38.9</ele>
        <time>2020-06-06T09:12:01Z</time>
      </trkpt>
      <trkpt lat="47.48215" lon="-2.34488">
        <ele>38.9</ele>
        <time>2020-06-06T09:12:02Z</time>
      </trkpt>
      <trkpt lat="47.48216" lon="-2.34492">
        <ele>38.9</ele>
        <time>2020-06-06T09:12:03Z</time>
      </trkpt>
      <trkpt lat="47.48216" lon="-2.34497">
        <ele>39</ele>
        <time>2020-06-06T09:12:04Z</time>
      </trkpt>
      <trkpt lat="47.48214" lon="-2.34503">
        <ele>39</ele>
        <time>2020-06-06T09:12:05Z</time>
      </trkpt>
      <trkpt lat="47.48213" lon="-2.34509">
        <ele>39.1</ele>
        <time>2020-06-06T09:12:06Z</time>
      </trkpt>
      <trkpt lat="47.48212" lon="-2.34515">
        <ele>39.1</ele>
        <time>2020-06-06T09:12:07Z</time>
      </trkpt>
      <trkpt lat="47.48211" lon="-2.34522">
        <ele>39.2</ele>
        <time>2020-06-06T09:12:08Z</time>
      </trkpt>
      <trkpt lat="47.4821" lon="-2.34528">
        <ele>39.2</ele>
        <time>2020-06-06T09:12:09Z</time>
      </trkpt>
      <trkpt lat="47.48209" lon="-2.34535">
        <ele>39.3</ele>
        <time>2020-06-06T09:12:10Z</time>
      </trkpt>
      <trkpt lat="47.48207" lon="-2.34543">
        <ele>39.3</ele>
        <time>2020-06-06T09:12:11Z</time>
      </trkpt>
      <trkpt lat="47.48205" lon="-2.34549">
        <ele>39.3</ele>
        <time>2020-06-06T09:12:12Z</time>
      </trkpt>
      <trkpt lat="47.48205" lon="-2.34556">
        <ele>39.3</ele>
        <time>2020-06-06T09:12:13Z</time>
      </trkpt>
      <trkpt lat="47.48205" lon="-2.34562">
        <ele>39.3</ele>
        <time>2020-06-06T09:12:14Z</time>
      </trkpt>
      <trkpt lat="47.48206" lon="-2.34569">
        <ele>39.2</ele>
        <time>2020-06-06T09:12:15Z</time>
      </trkpt>
      <trkpt lat="47.48206" lon="-2.34575">
        <ele>39.2</ele>
        <time>2020-06-06T09:12:16Z</time>
      </trkpt>
      <trkpt lat="47.48207" lon="-2.34581">
        <ele>39.3</ele>
        <time>2020-06-06T09:12:17Z</time>
      </trkpt>
      <trkpt lat="47.48209" lon="-2.34586">
        <ele>39.4</ele>
        <time>2020-06-06T09:12:18Z</time>
      </trkpt>
      <trkpt lat="47.48213" lon="-2.34589">
        <ele>39.2</ele>
        <time>2020-06-06T09:12:19Z</time>
      </trkpt>
      <trkpt lat="47.48218" lon="-2.34594">
        <ele>39.2</ele>
        <time>2020-06-06T09:12:20Z</time>
      </trkpt>
      <trkpt lat="47.4822" lon="-2.34601">
        <ele>39</ele>
        <time>2020-06-06T09:12:21Z</time>
      </trkpt>
      <trkpt lat="47.48222" lon="-2.34609">
        <ele>39</ele>
        <time>2020-06-06T09:12:22Z</time>
      </trkpt>
      <trkpt lat="47.48222" lon="-2.34616">
        <ele>39</ele>
        <time>2020-06-06T09:12:23Z</time>
      </trkpt>
      <trkpt lat="47.48221" lon="-2.34623">
        <ele>39.1</ele>
        <time>2020-06-06T09:12:24Z</time>
      </trkpt>
      <trkpt lat="47.4822" lon="-2.3463">
        <ele>39.1</ele>
        <time>2020-06-06T09:12:25Z</time>
      </trkpt>
      <trkpt lat="47.48219" lon="-2.34636">
        <ele>39.2</ele>
        <time>2020-06-06T09:12:26Z</time>
      </trkpt>
      <trkpt lat="47.48216" lon="-2.34641">
        <ele>39.3</ele>
        <time>2020-06-06T09:12:27Z</time>
      </trkpt>
      <trkpt lat="47.48213" lon="-2.34647">
        <ele>39.4</ele>
        <time>2020-06-06T09:12:28Z</time>
      </trkpt>
      <trkpt lat="47.4821" lon="-2.34654">
        <ele>39.4</ele>
        <time>2020-06-06T09:12:29Z</time>
      </trkpt>
      <trkpt lat="47.48208" lon="-2.3466">
        <ele>39.5</ele>
        <time>2020-06-06T09:12:30Z</time>
      </trkpt>
      <trkpt lat="47.48206" lon="-2.34667">
        <ele>39.5</ele>
        <time>2020-06-06T09:12:31Z</time>
      </trkpt>
      <trkpt lat="47.48205" lon="-2.34674">
        <ele>39.6</ele>
        <time>2020-06-06T09:12:32Z</time>
      </trkpt>
      <trkpt lat="47.48205" lon="-2.34681">
        <ele>39.7</ele>
        <time>2020-06-06T09:12:33Z</time>
      </trkpt>
      <trkpt lat="47.48205" lon="-2.34688">
        <ele>39.8</ele>
        <time>2020-06-06T09:12:34Z</time>
      </trkpt>
      <trkpt lat="47.48204" lon="-2.34695">
        <ele>39.9</ele>
        <time>2020-06-06T09:12:35Z</time>
      </trkpt>
      <trkpt lat="47.48203" lon="-2.34701">
        <ele>39.9</ele>
        <time>2020-06-06T09:12:36Z</time>
      </trkpt>
      <trkpt lat="47.48201" lon="-2.34707">
        <ele>40</ele>
        <time>2020-06-06T09:12:37Z</time>
      </trkpt>
      <trkpt lat="47.48199" lon="-2.34713">
        <ele>40.1</ele>
        <time>2020-06-06T09:12:38Z</time>
      </trkpt>
      <trkpt lat="47.48198" lon="-2.34719">
        <ele>40.2</ele>
        <time>2020-06-06T09:12:39Z</time>
      </trkpt>
      <trkpt lat="47.48197" lon="-2.34724">
        <ele>40.2</ele>
        <time>2020-06-06T09:12:40Z</time>
      </trkpt>
      <trkpt lat="47.48196" lon="-2.34731">
        <ele>40.3</ele>
        <time>2020-06-06T09:12:41Z</time>
      </trkpt>
      <trkpt lat="47.48194" lon="-2.34739">
        <ele>40.4</ele>
        <time>2020-06-06T09:12:42Z</time>
      </trkpt>
      <trkpt lat="47.48193" lon="-2.34745">
        <ele>40.4</ele>
        <time>2020-06-06T09:12:43Z</time>
      </trkpt>
      <trkpt lat="47.48191" lon="-2.34752">
        <ele>40.5</ele>
        <time>2020-06-06T09:12:44Z</time>
      </trkpt>
      <trkpt lat="47.4819" lon="-2.34761">
        <ele>40.6</ele>
        <time>2020-06-06T09:12:45Z</time>
      </trkpt>
      <trkpt lat="47.48188" lon="-2.34769">
        <ele>40.6</ele>
        <time>2020-06-06T09:12:46Z</time>
      </trkpt>
      <trkpt lat="47.48186" lon="-2.34778">
        <ele>40.7</ele>
        <time>2020-06-06T09:12:47Z</time>
      </trkpt>
      <trkpt lat="47.48185" lon="-2.34786">
        <ele>40.8</ele>
        <time>2020-06-06T09:12:48Z</time>
      </trkpt>
      <trkpt lat="47.48184" lon="-2.34793">
        <ele>41</ele>
        <time>2020-06-06T09:12:49Z</time>
      </trkpt>
      <trkpt lat="47.48183" lon="-2.34799">
        <ele>41.1</ele>
        <time>2020-06-06T09:12:50Z</time>
      </trkpt>
      <trkpt lat="47.48182" lon="-2.34807">
        <ele>41.2</ele>
        <time>2020-06-06T09:12:51Z</time>
      </trkpt>
      <trkpt lat="47.48182" lon="-2.34815">
        <ele>41.4</ele>
        <time>2020-06-06T09:12:52Z</time>
      </trkpt>
      <trkpt lat="47.48182" lon="-2.34822">
        <ele>41.5</ele>
        <time>2020-06-06T09:12:53Z</time>
      </trkpt>
      <trkpt lat="47.48182" lon="-2.34829">
        <ele>41.7</ele>
        <time>2020-06-06T09:12:54Z</time>
      </trkpt>
      <trkpt lat="47.48182" lon="-2.34835">
        <ele>41.8</ele>
        <time>2020-06-06T09:12:55Z</time>
      </trkpt>
      <trkpt lat="47.48182" lon="-2.34842">
        <ele>41.9</ele>
        <time>2020-06-06T09:12:56Z</time>
      </trkpt>
      <trkpt lat="47.48182" lon="-2.34848">
        <ele>42</ele>
        <time>2020-06-06T09:12:57Z</time>
      </trkpt>
      <trkpt lat="47.48182" lon="-2.34855">
        <ele>42.1</ele>
        <time>2020-06-06T09:12:58Z</time>
      </trkpt>
      <trkpt lat="47.48182" lon="-2.34863">
        <ele>42.3</ele>
        <time>2020-06-06T09:12:59Z</time>
      </trkpt>
      <trkpt lat="47.48182" lon="-2.3487">
        <ele>42.4</ele>
        <time>2020-06-06T09:13:00Z</time>
      </trkpt>
      <trkpt lat="47.48182" lon="-2.34877">
        <ele>42.5</ele>
        <time>2020-06-06T09:13:01Z</time>
      </trkpt>
      <trkpt lat="47.48183" lon="-2.34884">
        <ele>42.6</ele>
        <time>2020-06-06T09:13:02Z</time>
      </trkpt>
      <trkpt lat="47.48184" lon="-2.34894">
        <ele>42.8</ele>
        <time>2020-06-06T09:13:03Z</time>
      </trkpt>
      <trkpt lat="47.48185" lon="-2.34903">
        <ele>43</ele>
        <time>2020-06-06T09:13:04Z</time>
      </trkpt>
      <trkpt lat="47.48186" lon="-2.3491">
        <ele>43.1</ele>
        <time>2020-06-06T09:13:05Z</time>
      </trkpt>
      <trkpt lat="47.48187" lon="-2.34918">
        <ele>43.2</ele>
        <time>2020-06-06T09:13:06Z</time>
      </trkpt>
      <trkpt lat="47.48188" lon="-2.34926">
        <ele>43.4</ele>
        <time>2020-06-06T09:13:07Z</time>
      </trkpt>
      <trkpt lat="47.4819" lon="-2.34932">
        <ele>43.5</ele>
        <time>2020-06-06T09:13:08Z</time>
      </trkpt>
      <trkpt lat="47.48191" lon="-2.34939">
        <ele>43.6</ele>
        <time>2020-06-06T09:13:09Z</time>
      </trkpt>
      <trkpt lat="47.48192" lon="-2.34946">
        <ele>43.7</ele>
        <time>2020-06-06T09:13:10Z</time>
      </trkpt>
      <trkpt lat="47.48193" lon="-2.34953">
        <ele>43.8</ele>
        <time>2020-06-06T09:13:11Z</time>
      </trkpt>
      <trkpt lat="47.48194" lon="-2.34959">
        <ele>43.9</ele>
        <time>2020-06-06T09:13:12Z</time>
      </trkpt>
      <trkpt lat="47.48196" lon="-2.34966">
        <ele>44</ele>
        <time>2020-06-06T09:13:13Z</time>
      </trkpt>
      <trkpt lat="47.48197" lon="-2.34973">
        <ele>44.1</ele>
        <time>2020-06-06T09:13:14Z</time>
      </trkpt>
      <trkpt lat="47.48198" lon="-2.34981">
        <ele>44.1</ele>
        <time>2020-06-06T09:13:15Z</time>
      </trkpt>
      <trkpt lat="47.482" lon="-2.34989">
        <ele>44.2</ele>
        <time>2020-06-06T09:13:16Z</time>
      </trkpt>
      <trkpt lat="47.48201" lon="-2.34997">
        <ele>44.3</ele>
        <time>2020-06-06T09:13:17Z</time>
      </trkpt>
      <trkpt lat="47.48202" lon="-2.35004">
        <ele>44.3</ele>
        <time>2020-06-06T09:13:18Z</time>
      </trkpt>
      <trkpt lat="47.48204" lon="-2.3501">
        <ele>44.4</ele>
        <time>2020-06-06T09:13:19Z</time>
      </trkpt>
      <trkpt lat="47.48205" lon="-2.35017">
        <ele>44.4</ele>
        <time>2020-06-06T09:13:20Z</time>
      </trkpt>
      <trkpt lat="47.48207" lon="-2.35025">
        <ele>44.5</ele>
        <time>2020-06-06T09:13:21Z</time>
      </trkpt>
      <trkpt lat="47.48209" lon="-2.35033">
        <ele>44.5</ele>
        <time>2020-06-06T09:13:22Z</time>
      </trkpt>
      <trkpt lat="47.48211" lon="-2.35042">
        <ele>44.6</ele>
        <time>2020-06-06T09:13:23Z</time>
      </trkpt>
      <trkpt lat="47.48212" lon="-2.3505">
        <ele>44.7</ele>
        <time>2020-06-06T09:13:24Z</time>
      </trkpt>
      <trkpt lat="47.48214" lon="-2.35058">
        <ele>44.8</ele>
        <time>2020-06-06T09:13:25Z</time>
      </trkpt>
      <trkpt lat="47.48215" lon="-2.35065">
        <ele>44.8</ele>
        <time>2020-06-06T09:13:26Z</time>
      </trkpt>
      <trkpt lat="47.48217" lon="-2.35073">
        <ele>44.9</ele>
        <time>2020-06-06T09:13:27Z</time>
      </trkpt>
      <trkpt lat="47.48218" lon="-2.35081">
        <ele>45</ele>
        <time>2020-06-06T09:13:28Z</time>
      </trkpt>
      <trkpt lat="47.48219" lon="-2.35089">
        <ele>45.1</ele>
        <time>2020-06-06T09:13:29Z</time>
      </trkpt>
      <trkpt lat="47.48221" lon="-2.35097">
        <ele>45.2</ele>
        <time>2020-06-06T09:13:30Z</time>
      </trkpt>
      <trkpt lat="47.48222" lon="-2.35106">
        <ele>45.3</ele>
        <time>2020-06-06T09:13:31Z</time>
      </trkpt>
      <trkpt lat="47.48224" lon="-2.35114">
        <ele>45.4</ele>
        <time>2020-06-06T09:13:32Z</time>
      </trkpt>
      <trkpt lat="47.48226" lon="-2.35122">
        <ele>45.4</ele>
        <time>2020-06-06T09:13:33Z</time>
      </trkpt>
      <trkpt lat="47.48228" lon="-2.3513">
        <ele>45.4</ele>
        <time>2020-06-06T09:13:34Z</time>
      </trkpt>
      <trkpt lat="47.48229" lon="-2.35138">
        <ele>45.4</ele>
        <time>2020-06-06T09:13:35Z</time>
      </trkpt>
      <trkpt lat="47.48231" lon="-2.35145">
        <ele>45.5</ele>
        <time>2020-06-06T09:13:36Z</time>
      </trkpt>
      <trkpt lat="47.48233" lon="-2.35153">
        <ele>45.5</ele>
        <time>2020-06-06T09:13:37Z</time>
      </trkpt>
      <trkpt lat="47.48234" lon="-2.35161">
        <ele>45.5</ele>
        <time>2020-06-06T09:13:38Z</time>
      </trkpt>
      <trkpt lat="47.48236" lon="-2.3517">
        <ele>45.5</ele>
        <time>2020-06-06T09:13:39Z</time>
      </trkpt>
      <trkpt lat="47.48238" lon="-2.3518">
        <ele>45.5</ele>
        <time>2020-06-06T09:13:40Z</time>
      </trkpt>
      <trkpt lat="47.4824" lon="-2.35189">
        <ele>45.4</ele>
        <time>2020-06-06T09:13:41Z</time>
      </trkpt>
      <trkpt lat="47.48241" lon="-2.35197">
        <ele>45.4</ele>
        <time>2020-06-06T09:13:42Z</time>
      </trkpt>
      <trkpt lat="47.48242" lon="-2.35206">
        <ele>45.4</ele>
        <time>2020-06-06T09:13:43Z</time>
      </trkpt>
      <trkpt lat="47.48243" lon="-2.35214">
        <ele>45.3</ele>
        <time>2020-06-06T09:13:44Z</time>
      </trkpt>
      <trkpt lat="47.48244" lon="-2.35223">
        <ele>45.3</ele>
        <time>2020-06-06T09:13:45Z</time>
      </trkpt>
      <trkpt lat="47.48246" lon="-2.35232">
        <ele>45.3</ele>
        <time>2020-06-06T09:13:46Z</time>
      </trkpt>
      <trkpt lat="47.48247" lon="-2.35242">
        <ele>45.2</ele>
        <time>2020-06-06T09:13:47Z</time>
      </trkpt>
      <trkpt lat="47.48248" lon="-2.35251">
        <ele>45.2</ele>
        <time>2020-06-06T09:13:48Z</time>
      </trkpt>
      <trkpt lat="47.48249" lon="-2.3526">
        <ele>45.2</ele>
        <time>2020-06-06T09:13:49Z</time>
      </trkpt>
      <trkpt lat="47.48251" lon="-2.35269">
        <ele>45.1</ele>
        <time>2020-06-06T09:13:50Z</time>
      </trkpt>
      <trkpt lat="47.48251" lon="-2.35279">
        <ele>45.1</ele>
        <time>2020-06-06T09:13:51Z</time>
      </trkpt>
      <trkpt lat="47.48252" lon="-2.35288">
        <ele>45</ele>
        <time>2020-06-06T09:13:52Z</time>
      </trkpt>
      <trkpt lat="47.48253" lon="-2.35297">
        <ele>45</ele>
        <time>2020-06-06T09:13:53Z</time>
      </trkpt>
      <trkpt lat="47.48254" lon="-2.35307">
        <ele>44.9</ele>
        <time>2020-06-06T09:13:54Z</time>
      </trkpt>
      <trkpt lat="47.48255" lon="-2.35316">
        <ele>44.8</ele>
        <time>2020-06-06T09:13:55Z</time>
      </trkpt>
      <trkpt lat="47.48255" lon="-2.35326">
        <ele>44.8</ele>
        <time>2020-06-06T09:13:56Z</time>
      </trkpt>
      <trkpt lat="47.48256" lon="-2.35337">
        <ele>44.7</ele>
        <time>2020-06-06T09:13:57Z</time>
      </trkpt>
      <trkpt lat="47.48257" lon="-2.35346">
        <ele>44.6</ele>
        <time>2020-06-06T09:13:58Z</time>
      </trkpt>
      <trkpt lat="47.48257" lon="-2.35356">
        <ele>44.5</ele>
        <time>2020-06-06T09:13:59Z</time>
      </trkpt>
      <trkpt lat="47.48257" lon="-2.35367">
        <ele>44.4</ele>
        <time>2020-06-06T09:14:00Z</time>
      </trkpt>
      <trkpt lat="47.48257" lon="-2.35376">
        <ele>44.4</ele>
        <time>2020-06-06T09:14:01Z</time>
      </trkpt>
      <trkpt lat="47.48257" lon="-2.35385">
        <ele>44.4</ele>
        <time>2020-06-06T09:14:02Z</time>
      </trkpt>
      <trkpt lat="47.48257" lon="-2.35396">
        <ele>44.3</ele>
        <time>2020-06-06T09:14:03Z</time>
      </trkpt>
      <trkpt lat="47.48256" lon="-2.35406">
        <ele>44.3</ele>
        <time>2020-06-06T09:14:04Z</time>
      </trkpt>
      <trkpt lat="47.48255" lon="-2.35417">
        <ele>44.2</ele>
        <time>2020-06-06T09:14:05Z</time>
      </trkpt>
      <trkpt lat="47.48254" lon="-2.35426">
        <ele>44.2</ele>
        <time>2020-06-06T09:14:06Z</time>
      </trkpt>
      <trkpt lat="47.48254" lon="-2.35437">
        <ele>44.1</ele>
        <time>2020-06-06T09:14:07Z</time>
      </trkpt>
      <trkpt lat="47.48254" lon="-2.35448">
        <ele>44</ele>
        <time>2020-06-06T09:14:08Z</time>
      </trkpt>
      <trkpt lat="47.48254" lon="-2.35457">
        <ele>43.9</ele>
        <time>2020-06-06T09:14:09Z</time>
      </trkpt>
      <trkpt lat="47.48254" lon="-2.35467">
        <ele>43.9</ele>
        <time>2020-06-06T09:14:10Z</time>
      </trkpt>
      <trkpt lat="47.48254" lon="-2.35476">
        <ele>43.8</ele>
        <time>2020-06-06T09:14:11Z</time>
      </trkpt>
      <trkpt lat="47.48253" lon="-2.35485">
        <ele>43.8</ele>
        <time>2020-06-06T09:14:12Z</time>
      </trkpt>
      <trkpt lat="47.48253" lon="-2.35494">
        <ele>43.8</ele>
        <time>2020-06-06T09:14:13Z</time>
      </trkpt>
      <trkpt lat="47.48253" lon="-2.35503">
        <ele>43.7</ele>
        <time>2020-06-06T09:14:14Z</time>
      </trkpt>
      <trkpt lat="47.48252" lon="-2.35512">
        <ele>43.7</ele>
        <time>2020-06-06T09:14:15Z</time>
      </trkpt>
      <trkpt lat="47.48252" lon="-2.35521">
        <ele>43.7</ele>
        <time>2020-06-06T09:14:16Z</time>
      </trkpt>
      <trkpt lat="47.48252" lon="-2.3553">
        <ele>43.6</ele>
        <time>2020-06-06T09:14:17Z</time>
      </trkpt>
      <trkpt lat="47.48253" lon="-2.35539">
        <ele>43.6</ele>
        <time>2020-06-06T09:14:18Z</time>
      </trkpt>
      <trkpt lat="47.48252" lon="-2.35549">
        <ele>43.5</ele>
        <time>2020-06-06T09:14:19Z</time>
      </trkpt>
      <trkpt lat="47.48253" lon="-2.35558">
        <ele>43.5</ele>
        <time>2020-06-06T09:14:20Z</time>
      </trkpt>
      <trkpt lat="47.48253" lon="-2.35568">
        <ele>43.5</ele>
        <time>2020-06-06T09:14:21Z</time>
      </trkpt>
      <trkpt lat="47.48252" lon="-2.35577">
        <ele>43.4</ele>
        <time>2020-06-06T09:14:22Z</time>
      </trkpt>
      <trkpt lat="47.48252" lon="-2.35586">
        <ele>43.4</ele>
        <time>2020-06-06T09:14:23Z</time>
      </trkpt>
      <trkpt lat="47.48252" lon="-2.35596">
        <ele>43.4</ele>
        <time>2020-06-06T09:14:24Z</time>
      </trkpt>
      <trkpt lat="47.48252" lon="-2.35605">
        <ele>43.4</ele>
        <time>2020-06-06T09:14:25Z</time>
      </trkpt>
      <trkpt lat="47.48251" lon="-2.35615">
        <ele>43.4</ele>
        <time>2020-06-06T09:14:26Z</time>
      </trkpt>
      <trkpt lat="47.48251" lon="-2.35625">
        <ele>43.3</ele>
        <time>2020-06-06T09:14:27Z</time>
      </trkpt>
      <trkpt lat="47.4825" lon="-2.35634">
        <ele>43.2</ele>
        <time>2020-06-06T09:14:28Z</time>
      </trkpt>
      <trkpt lat="47.4825" lon="-2.35644">
        <ele>43.1</ele>
        <time>2020-06-06T09:14:29Z</time>
      </trkpt>
      <trkpt lat="47.4825" lon="-2.35654">
        <ele>43</ele>
        <time>2020-06-06T09:14:30Z</time>
      </trkpt>
      <trkpt lat="47.48249" lon="-2.35664">
        <ele>43</ele>
        <time>2020-06-06T09:14:31Z</time>
      </trkpt>
      <trkpt lat="47.48249" lon="-2.35674">
        <ele>42.9</ele>
        <time>2020-06-06T09:14:32Z</time>
      </trkpt>
      <trkpt lat="47.48248" lon="-2.35684">
        <ele>42.8</ele>
        <time>2020-06-06T09:14:33Z</time>
      </trkpt>
      <trkpt lat="47.48248" lon="-2.35694">
        <ele>42.7</ele>
        <time>2020-06-06T09:14:34Z</time>
      </trkpt>
      <trkpt lat="47.48248" lon="-2.35703">
        <ele>42.7</ele>
        <time>2020-06-06T09:14:35Z</time>
      </trkpt>
      <trkpt lat="47.48248" lon="-2.35713">
        <ele>42.6</ele>
        <time>2020-06-06T09:14:36Z</time>
      </trkpt>
      <trkpt lat="47.48248" lon="-2.35724">
        <ele>42.5</ele>
        <time>2020-06-06T09:14:37Z</time>
      </trkpt>
      <trkpt lat="47.48248" lon="-2.35734">
        <ele>42.4</ele>
        <time>2020-06-06T09:14:38Z</time>
      </trkpt>
      <trkpt lat="47.48248" lon="-2.35743">
        <ele>42.3</ele>
        <time>2020-06-06T09:14:39Z</time>
      </trkpt>
      <trkpt lat="47.48247" lon="-2.35753">
        <ele>42</ele>
        <time>2020-06-06T09:14:40Z</time>
      </trkpt>
      <trkpt lat="47.48247" lon="-2.35763">
        <ele>41.8</ele>
        <time>2020-06-06T09:14:41Z</time>
      </trkpt>
      <trkpt lat="47.48246" lon="-2.35773">
        <ele>41.6</ele>
        <time>2020-06-06T09:14:42Z</time>
      </trkpt>
      <trkpt lat="47.48246" lon="-2.35783">
        <ele>41.5</ele>
        <time>2020-06-06T09:14:43Z</time>
      </trkpt>
      <trkpt lat="47.48246" lon="-2.35793">
        <ele>41.4</ele>
        <time>2020-06-06T09:14:44Z</time>
      </trkpt>
      <trkpt lat="47.48246" lon="-2.35803">
        <ele>41.3</ele>
        <time>2020-06-06T09:14:45Z</time>
      </trkpt>
      <trkpt lat="47.48246" lon="-2.35813">
        <ele>41.2</ele>
        <time>2020-06-06T09:14:46Z</time>
      </trkpt>
      <trkpt lat="47.48245" lon="-2.35824">
        <ele>41.1</ele>
        <time>2020-06-06T09:14:47Z</time>
      </trkpt>
      <trkpt lat="47.48246" lon="-2.35834">
        <ele>41.1</ele>
        <time>2020-06-06T09:14:48Z</time>
      </trkpt>
      <trkpt lat="47.48246" lon="-2.35844">
        <ele>41</ele>
        <time>2020-06-06T09:14:49Z</time>
      </trkpt>
      <trkpt lat="47.48246" lon="-2.35854">
        <ele>41</ele>
        <time>2020-06-06T09:14:50Z</time>
      </trkpt>
      <trkpt lat="47.48245" lon="-2.35865">
        <ele>41</ele>
        <time>2020-06-06T09:14:51Z</time>
      </trkpt>
      <trkpt lat="47.48245" lon="-2.35875">
        <ele>41</ele>
        <time>2020-06-06T09:14:52Z</time>
      </trkpt>
      <trkpt lat="47.48245" lon="-2.35884">
        <ele>41</ele>
        <time>2020-06-06T09:14:53Z</time>
      </trkpt>
      <trkpt lat="47.48245" lon="-2.35893">
        <ele>41.1</ele>
        <time>2020-06-06T09:14:54Z</time>
      </trkpt>
      <trkpt lat="47.48245" lon="-2.35902">
        <ele>41.2</ele>
        <time>2020-06-06T09:14:55Z</time>
      </trkpt>
      <trkpt lat="47.48245" lon="-2.35912">
        <ele>41.2</ele>
        <time>2020-06-06T09:14:56Z</time>
      </trkpt>
      <trkpt lat="47.48245" lon="-2.35921">
        <ele>41.3</ele>
        <time>2020-06-06T09:14:57Z</time>
      </trkpt>
      <trkpt lat="47.48246" lon="-2.3593">
        <ele>41.4</ele>
        <time>2020-06-06T09:14:58Z</time>
      </trkpt>
      <trkpt lat="47.48246" lon="-2.3594">
        <ele>41.5</ele>
        <time>2020-06-06T09:14:59Z</time>
      </trkpt>
      <trkpt lat="47.48245" lon="-2.35949">
        <ele>41.6</ele>
        <time>2020-06-06T09:15:00Z</time>
      </trkpt>
      <trkpt lat="47.48245" lon="-2.35958">
        <ele>41.7</ele>
        <time>2020-06-06T09:15:01Z</time>
      </trkpt>
      <trkpt lat="47.48245" lon="-2.35967">
        <ele>41.8</ele>
        <time>2020-06-06T09:15:02Z</time>
      </trkpt>
      <trkpt lat="47.48244" lon="-2.35976">
        <ele>41.9</ele>
        <time>2020-06-06T09:15:03Z</time>
      </trkpt>
      <trkpt lat="47.48245" lon="-2.35985">
        <ele>42.1</ele>
        <time>2020-06-06T09:15:04Z</time>
      </trkpt>
      <trkpt lat="47.48247" lon="-2.35995">
        <ele>42.2</ele>
        <time>2020-06-06T09:15:05Z</time>
      </trkpt>
      <trkpt lat="47.48246" lon="-2.36004">
        <ele>42.4</ele>
        <time>2020-06-06T09:15:06Z</time>
      </trkpt>
      <trkpt lat="47.48246" lon="-2.36012">
        <ele>42.6</ele>
        <time>2020-06-06T09:15:07Z</time>
      </trkpt>
      <trkpt lat="47.48246" lon="-2.36021">
        <ele>42.8</ele>
        <time>2020-06-06T09:15:08Z</time>
      </trkpt>
      <trkpt lat="47.48246" lon="-2.36029">
        <ele>42.9</ele>
        <time>2020-06-06T09:15:09Z</time>
      </trkpt>
      <trkpt lat="47.48247" lon="-2.36037">
        <ele>43</ele>
        <time>2020-06-06T09:15:10Z</time>
      </trkpt>
      <trkpt lat="47.48247" lon="-2.36046">
        <ele>43.1</ele>
        <time>2020-06-06T09:15:11Z</time>
      </trkpt>
      <trkpt lat="47.48248" lon="-2.36054">
        <ele>43.2</ele>
        <time>2020-06-06T09:15:12Z</time>
      </trkpt>
      <trkpt lat="47.48249" lon="-2.36062">
        <ele>43.3</ele>
        <time>2020-06-06T09:15:13Z</time>
      </trkpt>
      <trkpt lat="47.48249" lon="-2.36071">
        <ele>43.4</ele>
        <time>2020-06-06T09:15:14Z</time>
      </trkpt>
      <trkpt lat="47.48249" lon="-2.36079">
        <ele>43.5</ele>
        <time>2020-06-06T09:15:15Z</time>
      </trkpt>
      <trkpt lat="47.4825" lon="-2.36087">
        <ele>43.6</ele>
        <time>2020-06-06T09:15:16Z</time>
      </trkpt>
      <trkpt lat="47.48251" lon="-2.36096">
        <ele>43.7</ele>
        <time>2020-06-06T09:15:17Z</time>
      </trkpt>
      <trkpt lat="47.48252" lon="-2.36105">
        <ele>43.8</ele>
        <time>2020-06-06T09:15:18Z</time>
      </trkpt>
      <trkpt lat="47.48252" lon="-2.36114">
        <ele>43.9</ele>
        <time>2020-06-06T09:15:19Z</time>
      </trkpt>
      <trkpt lat="47.48254" lon="-2.36123">
        <ele>44</ele>
        <time>2020-06-06T09:15:20Z</time>
      </trkpt>
      <trkpt lat="47.48253" lon="-2.36133">
        <ele>44.2</ele>
        <time>2020-06-06T09:15:21Z</time>
      </trkpt>
      <trkpt lat="47.48254" lon="-2.36144">
        <ele>44.3</ele>
        <time>2020-06-06T09:15:22Z</time>
      </trkpt>
      <trkpt lat="47.48254" lon="-2.36154">
        <ele>44.5</ele>
        <time>2020-06-06T09:15:23Z</time>
      </trkpt>
      <trkpt lat="47.48255" lon="-2.36164">
        <ele>44.7</ele>
        <time>2020-06-06T09:15:24Z</time>
      </trkpt>
      <trkpt lat="47.48255" lon="-2.36174">
        <ele>44.8</ele>
        <time>2020-06-06T09:15:25Z</time>
      </trkpt>
      <trkpt lat="47.48256" lon="-2.36185">
        <ele>45</ele>
        <time>2020-06-06T09:15:26Z</time>
      </trkpt>
      <trkpt lat="47.48255" lon="-2.36192">
        <ele>45.1</ele>
        <time>2020-06-06T09:15:27Z</time>
      </trkpt>
      <trkpt lat="47.48256" lon="-2.36203">
        <ele>45.3</ele>
        <time>2020-06-06T09:15:28Z</time>
      </trkpt>
      <trkpt lat="47.48257" lon="-2.36213">
        <ele>45.5</ele>
        <time>2020-06-06T09:15:29Z</time>
      </trkpt>
      <trkpt lat="47.48257" lon="-2.36222">
        <ele>45.6</ele>
        <time>2020-06-06T09:15:30Z</time>
      </trkpt>
      <trkpt lat="47.48257" lon="-2.36231">
        <ele>45.7</ele>
        <time>2020-06-06T09:15:31Z</time>
      </trkpt>
      <trkpt lat="47.48257" lon="-2.3624">
        <ele>45.9</ele>
        <time>2020-06-06T09:15:32Z</time>
      </trkpt>
      <trkpt lat="47.48256" lon="-2.36247">
        <ele>46</ele>
        <time>2020-06-06T09:15:33Z</time>
      </trkpt>
      <trkpt lat="47.48256" lon="-2.36255">
        <ele>46.1</ele>
        <time>2020-06-06T09:15:34Z</time>
      </trkpt>
      <trkpt lat="47.48256" lon="-2.36265">
        <ele>46.3</ele>
        <time>2020-06-06T09:15:35Z</time>
      </trkpt>
      <trkpt lat="47.48256" lon="-2.36276">
        <ele>46.5</ele>
        <time>2020-06-06T09:15:36Z</time>
      </trkpt>
      <trkpt lat="47.48256" lon="-2.36287">
        <ele>46.7</ele>
        <time>2020-06-06T09:15:37Z</time>
      </trkpt>
      <trkpt lat="47.48257" lon="-2.36297">
        <ele>46.8</ele>
        <time>2020-06-06T09:15:38Z</time>
      </trkpt>
      <trkpt lat="47.48257" lon="-2.36305">
        <ele>47</ele>
        <time>2020-06-06T09:15:39Z</time>
      </trkpt>
      <trkpt lat="47.48257" lon="-2.36313">
        <ele>47.1</ele>
        <time>2020-06-06T09:15:40Z</time>
      </trkpt>
      <trkpt lat="47.48257" lon="-2.36321">
        <ele>47.2</ele>
        <time>2020-06-06T09:15:41Z</time>
      </trkpt>
      <trkpt lat="47.48259" lon="-2.36329">
        <ele>47.4</ele>
        <time>2020-06-06T09:15:42Z</time>
      </trkpt>
      <trkpt lat="47.48261" lon="-2.36337">
        <ele>47.5</ele>
        <time>2020-06-06T09:15:43Z</time>
      </trkpt>
      <trkpt lat="47.48262" lon="-2.36345">
        <ele>47.6</ele>
        <time>2020-06-06T09:15:44Z</time>
      </trkpt>
      <trkpt lat="47.48262" lon="-2.36352">
        <ele>47.7</ele>
        <time>2020-06-06T09:15:45Z</time>
      </trkpt>
      <trkpt lat="47.48263" lon="-2.36361">
        <ele>47.8</ele>
        <time>2020-06-06T09:15:46Z</time>
      </trkpt>
      <trkpt lat="47.48263" lon="-2.36371">
        <ele>48</ele>
        <time>2020-06-06T09:15:47Z</time>
      </trkpt>
      <trkpt lat="47.48262" lon="-2.3638">
        <ele>48.1</ele>
        <time>2020-06-06T09:15:48Z</time>
      </trkpt>
      <trkpt lat="47.48262" lon="-2.36388">
        <ele>48.2</ele>
        <time>2020-06-06T09:15:49Z</time>
      </trkpt>
      <trkpt lat="47.48262" lon="-2.36396">
        <ele>48.3</ele>
        <time>2020-06-06T09:15:50Z</time>
      </trkpt>
      <trkpt lat="47.48262" lon="-2.36404">
        <ele>48.4</ele>
        <time>2020-06-06T09:15:51Z</time>
      </trkpt>
      <trkpt lat="47.48262" lon="-2.36413">
        <ele>48.5</ele>
        <time>2020-06-06T09:15:52Z</time>
      </trkpt>
      <trkpt lat="47.48263" lon="-2.36422">
        <ele>48.5</ele>
        <time>2020-06-06T09:15:53Z</time>
      </trkpt>
      <trkpt lat="47.48263" lon="-2.36431">
        <ele>48.6</ele>
        <time>2020-06-06T09:15:54Z</time>
      </trkpt>
      <trkpt lat="47.48263" lon="-2.36439">
        <ele>48.7</ele>
        <time>2020-06-06T09:15:55Z</time>
      </trkpt>
      <trkpt lat="47.48263" lon="-2.36447">
        <ele>48.8</ele>
        <time>2020-06-06T09:15:56Z</time>
      </trkpt>
      <trkpt lat="47.48262" lon="-2.36456">
        <ele>48.8</ele>
        <time>2020-06-06T09:15:57Z</time>
      </trkpt>
      <trkpt lat="47.48262" lon="-2.36465">
        <ele>48.9</ele>
        <time>2020-06-06T09:15:58Z</time>
      </trkpt>
      <trkpt lat="47.48261" lon="-2.36473">
        <ele>49</ele>
        <time>2020-06-06T09:15:59Z</time>
      </trkpt>
      <trkpt lat="47.48261" lon="-2.36482">
        <ele>49.1</ele>
        <time>2020-06-06T09:16:00Z</time>
      </trkpt>
      <trkpt lat="47.48261" lon="-2.3649">
        <ele>49.1</ele>
        <time>2020-06-06T09:16:01Z</time>
      </trkpt>
      <trkpt lat="47.48262" lon="-2.36498">
        <ele>49.2</ele>
        <time>2020-06-06T09:16:02Z</time>
      </trkpt>
      <trkpt lat="47.48263" lon="-2.36505">
        <ele>49.2</ele>
        <time>2020-06-06T09:16:03Z</time>
      </trkpt>
      <trkpt lat="47.48263" lon="-2.36515">
        <ele>49.3</ele>
        <time>2020-06-06T09:16:04Z</time>
      </trkpt>
      <trkpt lat="47.48263" lon="-2.36526">
        <ele>49.3</ele>
        <time>2020-06-06T09:16:05Z</time>
      </trkpt>
      <trkpt lat="47.48263" lon="-2.36535">
        <ele>49.4</ele>
        <time>2020-06-06T09:16:06Z</time>
      </trkpt>
      <trkpt lat="47.48263" lon="-2.36545">
        <ele>49.5</ele>
        <time>2020-06-06T09:16:07Z</time>
      </trkpt>
      <trkpt lat="47.48263" lon="-2.36554">
        <ele>49.5</ele>
        <time>2020-06-06T09:16:08Z</time>
      </trkpt>
      <trkpt lat="47.48263" lon="-2.36561">
        <ele>49.6</ele>
        <time>2020-06-06T09:16:09Z</time>
      </trkpt>
      <trkpt lat="47.48263" lon="-2.36569">
        <ele>49.7</ele>
        <time>2020-06-06T09:16:10Z</time>
      </trkpt>
      <trkpt lat="47.48264" lon="-2.36577">
        <ele>49.8</ele>
        <time>2020-06-06T09:16:11Z</time>
      </trkpt>
      <trkpt lat="47.48264" lon="-2.36585">
        <ele>49.9</ele>
        <time>2020-06-06T09:16:12Z</time>
      </trkpt>
      <trkpt lat="47.48265" lon="-2.36595">
        <ele>49.9</ele>
        <time>2020-06-06T09:16:13Z</time>
      </trkpt>
      <trkpt lat="47.48265" lon="-2.36602">
        <ele>49.9</ele>
        <time>2020-06-06T09:16:14Z</time>
      </trkpt>
      <trkpt lat="47.48266" lon="-2.36611">
        <ele>50</ele>
        <time>2020-06-06T09:16:15Z</time>
      </trkpt>
      <trkpt lat="47.48267" lon="-2.36619">
        <ele>50</ele>
        <time>2020-06-06T09:16:16Z</time>
      </trkpt>
      <trkpt lat="47.48267" lon="-2.36629">
        <ele>50</ele>
        <time>2020-06-06T09:16:17Z</time>
      </trkpt>
      <trkpt lat="47.48267" lon="-2.36638">
        <ele>50</ele>
        <time>2020-06-06T09:16:18Z</time>
      </trkpt>
      <trkpt lat="47.48267" lon="-2.36647">
        <ele>50</ele>
        <time>2020-06-06T09:16:19Z</time>
      </trkpt>
      <trkpt lat="47.48268" lon="-2.36656">
        <ele>50</ele>
        <time>2020-06-06T09:16:20Z</time>
      </trkpt>
      <trkpt lat="47.48268" lon="-2.36665">
        <ele>50</ele>
        <time>2020-06-06T09:16:21Z</time>
      </trkpt>
      <trkpt lat="47.48269" lon="-2.36674">
        <ele>50</ele>
        <time>2020-06-06T09:16:22Z</time>
      </trkpt>
      <trkpt lat="47.48269" lon="-2.36683">
        <ele>50</ele>
        <time>2020-06-06T09:16:23Z</time>
      </trkpt>
      <trkpt lat="47.48268" lon="-2.36694">
        <ele>50</ele>
        <time>2020-06-06T09:16:24Z</time>
      </trkpt>
      <trkpt lat="47.48268" lon="-2.36704">
        <ele>50</ele>
        <time>2020-06-06T09:16:25Z</time>
      </trkpt>
      <trkpt lat="47.48268" lon="-2.36714">
        <ele>50</ele>
        <time>2020-06-06T09:16:26Z</time>
      </trkpt>
      <trkpt lat="47.48268" lon="-2.36723">
        <ele>50</ele>
        <time>2020-06-06T09:16:27Z</time>
      </trkpt>
      <trkpt lat="47.48267" lon="-2.36733">
        <ele>50</ele>
        <time>2020-06-06T09:16:28Z</time>
      </trkpt>
      <trkpt lat="47.48267" lon="-2.36743">
        <ele>50</ele>
        <time>2020-06-06T09:16:29Z</time>
      </trkpt>
      <trkpt lat="47.48267" lon="-2.36753">
        <ele>50</ele>
        <time>2020-06-06T09:16:30Z</time>
      </trkpt>
      <trkpt lat="47.48267" lon="-2.36763">
        <ele>49.9</ele>
        <time>2020-06-06T09:16:31Z</time>
      </trkpt>
      <trkpt lat="47.48267" lon="-2.36772">
        <ele>49.8</ele>
        <time>2020-06-06T09:16:32Z</time>
      </trkpt>
      <trkpt lat="47.48267" lon="-2.36782">
        <ele>49.8</ele>
        <time>2020-06-06T09:16:33Z</time>
      </trkpt>
      <trkpt lat="47.48267" lon="-2.36792">
        <ele>49.8</ele>
        <time>2020-06-06T09:16:34Z</time>
      </trkpt>
      <trkpt lat="47.48267" lon="-2.36802">
        <ele>49.8</ele>
        <time>2020-06-06T09:16:35Z</time>
      </trkpt>
      <trkpt lat="47.48267" lon="-2.36812">
        <ele>49.7</ele>
        <time>2020-06-06T09:16:36Z</time>
      </trkpt>
      <trkpt lat="47.48267" lon="-2.36823">
        <ele>49.7</ele>
        <time>2020-06-06T09:16:37Z</time>
      </trkpt>
      <trkpt lat="47.48267" lon="-2.36833">
        <ele>49.6</ele>
        <time>2020-06-06T09:16:38Z</time>
      </trkpt>
      <trkpt lat="47.48267" lon="-2.36844">
        <ele>49.6</ele>
        <time>2020-06-06T09:16:39Z</time>
      </trkpt>
      <trkpt lat="47.48268" lon="-2.36855">
        <ele>49.5</ele>
        <time>2020-06-06T09:16:40Z</time>
      </trkpt>
      <trkpt lat="47.48269" lon="-2.36866">
        <ele>49.5</ele>
        <time>2020-06-06T09:16:41Z</time>
      </trkpt>
      <trkpt lat="47.4827" lon="-2.36877">
        <ele>49.4</ele>
        <time>2020-06-06T09:16:42Z</time>
      </trkpt>
      <trkpt lat="47.4827" lon="-2.36888">
        <ele>49.3</ele>
        <time>2020-06-06T09:16:43Z</time>
      </trkpt>
      <trkpt lat="47.48271" lon="-2.36899">
        <ele>49.2</ele>
        <time>2020-06-06T09:16:44Z</time>
      </trkpt>
      <trkpt lat="47.48271" lon="-2.36909">
        <ele>49.2</ele>
        <time>2020-06-06T09:16:45Z</time>
      </trkpt>
      <trkpt lat="47.48271" lon="-2.3692">
        <ele>49.1</ele>
        <time>2020-06-06T09:16:46Z</time>
      </trkpt>
      <trkpt lat="47.48271" lon="-2.36931">
        <ele>49</ele>
        <time>2020-06-06T09:16:47Z</time>
      </trkpt>
      <trkpt lat="47.48271" lon="-2.36942">
        <ele>48.9</ele>
        <time>2020-06-06T09:16:48Z</time>
      </trkpt>
      <trkpt lat="47.48271" lon="-2.36954">
        <ele>48.6</ele>
        <time>2020-06-06T09:16:49Z</time>
      </trkpt>
      <trkpt lat="47.48272" lon="-2.36965">
        <ele>48.3</ele>
        <time>2020-06-06T09:16:50Z</time>
      </trkpt>
      <trkpt lat="47.48272" lon="-2.36976">
        <ele>48</ele>
        <time>2020-06-06T09:16:51Z</time>
      </trkpt>
      <trkpt lat="47.48272" lon="-2.36988">
        <ele>47.7</ele>
        <time>2020-06-06T09:16:52Z</time>
      </trkpt>
      <trkpt lat="47.48272" lon="-2.37001">
        <ele>47.4</ele>
        <time>2020-06-06T09:16:53Z</time>
      </trkpt>
      <trkpt lat="47.48272" lon="-2.37013">
        <ele>47</ele>
        <time>2020-06-06T09:16:54Z</time>
      </trkpt>
      <trkpt lat="47.48272" lon="-2.37026">
        <ele>46.6</ele>
        <time>2020-06-06T09:16:55Z</time>
      </trkpt>
      <trkpt lat="47.48272" lon="-2.37038">
        <ele>46.3</ele>
        <time>2020-06-06T09:16:56Z</time>
      </trkpt>
      <trkpt lat="47.48272" lon="-2.37051">
        <ele>46</ele>
        <time>2020-06-06T09:16:57Z</time>
      </trkpt>
      <trkpt lat="47.48273" lon="-2.37063">
        <ele>45.6</ele>
        <time>2020-06-06T09:16:58Z</time>
      </trkpt>
      <trkpt lat="47.48273" lon="-2.37074">
        <ele>45.3</ele>
        <time>2020-06-06T09:16:59Z</time>
      </trkpt>
      <trkpt lat="47.48273" lon="-2.37086">
        <ele>45</ele>
        <time>2020-06-06T09:17:00Z</time>
      </trkpt>
      <trkpt lat="47.48273" lon="-2.37097">
        <ele>44.7</ele>
        <time>2020-06-06T09:17:01Z</time>
      </trkpt>
      <trkpt lat="47.48273" lon="-2.37108">
        <ele>44.5</ele>
        <time>2020-06-06T09:17:02Z</time>
      </trkpt>
      <trkpt lat="47.48275" lon="-2.3712">
        <ele>44.1</ele>
        <time>2020-06-06T09:17:03Z</time>
      </trkpt>
      <trkpt lat="47.48275" lon="-2.3713">
        <ele>43.8</ele>
        <time>2020-06-06T09:17:04Z</time>
      </trkpt>
      <trkpt lat="47.48275" lon="-2.3714">
        <ele>43.5</ele>
        <time>2020-06-06T09:17:05Z</time>
      </trkpt>
      <trkpt lat="47.48276" lon="-2.3715">
        <ele>43.2</ele>
        <time>2020-06-06T09:17:06Z</time>
      </trkpt>
      <trkpt lat="47.48277" lon="-2.37162">
        <ele>42.9</ele>
        <time>2020-06-06T09:17:07Z</time>
      </trkpt>
      <trkpt lat="47.48279" lon="-2.37175">
        <ele>42.6</ele>
        <time>2020-06-06T09:17:08Z</time>
      </trkpt>
      <trkpt lat="47.48279" lon="-2.37186">
        <ele>42.3</ele>
        <time>2020-06-06T09:17:09Z</time>
      </trkpt>
      <trkpt lat="47.48279" lon="-2.37198">
        <ele>42</ele>
        <time>2020-06-06T09:17:10Z</time>
      </trkpt>
      <trkpt lat="47.48279" lon="-2.37209">
        <ele>41.8</ele>
        <time>2020-06-06T09:17:11Z</time>
      </trkpt>
      <trkpt lat="47.48279" lon="-2.37221">
        <ele>41.6</ele>
        <time>2020-06-06T09:17:12Z</time>
      </trkpt>
      <trkpt lat="47.48278" lon="-2.37232">
        <ele>41.4</ele>
        <time>2020-06-06T09:17:13Z</time>
      </trkpt>
      <trkpt lat="47.48278" lon="-2.37243">
        <ele>41.4</ele>
        <time>2020-06-06T09:17:14Z</time>
      </trkpt>
      <trkpt lat="47.48279" lon="-2.37255">
        <ele>41.4</ele>
        <time>2020-06-06T09:17:15Z</time>
      </trkpt>
      <trkpt lat="47.48279" lon="-2.37266">
        <ele>41.4</ele>
        <time>2020-06-06T09:17:16Z</time>
      </trkpt>
      <trkpt lat="47.48278" lon="-2.37277">
        <ele>41.4</ele>
        <time>2020-06-06T09:17:17Z</time>
      </trkpt>
      <trkpt lat="47.48277" lon="-2.37287">
        <ele>41.4</ele>
        <time>2020-06-06T09:17:18Z</time>
      </trkpt>
      <trkpt lat="47.48277" lon="-2.37297">
        <ele>41.4</ele>
        <time>2020-06-06T09:17:19Z</time>
      </trkpt>
      <trkpt lat="47.48278" lon="-2.37308">
        <ele>41.4</ele>
        <time>2020-06-06T09:17:20Z</time>
      </trkpt>
      <trkpt lat="47.48279" lon="-2.37318">
        <ele>41.4</ele>
        <time>2020-06-06T09:17:21Z</time>
      </trkpt>
      <trkpt lat="47.4828" lon="-2.37327">
        <ele>41.4</ele>
        <time>2020-06-06T09:17:22Z</time>
      </trkpt>
      <trkpt lat="47.48281" lon="-2.37337">
        <ele>41.4</ele>
        <time>2020-06-06T09:17:23Z</time>
      </trkpt>
      <trkpt lat="47.48282" lon="-2.37348">
        <ele>41.4</ele>
        <time>2020-06-06T09:17:24Z</time>
      </trkpt>
      <trkpt lat="47.48283" lon="-2.37358">
        <ele>41.4</ele>
        <time>2020-06-06T09:17:25Z</time>
      </trkpt>
      <trkpt lat="47.48283" lon="-2.37369">
        <ele>41.3</ele>
        <time>2020-06-06T09:17:26Z</time>
      </trkpt>
      <trkpt lat="47.48284" lon="-2.3738">
        <ele>41.3</ele>
        <time>2020-06-06T09:17:27Z</time>
      </trkpt>
      <trkpt lat="47.48284" lon="-2.3739">
        <ele>41.3</ele>
        <time>2020-06-06T09:17:28Z</time>
      </trkpt>
      <trkpt lat="47.48285" lon="-2.37401">
        <ele>41.2</ele>
        <time>2020-06-06T09:17:29Z</time>
      </trkpt>
      <trkpt lat="47.48285" lon="-2.37412">
        <ele>41.2</ele>
        <time>2020-06-06T09:17:30Z</time>
      </trkpt>
      <trkpt lat="47.48284" lon="-2.37422">
        <ele>41.2</ele>
        <time>2020-06-06T09:17:31Z</time>
      </trkpt>
      <trkpt lat="47.48283" lon="-2.37431">
        <ele>41.2</ele>
        <time>2020-06-06T09:17:32Z</time>
      </trkpt>
      <trkpt lat="47.48281" lon="-2.37442">
        <ele>41.1</ele>
        <time>2020-06-06T09:17:33Z</time>
      </trkpt>
      <trkpt lat="47.4828" lon="-2.37453">
        <ele>41.1</ele>
        <time>2020-06-06T09:17:34Z</time>
      </trkpt>
      <trkpt lat="47.48279" lon="-2.37464">
        <ele>41.2</ele>
        <time>2020-06-06T09:17:35Z</time>
      </trkpt>
      <trkpt lat="47.48278" lon="-2.37474">
        <ele>41.2</ele>
        <time>2020-06-06T09:17:36Z</time>
      </trkpt>
      <trkpt lat="47.48277" lon="-2.37485">
        <ele>41.2</ele>
        <time>2020-06-06T09:17:37Z</time>
      </trkpt>
      <trkpt lat="47.48277" lon="-2.37496">
        <ele>41.3</ele>
        <time>2020-06-06T09:17:38Z</time>
      </trkpt>
      <trkpt lat="47.48278" lon="-2.37507">
        <ele>41.3</ele>
        <time>2020-06-06T09:17:39Z</time>
      </trkpt>
      <trkpt lat="47.48278" lon="-2.37517">
        <ele>41.3</ele>
        <time>2020-06-06T09:17:40Z</time>
      </trkpt>
      <trkpt lat="47.48279" lon="-2.37528">
        <ele>41.4</ele>
        <time>2020-06-06T09:17:41Z</time>
      </trkpt>
      <trkpt lat="47.48279" lon="-2.37538">
        <ele>41.4</ele>
        <time>2020-06-06T09:17:42Z</time>
      </trkpt>
      <trkpt lat="47.48279" lon="-2.37548">
        <ele>41.4</ele>
        <time>2020-06-06T09:17:43Z</time>
      </trkpt>
      <trkpt lat="47.4828" lon="-2.37558">
        <ele>41.5</ele>
        <time>2020-06-06T09:17:44Z</time>
      </trkpt>
      <trkpt lat="47.48281" lon="-2.37569">
        <ele>41.6</ele>
        <time>2020-06-06T09:17:45Z</time>
      </trkpt>
      <trkpt lat="47.48281" lon="-2.37579">
        <ele>41.6</ele>
        <time>2020-06-06T09:17:46Z</time>
      </trkpt>
      <trkpt lat="47.48282" lon="-2.3759">
        <ele>41.7</ele>
        <time>2020-06-06T09:17:47Z</time>
      </trkpt>
      <trkpt lat="47.48283" lon="-2.37601">
        <ele>41.6</ele>
        <time>2020-06-06T09:17:48Z</time>
      </trkpt>
      <trkpt lat="47.48283" lon="-2.37612">
        <ele>41.4</ele>
        <time>2020-06-06T09:17:49Z</time>
      </trkpt>
      <trkpt lat="47.48282" lon="-2.37622">
        <ele>41.3</ele>
        <time>2020-06-06T09:17:50Z</time>
      </trkpt>
      <trkpt lat="47.48282" lon="-2.37633">
        <ele>41.2</ele>
        <time>2020-06-06T09:17:51Z</time>
      </trkpt>
      <trkpt lat="47.48281" lon="-2.37644">
        <ele>41.2</ele>
        <time>2020-06-06T09:17:52Z</time>
      </trkpt>
      <trkpt lat="47.4828" lon="-2.37654">
        <ele>41.3</ele>
        <time>2020-06-06T09:17:53Z</time>
      </trkpt>
      <trkpt lat="47.4828" lon="-2.37665">
        <ele>41.3</ele>
        <time>2020-06-06T09:17:54Z</time>
      </trkpt>
      <trkpt lat="47.4828" lon="-2.37675">
        <ele>41.3</ele>
        <time>2020-06-06T09:17:55Z</time>
      </trkpt>
      <trkpt lat="47.48281" lon="-2.37686">
        <ele>41.3</ele>
        <time>2020-06-06T09:17:56Z</time>
      </trkpt>
      <trkpt lat="47.48282" lon="-2.37697">
        <ele>41.3</ele>
        <time>2020-06-06T09:17:57Z</time>
      </trkpt>
      <trkpt lat="47.48281" lon="-2.37708">
        <ele>41.3</ele>
        <time>2020-06-06T09:17:58Z</time>
      </trkpt>
      <trkpt lat="47.4828" lon="-2.37719">
        <ele>41.4</ele>
        <time>2020-06-06T09:17:59Z</time>
      </trkpt>
      <trkpt lat="47.48281" lon="-2.3773">
        <ele>41.4</ele>
        <time>2020-06-06T09:18:00Z</time>
      </trkpt>
      <trkpt lat="47.4828" lon="-2.3774">
        <ele>41.4</ele>
        <time>2020-06-06T09:18:01Z</time>
      </trkpt>
      <trkpt lat="47.48281" lon="-2.37751">
        <ele>41.4</ele>
        <time>2020-06-06T09:18:02Z</time>
      </trkpt>
      <trkpt lat="47.48281" lon="-2.37762">
        <ele>41.4</ele>
        <time>2020-06-06T09:18:03Z</time>
      </trkpt>
      <trkpt lat="47.48282" lon="-2.37774">
        <ele>41.3</ele>
        <time>2020-06-06T09:18:04Z</time>
      </trkpt>
      <trkpt lat="47.48283" lon="-2.37785">
        <ele>41.3</ele>
        <time>2020-06-06T09:18:05Z</time>
      </trkpt>
      <trkpt lat="47.48283" lon="-2.37796">
        <ele>41.2</ele>
        <time>2020-06-06T09:18:06Z</time>
      </trkpt>
      <trkpt lat="47.48284" lon="-2.37807">
        <ele>41.2</ele>
        <time>2020-06-06T09:18:07Z</time>
      </trkpt>
      <trkpt lat="47.48284" lon="-2.37818">
        <ele>41.1</ele>
        <time>2020-06-06T09:18:08Z</time>
      </trkpt>
      <trkpt lat="47.48284" lon="-2.37829">
        <ele>41</ele>
        <time>2020-06-06T09:18:09Z</time>
      </trkpt>
      <trkpt lat="47.48285" lon="-2.37839">
        <ele>40.9</ele>
        <time>2020-06-06T09:18:10Z</time>
      </trkpt>
      <trkpt lat="47.48285" lon="-2.3785">
        <ele>40.8</ele>
        <time>2020-06-06T09:18:11Z</time>
      </trkpt>
      <trkpt lat="47.48285" lon="-2.3786">
        <ele>40.7</ele>
        <time>2020-06-06T09:18:12Z</time>
      </trkpt>
      <trkpt lat="47.48286" lon="-2.3787">
        <ele>40.7</ele>
        <time>2020-06-06T09:18:13Z</time>
      </trkpt>
      <trkpt lat="47.48287" lon="-2.3788">
        <ele>40.6</ele>
        <time>2020-06-06T09:18:14Z</time>
      </trkpt>
      <trkpt lat="47.48287" lon="-2.37889">
        <ele>40.6</ele>
        <time>2020-06-06T09:18:15Z</time>
      </trkpt>
      <trkpt lat="47.48288" lon="-2.37898">
        <ele>40.6</ele>
        <time>2020-06-06T09:18:16Z</time>
      </trkpt>
      <trkpt lat="47.48289" lon="-2.37906">
        <ele>40.5</ele>
        <time>2020-06-06T09:18:17Z</time>
      </trkpt>
      <trkpt lat="47.48292" lon="-2.37914">
        <ele>40.5</ele>
        <time>2020-06-06T09:18:18Z</time>
      </trkpt>
      <trkpt lat="47.48294" lon="-2.37922">
        <ele>40.6</ele>
        <time>2020-06-06T09:18:19Z</time>
      </trkpt>
      <trkpt lat="47.48297" lon="-2.37929">
        <ele>40.6</ele>
        <time>2020-06-06T09:18:20Z</time>
      </trkpt>
      <trkpt lat="47.48301" lon="-2.37936">
        <ele>40</ele>
        <time>2020-06-06T09:18:21Z</time>
      </trkpt>
      <trkpt lat="47.48307" lon="-2.37943">
        <ele>39.8</ele>
        <time>2020-06-06T09:18:22Z</time>
      </trkpt>
      <trkpt lat="47.48312" lon="-2.37949">
        <ele>39.6</ele>
        <time>2020-06-06T09:18:23Z</time>
      </trkpt>
      <trkpt lat="47.48318" lon="-2.37954">
        <ele>39.4</ele>
        <time>2020-06-06T09:18:24Z</time>
      </trkpt>
      <trkpt lat="47.48324" lon="-2.37959">
        <ele>39.2</ele>
        <time>2020-06-06T09:18:25Z</time>
      </trkpt>
      <trkpt lat="47.4833" lon="-2.37964">
        <ele>39</ele>
        <time>2020-06-06T09:18:26Z</time>
      </trkpt>
      <trkpt lat="47.48336" lon="-2.3797">
        <ele>38.8</ele>
        <time>2020-06-06T09:18:27Z</time>
      </trkpt>
      <trkpt lat="47.48342" lon="-2.37977">
        <ele>38.6</ele>
        <time>2020-06-06T09:18:28Z</time>
      </trkpt>
      <trkpt lat="47.48347" lon="-2.37984">
        <ele>38.4</ele>
        <time>2020-06-06T09:18:29Z</time>
      </trkpt>
      <trkpt lat="47.48353" lon="-2.3799">
        <ele>38.2</ele>
        <time>2020-06-06T09:18:30Z</time>
      </trkpt>
      <trkpt lat="47.48359" lon="-2.37997">
        <ele>37.9</ele>
        <time>2020-06-06T09:18:31Z</time>
      </trkpt>
      <trkpt lat="47.48364" lon="-2.38004">
        <ele>37.7</ele>
        <time>2020-06-06T09:18:32Z</time>
      </trkpt>
      <trkpt lat="47.4837" lon="-2.38011">
        <ele>37.5</ele>
        <time>2020-06-06T09:18:33Z</time>
      </trkpt>
      <trkpt lat="47.48377" lon="-2.38017">
        <ele>37.3</ele>
        <time>2020-06-06T09:18:34Z</time>
      </trkpt>
      <trkpt lat="47.48383" lon="-2.38023">
        <ele>37.1</ele>
        <time>2020-06-06T09:18:35Z</time>
      </trkpt>
      <trkpt lat="47.4839" lon="-2.38029">
        <ele>37</ele>
        <time>2020-06-06T09:18:36Z</time>
      </trkpt>
      <trkpt lat="47.48395" lon="-2.38036">
        <ele>36.9</ele>
        <time>2020-06-06T09:18:37Z</time>
      </trkpt>
      <trkpt lat="47.48402" lon="-2.38042">
        <ele>36.8</ele>
        <time>2020-06-06T09:18:39Z</time>
      </trkpt>
      <trkpt lat="47.48408" lon="-2.38047">
        <ele>36.6</ele>
        <time>2020-06-06T09:18:40Z</time>
      </trkpt>
      <trkpt lat="47.48414" lon="-2.38053">
        <ele>36.5</ele>
        <time>2020-06-06T09:18:41Z</time>
      </trkpt>
      <trkpt lat="47.4842" lon="-2.38059">
        <ele>36.4</ele>
        <time>2020-06-06T09:18:42Z</time>
      </trkpt>
      <trkpt lat="47.48427" lon="-2.38066">
        <ele>36.2</ele>
        <time>2020-06-06T09:18:43Z</time>
      </trkpt>
      <trkpt lat="47.48434" lon="-2.38072">
        <ele>36.1</ele>
        <time>2020-06-06T09:18:44Z</time>
      </trkpt>
      <trkpt lat="47.4844" lon="-2.38078">
        <ele>36</ele>
        <time>2020-06-06T09:18:45Z</time>
      </trkpt>
      <trkpt lat="47.48447" lon="-2.38084">
        <ele>35.9</ele>
        <time>2020-06-06T09:18:46Z</time>
      </trkpt>
      <trkpt lat="47.48453" lon="-2.38089">
        <ele>35.8</ele>
        <time>2020-06-06T09:18:47Z</time>
      </trkpt>
      <trkpt lat="47.4846" lon="-2.38095">
        <ele>35.7</ele>
        <time>2020-06-06T09:18:48Z</time>
      </trkpt>
      <trkpt lat="47.48466" lon="-2.38101">
        <ele>35.5</ele>
        <time>2020-06-06T09:18:49Z</time>
      </trkpt>
      <trkpt lat="47.48474" lon="-2.38107">
        <ele>35.4</ele>
        <time>2020-06-06T09:18:50Z</time>
      </trkpt>
      <trkpt lat="47.48481" lon="-2.38112">
        <ele>35.3</ele>
        <time>2020-06-06T09:18:51Z</time>
      </trkpt>
      <trkpt lat="47.48487" lon="-2.38118">
        <ele>35.1</ele>
        <time>2020-06-06T09:18:52Z</time>
      </trkpt>
      <trkpt lat="47.48494" lon="-2.38124">
        <ele>35</ele>
        <time>2020-06-06T09:18:53Z</time>
      </trkpt>
      <trkpt lat="47.48501" lon="-2.3813">
        <ele>34.9</ele>
        <time>2020-06-06T09:18:54Z</time>
      </trkpt>
      <trkpt lat="47.48507" lon="-2.38137">
        <ele>34.8</ele>
        <time>2020-06-06T09:18:55Z</time>
      </trkpt>
      <trkpt lat="47.48514" lon="-2.38143">
        <ele>34.7</ele>
        <time>2020-06-06T09:18:56Z</time>
      </trkpt>
      <trkpt lat="47.4852" lon="-2.38149">
        <ele>34.5</ele>
        <time>2020-06-06T09:18:57Z</time>
      </trkpt>
      <trkpt lat="47.48527" lon="-2.38154">
        <ele>34.4</ele>
        <time>2020-06-06T09:18:58Z</time>
      </trkpt>
      <trkpt lat="47.48534" lon="-2.38159">
        <ele>34.3</ele>
        <time>2020-06-06T09:18:59Z</time>
      </trkpt>
      <trkpt lat="47.48542" lon="-2.38165">
        <ele>34.2</ele>
        <time>2020-06-06T09:19:00Z</time>
      </trkpt>
      <trkpt lat="47.48549" lon="-2.3817">
        <ele>34.1</ele>
        <time>2020-06-06T09:19:01Z</time>
      </trkpt>
      <trkpt lat="47.48556" lon="-2.38176">
        <ele>34</ele>
        <time>2020-06-06T09:19:02Z</time>
      </trkpt>
      <trkpt lat="47.48563" lon="-2.38182">
        <ele>33.9</ele>
        <time>2020-06-06T09:19:03Z</time>
      </trkpt>
      <trkpt lat="47.4857" lon="-2.38187">
        <ele>33.8</ele>
        <time>2020-06-06T09:19:04Z</time>
      </trkpt>
      <trkpt lat="47.48578" lon="-2.38192">
        <ele>33.8</ele>
        <time>2020-06-06T09:19:05Z</time>
      </trkpt>
      <trkpt lat="47.48585" lon="-2.38196">
        <ele>33.7</ele>
        <time>2020-06-06T09:19:06Z</time>
      </trkpt>
      <trkpt lat="47.48592" lon="-2.382">
        <ele>33.7</ele>
        <time>2020-06-06T09:19:07Z</time>
      </trkpt>
      <trkpt lat="47.486" lon="-2.38204">
        <ele>33.6</ele>
        <time>2020-06-06T09:19:08Z</time>
      </trkpt>
      <trkpt lat="47.48607" lon="-2.38208">
        <ele>33.6</ele>
        <time>2020-06-06T09:19:09Z</time>
      </trkpt>
      <trkpt lat="47.48614" lon="-2.38212">
        <ele>33.5</ele>
        <time>2020-06-06T09:19:10Z</time>
      </trkpt>
      <trkpt lat="47.48621" lon="-2.38217">
        <ele>33.5</ele>
        <time>2020-06-06T09:19:11Z</time>
      </trkpt>
      <trkpt lat="47.48628" lon="-2.3822">
        <ele>33.5</ele>
        <time>2020-06-06T09:19:12Z</time>
      </trkpt>
      <trkpt lat="47.48636" lon="-2.38223">
        <ele>33.5</ele>
        <time>2020-06-06T09:19:13Z</time>
      </trkpt>
      <trkpt lat="47.48642" lon="-2.38227">
        <ele>33.5</ele>
        <time>2020-06-06T09:19:14Z</time>
      </trkpt>
      <trkpt lat="47.48649" lon="-2.38231">
        <ele>33.5</ele>
        <time>2020-06-06T09:19:15Z</time>
      </trkpt>
      <trkpt lat="47.48656" lon="-2.38234">
        <ele>33.5</ele>
        <time>2020-06-06T09:19:16Z</time>
      </trkpt>
      <trkpt lat="47.48662" lon="-2.38237">
        <ele>33.4</ele>
        <time>2020-06-06T09:19:17Z</time>
      </trkpt>
      <trkpt lat="47.48669" lon="-2.38241">
        <ele>33.4</ele>
        <time>2020-06-06T09:19:18Z</time>
      </trkpt>
      <trkpt lat="47.48677" lon="-2.38244">
        <ele>33.3</ele>
        <time>2020-06-06T09:19:19Z</time>
      </trkpt>
      <trkpt lat="47.48684" lon="-2.38247">
        <ele>33.3</ele>
        <time>2020-06-06T09:19:20Z</time>
      </trkpt>
      <trkpt lat="47.48692" lon="-2.38249">
        <ele>33.2</ele>
        <time>2020-06-06T09:19:21Z</time>
      </trkpt>
      <trkpt lat="47.48699" lon="-2.38251">
        <ele>33.2</ele>
        <time>2020-06-06T09:19:22Z</time>
      </trkpt>
      <trkpt lat="47.48707" lon="-2.38255">
        <ele>33.2</ele>
        <time>2020-06-06T09:19:23Z</time>
      </trkpt>
      <trkpt lat="47.48714" lon="-2.38259">
        <ele>33.2</ele>
        <time>2020-06-06T09:19:24Z</time>
      </trkpt>
      <trkpt lat="47.4872" lon="-2.38263">
        <ele>33.2</ele>
        <time>2020-06-06T09:19:25Z</time>
      </trkpt>
      <trkpt lat="47.48727" lon="-2.38266">
        <ele>33.2</ele>
        <time>2020-06-06T09:19:26Z</time>
      </trkpt>
      <trkpt lat="47.48734" lon="-2.3827">
        <ele>33.2</ele>
        <time>2020-06-06T09:19:27Z</time>
      </trkpt>
      <trkpt lat="47.4874" lon="-2.38273">
        <ele>33.3</ele>
        <time>2020-06-06T09:19:28Z</time>
      </trkpt>
      <trkpt lat="47.48747" lon="-2.38276">
        <ele>33.3</ele>
        <time>2020-06-06T09:19:29Z</time>
      </trkpt>
      <trkpt lat="47.48754" lon="-2.38279">
        <ele>33.3</ele>
        <time>2020-06-06T09:19:30Z</time>
      </trkpt>
      <trkpt lat="47.4876" lon="-2.38282">
        <ele>33.3</ele>
        <time>2020-06-06T09:19:31Z</time>
      </trkpt>
      <trkpt lat="47.48767" lon="-2.38285">
        <ele>33.3</ele>
        <time>2020-06-06T09:19:32Z</time>
      </trkpt>
      <trkpt lat="47.48773" lon="-2.38287">
        <ele>33.3</ele>
        <time>2020-06-06T09:19:33Z</time>
      </trkpt>
      <trkpt lat="47.48779" lon="-2.3829">
        <ele>33.4</ele>
        <time>2020-06-06T09:19:34Z</time>
      </trkpt>
      <trkpt lat="47.48786" lon="-2.38292">
        <ele>33.4</ele>
        <time>2020-06-06T09:19:35Z</time>
      </trkpt>
      <trkpt lat="47.48792" lon="-2.38294">
        <ele>33.4</ele>
        <time>2020-06-06T09:19:36Z</time>
      </trkpt>
      <trkpt lat="47.48798" lon="-2.38297">
        <ele>33.4</ele>
        <time>2020-06-06T09:19:37Z</time>
      </trkpt>
      <trkpt lat="47.48804" lon="-2.38299">
        <ele>33.4</ele>
        <time>2020-06-06T09:19:38Z</time>
      </trkpt>
      <trkpt lat="47.4881" lon="-2.38302">
        <ele>33.4</ele>
        <time>2020-06-06T09:19:39Z</time>
      </trkpt>
      <trkpt lat="47.48817" lon="-2.38306">
        <ele>33.4</ele>
        <time>2020-06-06T09:19:40Z</time>
      </trkpt>
      <trkpt lat="47.48823" lon="-2.38308">
        <ele>33.4</ele>
        <time>2020-06-06T09:19:41Z</time>
      </trkpt>
      <trkpt lat="47.48829" lon="-2.38311">
        <ele>33.4</ele>
        <time>2020-06-06T09:19:42Z</time>
      </trkpt>
      <trkpt lat="47.48836" lon="-2.38314">
        <ele>33.4</ele>
        <time>2020-06-06T09:19:43Z</time>
      </trkpt>
      <trkpt lat="47.48842" lon="-2.38318">
        <ele>33.4</ele>
        <time>2020-06-06T09:19:44Z</time>
      </trkpt>
      <trkpt lat="47.48849" lon="-2.38321">
        <ele>33.4</ele>
        <time>2020-06-06T09:19:45Z</time>
      </trkpt>
      <trkpt lat="47.48855" lon="-2.38323">
        <ele>33.4</ele>
        <time>2020-06-06T09:19:46Z</time>
      </trkpt>
      <trkpt lat="47.48862" lon="-2.38326">
        <ele>33.4</ele>
        <time>2020-06-06T09:19:47Z</time>
      </trkpt>
      <trkpt lat="47.48868" lon="-2.38329">
        <ele>33.4</ele>
        <time>2020-06-06T09:19:48Z</time>
      </trkpt>
      <trkpt lat="47.48875" lon="-2.38331">
        <ele>33.3</ele>
        <time>2020-06-06T09:19:49Z</time>
      </trkpt>
      <trkpt lat="47.48881" lon="-2.38334">
        <ele>33.3</ele>
        <time>2020-06-06T09:19:50Z</time>
      </trkpt>
      <trkpt lat="47.48888" lon="-2.38337">
        <ele>33.3</ele>
        <time>2020-06-06T09:19:51Z</time>
      </trkpt>
      <trkpt lat="47.48895" lon="-2.38339">
        <ele>33.3</ele>
        <time>2020-06-06T09:19:52Z</time>
      </trkpt>
      <trkpt lat="47.48902" lon="-2.38342">
        <ele>33.3</ele>
        <time>2020-06-06T09:19:53Z</time>
      </trkpt>
      <trkpt lat="47.48909" lon="-2.38345">
        <ele>33.3</ele>
        <time>2020-06-06T09:19:54Z</time>
      </trkpt>
      <trkpt lat="47.48915" lon="-2.38348">
        <ele>33.2</ele>
        <time>2020-06-06T09:19:55Z</time>
      </trkpt>
      <trkpt lat="47.48922" lon="-2.38352">
        <ele>33.2</ele>
        <time>2020-06-06T09:19:56Z</time>
      </trkpt>
      <trkpt lat="47.48935" lon="-2.38359">
        <ele>33.1</ele>
        <time>2020-06-06T09:19:57Z</time>
      </trkpt>
      <trkpt lat="47.48942" lon="-2.38363">
        <ele>33.1</ele>
        <time>2020-06-06T09:19:58Z</time>
      </trkpt>
      <trkpt lat="47.48948" lon="-2.38366">
        <ele>33</ele>
        <time>2020-06-06T09:19:59Z</time>
      </trkpt>
      <trkpt lat="47.48955" lon="-2.38369">
        <ele>33</ele>
        <time>2020-06-06T09:20:00Z</time>
      </trkpt>
      <trkpt lat="47.48962" lon="-2.38372">
        <ele>32.9</ele>
        <time>2020-06-06T09:20:01Z</time>
      </trkpt>
      <trkpt lat="47.48968" lon="-2.38375">
        <ele>32.9</ele>
        <time>2020-06-06T09:20:02Z</time>
      </trkpt>
      <trkpt lat="47.48975" lon="-2.38377">
        <ele>32.8</ele>
        <time>2020-06-06T09:20:03Z</time>
      </trkpt>
      <trkpt lat="47.48982" lon="-2.38379">
        <ele>32.7</ele>
        <time>2020-06-06T09:20:04Z</time>
      </trkpt>
      <trkpt lat="47.48989" lon="-2.38382">
        <ele>32.6</ele>
        <time>2020-06-06T09:20:05Z</time>
      </trkpt>
      <trkpt lat="47.48996" lon="-2.38385">
        <ele>32.5</ele>
        <time>2020-06-06T09:20:06Z</time>
      </trkpt>
      <trkpt lat="47.49003" lon="-2.38388">
        <ele>32.4</ele>
        <time>2020-06-06T09:20:07Z</time>
      </trkpt>
      <trkpt lat="47.4901" lon="-2.38392">
        <ele>32.3</ele>
        <time>2020-06-06T09:20:08Z</time>
      </trkpt>
      <trkpt lat="47.49017" lon="-2.38396">
        <ele>32.2</ele>
        <time>2020-06-06T09:20:09Z</time>
      </trkpt>
      <trkpt lat="47.49024" lon="-2.38401">
        <ele>32.1</ele>
        <time>2020-06-06T09:20:10Z</time>
      </trkpt>
      <trkpt lat="47.4903" lon="-2.38405">
        <ele>31.9</ele>
        <time>2020-06-06T09:20:11Z</time>
      </trkpt>
      <trkpt lat="47.49037" lon="-2.38411">
        <ele>31.8</ele>
        <time>2020-06-06T09:20:12Z</time>
      </trkpt>
      <trkpt lat="47.49043" lon="-2.38416">
        <ele>31.7</ele>
        <time>2020-06-06T09:20:13Z</time>
      </trkpt>
      <trkpt lat="47.4905" lon="-2.38421">
        <ele>31.5</ele>
        <time>2020-06-06T09:20:14Z</time>
      </trkpt>
      <trkpt lat="47.49056" lon="-2.38426">
        <ele>31.4</ele>
        <time>2020-06-06T09:20:15Z</time>
      </trkpt>
      <trkpt lat="47.49062" lon="-2.3843">
        <ele>31.2</ele>
        <time>2020-06-06T09:20:16Z</time>
      </trkpt>
      <trkpt lat="47.49069" lon="-2.38436">
        <ele>31</ele>
        <time>2020-06-06T09:20:17Z</time>
      </trkpt>
      <trkpt lat="47.49076" lon="-2.38441">
        <ele>30.8</ele>
        <time>2020-06-06T09:20:18Z</time>
      </trkpt>
      <trkpt lat="47.49082" lon="-2.38447">
        <ele>30.6</ele>
        <time>2020-06-06T09:20:19Z</time>
      </trkpt>
      <trkpt lat="47.49089" lon="-2.38453">
        <ele>30.4</ele>
        <time>2020-06-06T09:20:20Z</time>
      </trkpt>
      <trkpt lat="47.49096" lon="-2.38457">
        <ele>30.2</ele>
        <time>2020-06-06T09:20:21Z</time>
      </trkpt>
      <trkpt lat="47.49103" lon="-2.38462">
        <ele>29.9</ele>
        <time>2020-06-06T09:20:22Z</time>
      </trkpt>
      <trkpt lat="47.4911" lon="-2.38467">
        <ele>29.8</ele>
        <time>2020-06-06T09:20:23Z</time>
      </trkpt>
      <trkpt lat="47.49118" lon="-2.38472">
        <ele>29.6</ele>
        <time>2020-06-06T09:20:24Z</time>
      </trkpt>
      <trkpt lat="47.49125" lon="-2.38477">
        <ele>29.4</ele>
        <time>2020-06-06T09:20:25Z</time>
      </trkpt>
      <trkpt lat="47.49132" lon="-2.38483">
        <ele>29.2</ele>
        <time>2020-06-06T09:20:26Z</time>
      </trkpt>
      <trkpt lat="47.49139" lon="-2.38487">
        <ele>28.9</ele>
        <time>2020-06-06T09:20:27Z</time>
      </trkpt>
      <trkpt lat="47.49145" lon="-2.38492">
        <ele>28.6</ele>
        <time>2020-06-06T09:20:28Z</time>
      </trkpt>
      <trkpt lat="47.49152" lon="-2.38498">
        <ele>28.4</ele>
        <time>2020-06-06T09:20:29Z</time>
      </trkpt>
      <trkpt lat="47.49159" lon="-2.38502">
        <ele>28.1</ele>
        <time>2020-06-06T09:20:30Z</time>
      </trkpt>
      <trkpt lat="47.49166" lon="-2.38508">
        <ele>27.8</ele>
        <time>2020-06-06T09:20:31Z</time>
      </trkpt>
      <trkpt lat="47.49173" lon="-2.38513">
        <ele>27.5</ele>
        <time>2020-06-06T09:20:32Z</time>
      </trkpt>
      <trkpt lat="47.49181" lon="-2.38519">
        <ele>27.2</ele>
        <time>2020-06-06T09:20:33Z</time>
      </trkpt>
      <trkpt lat="47.49188" lon="-2.38525">
        <ele>26.8</ele>
        <time>2020-06-06T09:20:34Z</time>
      </trkpt>
      <trkpt lat="47.49195" lon="-2.38532">
        <ele>26.5</ele>
        <time>2020-06-06T09:20:35Z</time>
      </trkpt>
      <trkpt lat="47.49203" lon="-2.38539">
        <ele>26.3</ele>
        <time>2020-06-06T09:20:36Z</time>
      </trkpt>
      <trkpt lat="47.4921" lon="-2.38546">
        <ele>25.7</ele>
        <time>2020-06-06T09:20:37Z</time>
      </trkpt>
      <trkpt lat="47.49217" lon="-2.38553">
        <ele>25.2</ele>
        <time>2020-06-06T09:20:38Z</time>
      </trkpt>
      <trkpt lat="47.49225" lon="-2.38561">
        <ele>24.6</ele>
        <time>2020-06-06T09:20:39Z</time>
      </trkpt>
      <trkpt lat="47.49232" lon="-2.38569">
        <ele>24.1</ele>
        <time>2020-06-06T09:20:40Z</time>
      </trkpt>
      <trkpt lat="47.49239" lon="-2.38577">
        <ele>23.6</ele>
        <time>2020-06-06T09:20:41Z</time>
      </trkpt>
      <trkpt lat="47.49246" lon="-2.38586">
        <ele>23.1</ele>
        <time>2020-06-06T09:20:42Z</time>
      </trkpt>
      <trkpt lat="47.49254" lon="-2.38594">
        <ele>22.5</ele>
        <time>2020-06-06T09:20:43Z</time>
      </trkpt>
      <trkpt lat="47.49261" lon="-2.38604">
        <ele>21.8</ele>
        <time>2020-06-06T09:20:44Z</time>
      </trkpt>
      <trkpt lat="47.49269" lon="-2.38612">
        <ele>21.1</ele>
        <time>2020-06-06T09:20:45Z</time>
      </trkpt>
      <trkpt lat="47.49277" lon="-2.3862">
        <ele>20.5</ele>
        <time>2020-06-06T09:20:46Z</time>
      </trkpt>
      <trkpt lat="47.49284" lon="-2.38629">
        <ele>19.8</ele>
        <time>2020-06-06T09:20:47Z</time>
      </trkpt>
      <trkpt lat="47.49292" lon="-2.38639">
        <ele>19.1</ele>
        <time>2020-06-06T09:20:48Z</time>
      </trkpt>
      <trkpt lat="47.49299" lon="-2.38648">
        <ele>18.4</ele>
        <time>2020-06-06T09:20:49Z</time>
      </trkpt>
      <trkpt lat="47.49307" lon="-2.38658">
        <ele>17.9</ele>
        <time>2020-06-06T09:20:50Z</time>
      </trkpt>
      <trkpt lat="47.49315" lon="-2.38667">
        <ele>17.4</ele>
        <time>2020-06-06T09:20:51Z</time>
      </trkpt>
      <trkpt lat="47.49322" lon="-2.38677">
        <ele>16.9</ele>
        <time>2020-06-06T09:20:52Z</time>
      </trkpt>
      <trkpt lat="47.49329" lon="-2.38687">
        <ele>16.5</ele>
        <time>2020-06-06T09:20:53Z</time>
      </trkpt>
      <trkpt lat="47.49337" lon="-2.38697">
        <ele>15.8</ele>
        <time>2020-06-06T09:20:54Z</time>
      </trkpt>
      <trkpt lat="47.49345" lon="-2.38705">
        <ele>15.2</ele>
        <time>2020-06-06T09:20:55Z</time>
      </trkpt>
      <trkpt lat="47.49354" lon="-2.38712">
        <ele>14.5</ele>
        <time>2020-06-06T09:20:56Z</time>
      </trkpt>
      <trkpt lat="47.49363" lon="-2.38718">
        <ele>14</ele>
        <time>2020-06-06T09:20:57Z</time>
      </trkpt>
      <trkpt lat="47.49372" lon="-2.38724">
        <ele>13.5</ele>
        <time>2020-06-06T09:20:58Z</time>
      </trkpt>
      <trkpt lat="47.4938" lon="-2.3873">
        <ele>13.1</ele>
        <time>2020-06-06T09:20:59Z</time>
      </trkpt>
      <trkpt lat="47.4939" lon="-2.38734">
        <ele>12.8</ele>
        <time>2020-06-06T09:21:00Z</time>
      </trkpt>
      <trkpt lat="47.49398" lon="-2.38738">
        <ele>12.4</ele>
        <time>2020-06-06T09:21:01Z</time>
      </trkpt>
      <trkpt lat="47.49406" lon="-2.38742">
        <ele>12.1</ele>
        <time>2020-06-06T09:21:02Z</time>
      </trkpt>
      <trkpt lat="47.49415" lon="-2.38744">
        <ele>11.7</ele>
        <time>2020-06-06T09:21:03Z</time>
      </trkpt>
      <trkpt lat="47.49424" lon="-2.38743">
        <ele>11.5</ele>
        <time>2020-06-06T09:21:04Z</time>
      </trkpt>
      <trkpt lat="47.49432" lon="-2.38741">
        <ele>11.4</ele>
        <time>2020-06-06T09:21:05Z</time>
      </trkpt>
      <trkpt lat="47.49439" lon="-2.38739">
        <ele>11.3</ele>
        <time>2020-06-06T09:21:06Z</time>
      </trkpt>
      <trkpt lat="47.49447" lon="-2.38736">
        <ele>11.3</ele>
        <time>2020-06-06T09:21:07Z</time>
      </trkpt>
      <trkpt lat="47.49454" lon="-2.38734">
        <ele>11.3</ele>
        <time>2020-06-06T09:21:08Z</time>
      </trkpt>
      <trkpt lat="47.4946" lon="-2.38732">
        <ele>11.3</ele>
        <time>2020-06-06T09:21:09Z</time>
      </trkpt>
      <trkpt lat="47.49467" lon="-2.3873">
        <ele>11.4</ele>
        <time>2020-06-06T09:21:10Z</time>
      </trkpt>
      <trkpt lat="47.49473" lon="-2.38728">
        <ele>11.4</ele>
        <time>2020-06-06T09:21:11Z</time>
      </trkpt>
      <trkpt lat="47.4948" lon="-2.38725">
        <ele>11.3</ele>
        <time>2020-06-06T09:21:12Z</time>
      </trkpt>
      <trkpt lat="47.49486" lon="-2.38723">
        <ele>11.2</ele>
        <time>2020-06-06T09:21:13Z</time>
      </trkpt>
      <trkpt lat="47.49492" lon="-2.38722">
        <ele>11</ele>
        <time>2020-06-06T09:21:14Z</time>
      </trkpt>
      <trkpt lat="47.49497" lon="-2.3872">
        <ele>10.9</ele>
        <time>2020-06-06T09:21:15Z</time>
      </trkpt>
      <trkpt lat="47.49503" lon="-2.38718">
        <ele>10.8</ele>
        <time>2020-06-06T09:21:16Z</time>
      </trkpt>
      <trkpt lat="47.49509" lon="-2.38715">
        <ele>10.8</ele>
        <time>2020-06-06T09:21:17Z</time>
      </trkpt>
      <trkpt lat="47.49515" lon="-2.38712">
        <ele>10.7</ele>
        <time>2020-06-06T09:21:18Z</time>
      </trkpt>
      <trkpt lat="47.4952" lon="-2.38709">
        <ele>10.6</ele>
        <time>2020-06-06T09:21:19Z</time>
      </trkpt>
      <trkpt lat="47.49526" lon="-2.38707">
        <ele>10.6</ele>
        <time>2020-06-06T09:21:20Z</time>
      </trkpt>
      <trkpt lat="47.49532" lon="-2.38704">
        <ele>10.5</ele>
        <time>2020-06-06T09:21:21Z</time>
      </trkpt>
      <trkpt lat="47.49538" lon="-2.38702">
        <ele>10.5</ele>
        <time>2020-06-06T09:21:22Z</time>
      </trkpt>
      <trkpt lat="47.49544" lon="-2.38698">
        <ele>10.4</ele>
        <time>2020-06-06T09:21:23Z</time>
      </trkpt>
      <trkpt lat="47.4955" lon="-2.38694">
        <ele>10.4</ele>
        <time>2020-06-06T09:21:24Z</time>
      </trkpt>
      <trkpt lat="47.49556" lon="-2.3869">
        <ele>10.3</ele>
        <time>2020-06-06T09:21:25Z</time>
      </trkpt>
      <trkpt lat="47.49563" lon="-2.38687">
        <ele>10.1</ele>
        <time>2020-06-06T09:21:26Z</time>
      </trkpt>
      <trkpt lat="47.49569" lon="-2.38683">
        <ele>10</ele>
        <time>2020-06-06T09:21:27Z</time>
      </trkpt>
      <trkpt lat="47.49576" lon="-2.3868">
        <ele>9.8</ele>
        <time>2020-06-06T09:21:28Z</time>
      </trkpt>
      <trkpt lat="47.49583" lon="-2.38675">
        <ele>9.6</ele>
        <time>2020-06-06T09:21:29Z</time>
      </trkpt>
      <trkpt lat="47.4959" lon="-2.3867">
        <ele>9.4</ele>
        <time>2020-06-06T09:21:30Z</time>
      </trkpt>
      <trkpt lat="47.49597" lon="-2.38665">
        <ele>9.1</ele>
        <time>2020-06-06T09:21:31Z</time>
      </trkpt>
      <trkpt lat="47.49604" lon="-2.3866">
        <ele>8.8</ele>
        <time>2020-06-06T09:21:32Z</time>
      </trkpt>
      <trkpt lat="47.49611" lon="-2.38655">
        <ele>8.5</ele>
        <time>2020-06-06T09:21:33Z</time>
      </trkpt>
      <trkpt lat="47.49619" lon="-2.3865">
        <ele>8.2</ele>
        <time>2020-06-06T09:21:34Z</time>
      </trkpt>
      <trkpt lat="47.49626" lon="-2.38645">
        <ele>7.9</ele>
        <time>2020-06-06T09:21:35Z</time>
      </trkpt>
      <trkpt lat="47.49633" lon="-2.38639">
        <ele>7.6</ele>
        <time>2020-06-06T09:21:36Z</time>
      </trkpt>
      <trkpt lat="47.4964" lon="-2.38631">
        <ele>7.3</ele>
        <time>2020-06-06T09:21:37Z</time>
      </trkpt>
      <trkpt lat="47.49646" lon="-2.38623">
        <ele>6.9</ele>
        <time>2020-06-06T09:21:38Z</time>
      </trkpt>
      <trkpt lat="47.49654" lon="-2.38616">
        <ele>6.6</ele>
        <time>2020-06-06T09:21:39Z</time>
      </trkpt>
      <trkpt lat="47.49661" lon="-2.38609">
        <ele>6.3</ele>
        <time>2020-06-06T09:21:40Z</time>
      </trkpt>
      <trkpt lat="47.49668" lon="-2.386">
        <ele>5.9</ele>
        <time>2020-06-06T09:21:41Z</time>
      </trkpt>
      <trkpt lat="47.49676" lon="-2.38592">
        <ele>5.6</ele>
        <time>2020-06-06T09:21:42Z</time>
      </trkpt>
      <trkpt lat="47.49683" lon="-2.38584">
        <ele>5.4</ele>
        <time>2020-06-06T09:21:43Z</time>
      </trkpt>
      <trkpt lat="47.4969" lon="-2.38574">
        <ele>5.3</ele>
        <time>2020-06-06T09:21:44Z</time>
      </trkpt>
      <trkpt lat="47.49696" lon="-2.38566">
        <ele>5.2</ele>
        <time>2020-06-06T09:21:45Z</time>
      </trkpt>
      <trkpt lat="47.49703" lon="-2.38557">
        <ele>5.2</ele>
        <time>2020-06-06T09:21:46Z</time>
      </trkpt>
      <trkpt lat="47.49709" lon="-2.38549">
        <ele>5.1</ele>
        <time>2020-06-06T09:21:47Z</time>
      </trkpt>
      <trkpt lat="47.49715" lon="-2.38541">
        <ele>5</ele>
        <time>2020-06-06T09:21:48Z</time>
      </trkpt>
      <trkpt lat="47.49721" lon="-2.38533">
        <ele>4.9</ele>
        <time>2020-06-06T09:21:49Z</time>
      </trkpt>
      <trkpt lat="47.49728" lon="-2.38525">
        <ele>4.9</ele>
        <time>2020-06-06T09:21:50Z</time>
      </trkpt>
      <trkpt lat="47.49734" lon="-2.38518">
        <ele>4.8</ele>
        <time>2020-06-06T09:21:51Z</time>
      </trkpt>
      <trkpt lat="47.4974" lon="-2.38511">
        <ele>4.8</ele>
        <time>2020-06-06T09:21:52Z</time>
      </trkpt>
      <trkpt lat="47.49747" lon="-2.38504">
        <ele>4.8</ele>
        <time>2020-06-06T09:21:53Z</time>
      </trkpt>
      <trkpt lat="47.49753" lon="-2.38496">
        <ele>4.8</ele>
        <time>2020-06-06T09:21:54Z</time>
      </trkpt>
      <trkpt lat="47.49759" lon="-2.38488">
        <ele>4.8</ele>
        <time>2020-06-06T09:21:55Z</time>
      </trkpt>
      <trkpt lat="47.49764" lon="-2.3848">
        <ele>4.8</ele>
        <time>2020-06-06T09:21:56Z</time>
      </trkpt>
      <trkpt lat="47.4977" lon="-2.38472">
        <ele>4.8</ele>
        <time>2020-06-06T09:21:57Z</time>
      </trkpt>
      <trkpt lat="47.49776" lon="-2.38465">
        <ele>4.9</ele>
        <time>2020-06-06T09:21:58Z</time>
      </trkpt>
      <trkpt lat="47.49782" lon="-2.38457">
        <ele>4.9</ele>
        <time>2020-06-06T09:21:59Z</time>
      </trkpt>
      <trkpt lat="47.49788" lon="-2.38449">
        <ele>4.9</ele>
        <time>2020-06-06T09:22:00Z</time>
      </trkpt>
      <trkpt lat="47.49793" lon="-2.38442">
        <ele>4.9</ele>
        <time>2020-06-06T09:22:01Z</time>
      </trkpt>
      <trkpt lat="47.49799" lon="-2.38434">
        <ele>4.9</ele>
        <time>2020-06-06T09:22:02Z</time>
      </trkpt>
      <trkpt lat="47.49805" lon="-2.38427">
        <ele>5</ele>
        <time>2020-06-06T09:22:03Z</time>
      </trkpt>
      <trkpt lat="47.4981" lon="-2.38419">
        <ele>5</ele>
        <time>2020-06-06T09:22:04Z</time>
      </trkpt>
      <trkpt lat="47.49815" lon="-2.38411">
        <ele>5</ele>
        <time>2020-06-06T09:22:05Z</time>
      </trkpt>
      <trkpt lat="47.49821" lon="-2.38403">
        <ele>5</ele>
        <time>2020-06-06T09:22:06Z</time>
      </trkpt>
      <trkpt lat="47.49825" lon="-2.38395">
        <ele>5.1</ele>
        <time>2020-06-06T09:22:07Z</time>
      </trkpt>
      <trkpt lat="47.4983" lon="-2.38387">
        <ele>5.2</ele>
        <time>2020-06-06T09:22:08Z</time>
      </trkpt>
      <trkpt lat="47.49835" lon="-2.3838">
        <ele>5.3</ele>
        <time>2020-06-06T09:22:09Z</time>
      </trkpt>
      <trkpt lat="47.4984" lon="-2.38372">
        <ele>5.4</ele>
        <time>2020-06-06T09:22:10Z</time>
      </trkpt>
      <trkpt lat="47.49845" lon="-2.38366">
        <ele>5.6</ele>
        <time>2020-06-06T09:22:11Z</time>
      </trkpt>
      <trkpt lat="47.4985" lon="-2.38359">
        <ele>5.7</ele>
        <time>2020-06-06T09:22:12Z</time>
      </trkpt>
      <trkpt lat="47.49855" lon="-2.38353">
        <ele>5.9</ele>
        <time>2020-06-06T09:22:13Z</time>
      </trkpt>
      <trkpt lat="47.4986" lon="-2.38347">
        <ele>6</ele>
        <time>2020-06-06T09:22:14Z</time>
      </trkpt>
      <trkpt lat="47.49866" lon="-2.38341">
        <ele>6.1</ele>
        <time>2020-06-06T09:22:15Z</time>
      </trkpt>
      <trkpt lat="47.4987" lon="-2.38334">
        <ele>6.3</ele>
        <time>2020-06-06T09:22:16Z</time>
      </trkpt>
      <trkpt lat="47.49875" lon="-2.38328">
        <ele>6.5</ele>
        <time>2020-06-06T09:22:17Z</time>
      </trkpt>
      <trkpt lat="47.4988" lon="-2.38322">
        <ele>6.7</ele>
        <time>2020-06-06T09:22:18Z</time>
      </trkpt>
      <trkpt lat="47.49885" lon="-2.38316">
        <ele>6.8</ele>
        <time>2020-06-06T09:22:19Z</time>
      </trkpt>
      <trkpt lat="47.49889" lon="-2.3831">
        <ele>7</ele>
        <time>2020-06-06T09:22:20Z</time>
      </trkpt>
      <trkpt lat="47.49894" lon="-2.38304">
        <ele>7.2</ele>
        <time>2020-06-06T09:22:21Z</time>
      </trkpt>
      <trkpt lat="47.49899" lon="-2.38299">
        <ele>7.3</ele>
        <time>2020-06-06T09:22:22Z</time>
      </trkpt>
      <trkpt lat="47.49904" lon="-2.38294">
        <ele>7.5</ele>
        <time>2020-06-06T09:22:23Z</time>
      </trkpt>
      <trkpt lat="47.49908" lon="-2.3829">
        <ele>7.6</ele>
        <time>2020-06-06T09:22:24Z</time>
      </trkpt>
      <trkpt lat="47.49913" lon="-2.38285">
        <ele>7.7</ele>
        <time>2020-06-06T09:22:25Z</time>
      </trkpt>
      <trkpt lat="47.49918" lon="-2.3828">
        <ele>7.7</ele>
        <time>2020-06-06T09:22:26Z</time>
      </trkpt>
      <trkpt lat="47.49922" lon="-2.38276">
        <ele>7.8</ele>
        <time>2020-06-06T09:22:27Z</time>
      </trkpt>
      <trkpt lat="47.49927" lon="-2.3827">
        <ele>7.8</ele>
        <time>2020-06-06T09:22:28Z</time>
      </trkpt>
      <trkpt lat="47.49931" lon="-2.38265">
        <ele>7.8</ele>
        <time>2020-06-06T09:22:29Z</time>
      </trkpt>
      <trkpt lat="47.49935" lon="-2.38259">
        <ele>7.8</ele>
        <time>2020-06-06T09:22:30Z</time>
      </trkpt>
      <trkpt lat="47.49939" lon="-2.38253">
        <ele>7.8</ele>
        <time>2020-06-06T09:22:31Z</time>
      </trkpt>
      <trkpt lat="47.49943" lon="-2.38247">
        <ele>7.8</ele>
        <time>2020-06-06T09:22:32Z</time>
      </trkpt>
      <trkpt lat="47.49947" lon="-2.38241">
        <ele>7.8</ele>
        <time>2020-06-06T09:22:33Z</time>
      </trkpt>
      <trkpt lat="47.49951" lon="-2.38236">
        <ele>7.8</ele>
        <time>2020-06-06T09:22:34Z</time>
      </trkpt>
      <trkpt lat="47.49955" lon="-2.38231">
        <ele>7.8</ele>
        <time>2020-06-06T09:22:35Z</time>
      </trkpt>
      <trkpt lat="47.49959" lon="-2.38225">
        <ele>7.8</ele>
        <time>2020-06-06T09:22:36Z</time>
      </trkpt>
      <trkpt lat="47.49964" lon="-2.3822">
        <ele>7.7</ele>
        <time>2020-06-06T09:22:37Z</time>
      </trkpt>
      <trkpt lat="47.49968" lon="-2.38214">
        <ele>7.7</ele>
        <time>2020-06-06T09:22:38Z</time>
      </trkpt>
      <trkpt lat="47.49973" lon="-2.38209">
        <ele>7.7</ele>
        <time>2020-06-06T09:22:39Z</time>
      </trkpt>
      <trkpt lat="47.49978" lon="-2.38204">
        <ele>7.7</ele>
        <time>2020-06-06T09:22:40Z</time>
      </trkpt>
      <trkpt lat="47.49982" lon="-2.38197">
        <ele>7.7</ele>
        <time>2020-06-06T09:22:41Z</time>
      </trkpt>
      <trkpt lat="47.49987" lon="-2.38191">
        <ele>7.7</ele>
        <time>2020-06-06T09:22:42Z</time>
      </trkpt>
      <trkpt lat="47.49991" lon="-2.38185">
        <ele>7.7</ele>
        <time>2020-06-06T09:22:43Z</time>
      </trkpt>
      <trkpt lat="47.49995" lon="-2.38179">
        <ele>7.8</ele>
        <time>2020-06-06T09:22:44Z</time>
      </trkpt>
      <trkpt lat="47.5" lon="-2.38172">
        <ele>7.7</ele>
        <time>2020-06-06T09:22:45Z</time>
      </trkpt>
      <trkpt lat="47.50004" lon="-2.38166">
        <ele>7.7</ele>
        <time>2020-06-06T09:22:46Z</time>
      </trkpt>
      <trkpt lat="47.50008" lon="-2.3816">
        <ele>7.7</ele>
        <time>2020-06-06T09:22:47Z</time>
      </trkpt>
      <trkpt lat="47.50013" lon="-2.38153">
        <ele>7.7</ele>
        <time>2020-06-06T09:22:48Z</time>
      </trkpt>
      <trkpt lat="47.50017" lon="-2.38146">
        <ele>7.6</ele>
        <time>2020-06-06T09:22:49Z</time>
      </trkpt>
      <trkpt lat="47.50021" lon="-2.38139">
        <ele>7.6</ele>
        <time>2020-06-06T09:22:50Z</time>
      </trkpt>
      <trkpt lat="47.50025" lon="-2.38134">
        <ele>7.5</ele>
        <time>2020-06-06T09:22:51Z</time>
      </trkpt>
      <trkpt lat="47.50029" lon="-2.38128">
        <ele>7.5</ele>
        <time>2020-06-06T09:22:52Z</time>
      </trkpt>
      <trkpt lat="47.50034" lon="-2.38122">
        <ele>7.5</ele>
        <time>2020-06-06T09:22:53Z</time>
      </trkpt>
      <trkpt lat="47.50039" lon="-2.38116">
        <ele>7.5</ele>
        <time>2020-06-06T09:22:54Z</time>
      </trkpt>
      <trkpt lat="47.50043" lon="-2.3811">
        <ele>7.5</ele>
        <time>2020-06-06T09:22:55Z</time>
      </trkpt>
      <trkpt lat="47.50047" lon="-2.38103">
        <ele>7.6</ele>
        <time>2020-06-06T09:22:56Z</time>
      </trkpt>
      <trkpt lat="47.50053" lon="-2.38095">
        <ele>7.6</ele>
        <time>2020-06-06T09:22:57Z</time>
      </trkpt>
      <trkpt lat="47.50058" lon="-2.38088">
        <ele>7.7</ele>
        <time>2020-06-06T09:22:58Z</time>
      </trkpt>
      <trkpt lat="47.50063" lon="-2.38081">
        <ele>7.7</ele>
        <time>2020-06-06T09:22:59Z</time>
      </trkpt>
      <trkpt lat="47.50068" lon="-2.38074">
        <ele>7.7</ele>
        <time>2020-06-06T09:23:00Z</time>
      </trkpt>
      <trkpt lat="47.50072" lon="-2.38067">
        <ele>7.7</ele>
        <time>2020-06-06T09:23:01Z</time>
      </trkpt>
      <trkpt lat="47.50077" lon="-2.38061">
        <ele>7.8</ele>
        <time>2020-06-06T09:23:02Z</time>
      </trkpt>
      <trkpt lat="47.50082" lon="-2.38054">
        <ele>7.9</ele>
        <time>2020-06-06T09:23:03Z</time>
      </trkpt>
      <trkpt lat="47.50086" lon="-2.38048">
        <ele>7.9</ele>
        <time>2020-06-06T09:23:04Z</time>
      </trkpt>
      <trkpt lat="47.5009" lon="-2.38043">
        <ele>8</ele>
        <time>2020-06-06T09:23:05Z</time>
      </trkpt>
      <trkpt lat="47.50094" lon="-2.38037">
        <ele>8.1</ele>
        <time>2020-06-06T09:23:06Z</time>
      </trkpt>
      <trkpt lat="47.50099" lon="-2.3803">
        <ele>8.2</ele>
        <time>2020-06-06T09:23:07Z</time>
      </trkpt>
      <trkpt lat="47.50104" lon="-2.38024">
        <ele>8.2</ele>
        <time>2020-06-06T09:23:08Z</time>
      </trkpt>
      <trkpt lat="47.50109" lon="-2.38019">
        <ele>8.3</ele>
        <time>2020-06-06T09:23:09Z</time>
      </trkpt>
      <trkpt lat="47.50113" lon="-2.38013">
        <ele>8.4</ele>
        <time>2020-06-06T09:23:10Z</time>
      </trkpt>
      <trkpt lat="47.50117" lon="-2.38007">
        <ele>8.4</ele>
        <time>2020-06-06T09:23:11Z</time>
      </trkpt>
      <trkpt lat="47.50121" lon="-2.38002">
        <ele>8.5</ele>
        <time>2020-06-06T09:23:12Z</time>
      </trkpt>
      <trkpt lat="47.50125" lon="-2.37996">
        <ele>8.5</ele>
        <time>2020-06-06T09:23:13Z</time>
      </trkpt>
      <trkpt lat="47.5013" lon="-2.3799">
        <ele>8.6</ele>
        <time>2020-06-06T09:23:14Z</time>
      </trkpt>
      <trkpt lat="47.50134" lon="-2.37984">
        <ele>8.7</ele>
        <time>2020-06-06T09:23:15Z</time>
      </trkpt>
      <trkpt lat="47.50138" lon="-2.37979">
        <ele>8.7</ele>
        <time>2020-06-06T09:23:16Z</time>
      </trkpt>
      <trkpt lat="47.50142" lon="-2.37974">
        <ele>8.7</ele>
        <time>2020-06-06T09:23:17Z</time>
      </trkpt>
      <trkpt lat="47.50147" lon="-2.37969">
        <ele>8.8</ele>
        <time>2020-06-06T09:23:18Z</time>
      </trkpt>
      <trkpt lat="47.50151" lon="-2.37964">
        <ele>8.8</ele>
        <time>2020-06-06T09:23:19Z</time>
      </trkpt>
      <trkpt lat="47.50156" lon="-2.3796">
        <ele>8.9</ele>
        <time>2020-06-06T09:23:20Z</time>
      </trkpt>
      <trkpt lat="47.50161" lon="-2.37957">
        <ele>8.9</ele>
        <time>2020-06-06T09:23:21Z</time>
      </trkpt>
      <trkpt lat="47.50166" lon="-2.37953">
        <ele>9</ele>
        <time>2020-06-06T09:23:22Z</time>
      </trkpt>
      <trkpt lat="47.50172" lon="-2.37948">
        <ele>9.3</ele>
        <time>2020-06-06T09:23:23Z</time>
      </trkpt>
      <trkpt lat="47.50176" lon="-2.37942">
        <ele>9.4</ele>
        <time>2020-06-06T09:23:24Z</time>
      </trkpt>
      <trkpt lat="47.50179" lon="-2.37935">
        <ele>9.5</ele>
        <time>2020-06-06T09:23:25Z</time>
      </trkpt>
      <trkpt lat="47.50183" lon="-2.37929">
        <ele>9.5</ele>
        <time>2020-06-06T09:23:26Z</time>
      </trkpt>
      <trkpt lat="47.50188" lon="-2.37926">
        <ele>9.5</ele>
        <time>2020-06-06T09:23:27Z</time>
      </trkpt>
      <trkpt lat="47.50193" lon="-2.37923">
        <ele>9.5</ele>
        <time>2020-06-06T09:23:28Z</time>
      </trkpt>
      <trkpt lat="47.50198" lon="-2.37923">
        <ele>9.6</ele>
        <time>2020-06-06T09:23:29Z</time>
      </trkpt>
      <trkpt lat="47.50203" lon="-2.37922">
        <ele>9.6</ele>
        <time>2020-06-06T09:23:30Z</time>
      </trkpt>
      <trkpt lat="47.50208" lon="-2.37922">
        <ele>9.6</ele>
        <time>2020-06-06T09:23:31Z</time>
      </trkpt>
      <trkpt lat="47.50211" lon="-2.37922">
        <ele>9.6</ele>
        <time>2020-06-06T09:23:32Z</time>
      </trkpt>
      <trkpt lat="47.50215" lon="-2.37923">
        <ele>9.6</ele>
        <time>2020-06-06T09:23:33Z</time>
      </trkpt>
      <trkpt lat="47.50216" lon="-2.37923">
        <ele>9.6</ele>
        <time>2020-06-06T09:23:34Z</time>
      </trkpt>
      <trkpt lat="47.50218" lon="-2.37926">
        <ele>9.6</ele>
        <time>2020-06-06T09:23:35Z</time>
      </trkpt>
      <trkpt lat="47.50219" lon="-2.37927">
        <ele>9.6</ele>
        <time>2020-06-06T09:23:36Z</time>
      </trkpt>
      <trkpt lat="47.50222" lon="-2.37932">
        <ele>10.2</ele>
        <time>2020-06-06T09:23:37Z</time>
      </trkpt>
      <trkpt lat="47.50225" lon="-2.37935">
        <ele>10.2</ele>
        <time>2020-06-06T09:23:38Z</time>
      </trkpt>
      <trkpt lat="47.50228" lon="-2.37934">
        <ele>10.1</ele>
        <time>2020-06-06T09:23:39Z</time>
      </trkpt>
      <trkpt lat="47.50229" lon="-2.37934">
        <ele>10.1</ele>
        <time>2020-06-06T09:23:40Z</time>
      </trkpt>
      <trkpt lat="47.50231" lon="-2.37931">
        <ele>10</ele>
        <time>2020-06-06T09:23:41Z</time>
      </trkpt>
      <trkpt lat="47.50233" lon="-2.37927">
        <ele>10</ele>
        <time>2020-06-06T09:23:42Z</time>
      </trkpt>
      <trkpt lat="47.50235" lon="-2.37924">
        <ele>10</ele>
        <time>2020-06-06T09:23:43Z</time>
      </trkpt>
      <trkpt lat="47.50237" lon="-2.3792">
        <ele>10</ele>
        <time>2020-06-06T09:23:44Z</time>
      </trkpt>
      <trkpt lat="47.50239" lon="-2.37915">
        <ele>10.1</ele>
        <time>2020-06-06T09:23:45Z</time>
      </trkpt>
      <trkpt lat="47.50242" lon="-2.37912">
        <ele>10.1</ele>
        <time>2020-06-06T09:23:46Z</time>
      </trkpt>
      <trkpt lat="47.50245" lon="-2.37907">
        <ele>10.2</ele>
        <time>2020-06-06T09:23:47Z</time>
      </trkpt>
      <trkpt lat="47.50248" lon="-2.37901">
        <ele>10.3</ele>
        <time>2020-06-06T09:23:48Z</time>
      </trkpt>
      <trkpt lat="47.50251" lon="-2.37897">
        <ele>10.4</ele>
        <time>2020-06-06T09:23:49Z</time>
      </trkpt>
      <trkpt lat="47.50255" lon="-2.37892">
        <ele>10.6</ele>
        <time>2020-06-06T09:23:50Z</time>
      </trkpt>
      <trkpt lat="47.50258" lon="-2.37888">
        <ele>10.7</ele>
        <time>2020-06-06T09:23:51Z</time>
      </trkpt>
      <trkpt lat="47.50262" lon="-2.37885">
        <ele>10.9</ele>
        <time>2020-06-06T09:23:52Z</time>
      </trkpt>
      <trkpt lat="47.50264" lon="-2.37883">
        <ele>11</ele>
        <time>2020-06-06T09:23:53Z</time>
      </trkpt>
      <trkpt lat="47.5027" lon="-2.3788">
        <ele>11.1</ele>
        <time>2020-06-06T09:23:54Z</time>
      </trkpt>
      <trkpt lat="47.50274" lon="-2.37877">
        <ele>11.1</ele>
        <time>2020-06-06T09:23:55Z</time>
      </trkpt>
      <trkpt lat="47.50279" lon="-2.37874">
        <ele>11.1</ele>
        <time>2020-06-06T09:23:56Z</time>
      </trkpt>
      <trkpt lat="47.50283" lon="-2.37871">
        <ele>11.1</ele>
        <time>2020-06-06T09:23:57Z</time>
      </trkpt>
      <trkpt lat="47.50287" lon="-2.37868">
        <ele>11.1</ele>
        <time>2020-06-06T09:23:58Z</time>
      </trkpt>
      <trkpt lat="47.50291" lon="-2.37865">
        <ele>11.3</ele>
        <time>2020-06-06T09:23:59Z</time>
      </trkpt>
      <trkpt lat="47.50295" lon="-2.37862">
        <ele>11.6</ele>
        <time>2020-06-06T09:24:00Z</time>
      </trkpt>
      <trkpt lat="47.503" lon="-2.37859">
        <ele>11.9</ele>
        <time>2020-06-06T09:24:01Z</time>
      </trkpt>
      <trkpt lat="47.50304" lon="-2.37856">
        <ele>12.1</ele>
        <time>2020-06-06T09:24:02Z</time>
      </trkpt>
      <trkpt lat="47.50309" lon="-2.37853">
        <ele>12.3</ele>
        <time>2020-06-06T09:24:03Z</time>
      </trkpt>
      <trkpt lat="47.50314" lon="-2.37851">
        <ele>12.3</ele>
        <time>2020-06-06T09:24:04Z</time>
      </trkpt>
      <trkpt lat="47.50318" lon="-2.37849">
        <ele>12.3</ele>
        <time>2020-06-06T09:24:05Z</time>
      </trkpt>
      <trkpt lat="47.50322" lon="-2.37848">
        <ele>12.4</ele>
        <time>2020-06-06T09:24:06Z</time>
      </trkpt>
      <trkpt lat="47.50326" lon="-2.37846">
        <ele>12.4</ele>
        <time>2020-06-06T09:24:07Z</time>
      </trkpt>
      <trkpt lat="47.5033" lon="-2.37845">
        <ele>12.5</ele>
        <time>2020-06-06T09:24:08Z</time>
      </trkpt>
      <trkpt lat="47.50334" lon="-2.37842">
        <ele>12.6</ele>
        <time>2020-06-06T09:24:09Z</time>
      </trkpt>
      <trkpt lat="47.50338" lon="-2.3784">
        <ele>12.7</ele>
        <time>2020-06-06T09:24:10Z</time>
      </trkpt>
      <trkpt lat="47.50343" lon="-2.37837">
        <ele>12.8</ele>
        <time>2020-06-06T09:24:11Z</time>
      </trkpt>
      <trkpt lat="47.50348" lon="-2.37835">
        <ele>12.9</ele>
        <time>2020-06-06T09:24:12Z</time>
      </trkpt>
      <trkpt lat="47.50353" lon="-2.37833">
        <ele>13</ele>
        <time>2020-06-06T09:24:13Z</time>
      </trkpt>
      <trkpt lat="47.50358" lon="-2.37832">
        <ele>13.2</ele>
        <time>2020-06-06T09:24:14Z</time>
      </trkpt>
      <trkpt lat="47.50362" lon="-2.37831">
        <ele>13.3</ele>
        <time>2020-06-06T09:24:15Z</time>
      </trkpt>
      <trkpt lat="47.50366" lon="-2.3783">
        <ele>13.4</ele>
        <time>2020-06-06T09:24:16Z</time>
      </trkpt>
      <trkpt lat="47.5037" lon="-2.37829">
        <ele>13.5</ele>
        <time>2020-06-06T09:24:17Z</time>
      </trkpt>
      <trkpt lat="47.50375" lon="-2.37828">
        <ele>13.6</ele>
        <time>2020-06-06T09:24:18Z</time>
      </trkpt>
      <trkpt lat="47.50381" lon="-2.37828">
        <ele>13.8</ele>
        <time>2020-06-06T09:24:19Z</time>
      </trkpt>
      <trkpt lat="47.50387" lon="-2.37828">
        <ele>14</ele>
        <time>2020-06-06T09:24:20Z</time>
      </trkpt>
      <trkpt lat="47.50391" lon="-2.37828">
        <ele>14.3</ele>
        <time>2020-06-06T09:24:21Z</time>
      </trkpt>
      <trkpt lat="47.50395" lon="-2.37828">
        <ele>14.5</ele>
        <time>2020-06-06T09:24:22Z</time>
      </trkpt>
      <trkpt lat="47.50398" lon="-2.37827">
        <ele>14.7</ele>
        <time>2020-06-06T09:24:23Z</time>
      </trkpt>
      <trkpt lat="47.50401" lon="-2.37828">
        <ele>14.9</ele>
        <time>2020-06-06T09:24:24Z</time>
      </trkpt>
      <trkpt lat="47.50406" lon="-2.37826">
        <ele>15.2</ele>
        <time>2020-06-06T09:24:25Z</time>
      </trkpt>
      <trkpt lat="47.5041" lon="-2.37826">
        <ele>15.5</ele>
        <time>2020-06-06T09:24:26Z</time>
      </trkpt>
      <trkpt lat="47.50414" lon="-2.37826">
        <ele>15.7</ele>
        <time>2020-06-06T09:24:27Z</time>
      </trkpt>
      <trkpt lat="47.50418" lon="-2.37825">
        <ele>16</ele>
        <time>2020-06-06T09:24:28Z</time>
      </trkpt>
      <trkpt lat="47.50421" lon="-2.37825">
        <ele>16.2</ele>
        <time>2020-06-06T09:24:29Z</time>
      </trkpt>
      <trkpt lat="47.50425" lon="-2.37824">
        <ele>16.4</ele>
        <time>2020-06-06T09:24:30Z</time>
      </trkpt>
      <trkpt lat="47.50426" lon="-2.37823">
        <ele>16.5</ele>
        <time>2020-06-06T09:24:31Z</time>
      </trkpt>
      <trkpt lat="47.50429" lon="-2.37823">
        <ele>16.6</ele>
        <time>2020-06-06T09:24:32Z</time>
      </trkpt>
      <trkpt lat="47.50432" lon="-2.37822">
        <ele>16.8</ele>
        <time>2020-06-06T09:24:33Z</time>
      </trkpt>
      <trkpt lat="47.50435" lon="-2.37821">
        <ele>16.9</ele>
        <time>2020-06-06T09:24:34Z</time>
      </trkpt>
      <trkpt lat="47.50438" lon="-2.3782">
        <ele>17.1</ele>
        <time>2020-06-06T09:24:35Z</time>
      </trkpt>
      <trkpt lat="47.5044" lon="-2.3782">
        <ele>17.1</ele>
        <time>2020-06-06T09:24:36Z</time>
      </trkpt>
      <trkpt lat="47.50443" lon="-2.3782">
        <ele>17.3</ele>
        <time>2020-06-06T09:24:37Z</time>
      </trkpt>
      <trkpt lat="47.50445" lon="-2.37819">
        <ele>17.3</ele>
        <time>2020-06-06T09:24:38Z</time>
      </trkpt>
      <trkpt lat="47.50448" lon="-2.37819">
        <ele>17.5</ele>
        <time>2020-06-06T09:24:39Z</time>
      </trkpt>
      <trkpt lat="47.50451" lon="-2.37818">
        <ele>17.6</ele>
        <time>2020-06-06T09:24:40Z</time>
      </trkpt>
      <trkpt lat="47.50452" lon="-2.37818">
        <ele>17.6</ele>
        <time>2020-06-06T09:24:41Z</time>
      </trkpt>
      <trkpt lat="47.50455" lon="-2.37817">
        <ele>17.8</ele>
        <time>2020-06-06T09:24:42Z</time>
      </trkpt>
      <trkpt lat="47.50457" lon="-2.37817">
        <ele>17.9</ele>
        <time>2020-06-06T09:24:43Z</time>
      </trkpt>
      <trkpt lat="47.50461" lon="-2.37816">
        <ele>18.1</ele>
        <time>2020-06-06T09:24:44Z</time>
      </trkpt>
      <trkpt lat="47.50462" lon="-2.37816">
        <ele>18.1</ele>
        <time>2020-06-06T09:24:45Z</time>
      </trkpt>
      <trkpt lat="47.50465" lon="-2.37815">
        <ele>18.3</ele>
        <time>2020-06-06T09:24:46Z</time>
      </trkpt>
      <trkpt lat="47.50467" lon="-2.37815">
        <ele>18.4</ele>
        <time>2020-06-06T09:24:47Z</time>
      </trkpt>
      <trkpt lat="47.50469" lon="-2.37815">
        <ele>18.5</ele>
        <time>2020-06-06T09:24:48Z</time>
      </trkpt>
      <trkpt lat="47.50472" lon="-2.37815">
        <ele>18.6</ele>
        <time>2020-06-06T09:24:49Z</time>
      </trkpt>
      <trkpt lat="47.50476" lon="-2.37814">
        <ele>18.9</ele>
        <time>2020-06-06T09:24:50Z</time>
      </trkpt>
      <trkpt lat="47.50477" lon="-2.37814">
        <ele>19</ele>
        <time>2020-06-06T09:24:51Z</time>
      </trkpt>
      <trkpt lat="47.50482" lon="-2.37813">
        <ele>19.4</ele>
        <time>2020-06-06T09:24:52Z</time>
      </trkpt>
      <trkpt lat="47.50486" lon="-2.37812">
        <ele>19.7</ele>
        <time>2020-06-06T09:24:53Z</time>
      </trkpt>
      <trkpt lat="47.5049" lon="-2.37812">
        <ele>20</ele>
        <time>2020-06-06T09:24:54Z</time>
      </trkpt>
      <trkpt lat="47.50492" lon="-2.37811">
        <ele>20.2</ele>
        <time>2020-06-06T09:24:55Z</time>
      </trkpt>
      <trkpt lat="47.50495" lon="-2.37811">
        <ele>20.4</ele>
        <time>2020-06-06T09:24:56Z</time>
      </trkpt>
      <trkpt lat="47.50499" lon="-2.37811">
        <ele>20.7</ele>
        <time>2020-06-06T09:24:57Z</time>
      </trkpt>
      <trkpt lat="47.50503" lon="-2.37812">
        <ele>20.9</ele>
        <time>2020-06-06T09:24:58Z</time>
      </trkpt>
      <trkpt lat="47.50506" lon="-2.37812">
        <ele>21.1</ele>
        <time>2020-06-06T09:24:59Z</time>
      </trkpt>
      <trkpt lat="47.5051" lon="-2.37812">
        <ele>21.3</ele>
        <time>2020-06-06T09:25:00Z</time>
      </trkpt>
      <trkpt lat="47.50514" lon="-2.37812">
        <ele>21.6</ele>
        <time>2020-06-06T09:25:01Z</time>
      </trkpt>
      <trkpt lat="47.50517" lon="-2.37811">
        <ele>21.8</ele>
        <time>2020-06-06T09:25:02Z</time>
      </trkpt>
      <trkpt lat="47.50521" lon="-2.37812">
        <ele>22</ele>
        <time>2020-06-06T09:25:03Z</time>
      </trkpt>
      <trkpt lat="47.50524" lon="-2.37811">
        <ele>22.2</ele>
        <time>2020-06-06T09:25:04Z</time>
      </trkpt>
      <trkpt lat="47.50528" lon="-2.37809">
        <ele>22.4</ele>
        <time>2020-06-06T09:25:05Z</time>
      </trkpt>
      <trkpt lat="47.50531" lon="-2.37808">
        <ele>22.6</ele>
        <time>2020-06-06T09:25:06Z</time>
      </trkpt>
      <trkpt lat="47.50533" lon="-2.37808">
        <ele>22.8</ele>
        <time>2020-06-06T09:25:07Z</time>
      </trkpt>
      <trkpt lat="47.50537" lon="-2.37807">
        <ele>23</ele>
        <time>2020-06-06T09:25:08Z</time>
      </trkpt>
      <trkpt lat="47.50539" lon="-2.37808">
        <ele>23</ele>
        <time>2020-06-06T09:25:09Z</time>
      </trkpt>
      <trkpt lat="47.50543" lon="-2.37807">
        <ele>23.2</ele>
        <time>2020-06-06T09:25:10Z</time>
      </trkpt>
      <trkpt lat="47.50545" lon="-2.37806">
        <ele>23.4</ele>
        <time>2020-06-06T09:25:11Z</time>
      </trkpt>
      <trkpt lat="47.50548" lon="-2.37806">
        <ele>18</ele>
        <time>2020-06-06T09:25:12Z</time>
      </trkpt>
      <trkpt lat="47.50552" lon="-2.37805">
        <ele>18</ele>
        <time>2020-06-06T09:25:13Z</time>
      </trkpt>
      <trkpt lat="47.50555" lon="-2.37803">
        <ele>18.1</ele>
        <time>2020-06-06T09:25:14Z</time>
      </trkpt>
      <trkpt lat="47.50556" lon="-2.37802">
        <ele>18.1</ele>
        <time>2020-06-06T09:25:15Z</time>
      </trkpt>
      <trkpt lat="47.5056" lon="-2.37799">
        <ele>18.2</ele>
        <time>2020-06-06T09:25:16Z</time>
      </trkpt>
      <trkpt lat="47.50561" lon="-2.37798">
        <ele>18.2</ele>
        <time>2020-06-06T09:25:17Z</time>
      </trkpt>
      <trkpt lat="47.50564" lon="-2.37796">
        <ele>18.2</ele>
        <time>2020-06-06T09:25:18Z</time>
      </trkpt>
      <trkpt lat="47.50567" lon="-2.37793">
        <ele>18.3</ele>
        <time>2020-06-06T09:25:19Z</time>
      </trkpt>
      <trkpt lat="47.5057" lon="-2.37791">
        <ele>18.5</ele>
        <time>2020-06-06T09:25:20Z</time>
      </trkpt>
      <trkpt lat="47.50571" lon="-2.3779">
        <ele>18.6</ele>
        <time>2020-06-06T09:25:21Z</time>
      </trkpt>
      <trkpt lat="47.50575" lon="-2.37789">
        <ele>18.7</ele>
        <time>2020-06-06T09:25:22Z</time>
      </trkpt>
      <trkpt lat="47.50578" lon="-2.37789">
        <ele>18.9</ele>
        <time>2020-06-06T09:25:23Z</time>
      </trkpt>
      <trkpt lat="47.50582" lon="-2.37789">
        <ele>19</ele>
        <time>2020-06-06T09:25:24Z</time>
      </trkpt>
      <trkpt lat="47.50584" lon="-2.37789">
        <ele>19.2</ele>
        <time>2020-06-06T09:25:25Z</time>
      </trkpt>
      <trkpt lat="47.50589" lon="-2.3779">
        <ele>19.3</ele>
        <time>2020-06-06T09:25:26Z</time>
      </trkpt>
      <trkpt lat="47.5059" lon="-2.3779">
        <ele>19.4</ele>
        <time>2020-06-06T09:25:27Z</time>
      </trkpt>
      <trkpt lat="47.50594" lon="-2.3779">
        <ele>19.6</ele>
        <time>2020-06-06T09:25:28Z</time>
      </trkpt>
      <trkpt lat="47.50598" lon="-2.3779">
        <ele>19.8</ele>
        <time>2020-06-06T09:25:29Z</time>
      </trkpt>
      <trkpt lat="47.50603" lon="-2.3779">
        <ele>20</ele>
        <time>2020-06-06T09:25:30Z</time>
      </trkpt>
      <trkpt lat="47.50606" lon="-2.37789">
        <ele>20.2</ele>
        <time>2020-06-06T09:25:31Z</time>
      </trkpt>
      <trkpt lat="47.5061" lon="-2.37788">
        <ele>20.3</ele>
        <time>2020-06-06T09:25:32Z</time>
      </trkpt>
      <trkpt lat="47.50614" lon="-2.37787">
        <ele>20.5</ele>
        <time>2020-06-06T09:25:33Z</time>
      </trkpt>
      <trkpt lat="47.50618" lon="-2.37786">
        <ele>20.7</ele>
        <time>2020-06-06T09:25:34Z</time>
      </trkpt>
      <trkpt lat="47.50622" lon="-2.37785">
        <ele>20.8</ele>
        <time>2020-06-06T09:25:35Z</time>
      </trkpt>
      <trkpt lat="47.50625" lon="-2.37784">
        <ele>21</ele>
        <time>2020-06-06T09:25:36Z</time>
      </trkpt>
      <trkpt lat="47.50629" lon="-2.37784">
        <ele>21.2</ele>
        <time>2020-06-06T09:25:37Z</time>
      </trkpt>
      <trkpt lat="47.50634" lon="-2.37785">
        <ele>21.4</ele>
        <time>2020-06-06T09:25:38Z</time>
      </trkpt>
      <trkpt lat="47.50637" lon="-2.37785">
        <ele>21.6</ele>
        <time>2020-06-06T09:25:39Z</time>
      </trkpt>
      <trkpt lat="47.50641" lon="-2.37785">
        <ele>21.8</ele>
        <time>2020-06-06T09:25:40Z</time>
      </trkpt>
      <trkpt lat="47.50645" lon="-2.37784">
        <ele>22</ele>
        <time>2020-06-06T09:25:41Z</time>
      </trkpt>
      <trkpt lat="47.50649" lon="-2.37784">
        <ele>22.2</ele>
        <time>2020-06-06T09:25:42Z</time>
      </trkpt>
      <trkpt lat="47.50654" lon="-2.37785">
        <ele>22.4</ele>
        <time>2020-06-06T09:25:43Z</time>
      </trkpt>
      <trkpt lat="47.50657" lon="-2.37786">
        <ele>22.6</ele>
        <time>2020-06-06T09:25:44Z</time>
      </trkpt>
      <trkpt lat="47.50661" lon="-2.37786">
        <ele>22.8</ele>
        <time>2020-06-06T09:25:45Z</time>
      </trkpt>
      <trkpt lat="47.50665" lon="-2.37785">
        <ele>23</ele>
        <time>2020-06-06T09:25:46Z</time>
      </trkpt>
      <trkpt lat="47.50669" lon="-2.37785">
        <ele>23.2</ele>
        <time>2020-06-06T09:25:47Z</time>
      </trkpt>
      <trkpt lat="47.50671" lon="-2.37785">
        <ele>23.3</ele>
        <time>2020-06-06T09:25:48Z</time>
      </trkpt>
      <trkpt lat="47.50675" lon="-2.37784">
        <ele>23.5</ele>
        <time>2020-06-06T09:25:49Z</time>
      </trkpt>
      <trkpt lat="47.50678" lon="-2.37783">
        <ele>23.7</ele>
        <time>2020-06-06T09:25:50Z</time>
      </trkpt>
      <trkpt lat="47.50683" lon="-2.37781">
        <ele>24</ele>
        <time>2020-06-06T09:25:51Z</time>
      </trkpt>
      <trkpt lat="47.50687" lon="-2.37781">
        <ele>24.2</ele>
        <time>2020-06-06T09:25:52Z</time>
      </trkpt>
      <trkpt lat="47.50693" lon="-2.37781">
        <ele>24.4</ele>
        <time>2020-06-06T09:25:53Z</time>
      </trkpt>
      <trkpt lat="47.50698" lon="-2.3778">
        <ele>24.7</ele>
        <time>2020-06-06T09:25:54Z</time>
      </trkpt>
      <trkpt lat="47.50704" lon="-2.3778">
        <ele>24.9</ele>
        <time>2020-06-06T09:25:55Z</time>
      </trkpt>
      <trkpt lat="47.50709" lon="-2.37779">
        <ele>25.1</ele>
        <time>2020-06-06T09:25:56Z</time>
      </trkpt>
      <trkpt lat="47.50713" lon="-2.37778">
        <ele>25.3</ele>
        <time>2020-06-06T09:25:57Z</time>
      </trkpt>
      <trkpt lat="47.50717" lon="-2.37778">
        <ele>25.6</ele>
        <time>2020-06-06T09:25:58Z</time>
      </trkpt>
      <trkpt lat="47.50722" lon="-2.37778">
        <ele>25.8</ele>
        <time>2020-06-06T09:25:59Z</time>
      </trkpt>
      <trkpt lat="47.50726" lon="-2.37777">
        <ele>26</ele>
        <time>2020-06-06T09:26:00Z</time>
      </trkpt>
      <trkpt lat="47.5073" lon="-2.37776">
        <ele>26.2</ele>
        <time>2020-06-06T09:26:01Z</time>
      </trkpt>
      <trkpt lat="47.50734" lon="-2.37777">
        <ele>26.3</ele>
        <time>2020-06-06T09:26:02Z</time>
      </trkpt>
      <trkpt lat="47.50735" lon="-2.37778">
        <ele>26.4</ele>
        <time>2020-06-06T09:26:03Z</time>
      </trkpt>
      <trkpt lat="47.50739" lon="-2.37778">
        <ele>26.6</ele>
        <time>2020-06-06T09:26:04Z</time>
      </trkpt>
      <trkpt lat="47.50743" lon="-2.37778">
        <ele>26.7</ele>
        <time>2020-06-06T09:26:05Z</time>
      </trkpt>
      <trkpt lat="47.50747" lon="-2.37778">
        <ele>26.9</ele>
        <time>2020-06-06T09:26:06Z</time>
      </trkpt>
      <trkpt lat="47.50751" lon="-2.37777">
        <ele>27.1</ele>
        <time>2020-06-06T09:26:07Z</time>
      </trkpt>
      <trkpt lat="47.50756" lon="-2.37777">
        <ele>27.3</ele>
        <time>2020-06-06T09:26:08Z</time>
      </trkpt>
      <trkpt lat="47.50758" lon="-2.37777">
        <ele>27.5</ele>
        <time>2020-06-06T09:26:09Z</time>
      </trkpt>
      <trkpt lat="47.50762" lon="-2.37777">
        <ele>27.6</ele>
        <time>2020-06-06T09:26:10Z</time>
      </trkpt>
      <trkpt lat="47.50766" lon="-2.37778">
        <ele>27.8</ele>
        <time>2020-06-06T09:26:11Z</time>
      </trkpt>
      <trkpt lat="47.5077" lon="-2.37778">
        <ele>28</ele>
        <time>2020-06-06T09:26:12Z</time>
      </trkpt>
      <trkpt lat="47.50774" lon="-2.37778">
        <ele>28.2</ele>
        <time>2020-06-06T09:26:13Z</time>
      </trkpt>
      <trkpt lat="47.50777" lon="-2.37779">
        <ele>28.4</ele>
        <time>2020-06-06T09:26:14Z</time>
      </trkpt>
      <trkpt lat="47.5078" lon="-2.3778">
        <ele>28.6</ele>
        <time>2020-06-06T09:26:15Z</time>
      </trkpt>
      <trkpt lat="47.50785" lon="-2.37779">
        <ele>28.8</ele>
        <time>2020-06-06T09:26:16Z</time>
      </trkpt>
      <trkpt lat="47.50789" lon="-2.37779">
        <ele>29</ele>
        <time>2020-06-06T09:26:17Z</time>
      </trkpt>
      <trkpt lat="47.50794" lon="-2.37779">
        <ele>29.2</ele>
        <time>2020-06-06T09:26:18Z</time>
      </trkpt>
      <trkpt lat="47.50799" lon="-2.37777">
        <ele>29.5</ele>
        <time>2020-06-06T09:26:19Z</time>
      </trkpt>
      <trkpt lat="47.50801" lon="-2.37777">
        <ele>29.5</ele>
        <time>2020-06-06T09:26:20Z</time>
      </trkpt>
      <trkpt lat="47.50804" lon="-2.37776">
        <ele>29.7</ele>
        <time>2020-06-06T09:26:21Z</time>
      </trkpt>
      <trkpt lat="47.50807" lon="-2.37775">
        <ele>29.8</ele>
        <time>2020-06-06T09:26:22Z</time>
      </trkpt>
      <trkpt lat="47.50811" lon="-2.37775">
        <ele>30</ele>
        <time>2020-06-06T09:26:23Z</time>
      </trkpt>
      <trkpt lat="47.50814" lon="-2.37774">
        <ele>30.2</ele>
        <time>2020-06-06T09:26:24Z</time>
      </trkpt>
      <trkpt lat="47.50817" lon="-2.37773">
        <ele>30.3</ele>
        <time>2020-06-06T09:26:25Z</time>
      </trkpt>
      <trkpt lat="47.50821" lon="-2.37772">
        <ele>30.5</ele>
        <time>2020-06-06T09:26:26Z</time>
      </trkpt>
      <trkpt lat="47.50825" lon="-2.37772">
        <ele>30.7</ele>
        <time>2020-06-06T09:26:27Z</time>
      </trkpt>
      <trkpt lat="47.50826" lon="-2.37771">
        <ele>30.7</ele>
        <time>2020-06-06T09:26:28Z</time>
      </trkpt>
      <trkpt lat="47.5083" lon="-2.3777">
        <ele>30.9</ele>
        <time>2020-06-06T09:26:29Z</time>
      </trkpt>
      <trkpt lat="47.50834" lon="-2.3777">
        <ele>31</ele>
        <time>2020-06-06T09:26:30Z</time>
      </trkpt>
      <trkpt lat="47.50838" lon="-2.37769">
        <ele>31.2</ele>
        <time>2020-06-06T09:26:31Z</time>
      </trkpt>
      <trkpt lat="47.50843" lon="-2.37768">
        <ele>31.4</ele>
        <time>2020-06-06T09:26:32Z</time>
      </trkpt>
      <trkpt lat="47.50847" lon="-2.37768">
        <ele>31.5</ele>
        <time>2020-06-06T09:26:33Z</time>
      </trkpt>
      <trkpt lat="47.50848" lon="-2.37768">
        <ele>31.6</ele>
        <time>2020-06-06T09:26:34Z</time>
      </trkpt>
      <trkpt lat="47.50852" lon="-2.37767">
        <ele>31.7</ele>
        <time>2020-06-06T09:26:35Z</time>
      </trkpt>
      <trkpt lat="47.50855" lon="-2.37766">
        <ele>31.8</ele>
        <time>2020-06-06T09:26:36Z</time>
      </trkpt>
      <trkpt lat="47.50858" lon="-2.37765">
        <ele>31.9</ele>
        <time>2020-06-06T09:26:37Z</time>
      </trkpt>
      <trkpt lat="47.50862" lon="-2.37764">
        <ele>32.1</ele>
        <time>2020-06-06T09:26:38Z</time>
      </trkpt>
      <trkpt lat="47.50866" lon="-2.37762">
        <ele>32.2</ele>
        <time>2020-06-06T09:26:39Z</time>
      </trkpt>
      <trkpt lat="47.5087" lon="-2.3776">
        <ele>32.3</ele>
        <time>2020-06-06T09:26:40Z</time>
      </trkpt>
      <trkpt lat="47.50874" lon="-2.37759">
        <ele>32.5</ele>
        <time>2020-06-06T09:26:41Z</time>
      </trkpt>
      <trkpt lat="47.50877" lon="-2.37758">
        <ele>32.6</ele>
        <time>2020-06-06T09:26:42Z</time>
      </trkpt>
      <trkpt lat="47.50881" lon="-2.37756">
        <ele>32.7</ele>
        <time>2020-06-06T09:26:43Z</time>
      </trkpt>
      <trkpt lat="47.50885" lon="-2.37755">
        <ele>32.9</ele>
        <time>2020-06-06T09:26:44Z</time>
      </trkpt>
      <trkpt lat="47.50889" lon="-2.37754">
        <ele>33</ele>
        <time>2020-06-06T09:26:45Z</time>
      </trkpt>
      <trkpt lat="47.50893" lon="-2.37753">
        <ele>33.2</ele>
        <time>2020-06-06T09:26:46Z</time>
      </trkpt>
      <trkpt lat="47.50898" lon="-2.37752">
        <ele>33.3</ele>
        <time>2020-06-06T09:26:47Z</time>
      </trkpt>
      <trkpt lat="47.50902" lon="-2.3775">
        <ele>33.4</ele>
        <time>2020-06-06T09:26:48Z</time>
      </trkpt>
      <trkpt lat="47.50905" lon="-2.37748">
        <ele>33.5</ele>
        <time>2020-06-06T09:26:49Z</time>
      </trkpt>
      <trkpt lat="47.50908" lon="-2.37746">
        <ele>33.6</ele>
        <time>2020-06-06T09:26:50Z</time>
      </trkpt>
      <trkpt lat="47.50913" lon="-2.37744">
        <ele>33.8</ele>
        <time>2020-06-06T09:26:51Z</time>
      </trkpt>
      <trkpt lat="47.50915" lon="-2.37743">
        <ele>33.9</ele>
        <time>2020-06-06T09:26:52Z</time>
      </trkpt>
      <trkpt lat="47.50919" lon="-2.37742">
        <ele>34</ele>
        <time>2020-06-06T09:26:53Z</time>
      </trkpt>
      <trkpt lat="47.50922" lon="-2.3774">
        <ele>34.1</ele>
        <time>2020-06-06T09:26:54Z</time>
      </trkpt>
      <trkpt lat="47.50926" lon="-2.37739">
        <ele>34.2</ele>
        <time>2020-06-06T09:26:55Z</time>
      </trkpt>
      <trkpt lat="47.5093" lon="-2.37737">
        <ele>34.3</ele>
        <time>2020-06-06T09:26:56Z</time>
      </trkpt>
      <trkpt lat="47.50934" lon="-2.37735">
        <ele>34.3</ele>
        <time>2020-06-06T09:26:57Z</time>
      </trkpt>
      <trkpt lat="47.50937" lon="-2.37732">
        <ele>34.4</ele>
        <time>2020-06-06T09:26:58Z</time>
      </trkpt>
      <trkpt lat="47.50942" lon="-2.3773">
        <ele>34.5</ele>
        <time>2020-06-06T09:26:59Z</time>
      </trkpt>
      <trkpt lat="47.50946" lon="-2.37728">
        <ele>34.6</ele>
        <time>2020-06-06T09:27:00Z</time>
      </trkpt>
      <trkpt lat="47.5095" lon="-2.37725">
        <ele>34.7</ele>
        <time>2020-06-06T09:27:01Z</time>
      </trkpt>
      <trkpt lat="47.50955" lon="-2.37723">
        <ele>34.8</ele>
        <time>2020-06-06T09:27:02Z</time>
      </trkpt>
      <trkpt lat="47.50958" lon="-2.3772">
        <ele>34.9</ele>
        <time>2020-06-06T09:27:03Z</time>
      </trkpt>
      <trkpt lat="47.50962" lon="-2.37717">
        <ele>35</ele>
        <time>2020-06-06T09:27:04Z</time>
      </trkpt>
      <trkpt lat="47.50966" lon="-2.37714">
        <ele>35.1</ele>
        <time>2020-06-06T09:27:05Z</time>
      </trkpt>
      <trkpt lat="47.50969" lon="-2.37711">
        <ele>35.1</ele>
        <time>2020-06-06T09:27:06Z</time>
      </trkpt>
      <trkpt lat="47.50974" lon="-2.37708">
        <ele>35.2</ele>
        <time>2020-06-06T09:27:07Z</time>
      </trkpt>
      <trkpt lat="47.50978" lon="-2.37704">
        <ele>35.2</ele>
        <time>2020-06-06T09:27:08Z</time>
      </trkpt>
      <trkpt lat="47.50982" lon="-2.37701">
        <ele>35.3</ele>
        <time>2020-06-06T09:27:09Z</time>
      </trkpt>
      <trkpt lat="47.50986" lon="-2.37699">
        <ele>35.3</ele>
        <time>2020-06-06T09:27:10Z</time>
      </trkpt>
      <trkpt lat="47.5099" lon="-2.37696">
        <ele>35.3</ele>
        <time>2020-06-06T09:27:11Z</time>
      </trkpt>
      <trkpt lat="47.50994" lon="-2.37693">
        <ele>35.4</ele>
        <time>2020-06-06T09:27:12Z</time>
      </trkpt>
      <trkpt lat="47.50998" lon="-2.3769">
        <ele>35.4</ele>
        <time>2020-06-06T09:27:13Z</time>
      </trkpt>
      <trkpt lat="47.51002" lon="-2.37687">
        <ele>35.4</ele>
        <time>2020-06-06T09:27:14Z</time>
      </trkpt>
      <trkpt lat="47.51007" lon="-2.37684">
        <ele>35.5</ele>
        <time>2020-06-06T09:27:15Z</time>
      </trkpt>
      <trkpt lat="47.51012" lon="-2.3768">
        <ele>35.5</ele>
        <time>2020-06-06T09:27:16Z</time>
      </trkpt>
      <trkpt lat="47.51019" lon="-2.37676">
        <ele>35.5</ele>
        <time>2020-06-06T09:27:17Z</time>
      </trkpt>
      <trkpt lat="47.51025" lon="-2.37671">
        <ele>35.4</ele>
        <time>2020-06-06T09:27:18Z</time>
      </trkpt>
      <trkpt lat="47.51031" lon="-2.37666">
        <ele>35.4</ele>
        <time>2020-06-06T09:27:19Z</time>
      </trkpt>
      <trkpt lat="47.51038" lon="-2.37661">
        <ele>35.3</ele>
        <time>2020-06-06T09:27:20Z</time>
      </trkpt>
      <trkpt lat="47.51044" lon="-2.37658">
        <ele>35.2</ele>
        <time>2020-06-06T09:27:21Z</time>
      </trkpt>
      <trkpt lat="47.5105" lon="-2.37654">
        <ele>35.2</ele>
        <time>2020-06-06T09:27:22Z</time>
      </trkpt>
      <trkpt lat="47.51055" lon="-2.3765">
        <ele>35.2</ele>
        <time>2020-06-06T09:27:23Z</time>
      </trkpt>
      <trkpt lat="47.5106" lon="-2.37647">
        <ele>35.2</ele>
        <time>2020-06-06T09:27:24Z</time>
      </trkpt>
      <trkpt lat="47.51064" lon="-2.37643">
        <ele>35.2</ele>
        <time>2020-06-06T09:27:25Z</time>
      </trkpt>
      <trkpt lat="47.51067" lon="-2.37639">
        <ele>35.2</ele>
        <time>2020-06-06T09:27:26Z</time>
      </trkpt>
      <trkpt lat="47.51071" lon="-2.37634">
        <ele>35.1</ele>
        <time>2020-06-06T09:27:27Z</time>
      </trkpt>
      <trkpt lat="47.51075" lon="-2.37631">
        <ele>35.1</ele>
        <time>2020-06-06T09:27:28Z</time>
      </trkpt>
      <trkpt lat="47.51079" lon="-2.37627">
        <ele>35.1</ele>
        <time>2020-06-06T09:27:29Z</time>
      </trkpt>
      <trkpt lat="47.51083" lon="-2.37623">
        <ele>35.1</ele>
        <time>2020-06-06T09:27:30Z</time>
      </trkpt>
      <trkpt lat="47.51088" lon="-2.37619">
        <ele>35</ele>
        <time>2020-06-06T09:27:31Z</time>
      </trkpt>
      <trkpt lat="47.51093" lon="-2.37614">
        <ele>35</ele>
        <time>2020-06-06T09:27:32Z</time>
      </trkpt>
      <trkpt lat="47.51097" lon="-2.37609">
        <ele>35.1</ele>
        <time>2020-06-06T09:27:33Z</time>
      </trkpt>
      <trkpt lat="47.51101" lon="-2.37605">
        <ele>35.1</ele>
        <time>2020-06-06T09:27:34Z</time>
      </trkpt>
      <trkpt lat="47.51104" lon="-2.376">
        <ele>35.1</ele>
        <time>2020-06-06T09:27:35Z</time>
      </trkpt>
      <trkpt lat="47.51107" lon="-2.37595">
        <ele>35.1</ele>
        <time>2020-06-06T09:27:36Z</time>
      </trkpt>
      <trkpt lat="47.51112" lon="-2.3759">
        <ele>35.2</ele>
        <time>2020-06-06T09:27:37Z</time>
      </trkpt>
      <trkpt lat="47.51115" lon="-2.37586">
        <ele>35.2</ele>
        <time>2020-06-06T09:27:38Z</time>
      </trkpt>
      <trkpt lat="47.51118" lon="-2.37583">
        <ele>35.2</ele>
        <time>2020-06-06T09:27:39Z</time>
      </trkpt>
      <trkpt lat="47.51122" lon="-2.37579">
        <ele>35.2</ele>
        <time>2020-06-06T09:27:40Z</time>
      </trkpt>
      <trkpt lat="47.51123" lon="-2.37577">
        <ele>35.2</ele>
        <time>2020-06-06T09:27:41Z</time>
      </trkpt>
      <trkpt lat="47.51125" lon="-2.37576">
        <ele>35.2</ele>
        <time>2020-06-06T09:27:42Z</time>
      </trkpt>
      <trkpt lat="47.51125" lon="-2.37576">
        <ele>35.2</ele>
        <time>2020-06-06T09:27:43Z</time>
      </trkpt>
      <trkpt lat="47.51125" lon="-2.37577">
        <ele>35.2</ele>
        <time>2020-06-06T09:27:44Z</time>
      </trkpt>
      <trkpt lat="47.51124" lon="-2.37577">
        <ele>35.2</ele>
        <time>2020-06-06T09:27:45Z</time>
      </trkpt>
      <trkpt lat="47.51124" lon="-2.37577">
        <ele>35.2</ele>
        <time>2020-06-06T09:27:46Z</time>
      </trkpt>
      <trkpt lat="47.51124" lon="-2.37577">
        <ele>35.2</ele>
        <time>2020-06-06T09:27:47Z</time>
      </trkpt>
      <trkpt lat="47.51123" lon="-2.37576">
        <ele>35.2</ele>
        <time>2020-06-06T09:27:48Z</time>
      </trkpt>
      <trkpt lat="47.51123" lon="-2.37576">
        <ele>35.2</ele>
        <time>2020-06-06T09:27:49Z</time>
      </trkpt>
      <trkpt lat="47.51123" lon="-2.37576">
        <ele>35.2</ele>
        <time>2020-06-06T09:27:50Z</time>
      </trkpt>
      <trkpt lat="47.51122" lon="-2.37576">
        <ele>35.2</ele>
        <time>2020-06-06T09:27:51Z</time>
      </trkpt>
      <trkpt lat="47.51122" lon="-2.37576">
        <ele>35.2</ele>
        <time>2020-06-06T09:27:52Z</time>
      </trkpt>
      <trkpt lat="47.51122" lon="-2.37576">
        <ele>35.2</ele>
        <time>2020-06-06T09:27:53Z</time>
      </trkpt>
      <trkpt lat="47.51122" lon="-2.37576">
        <ele>35.2</ele>
        <time>2020-06-06T09:27:54Z</time>
      </trkpt>
      <trkpt lat="47.51122" lon="-2.37577">
        <ele>35.2</ele>
        <time>2020-06-06T09:27:55Z</time>
      </trkpt>
      <trkpt lat="47.51122" lon="-2.37577">
        <ele>35.2</ele>
        <time>2020-06-06T09:27:56Z</time>
      </trkpt>
      <trkpt lat="47.51125" lon="-2.37582">
        <ele>35.2</ele>
        <time>2020-06-06T09:27:57Z</time>
      </trkpt>
      <trkpt lat="47.51127" lon="-2.37587">
        <ele>35.2</ele>
        <time>2020-06-06T09:28:07Z</time>
      </trkpt>
      <trkpt lat="47.5113" lon="-2.37591">
        <ele>35.2</ele>
        <time>2020-06-06T09:28:08Z</time>
      </trkpt>
      <trkpt lat="47.51134" lon="-2.37595">
        <ele>35.2</ele>
        <time>2020-06-06T09:28:09Z</time>
      </trkpt>
      <trkpt lat="47.51138" lon="-2.376">
        <ele>35.2</ele>
        <time>2020-06-06T09:28:10Z</time>
      </trkpt>
      <trkpt lat="47.51142" lon="-2.37604">
        <ele>35.2</ele>
        <time>2020-06-06T09:28:11Z</time>
      </trkpt>
      <trkpt lat="47.51146" lon="-2.37607">
        <ele>35.2</ele>
        <time>2020-06-06T09:28:12Z</time>
      </trkpt>
      <trkpt lat="47.5115" lon="-2.3761">
        <ele>35.2</ele>
        <time>2020-06-06T09:28:13Z</time>
      </trkpt>
      <trkpt lat="47.51155" lon="-2.37614">
        <ele>35.2</ele>
        <time>2020-06-06T09:28:14Z</time>
      </trkpt>
      <trkpt lat="47.51158" lon="-2.37616">
        <ele>35.3</ele>
        <time>2020-06-06T09:28:15Z</time>
      </trkpt>
      <trkpt lat="47.51162" lon="-2.37619">
        <ele>35.3</ele>
        <time>2020-06-06T09:28:16Z</time>
      </trkpt>
      <trkpt lat="47.51167" lon="-2.37623">
        <ele>35.4</ele>
        <time>2020-06-06T09:28:17Z</time>
      </trkpt>
      <trkpt lat="47.51171" lon="-2.37625">
        <ele>35.5</ele>
        <time>2020-06-06T09:28:18Z</time>
      </trkpt>
      <trkpt lat="47.51174" lon="-2.37628">
        <ele>35.6</ele>
        <time>2020-06-06T09:28:19Z</time>
      </trkpt>
      <trkpt lat="47.51178" lon="-2.37632">
        <ele>35.7</ele>
        <time>2020-06-06T09:28:20Z</time>
      </trkpt>
      <trkpt lat="47.51181" lon="-2.37637">
        <ele>35.8</ele>
        <time>2020-06-06T09:28:21Z</time>
      </trkpt>
      <trkpt lat="47.51185" lon="-2.37642">
        <ele>35.9</ele>
        <time>2020-06-06T09:28:22Z</time>
      </trkpt>
      <trkpt lat="47.51189" lon="-2.37646">
        <ele>36</ele>
        <time>2020-06-06T09:28:23Z</time>
      </trkpt>
      <trkpt lat="47.51192" lon="-2.37651">
        <ele>36.1</ele>
        <time>2020-06-06T09:28:24Z</time>
      </trkpt>
      <trkpt lat="47.51196" lon="-2.37655">
        <ele>36.2</ele>
        <time>2020-06-06T09:28:25Z</time>
      </trkpt>
      <trkpt lat="47.512" lon="-2.37659">
        <ele>36.3</ele>
        <time>2020-06-06T09:28:26Z</time>
      </trkpt>
      <trkpt lat="47.51203" lon="-2.37663">
        <ele>36.4</ele>
        <time>2020-06-06T09:28:27Z</time>
      </trkpt>
      <trkpt lat="47.51208" lon="-2.37669">
        <ele>36.6</ele>
        <time>2020-06-06T09:28:28Z</time>
      </trkpt>
      <trkpt lat="47.51211" lon="-2.37674">
        <ele>36.7</ele>
        <time>2020-06-06T09:28:29Z</time>
      </trkpt>
      <trkpt lat="47.51215" lon="-2.37679">
        <ele>36.9</ele>
        <time>2020-06-06T09:28:30Z</time>
      </trkpt>
      <trkpt lat="47.51219" lon="-2.37683">
        <ele>37</ele>
        <time>2020-06-06T09:28:31Z</time>
      </trkpt>
      <trkpt lat="47.51223" lon="-2.37685">
        <ele>37.1</ele>
        <time>2020-06-06T09:28:32Z</time>
      </trkpt>
      <trkpt lat="47.51228" lon="-2.37688">
        <ele>37.1</ele>
        <time>2020-06-06T09:28:33Z</time>
      </trkpt>
      <trkpt lat="47.51233" lon="-2.3769">
        <ele>37.2</ele>
        <time>2020-06-06T09:28:34Z</time>
      </trkpt>
      <trkpt lat="47.51237" lon="-2.37691">
        <ele>37.2</ele>
        <time>2020-06-06T09:28:35Z</time>
      </trkpt>
      <trkpt lat="47.51242" lon="-2.37693">
        <ele>37.2</ele>
        <time>2020-06-06T09:28:36Z</time>
      </trkpt>
      <trkpt lat="47.51247" lon="-2.37693">
        <ele>37.2</ele>
        <time>2020-06-06T09:28:37Z</time>
      </trkpt>
      <trkpt lat="47.51252" lon="-2.37693">
        <ele>37.2</ele>
        <time>2020-06-06T09:28:38Z</time>
      </trkpt>
      <trkpt lat="47.51258" lon="-2.37693">
        <ele>37.3</ele>
        <time>2020-06-06T09:28:39Z</time>
      </trkpt>
      <trkpt lat="47.51263" lon="-2.37693">
        <ele>37.3</ele>
        <time>2020-06-06T09:28:40Z</time>
      </trkpt>
      <trkpt lat="47.51268" lon="-2.37691">
        <ele>37.4</ele>
        <time>2020-06-06T09:28:41Z</time>
      </trkpt>
      <trkpt lat="47.51274" lon="-2.37691">
        <ele>37.5</ele>
        <time>2020-06-06T09:28:42Z</time>
      </trkpt>
      <trkpt lat="47.5128" lon="-2.37692">
        <ele>37.6</ele>
        <time>2020-06-06T09:28:43Z</time>
      </trkpt>
      <trkpt lat="47.51285" lon="-2.37691">
        <ele>37.6</ele>
        <time>2020-06-06T09:28:44Z</time>
      </trkpt>
      <trkpt lat="47.5129" lon="-2.37692">
        <ele>37.7</ele>
        <time>2020-06-06T09:28:45Z</time>
      </trkpt>
      <trkpt lat="47.51294" lon="-2.37692">
        <ele>37.7</ele>
        <time>2020-06-06T09:28:46Z</time>
      </trkpt>
      <trkpt lat="47.51299" lon="-2.37692">
        <ele>37.9</ele>
        <time>2020-06-06T09:28:47Z</time>
      </trkpt>
      <trkpt lat="47.51303" lon="-2.37691">
        <ele>38</ele>
        <time>2020-06-06T09:28:48Z</time>
      </trkpt>
      <trkpt lat="47.51308" lon="-2.3769">
        <ele>38.2</ele>
        <time>2020-06-06T09:28:49Z</time>
      </trkpt>
      <trkpt lat="47.51312" lon="-2.3769">
        <ele>38.3</ele>
        <time>2020-06-06T09:28:50Z</time>
      </trkpt>
      <trkpt lat="47.51317" lon="-2.37689">
        <ele>38.5</ele>
        <time>2020-06-06T09:28:51Z</time>
      </trkpt>
      <trkpt lat="47.51322" lon="-2.37689">
        <ele>38.6</ele>
        <time>2020-06-06T09:28:52Z</time>
      </trkpt>
      <trkpt lat="47.51327" lon="-2.37688">
        <ele>38.8</ele>
        <time>2020-06-06T09:28:53Z</time>
      </trkpt>
      <trkpt lat="47.51332" lon="-2.37687">
        <ele>38.9</ele>
        <time>2020-06-06T09:28:54Z</time>
      </trkpt>
      <trkpt lat="47.51336" lon="-2.37687">
        <ele>39</ele>
        <time>2020-06-06T09:28:55Z</time>
      </trkpt>
      <trkpt lat="47.51341" lon="-2.37685">
        <ele>39.2</ele>
        <time>2020-06-06T09:28:56Z</time>
      </trkpt>
      <trkpt lat="47.51346" lon="-2.37683">
        <ele>39.3</ele>
        <time>2020-06-06T09:28:57Z</time>
      </trkpt>
      <trkpt lat="47.51351" lon="-2.37683">
        <ele>39.5</ele>
        <time>2020-06-06T09:28:58Z</time>
      </trkpt>
      <trkpt lat="47.51355" lon="-2.37681">
        <ele>39.6</ele>
        <time>2020-06-06T09:28:59Z</time>
      </trkpt>
      <trkpt lat="47.51361" lon="-2.3768">
        <ele>39.8</ele>
        <time>2020-06-06T09:29:00Z</time>
      </trkpt>
      <trkpt lat="47.51365" lon="-2.37679">
        <ele>39.9</ele>
        <time>2020-06-06T09:29:01Z</time>
      </trkpt>
      <trkpt lat="47.5137" lon="-2.37678">
        <ele>40.1</ele>
        <time>2020-06-06T09:29:02Z</time>
      </trkpt>
      <trkpt lat="47.51376" lon="-2.37678">
        <ele>40.3</ele>
        <time>2020-06-06T09:29:03Z</time>
      </trkpt>
      <trkpt lat="47.51381" lon="-2.37676">
        <ele>40.4</ele>
        <time>2020-06-06T09:29:04Z</time>
      </trkpt>
      <trkpt lat="47.51385" lon="-2.37675">
        <ele>40.6</ele>
        <time>2020-06-06T09:29:05Z</time>
      </trkpt>
      <trkpt lat="47.5139" lon="-2.37674">
        <ele>40.8</ele>
        <time>2020-06-06T09:29:06Z</time>
      </trkpt>
      <trkpt lat="47.51397" lon="-2.37671">
        <ele>40.9</ele>
        <time>2020-06-06T09:29:07Z</time>
      </trkpt>
      <trkpt lat="47.51402" lon="-2.3767">
        <ele>41</ele>
        <time>2020-06-06T09:29:08Z</time>
      </trkpt>
      <trkpt lat="47.51407" lon="-2.3767">
        <ele>41.1</ele>
        <time>2020-06-06T09:29:09Z</time>
      </trkpt>
      <trkpt lat="47.51413" lon="-2.37669">
        <ele>41.2</ele>
        <time>2020-06-06T09:29:10Z</time>
      </trkpt>
      <trkpt lat="47.51418" lon="-2.37669">
        <ele>41.3</ele>
        <time>2020-06-06T09:29:11Z</time>
      </trkpt>
      <trkpt lat="47.51423" lon="-2.37668">
        <ele>41.4</ele>
        <time>2020-06-06T09:29:12Z</time>
      </trkpt>
      <trkpt lat="47.51429" lon="-2.37666">
        <ele>41.5</ele>
        <time>2020-06-06T09:29:13Z</time>
      </trkpt>
      <trkpt lat="47.51434" lon="-2.37665">
        <ele>41.6</ele>
        <time>2020-06-06T09:29:14Z</time>
      </trkpt>
      <trkpt lat="47.5144" lon="-2.37663">
        <ele>41.7</ele>
        <time>2020-06-06T09:29:15Z</time>
      </trkpt>
      <trkpt lat="47.51446" lon="-2.37663">
        <ele>41.9</ele>
        <time>2020-06-06T09:29:16Z</time>
      </trkpt>
      <trkpt lat="47.51451" lon="-2.37661">
        <ele>42</ele>
        <time>2020-06-06T09:29:17Z</time>
      </trkpt>
      <trkpt lat="47.51456" lon="-2.3766">
        <ele>42.1</ele>
        <time>2020-06-06T09:29:18Z</time>
      </trkpt>
      <trkpt lat="47.51461" lon="-2.37659">
        <ele>42.2</ele>
        <time>2020-06-06T09:29:19Z</time>
      </trkpt>
      <trkpt lat="47.51467" lon="-2.37658">
        <ele>42.3</ele>
        <time>2020-06-06T09:29:20Z</time>
      </trkpt>
      <trkpt lat="47.51472" lon="-2.37658">
        <ele>42.4</ele>
        <time>2020-06-06T09:29:21Z</time>
      </trkpt>
      <trkpt lat="47.51476" lon="-2.37658">
        <ele>42.5</ele>
        <time>2020-06-06T09:29:22Z</time>
      </trkpt>
      <trkpt lat="47.51481" lon="-2.37658">
        <ele>42.6</ele>
        <time>2020-06-06T09:29:23Z</time>
      </trkpt>
      <trkpt lat="47.51486" lon="-2.37658">
        <ele>42.7</ele>
        <time>2020-06-06T09:29:24Z</time>
      </trkpt>
      <trkpt lat="47.5149" lon="-2.37658">
        <ele>42.8</ele>
        <time>2020-06-06T09:29:25Z</time>
      </trkpt>
      <trkpt lat="47.51496" lon="-2.37657">
        <ele>42.9</ele>
        <time>2020-06-06T09:29:26Z</time>
      </trkpt>
      <trkpt lat="47.51502" lon="-2.37656">
        <ele>43</ele>
        <time>2020-06-06T09:29:27Z</time>
      </trkpt>
      <trkpt lat="47.51507" lon="-2.37655">
        <ele>43</ele>
        <time>2020-06-06T09:29:28Z</time>
      </trkpt>
      <trkpt lat="47.51512" lon="-2.37655">
        <ele>43</ele>
        <time>2020-06-06T09:29:29Z</time>
      </trkpt>
      <trkpt lat="47.51518" lon="-2.37653">
        <ele>43.1</ele>
        <time>2020-06-06T09:29:30Z</time>
      </trkpt>
      <trkpt lat="47.51523" lon="-2.37652">
        <ele>43.1</ele>
        <time>2020-06-06T09:29:31Z</time>
      </trkpt>
      <trkpt lat="47.51529" lon="-2.3765">
        <ele>43.2</ele>
        <time>2020-06-06T09:29:32Z</time>
      </trkpt>
      <trkpt lat="47.51535" lon="-2.37647">
        <ele>43.2</ele>
        <time>2020-06-06T09:29:33Z</time>
      </trkpt>
      <trkpt lat="47.51541" lon="-2.37644">
        <ele>43.3</ele>
        <time>2020-06-06T09:29:34Z</time>
      </trkpt>
      <trkpt lat="47.51546" lon="-2.37642">
        <ele>43.3</ele>
        <time>2020-06-06T09:29:35Z</time>
      </trkpt>
      <trkpt lat="47.51551" lon="-2.37641">
        <ele>43.3</ele>
        <time>2020-06-06T09:29:36Z</time>
      </trkpt>
      <trkpt lat="47.51556" lon="-2.37638">
        <ele>43.3</ele>
        <time>2020-06-06T09:29:37Z</time>
      </trkpt>
      <trkpt lat="47.51561" lon="-2.37636">
        <ele>43.4</ele>
        <time>2020-06-06T09:29:38Z</time>
      </trkpt>
      <trkpt lat="47.51566" lon="-2.37634">
        <ele>43.4</ele>
        <time>2020-06-06T09:29:39Z</time>
      </trkpt>
      <trkpt lat="47.51572" lon="-2.37633">
        <ele>43.4</ele>
        <time>2020-06-06T09:29:40Z</time>
      </trkpt>
      <trkpt lat="47.51577" lon="-2.3763">
        <ele>43.4</ele>
        <time>2020-06-06T09:29:41Z</time>
      </trkpt>
      <trkpt lat="47.51582" lon="-2.37629">
        <ele>43.4</ele>
        <time>2020-06-06T09:29:42Z</time>
      </trkpt>
      <trkpt lat="47.51588" lon="-2.37627">
        <ele>43.5</ele>
        <time>2020-06-06T09:29:43Z</time>
      </trkpt>
      <trkpt lat="47.51593" lon="-2.37624">
        <ele>43.6</ele>
        <time>2020-06-06T09:29:44Z</time>
      </trkpt>
      <trkpt lat="47.51598" lon="-2.37622">
        <ele>43.6</ele>
        <time>2020-06-06T09:29:45Z</time>
      </trkpt>
      <trkpt lat="47.51604" lon="-2.37621">
        <ele>43.6</ele>
        <time>2020-06-06T09:29:46Z</time>
      </trkpt>
      <trkpt lat="47.51609" lon="-2.37622">
        <ele>43.7</ele>
        <time>2020-06-06T09:29:47Z</time>
      </trkpt>
      <trkpt lat="47.51614" lon="-2.37625">
        <ele>43.7</ele>
        <time>2020-06-06T09:29:48Z</time>
      </trkpt>
      <trkpt lat="47.51619" lon="-2.37628">
        <ele>43.7</ele>
        <time>2020-06-06T09:29:49Z</time>
      </trkpt>
      <trkpt lat="47.51624" lon="-2.37634">
        <ele>43.7</ele>
        <time>2020-06-06T09:29:50Z</time>
      </trkpt>
      <trkpt lat="47.5163" lon="-2.3764">
        <ele>43.7</ele>
        <time>2020-06-06T09:29:51Z</time>
      </trkpt>
      <trkpt lat="47.51634" lon="-2.37647">
        <ele>43.7</ele>
        <time>2020-06-06T09:29:52Z</time>
      </trkpt>
      <trkpt lat="47.51639" lon="-2.37653">
        <ele>43.7</ele>
        <time>2020-06-06T09:29:53Z</time>
      </trkpt>
      <trkpt lat="47.51643" lon="-2.37658">
        <ele>43.7</ele>
        <time>2020-06-06T09:29:54Z</time>
      </trkpt>
      <trkpt lat="47.51648" lon="-2.37663">
        <ele>43.7</ele>
        <time>2020-06-06T09:29:55Z</time>
      </trkpt>
      <trkpt lat="47.51653" lon="-2.37667">
        <ele>43.7</ele>
        <time>2020-06-06T09:29:56Z</time>
      </trkpt>
      <trkpt lat="47.51658" lon="-2.37671">
        <ele>43.7</ele>
        <time>2020-06-06T09:29:57Z</time>
      </trkpt>
      <trkpt lat="47.51663" lon="-2.37674">
        <ele>43.8</ele>
        <time>2020-06-06T09:29:58Z</time>
      </trkpt>
      <trkpt lat="47.51669" lon="-2.37674">
        <ele>43.8</ele>
        <time>2020-06-06T09:29:59Z</time>
      </trkpt>
      <trkpt lat="47.51674" lon="-2.37674">
        <ele>43.8</ele>
        <time>2020-06-06T09:30:00Z</time>
      </trkpt>
      <trkpt lat="47.5168" lon="-2.37675">
        <ele>43.8</ele>
        <time>2020-06-06T09:30:01Z</time>
      </trkpt>
      <trkpt lat="47.51685" lon="-2.37677">
        <ele>43.8</ele>
        <time>2020-06-06T09:30:02Z</time>
      </trkpt>
      <trkpt lat="47.51689" lon="-2.3768">
        <ele>43.8</ele>
        <time>2020-06-06T09:30:03Z</time>
      </trkpt>
      <trkpt lat="47.51694" lon="-2.37683">
        <ele>43.8</ele>
        <time>2020-06-06T09:30:04Z</time>
      </trkpt>
      <trkpt lat="47.51698" lon="-2.37685">
        <ele>43.8</ele>
        <time>2020-06-06T09:30:05Z</time>
      </trkpt>
      <trkpt lat="47.51702" lon="-2.37689">
        <ele>43.9</ele>
        <time>2020-06-06T09:30:06Z</time>
      </trkpt>
      <trkpt lat="47.51706" lon="-2.37692">
        <ele>43.9</ele>
        <time>2020-06-06T09:30:07Z</time>
      </trkpt>
      <trkpt lat="47.5171" lon="-2.37696">
        <ele>43.9</ele>
        <time>2020-06-06T09:30:08Z</time>
      </trkpt>
      <trkpt lat="47.51713" lon="-2.37702">
        <ele>43.8</ele>
        <time>2020-06-06T09:30:09Z</time>
      </trkpt>
      <trkpt lat="47.51715" lon="-2.37709">
        <ele>43.8</ele>
        <time>2020-06-06T09:30:10Z</time>
      </trkpt>
      <trkpt lat="47.51716" lon="-2.37716">
        <ele>43.8</ele>
        <time>2020-06-06T09:30:11Z</time>
      </trkpt>
      <trkpt lat="47.51719" lon="-2.37723">
        <ele>43.7</ele>
        <time>2020-06-06T09:30:12Z</time>
      </trkpt>
      <trkpt lat="47.51721" lon="-2.3773">
        <ele>43.7</ele>
        <time>2020-06-06T09:30:13Z</time>
      </trkpt>
      <trkpt lat="47.51724" lon="-2.37737">
        <ele>43.6</ele>
        <time>2020-06-06T09:30:14Z</time>
      </trkpt>
      <trkpt lat="47.51727" lon="-2.37743">
        <ele>43.6</ele>
        <time>2020-06-06T09:30:15Z</time>
      </trkpt>
      <trkpt lat="47.5173" lon="-2.37749">
        <ele>43.6</ele>
        <time>2020-06-06T09:30:16Z</time>
      </trkpt>
      <trkpt lat="47.51734" lon="-2.37755">
        <ele>43.6</ele>
        <time>2020-06-06T09:30:17Z</time>
      </trkpt>
      <trkpt lat="47.51738" lon="-2.37761">
        <ele>43.5</ele>
        <time>2020-06-06T09:30:18Z</time>
      </trkpt>
      <trkpt lat="47.51742" lon="-2.37767">
        <ele>43.5</ele>
        <time>2020-06-06T09:30:19Z</time>
      </trkpt>
      <trkpt lat="47.51745" lon="-2.37772">
        <ele>43.5</ele>
        <time>2020-06-06T09:30:20Z</time>
      </trkpt>
      <trkpt lat="47.51749" lon="-2.37776">
        <ele>43.5</ele>
        <time>2020-06-06T09:30:21Z</time>
      </trkpt>
      <trkpt lat="47.51753" lon="-2.3778">
        <ele>43.5</ele>
        <time>2020-06-06T09:30:22Z</time>
      </trkpt>
      <trkpt lat="47.51757" lon="-2.37785">
        <ele>43.4</ele>
        <time>2020-06-06T09:30:23Z</time>
      </trkpt>
      <trkpt lat="47.51761" lon="-2.3779">
        <ele>43.4</ele>
        <time>2020-06-06T09:30:24Z</time>
      </trkpt>
      <trkpt lat="47.51765" lon="-2.37796">
        <ele>43.4</ele>
        <time>2020-06-06T09:30:25Z</time>
      </trkpt>
      <trkpt lat="47.51769" lon="-2.37802">
        <ele>43.4</ele>
        <time>2020-06-06T09:30:26Z</time>
      </trkpt>
      <trkpt lat="47.51773" lon="-2.37807">
        <ele>43.4</ele>
        <time>2020-06-06T09:30:27Z</time>
      </trkpt>
      <trkpt lat="47.51778" lon="-2.37812">
        <ele>43.4</ele>
        <time>2020-06-06T09:30:28Z</time>
      </trkpt>
      <trkpt lat="47.51783" lon="-2.37817">
        <ele>43.4</ele>
        <time>2020-06-06T09:30:29Z</time>
      </trkpt>
      <trkpt lat="47.51786" lon="-2.37822">
        <ele>43.4</ele>
        <time>2020-06-06T09:30:30Z</time>
      </trkpt>
      <trkpt lat="47.5179" lon="-2.37827">
        <ele>43.4</ele>
        <time>2020-06-06T09:30:31Z</time>
      </trkpt>
      <trkpt lat="47.51793" lon="-2.37833">
        <ele>43.4</ele>
        <time>2020-06-06T09:30:32Z</time>
      </trkpt>
      <trkpt lat="47.51797" lon="-2.37839">
        <ele>43.4</ele>
        <time>2020-06-06T09:30:33Z</time>
      </trkpt>
      <trkpt lat="47.51801" lon="-2.37845">
        <ele>43.4</ele>
        <time>2020-06-06T09:30:34Z</time>
      </trkpt>
      <trkpt lat="47.51805" lon="-2.37851">
        <ele>43.4</ele>
        <time>2020-06-06T09:30:35Z</time>
      </trkpt>
      <trkpt lat="47.5181" lon="-2.37858">
        <ele>43.3</ele>
        <time>2020-06-06T09:30:36Z</time>
      </trkpt>
      <trkpt lat="47.51815" lon="-2.37864">
        <ele>43.3</ele>
        <time>2020-06-06T09:30:37Z</time>
      </trkpt>
      <trkpt lat="47.51819" lon="-2.3787">
        <ele>43.3</ele>
        <time>2020-06-06T09:30:38Z</time>
      </trkpt>
      <trkpt lat="47.51824" lon="-2.37875">
        <ele>43.3</ele>
        <time>2020-06-06T09:30:39Z</time>
      </trkpt>
      <trkpt lat="47.51828" lon="-2.37882">
        <ele>43.3</ele>
        <time>2020-06-06T09:30:40Z</time>
      </trkpt>
      <trkpt lat="47.51832" lon="-2.37888">
        <ele>43.3</ele>
        <time>2020-06-06T09:30:41Z</time>
      </trkpt>
      <trkpt lat="47.51836" lon="-2.37894">
        <ele>43.3</ele>
        <time>2020-06-06T09:30:42Z</time>
      </trkpt>
      <trkpt lat="47.51841" lon="-2.37899">
        <ele>43.4</ele>
        <time>2020-06-06T09:30:43Z</time>
      </trkpt>
      <trkpt lat="47.51846" lon="-2.37905">
        <ele>43.4</ele>
        <time>2020-06-06T09:30:44Z</time>
      </trkpt>
      <trkpt lat="47.5185" lon="-2.37911">
        <ele>43.5</ele>
        <time>2020-06-06T09:30:45Z</time>
      </trkpt>
      <trkpt lat="47.51855" lon="-2.37916">
        <ele>43.5</ele>
        <time>2020-06-06T09:30:46Z</time>
      </trkpt>
      <trkpt lat="47.51859" lon="-2.37921">
        <ele>43.6</ele>
        <time>2020-06-06T09:30:47Z</time>
      </trkpt>
      <trkpt lat="47.51864" lon="-2.37927">
        <ele>43.6</ele>
        <time>2020-06-06T09:30:48Z</time>
      </trkpt>
      <trkpt lat="47.51868" lon="-2.37932">
        <ele>43.7</ele>
        <time>2020-06-06T09:30:49Z</time>
      </trkpt>
      <trkpt lat="47.51872" lon="-2.37937">
        <ele>43.8</ele>
        <time>2020-06-06T09:30:50Z</time>
      </trkpt>
      <trkpt lat="47.51876" lon="-2.37942">
        <ele>43.8</ele>
        <time>2020-06-06T09:30:51Z</time>
      </trkpt>
      <trkpt lat="47.5188" lon="-2.37948">
        <ele>43.9</ele>
        <time>2020-06-06T09:30:52Z</time>
      </trkpt>
      <trkpt lat="47.51884" lon="-2.37953">
        <ele>44</ele>
        <time>2020-06-06T09:30:53Z</time>
      </trkpt>
      <trkpt lat="47.51887" lon="-2.37959">
        <ele>44.1</ele>
        <time>2020-06-06T09:30:54Z</time>
      </trkpt>
      <trkpt lat="47.5189" lon="-2.37965">
        <ele>44.1</ele>
        <time>2020-06-06T09:30:55Z</time>
      </trkpt>
      <trkpt lat="47.51894" lon="-2.37972">
        <ele>44.2</ele>
        <time>2020-06-06T09:30:56Z</time>
      </trkpt>
      <trkpt lat="47.51898" lon="-2.37978">
        <ele>44.3</ele>
        <time>2020-06-06T09:30:57Z</time>
      </trkpt>
      <trkpt lat="47.51902" lon="-2.37985">
        <ele>44.4</ele>
        <time>2020-06-06T09:30:58Z</time>
      </trkpt>
      <trkpt lat="47.51906" lon="-2.37992">
        <ele>44.4</ele>
        <time>2020-06-06T09:30:59Z</time>
      </trkpt>
      <trkpt lat="47.5191" lon="-2.37999">
        <ele>44.5</ele>
        <time>2020-06-06T09:31:00Z</time>
      </trkpt>
      <trkpt lat="47.51914" lon="-2.38006">
        <ele>44.6</ele>
        <time>2020-06-06T09:31:01Z</time>
      </trkpt>
      <trkpt lat="47.51917" lon="-2.38013">
        <ele>44.7</ele>
        <time>2020-06-06T09:31:02Z</time>
      </trkpt>
      <trkpt lat="47.51921" lon="-2.3802">
        <ele>44.7</ele>
        <time>2020-06-06T09:31:03Z</time>
      </trkpt>
      <trkpt lat="47.51925" lon="-2.38027">
        <ele>44.8</ele>
        <time>2020-06-06T09:31:04Z</time>
      </trkpt>
      <trkpt lat="47.51928" lon="-2.38034">
        <ele>44.9</ele>
        <time>2020-06-06T09:31:05Z</time>
      </trkpt>
      <trkpt lat="47.51931" lon="-2.38041">
        <ele>45</ele>
        <time>2020-06-06T09:31:06Z</time>
      </trkpt>
      <trkpt lat="47.51935" lon="-2.38048">
        <ele>45</ele>
        <time>2020-06-06T09:31:07Z</time>
      </trkpt>
      <trkpt lat="47.51938" lon="-2.38054">
        <ele>45.1</ele>
        <time>2020-06-06T09:31:08Z</time>
      </trkpt>
      <trkpt lat="47.51941" lon="-2.38061">
        <ele>45.1</ele>
        <time>2020-06-06T09:31:09Z</time>
      </trkpt>
      <trkpt lat="47.51945" lon="-2.38068">
        <ele>45.2</ele>
        <time>2020-06-06T09:31:10Z</time>
      </trkpt>
      <trkpt lat="47.51948" lon="-2.38075">
        <ele>45.3</ele>
        <time>2020-06-06T09:31:11Z</time>
      </trkpt>
      <trkpt lat="47.51952" lon="-2.38082">
        <ele>45.3</ele>
        <time>2020-06-06T09:31:12Z</time>
      </trkpt>
      <trkpt lat="47.51956" lon="-2.3809">
        <ele>45.4</ele>
        <time>2020-06-06T09:31:13Z</time>
      </trkpt>
      <trkpt lat="47.5196" lon="-2.38097">
        <ele>45.5</ele>
        <time>2020-06-06T09:31:14Z</time>
      </trkpt>
      <trkpt lat="47.51963" lon="-2.38104">
        <ele>45.6</ele>
        <time>2020-06-06T09:31:15Z</time>
      </trkpt>
      <trkpt lat="47.51967" lon="-2.38111">
        <ele>45.6</ele>
        <time>2020-06-06T09:31:16Z</time>
      </trkpt>
      <trkpt lat="47.51971" lon="-2.38118">
        <ele>45.7</ele>
        <time>2020-06-06T09:31:17Z</time>
      </trkpt>
      <trkpt lat="47.51974" lon="-2.38126">
        <ele>45.8</ele>
        <time>2020-06-06T09:31:18Z</time>
      </trkpt>
      <trkpt lat="47.51978" lon="-2.38134">
        <ele>45.9</ele>
        <time>2020-06-06T09:31:19Z</time>
      </trkpt>
      <trkpt lat="47.51982" lon="-2.38142">
        <ele>46.1</ele>
        <time>2020-06-06T09:31:20Z</time>
      </trkpt>
      <trkpt lat="47.51985" lon="-2.3815">
        <ele>46.2</ele>
        <time>2020-06-06T09:31:21Z</time>
      </trkpt>
      <trkpt lat="47.51989" lon="-2.38156">
        <ele>46.3</ele>
        <time>2020-06-06T09:31:22Z</time>
      </trkpt>
      <trkpt lat="47.51992" lon="-2.38163">
        <ele>46.4</ele>
        <time>2020-06-06T09:31:23Z</time>
      </trkpt>
      <trkpt lat="47.51995" lon="-2.38169">
        <ele>46.5</ele>
        <time>2020-06-06T09:31:24Z</time>
      </trkpt>
      <trkpt lat="47.51999" lon="-2.38176">
        <ele>46.6</ele>
        <time>2020-06-06T09:31:25Z</time>
      </trkpt>
      <trkpt lat="47.52003" lon="-2.38183">
        <ele>46.7</ele>
        <time>2020-06-06T09:31:26Z</time>
      </trkpt>
      <trkpt lat="47.52006" lon="-2.3819">
        <ele>46.8</ele>
        <time>2020-06-06T09:31:27Z</time>
      </trkpt>
      <trkpt lat="47.52011" lon="-2.38197">
        <ele>47</ele>
        <time>2020-06-06T09:31:28Z</time>
      </trkpt>
      <trkpt lat="47.52013" lon="-2.38202">
        <ele>47.1</ele>
        <time>2020-06-06T09:31:29Z</time>
      </trkpt>
      <trkpt lat="47.52017" lon="-2.38208">
        <ele>47.2</ele>
        <time>2020-06-06T09:31:30Z</time>
      </trkpt>
      <trkpt lat="47.52019" lon="-2.38214">
        <ele>47.3</ele>
        <time>2020-06-06T09:31:31Z</time>
      </trkpt>
      <trkpt lat="47.52022" lon="-2.38221">
        <ele>47.3</ele>
        <time>2020-06-06T09:31:32Z</time>
      </trkpt>
      <trkpt lat="47.52024" lon="-2.38227">
        <ele>47.4</ele>
        <time>2020-06-06T09:31:33Z</time>
      </trkpt>
      <trkpt lat="47.52028" lon="-2.38233">
        <ele>47.5</ele>
        <time>2020-06-06T09:31:34Z</time>
      </trkpt>
      <trkpt lat="47.52031" lon="-2.3824">
        <ele>47.6</ele>
        <time>2020-06-06T09:31:35Z</time>
      </trkpt>
      <trkpt lat="47.52035" lon="-2.38247">
        <ele>47.7</ele>
        <time>2020-06-06T09:31:36Z</time>
      </trkpt>
      <trkpt lat="47.52037" lon="-2.38253">
        <ele>47.7</ele>
        <time>2020-06-06T09:31:37Z</time>
      </trkpt>
      <trkpt lat="47.5204" lon="-2.3826">
        <ele>47.8</ele>
        <time>2020-06-06T09:31:38Z</time>
      </trkpt>
      <trkpt lat="47.52043" lon="-2.38265">
        <ele>47.8</ele>
        <time>2020-06-06T09:31:39Z</time>
      </trkpt>
      <trkpt lat="47.52046" lon="-2.38272">
        <ele>47.9</ele>
        <time>2020-06-06T09:31:40Z</time>
      </trkpt>
      <trkpt lat="47.52049" lon="-2.3828">
        <ele>48</ele>
        <time>2020-06-06T09:31:41Z</time>
      </trkpt>
      <trkpt lat="47.52052" lon="-2.38287">
        <ele>48.1</ele>
        <time>2020-06-06T09:31:42Z</time>
      </trkpt>
      <trkpt lat="47.52055" lon="-2.38294">
        <ele>48.2</ele>
        <time>2020-06-06T09:31:43Z</time>
      </trkpt>
      <trkpt lat="47.52058" lon="-2.383">
        <ele>48.2</ele>
        <time>2020-06-06T09:31:44Z</time>
      </trkpt>
      <trkpt lat="47.5206" lon="-2.38306">
        <ele>48.2</ele>
        <time>2020-06-06T09:31:45Z</time>
      </trkpt>
      <trkpt lat="47.52064" lon="-2.38313">
        <ele>48.3</ele>
        <time>2020-06-06T09:31:46Z</time>
      </trkpt>
      <trkpt lat="47.52067" lon="-2.3832">
        <ele>48.3</ele>
        <time>2020-06-06T09:31:47Z</time>
      </trkpt>
      <trkpt lat="47.5207" lon="-2.38327">
        <ele>48.4</ele>
        <time>2020-06-06T09:31:48Z</time>
      </trkpt>
      <trkpt lat="47.52074" lon="-2.38334">
        <ele>48.4</ele>
        <time>2020-06-06T09:31:49Z</time>
      </trkpt>
      <trkpt lat="47.52078" lon="-2.38342">
        <ele>48.4</ele>
        <time>2020-06-06T09:31:50Z</time>
      </trkpt>
      <trkpt lat="47.52081" lon="-2.38349">
        <ele>48.5</ele>
        <time>2020-06-06T09:31:51Z</time>
      </trkpt>
      <trkpt lat="47.52085" lon="-2.38356">
        <ele>48.5</ele>
        <time>2020-06-06T09:31:52Z</time>
      </trkpt>
      <trkpt lat="47.52088" lon="-2.38363">
        <ele>48.5</ele>
        <time>2020-06-06T09:31:53Z</time>
      </trkpt>
      <trkpt lat="47.52092" lon="-2.38371">
        <ele>48.5</ele>
        <time>2020-06-06T09:31:54Z</time>
      </trkpt>
      <trkpt lat="47.52095" lon="-2.38379">
        <ele>48.6</ele>
        <time>2020-06-06T09:31:55Z</time>
      </trkpt>
      <trkpt lat="47.52098" lon="-2.38386">
        <ele>48.6</ele>
        <time>2020-06-06T09:31:56Z</time>
      </trkpt>
      <trkpt lat="47.52101" lon="-2.38393">
        <ele>48.6</ele>
        <time>2020-06-06T09:31:57Z</time>
      </trkpt>
      <trkpt lat="47.52104" lon="-2.38401">
        <ele>48.6</ele>
        <time>2020-06-06T09:31:58Z</time>
      </trkpt>
      <trkpt lat="47.52108" lon="-2.38409">
        <ele>48.5</ele>
        <time>2020-06-06T09:31:59Z</time>
      </trkpt>
      <trkpt lat="47.52112" lon="-2.38416">
        <ele>48.5</ele>
        <time>2020-06-06T09:32:00Z</time>
      </trkpt>
      <trkpt lat="47.52115" lon="-2.38424">
        <ele>48.5</ele>
        <time>2020-06-06T09:32:01Z</time>
      </trkpt>
      <trkpt lat="47.52119" lon="-2.38431">
        <ele>48.5</ele>
        <time>2020-06-06T09:32:02Z</time>
      </trkpt>
      <trkpt lat="47.52122" lon="-2.38438">
        <ele>48.5</ele>
        <time>2020-06-06T09:32:03Z</time>
      </trkpt>
      <trkpt lat="47.52125" lon="-2.38445">
        <ele>48.4</ele>
        <time>2020-06-06T09:32:04Z</time>
      </trkpt>
      <trkpt lat="47.52128" lon="-2.38452">
        <ele>48.4</ele>
        <time>2020-06-06T09:32:05Z</time>
      </trkpt>
      <trkpt lat="47.52131" lon="-2.38461">
        <ele>48.4</ele>
        <time>2020-06-06T09:32:06Z</time>
      </trkpt>
      <trkpt lat="47.52134" lon="-2.38468">
        <ele>48.4</ele>
        <time>2020-06-06T09:32:07Z</time>
      </trkpt>
      <trkpt lat="47.52137" lon="-2.38476">
        <ele>48.4</ele>
        <time>2020-06-06T09:32:08Z</time>
      </trkpt>
      <trkpt lat="47.5214" lon="-2.38485">
        <ele>48.4</ele>
        <time>2020-06-06T09:32:09Z</time>
      </trkpt>
      <trkpt lat="47.52144" lon="-2.38493">
        <ele>48.4</ele>
        <time>2020-06-06T09:32:10Z</time>
      </trkpt>
      <trkpt lat="47.52147" lon="-2.385">
        <ele>48.4</ele>
        <time>2020-06-06T09:32:11Z</time>
      </trkpt>
      <trkpt lat="47.5215" lon="-2.38506">
        <ele>48.4</ele>
        <time>2020-06-06T09:32:12Z</time>
      </trkpt>
      <trkpt lat="47.52153" lon="-2.38513">
        <ele>48.4</ele>
        <time>2020-06-06T09:32:13Z</time>
      </trkpt>
      <trkpt lat="47.52156" lon="-2.38519">
        <ele>48.3</ele>
        <time>2020-06-06T09:32:14Z</time>
      </trkpt>
      <trkpt lat="47.5216" lon="-2.38528">
        <ele>48.3</ele>
        <time>2020-06-06T09:32:15Z</time>
      </trkpt>
      <trkpt lat="47.52164" lon="-2.38537">
        <ele>48.2</ele>
        <time>2020-06-06T09:32:16Z</time>
      </trkpt>
      <trkpt lat="47.52168" lon="-2.38544">
        <ele>48.2</ele>
        <time>2020-06-06T09:32:17Z</time>
      </trkpt>
      <trkpt lat="47.52171" lon="-2.38552">
        <ele>48.2</ele>
        <time>2020-06-06T09:32:18Z</time>
      </trkpt>
      <trkpt lat="47.52175" lon="-2.3856">
        <ele>48.1</ele>
        <time>2020-06-06T09:32:19Z</time>
      </trkpt>
      <trkpt lat="47.52178" lon="-2.38567">
        <ele>48</ele>
        <time>2020-06-06T09:32:20Z</time>
      </trkpt>
      <trkpt lat="47.52182" lon="-2.38576">
        <ele>47.9</ele>
        <time>2020-06-06T09:32:21Z</time>
      </trkpt>
      <trkpt lat="47.52187" lon="-2.38584">
        <ele>47.8</ele>
        <time>2020-06-06T09:32:22Z</time>
      </trkpt>
      <trkpt lat="47.52191" lon="-2.38591">
        <ele>47.7</ele>
        <time>2020-06-06T09:32:23Z</time>
      </trkpt>
      <trkpt lat="47.52195" lon="-2.38599">
        <ele>47.6</ele>
        <time>2020-06-06T09:32:24Z</time>
      </trkpt>
      <trkpt lat="47.52199" lon="-2.38606">
        <ele>47.5</ele>
        <time>2020-06-06T09:32:25Z</time>
      </trkpt>
      <trkpt lat="47.52203" lon="-2.38613">
        <ele>47.5</ele>
        <time>2020-06-06T09:32:26Z</time>
      </trkpt>
      <trkpt lat="47.52208" lon="-2.3862">
        <ele>47.4</ele>
        <time>2020-06-06T09:32:27Z</time>
      </trkpt>
      <trkpt lat="47.52213" lon="-2.38628">
        <ele>47.4</ele>
        <time>2020-06-06T09:32:28Z</time>
      </trkpt>
      <trkpt lat="47.52217" lon="-2.38635">
        <ele>47.3</ele>
        <time>2020-06-06T09:32:29Z</time>
      </trkpt>
      <trkpt lat="47.52221" lon="-2.38641">
        <ele>47.3</ele>
        <time>2020-06-06T09:32:30Z</time>
      </trkpt>
      <trkpt lat="47.52225" lon="-2.38648">
        <ele>47.2</ele>
        <time>2020-06-06T09:32:31Z</time>
      </trkpt>
      <trkpt lat="47.5223" lon="-2.38655">
        <ele>47.1</ele>
        <time>2020-06-06T09:32:32Z</time>
      </trkpt>
      <trkpt lat="47.52234" lon="-2.38662">
        <ele>47.1</ele>
        <time>2020-06-06T09:32:33Z</time>
      </trkpt>
      <trkpt lat="47.52238" lon="-2.38668">
        <ele>47</ele>
        <time>2020-06-06T09:32:34Z</time>
      </trkpt>
      <trkpt lat="47.52243" lon="-2.38675">
        <ele>47</ele>
        <time>2020-06-06T09:32:35Z</time>
      </trkpt>
      <trkpt lat="47.52247" lon="-2.38681">
        <ele>47</ele>
        <time>2020-06-06T09:32:36Z</time>
      </trkpt>
      <trkpt lat="47.52251" lon="-2.38687">
        <ele>46.9</ele>
        <time>2020-06-06T09:32:37Z</time>
      </trkpt>
      <trkpt lat="47.52255" lon="-2.38693">
        <ele>46.9</ele>
        <time>2020-06-06T09:32:38Z</time>
      </trkpt>
      <trkpt lat="47.52259" lon="-2.387">
        <ele>46.8</ele>
        <time>2020-06-06T09:32:39Z</time>
      </trkpt>
      <trkpt lat="47.52263" lon="-2.38707">
        <ele>46.8</ele>
        <time>2020-06-06T09:32:40Z</time>
      </trkpt>
      <trkpt lat="47.52268" lon="-2.38714">
        <ele>46.7</ele>
        <time>2020-06-06T09:32:41Z</time>
      </trkpt>
      <trkpt lat="47.52272" lon="-2.38721">
        <ele>46.7</ele>
        <time>2020-06-06T09:32:42Z</time>
      </trkpt>
      <trkpt lat="47.52276" lon="-2.38728">
        <ele>46.7</ele>
        <time>2020-06-06T09:32:43Z</time>
      </trkpt>
      <trkpt lat="47.5228" lon="-2.38736">
        <ele>46.7</ele>
        <time>2020-06-06T09:32:44Z</time>
      </trkpt>
      <trkpt lat="47.52284" lon="-2.38743">
        <ele>46.7</ele>
        <time>2020-06-06T09:32:45Z</time>
      </trkpt>
      <trkpt lat="47.52289" lon="-2.3875">
        <ele>46.7</ele>
        <time>2020-06-06T09:32:46Z</time>
      </trkpt>
      <trkpt lat="47.52293" lon="-2.38757">
        <ele>46.7</ele>
        <time>2020-06-06T09:32:47Z</time>
      </trkpt>
      <trkpt lat="47.52297" lon="-2.38763">
        <ele>46.7</ele>
        <time>2020-06-06T09:32:48Z</time>
      </trkpt>
      <trkpt lat="47.52302" lon="-2.3877">
        <ele>46.7</ele>
        <time>2020-06-06T09:32:49Z</time>
      </trkpt>
      <trkpt lat="47.52305" lon="-2.38776">
        <ele>46.7</ele>
        <time>2020-06-06T09:32:50Z</time>
      </trkpt>
      <trkpt lat="47.52309" lon="-2.38782">
        <ele>46.7</ele>
        <time>2020-06-06T09:32:51Z</time>
      </trkpt>
      <trkpt lat="47.52313" lon="-2.38787">
        <ele>46.8</ele>
        <time>2020-06-06T09:32:52Z</time>
      </trkpt>
      <trkpt lat="47.52318" lon="-2.38794">
        <ele>46.8</ele>
        <time>2020-06-06T09:32:53Z</time>
      </trkpt>
      <trkpt lat="47.52322" lon="-2.38801">
        <ele>46.8</ele>
        <time>2020-06-06T09:32:54Z</time>
      </trkpt>
      <trkpt lat="47.52326" lon="-2.38808">
        <ele>46.7</ele>
        <time>2020-06-06T09:32:55Z</time>
      </trkpt>
      <trkpt lat="47.5233" lon="-2.38815">
        <ele>46.7</ele>
        <time>2020-06-06T09:32:56Z</time>
      </trkpt>
      <trkpt lat="47.52333" lon="-2.38822">
        <ele>46.7</ele>
        <time>2020-06-06T09:32:57Z</time>
      </trkpt>
      <trkpt lat="47.52335" lon="-2.38829">
        <ele>46.7</ele>
        <time>2020-06-06T09:32:58Z</time>
      </trkpt>
      <trkpt lat="47.52338" lon="-2.38837">
        <ele>46.7</ele>
        <time>2020-06-06T09:32:59Z</time>
      </trkpt>
      <trkpt lat="47.52341" lon="-2.38845">
        <ele>46.7</ele>
        <time>2020-06-06T09:33:00Z</time>
      </trkpt>
      <trkpt lat="47.52344" lon="-2.38853">
        <ele>46.6</ele>
        <time>2020-06-06T09:33:01Z</time>
      </trkpt>
      <trkpt lat="47.52346" lon="-2.38861">
        <ele>46.6</ele>
        <time>2020-06-06T09:33:02Z</time>
      </trkpt>
      <trkpt lat="47.52349" lon="-2.38868">
        <ele>46.6</ele>
        <time>2020-06-06T09:33:03Z</time>
      </trkpt>
      <trkpt lat="47.52352" lon="-2.38876">
        <ele>46.6</ele>
        <time>2020-06-06T09:33:04Z</time>
      </trkpt>
      <trkpt lat="47.52355" lon="-2.38883">
        <ele>46.6</ele>
        <time>2020-06-06T09:33:05Z</time>
      </trkpt>
      <trkpt lat="47.52357" lon="-2.38891">
        <ele>46.6</ele>
        <time>2020-06-06T09:33:06Z</time>
      </trkpt>
      <trkpt lat="47.5236" lon="-2.38898">
        <ele>46.5</ele>
        <time>2020-06-06T09:33:07Z</time>
      </trkpt>
      <trkpt lat="47.52363" lon="-2.38905">
        <ele>46.5</ele>
        <time>2020-06-06T09:33:08Z</time>
      </trkpt>
      <trkpt lat="47.52366" lon="-2.38912">
        <ele>46.5</ele>
        <time>2020-06-06T09:33:09Z</time>
      </trkpt>
      <trkpt lat="47.5237" lon="-2.3892">
        <ele>46.5</ele>
        <time>2020-06-06T09:33:10Z</time>
      </trkpt>
      <trkpt lat="47.52374" lon="-2.38927">
        <ele>46.5</ele>
        <time>2020-06-06T09:33:11Z</time>
      </trkpt>
      <trkpt lat="47.52378" lon="-2.38934">
        <ele>46.5</ele>
        <time>2020-06-06T09:33:12Z</time>
      </trkpt>
      <trkpt lat="47.52381" lon="-2.38942">
        <ele>46.4</ele>
        <time>2020-06-06T09:33:13Z</time>
      </trkpt>
      <trkpt lat="47.52385" lon="-2.38948">
        <ele>46.4</ele>
        <time>2020-06-06T09:33:14Z</time>
      </trkpt>
      <trkpt lat="47.5239" lon="-2.38956">
        <ele>46.4</ele>
        <time>2020-06-06T09:33:15Z</time>
      </trkpt>
      <trkpt lat="47.52395" lon="-2.38963">
        <ele>46.4</ele>
        <time>2020-06-06T09:33:16Z</time>
      </trkpt>
      <trkpt lat="47.52399" lon="-2.3897">
        <ele>46.4</ele>
        <time>2020-06-06T09:33:17Z</time>
      </trkpt>
      <trkpt lat="47.52403" lon="-2.38976">
        <ele>46.5</ele>
        <time>2020-06-06T09:33:18Z</time>
      </trkpt>
      <trkpt lat="47.52406" lon="-2.38983">
        <ele>46.5</ele>
        <time>2020-06-06T09:33:19Z</time>
      </trkpt>
      <trkpt lat="47.5241" lon="-2.38991">
        <ele>46.5</ele>
        <time>2020-06-06T09:33:20Z</time>
      </trkpt>
      <trkpt lat="47.52414" lon="-2.38997">
        <ele>46.5</ele>
        <time>2020-06-06T09:33:21Z</time>
      </trkpt>
      <trkpt lat="47.52418" lon="-2.39004">
        <ele>46.5</ele>
        <time>2020-06-06T09:33:22Z</time>
      </trkpt>
      <trkpt lat="47.52421" lon="-2.39011">
        <ele>46.6</ele>
        <time>2020-06-06T09:33:23Z</time>
      </trkpt>
      <trkpt lat="47.52425" lon="-2.39017">
        <ele>46.6</ele>
        <time>2020-06-06T09:33:24Z</time>
      </trkpt>
      <trkpt lat="47.52427" lon="-2.39023">
        <ele>46.6</ele>
        <time>2020-06-06T09:33:25Z</time>
      </trkpt>
      <trkpt lat="47.52431" lon="-2.3903">
        <ele>46.6</ele>
        <time>2020-06-06T09:33:26Z</time>
      </trkpt>
      <trkpt lat="47.52435" lon="-2.39037">
        <ele>46.7</ele>
        <time>2020-06-06T09:33:27Z</time>
      </trkpt>
      <trkpt lat="47.52439" lon="-2.39044">
        <ele>46.7</ele>
        <time>2020-06-06T09:33:28Z</time>
      </trkpt>
      <trkpt lat="47.52443" lon="-2.39049">
        <ele>46.8</ele>
        <time>2020-06-06T09:33:29Z</time>
      </trkpt>
      <trkpt lat="47.52446" lon="-2.39055">
        <ele>46.8</ele>
        <time>2020-06-06T09:33:30Z</time>
      </trkpt>
      <trkpt lat="47.52449" lon="-2.3906">
        <ele>46.8</ele>
        <time>2020-06-06T09:33:31Z</time>
      </trkpt>
      <trkpt lat="47.52452" lon="-2.39067">
        <ele>46.9</ele>
        <time>2020-06-06T09:33:32Z</time>
      </trkpt>
      <trkpt lat="47.52455" lon="-2.39072">
        <ele>46.9</ele>
        <time>2020-06-06T09:33:33Z</time>
      </trkpt>
      <trkpt lat="47.52457" lon="-2.39078">
        <ele>46.9</ele>
        <time>2020-06-06T09:33:34Z</time>
      </trkpt>
      <trkpt lat="47.52461" lon="-2.39085">
        <ele>47</ele>
        <time>2020-06-06T09:33:35Z</time>
      </trkpt>
      <trkpt lat="47.52464" lon="-2.39092">
        <ele>47</ele>
        <time>2020-06-06T09:33:36Z</time>
      </trkpt>
      <trkpt lat="47.5247" lon="-2.39101">
        <ele>47</ele>
        <time>2020-06-06T09:33:37Z</time>
      </trkpt>
      <trkpt lat="47.52474" lon="-2.39108">
        <ele>47.1</ele>
        <time>2020-06-06T09:33:38Z</time>
      </trkpt>
      <trkpt lat="47.52478" lon="-2.39117">
        <ele>47.2</ele>
        <time>2020-06-06T09:33:39Z</time>
      </trkpt>
      <trkpt lat="47.52481" lon="-2.39124">
        <ele>47.4</ele>
        <time>2020-06-06T09:33:40Z</time>
      </trkpt>
      <trkpt lat="47.52484" lon="-2.3913">
        <ele>47.3</ele>
        <time>2020-06-06T09:33:41Z</time>
      </trkpt>
      <trkpt lat="47.52487" lon="-2.39136">
        <ele>47.3</ele>
        <time>2020-06-06T09:33:42Z</time>
      </trkpt>
      <trkpt lat="47.5249" lon="-2.39142">
        <ele>47.3</ele>
        <time>2020-06-06T09:33:43Z</time>
      </trkpt>
      <trkpt lat="47.52493" lon="-2.39148">
        <ele>47.3</ele>
        <time>2020-06-06T09:33:44Z</time>
      </trkpt>
      <trkpt lat="47.52496" lon="-2.39154">
        <ele>47.2</ele>
        <time>2020-06-06T09:33:45Z</time>
      </trkpt>
      <trkpt lat="47.525" lon="-2.39161">
        <ele>47.2</ele>
        <time>2020-06-06T09:33:46Z</time>
      </trkpt>
      <trkpt lat="47.52503" lon="-2.39168">
        <ele>47.2</ele>
        <time>2020-06-06T09:33:47Z</time>
      </trkpt>
      <trkpt lat="47.52507" lon="-2.39175">
        <ele>47.1</ele>
        <time>2020-06-06T09:33:48Z</time>
      </trkpt>
      <trkpt lat="47.52509" lon="-2.39182">
        <ele>47</ele>
        <time>2020-06-06T09:33:49Z</time>
      </trkpt>
      <trkpt lat="47.52513" lon="-2.3919">
        <ele>47</ele>
        <time>2020-06-06T09:33:50Z</time>
      </trkpt>
      <trkpt lat="47.52517" lon="-2.39198">
        <ele>46.9</ele>
        <time>2020-06-06T09:33:51Z</time>
      </trkpt>
      <trkpt lat="47.5252" lon="-2.39205">
        <ele>46.9</ele>
        <time>2020-06-06T09:33:52Z</time>
      </trkpt>
      <trkpt lat="47.52524" lon="-2.39211">
        <ele>46.8</ele>
        <time>2020-06-06T09:33:53Z</time>
      </trkpt>
      <trkpt lat="47.52526" lon="-2.39217">
        <ele>46.8</ele>
        <time>2020-06-06T09:33:54Z</time>
      </trkpt>
      <trkpt lat="47.52529" lon="-2.39223">
        <ele>46.8</ele>
        <time>2020-06-06T09:33:55Z</time>
      </trkpt>
      <trkpt lat="47.52533" lon="-2.39231">
        <ele>46.7</ele>
        <time>2020-06-06T09:33:56Z</time>
      </trkpt>
      <trkpt lat="47.52537" lon="-2.39238">
        <ele>46.7</ele>
        <time>2020-06-06T09:33:57Z</time>
      </trkpt>
      <trkpt lat="47.52541" lon="-2.39246">
        <ele>46.6</ele>
        <time>2020-06-06T09:33:58Z</time>
      </trkpt>
      <trkpt lat="47.52544" lon="-2.39253">
        <ele>46.6</ele>
        <time>2020-06-06T09:33:59Z</time>
      </trkpt>
      <trkpt lat="47.52548" lon="-2.3926">
        <ele>46.6</ele>
        <time>2020-06-06T09:34:00Z</time>
      </trkpt>
      <trkpt lat="47.52551" lon="-2.39267">
        <ele>46.5</ele>
        <time>2020-06-06T09:34:01Z</time>
      </trkpt>
      <trkpt lat="47.52554" lon="-2.39273">
        <ele>46.5</ele>
        <time>2020-06-06T09:34:02Z</time>
      </trkpt>
      <trkpt lat="47.52558" lon="-2.39279">
        <ele>46.4</ele>
        <time>2020-06-06T09:34:03Z</time>
      </trkpt>
      <trkpt lat="47.52561" lon="-2.39286">
        <ele>46.4</ele>
        <time>2020-06-06T09:34:04Z</time>
      </trkpt>
      <trkpt lat="47.52565" lon="-2.39294">
        <ele>46.3</ele>
        <time>2020-06-06T09:34:05Z</time>
      </trkpt>
      <trkpt lat="47.52569" lon="-2.393">
        <ele>46.3</ele>
        <time>2020-06-06T09:34:06Z</time>
      </trkpt>
      <trkpt lat="47.52572" lon="-2.39306">
        <ele>46.3</ele>
        <time>2020-06-06T09:34:07Z</time>
      </trkpt>
      <trkpt lat="47.52575" lon="-2.39313">
        <ele>46.3</ele>
        <time>2020-06-06T09:34:08Z</time>
      </trkpt>
      <trkpt lat="47.52578" lon="-2.39317">
        <ele>46.3</ele>
        <time>2020-06-06T09:34:09Z</time>
      </trkpt>
      <trkpt lat="47.5258" lon="-2.39324">
        <ele>46.3</ele>
        <time>2020-06-06T09:34:10Z</time>
      </trkpt>
      <trkpt lat="47.52584" lon="-2.3933">
        <ele>46.2</ele>
        <time>2020-06-06T09:34:11Z</time>
      </trkpt>
      <trkpt lat="47.52587" lon="-2.39337">
        <ele>46.2</ele>
        <time>2020-06-06T09:34:12Z</time>
      </trkpt>
      <trkpt lat="47.5259" lon="-2.39342">
        <ele>46.2</ele>
        <time>2020-06-06T09:34:13Z</time>
      </trkpt>
      <trkpt lat="47.52593" lon="-2.39349">
        <ele>46.1</ele>
        <time>2020-06-06T09:34:14Z</time>
      </trkpt>
      <trkpt lat="47.52598" lon="-2.39356">
        <ele>46.1</ele>
        <time>2020-06-06T09:34:15Z</time>
      </trkpt>
      <trkpt lat="47.52602" lon="-2.39363">
        <ele>46</ele>
        <time>2020-06-06T09:34:16Z</time>
      </trkpt>
      <trkpt lat="47.52606" lon="-2.3937">
        <ele>46</ele>
        <time>2020-06-06T09:34:17Z</time>
      </trkpt>
      <trkpt lat="47.52609" lon="-2.39376">
        <ele>46</ele>
        <time>2020-06-06T09:34:18Z</time>
      </trkpt>
      <trkpt lat="47.52613" lon="-2.39383">
        <ele>45.9</ele>
        <time>2020-06-06T09:34:19Z</time>
      </trkpt>
      <trkpt lat="47.52617" lon="-2.3939">
        <ele>45.8</ele>
        <time>2020-06-06T09:34:20Z</time>
      </trkpt>
      <trkpt lat="47.52621" lon="-2.39398">
        <ele>45.8</ele>
        <time>2020-06-06T09:34:21Z</time>
      </trkpt>
      <trkpt lat="47.52625" lon="-2.39405">
        <ele>45.7</ele>
        <time>2020-06-06T09:34:22Z</time>
      </trkpt>
      <trkpt lat="47.52629" lon="-2.39412">
        <ele>45.6</ele>
        <time>2020-06-06T09:34:23Z</time>
      </trkpt>
      <trkpt lat="47.52633" lon="-2.39419">
        <ele>45.6</ele>
        <time>2020-06-06T09:34:24Z</time>
      </trkpt>
      <trkpt lat="47.52637" lon="-2.39427">
        <ele>45.5</ele>
        <time>2020-06-06T09:34:25Z</time>
      </trkpt>
      <trkpt lat="47.5264" lon="-2.39434">
        <ele>45.4</ele>
        <time>2020-06-06T09:34:26Z</time>
      </trkpt>
      <trkpt lat="47.52644" lon="-2.39442">
        <ele>45.3</ele>
        <time>2020-06-06T09:34:27Z</time>
      </trkpt>
      <trkpt lat="47.52648" lon="-2.39449">
        <ele>45.2</ele>
        <time>2020-06-06T09:34:28Z</time>
      </trkpt>
      <trkpt lat="47.52652" lon="-2.39456">
        <ele>45.1</ele>
        <time>2020-06-06T09:34:29Z</time>
      </trkpt>
      <trkpt lat="47.52656" lon="-2.39463">
        <ele>45</ele>
        <time>2020-06-06T09:34:30Z</time>
      </trkpt>
      <trkpt lat="47.5266" lon="-2.39471">
        <ele>44.9</ele>
        <time>2020-06-06T09:34:31Z</time>
      </trkpt>
      <trkpt lat="47.52664" lon="-2.39478">
        <ele>44.8</ele>
        <time>2020-06-06T09:34:32Z</time>
      </trkpt>
      <trkpt lat="47.52668" lon="-2.39485">
        <ele>44.7</ele>
        <time>2020-06-06T09:34:33Z</time>
      </trkpt>
      <trkpt lat="47.52672" lon="-2.39492">
        <ele>44.6</ele>
        <time>2020-06-06T09:34:34Z</time>
      </trkpt>
      <trkpt lat="47.52676" lon="-2.395">
        <ele>44.5</ele>
        <time>2020-06-06T09:34:35Z</time>
      </trkpt>
      <trkpt lat="47.52679" lon="-2.39507">
        <ele>44.4</ele>
        <time>2020-06-06T09:34:36Z</time>
      </trkpt>
      <trkpt lat="47.52683" lon="-2.39513">
        <ele>44.3</ele>
        <time>2020-06-06T09:34:37Z</time>
      </trkpt>
      <trkpt lat="47.52687" lon="-2.39521">
        <ele>44.1</ele>
        <time>2020-06-06T09:34:38Z</time>
      </trkpt>
      <trkpt lat="47.52691" lon="-2.39528">
        <ele>43.9</ele>
        <time>2020-06-06T09:34:39Z</time>
      </trkpt>
      <trkpt lat="47.52696" lon="-2.39537">
        <ele>43.8</ele>
        <time>2020-06-06T09:34:40Z</time>
      </trkpt>
      <trkpt lat="47.52699" lon="-2.39545">
        <ele>43.7</ele>
        <time>2020-06-06T09:34:41Z</time>
      </trkpt>
      <trkpt lat="47.52703" lon="-2.39554">
        <ele>43.6</ele>
        <time>2020-06-06T09:34:42Z</time>
      </trkpt>
      <trkpt lat="47.52707" lon="-2.39563">
        <ele>43.5</ele>
        <time>2020-06-06T09:34:43Z</time>
      </trkpt>
      <trkpt lat="47.52711" lon="-2.39572">
        <ele>43.4</ele>
        <time>2020-06-06T09:34:44Z</time>
      </trkpt>
      <trkpt lat="47.52714" lon="-2.39581">
        <ele>43.3</ele>
        <time>2020-06-06T09:34:45Z</time>
      </trkpt>
      <trkpt lat="47.52717" lon="-2.39591">
        <ele>43.2</ele>
        <time>2020-06-06T09:34:46Z</time>
      </trkpt>
      <trkpt lat="47.52722" lon="-2.39602">
        <ele>43.1</ele>
        <time>2020-06-06T09:34:47Z</time>
      </trkpt>
      <trkpt lat="47.52724" lon="-2.39612">
        <ele>43</ele>
        <time>2020-06-06T09:34:48Z</time>
      </trkpt>
      <trkpt lat="47.52727" lon="-2.39622">
        <ele>42.9</ele>
        <time>2020-06-06T09:34:49Z</time>
      </trkpt>
      <trkpt lat="47.52729" lon="-2.39632">
        <ele>42.9</ele>
        <time>2020-06-06T09:34:50Z</time>
      </trkpt>
      <trkpt lat="47.52731" lon="-2.39642">
        <ele>42.9</ele>
        <time>2020-06-06T09:34:51Z</time>
      </trkpt>
      <trkpt lat="47.52734" lon="-2.39652">
        <ele>42.9</ele>
        <time>2020-06-06T09:34:52Z</time>
      </trkpt>
      <trkpt lat="47.52736" lon="-2.39661">
        <ele>42.9</ele>
        <time>2020-06-06T09:34:53Z</time>
      </trkpt>
      <trkpt lat="47.52738" lon="-2.39671">
        <ele>42.9</ele>
        <time>2020-06-06T09:34:54Z</time>
      </trkpt>
      <trkpt lat="47.5274" lon="-2.39681">
        <ele>43</ele>
        <time>2020-06-06T09:34:55Z</time>
      </trkpt>
      <trkpt lat="47.52744" lon="-2.3969">
        <ele>43</ele>
        <time>2020-06-06T09:34:56Z</time>
      </trkpt>
      <trkpt lat="47.52747" lon="-2.39698">
        <ele>43.1</ele>
        <time>2020-06-06T09:34:57Z</time>
      </trkpt>
      <trkpt lat="47.52751" lon="-2.39707">
        <ele>43.2</ele>
        <time>2020-06-06T09:34:58Z</time>
      </trkpt>
      <trkpt lat="47.52755" lon="-2.39715">
        <ele>43.4</ele>
        <time>2020-06-06T09:34:59Z</time>
      </trkpt>
      <trkpt lat="47.52758" lon="-2.39723">
        <ele>43.5</ele>
        <time>2020-06-06T09:35:00Z</time>
      </trkpt>
      <trkpt lat="47.52762" lon="-2.39731">
        <ele>43.6</ele>
        <time>2020-06-06T09:35:01Z</time>
      </trkpt>
      <trkpt lat="47.52766" lon="-2.3974">
        <ele>43.8</ele>
        <time>2020-06-06T09:35:02Z</time>
      </trkpt>
      <trkpt lat="47.5277" lon="-2.39749">
        <ele>44</ele>
        <time>2020-06-06T09:35:03Z</time>
      </trkpt>
      <trkpt lat="47.52772" lon="-2.39758">
        <ele>44.2</ele>
        <time>2020-06-06T09:35:04Z</time>
      </trkpt>
      <trkpt lat="47.52775" lon="-2.39767">
        <ele>44.3</ele>
        <time>2020-06-06T09:35:05Z</time>
      </trkpt>
      <trkpt lat="47.52776" lon="-2.39777">
        <ele>44.5</ele>
        <time>2020-06-06T09:35:06Z</time>
      </trkpt>
      <trkpt lat="47.52777" lon="-2.39787">
        <ele>44.6</ele>
        <time>2020-06-06T09:35:07Z</time>
      </trkpt>
      <trkpt lat="47.52778" lon="-2.39798">
        <ele>44.7</ele>
        <time>2020-06-06T09:35:08Z</time>
      </trkpt>
      <trkpt lat="47.52778" lon="-2.39809">
        <ele>44.8</ele>
        <time>2020-06-06T09:35:09Z</time>
      </trkpt>
      <trkpt lat="47.52779" lon="-2.3982">
        <ele>44.9</ele>
        <time>2020-06-06T09:35:10Z</time>
      </trkpt>
      <trkpt lat="47.5278" lon="-2.39831">
        <ele>45</ele>
        <time>2020-06-06T09:35:11Z</time>
      </trkpt>
      <trkpt lat="47.5278" lon="-2.39842">
        <ele>45</ele>
        <time>2020-06-06T09:35:12Z</time>
      </trkpt>
      <trkpt lat="47.5278" lon="-2.39854">
        <ele>45.1</ele>
        <time>2020-06-06T09:35:13Z</time>
      </trkpt>
      <trkpt lat="47.52779" lon="-2.39865">
        <ele>45.1</ele>
        <time>2020-06-06T09:35:14Z</time>
      </trkpt>
      <trkpt lat="47.52779" lon="-2.39877">
        <ele>45.1</ele>
        <time>2020-06-06T09:35:15Z</time>
      </trkpt>
      <trkpt lat="47.52781" lon="-2.39888">
        <ele>45.2</ele>
        <time>2020-06-06T09:35:16Z</time>
      </trkpt>
      <trkpt lat="47.52782" lon="-2.39899">
        <ele>45.2</ele>
        <time>2020-06-06T09:35:17Z</time>
      </trkpt>
      <trkpt lat="47.52784" lon="-2.3991">
        <ele>45.2</ele>
        <time>2020-06-06T09:35:18Z</time>
      </trkpt>
      <trkpt lat="47.52785" lon="-2.3992">
        <ele>45.3</ele>
        <time>2020-06-06T09:35:19Z</time>
      </trkpt>
      <trkpt lat="47.52787" lon="-2.3993">
        <ele>45.3</ele>
        <time>2020-06-06T09:35:20Z</time>
      </trkpt>
      <trkpt lat="47.52788" lon="-2.3994">
        <ele>45.3</ele>
        <time>2020-06-06T09:35:21Z</time>
      </trkpt>
      <trkpt lat="47.5279" lon="-2.39948">
        <ele>45.2</ele>
        <time>2020-06-06T09:35:22Z</time>
      </trkpt>
      <trkpt lat="47.52792" lon="-2.39956">
        <ele>45.2</ele>
        <time>2020-06-06T09:35:23Z</time>
      </trkpt>
      <trkpt lat="47.52794" lon="-2.39964">
        <ele>45.1</ele>
        <time>2020-06-06T09:35:24Z</time>
      </trkpt>
      <trkpt lat="47.52797" lon="-2.39971">
        <ele>45.1</ele>
        <time>2020-06-06T09:35:25Z</time>
      </trkpt>
      <trkpt lat="47.52799" lon="-2.39978">
        <ele>45.1</ele>
        <time>2020-06-06T09:35:26Z</time>
      </trkpt>
      <trkpt lat="47.52801" lon="-2.39984">
        <ele>45.1</ele>
        <time>2020-06-06T09:35:27Z</time>
      </trkpt>
      <trkpt lat="47.52803" lon="-2.39991">
        <ele>45.2</ele>
        <time>2020-06-06T09:35:28Z</time>
      </trkpt>
      <trkpt lat="47.52806" lon="-2.39997">
        <ele>45.2</ele>
        <time>2020-06-06T09:35:29Z</time>
      </trkpt>
      <trkpt lat="47.52809" lon="-2.40003">
        <ele>45.2</ele>
        <time>2020-06-06T09:35:30Z</time>
      </trkpt>
      <trkpt lat="47.52812" lon="-2.40009">
        <ele>45.3</ele>
        <time>2020-06-06T09:35:31Z</time>
      </trkpt>
      <trkpt lat="47.52815" lon="-2.40015">
        <ele>45.3</ele>
        <time>2020-06-06T09:35:32Z</time>
      </trkpt>
      <trkpt lat="47.52817" lon="-2.40022">
        <ele>45.4</ele>
        <time>2020-06-06T09:35:33Z</time>
      </trkpt>
      <trkpt lat="47.52817" lon="-2.40028">
        <ele>45.4</ele>
        <time>2020-06-06T09:35:34Z</time>
      </trkpt>
      <trkpt lat="47.52819" lon="-2.40035">
        <ele>45.5</ele>
        <time>2020-06-06T09:35:35Z</time>
      </trkpt>
      <trkpt lat="47.52821" lon="-2.40041">
        <ele>45.5</ele>
        <time>2020-06-06T09:35:36Z</time>
      </trkpt>
      <trkpt lat="47.52822" lon="-2.40047">
        <ele>45.6</ele>
        <time>2020-06-06T09:35:37Z</time>
      </trkpt>
      <trkpt lat="47.52825" lon="-2.40052">
        <ele>45.6</ele>
        <time>2020-06-06T09:35:38Z</time>
      </trkpt>
      <trkpt lat="47.52827" lon="-2.40058">
        <ele>45.7</ele>
        <time>2020-06-06T09:35:39Z</time>
      </trkpt>
      <trkpt lat="47.5283" lon="-2.40063">
        <ele>45.7</ele>
        <time>2020-06-06T09:35:40Z</time>
      </trkpt>
      <trkpt lat="47.52833" lon="-2.40069">
        <ele>45.7</ele>
        <time>2020-06-06T09:35:41Z</time>
      </trkpt>
      <trkpt lat="47.52836" lon="-2.40076">
        <ele>45.7</ele>
        <time>2020-06-06T09:35:42Z</time>
      </trkpt>
      <trkpt lat="47.52838" lon="-2.40082">
        <ele>45.7</ele>
        <time>2020-06-06T09:35:43Z</time>
      </trkpt>
      <trkpt lat="47.5284" lon="-2.40088">
        <ele>45.7</ele>
        <time>2020-06-06T09:35:44Z</time>
      </trkpt>
      <trkpt lat="47.52842" lon="-2.40095">
        <ele>45.7</ele>
        <time>2020-06-06T09:35:45Z</time>
      </trkpt>
      <trkpt lat="47.52845" lon="-2.40101">
        <ele>45.6</ele>
        <time>2020-06-06T09:35:46Z</time>
      </trkpt>
      <trkpt lat="47.52848" lon="-2.40108">
        <ele>45.6</ele>
        <time>2020-06-06T09:35:47Z</time>
      </trkpt>
      <trkpt lat="47.52851" lon="-2.40114">
        <ele>45.5</ele>
        <time>2020-06-06T09:35:48Z</time>
      </trkpt>
      <trkpt lat="47.52854" lon="-2.40122">
        <ele>45.4</ele>
        <time>2020-06-06T09:35:49Z</time>
      </trkpt>
      <trkpt lat="47.52856" lon="-2.4013">
        <ele>45.3</ele>
        <time>2020-06-06T09:35:50Z</time>
      </trkpt>
      <trkpt lat="47.52858" lon="-2.40138">
        <ele>45.2</ele>
        <time>2020-06-06T09:35:51Z</time>
      </trkpt>
      <trkpt lat="47.5286" lon="-2.40145">
        <ele>45.1</ele>
        <time>2020-06-06T09:35:52Z</time>
      </trkpt>
      <trkpt lat="47.52862" lon="-2.40153">
        <ele>45</ele>
        <time>2020-06-06T09:35:53Z</time>
      </trkpt>
      <trkpt lat="47.52865" lon="-2.40161">
        <ele>44.8</ele>
        <time>2020-06-06T09:35:54Z</time>
      </trkpt>
      <trkpt lat="47.52867" lon="-2.40169">
        <ele>44.7</ele>
        <time>2020-06-06T09:35:55Z</time>
      </trkpt>
      <trkpt lat="47.5287" lon="-2.40177">
        <ele>44.5</ele>
        <time>2020-06-06T09:35:56Z</time>
      </trkpt>
      <trkpt lat="47.52873" lon="-2.40184">
        <ele>44.4</ele>
        <time>2020-06-06T09:35:57Z</time>
      </trkpt>
      <trkpt lat="47.52875" lon="-2.40192">
        <ele>44.2</ele>
        <time>2020-06-06T09:35:58Z</time>
      </trkpt>
      <trkpt lat="47.52878" lon="-2.402">
        <ele>44.1</ele>
        <time>2020-06-06T09:35:59Z</time>
      </trkpt>
      <trkpt lat="47.52881" lon="-2.40207">
        <ele>43.9</ele>
        <time>2020-06-06T09:36:00Z</time>
      </trkpt>
      <trkpt lat="47.52883" lon="-2.40216">
        <ele>43.7</ele>
        <time>2020-06-06T09:36:01Z</time>
      </trkpt>
      <trkpt lat="47.52886" lon="-2.40223">
        <ele>43.5</ele>
        <time>2020-06-06T09:36:02Z</time>
      </trkpt>
      <trkpt lat="47.52889" lon="-2.40231">
        <ele>43.2</ele>
        <time>2020-06-06T09:36:03Z</time>
      </trkpt>
      <trkpt lat="47.52892" lon="-2.4024">
        <ele>42.9</ele>
        <time>2020-06-06T09:36:04Z</time>
      </trkpt>
      <trkpt lat="47.52895" lon="-2.40248">
        <ele>42.7</ele>
        <time>2020-06-06T09:36:05Z</time>
      </trkpt>
      <trkpt lat="47.52898" lon="-2.40256">
        <ele>42.4</ele>
        <time>2020-06-06T09:36:06Z</time>
      </trkpt>
      <trkpt lat="47.52902" lon="-2.40263">
        <ele>42.1</ele>
        <time>2020-06-06T09:36:07Z</time>
      </trkpt>
      <trkpt lat="47.52905" lon="-2.40271">
        <ele>41.9</ele>
        <time>2020-06-06T09:36:08Z</time>
      </trkpt>
      <trkpt lat="47.52909" lon="-2.40278">
        <ele>41.7</ele>
        <time>2020-06-06T09:36:09Z</time>
      </trkpt>
      <trkpt lat="47.52912" lon="-2.40286">
        <ele>41.4</ele>
        <time>2020-06-06T09:36:10Z</time>
      </trkpt>
      <trkpt lat="47.52916" lon="-2.40293">
        <ele>41.1</ele>
        <time>2020-06-06T09:36:11Z</time>
      </trkpt>
      <trkpt lat="47.5292" lon="-2.403">
        <ele>40.8</ele>
        <time>2020-06-06T09:36:12Z</time>
      </trkpt>
      <trkpt lat="47.52925" lon="-2.40307">
        <ele>40.5</ele>
        <time>2020-06-06T09:36:13Z</time>
      </trkpt>
      <trkpt lat="47.52931" lon="-2.40313">
        <ele>40.2</ele>
        <time>2020-06-06T09:36:14Z</time>
      </trkpt>
      <trkpt lat="47.52936" lon="-2.4032">
        <ele>39.9</ele>
        <time>2020-06-06T09:36:15Z</time>
      </trkpt>
      <trkpt lat="47.52942" lon="-2.40328">
        <ele>39.7</ele>
        <time>2020-06-06T09:36:16Z</time>
      </trkpt>
      <trkpt lat="47.52948" lon="-2.40336">
        <ele>39.5</ele>
        <time>2020-06-06T09:36:17Z</time>
      </trkpt>
      <trkpt lat="47.52955" lon="-2.40342">
        <ele>39.3</ele>
        <time>2020-06-06T09:36:18Z</time>
      </trkpt>
      <trkpt lat="47.52962" lon="-2.4035">
        <ele>39.2</ele>
        <time>2020-06-06T09:36:19Z</time>
      </trkpt>
      <trkpt lat="47.52968" lon="-2.40358">
        <ele>39.2</ele>
        <time>2020-06-06T09:36:20Z</time>
      </trkpt>
      <trkpt lat="47.52975" lon="-2.40366">
        <ele>39.2</ele>
        <time>2020-06-06T09:36:21Z</time>
      </trkpt>
      <trkpt lat="47.52981" lon="-2.40374">
        <ele>39.2</ele>
        <time>2020-06-06T09:36:22Z</time>
      </trkpt>
      <trkpt lat="47.52987" lon="-2.40382">
        <ele>39.3</ele>
        <time>2020-06-06T09:36:23Z</time>
      </trkpt>
      <trkpt lat="47.52992" lon="-2.40389">
        <ele>39.4</ele>
        <time>2020-06-06T09:36:24Z</time>
      </trkpt>
      <trkpt lat="47.52998" lon="-2.40397">
        <ele>39.5</ele>
        <time>2020-06-06T09:36:25Z</time>
      </trkpt>
      <trkpt lat="47.53004" lon="-2.40404">
        <ele>39.7</ele>
        <time>2020-06-06T09:36:26Z</time>
      </trkpt>
      <trkpt lat="47.53009" lon="-2.40411">
        <ele>39.9</ele>
        <time>2020-06-06T09:36:27Z</time>
      </trkpt>
      <trkpt lat="47.53015" lon="-2.40417">
        <ele>40.2</ele>
        <time>2020-06-06T09:36:28Z</time>
      </trkpt>
      <trkpt lat="47.53021" lon="-2.40422">
        <ele>40.5</ele>
        <time>2020-06-06T09:36:29Z</time>
      </trkpt>
      <trkpt lat="47.53026" lon="-2.40428">
        <ele>40.8</ele>
        <time>2020-06-06T09:36:30Z</time>
      </trkpt>
      <trkpt lat="47.53031" lon="-2.40433">
        <ele>41.1</ele>
        <time>2020-06-06T09:36:31Z</time>
      </trkpt>
      <trkpt lat="47.53037" lon="-2.40439">
        <ele>41.5</ele>
        <time>2020-06-06T09:36:32Z</time>
      </trkpt>
      <trkpt lat="47.53042" lon="-2.40443">
        <ele>41.9</ele>
        <time>2020-06-06T09:36:33Z</time>
      </trkpt>
      <trkpt lat="47.53048" lon="-2.40447">
        <ele>42.3</ele>
        <time>2020-06-06T09:36:34Z</time>
      </trkpt>
      <trkpt lat="47.53053" lon="-2.40452">
        <ele>42.7</ele>
        <time>2020-06-06T09:36:35Z</time>
      </trkpt>
      <trkpt lat="47.53058" lon="-2.40456">
        <ele>43</ele>
        <time>2020-06-06T09:36:36Z</time>
      </trkpt>
      <trkpt lat="47.53063" lon="-2.40461">
        <ele>43.3</ele>
        <time>2020-06-06T09:36:37Z</time>
      </trkpt>
      <trkpt lat="47.53067" lon="-2.40465">
        <ele>43.7</ele>
        <time>2020-06-06T09:36:38Z</time>
      </trkpt>
      <trkpt lat="47.53072" lon="-2.40469">
        <ele>43.9</ele>
        <time>2020-06-06T09:36:39Z</time>
      </trkpt>
      <trkpt lat="47.53077" lon="-2.40473">
        <ele>44.2</ele>
        <time>2020-06-06T09:36:40Z</time>
      </trkpt>
      <trkpt lat="47.53082" lon="-2.40477">
        <ele>44.5</ele>
        <time>2020-06-06T09:36:41Z</time>
      </trkpt>
      <trkpt lat="47.53087" lon="-2.40481">
        <ele>44.7</ele>
        <time>2020-06-06T09:36:42Z</time>
      </trkpt>
      <trkpt lat="47.53092" lon="-2.40485">
        <ele>45</ele>
        <time>2020-06-06T09:36:43Z</time>
      </trkpt>
      <trkpt lat="47.53097" lon="-2.4049">
        <ele>45.2</ele>
        <time>2020-06-06T09:36:44Z</time>
      </trkpt>
      <trkpt lat="47.53101" lon="-2.40495">
        <ele>45.4</ele>
        <time>2020-06-06T09:36:45Z</time>
      </trkpt>
      <trkpt lat="47.53106" lon="-2.40501">
        <ele>45.6</ele>
        <time>2020-06-06T09:36:46Z</time>
      </trkpt>
      <trkpt lat="47.53111" lon="-2.40507">
        <ele>45.9</ele>
        <time>2020-06-06T09:36:47Z</time>
      </trkpt>
      <trkpt lat="47.53116" lon="-2.40513">
        <ele>46.1</ele>
        <time>2020-06-06T09:36:48Z</time>
      </trkpt>
      <trkpt lat="47.53121" lon="-2.40518">
        <ele>46.3</ele>
        <time>2020-06-06T09:36:49Z</time>
      </trkpt>
      <trkpt lat="47.53126" lon="-2.40524">
        <ele>46.5</ele>
        <time>2020-06-06T09:36:50Z</time>
      </trkpt>
      <trkpt lat="47.5313" lon="-2.4053">
        <ele>46.7</ele>
        <time>2020-06-06T09:36:51Z</time>
      </trkpt>
      <trkpt lat="47.53135" lon="-2.40534">
        <ele>46.8</ele>
        <time>2020-06-06T09:36:52Z</time>
      </trkpt>
      <trkpt lat="47.53139" lon="-2.40538">
        <ele>46.9</ele>
        <time>2020-06-06T09:36:53Z</time>
      </trkpt>
      <trkpt lat="47.53143" lon="-2.40542">
        <ele>47</ele>
        <time>2020-06-06T09:36:54Z</time>
      </trkpt>
      <trkpt lat="47.53147" lon="-2.40545">
        <ele>47</ele>
        <time>2020-06-06T09:36:55Z</time>
      </trkpt>
      <trkpt lat="47.53151" lon="-2.40543">
        <ele>46.9</ele>
        <time>2020-06-06T09:36:56Z</time>
      </trkpt>
      <trkpt lat="47.53156" lon="-2.40538">
        <ele>46.9</ele>
        <time>2020-06-06T09:36:57Z</time>
      </trkpt>
      <trkpt lat="47.53157" lon="-2.4053">
        <ele>46.9</ele>
        <time>2020-06-06T09:36:58Z</time>
      </trkpt>
      <trkpt lat="47.53159" lon="-2.40524">
        <ele>46.9</ele>
        <time>2020-06-06T09:36:59Z</time>
      </trkpt>
      <trkpt lat="47.53161" lon="-2.40517">
        <ele>46.9</ele>
        <time>2020-06-06T09:37:00Z</time>
      </trkpt>
      <trkpt lat="47.53162" lon="-2.4051">
        <ele>46.9</ele>
        <time>2020-06-06T09:37:01Z</time>
      </trkpt>
      <trkpt lat="47.53164" lon="-2.40504">
        <ele>46.9</ele>
        <time>2020-06-06T09:37:02Z</time>
      </trkpt>
      <trkpt lat="47.53165" lon="-2.40495">
        <ele>46.8</ele>
        <time>2020-06-06T09:37:03Z</time>
      </trkpt>
      <trkpt lat="47.53168" lon="-2.40488">
        <ele>46.8</ele>
        <time>2020-06-06T09:37:04Z</time>
      </trkpt>
      <trkpt lat="47.5317" lon="-2.40483">
        <ele>46.8</ele>
        <time>2020-06-06T09:37:05Z</time>
      </trkpt>
      <trkpt lat="47.53174" lon="-2.40478">
        <ele>46.7</ele>
        <time>2020-06-06T09:37:06Z</time>
      </trkpt>
      <trkpt lat="47.53177" lon="-2.40478">
        <ele>46.7</ele>
        <time>2020-06-06T09:37:07Z</time>
      </trkpt>
      <trkpt lat="47.5318" lon="-2.40478">
        <ele>46.7</ele>
        <time>2020-06-06T09:37:08Z</time>
      </trkpt>
      <trkpt lat="47.53185" lon="-2.40478">
        <ele>46.6</ele>
        <time>2020-06-06T09:37:09Z</time>
      </trkpt>
      <trkpt lat="47.53191" lon="-2.4048">
        <ele>46.6</ele>
        <time>2020-06-06T09:37:10Z</time>
      </trkpt>
      <trkpt lat="47.53196" lon="-2.40481">
        <ele>46.5</ele>
        <time>2020-06-06T09:37:11Z</time>
      </trkpt>
      <trkpt lat="47.53201" lon="-2.40482">
        <ele>46.5</ele>
        <time>2020-06-06T09:37:12Z</time>
      </trkpt>
      <trkpt lat="47.53205" lon="-2.40484">
        <ele>46.6</ele>
        <time>2020-06-06T09:37:13Z</time>
      </trkpt>
      <trkpt lat="47.53211" lon="-2.40487">
        <ele>46.6</ele>
        <time>2020-06-06T09:37:14Z</time>
      </trkpt>
      <trkpt lat="47.53216" lon="-2.4049">
        <ele>46.7</ele>
        <time>2020-06-06T09:37:15Z</time>
      </trkpt>
      <trkpt lat="47.53221" lon="-2.40493">
        <ele>46.7</ele>
        <time>2020-06-06T09:37:16Z</time>
      </trkpt>
      <trkpt lat="47.53226" lon="-2.40497">
        <ele>46.8</ele>
        <time>2020-06-06T09:37:17Z</time>
      </trkpt>
      <trkpt lat="47.5323" lon="-2.40501">
        <ele>46.8</ele>
        <time>2020-06-06T09:37:18Z</time>
      </trkpt>
      <trkpt lat="47.53234" lon="-2.40504">
        <ele>46.8</ele>
        <time>2020-06-06T09:37:19Z</time>
      </trkpt>
      <trkpt lat="47.53237" lon="-2.40507">
        <ele>46.8</ele>
        <time>2020-06-06T09:37:20Z</time>
      </trkpt>
      <trkpt lat="47.53241" lon="-2.40511">
        <ele>46.9</ele>
        <time>2020-06-06T09:37:21Z</time>
      </trkpt>
      <trkpt lat="47.53246" lon="-2.40514">
        <ele>47</ele>
        <time>2020-06-06T09:37:22Z</time>
      </trkpt>
      <trkpt lat="47.53251" lon="-2.40518">
        <ele>47.1</ele>
        <time>2020-06-06T09:37:23Z</time>
      </trkpt>
      <trkpt lat="47.53255" lon="-2.40522">
        <ele>47.2</ele>
        <time>2020-06-06T09:37:24Z</time>
      </trkpt>
      <trkpt lat="47.5326" lon="-2.40524">
        <ele>47.4</ele>
        <time>2020-06-06T09:37:25Z</time>
      </trkpt>
      <trkpt lat="47.53264" lon="-2.40526">
        <ele>47.5</ele>
        <time>2020-06-06T09:37:26Z</time>
      </trkpt>
      <trkpt lat="47.53267" lon="-2.40529">
        <ele>47.6</ele>
        <time>2020-06-06T09:37:27Z</time>
      </trkpt>
      <trkpt lat="47.5327" lon="-2.40532">
        <ele>47.7</ele>
        <time>2020-06-06T09:37:28Z</time>
      </trkpt>
      <trkpt lat="47.53274" lon="-2.40534">
        <ele>47.7</ele>
        <time>2020-06-06T09:37:29Z</time>
      </trkpt>
      <trkpt lat="47.53278" lon="-2.40537">
        <ele>47.8</ele>
        <time>2020-06-06T09:37:30Z</time>
      </trkpt>
      <trkpt lat="47.53282" lon="-2.40539">
        <ele>47.9</ele>
        <time>2020-06-06T09:37:31Z</time>
      </trkpt>
      <trkpt lat="47.53286" lon="-2.40542">
        <ele>48</ele>
        <time>2020-06-06T09:37:32Z</time>
      </trkpt>
      <trkpt lat="47.5329" lon="-2.40545">
        <ele>48.1</ele>
        <time>2020-06-06T09:37:33Z</time>
      </trkpt>
      <trkpt lat="47.53295" lon="-2.40548">
        <ele>48.1</ele>
        <time>2020-06-06T09:37:34Z</time>
      </trkpt>
      <trkpt lat="47.53298" lon="-2.40551">
        <ele>48.2</ele>
        <time>2020-06-06T09:37:35Z</time>
      </trkpt>
      <trkpt lat="47.53302" lon="-2.40554">
        <ele>48.3</ele>
        <time>2020-06-06T09:37:36Z</time>
      </trkpt>
      <trkpt lat="47.53306" lon="-2.40556">
        <ele>48.4</ele>
        <time>2020-06-06T09:37:37Z</time>
      </trkpt>
      <trkpt lat="47.53311" lon="-2.40559">
        <ele>48.5</ele>
        <time>2020-06-06T09:37:38Z</time>
      </trkpt>
      <trkpt lat="47.53317" lon="-2.40561">
        <ele>48.6</ele>
        <time>2020-06-06T09:37:39Z</time>
      </trkpt>
      <trkpt lat="47.53321" lon="-2.40564">
        <ele>48.7</ele>
        <time>2020-06-06T09:37:40Z</time>
      </trkpt>
      <trkpt lat="47.53326" lon="-2.40568">
        <ele>48.9</ele>
        <time>2020-06-06T09:37:41Z</time>
      </trkpt>
      <trkpt lat="47.5333" lon="-2.40571">
        <ele>49</ele>
        <time>2020-06-06T09:37:42Z</time>
      </trkpt>
      <trkpt lat="47.53334" lon="-2.40574">
        <ele>49.1</ele>
        <time>2020-06-06T09:37:43Z</time>
      </trkpt>
      <trkpt lat="47.53339" lon="-2.40577">
        <ele>49.2</ele>
        <time>2020-06-06T09:37:44Z</time>
      </trkpt>
      <trkpt lat="47.53343" lon="-2.4058">
        <ele>49.3</ele>
        <time>2020-06-06T09:37:45Z</time>
      </trkpt>
      <trkpt lat="47.53347" lon="-2.40584">
        <ele>49.4</ele>
        <time>2020-06-06T09:37:46Z</time>
      </trkpt>
      <trkpt lat="47.5335" lon="-2.40587">
        <ele>49.5</ele>
        <time>2020-06-06T09:37:47Z</time>
      </trkpt>
      <trkpt lat="47.53354" lon="-2.4059">
        <ele>49.6</ele>
        <time>2020-06-06T09:37:48Z</time>
      </trkpt>
      <trkpt lat="47.53359" lon="-2.40594">
        <ele>49.7</ele>
        <time>2020-06-06T09:37:49Z</time>
      </trkpt>
      <trkpt lat="47.53363" lon="-2.40598">
        <ele>49.9</ele>
        <time>2020-06-06T09:37:50Z</time>
      </trkpt>
      <trkpt lat="47.53366" lon="-2.40601">
        <ele>50</ele>
        <time>2020-06-06T09:37:51Z</time>
      </trkpt>
      <trkpt lat="47.53369" lon="-2.40604">
        <ele>50.1</ele>
        <time>2020-06-06T09:37:52Z</time>
      </trkpt>
      <trkpt lat="47.53373" lon="-2.40607">
        <ele>50.3</ele>
        <time>2020-06-06T09:37:53Z</time>
      </trkpt>
      <trkpt lat="47.53377" lon="-2.40609">
        <ele>50.5</ele>
        <time>2020-06-06T09:37:54Z</time>
      </trkpt>
      <trkpt lat="47.53381" lon="-2.40612">
        <ele>50.6</ele>
        <time>2020-06-06T09:37:55Z</time>
      </trkpt>
      <trkpt lat="47.53385" lon="-2.40614">
        <ele>50.7</ele>
        <time>2020-06-06T09:37:56Z</time>
      </trkpt>
      <trkpt lat="47.53389" lon="-2.40617">
        <ele>50.9</ele>
        <time>2020-06-06T09:37:57Z</time>
      </trkpt>
      <trkpt lat="47.53393" lon="-2.4062">
        <ele>51</ele>
        <time>2020-06-06T09:37:58Z</time>
      </trkpt>
      <trkpt lat="47.53397" lon="-2.40623">
        <ele>51.2</ele>
        <time>2020-06-06T09:37:59Z</time>
      </trkpt>
      <trkpt lat="47.53401" lon="-2.40627">
        <ele>51.3</ele>
        <time>2020-06-06T09:38:00Z</time>
      </trkpt>
      <trkpt lat="47.53405" lon="-2.40632">
        <ele>51.5</ele>
        <time>2020-06-06T09:38:01Z</time>
      </trkpt>
      <trkpt lat="47.53408" lon="-2.40638">
        <ele>51.6</ele>
        <time>2020-06-06T09:38:02Z</time>
      </trkpt>
      <trkpt lat="47.5341" lon="-2.40643">
        <ele>51.8</ele>
        <time>2020-06-06T09:38:03Z</time>
      </trkpt>
      <trkpt lat="47.53412" lon="-2.40649">
        <ele>51.9</ele>
        <time>2020-06-06T09:38:04Z</time>
      </trkpt>
      <trkpt lat="47.53413" lon="-2.40654">
        <ele>52</ele>
        <time>2020-06-06T09:38:05Z</time>
      </trkpt>
      <trkpt lat="47.53416" lon="-2.4066">
        <ele>52.1</ele>
        <time>2020-06-06T09:38:06Z</time>
      </trkpt>
      <trkpt lat="47.53418" lon="-2.40666">
        <ele>52.2</ele>
        <time>2020-06-06T09:38:07Z</time>
      </trkpt>
      <trkpt lat="47.5342" lon="-2.40671">
        <ele>52.3</ele>
        <time>2020-06-06T09:38:08Z</time>
      </trkpt>
      <trkpt lat="47.53422" lon="-2.40676">
        <ele>52.5</ele>
        <time>2020-06-06T09:38:09Z</time>
      </trkpt>
      <trkpt lat="47.53425" lon="-2.40681">
        <ele>52.6</ele>
        <time>2020-06-06T09:38:10Z</time>
      </trkpt>
      <trkpt lat="47.53428" lon="-2.40688">
        <ele>52.8</ele>
        <time>2020-06-06T09:38:11Z</time>
      </trkpt>
      <trkpt lat="47.5343" lon="-2.40694">
        <ele>52.9</ele>
        <time>2020-06-06T09:38:12Z</time>
      </trkpt>
      <trkpt lat="47.53433" lon="-2.407">
        <ele>53</ele>
        <time>2020-06-06T09:38:13Z</time>
      </trkpt>
      <trkpt lat="47.53436" lon="-2.40705">
        <ele>53.1</ele>
        <time>2020-06-06T09:38:14Z</time>
      </trkpt>
      <trkpt lat="47.53438" lon="-2.40709">
        <ele>53.2</ele>
        <time>2020-06-06T09:38:15Z</time>
      </trkpt>
      <trkpt lat="47.5344" lon="-2.40713">
        <ele>53.2</ele>
        <time>2020-06-06T09:38:16Z</time>
      </trkpt>
      <trkpt lat="47.53441" lon="-2.40718">
        <ele>53.3</ele>
        <time>2020-06-06T09:38:17Z</time>
      </trkpt>
      <trkpt lat="47.53442" lon="-2.4072">
        <ele>53.4</ele>
        <time>2020-06-06T09:38:18Z</time>
      </trkpt>
      <trkpt lat="47.53445" lon="-2.40726">
        <ele>53.5</ele>
        <time>2020-06-06T09:38:19Z</time>
      </trkpt>
      <trkpt lat="47.53446" lon="-2.4073">
        <ele>53.6</ele>
        <time>2020-06-06T09:38:20Z</time>
      </trkpt>
      <trkpt lat="47.53448" lon="-2.40735">
        <ele>53.7</ele>
        <time>2020-06-06T09:38:21Z</time>
      </trkpt>
      <trkpt lat="47.53451" lon="-2.40741">
        <ele>53.8</ele>
        <time>2020-06-06T09:38:22Z</time>
      </trkpt>
      <trkpt lat="47.53452" lon="-2.40743">
        <ele>53.8</ele>
        <time>2020-06-06T09:38:23Z</time>
      </trkpt>
      <trkpt lat="47.53455" lon="-2.40748">
        <ele>53.9</ele>
        <time>2020-06-06T09:38:24Z</time>
      </trkpt>
      <trkpt lat="47.53457" lon="-2.40753">
        <ele>54</ele>
        <time>2020-06-06T09:38:25Z</time>
      </trkpt>
      <trkpt lat="47.53459" lon="-2.40758">
        <ele>54.1</ele>
        <time>2020-06-06T09:38:26Z</time>
      </trkpt>
      <trkpt lat="47.53462" lon="-2.40764">
        <ele>54.2</ele>
        <time>2020-06-06T09:38:27Z</time>
      </trkpt>
      <trkpt lat="47.53465" lon="-2.40772">
        <ele>54.4</ele>
        <time>2020-06-06T09:38:28Z</time>
      </trkpt>
      <trkpt lat="47.53467" lon="-2.40777">
        <ele>54.5</ele>
        <time>2020-06-06T09:38:29Z</time>
      </trkpt>
      <trkpt lat="47.53469" lon="-2.40782">
        <ele>54.6</ele>
        <time>2020-06-06T09:38:30Z</time>
      </trkpt>
      <trkpt lat="47.53472" lon="-2.40787">
        <ele>54.7</ele>
        <time>2020-06-06T09:38:31Z</time>
      </trkpt>
      <trkpt lat="47.53474" lon="-2.40793">
        <ele>54.8</ele>
        <time>2020-06-06T09:38:32Z</time>
      </trkpt>
      <trkpt lat="47.53477" lon="-2.40799">
        <ele>54.9</ele>
        <time>2020-06-06T09:38:33Z</time>
      </trkpt>
      <trkpt lat="47.53479" lon="-2.40804">
        <ele>55</ele>
        <time>2020-06-06T09:38:34Z</time>
      </trkpt>
      <trkpt lat="47.53481" lon="-2.4081">
        <ele>55.1</ele>
        <time>2020-06-06T09:38:35Z</time>
      </trkpt>
      <trkpt lat="47.53484" lon="-2.40815">
        <ele>55.2</ele>
        <time>2020-06-06T09:38:36Z</time>
      </trkpt>
      <trkpt lat="47.53487" lon="-2.40819">
        <ele>55.2</ele>
        <time>2020-06-06T09:38:37Z</time>
      </trkpt>
      <trkpt lat="47.5349" lon="-2.40822">
        <ele>55.2</ele>
        <time>2020-06-06T09:38:38Z</time>
      </trkpt>
      <trkpt lat="47.53494" lon="-2.40823">
        <ele>55.3</ele>
        <time>2020-06-06T09:38:39Z</time>
      </trkpt>
      <trkpt lat="47.53497" lon="-2.40825">
        <ele>55.3</ele>
        <time>2020-06-06T09:38:40Z</time>
      </trkpt>
      <trkpt lat="47.53501" lon="-2.40828">
        <ele>55.3</ele>
        <time>2020-06-06T09:38:41Z</time>
      </trkpt>
      <trkpt lat="47.53504" lon="-2.40831">
        <ele>55.4</ele>
        <time>2020-06-06T09:38:42Z</time>
      </trkpt>
      <trkpt lat="47.53507" lon="-2.40834">
        <ele>55.4</ele>
        <time>2020-06-06T09:38:43Z</time>
      </trkpt>
      <trkpt lat="47.5351" lon="-2.40837">
        <ele>55.4</ele>
        <time>2020-06-06T09:38:44Z</time>
      </trkpt>
      <trkpt lat="47.53514" lon="-2.4084">
        <ele>55.4</ele>
        <time>2020-06-06T09:38:45Z</time>
      </trkpt>
      <trkpt lat="47.53517" lon="-2.40843">
        <ele>55.5</ele>
        <time>2020-06-06T09:38:46Z</time>
      </trkpt>
      <trkpt lat="47.53521" lon="-2.40846">
        <ele>55.5</ele>
        <time>2020-06-06T09:38:47Z</time>
      </trkpt>
      <trkpt lat="47.53525" lon="-2.40849">
        <ele>55.5</ele>
        <time>2020-06-06T09:38:48Z</time>
      </trkpt>
      <trkpt lat="47.5353" lon="-2.40851">
        <ele>55.5</ele>
        <time>2020-06-06T09:38:49Z</time>
      </trkpt>
      <trkpt lat="47.53534" lon="-2.40853">
        <ele>55.5</ele>
        <time>2020-06-06T09:38:50Z</time>
      </trkpt>
      <trkpt lat="47.53539" lon="-2.40855">
        <ele>55.5</ele>
        <time>2020-06-06T09:38:51Z</time>
      </trkpt>
      <trkpt lat="47.53543" lon="-2.40859">
        <ele>55.4</ele>
        <time>2020-06-06T09:38:52Z</time>
      </trkpt>
      <trkpt lat="47.53548" lon="-2.40862">
        <ele>55.4</ele>
        <time>2020-06-06T09:38:53Z</time>
      </trkpt>
      <trkpt lat="47.53553" lon="-2.40866">
        <ele>55.3</ele>
        <time>2020-06-06T09:38:54Z</time>
      </trkpt>
      <trkpt lat="47.53558" lon="-2.40869">
        <ele>55.2</ele>
        <time>2020-06-06T09:38:55Z</time>
      </trkpt>
      <trkpt lat="47.53563" lon="-2.40872">
        <ele>55.2</ele>
        <time>2020-06-06T09:38:56Z</time>
      </trkpt>
      <trkpt lat="47.53566" lon="-2.40876">
        <ele>55.1</ele>
        <time>2020-06-06T09:38:57Z</time>
      </trkpt>
      <trkpt lat="47.53571" lon="-2.4088">
        <ele>55</ele>
        <time>2020-06-06T09:38:58Z</time>
      </trkpt>
      <trkpt lat="47.53575" lon="-2.40883">
        <ele>54.9</ele>
        <time>2020-06-06T09:38:59Z</time>
      </trkpt>
      <trkpt lat="47.53578" lon="-2.40887">
        <ele>54.8</ele>
        <time>2020-06-06T09:39:00Z</time>
      </trkpt>
      <trkpt lat="47.53583" lon="-2.4089">
        <ele>54.7</ele>
        <time>2020-06-06T09:39:01Z</time>
      </trkpt>
      <trkpt lat="47.53585" lon="-2.40894">
        <ele>54.6</ele>
        <time>2020-06-06T09:39:02Z</time>
      </trkpt>
      <trkpt lat="47.53589" lon="-2.40898">
        <ele>54.5</ele>
        <time>2020-06-06T09:39:03Z</time>
      </trkpt>
      <trkpt lat="47.53593" lon="-2.40903">
        <ele>54.4</ele>
        <time>2020-06-06T09:39:04Z</time>
      </trkpt>
      <trkpt lat="47.53597" lon="-2.40906">
        <ele>54.3</ele>
        <time>2020-06-06T09:39:05Z</time>
      </trkpt>
      <trkpt lat="47.53602" lon="-2.4091">
        <ele>54.1</ele>
        <time>2020-06-06T09:39:06Z</time>
      </trkpt>
      <trkpt lat="47.53607" lon="-2.40913">
        <ele>53.9</ele>
        <time>2020-06-06T09:39:07Z</time>
      </trkpt>
      <trkpt lat="47.53612" lon="-2.40916">
        <ele>53.7</ele>
        <time>2020-06-06T09:39:08Z</time>
      </trkpt>
      <trkpt lat="47.53618" lon="-2.40921">
        <ele>53.5</ele>
        <time>2020-06-06T09:39:09Z</time>
      </trkpt>
      <trkpt lat="47.53626" lon="-2.40926">
        <ele>53.2</ele>
        <time>2020-06-06T09:39:10Z</time>
      </trkpt>
      <trkpt lat="47.53632" lon="-2.40931">
        <ele>53</ele>
        <time>2020-06-06T09:39:11Z</time>
      </trkpt>
      <trkpt lat="47.53638" lon="-2.40935">
        <ele>52.8</ele>
        <time>2020-06-06T09:39:12Z</time>
      </trkpt>
      <trkpt lat="47.53645" lon="-2.40941">
        <ele>52.6</ele>
        <time>2020-06-06T09:39:13Z</time>
      </trkpt>
      <trkpt lat="47.53651" lon="-2.40945">
        <ele>52.4</ele>
        <time>2020-06-06T09:39:14Z</time>
      </trkpt>
      <trkpt lat="47.53657" lon="-2.40951">
        <ele>52.2</ele>
        <time>2020-06-06T09:39:15Z</time>
      </trkpt>
      <trkpt lat="47.53661" lon="-2.40958">
        <ele>52.1</ele>
        <time>2020-06-06T09:39:16Z</time>
      </trkpt>
      <trkpt lat="47.53664" lon="-2.40967">
        <ele>52</ele>
        <time>2020-06-06T09:39:17Z</time>
      </trkpt>
      <trkpt lat="47.53668" lon="-2.40977">
        <ele>51.8</ele>
        <time>2020-06-06T09:39:18Z</time>
      </trkpt>
      <trkpt lat="47.53671" lon="-2.40987">
        <ele>51.7</ele>
        <time>2020-06-06T09:39:19Z</time>
      </trkpt>
      <trkpt lat="47.53673" lon="-2.40997">
        <ele>51.6</ele>
        <time>2020-06-06T09:39:20Z</time>
      </trkpt>
      <trkpt lat="47.53675" lon="-2.41005">
        <ele>51.5</ele>
        <time>2020-06-06T09:39:21Z</time>
      </trkpt>
      <trkpt lat="47.53677" lon="-2.41014">
        <ele>51.5</ele>
        <time>2020-06-06T09:39:22Z</time>
      </trkpt>
      <trkpt lat="47.5368" lon="-2.41023">
        <ele>51.5</ele>
        <time>2020-06-06T09:39:23Z</time>
      </trkpt>
      <trkpt lat="47.53682" lon="-2.41033">
        <ele>51.3</ele>
        <time>2020-06-06T09:39:24Z</time>
      </trkpt>
      <trkpt lat="47.53685" lon="-2.41042">
        <ele>51.2</ele>
        <time>2020-06-06T09:39:25Z</time>
      </trkpt>
      <trkpt lat="47.53688" lon="-2.41052">
        <ele>51.1</ele>
        <time>2020-06-06T09:39:26Z</time>
      </trkpt>
      <trkpt lat="47.5369" lon="-2.41061">
        <ele>51</ele>
        <time>2020-06-06T09:39:27Z</time>
      </trkpt>
      <trkpt lat="47.53693" lon="-2.41071">
        <ele>51</ele>
        <time>2020-06-06T09:39:28Z</time>
      </trkpt>
      <trkpt lat="47.53696" lon="-2.41082">
        <ele>50.9</ele>
        <time>2020-06-06T09:39:29Z</time>
      </trkpt>
      <trkpt lat="47.53698" lon="-2.41092">
        <ele>50.9</ele>
        <time>2020-06-06T09:39:30Z</time>
      </trkpt>
      <trkpt lat="47.537" lon="-2.41102">
        <ele>50.9</ele>
        <time>2020-06-06T09:39:31Z</time>
      </trkpt>
      <trkpt lat="47.53703" lon="-2.41111">
        <ele>50.9</ele>
        <time>2020-06-06T09:39:32Z</time>
      </trkpt>
      <trkpt lat="47.53706" lon="-2.41121">
        <ele>50.9</ele>
        <time>2020-06-06T09:39:33Z</time>
      </trkpt>
      <trkpt lat="47.53708" lon="-2.41132">
        <ele>50.9</ele>
        <time>2020-06-06T09:39:34Z</time>
      </trkpt>
      <trkpt lat="47.53711" lon="-2.41142">
        <ele>50.9</ele>
        <time>2020-06-06T09:39:35Z</time>
      </trkpt>
      <trkpt lat="47.53714" lon="-2.41151">
        <ele>51</ele>
        <time>2020-06-06T09:39:36Z</time>
      </trkpt>
      <trkpt lat="47.53716" lon="-2.41161">
        <ele>51</ele>
        <time>2020-06-06T09:39:37Z</time>
      </trkpt>
      <trkpt lat="47.53719" lon="-2.41171">
        <ele>50.9</ele>
        <time>2020-06-06T09:39:38Z</time>
      </trkpt>
      <trkpt lat="47.53722" lon="-2.41181">
        <ele>50.9</ele>
        <time>2020-06-06T09:39:39Z</time>
      </trkpt>
      <trkpt lat="47.53725" lon="-2.4119">
        <ele>50.8</ele>
        <time>2020-06-06T09:39:40Z</time>
      </trkpt>
      <trkpt lat="47.53728" lon="-2.41199">
        <ele>50.8</ele>
        <time>2020-06-06T09:39:41Z</time>
      </trkpt>
      <trkpt lat="47.53731" lon="-2.41209">
        <ele>50.7</ele>
        <time>2020-06-06T09:39:42Z</time>
      </trkpt>
      <trkpt lat="47.53733" lon="-2.41219">
        <ele>50.6</ele>
        <time>2020-06-06T09:39:43Z</time>
      </trkpt>
      <trkpt lat="47.53737" lon="-2.41228">
        <ele>50.5</ele>
        <time>2020-06-06T09:39:44Z</time>
      </trkpt>
      <trkpt lat="47.53739" lon="-2.41237">
        <ele>50.5</ele>
        <time>2020-06-06T09:39:45Z</time>
      </trkpt>
      <trkpt lat="47.53742" lon="-2.41247">
        <ele>50.5</ele>
        <time>2020-06-06T09:39:46Z</time>
      </trkpt>
      <trkpt lat="47.53745" lon="-2.41256">
        <ele>50.5</ele>
        <time>2020-06-06T09:39:47Z</time>
      </trkpt>
      <trkpt lat="47.53748" lon="-2.41265">
        <ele>50.4</ele>
        <time>2020-06-06T09:39:48Z</time>
      </trkpt>
      <trkpt lat="47.53751" lon="-2.41275">
        <ele>50.4</ele>
        <time>2020-06-06T09:39:49Z</time>
      </trkpt>
      <trkpt lat="47.53754" lon="-2.41284">
        <ele>50.3</ele>
        <time>2020-06-06T09:39:50Z</time>
      </trkpt>
      <trkpt lat="47.53756" lon="-2.41294">
        <ele>50.2</ele>
        <time>2020-06-06T09:39:51Z</time>
      </trkpt>
      <trkpt lat="47.53759" lon="-2.41304">
        <ele>50.2</ele>
        <time>2020-06-06T09:39:52Z</time>
      </trkpt>
      <trkpt lat="47.53762" lon="-2.41313">
        <ele>50.1</ele>
        <time>2020-06-06T09:39:53Z</time>
      </trkpt>
      <trkpt lat="47.53765" lon="-2.41323">
        <ele>50</ele>
        <time>2020-06-06T09:39:54Z</time>
      </trkpt>
      <trkpt lat="47.53768" lon="-2.41333">
        <ele>50</ele>
        <time>2020-06-06T09:39:55Z</time>
      </trkpt>
      <trkpt lat="47.53771" lon="-2.41342">
        <ele>49.9</ele>
        <time>2020-06-06T09:39:56Z</time>
      </trkpt>
      <trkpt lat="47.53774" lon="-2.41352">
        <ele>49.8</ele>
        <time>2020-06-06T09:39:57Z</time>
      </trkpt>
      <trkpt lat="47.53777" lon="-2.41362">
        <ele>49.8</ele>
        <time>2020-06-06T09:39:58Z</time>
      </trkpt>
      <trkpt lat="47.5378" lon="-2.41372">
        <ele>49.7</ele>
        <time>2020-06-06T09:39:59Z</time>
      </trkpt>
      <trkpt lat="47.53782" lon="-2.41382">
        <ele>49.6</ele>
        <time>2020-06-06T09:40:00Z</time>
      </trkpt>
      <trkpt lat="47.53784" lon="-2.41393">
        <ele>49.6</ele>
        <time>2020-06-06T09:40:01Z</time>
      </trkpt>
      <trkpt lat="47.53787" lon="-2.41403">
        <ele>49.5</ele>
        <time>2020-06-06T09:40:02Z</time>
      </trkpt>
      <trkpt lat="47.53789" lon="-2.41414">
        <ele>49.4</ele>
        <time>2020-06-06T09:40:03Z</time>
      </trkpt>
      <trkpt lat="47.53792" lon="-2.41424">
        <ele>49.4</ele>
        <time>2020-06-06T09:40:04Z</time>
      </trkpt>
      <trkpt lat="47.53795" lon="-2.41434">
        <ele>49.3</ele>
        <time>2020-06-06T09:40:05Z</time>
      </trkpt>
      <trkpt lat="47.53798" lon="-2.41444">
        <ele>49.2</ele>
        <time>2020-06-06T09:40:06Z</time>
      </trkpt>
      <trkpt lat="47.53801" lon="-2.41453">
        <ele>49.1</ele>
        <time>2020-06-06T09:40:07Z</time>
      </trkpt>
      <trkpt lat="47.53804" lon="-2.41462">
        <ele>49.1</ele>
        <time>2020-06-06T09:40:08Z</time>
      </trkpt>
      <trkpt lat="47.53806" lon="-2.41471">
        <ele>49</ele>
        <time>2020-06-06T09:40:09Z</time>
      </trkpt>
      <trkpt lat="47.53809" lon="-2.4148">
        <ele>48.9</ele>
        <time>2020-06-06T09:40:10Z</time>
      </trkpt>
      <trkpt lat="47.53812" lon="-2.41489">
        <ele>48.8</ele>
        <time>2020-06-06T09:40:11Z</time>
      </trkpt>
      <trkpt lat="47.53814" lon="-2.41498">
        <ele>48.7</ele>
        <time>2020-06-06T09:40:12Z</time>
      </trkpt>
      <trkpt lat="47.53817" lon="-2.41508">
        <ele>48.7</ele>
        <time>2020-06-06T09:40:13Z</time>
      </trkpt>
      <trkpt lat="47.5382" lon="-2.41517">
        <ele>48.6</ele>
        <time>2020-06-06T09:40:14Z</time>
      </trkpt>
      <trkpt lat="47.53822" lon="-2.41527">
        <ele>48.6</ele>
        <time>2020-06-06T09:40:15Z</time>
      </trkpt>
      <trkpt lat="47.53824" lon="-2.41537">
        <ele>48.5</ele>
        <time>2020-06-06T09:40:16Z</time>
      </trkpt>
      <trkpt lat="47.53827" lon="-2.41546">
        <ele>48.5</ele>
        <time>2020-06-06T09:40:17Z</time>
      </trkpt>
      <trkpt lat="47.5383" lon="-2.41555">
        <ele>48.4</ele>
        <time>2020-06-06T09:40:18Z</time>
      </trkpt>
      <trkpt lat="47.53833" lon="-2.41564">
        <ele>48.3</ele>
        <time>2020-06-06T09:40:19Z</time>
      </trkpt>
      <trkpt lat="47.53835" lon="-2.41574">
        <ele>48.3</ele>
        <time>2020-06-06T09:40:20Z</time>
      </trkpt>
      <trkpt lat="47.53838" lon="-2.41583">
        <ele>48.2</ele>
        <time>2020-06-06T09:40:21Z</time>
      </trkpt>
      <trkpt lat="47.5384" lon="-2.41592">
        <ele>48.2</ele>
        <time>2020-06-06T09:40:22Z</time>
      </trkpt>
      <trkpt lat="47.53843" lon="-2.41601">
        <ele>48.2</ele>
        <time>2020-06-06T09:40:23Z</time>
      </trkpt>
      <trkpt lat="47.53846" lon="-2.4161">
        <ele>48.1</ele>
        <time>2020-06-06T09:40:24Z</time>
      </trkpt>
      <trkpt lat="47.53849" lon="-2.41619">
        <ele>48.1</ele>
        <time>2020-06-06T09:40:25Z</time>
      </trkpt>
      <trkpt lat="47.53851" lon="-2.41628">
        <ele>48</ele>
        <time>2020-06-06T09:40:26Z</time>
      </trkpt>
      <trkpt lat="47.53854" lon="-2.41637">
        <ele>48</ele>
        <time>2020-06-06T09:40:27Z</time>
      </trkpt>
      <trkpt lat="47.53856" lon="-2.41647">
        <ele>48</ele>
        <time>2020-06-06T09:40:28Z</time>
      </trkpt>
      <trkpt lat="47.53859" lon="-2.41656">
        <ele>47.9</ele>
        <time>2020-06-06T09:40:29Z</time>
      </trkpt>
      <trkpt lat="47.53861" lon="-2.41665">
        <ele>47.9</ele>
        <time>2020-06-06T09:40:30Z</time>
      </trkpt>
      <trkpt lat="47.53864" lon="-2.41674">
        <ele>47.9</ele>
        <time>2020-06-06T09:40:31Z</time>
      </trkpt>
      <trkpt lat="47.53867" lon="-2.41683">
        <ele>47.8</ele>
        <time>2020-06-06T09:40:32Z</time>
      </trkpt>
      <trkpt lat="47.5387" lon="-2.41692">
        <ele>47.8</ele>
        <time>2020-06-06T09:40:33Z</time>
      </trkpt>
      <trkpt lat="47.53872" lon="-2.41702">
        <ele>47.7</ele>
        <time>2020-06-06T09:40:34Z</time>
      </trkpt>
      <trkpt lat="47.53875" lon="-2.41711">
        <ele>47.7</ele>
        <time>2020-06-06T09:40:35Z</time>
      </trkpt>
      <trkpt lat="47.53878" lon="-2.4172">
        <ele>47.6</ele>
        <time>2020-06-06T09:40:36Z</time>
      </trkpt>
      <trkpt lat="47.53881" lon="-2.4173">
        <ele>47.5</ele>
        <time>2020-06-06T09:40:37Z</time>
      </trkpt>
      <trkpt lat="47.53883" lon="-2.41739">
        <ele>47.5</ele>
        <time>2020-06-06T09:40:38Z</time>
      </trkpt>
      <trkpt lat="47.53886" lon="-2.41749">
        <ele>47.4</ele>
        <time>2020-06-06T09:40:39Z</time>
      </trkpt>
      <trkpt lat="47.53889" lon="-2.41758">
        <ele>47.4</ele>
        <time>2020-06-06T09:40:40Z</time>
      </trkpt>
      <trkpt lat="47.53891" lon="-2.41768">
        <ele>47.3</ele>
        <time>2020-06-06T09:40:41Z</time>
      </trkpt>
      <trkpt lat="47.53894" lon="-2.41778">
        <ele>47.3</ele>
        <time>2020-06-06T09:40:42Z</time>
      </trkpt>
      <trkpt lat="47.53896" lon="-2.41787">
        <ele>47.2</ele>
        <time>2020-06-06T09:40:43Z</time>
      </trkpt>
      <trkpt lat="47.53898" lon="-2.41797">
        <ele>47.2</ele>
        <time>2020-06-06T09:40:44Z</time>
      </trkpt>
      <trkpt lat="47.53901" lon="-2.41807">
        <ele>47.2</ele>
        <time>2020-06-06T09:40:45Z</time>
      </trkpt>
      <trkpt lat="47.53904" lon="-2.41816">
        <ele>47.2</ele>
        <time>2020-06-06T09:40:46Z</time>
      </trkpt>
      <trkpt lat="47.53906" lon="-2.41826">
        <ele>47.1</ele>
        <time>2020-06-06T09:40:47Z</time>
      </trkpt>
      <trkpt lat="47.53909" lon="-2.41836">
        <ele>47</ele>
        <time>2020-06-06T09:40:48Z</time>
      </trkpt>
      <trkpt lat="47.53912" lon="-2.41845">
        <ele>47</ele>
        <time>2020-06-06T09:40:49Z</time>
      </trkpt>
      <trkpt lat="47.53915" lon="-2.41855">
        <ele>46.9</ele>
        <time>2020-06-06T09:40:50Z</time>
      </trkpt>
      <trkpt lat="47.53918" lon="-2.41865">
        <ele>46.9</ele>
        <time>2020-06-06T09:40:51Z</time>
      </trkpt>
      <trkpt lat="47.5392" lon="-2.41874">
        <ele>46.8</ele>
        <time>2020-06-06T09:40:52Z</time>
      </trkpt>
      <trkpt lat="47.53923" lon="-2.41884">
        <ele>46.7</ele>
        <time>2020-06-06T09:40:53Z</time>
      </trkpt>
      <trkpt lat="47.53925" lon="-2.41893">
        <ele>46.6</ele>
        <time>2020-06-06T09:40:54Z</time>
      </trkpt>
      <trkpt lat="47.53928" lon="-2.41903">
        <ele>46.5</ele>
        <time>2020-06-06T09:40:55Z</time>
      </trkpt>
      <trkpt lat="47.5393" lon="-2.41912">
        <ele>46.5</ele>
        <time>2020-06-06T09:40:56Z</time>
      </trkpt>
      <trkpt lat="47.53933" lon="-2.41922">
        <ele>46.4</ele>
        <time>2020-06-06T09:40:57Z</time>
      </trkpt>
      <trkpt lat="47.53935" lon="-2.41931">
        <ele>46.4</ele>
        <time>2020-06-06T09:40:58Z</time>
      </trkpt>
      <trkpt lat="47.53938" lon="-2.41941">
        <ele>46.5</ele>
        <time>2020-06-06T09:40:59Z</time>
      </trkpt>
      <trkpt lat="47.5394" lon="-2.4195">
        <ele>46.5</ele>
        <time>2020-06-06T09:41:00Z</time>
      </trkpt>
      <trkpt lat="47.53943" lon="-2.41959">
        <ele>46.6</ele>
        <time>2020-06-06T09:41:01Z</time>
      </trkpt>
      <trkpt lat="47.53946" lon="-2.41968">
        <ele>46.5</ele>
        <time>2020-06-06T09:41:02Z</time>
      </trkpt>
      <trkpt lat="47.53949" lon="-2.41976">
        <ele>46.4</ele>
        <time>2020-06-06T09:41:03Z</time>
      </trkpt>
      <trkpt lat="47.53953" lon="-2.41985">
        <ele>46.2</ele>
        <time>2020-06-06T09:41:04Z</time>
      </trkpt>
      <trkpt lat="47.53956" lon="-2.41994">
        <ele>46.1</ele>
        <time>2020-06-06T09:41:05Z</time>
      </trkpt>
      <trkpt lat="47.53959" lon="-2.42003">
        <ele>46</ele>
        <time>2020-06-06T09:41:06Z</time>
      </trkpt>
      <trkpt lat="47.53962" lon="-2.42012">
        <ele>45.9</ele>
        <time>2020-06-06T09:41:07Z</time>
      </trkpt>
      <trkpt lat="47.53965" lon="-2.42021">
        <ele>45.8</ele>
        <time>2020-06-06T09:41:08Z</time>
      </trkpt>
      <trkpt lat="47.53967" lon="-2.42031">
        <ele>45.7</ele>
        <time>2020-06-06T09:41:09Z</time>
      </trkpt>
      <trkpt lat="47.5397" lon="-2.4204">
        <ele>45.7</ele>
        <time>2020-06-06T09:41:10Z</time>
      </trkpt>
      <trkpt lat="47.53973" lon="-2.42049">
        <ele>45.7</ele>
        <time>2020-06-06T09:41:11Z</time>
      </trkpt>
      <trkpt lat="47.53975" lon="-2.42058">
        <ele>45.6</ele>
        <time>2020-06-06T09:41:12Z</time>
      </trkpt>
      <trkpt lat="47.53978" lon="-2.42067">
        <ele>45.6</ele>
        <time>2020-06-06T09:41:13Z</time>
      </trkpt>
      <trkpt lat="47.5398" lon="-2.42076">
        <ele>45.5</ele>
        <time>2020-06-06T09:41:14Z</time>
      </trkpt>
      <trkpt lat="47.53983" lon="-2.42085">
        <ele>45.5</ele>
        <time>2020-06-06T09:41:15Z</time>
      </trkpt>
      <trkpt lat="47.53986" lon="-2.42093">
        <ele>45.5</ele>
        <time>2020-06-06T09:41:16Z</time>
      </trkpt>
      <trkpt lat="47.53989" lon="-2.42101">
        <ele>45.5</ele>
        <time>2020-06-06T09:41:17Z</time>
      </trkpt>
      <trkpt lat="47.53992" lon="-2.4211">
        <ele>45.4</ele>
        <time>2020-06-06T09:41:18Z</time>
      </trkpt>
      <trkpt lat="47.53994" lon="-2.42118">
        <ele>45.4</ele>
        <time>2020-06-06T09:41:19Z</time>
      </trkpt>
      <trkpt lat="47.53996" lon="-2.42127">
        <ele>45.4</ele>
        <time>2020-06-06T09:41:20Z</time>
      </trkpt>
      <trkpt lat="47.53998" lon="-2.42136">
        <ele>45.3</ele>
        <time>2020-06-06T09:41:21Z</time>
      </trkpt>
      <trkpt lat="47.54001" lon="-2.42145">
        <ele>45.3</ele>
        <time>2020-06-06T09:41:22Z</time>
      </trkpt>
      <trkpt lat="47.54004" lon="-2.42153">
        <ele>45.3</ele>
        <time>2020-06-06T09:41:23Z</time>
      </trkpt>
      <trkpt lat="47.54006" lon="-2.42162">
        <ele>45.2</ele>
        <time>2020-06-06T09:41:24Z</time>
      </trkpt>
      <trkpt lat="47.54009" lon="-2.4217">
        <ele>45.2</ele>
        <time>2020-06-06T09:41:25Z</time>
      </trkpt>
      <trkpt lat="47.54011" lon="-2.42178">
        <ele>45.2</ele>
        <time>2020-06-06T09:41:26Z</time>
      </trkpt>
      <trkpt lat="47.54013" lon="-2.42186">
        <ele>45.1</ele>
        <time>2020-06-06T09:41:27Z</time>
      </trkpt>
      <trkpt lat="47.54016" lon="-2.42194">
        <ele>45.1</ele>
        <time>2020-06-06T09:41:28Z</time>
      </trkpt>
      <trkpt lat="47.54018" lon="-2.42202">
        <ele>45.1</ele>
        <time>2020-06-06T09:41:29Z</time>
      </trkpt>
      <trkpt lat="47.54019" lon="-2.42211">
        <ele>45.1</ele>
        <time>2020-06-06T09:41:30Z</time>
      </trkpt>
      <trkpt lat="47.54021" lon="-2.42219">
        <ele>45</ele>
        <time>2020-06-06T09:41:31Z</time>
      </trkpt>
      <trkpt lat="47.54023" lon="-2.42227">
        <ele>45</ele>
        <time>2020-06-06T09:41:32Z</time>
      </trkpt>
      <trkpt lat="47.54025" lon="-2.42234">
        <ele>45</ele>
        <time>2020-06-06T09:41:33Z</time>
      </trkpt>
      <trkpt lat="47.54026" lon="-2.42242">
        <ele>44.9</ele>
        <time>2020-06-06T09:41:34Z</time>
      </trkpt>
      <trkpt lat="47.54028" lon="-2.4225">
        <ele>44.9</ele>
        <time>2020-06-06T09:41:35Z</time>
      </trkpt>
      <trkpt lat="47.54031" lon="-2.42257">
        <ele>44.9</ele>
        <time>2020-06-06T09:41:36Z</time>
      </trkpt>
      <trkpt lat="47.54035" lon="-2.42266">
        <ele>44.8</ele>
        <time>2020-06-06T09:41:37Z</time>
      </trkpt>
      <trkpt lat="47.54037" lon="-2.42274">
        <ele>44.8</ele>
        <time>2020-06-06T09:41:38Z</time>
      </trkpt>
      <trkpt lat="47.5404" lon="-2.42283">
        <ele>44.7</ele>
        <time>2020-06-06T09:41:39Z</time>
      </trkpt>
      <trkpt lat="47.54042" lon="-2.42292">
        <ele>44.7</ele>
        <time>2020-06-06T09:41:40Z</time>
      </trkpt>
      <trkpt lat="47.54044" lon="-2.42299">
        <ele>44.7</ele>
        <time>2020-06-06T09:41:41Z</time>
      </trkpt>
      <trkpt lat="47.54047" lon="-2.42308">
        <ele>44.6</ele>
        <time>2020-06-06T09:41:42Z</time>
      </trkpt>
      <trkpt lat="47.54049" lon="-2.42316">
        <ele>44.6</ele>
        <time>2020-06-06T09:41:43Z</time>
      </trkpt>
      <trkpt lat="47.54051" lon="-2.42324">
        <ele>44.5</ele>
        <time>2020-06-06T09:41:44Z</time>
      </trkpt>
      <trkpt lat="47.54053" lon="-2.42333">
        <ele>44.5</ele>
        <time>2020-06-06T09:41:45Z</time>
      </trkpt>
      <trkpt lat="47.54056" lon="-2.42341">
        <ele>44.4</ele>
        <time>2020-06-06T09:41:46Z</time>
      </trkpt>
      <trkpt lat="47.54058" lon="-2.42349">
        <ele>44.3</ele>
        <time>2020-06-06T09:41:47Z</time>
      </trkpt>
      <trkpt lat="47.54061" lon="-2.42357">
        <ele>44.2</ele>
        <time>2020-06-06T09:41:48Z</time>
      </trkpt>
      <trkpt lat="47.54063" lon="-2.42366">
        <ele>44.1</ele>
        <time>2020-06-06T09:41:49Z</time>
      </trkpt>
      <trkpt lat="47.54066" lon="-2.42373">
        <ele>44.1</ele>
        <time>2020-06-06T09:41:50Z</time>
      </trkpt>
      <trkpt lat="47.54069" lon="-2.42383">
        <ele>44</ele>
        <time>2020-06-06T09:41:51Z</time>
      </trkpt>
      <trkpt lat="47.54071" lon="-2.42391">
        <ele>44</ele>
        <time>2020-06-06T09:41:52Z</time>
      </trkpt>
      <trkpt lat="47.54072" lon="-2.42399">
        <ele>43.9</ele>
        <time>2020-06-06T09:41:53Z</time>
      </trkpt>
      <trkpt lat="47.54075" lon="-2.42406">
        <ele>43.9</ele>
        <time>2020-06-06T09:41:54Z</time>
      </trkpt>
      <trkpt lat="47.54077" lon="-2.42413">
        <ele>43.9</ele>
        <time>2020-06-06T09:41:55Z</time>
      </trkpt>
      <trkpt lat="47.54079" lon="-2.42421">
        <ele>43.9</ele>
        <time>2020-06-06T09:41:56Z</time>
      </trkpt>
      <trkpt lat="47.54081" lon="-2.42428">
        <ele>43.9</ele>
        <time>2020-06-06T09:41:57Z</time>
      </trkpt>
      <trkpt lat="47.54084" lon="-2.42436">
        <ele>43.9</ele>
        <time>2020-06-06T09:41:58Z</time>
      </trkpt>
      <trkpt lat="47.54086" lon="-2.42443">
        <ele>43.9</ele>
        <time>2020-06-06T09:41:59Z</time>
      </trkpt>
      <trkpt lat="47.54089" lon="-2.42451">
        <ele>43.9</ele>
        <time>2020-06-06T09:42:00Z</time>
      </trkpt>
      <trkpt lat="47.54091" lon="-2.42459">
        <ele>43.9</ele>
        <time>2020-06-06T09:42:01Z</time>
      </trkpt>
      <trkpt lat="47.54092" lon="-2.42467">
        <ele>44</ele>
        <time>2020-06-06T09:42:02Z</time>
      </trkpt>
      <trkpt lat="47.54094" lon="-2.42475">
        <ele>44</ele>
        <time>2020-06-06T09:42:03Z</time>
      </trkpt>
      <trkpt lat="47.54096" lon="-2.42483">
        <ele>44</ele>
        <time>2020-06-06T09:42:04Z</time>
      </trkpt>
      <trkpt lat="47.54097" lon="-2.42491">
        <ele>44</ele>
        <time>2020-06-06T09:42:05Z</time>
      </trkpt>
      <trkpt lat="47.54096" lon="-2.42497">
        <ele>44</ele>
        <time>2020-06-06T09:42:06Z</time>
      </trkpt>
      <trkpt lat="47.54092" lon="-2.42503">
        <ele>44</ele>
        <time>2020-06-06T09:42:07Z</time>
      </trkpt>
      <trkpt lat="47.54087" lon="-2.42506">
        <ele>44</ele>
        <time>2020-06-06T09:42:08Z</time>
      </trkpt>
      <trkpt lat="47.54082" lon="-2.42509">
        <ele>44</ele>
        <time>2020-06-06T09:42:09Z</time>
      </trkpt>
      <trkpt lat="47.54078" lon="-2.42512">
        <ele>44</ele>
        <time>2020-06-06T09:42:10Z</time>
      </trkpt>
      <trkpt lat="47.54073" lon="-2.42516">
        <ele>44</ele>
        <time>2020-06-06T09:42:11Z</time>
      </trkpt>
      <trkpt lat="47.54067" lon="-2.4252">
        <ele>44</ele>
        <time>2020-06-06T09:42:12Z</time>
      </trkpt>
      <trkpt lat="47.54061" lon="-2.42524">
        <ele>44</ele>
        <time>2020-06-06T09:42:13Z</time>
      </trkpt>
      <trkpt lat="47.54055" lon="-2.42528">
        <ele>43.9</ele>
        <time>2020-06-06T09:42:14Z</time>
      </trkpt>
      <trkpt lat="47.54049" lon="-2.42532">
        <ele>43.7</ele>
        <time>2020-06-06T09:42:15Z</time>
      </trkpt>
      <trkpt lat="47.54043" lon="-2.4254">
        <ele>43.5</ele>
        <time>2020-06-06T09:42:16Z</time>
      </trkpt>
      <trkpt lat="47.54039" lon="-2.42546">
        <ele>43.4</ele>
        <time>2020-06-06T09:42:17Z</time>
      </trkpt>
      <trkpt lat="47.54036" lon="-2.42553">
        <ele>43.3</ele>
        <time>2020-06-06T09:42:18Z</time>
      </trkpt>
      <trkpt lat="47.54032" lon="-2.42562">
        <ele>43.1</ele>
        <time>2020-06-06T09:42:19Z</time>
      </trkpt>
      <trkpt lat="47.54029" lon="-2.42569">
        <ele>43</ele>
        <time>2020-06-06T09:42:20Z</time>
      </trkpt>
      <trkpt lat="47.54025" lon="-2.42577">
        <ele>42.9</ele>
        <time>2020-06-06T09:42:21Z</time>
      </trkpt>
      <trkpt lat="47.54022" lon="-2.42585">
        <ele>42.7</ele>
        <time>2020-06-06T09:42:22Z</time>
      </trkpt>
      <trkpt lat="47.54018" lon="-2.42593">
        <ele>42.6</ele>
        <time>2020-06-06T09:42:23Z</time>
      </trkpt>
      <trkpt lat="47.54015" lon="-2.42602">
        <ele>42.4</ele>
        <time>2020-06-06T09:42:24Z</time>
      </trkpt>
      <trkpt lat="47.54011" lon="-2.4261">
        <ele>42.3</ele>
        <time>2020-06-06T09:42:25Z</time>
      </trkpt>
      <trkpt lat="47.54007" lon="-2.42618">
        <ele>42.1</ele>
        <time>2020-06-06T09:42:26Z</time>
      </trkpt>
      <trkpt lat="47.54004" lon="-2.42627">
        <ele>41.9</ele>
        <time>2020-06-06T09:42:27Z</time>
      </trkpt>
      <trkpt lat="47.54" lon="-2.42636">
        <ele>41.7</ele>
        <time>2020-06-06T09:42:28Z</time>
      </trkpt>
      <trkpt lat="47.53997" lon="-2.42644">
        <ele>41.6</ele>
        <time>2020-06-06T09:42:29Z</time>
      </trkpt>
      <trkpt lat="47.53993" lon="-2.42652">
        <ele>41.4</ele>
        <time>2020-06-06T09:42:30Z</time>
      </trkpt>
      <trkpt lat="47.53989" lon="-2.42661">
        <ele>41.2</ele>
        <time>2020-06-06T09:42:31Z</time>
      </trkpt>
      <trkpt lat="47.53986" lon="-2.42669">
        <ele>41.1</ele>
        <time>2020-06-06T09:42:32Z</time>
      </trkpt>
      <trkpt lat="47.53982" lon="-2.42678">
        <ele>40.9</ele>
        <time>2020-06-06T09:42:33Z</time>
      </trkpt>
      <trkpt lat="47.53978" lon="-2.42686">
        <ele>40.7</ele>
        <time>2020-06-06T09:42:34Z</time>
      </trkpt>
      <trkpt lat="47.53974" lon="-2.42693">
        <ele>40.5</ele>
        <time>2020-06-06T09:42:35Z</time>
      </trkpt>
      <trkpt lat="47.5397" lon="-2.42701">
        <ele>40.3</ele>
        <time>2020-06-06T09:42:36Z</time>
      </trkpt>
      <trkpt lat="47.53965" lon="-2.42708">
        <ele>40.1</ele>
        <time>2020-06-06T09:42:37Z</time>
      </trkpt>
      <trkpt lat="47.53961" lon="-2.42715">
        <ele>40</ele>
        <time>2020-06-06T09:42:38Z</time>
      </trkpt>
      <trkpt lat="47.53956" lon="-2.42721">
        <ele>39.9</ele>
        <time>2020-06-06T09:42:39Z</time>
      </trkpt>
      <trkpt lat="47.53951" lon="-2.42727">
        <ele>39.7</ele>
        <time>2020-06-06T09:42:40Z</time>
      </trkpt>
      <trkpt lat="47.53946" lon="-2.42734">
        <ele>39.6</ele>
        <time>2020-06-06T09:42:41Z</time>
      </trkpt>
      <trkpt lat="47.53942" lon="-2.42739">
        <ele>39.5</ele>
        <time>2020-06-06T09:42:42Z</time>
      </trkpt>
      <trkpt lat="47.53937" lon="-2.42745">
        <ele>39.4</ele>
        <time>2020-06-06T09:42:43Z</time>
      </trkpt>
      <trkpt lat="47.53932" lon="-2.42752">
        <ele>39.3</ele>
        <time>2020-06-06T09:42:44Z</time>
      </trkpt>
      <trkpt lat="47.53927" lon="-2.42758">
        <ele>39.2</ele>
        <time>2020-06-06T09:42:45Z</time>
      </trkpt>
      <trkpt lat="47.53921" lon="-2.42763">
        <ele>39.2</ele>
        <time>2020-06-06T09:42:46Z</time>
      </trkpt>
      <trkpt lat="47.53916" lon="-2.42769">
        <ele>39.1</ele>
        <time>2020-06-06T09:42:47Z</time>
      </trkpt>
      <trkpt lat="47.5391" lon="-2.42773">
        <ele>39.1</ele>
        <time>2020-06-06T09:42:48Z</time>
      </trkpt>
      <trkpt lat="47.53905" lon="-2.42778">
        <ele>39.1</ele>
        <time>2020-06-06T09:42:49Z</time>
      </trkpt>
      <trkpt lat="47.53899" lon="-2.42784">
        <ele>39.1</ele>
        <time>2020-06-06T09:42:50Z</time>
      </trkpt>
      <trkpt lat="47.53893" lon="-2.42789">
        <ele>39.1</ele>
        <time>2020-06-06T09:42:51Z</time>
      </trkpt>
      <trkpt lat="47.53888" lon="-2.42795">
        <ele>39.1</ele>
        <time>2020-06-06T09:42:52Z</time>
      </trkpt>
      <trkpt lat="47.53883" lon="-2.42802">
        <ele>39</ele>
        <time>2020-06-06T09:42:53Z</time>
      </trkpt>
      <trkpt lat="47.53877" lon="-2.42807">
        <ele>39</ele>
        <time>2020-06-06T09:42:54Z</time>
      </trkpt>
      <trkpt lat="47.53872" lon="-2.42813">
        <ele>38.9</ele>
        <time>2020-06-06T09:42:55Z</time>
      </trkpt>
      <trkpt lat="47.53867" lon="-2.42819">
        <ele>38.9</ele>
        <time>2020-06-06T09:42:56Z</time>
      </trkpt>
      <trkpt lat="47.53863" lon="-2.42827">
        <ele>38.8</ele>
        <time>2020-06-06T09:42:57Z</time>
      </trkpt>
      <trkpt lat="47.53859" lon="-2.42834">
        <ele>38.8</ele>
        <time>2020-06-06T09:42:58Z</time>
      </trkpt>
      <trkpt lat="47.53855" lon="-2.42842">
        <ele>38.7</ele>
        <time>2020-06-06T09:42:59Z</time>
      </trkpt>
      <trkpt lat="47.53851" lon="-2.4285">
        <ele>38.6</ele>
        <time>2020-06-06T09:43:00Z</time>
      </trkpt>
      <trkpt lat="47.53847" lon="-2.42858">
        <ele>38.5</ele>
        <time>2020-06-06T09:43:01Z</time>
      </trkpt>
      <trkpt lat="47.53842" lon="-2.42866">
        <ele>38.5</ele>
        <time>2020-06-06T09:43:02Z</time>
      </trkpt>
      <trkpt lat="47.53838" lon="-2.42874">
        <ele>38.5</ele>
        <time>2020-06-06T09:43:03Z</time>
      </trkpt>
      <trkpt lat="47.53834" lon="-2.42883">
        <ele>38.6</ele>
        <time>2020-06-06T09:43:04Z</time>
      </trkpt>
      <trkpt lat="47.5383" lon="-2.42891">
        <ele>38.6</ele>
        <time>2020-06-06T09:43:05Z</time>
      </trkpt>
      <trkpt lat="47.53825" lon="-2.429">
        <ele>38.7</ele>
        <time>2020-06-06T09:43:06Z</time>
      </trkpt>
      <trkpt lat="47.53821" lon="-2.42908">
        <ele>38.7</ele>
        <time>2020-06-06T09:43:07Z</time>
      </trkpt>
      <trkpt lat="47.53817" lon="-2.42916">
        <ele>38.7</ele>
        <time>2020-06-06T09:43:08Z</time>
      </trkpt>
      <trkpt lat="47.53813" lon="-2.42924">
        <ele>38.8</ele>
        <time>2020-06-06T09:43:09Z</time>
      </trkpt>
      <trkpt lat="47.53808" lon="-2.42931">
        <ele>39</ele>
        <time>2020-06-06T09:43:10Z</time>
      </trkpt>
      <trkpt lat="47.53804" lon="-2.42939">
        <ele>39.2</ele>
        <time>2020-06-06T09:43:11Z</time>
      </trkpt>
      <trkpt lat="47.538" lon="-2.42947">
        <ele>39.2</ele>
        <time>2020-06-06T09:43:12Z</time>
      </trkpt>
      <trkpt lat="47.53796" lon="-2.42954">
        <ele>39.3</ele>
        <time>2020-06-06T09:43:13Z</time>
      </trkpt>
      <trkpt lat="47.53791" lon="-2.42962">
        <ele>39.3</ele>
        <time>2020-06-06T09:43:14Z</time>
      </trkpt>
      <trkpt lat="47.53787" lon="-2.42969">
        <ele>39.3</ele>
        <time>2020-06-06T09:43:15Z</time>
      </trkpt>
      <trkpt lat="47.53783" lon="-2.42976">
        <ele>39.3</ele>
        <time>2020-06-06T09:43:16Z</time>
      </trkpt>
      <trkpt lat="47.53778" lon="-2.42984">
        <ele>39.4</ele>
        <time>2020-06-06T09:43:17Z</time>
      </trkpt>
      <trkpt lat="47.53775" lon="-2.42992">
        <ele>39.4</ele>
        <time>2020-06-06T09:43:18Z</time>
      </trkpt>
      <trkpt lat="47.53771" lon="-2.43">
        <ele>39.4</ele>
        <time>2020-06-06T09:43:19Z</time>
      </trkpt>
      <trkpt lat="47.53768" lon="-2.4301">
        <ele>39.4</ele>
        <time>2020-06-06T09:43:20Z</time>
      </trkpt>
      <trkpt lat="47.53765" lon="-2.43018">
        <ele>39.4</ele>
        <time>2020-06-06T09:43:21Z</time>
      </trkpt>
      <trkpt lat="47.53764" lon="-2.43028">
        <ele>39.4</ele>
        <time>2020-06-06T09:43:22Z</time>
      </trkpt>
      <trkpt lat="47.53763" lon="-2.43037">
        <ele>39.5</ele>
        <time>2020-06-06T09:43:23Z</time>
      </trkpt>
      <trkpt lat="47.53762" lon="-2.43047">
        <ele>39.4</ele>
        <time>2020-06-06T09:43:24Z</time>
      </trkpt>
      <trkpt lat="47.53762" lon="-2.43057">
        <ele>39.4</ele>
        <time>2020-06-06T09:43:25Z</time>
      </trkpt>
      <trkpt lat="47.53764" lon="-2.43067">
        <ele>39.4</ele>
        <time>2020-06-06T09:43:26Z</time>
      </trkpt>
      <trkpt lat="47.53766" lon="-2.43076">
        <ele>39.3</ele>
        <time>2020-06-06T09:43:27Z</time>
      </trkpt>
      <trkpt lat="47.53769" lon="-2.43085">
        <ele>39.3</ele>
        <time>2020-06-06T09:43:28Z</time>
      </trkpt>
      <trkpt lat="47.53772" lon="-2.43095">
        <ele>39.2</ele>
        <time>2020-06-06T09:43:29Z</time>
      </trkpt>
      <trkpt lat="47.53774" lon="-2.43104">
        <ele>39.2</ele>
        <time>2020-06-06T09:43:30Z</time>
      </trkpt>
      <trkpt lat="47.53776" lon="-2.43113">
        <ele>39.1</ele>
        <time>2020-06-06T09:43:31Z</time>
      </trkpt>
      <trkpt lat="47.53778" lon="-2.43122">
        <ele>39.1</ele>
        <time>2020-06-06T09:43:32Z</time>
      </trkpt>
      <trkpt lat="47.53781" lon="-2.43132">
        <ele>39</ele>
        <time>2020-06-06T09:43:33Z</time>
      </trkpt>
      <trkpt lat="47.53783" lon="-2.43142">
        <ele>38.9</ele>
        <time>2020-06-06T09:43:34Z</time>
      </trkpt>
      <trkpt lat="47.53784" lon="-2.43152">
        <ele>38.8</ele>
        <time>2020-06-06T09:43:35Z</time>
      </trkpt>
      <trkpt lat="47.53785" lon="-2.43162">
        <ele>38.6</ele>
        <time>2020-06-06T09:43:36Z</time>
      </trkpt>
      <trkpt lat="47.53787" lon="-2.43173">
        <ele>38.5</ele>
        <time>2020-06-06T09:43:37Z</time>
      </trkpt>
      <trkpt lat="47.53788" lon="-2.43183">
        <ele>38.4</ele>
        <time>2020-06-06T09:43:38Z</time>
      </trkpt>
      <trkpt lat="47.53788" lon="-2.43194">
        <ele>38.2</ele>
        <time>2020-06-06T09:43:39Z</time>
      </trkpt>
      <trkpt lat="47.53789" lon="-2.43205">
        <ele>38.1</ele>
        <time>2020-06-06T09:43:40Z</time>
      </trkpt>
      <trkpt lat="47.53788" lon="-2.43216">
        <ele>37.9</ele>
        <time>2020-06-06T09:43:41Z</time>
      </trkpt>
      <trkpt lat="47.53787" lon="-2.43227">
        <ele>37.8</ele>
        <time>2020-06-06T09:43:42Z</time>
      </trkpt>
      <trkpt lat="47.53786" lon="-2.43238">
        <ele>37.6</ele>
        <time>2020-06-06T09:43:43Z</time>
      </trkpt>
      <trkpt lat="47.53787" lon="-2.43248">
        <ele>37.4</ele>
        <time>2020-06-06T09:43:44Z</time>
      </trkpt>
      <trkpt lat="47.53787" lon="-2.43259">
        <ele>37.2</ele>
        <time>2020-06-06T09:43:45Z</time>
      </trkpt>
      <trkpt lat="47.53787" lon="-2.4327">
        <ele>36.9</ele>
        <time>2020-06-06T09:43:46Z</time>
      </trkpt>
      <trkpt lat="47.53786" lon="-2.4328">
        <ele>36.7</ele>
        <time>2020-06-06T09:43:47Z</time>
      </trkpt>
      <trkpt lat="47.53785" lon="-2.43291">
        <ele>36.5</ele>
        <time>2020-06-06T09:43:48Z</time>
      </trkpt>
      <trkpt lat="47.53785" lon="-2.43302">
        <ele>36.3</ele>
        <time>2020-06-06T09:43:49Z</time>
      </trkpt>
      <trkpt lat="47.53785" lon="-2.43313">
        <ele>36.1</ele>
        <time>2020-06-06T09:43:50Z</time>
      </trkpt>
      <trkpt lat="47.53784" lon="-2.43324">
        <ele>35.9</ele>
        <time>2020-06-06T09:43:51Z</time>
      </trkpt>
      <trkpt lat="47.53784" lon="-2.43336">
        <ele>35.6</ele>
        <time>2020-06-06T09:43:52Z</time>
      </trkpt>
      <trkpt lat="47.53784" lon="-2.43348">
        <ele>35.3</ele>
        <time>2020-06-06T09:43:53Z</time>
      </trkpt>
      <trkpt lat="47.53784" lon="-2.4336">
        <ele>34.9</ele>
        <time>2020-06-06T09:43:54Z</time>
      </trkpt>
      <trkpt lat="47.53785" lon="-2.43371">
        <ele>34.6</ele>
        <time>2020-06-06T09:43:55Z</time>
      </trkpt>
      <trkpt lat="47.53786" lon="-2.43384">
        <ele>34.2</ele>
        <time>2020-06-06T09:43:56Z</time>
      </trkpt>
      <trkpt lat="47.53787" lon="-2.43396">
        <ele>33.8</ele>
        <time>2020-06-06T09:43:57Z</time>
      </trkpt>
      <trkpt lat="47.53789" lon="-2.43409">
        <ele>33.3</ele>
        <time>2020-06-06T09:43:58Z</time>
      </trkpt>
      <trkpt lat="47.53793" lon="-2.43421">
        <ele>32.9</ele>
        <time>2020-06-06T09:43:59Z</time>
      </trkpt>
      <trkpt lat="47.53796" lon="-2.43434">
        <ele>32.3</ele>
        <time>2020-06-06T09:44:00Z</time>
      </trkpt>
      <trkpt lat="47.53801" lon="-2.43447">
        <ele>31.8</ele>
        <time>2020-06-06T09:44:01Z</time>
      </trkpt>
      <trkpt lat="47.53805" lon="-2.43461">
        <ele>31.1</ele>
        <time>2020-06-06T09:44:02Z</time>
      </trkpt>
      <trkpt lat="47.53809" lon="-2.43475">
        <ele>30.3</ele>
        <time>2020-06-06T09:44:03Z</time>
      </trkpt>
      <trkpt lat="47.53813" lon="-2.4349">
        <ele>29.5</ele>
        <time>2020-06-06T09:44:04Z</time>
      </trkpt>
      <trkpt lat="47.53818" lon="-2.43505">
        <ele>29</ele>
        <time>2020-06-06T09:44:05Z</time>
      </trkpt>
      <trkpt lat="47.53821" lon="-2.43521">
        <ele>28.7</ele>
        <time>2020-06-06T09:44:06Z</time>
      </trkpt>
      <trkpt lat="47.53823" lon="-2.43537">
        <ele>28.6</ele>
        <time>2020-06-06T09:44:07Z</time>
      </trkpt>
      <trkpt lat="47.53825" lon="-2.43553">
        <ele>28.8</ele>
        <time>2020-06-06T09:44:08Z</time>
      </trkpt>
      <trkpt lat="47.53827" lon="-2.4357">
        <ele>29.1</ele>
        <time>2020-06-06T09:44:09Z</time>
      </trkpt>
      <trkpt lat="47.53827" lon="-2.43585">
        <ele>29.5</ele>
        <time>2020-06-06T09:44:10Z</time>
      </trkpt>
      <trkpt lat="47.53829" lon="-2.43598">
        <ele>29.8</ele>
        <time>2020-06-06T09:44:11Z</time>
      </trkpt>
      <trkpt lat="47.53831" lon="-2.43611">
        <ele>30</ele>
        <time>2020-06-06T09:44:12Z</time>
      </trkpt>
      <trkpt lat="47.53834" lon="-2.43622">
        <ele>30.1</ele>
        <time>2020-06-06T09:44:13Z</time>
      </trkpt>
      <trkpt lat="47.53838" lon="-2.43633">
        <ele>30.2</ele>
        <time>2020-06-06T09:44:14Z</time>
      </trkpt>
      <trkpt lat="47.53841" lon="-2.43644">
        <ele>30.3</ele>
        <time>2020-06-06T09:44:15Z</time>
      </trkpt>
      <trkpt lat="47.53845" lon="-2.43654">
        <ele>30.3</ele>
        <time>2020-06-06T09:44:16Z</time>
      </trkpt>
      <trkpt lat="47.53849" lon="-2.43663">
        <ele>30.3</ele>
        <time>2020-06-06T09:44:17Z</time>
      </trkpt>
      <trkpt lat="47.53853" lon="-2.43673">
        <ele>30.4</ele>
        <time>2020-06-06T09:44:18Z</time>
      </trkpt>
      <trkpt lat="47.53856" lon="-2.43682">
        <ele>30.4</ele>
        <time>2020-06-06T09:44:19Z</time>
      </trkpt>
      <trkpt lat="47.5386" lon="-2.43691">
        <ele>30.4</ele>
        <time>2020-06-06T09:44:20Z</time>
      </trkpt>
      <trkpt lat="47.53863" lon="-2.43701">
        <ele>30.4</ele>
        <time>2020-06-06T09:44:21Z</time>
      </trkpt>
      <trkpt lat="47.53866" lon="-2.4371">
        <ele>30.4</ele>
        <time>2020-06-06T09:44:22Z</time>
      </trkpt>
      <trkpt lat="47.53869" lon="-2.4372">
        <ele>30.5</ele>
        <time>2020-06-06T09:44:23Z</time>
      </trkpt>
      <trkpt lat="47.53871" lon="-2.43729">
        <ele>30.5</ele>
        <time>2020-06-06T09:44:24Z</time>
      </trkpt>
      <trkpt lat="47.53874" lon="-2.43738">
        <ele>30.6</ele>
        <time>2020-06-06T09:44:25Z</time>
      </trkpt>
      <trkpt lat="47.53877" lon="-2.43747">
        <ele>30.7</ele>
        <time>2020-06-06T09:44:26Z</time>
      </trkpt>
      <trkpt lat="47.53879" lon="-2.43756">
        <ele>30.8</ele>
        <time>2020-06-06T09:44:27Z</time>
      </trkpt>
      <trkpt lat="47.53881" lon="-2.43764">
        <ele>30.9</ele>
        <time>2020-06-06T09:44:28Z</time>
      </trkpt>
      <trkpt lat="47.53883" lon="-2.43773">
        <ele>31</ele>
        <time>2020-06-06T09:44:29Z</time>
      </trkpt>
      <trkpt lat="47.53886" lon="-2.43782">
        <ele>31.1</ele>
        <time>2020-06-06T09:44:30Z</time>
      </trkpt>
      <trkpt lat="47.53888" lon="-2.4379">
        <ele>31.1</ele>
        <time>2020-06-06T09:44:31Z</time>
      </trkpt>
      <trkpt lat="47.53889" lon="-2.43799">
        <ele>31.2</ele>
        <time>2020-06-06T09:44:32Z</time>
      </trkpt>
      <trkpt lat="47.53892" lon="-2.43806">
        <ele>31.2</ele>
        <time>2020-06-06T09:44:33Z</time>
      </trkpt>
      <trkpt lat="47.53895" lon="-2.43814">
        <ele>31.2</ele>
        <time>2020-06-06T09:44:34Z</time>
      </trkpt>
      <trkpt lat="47.53898" lon="-2.43821">
        <ele>31.3</ele>
        <time>2020-06-06T09:44:35Z</time>
      </trkpt>
      <trkpt lat="47.53901" lon="-2.43829">
        <ele>31.3</ele>
        <time>2020-06-06T09:44:36Z</time>
      </trkpt>
      <trkpt lat="47.53903" lon="-2.43837">
        <ele>31.3</ele>
        <time>2020-06-06T09:44:37Z</time>
      </trkpt>
      <trkpt lat="47.53906" lon="-2.43845">
        <ele>31.3</ele>
        <time>2020-06-06T09:44:38Z</time>
      </trkpt>
      <trkpt lat="47.53909" lon="-2.43854">
        <ele>31.3</ele>
        <time>2020-06-06T09:44:39Z</time>
      </trkpt>
      <trkpt lat="47.53912" lon="-2.43862">
        <ele>31.3</ele>
        <time>2020-06-06T09:44:40Z</time>
      </trkpt>
      <trkpt lat="47.53916" lon="-2.4387">
        <ele>31.4</ele>
        <time>2020-06-06T09:44:41Z</time>
      </trkpt>
      <trkpt lat="47.53919" lon="-2.43879">
        <ele>31.5</ele>
        <time>2020-06-06T09:44:42Z</time>
      </trkpt>
      <trkpt lat="47.53923" lon="-2.43887">
        <ele>31.6</ele>
        <time>2020-06-06T09:44:43Z</time>
      </trkpt>
      <trkpt lat="47.53927" lon="-2.43895">
        <ele>31.7</ele>
        <time>2020-06-06T09:44:44Z</time>
      </trkpt>
      <trkpt lat="47.53931" lon="-2.43902">
        <ele>31.8</ele>
        <time>2020-06-06T09:44:45Z</time>
      </trkpt>
      <trkpt lat="47.53934" lon="-2.43909">
        <ele>31.9</ele>
        <time>2020-06-06T09:44:46Z</time>
      </trkpt>
      <trkpt lat="47.53938" lon="-2.43916">
        <ele>31.9</ele>
        <time>2020-06-06T09:44:47Z</time>
      </trkpt>
      <trkpt lat="47.53942" lon="-2.43923">
        <ele>31.9</ele>
        <time>2020-06-06T09:44:48Z</time>
      </trkpt>
      <trkpt lat="47.53946" lon="-2.4393">
        <ele>31.9</ele>
        <time>2020-06-06T09:44:49Z</time>
      </trkpt>
      <trkpt lat="47.53949" lon="-2.43938">
        <ele>31.9</ele>
        <time>2020-06-06T09:44:50Z</time>
      </trkpt>
      <trkpt lat="47.53953" lon="-2.43945">
        <ele>31.9</ele>
        <time>2020-06-06T09:44:51Z</time>
      </trkpt>
      <trkpt lat="47.53956" lon="-2.43954">
        <ele>31.9</ele>
        <time>2020-06-06T09:44:52Z</time>
      </trkpt>
      <trkpt lat="47.53959" lon="-2.43963">
        <ele>31.9</ele>
        <time>2020-06-06T09:44:53Z</time>
      </trkpt>
      <trkpt lat="47.53962" lon="-2.4397">
        <ele>31.9</ele>
        <time>2020-06-06T09:44:54Z</time>
      </trkpt>
      <trkpt lat="47.53965" lon="-2.43979">
        <ele>31.9</ele>
        <time>2020-06-06T09:44:55Z</time>
      </trkpt>
      <trkpt lat="47.53968" lon="-2.43987">
        <ele>31.9</ele>
        <time>2020-06-06T09:44:56Z</time>
      </trkpt>
      <trkpt lat="47.5397" lon="-2.43996">
        <ele>31.9</ele>
        <time>2020-06-06T09:44:57Z</time>
      </trkpt>
      <trkpt lat="47.53973" lon="-2.44006">
        <ele>31.8</ele>
        <time>2020-06-06T09:44:58Z</time>
      </trkpt>
      <trkpt lat="47.53975" lon="-2.44015">
        <ele>31.5</ele>
        <time>2020-06-06T09:44:59Z</time>
      </trkpt>
      <trkpt lat="47.53978" lon="-2.44024">
        <ele>31.3</ele>
        <time>2020-06-06T09:45:00Z</time>
      </trkpt>
      <trkpt lat="47.53981" lon="-2.44034">
        <ele>31.1</ele>
        <time>2020-06-06T09:45:01Z</time>
      </trkpt>
      <trkpt lat="47.53984" lon="-2.44043">
        <ele>30.9</ele>
        <time>2020-06-06T09:45:02Z</time>
      </trkpt>
      <trkpt lat="47.53987" lon="-2.44052">
        <ele>30.8</ele>
        <time>2020-06-06T09:45:03Z</time>
      </trkpt>
      <trkpt lat="47.5399" lon="-2.44061">
        <ele>30.6</ele>
        <time>2020-06-06T09:45:04Z</time>
      </trkpt>
      <trkpt lat="47.53992" lon="-2.4407">
        <ele>30.4</ele>
        <time>2020-06-06T09:45:05Z</time>
      </trkpt>
      <trkpt lat="47.53995" lon="-2.44079">
        <ele>30.3</ele>
        <time>2020-06-06T09:45:06Z</time>
      </trkpt>
      <trkpt lat="47.53998" lon="-2.44088">
        <ele>30.1</ele>
        <time>2020-06-06T09:45:07Z</time>
      </trkpt>
      <trkpt lat="47.54" lon="-2.44098">
        <ele>29.9</ele>
        <time>2020-06-06T09:45:08Z</time>
      </trkpt>
      <trkpt lat="47.54002" lon="-2.44107">
        <ele>29.7</ele>
        <time>2020-06-06T09:45:09Z</time>
      </trkpt>
      <trkpt lat="47.54004" lon="-2.44117">
        <ele>29.5</ele>
        <time>2020-06-06T09:45:10Z</time>
      </trkpt>
      <trkpt lat="47.54006" lon="-2.44126">
        <ele>29.3</ele>
        <time>2020-06-06T09:45:11Z</time>
      </trkpt>
      <trkpt lat="47.54008" lon="-2.44136">
        <ele>29.1</ele>
        <time>2020-06-06T09:45:12Z</time>
      </trkpt>
      <trkpt lat="47.5401" lon="-2.44146">
        <ele>28.9</ele>
        <time>2020-06-06T09:45:13Z</time>
      </trkpt>
      <trkpt lat="47.54012" lon="-2.44155">
        <ele>28.7</ele>
        <time>2020-06-06T09:45:14Z</time>
      </trkpt>
      <trkpt lat="47.54014" lon="-2.44164">
        <ele>28.5</ele>
        <time>2020-06-06T09:45:15Z</time>
      </trkpt>
      <trkpt lat="47.54016" lon="-2.44173">
        <ele>28.3</ele>
        <time>2020-06-06T09:45:16Z</time>
      </trkpt>
      <trkpt lat="47.54019" lon="-2.44182">
        <ele>28.1</ele>
        <time>2020-06-06T09:45:17Z</time>
      </trkpt>
      <trkpt lat="47.54021" lon="-2.44191">
        <ele>27.8</ele>
        <time>2020-06-06T09:45:18Z</time>
      </trkpt>
      <trkpt lat="47.54024" lon="-2.44199">
        <ele>27.6</ele>
        <time>2020-06-06T09:45:19Z</time>
      </trkpt>
      <trkpt lat="47.54028" lon="-2.44207">
        <ele>27.3</ele>
        <time>2020-06-06T09:45:20Z</time>
      </trkpt>
      <trkpt lat="47.54031" lon="-2.44216">
        <ele>27.1</ele>
        <time>2020-06-06T09:45:21Z</time>
      </trkpt>
      <trkpt lat="47.54035" lon="-2.44224">
        <ele>26.8</ele>
        <time>2020-06-06T09:45:22Z</time>
      </trkpt>
      <trkpt lat="47.54038" lon="-2.44231">
        <ele>26.5</ele>
        <time>2020-06-06T09:45:23Z</time>
      </trkpt>
      <trkpt lat="47.54043" lon="-2.44239">
        <ele>26.2</ele>
        <time>2020-06-06T09:45:24Z</time>
      </trkpt>
      <trkpt lat="47.54047" lon="-2.44246">
        <ele>25.9</ele>
        <time>2020-06-06T09:45:25Z</time>
      </trkpt>
      <trkpt lat="47.5405" lon="-2.44254">
        <ele>25.6</ele>
        <time>2020-06-06T09:45:26Z</time>
      </trkpt>
      <trkpt lat="47.54053" lon="-2.44263">
        <ele>25.3</ele>
        <time>2020-06-06T09:45:27Z</time>
      </trkpt>
      <trkpt lat="47.54057" lon="-2.44271">
        <ele>24.9</ele>
        <time>2020-06-06T09:45:28Z</time>
      </trkpt>
      <trkpt lat="47.5406" lon="-2.4428">
        <ele>24.5</ele>
        <time>2020-06-06T09:45:29Z</time>
      </trkpt>
      <trkpt lat="47.54064" lon="-2.44289">
        <ele>24.2</ele>
        <time>2020-06-06T09:45:30Z</time>
      </trkpt>
      <trkpt lat="47.54067" lon="-2.44298">
        <ele>23.8</ele>
        <time>2020-06-06T09:45:31Z</time>
      </trkpt>
      <trkpt lat="47.54068" lon="-2.44309">
        <ele>23.4</ele>
        <time>2020-06-06T09:45:32Z</time>
      </trkpt>
      <trkpt lat="47.5407" lon="-2.44319">
        <ele>23</ele>
        <time>2020-06-06T09:45:33Z</time>
      </trkpt>
      <trkpt lat="47.54072" lon="-2.44329">
        <ele>22.7</ele>
        <time>2020-06-06T09:45:34Z</time>
      </trkpt>
      <trkpt lat="47.54073" lon="-2.4434">
        <ele>22.3</ele>
        <time>2020-06-06T09:45:35Z</time>
      </trkpt>
      <trkpt lat="47.54074" lon="-2.4435">
        <ele>22</ele>
        <time>2020-06-06T09:45:36Z</time>
      </trkpt>
      <trkpt lat="47.54076" lon="-2.44361">
        <ele>21.6</ele>
        <time>2020-06-06T09:45:37Z</time>
      </trkpt>
      <trkpt lat="47.54076" lon="-2.44372">
        <ele>21.3</ele>
        <time>2020-06-06T09:45:38Z</time>
      </trkpt>
      <trkpt lat="47.54076" lon="-2.44383">
        <ele>21</ele>
        <time>2020-06-06T09:45:39Z</time>
      </trkpt>
      <trkpt lat="47.54076" lon="-2.44395">
        <ele>20.6</ele>
        <time>2020-06-06T09:45:40Z</time>
      </trkpt>
      <trkpt lat="47.54076" lon="-2.44407">
        <ele>20.2</ele>
        <time>2020-06-06T09:45:41Z</time>
      </trkpt>
      <trkpt lat="47.54076" lon="-2.44419">
        <ele>19.7</ele>
        <time>2020-06-06T09:45:42Z</time>
      </trkpt>
      <trkpt lat="47.54076" lon="-2.44431">
        <ele>19.3</ele>
        <time>2020-06-06T09:45:43Z</time>
      </trkpt>
      <trkpt lat="47.54077" lon="-2.44442">
        <ele>18.9</ele>
        <time>2020-06-06T09:45:44Z</time>
      </trkpt>
      <trkpt lat="47.54078" lon="-2.44454">
        <ele>18.5</ele>
        <time>2020-06-06T09:45:45Z</time>
      </trkpt>
      <trkpt lat="47.5408" lon="-2.44465">
        <ele>17.8</ele>
        <time>2020-06-06T09:45:46Z</time>
      </trkpt>
      <trkpt lat="47.54082" lon="-2.44476">
        <ele>17.8</ele>
        <time>2020-06-06T09:45:47Z</time>
      </trkpt>
      <trkpt lat="47.54085" lon="-2.44486">
        <ele>17.8</ele>
        <time>2020-06-06T09:45:48Z</time>
      </trkpt>
      <trkpt lat="47.54087" lon="-2.44497">
        <ele>17.3</ele>
        <time>2020-06-06T09:45:49Z</time>
      </trkpt>
      <trkpt lat="47.5409" lon="-2.44508">
        <ele>16.8</ele>
        <time>2020-06-06T09:45:50Z</time>
      </trkpt>
      <trkpt lat="47.54092" lon="-2.4452">
        <ele>16.2</ele>
        <time>2020-06-06T09:45:51Z</time>
      </trkpt>
      <trkpt lat="47.54095" lon="-2.44531">
        <ele>15.6</ele>
        <time>2020-06-06T09:45:52Z</time>
      </trkpt>
      <trkpt lat="47.54098" lon="-2.44544">
        <ele>15</ele>
        <time>2020-06-06T09:45:53Z</time>
      </trkpt>
      <trkpt lat="47.54101" lon="-2.44556">
        <ele>14.3</ele>
        <time>2020-06-06T09:45:54Z</time>
      </trkpt>
      <trkpt lat="47.54105" lon="-2.44569">
        <ele>13.6</ele>
        <time>2020-06-06T09:45:55Z</time>
      </trkpt>
      <trkpt lat="47.54109" lon="-2.44582">
        <ele>12.9</ele>
        <time>2020-06-06T09:45:56Z</time>
      </trkpt>
      <trkpt lat="47.54114" lon="-2.44595">
        <ele>12</ele>
        <time>2020-06-06T09:45:57Z</time>
      </trkpt>
      <trkpt lat="47.54119" lon="-2.44609">
        <ele>11.2</ele>
        <time>2020-06-06T09:45:58Z</time>
      </trkpt>
      <trkpt lat="47.54124" lon="-2.44623">
        <ele>10.3</ele>
        <time>2020-06-06T09:45:59Z</time>
      </trkpt>
      <trkpt lat="47.54129" lon="-2.44636">
        <ele>9.4</ele>
        <time>2020-06-06T09:46:00Z</time>
      </trkpt>
      <trkpt lat="47.54135" lon="-2.4465">
        <ele>8.4</ele>
        <time>2020-06-06T09:46:01Z</time>
      </trkpt>
      <trkpt lat="47.54141" lon="-2.44664">
        <ele>7.4</ele>
        <time>2020-06-06T09:46:02Z</time>
      </trkpt>
      <trkpt lat="47.54146" lon="-2.44679">
        <ele>6.6</ele>
        <time>2020-06-06T09:46:03Z</time>
      </trkpt>
      <trkpt lat="47.5415" lon="-2.44694">
        <ele>5.9</ele>
        <time>2020-06-06T09:46:04Z</time>
      </trkpt>
      <trkpt lat="47.54155" lon="-2.44709">
        <ele>5.2</ele>
        <time>2020-06-06T09:46:05Z</time>
      </trkpt>
      <trkpt lat="47.54159" lon="-2.44724">
        <ele>4.7</ele>
        <time>2020-06-06T09:46:06Z</time>
      </trkpt>
      <trkpt lat="47.54163" lon="-2.4474">
        <ele>4.2</ele>
        <time>2020-06-06T09:46:07Z</time>
      </trkpt>
      <trkpt lat="47.54167" lon="-2.44755">
        <ele>3.8</ele>
        <time>2020-06-06T09:46:08Z</time>
      </trkpt>
      <trkpt lat="47.54172" lon="-2.44769">
        <ele>3.6</ele>
        <time>2020-06-06T09:46:09Z</time>
      </trkpt>
      <trkpt lat="47.54176" lon="-2.44784">
        <ele>3.5</ele>
        <time>2020-06-06T09:46:10Z</time>
      </trkpt>
      <trkpt lat="47.54179" lon="-2.44798">
        <ele>3.4</ele>
        <time>2020-06-06T09:46:11Z</time>
      </trkpt>
      <trkpt lat="47.54182" lon="-2.44811">
        <ele>3.3</ele>
        <time>2020-06-06T09:46:12Z</time>
      </trkpt>
      <trkpt lat="47.54186" lon="-2.44823">
        <ele>3.4</ele>
        <time>2020-06-06T09:46:13Z</time>
      </trkpt>
      <trkpt lat="47.54189" lon="-2.44835">
        <ele>3.2</ele>
        <time>2020-06-06T09:46:14Z</time>
      </trkpt>
      <trkpt lat="47.54193" lon="-2.44848">
        <ele>3.1</ele>
        <time>2020-06-06T09:46:15Z</time>
      </trkpt>
      <trkpt lat="47.54197" lon="-2.44861">
        <ele>3</ele>
        <time>2020-06-06T09:46:16Z</time>
      </trkpt>
      <trkpt lat="47.54201" lon="-2.44874">
        <ele>2.9</ele>
        <time>2020-06-06T09:46:17Z</time>
      </trkpt>
      <trkpt lat="47.54207" lon="-2.44886">
        <ele>2.9</ele>
        <time>2020-06-06T09:46:18Z</time>
      </trkpt>
      <trkpt lat="47.54211" lon="-2.44898">
        <ele>3</ele>
        <time>2020-06-06T09:46:19Z</time>
      </trkpt>
      <trkpt lat="47.54216" lon="-2.4491">
        <ele>3.1</ele>
        <time>2020-06-06T09:46:20Z</time>
      </trkpt>
      <trkpt lat="47.54221" lon="-2.44921">
        <ele>3.3</ele>
        <time>2020-06-06T09:46:21Z</time>
      </trkpt>
      <trkpt lat="47.54226" lon="-2.44934">
        <ele>3.5</ele>
        <time>2020-06-06T09:46:22Z</time>
      </trkpt>
      <trkpt lat="47.5423" lon="-2.44946">
        <ele>3.7</ele>
        <time>2020-06-06T09:46:23Z</time>
      </trkpt>
      <trkpt lat="47.54234" lon="-2.44958">
        <ele>3.9</ele>
        <time>2020-06-06T09:46:24Z</time>
      </trkpt>
      <trkpt lat="47.5424" lon="-2.4497">
        <ele>4.1</ele>
        <time>2020-06-06T09:46:25Z</time>
      </trkpt>
      <trkpt lat="47.54246" lon="-2.44982">
        <ele>4.4</ele>
        <time>2020-06-06T09:46:26Z</time>
      </trkpt>
      <trkpt lat="47.54252" lon="-2.44993">
        <ele>4.7</ele>
        <time>2020-06-06T09:46:27Z</time>
      </trkpt>
      <trkpt lat="47.54257" lon="-2.45004">
        <ele>5.1</ele>
        <time>2020-06-06T09:46:28Z</time>
      </trkpt>
      <trkpt lat="47.54261" lon="-2.45015">
        <ele>5.5</ele>
        <time>2020-06-06T09:46:29Z</time>
      </trkpt>
      <trkpt lat="47.54266" lon="-2.45026">
        <ele>6</ele>
        <time>2020-06-06T09:46:30Z</time>
      </trkpt>
      <trkpt lat="47.5427" lon="-2.45036">
        <ele>6.4</ele>
        <time>2020-06-06T09:46:31Z</time>
      </trkpt>
      <trkpt lat="47.54274" lon="-2.45045">
        <ele>6.9</ele>
        <time>2020-06-06T09:46:32Z</time>
      </trkpt>
      <trkpt lat="47.54279" lon="-2.45054">
        <ele>7.5</ele>
        <time>2020-06-06T09:46:33Z</time>
      </trkpt>
      <trkpt lat="47.54283" lon="-2.45063">
        <ele>8.1</ele>
        <time>2020-06-06T09:46:34Z</time>
      </trkpt>
      <trkpt lat="47.54287" lon="-2.45072">
        <ele>8.7</ele>
        <time>2020-06-06T09:46:35Z</time>
      </trkpt>
      <trkpt lat="47.5429" lon="-2.45079">
        <ele>9.3</ele>
        <time>2020-06-06T09:46:36Z</time>
      </trkpt>
      <trkpt lat="47.54293" lon="-2.45087">
        <ele>9.8</ele>
        <time>2020-06-06T09:46:37Z</time>
      </trkpt>
      <trkpt lat="47.54296" lon="-2.45094">
        <ele>10.4</ele>
        <time>2020-06-06T09:46:38Z</time>
      </trkpt>
      <trkpt lat="47.54298" lon="-2.45102">
        <ele>10.9</ele>
        <time>2020-06-06T09:46:39Z</time>
      </trkpt>
      <trkpt lat="47.54301" lon="-2.45109">
        <ele>11.3</ele>
        <time>2020-06-06T09:46:40Z</time>
      </trkpt>
      <trkpt lat="47.54304" lon="-2.45115">
        <ele>11.8</ele>
        <time>2020-06-06T09:46:41Z</time>
      </trkpt>
      <trkpt lat="47.54306" lon="-2.45121">
        <ele>12.1</ele>
        <time>2020-06-06T09:46:42Z</time>
      </trkpt>
      <trkpt lat="47.54308" lon="-2.45127">
        <ele>12.5</ele>
        <time>2020-06-06T09:46:43Z</time>
      </trkpt>
      <trkpt lat="47.5431" lon="-2.45133">
        <ele>12.9</ele>
        <time>2020-06-06T09:46:44Z</time>
      </trkpt>
      <trkpt lat="47.54312" lon="-2.45139">
        <ele>13.2</ele>
        <time>2020-06-06T09:46:45Z</time>
      </trkpt>
      <trkpt lat="47.54314" lon="-2.45145">
        <ele>13.5</ele>
        <time>2020-06-06T09:46:46Z</time>
      </trkpt>
      <trkpt lat="47.54317" lon="-2.45151">
        <ele>13.8</ele>
        <time>2020-06-06T09:46:47Z</time>
      </trkpt>
      <trkpt lat="47.54319" lon="-2.45156">
        <ele>14.1</ele>
        <time>2020-06-06T09:46:48Z</time>
      </trkpt>
      <trkpt lat="47.54321" lon="-2.45162">
        <ele>14.4</ele>
        <time>2020-06-06T09:46:49Z</time>
      </trkpt>
      <trkpt lat="47.54322" lon="-2.45168">
        <ele>14.6</ele>
        <time>2020-06-06T09:46:50Z</time>
      </trkpt>
      <trkpt lat="47.54323" lon="-2.45173">
        <ele>14.8</ele>
        <time>2020-06-06T09:46:51Z</time>
      </trkpt>
      <trkpt lat="47.54324" lon="-2.45178">
        <ele>15.1</ele>
        <time>2020-06-06T09:46:52Z</time>
      </trkpt>
      <trkpt lat="47.54325" lon="-2.45183">
        <ele>15.2</ele>
        <time>2020-06-06T09:46:53Z</time>
      </trkpt>
      <trkpt lat="47.54327" lon="-2.45187">
        <ele>15.3</ele>
        <time>2020-06-06T09:46:54Z</time>
      </trkpt>
      <trkpt lat="47.54328" lon="-2.4519">
        <ele>15.4</ele>
        <time>2020-06-06T09:46:55Z</time>
      </trkpt>
      <trkpt lat="47.5433" lon="-2.45196">
        <ele>15.5</ele>
        <time>2020-06-06T09:46:56Z</time>
      </trkpt>
      <trkpt lat="47.5433" lon="-2.45198">
        <ele>15.5</ele>
        <time>2020-06-06T09:46:57Z</time>
      </trkpt>
      <trkpt lat="47.54331" lon="-2.45203">
        <ele>15.5</ele>
        <time>2020-06-06T09:46:58Z</time>
      </trkpt>
      <trkpt lat="47.54333" lon="-2.45207">
        <ele>15.8</ele>
        <time>2020-06-06T09:46:59Z</time>
      </trkpt>
      <trkpt lat="47.54335" lon="-2.4521">
        <ele>16</ele>
        <time>2020-06-06T09:47:00Z</time>
      </trkpt>
      <trkpt lat="47.54336" lon="-2.45214">
        <ele>16.3</ele>
        <time>2020-06-06T09:47:01Z</time>
      </trkpt>
      <trkpt lat="47.54337" lon="-2.45219">
        <ele>16.6</ele>
        <time>2020-06-06T09:47:02Z</time>
      </trkpt>
      <trkpt lat="47.54337" lon="-2.45221">
        <ele>16.7</ele>
        <time>2020-06-06T09:47:03Z</time>
      </trkpt>
      <trkpt lat="47.54339" lon="-2.45225">
        <ele>17</ele>
        <time>2020-06-06T09:47:04Z</time>
      </trkpt>
      <trkpt lat="47.54341" lon="-2.45229">
        <ele>17.2</ele>
        <time>2020-06-06T09:47:05Z</time>
      </trkpt>
      <trkpt lat="47.54342" lon="-2.45233">
        <ele>17.5</ele>
        <time>2020-06-06T09:47:06Z</time>
      </trkpt>
      <trkpt lat="47.54343" lon="-2.45235">
        <ele>17.6</ele>
        <time>2020-06-06T09:47:07Z</time>
      </trkpt>
      <trkpt lat="47.54344" lon="-2.4524">
        <ele>17.9</ele>
        <time>2020-06-06T09:47:08Z</time>
      </trkpt>
      <trkpt lat="47.54345" lon="-2.45242">
        <ele>18</ele>
        <time>2020-06-06T09:47:09Z</time>
      </trkpt>
      <trkpt lat="47.54346" lon="-2.45246">
        <ele>18.3</ele>
        <time>2020-06-06T09:47:10Z</time>
      </trkpt>
      <trkpt lat="47.54347" lon="-2.45249">
        <ele>18.5</ele>
        <time>2020-06-06T09:47:11Z</time>
      </trkpt>
      <trkpt lat="47.54348" lon="-2.45252">
        <ele>18.7</ele>
        <time>2020-06-06T09:47:12Z</time>
      </trkpt>
      <trkpt lat="47.54349" lon="-2.45254">
        <ele>18.8</ele>
        <time>2020-06-06T09:47:13Z</time>
      </trkpt>
      <trkpt lat="47.5435" lon="-2.45258">
        <ele>19.1</ele>
        <time>2020-06-06T09:47:14Z</time>
      </trkpt>
      <trkpt lat="47.5435" lon="-2.45259">
        <ele>19.2</ele>
        <time>2020-06-06T09:47:15Z</time>
      </trkpt>
      <trkpt lat="47.54351" lon="-2.45265">
        <ele>19.5</ele>
        <time>2020-06-06T09:47:16Z</time>
      </trkpt>
      <trkpt lat="47.54352" lon="-2.45266">
        <ele>19.6</ele>
        <time>2020-06-06T09:47:17Z</time>
      </trkpt>
      <trkpt lat="47.54354" lon="-2.45271">
        <ele>19.9</ele>
        <time>2020-06-06T09:47:18Z</time>
      </trkpt>
      <trkpt lat="47.54354" lon="-2.45272">
        <ele>20</ele>
        <time>2020-06-06T09:47:19Z</time>
      </trkpt>
      <trkpt lat="47.54356" lon="-2.45276">
        <ele>20.3</ele>
        <time>2020-06-06T09:47:20Z</time>
      </trkpt>
      <trkpt lat="47.54357" lon="-2.45278">
        <ele>20.4</ele>
        <time>2020-06-06T09:47:21Z</time>
      </trkpt>
      <trkpt lat="47.54358" lon="-2.45283">
        <ele>20.7</ele>
        <time>2020-06-06T09:47:22Z</time>
      </trkpt>
      <trkpt lat="47.54358" lon="-2.45284">
        <ele>20.7</ele>
        <time>2020-06-06T09:47:23Z</time>
      </trkpt>
      <trkpt lat="47.5436" lon="-2.4529">
        <ele>21.1</ele>
        <time>2020-06-06T09:47:24Z</time>
      </trkpt>
      <trkpt lat="47.5436" lon="-2.45291">
        <ele>21.2</ele>
        <time>2020-06-06T09:47:25Z</time>
      </trkpt>
      <trkpt lat="47.54362" lon="-2.45296">
        <ele>21.4</ele>
        <time>2020-06-06T09:47:26Z</time>
      </trkpt>
      <trkpt lat="47.54363" lon="-2.45297">
        <ele>21.5</ele>
        <time>2020-06-06T09:47:27Z</time>
      </trkpt>
      <trkpt lat="47.54364" lon="-2.453">
        <ele>21.7</ele>
        <time>2020-06-06T09:47:28Z</time>
      </trkpt>
      <trkpt lat="47.54366" lon="-2.45304">
        <ele>21.9</ele>
        <time>2020-06-06T09:47:29Z</time>
      </trkpt>
      <trkpt lat="47.54368" lon="-2.45309">
        <ele>22.2</ele>
        <time>2020-06-06T09:47:30Z</time>
      </trkpt>
      <trkpt lat="47.54368" lon="-2.45312">
        <ele>22.3</ele>
        <time>2020-06-06T09:47:31Z</time>
      </trkpt>
      <trkpt lat="47.54369" lon="-2.45317">
        <ele>22.5</ele>
        <time>2020-06-06T09:47:32Z</time>
      </trkpt>
      <trkpt lat="47.54369" lon="-2.45319">
        <ele>22.6</ele>
        <time>2020-06-06T09:47:33Z</time>
      </trkpt>
      <trkpt lat="47.5437" lon="-2.45323">
        <ele>22.8</ele>
        <time>2020-06-06T09:47:34Z</time>
      </trkpt>
      <trkpt lat="47.54371" lon="-2.45327">
        <ele>23</ele>
        <time>2020-06-06T09:47:35Z</time>
      </trkpt>
      <trkpt lat="47.54371" lon="-2.45332">
        <ele>23.2</ele>
        <time>2020-06-06T09:47:36Z</time>
      </trkpt>
      <trkpt lat="47.54373" lon="-2.45337">
        <ele>23.4</ele>
        <time>2020-06-06T09:47:37Z</time>
      </trkpt>
      <trkpt lat="47.54374" lon="-2.45342">
        <ele>23.7</ele>
        <time>2020-06-06T09:47:38Z</time>
      </trkpt>
      <trkpt lat="47.54375" lon="-2.45346">
        <ele>23.8</ele>
        <time>2020-06-06T09:47:39Z</time>
      </trkpt>
      <trkpt lat="47.54377" lon="-2.45351">
        <ele>24.1</ele>
        <time>2020-06-06T09:47:40Z</time>
      </trkpt>
      <trkpt lat="47.54377" lon="-2.45353">
        <ele>24.2</ele>
        <time>2020-06-06T09:47:41Z</time>
      </trkpt>
      <trkpt lat="47.54379" lon="-2.45358">
        <ele>24.3</ele>
        <time>2020-06-06T09:47:42Z</time>
      </trkpt>
      <trkpt lat="47.5438" lon="-2.45363">
        <ele>24.6</ele>
        <time>2020-06-06T09:47:43Z</time>
      </trkpt>
      <trkpt lat="47.54381" lon="-2.45367">
        <ele>24.7</ele>
        <time>2020-06-06T09:47:44Z</time>
      </trkpt>
      <trkpt lat="47.54383" lon="-2.45373">
        <ele>24.9</ele>
        <time>2020-06-06T09:47:45Z</time>
      </trkpt>
      <trkpt lat="47.54384" lon="-2.45377">
        <ele>25.1</ele>
        <time>2020-06-06T09:47:46Z</time>
      </trkpt>
      <trkpt lat="47.54385" lon="-2.45383">
        <ele>25.3</ele>
        <time>2020-06-06T09:47:47Z</time>
      </trkpt>
      <trkpt lat="47.54386" lon="-2.45386">
        <ele>25.4</ele>
        <time>2020-06-06T09:47:48Z</time>
      </trkpt>
      <trkpt lat="47.54386" lon="-2.4539">
        <ele>25.6</ele>
        <time>2020-06-06T09:47:49Z</time>
      </trkpt>
      <trkpt lat="47.54386" lon="-2.45395">
        <ele>25.8</ele>
        <time>2020-06-06T09:47:50Z</time>
      </trkpt>
      <trkpt lat="47.54386" lon="-2.454">
        <ele>25.9</ele>
        <time>2020-06-06T09:47:51Z</time>
      </trkpt>
      <trkpt lat="47.54387" lon="-2.45405">
        <ele>26.1</ele>
        <time>2020-06-06T09:47:52Z</time>
      </trkpt>
      <trkpt lat="47.54388" lon="-2.4541">
        <ele>26.3</ele>
        <time>2020-06-06T09:47:53Z</time>
      </trkpt>
      <trkpt lat="47.54388" lon="-2.45414">
        <ele>26.5</ele>
        <time>2020-06-06T09:47:54Z</time>
      </trkpt>
      <trkpt lat="47.54388" lon="-2.45419">
        <ele>26.7</ele>
        <time>2020-06-06T09:47:55Z</time>
      </trkpt>
      <trkpt lat="47.54388" lon="-2.45421">
        <ele>26.8</ele>
        <time>2020-06-06T09:47:56Z</time>
      </trkpt>
      <trkpt lat="47.54389" lon="-2.45426">
        <ele>26.9</ele>
        <time>2020-06-06T09:47:57Z</time>
      </trkpt>
      <trkpt lat="47.5439" lon="-2.45432">
        <ele>27.2</ele>
        <time>2020-06-06T09:47:58Z</time>
      </trkpt>
      <trkpt lat="47.54392" lon="-2.45436">
        <ele>27.5</ele>
        <time>2020-06-06T09:47:59Z</time>
      </trkpt>
      <trkpt lat="47.54392" lon="-2.45438">
        <ele>27.5</ele>
        <time>2020-06-06T09:48:00Z</time>
      </trkpt>
      <trkpt lat="47.54393" lon="-2.45442">
        <ele>27.7</ele>
        <time>2020-06-06T09:48:01Z</time>
      </trkpt>
      <trkpt lat="47.54394" lon="-2.45448">
        <ele>28</ele>
        <time>2020-06-06T09:48:02Z</time>
      </trkpt>
      <trkpt lat="47.54395" lon="-2.45451">
        <ele>28.1</ele>
        <time>2020-06-06T09:48:03Z</time>
      </trkpt>
      <trkpt lat="47.54395" lon="-2.45456">
        <ele>28.4</ele>
        <time>2020-06-06T09:48:04Z</time>
      </trkpt>
      <trkpt lat="47.54396" lon="-2.45461">
        <ele>28.6</ele>
        <time>2020-06-06T09:48:05Z</time>
      </trkpt>
      <trkpt lat="47.54398" lon="-2.45466">
        <ele>28.8</ele>
        <time>2020-06-06T09:48:06Z</time>
      </trkpt>
      <trkpt lat="47.54397" lon="-2.45471">
        <ele>29</ele>
        <time>2020-06-06T09:48:07Z</time>
      </trkpt>
      <trkpt lat="47.54398" lon="-2.45476">
        <ele>29.3</ele>
        <time>2020-06-06T09:48:08Z</time>
      </trkpt>
      <trkpt lat="47.544" lon="-2.45482">
        <ele>29.6</ele>
        <time>2020-06-06T09:48:09Z</time>
      </trkpt>
      <trkpt lat="47.54402" lon="-2.45488">
        <ele>29.9</ele>
        <time>2020-06-06T09:48:10Z</time>
      </trkpt>
      <trkpt lat="47.54404" lon="-2.45493">
        <ele>30.2</ele>
        <time>2020-06-06T09:48:11Z</time>
      </trkpt>
      <trkpt lat="47.54407" lon="-2.45498">
        <ele>30.5</ele>
        <time>2020-06-06T09:48:12Z</time>
      </trkpt>
      <trkpt lat="47.54409" lon="-2.45502">
        <ele>30.7</ele>
        <time>2020-06-06T09:48:13Z</time>
      </trkpt>
      <trkpt lat="47.54409" lon="-2.45506">
        <ele>30.9</ele>
        <time>2020-06-06T09:48:14Z</time>
      </trkpt>
      <trkpt lat="47.54411" lon="-2.4551">
        <ele>31.1</ele>
        <time>2020-06-06T09:48:15Z</time>
      </trkpt>
      <trkpt lat="47.54412" lon="-2.45514">
        <ele>31.3</ele>
        <time>2020-06-06T09:48:16Z</time>
      </trkpt>
      <trkpt lat="47.54413" lon="-2.45519">
        <ele>31.5</ele>
        <time>2020-06-06T09:48:17Z</time>
      </trkpt>
      <trkpt lat="47.54415" lon="-2.45523">
        <ele>31.7</ele>
        <time>2020-06-06T09:48:18Z</time>
      </trkpt>
      <trkpt lat="47.54417" lon="-2.45527">
        <ele>31.9</ele>
        <time>2020-06-06T09:48:19Z</time>
      </trkpt>
      <trkpt lat="47.54418" lon="-2.45531">
        <ele>32.2</ele>
        <time>2020-06-06T09:48:20Z</time>
      </trkpt>
      <trkpt lat="47.54419" lon="-2.45535">
        <ele>32.4</ele>
        <time>2020-06-06T09:48:21Z</time>
      </trkpt>
      <trkpt lat="47.54422" lon="-2.4554">
        <ele>32.7</ele>
        <time>2020-06-06T09:48:22Z</time>
      </trkpt>
      <trkpt lat="47.54424" lon="-2.45546">
        <ele>33</ele>
        <time>2020-06-06T09:48:23Z</time>
      </trkpt>
      <trkpt lat="47.54425" lon="-2.45549">
        <ele>33.2</ele>
        <time>2020-06-06T09:48:24Z</time>
      </trkpt>
      <trkpt lat="47.54427" lon="-2.45554">
        <ele>33.4</ele>
        <time>2020-06-06T09:48:25Z</time>
      </trkpt>
      <trkpt lat="47.54428" lon="-2.45558">
        <ele>33.6</ele>
        <time>2020-06-06T09:48:26Z</time>
      </trkpt>
      <trkpt lat="47.5443" lon="-2.45562">
        <ele>33.8</ele>
        <time>2020-06-06T09:48:27Z</time>
      </trkpt>
      <trkpt lat="47.54432" lon="-2.45567">
        <ele>34.1</ele>
        <time>2020-06-06T09:48:28Z</time>
      </trkpt>
      <trkpt lat="47.54433" lon="-2.45571">
        <ele>34.3</ele>
        <time>2020-06-06T09:48:29Z</time>
      </trkpt>
      <trkpt lat="47.54435" lon="-2.45575">
        <ele>34.5</ele>
        <time>2020-06-06T09:48:30Z</time>
      </trkpt>
      <trkpt lat="47.54437" lon="-2.4558">
        <ele>34.7</ele>
        <time>2020-06-06T09:48:31Z</time>
      </trkpt>
      <trkpt lat="47.54438" lon="-2.45582">
        <ele>34.8</ele>
        <time>2020-06-06T09:48:32Z</time>
      </trkpt>
      <trkpt lat="47.54441" lon="-2.45586">
        <ele>35.1</ele>
        <time>2020-06-06T09:48:33Z</time>
      </trkpt>
      <trkpt lat="47.54442" lon="-2.4559">
        <ele>35.2</ele>
        <time>2020-06-06T09:48:34Z</time>
      </trkpt>
      <trkpt lat="47.54444" lon="-2.45594">
        <ele>35.5</ele>
        <time>2020-06-06T09:48:35Z</time>
      </trkpt>
      <trkpt lat="47.54445" lon="-2.45599">
        <ele>35.7</ele>
        <time>2020-06-06T09:48:36Z</time>
      </trkpt>
      <trkpt lat="47.54447" lon="-2.45604">
        <ele>36</ele>
        <time>2020-06-06T09:48:37Z</time>
      </trkpt>
      <trkpt lat="47.54448" lon="-2.4561">
        <ele>36.2</ele>
        <time>2020-06-06T09:48:38Z</time>
      </trkpt>
      <trkpt lat="47.5445" lon="-2.45614">
        <ele>36.5</ele>
        <time>2020-06-06T09:48:39Z</time>
      </trkpt>
      <trkpt lat="47.54451" lon="-2.45619">
        <ele>36.7</ele>
        <time>2020-06-06T09:48:40Z</time>
      </trkpt>
      <trkpt lat="47.54452" lon="-2.45624">
        <ele>36.9</ele>
        <time>2020-06-06T09:48:41Z</time>
      </trkpt>
      <trkpt lat="47.54453" lon="-2.45626">
        <ele>37</ele>
        <time>2020-06-06T09:48:42Z</time>
      </trkpt>
      <trkpt lat="47.54454" lon="-2.45631">
        <ele>37.3</ele>
        <time>2020-06-06T09:48:43Z</time>
      </trkpt>
      <trkpt lat="47.54456" lon="-2.45635">
        <ele>37.4</ele>
        <time>2020-06-06T09:48:44Z</time>
      </trkpt>
      <trkpt lat="47.54457" lon="-2.4564">
        <ele>37.6</ele>
        <time>2020-06-06T09:48:45Z</time>
      </trkpt>
      <trkpt lat="47.54459" lon="-2.45645">
        <ele>37.8</ele>
        <time>2020-06-06T09:48:46Z</time>
      </trkpt>
      <trkpt lat="47.54461" lon="-2.45649">
        <ele>38</ele>
        <time>2020-06-06T09:48:47Z</time>
      </trkpt>
      <trkpt lat="47.54461" lon="-2.45653">
        <ele>38.1</ele>
        <time>2020-06-06T09:48:48Z</time>
      </trkpt>
      <trkpt lat="47.54461" lon="-2.4566">
        <ele>38.3</ele>
        <time>2020-06-06T09:48:49Z</time>
      </trkpt>
      <trkpt lat="47.54461" lon="-2.45665">
        <ele>38.5</ele>
        <time>2020-06-06T09:48:50Z</time>
      </trkpt>
      <trkpt lat="47.54461" lon="-2.45667">
        <ele>38.5</ele>
        <time>2020-06-06T09:48:51Z</time>
      </trkpt>
      <trkpt lat="47.5446" lon="-2.45673">
        <ele>38.6</ele>
        <time>2020-06-06T09:48:52Z</time>
      </trkpt>
      <trkpt lat="47.5446" lon="-2.45678">
        <ele>38.7</ele>
        <time>2020-06-06T09:48:53Z</time>
      </trkpt>
      <trkpt lat="47.5446" lon="-2.45682">
        <ele>38.7</ele>
        <time>2020-06-06T09:48:54Z</time>
      </trkpt>
      <trkpt lat="47.54461" lon="-2.45687">
        <ele>38.8</ele>
        <time>2020-06-06T09:48:55Z</time>
      </trkpt>
      <trkpt lat="47.54461" lon="-2.45691">
        <ele>38.9</ele>
        <time>2020-06-06T09:48:56Z</time>
      </trkpt>
      <trkpt lat="47.54461" lon="-2.45693">
        <ele>38.9</ele>
        <time>2020-06-06T09:48:57Z</time>
      </trkpt>
      <trkpt lat="47.54461" lon="-2.45696">
        <ele>38.9</ele>
        <time>2020-06-06T09:48:58Z</time>
      </trkpt>
      <trkpt lat="47.54461" lon="-2.45696">
        <ele>38.9</ele>
        <time>2020-06-06T09:48:59Z</time>
      </trkpt>
      <trkpt lat="47.54461" lon="-2.45697">
        <ele>38.9</ele>
        <time>2020-06-06T09:49:00Z</time>
      </trkpt>
      <trkpt lat="47.54461" lon="-2.45698">
        <ele>38.9</ele>
        <time>2020-06-06T09:49:01Z</time>
      </trkpt>
      <trkpt lat="47.5446" lon="-2.45698">
        <ele>38.9</ele>
        <time>2020-06-06T09:49:02Z</time>
      </trkpt>
      <trkpt lat="47.5446" lon="-2.45699">
        <ele>38.9</ele>
        <time>2020-06-06T09:49:03Z</time>
      </trkpt>
      <trkpt lat="47.5446" lon="-2.45699">
        <ele>38.9</ele>
        <time>2020-06-06T09:49:04Z</time>
      </trkpt>
      <trkpt lat="47.5446" lon="-2.457">
        <ele>38.9</ele>
        <time>2020-06-06T09:49:05Z</time>
      </trkpt>
      <trkpt lat="47.5446" lon="-2.457">
        <ele>38.9</ele>
        <time>2020-06-06T09:49:06Z</time>
      </trkpt>
      <trkpt lat="47.54459" lon="-2.45701">
        <ele>38.9</ele>
        <time>2020-06-06T09:49:07Z</time>
      </trkpt>
      <trkpt lat="47.54459" lon="-2.45701">
        <ele>39</ele>
        <time>2020-06-06T09:49:08Z</time>
      </trkpt>
      <trkpt lat="47.54459" lon="-2.45702">
        <ele>39</ele>
        <time>2020-06-06T09:49:09Z</time>
      </trkpt>
      <trkpt lat="47.54459" lon="-2.45702">
        <ele>39</ele>
        <time>2020-06-06T09:49:51Z</time>
      </trkpt>
      <trkpt lat="47.54458" lon="-2.45703">
        <ele>39</ele>
        <time>2020-06-06T09:49:52Z</time>
      </trkpt>
      <trkpt lat="47.54459" lon="-2.45708">
        <ele>39</ele>
        <time>2020-06-06T09:49:53Z</time>
      </trkpt>
      <trkpt lat="47.54459" lon="-2.4571">
        <ele>39</ele>
        <time>2020-06-06T09:49:54Z</time>
      </trkpt>
      <trkpt lat="47.54459" lon="-2.45715">
        <ele>39</ele>
        <time>2020-06-06T09:49:55Z</time>
      </trkpt>
      <trkpt lat="47.54459" lon="-2.45716">
        <ele>39.1</ele>
        <time>2020-06-06T09:49:56Z</time>
      </trkpt>
      <trkpt lat="47.54459" lon="-2.45719">
        <ele>39.1</ele>
        <time>2020-06-06T09:49:57Z</time>
      </trkpt>
      <trkpt lat="47.54458" lon="-2.45722">
        <ele>39.1</ele>
        <time>2020-06-06T09:49:58Z</time>
      </trkpt>
      <trkpt lat="47.54457" lon="-2.45723">
        <ele>39.1</ele>
        <time>2020-06-06T09:49:59Z</time>
      </trkpt>
      <trkpt lat="47.54457" lon="-2.45725">
        <ele>39.1</ele>
        <time>2020-06-06T09:50:00Z</time>
      </trkpt>
      <trkpt lat="47.54456" lon="-2.45729">
        <ele>39.1</ele>
        <time>2020-06-06T09:50:01Z</time>
      </trkpt>
      <trkpt lat="47.54456" lon="-2.45731">
        <ele>39.1</ele>
        <time>2020-06-06T09:50:02Z</time>
      </trkpt>
      <trkpt lat="47.54457" lon="-2.45735">
        <ele>39</ele>
        <time>2020-06-06T09:50:03Z</time>
      </trkpt>
      <trkpt lat="47.5446" lon="-2.45738">
        <ele>39</ele>
        <time>2020-06-06T09:50:04Z</time>
      </trkpt>
      <trkpt lat="47.5446" lon="-2.4574">
        <ele>39</ele>
        <time>2020-06-06T09:50:05Z</time>
      </trkpt>
      <trkpt lat="47.54463" lon="-2.45743">
        <ele>39</ele>
        <time>2020-06-06T09:50:06Z</time>
      </trkpt>
      <trkpt lat="47.54464" lon="-2.45745">
        <ele>39</ele>
        <time>2020-06-06T09:50:07Z</time>
      </trkpt>
      <trkpt lat="47.54466" lon="-2.45749">
        <ele>38.9</ele>
        <time>2020-06-06T09:50:08Z</time>
      </trkpt>
      <trkpt lat="47.54467" lon="-2.45753">
        <ele>38.9</ele>
        <time>2020-06-06T09:50:09Z</time>
      </trkpt>
      <trkpt lat="47.54467" lon="-2.45754">
        <ele>38.9</ele>
        <time>2020-06-06T09:50:10Z</time>
      </trkpt>
      <trkpt lat="47.54469" lon="-2.45759">
        <ele>38.8</ele>
        <time>2020-06-06T09:50:11Z</time>
      </trkpt>
      <trkpt lat="47.54469" lon="-2.45761">
        <ele>38.8</ele>
        <time>2020-06-06T09:50:12Z</time>
      </trkpt>
      <trkpt lat="47.5447" lon="-2.45766">
        <ele>38.8</ele>
        <time>2020-06-06T09:50:13Z</time>
      </trkpt>
      <trkpt lat="47.5447" lon="-2.45767">
        <ele>38.8</ele>
        <time>2020-06-06T09:50:14Z</time>
      </trkpt>
      <trkpt lat="47.54472" lon="-2.45771">
        <ele>38.7</ele>
        <time>2020-06-06T09:50:15Z</time>
      </trkpt>
      <trkpt lat="47.54472" lon="-2.45773">
        <ele>38.7</ele>
        <time>2020-06-06T09:50:16Z</time>
      </trkpt>
      <trkpt lat="47.54472" lon="-2.45774">
        <ele>38.7</ele>
        <time>2020-06-06T09:50:17Z</time>
      </trkpt>
      <trkpt lat="47.54472" lon="-2.45774">
        <ele>38.7</ele>
        <time>2020-06-06T09:50:18Z</time>
      </trkpt>
      <trkpt lat="47.54472" lon="-2.45775">
        <ele>38.7</ele>
        <time>2020-06-06T09:50:19Z</time>
      </trkpt>
      <trkpt lat="47.54473" lon="-2.45775">
        <ele>38.7</ele>
        <time>2020-06-06T09:50:20Z</time>
      </trkpt>
      <trkpt lat="47.54473" lon="-2.45776">
        <ele>38.7</ele>
        <time>2020-06-06T09:50:21Z</time>
      </trkpt>
      <trkpt lat="47.54473" lon="-2.45776">
        <ele>38.7</ele>
        <time>2020-06-06T09:50:22Z</time>
      </trkpt>
      <trkpt lat="47.54473" lon="-2.45777">
        <ele>38.6</ele>
        <time>2020-06-06T09:50:23Z</time>
      </trkpt>
      <trkpt lat="47.54474" lon="-2.45777">
        <ele>38.6</ele>
        <time>2020-06-06T09:50:24Z</time>
      </trkpt>
      <trkpt lat="47.54474" lon="-2.45778">
        <ele>38.6</ele>
        <time>2020-06-06T09:50:25Z</time>
      </trkpt>
      <trkpt lat="47.54474" lon="-2.45778">
        <ele>38.6</ele>
        <time>2020-06-06T09:50:26Z</time>
      </trkpt>
      <trkpt lat="47.54474" lon="-2.45779">
        <ele>38.6</ele>
        <time>2020-06-06T09:50:27Z</time>
      </trkpt>
      <trkpt lat="47.54475" lon="-2.45779">
        <ele>38.6</ele>
        <time>2020-06-06T09:50:28Z</time>
      </trkpt>
      <trkpt lat="47.54475" lon="-2.4578">
        <ele>38.6</ele>
        <time>2020-06-06T09:50:29Z</time>
      </trkpt>
      <trkpt lat="47.54475" lon="-2.4578">
        <ele>38.6</ele>
        <time>2020-06-06T09:50:30Z</time>
      </trkpt>
      <trkpt lat="47.54475" lon="-2.45781">
        <ele>38.6</ele>
        <time>2020-06-06T09:50:31Z</time>
      </trkpt>
      <trkpt lat="47.54476" lon="-2.45781">
        <ele>38.6</ele>
        <time>2020-06-06T09:50:59Z</time>
      </trkpt>
      <trkpt lat="47.54476" lon="-2.45782">
        <ele>38.6</ele>
        <time>2020-06-06T09:51:00Z</time>
      </trkpt>
      <trkpt lat="47.54476" lon="-2.45782">
        <ele>38.6</ele>
        <time>2020-06-06T09:51:01Z</time>
      </trkpt>
      <trkpt lat="47.54476" lon="-2.45782">
        <ele>38.6</ele>
        <time>2020-06-06T09:51:02Z</time>
      </trkpt>
      <trkpt lat="47.54477" lon="-2.45783">
        <ele>38.6</ele>
        <time>2020-06-06T09:51:03Z</time>
      </trkpt>
      <trkpt lat="47.54477" lon="-2.45783">
        <ele>38.6</ele>
        <time>2020-06-06T09:51:04Z</time>
      </trkpt>
      <trkpt lat="47.54477" lon="-2.45784">
        <ele>38.6</ele>
        <time>2020-06-06T09:51:05Z</time>
      </trkpt>
      <trkpt lat="47.54477" lon="-2.45784">
        <ele>38.5</ele>
        <time>2020-06-06T09:51:06Z</time>
      </trkpt>
      <trkpt lat="47.54478" lon="-2.45785">
        <ele>38.5</ele>
        <time>2020-06-06T09:51:07Z</time>
      </trkpt>
      <trkpt lat="47.54478" lon="-2.45785">
        <ele>38.5</ele>
        <time>2020-06-06T09:51:08Z</time>
      </trkpt>
      <trkpt lat="47.54478" lon="-2.45786">
        <ele>38.5</ele>
        <time>2020-06-06T09:51:09Z</time>
      </trkpt>
      <trkpt lat="47.54478" lon="-2.45786">
        <ele>38.5</ele>
        <time>2020-06-06T09:51:10Z</time>
      </trkpt>
      <trkpt lat="47.54479" lon="-2.45787">
        <ele>38.5</ele>
        <time>2020-06-06T09:52:30Z</time>
      </trkpt>
      <trkpt lat="47.54479" lon="-2.45787">
        <ele>38.5</ele>
        <time>2020-06-06T09:52:31Z</time>
      </trkpt>
      <trkpt lat="47.54481" lon="-2.45791">
        <ele>38.5</ele>
        <time>2020-06-06T09:52:32Z</time>
      </trkpt>
      <trkpt lat="47.54482" lon="-2.45795">
        <ele>38.4</ele>
        <time>2020-06-06T09:52:33Z</time>
      </trkpt>
      <trkpt lat="47.54483" lon="-2.458">
        <ele>38.3</ele>
        <time>2020-06-06T09:52:34Z</time>
      </trkpt>
      <trkpt lat="47.54485" lon="-2.45804">
        <ele>38.3</ele>
        <time>2020-06-06T09:52:35Z</time>
      </trkpt>
      <trkpt lat="47.54487" lon="-2.45809">
        <ele>38.2</ele>
        <time>2020-06-06T09:52:36Z</time>
      </trkpt>
      <trkpt lat="47.5449" lon="-2.45815">
        <ele>38.1</ele>
        <time>2020-06-06T09:52:37Z</time>
      </trkpt>
      <trkpt lat="47.54491" lon="-2.4582">
        <ele>38</ele>
        <time>2020-06-06T09:52:38Z</time>
      </trkpt>
      <trkpt lat="47.54492" lon="-2.45825">
        <ele>37.9</ele>
        <time>2020-06-06T09:52:39Z</time>
      </trkpt>
      <trkpt lat="47.54494" lon="-2.4583">
        <ele>37.8</ele>
        <time>2020-06-06T09:52:40Z</time>
      </trkpt>
      <trkpt lat="47.54496" lon="-2.45835">
        <ele>37.8</ele>
        <time>2020-06-06T09:52:41Z</time>
      </trkpt>
      <trkpt lat="47.54497" lon="-2.4584">
        <ele>37.7</ele>
        <time>2020-06-06T09:52:42Z</time>
      </trkpt>
      <trkpt lat="47.54499" lon="-2.45846">
        <ele>37.5</ele>
        <time>2020-06-06T09:52:43Z</time>
      </trkpt>
      <trkpt lat="47.54501" lon="-2.45852">
        <ele>37.4</ele>
        <time>2020-06-06T09:52:44Z</time>
      </trkpt>
      <trkpt lat="47.54503" lon="-2.45859">
        <ele>37.2</ele>
        <time>2020-06-06T09:52:45Z</time>
      </trkpt>
      <trkpt lat="47.54506" lon="-2.45865">
        <ele>37.1</ele>
        <time>2020-06-06T09:52:46Z</time>
      </trkpt>
      <trkpt lat="47.54508" lon="-2.45871">
        <ele>37</ele>
        <time>2020-06-06T09:52:47Z</time>
      </trkpt>
      <trkpt lat="47.54511" lon="-2.45878">
        <ele>36.8</ele>
        <time>2020-06-06T09:52:48Z</time>
      </trkpt>
      <trkpt lat="47.54514" lon="-2.45886">
        <ele>36.7</ele>
        <time>2020-06-06T09:52:49Z</time>
      </trkpt>
      <trkpt lat="47.54517" lon="-2.45893">
        <ele>36.5</ele>
        <time>2020-06-06T09:52:50Z</time>
      </trkpt>
      <trkpt lat="47.54519" lon="-2.45901">
        <ele>36.3</ele>
        <time>2020-06-06T09:52:51Z</time>
      </trkpt>
      <trkpt lat="47.54522" lon="-2.45909">
        <ele>36.1</ele>
        <time>2020-06-06T09:52:52Z</time>
      </trkpt>
      <trkpt lat="47.54525" lon="-2.45917">
        <ele>35.9</ele>
        <time>2020-06-06T09:52:53Z</time>
      </trkpt>
      <trkpt lat="47.54527" lon="-2.45927">
        <ele>35.6</ele>
        <time>2020-06-06T09:52:54Z</time>
      </trkpt>
      <trkpt lat="47.54531" lon="-2.45937">
        <ele>35.3</ele>
        <time>2020-06-06T09:52:55Z</time>
      </trkpt>
      <trkpt lat="47.54535" lon="-2.45947">
        <ele>35</ele>
        <time>2020-06-06T09:52:56Z</time>
      </trkpt>
      <trkpt lat="47.54538" lon="-2.45959">
        <ele>34.7</ele>
        <time>2020-06-06T09:52:57Z</time>
      </trkpt>
      <trkpt lat="47.54542" lon="-2.4597">
        <ele>34.4</ele>
        <time>2020-06-06T09:52:58Z</time>
      </trkpt>
      <trkpt lat="47.54546" lon="-2.45983">
        <ele>34</ele>
        <time>2020-06-06T09:52:59Z</time>
      </trkpt>
      <trkpt lat="47.54549" lon="-2.45995">
        <ele>33.7</ele>
        <time>2020-06-06T09:53:00Z</time>
      </trkpt>
      <trkpt lat="47.54552" lon="-2.46009">
        <ele>33.3</ele>
        <time>2020-06-06T09:53:01Z</time>
      </trkpt>
      <trkpt lat="47.54556" lon="-2.4602">
        <ele>32.9</ele>
        <time>2020-06-06T09:53:02Z</time>
      </trkpt>
      <trkpt lat="47.5456" lon="-2.46033">
        <ele>32.5</ele>
        <time>2020-06-06T09:53:03Z</time>
      </trkpt>
      <trkpt lat="47.54564" lon="-2.46047">
        <ele>32.2</ele>
        <time>2020-06-06T09:53:04Z</time>
      </trkpt>
      <trkpt lat="47.54568" lon="-2.4606">
        <ele>31.8</ele>
        <time>2020-06-06T09:53:05Z</time>
      </trkpt>
      <trkpt lat="47.54572" lon="-2.46072">
        <ele>31.5</ele>
        <time>2020-06-06T09:53:06Z</time>
      </trkpt>
      <trkpt lat="47.54577" lon="-2.46085">
        <ele>31.2</ele>
        <time>2020-06-06T09:53:07Z</time>
      </trkpt>
      <trkpt lat="47.54581" lon="-2.46097">
        <ele>30.9</ele>
        <time>2020-06-06T09:53:08Z</time>
      </trkpt>
      <trkpt lat="47.54587" lon="-2.46109">
        <ele>30.7</ele>
        <time>2020-06-06T09:53:09Z</time>
      </trkpt>
      <trkpt lat="47.54592" lon="-2.46121">
        <ele>30.5</ele>
        <time>2020-06-06T09:53:10Z</time>
      </trkpt>
      <trkpt lat="47.54597" lon="-2.46132">
        <ele>30.3</ele>
        <time>2020-06-06T09:53:11Z</time>
      </trkpt>
      <trkpt lat="47.54602" lon="-2.46143">
        <ele>30.2</ele>
        <time>2020-06-06T09:53:12Z</time>
      </trkpt>
      <trkpt lat="47.54606" lon="-2.46153">
        <ele>30.1</ele>
        <time>2020-06-06T09:53:13Z</time>
      </trkpt>
      <trkpt lat="47.54611" lon="-2.46164">
        <ele>30.1</ele>
        <time>2020-06-06T09:53:14Z</time>
      </trkpt>
      <trkpt lat="47.54616" lon="-2.46174">
        <ele>30.1</ele>
        <time>2020-06-06T09:53:15Z</time>
      </trkpt>
      <trkpt lat="47.54621" lon="-2.46183">
        <ele>30.1</ele>
        <time>2020-06-06T09:53:16Z</time>
      </trkpt>
      <trkpt lat="47.54626" lon="-2.46191">
        <ele>30.1</ele>
        <time>2020-06-06T09:53:17Z</time>
      </trkpt>
      <trkpt lat="47.54632" lon="-2.46199">
        <ele>30.1</ele>
        <time>2020-06-06T09:53:18Z</time>
      </trkpt>
      <trkpt lat="47.54637" lon="-2.46206">
        <ele>30.1</ele>
        <time>2020-06-06T09:53:19Z</time>
      </trkpt>
      <trkpt lat="47.54642" lon="-2.46213">
        <ele>30.1</ele>
        <time>2020-06-06T09:53:20Z</time>
      </trkpt>
      <trkpt lat="47.54647" lon="-2.46219">
        <ele>30.1</ele>
        <time>2020-06-06T09:53:21Z</time>
      </trkpt>
      <trkpt lat="47.54652" lon="-2.46225">
        <ele>30</ele>
        <time>2020-06-06T09:53:22Z</time>
      </trkpt>
      <trkpt lat="47.54657" lon="-2.46231">
        <ele>30</ele>
        <time>2020-06-06T09:53:23Z</time>
      </trkpt>
      <trkpt lat="47.54661" lon="-2.46237">
        <ele>29.9</ele>
        <time>2020-06-06T09:53:24Z</time>
      </trkpt>
      <trkpt lat="47.54666" lon="-2.46243">
        <ele>29.8</ele>
        <time>2020-06-06T09:53:25Z</time>
      </trkpt>
      <trkpt lat="47.5467" lon="-2.46248">
        <ele>29.8</ele>
        <time>2020-06-06T09:53:26Z</time>
      </trkpt>
      <trkpt lat="47.54674" lon="-2.46252">
        <ele>29.7</ele>
        <time>2020-06-06T09:53:27Z</time>
      </trkpt>
      <trkpt lat="47.54679" lon="-2.46257">
        <ele>29.7</ele>
        <time>2020-06-06T09:53:28Z</time>
      </trkpt>
      <trkpt lat="47.54683" lon="-2.46262">
        <ele>29.6</ele>
        <time>2020-06-06T09:53:29Z</time>
      </trkpt>
      <trkpt lat="47.54688" lon="-2.46267">
        <ele>29.6</ele>
        <time>2020-06-06T09:53:30Z</time>
      </trkpt>
      <trkpt lat="47.54692" lon="-2.46272">
        <ele>29.5</ele>
        <time>2020-06-06T09:53:31Z</time>
      </trkpt>
      <trkpt lat="47.54696" lon="-2.46277">
        <ele>29.4</ele>
        <time>2020-06-06T09:53:32Z</time>
      </trkpt>
      <trkpt lat="47.547" lon="-2.46282">
        <ele>29.3</ele>
        <time>2020-06-06T09:53:33Z</time>
      </trkpt>
      <trkpt lat="47.54704" lon="-2.46287">
        <ele>29.2</ele>
        <time>2020-06-06T09:53:34Z</time>
      </trkpt>
      <trkpt lat="47.54707" lon="-2.46292">
        <ele>29.1</ele>
        <time>2020-06-06T09:53:35Z</time>
      </trkpt>
      <trkpt lat="47.54711" lon="-2.46297">
        <ele>29</ele>
        <time>2020-06-06T09:53:36Z</time>
      </trkpt>
      <trkpt lat="47.54715" lon="-2.46302">
        <ele>28.9</ele>
        <time>2020-06-06T09:53:37Z</time>
      </trkpt>
      <trkpt lat="47.54718" lon="-2.46307">
        <ele>28.8</ele>
        <time>2020-06-06T09:53:38Z</time>
      </trkpt>
      <trkpt lat="47.54721" lon="-2.46311">
        <ele>28.7</ele>
        <time>2020-06-06T09:53:39Z</time>
      </trkpt>
      <trkpt lat="47.54724" lon="-2.46316">
        <ele>28.7</ele>
        <time>2020-06-06T09:53:40Z</time>
      </trkpt>
      <trkpt lat="47.54727" lon="-2.46321">
        <ele>28.7</ele>
        <time>2020-06-06T09:53:41Z</time>
      </trkpt>
      <trkpt lat="47.5473" lon="-2.46325">
        <ele>28.4</ele>
        <time>2020-06-06T09:53:42Z</time>
      </trkpt>
      <trkpt lat="47.54734" lon="-2.46329">
        <ele>28.2</ele>
        <time>2020-06-06T09:53:43Z</time>
      </trkpt>
      <trkpt lat="47.54737" lon="-2.46333">
        <ele>28</ele>
        <time>2020-06-06T09:53:44Z</time>
      </trkpt>
      <trkpt lat="47.5474" lon="-2.46339">
        <ele>27.9</ele>
        <time>2020-06-06T09:53:45Z</time>
      </trkpt>
      <trkpt lat="47.54743" lon="-2.46345">
        <ele>27.7</ele>
        <time>2020-06-06T09:53:46Z</time>
      </trkpt>
      <trkpt lat="47.54746" lon="-2.46351">
        <ele>27.4</ele>
        <time>2020-06-06T09:53:47Z</time>
      </trkpt>
      <trkpt lat="47.54748" lon="-2.46357">
        <ele>27.2</ele>
        <time>2020-06-06T09:53:48Z</time>
      </trkpt>
      <trkpt lat="47.5475" lon="-2.46364">
        <ele>27</ele>
        <time>2020-06-06T09:53:49Z</time>
      </trkpt>
      <trkpt lat="47.54752" lon="-2.4637">
        <ele>26.8</ele>
        <time>2020-06-06T09:53:50Z</time>
      </trkpt>
      <trkpt lat="47.54755" lon="-2.46375">
        <ele>26.6</ele>
        <time>2020-06-06T09:53:51Z</time>
      </trkpt>
      <trkpt lat="47.54757" lon="-2.46379">
        <ele>26.4</ele>
        <time>2020-06-06T09:53:52Z</time>
      </trkpt>
      <trkpt lat="47.54758" lon="-2.4638">
        <ele>26.4</ele>
        <time>2020-06-06T09:53:53Z</time>
      </trkpt>
      <trkpt lat="47.54759" lon="-2.4638">
        <ele>26.4</ele>
        <time>2020-06-06T09:53:54Z</time>
      </trkpt>
      <trkpt lat="47.54759" lon="-2.4638">
        <ele>26.3</ele>
        <time>2020-06-06T09:53:55Z</time>
      </trkpt>
      <trkpt lat="47.54759" lon="-2.4638">
        <ele>26.3</ele>
        <time>2020-06-06T09:53:56Z</time>
      </trkpt>
      <trkpt lat="47.54759" lon="-2.4638">
        <ele>26.3</ele>
        <time>2020-06-06T09:53:57Z</time>
      </trkpt>
      <trkpt lat="47.54759" lon="-2.46381">
        <ele>26.3</ele>
        <time>2020-06-06T09:53:58Z</time>
      </trkpt>
      <trkpt lat="47.54759" lon="-2.4638">
        <ele>26.3</ele>
        <time>2020-06-06T09:53:59Z</time>
      </trkpt>
      <trkpt lat="47.5476" lon="-2.4638">
        <ele>26.3</ele>
        <time>2020-06-06T09:54:00Z</time>
      </trkpt>
      <trkpt lat="47.5476" lon="-2.4638">
        <ele>26.3</ele>
        <time>2020-06-06T09:54:01Z</time>
      </trkpt>
      <trkpt lat="47.5476" lon="-2.4638">
        <ele>26.3</ele>
        <time>2020-06-06T09:54:02Z</time>
      </trkpt>
      <trkpt lat="47.54761" lon="-2.46379">
        <ele>26.3</ele>
        <time>2020-06-06T09:54:03Z</time>
      </trkpt>
      <trkpt lat="47.54762" lon="-2.46377">
        <ele>26.3</ele>
        <time>2020-06-06T09:54:04Z</time>
      </trkpt>
      <trkpt lat="47.54762" lon="-2.46377">
        <ele>26.3</ele>
        <time>2020-06-06T09:54:05Z</time>
      </trkpt>
      <trkpt lat="47.54762" lon="-2.46378">
        <ele>26.3</ele>
        <time>2020-06-06T09:54:06Z</time>
      </trkpt>
      <trkpt lat="47.54762" lon="-2.46379">
        <ele>26.3</ele>
        <time>2020-06-06T09:54:07Z</time>
      </trkpt>
      <trkpt lat="47.54762" lon="-2.4638">
        <ele>26.2</ele>
        <time>2020-06-06T09:54:08Z</time>
      </trkpt>
      <trkpt lat="47.54762" lon="-2.46381">
        <ele>26.2</ele>
        <time>2020-06-06T09:55:36Z</time>
      </trkpt>
      <trkpt lat="47.54762" lon="-2.46382">
        <ele>26.2</ele>
        <time>2020-06-06T09:55:37Z</time>
      </trkpt>
      <trkpt lat="47.54761" lon="-2.46387">
        <ele>26</ele>
        <time>2020-06-06T09:55:38Z</time>
      </trkpt>
      <trkpt lat="47.54762" lon="-2.46388">
        <ele>25.9</ele>
        <time>2020-06-06T09:55:39Z</time>
      </trkpt>
      <trkpt lat="47.54762" lon="-2.46394">
        <ele>25.8</ele>
        <time>2020-06-06T09:55:40Z</time>
      </trkpt>
      <trkpt lat="47.54763" lon="-2.46396">
        <ele>25.7</ele>
        <time>2020-06-06T09:55:41Z</time>
      </trkpt>
      <trkpt lat="47.54764" lon="-2.464">
        <ele>25.5</ele>
        <time>2020-06-06T09:55:42Z</time>
      </trkpt>
      <trkpt lat="47.54766" lon="-2.46406">
        <ele>25.3</ele>
        <time>2020-06-06T09:55:43Z</time>
      </trkpt>
      <trkpt lat="47.54767" lon="-2.46412">
        <ele>25.1</ele>
        <time>2020-06-06T09:55:44Z</time>
      </trkpt>
      <trkpt lat="47.5477" lon="-2.46418">
        <ele>24.9</ele>
        <time>2020-06-06T09:55:45Z</time>
      </trkpt>
      <trkpt lat="47.54772" lon="-2.46426">
        <ele>24.6</ele>
        <time>2020-06-06T09:55:46Z</time>
      </trkpt>
      <trkpt lat="47.54774" lon="-2.46434">
        <ele>24.2</ele>
        <time>2020-06-06T09:55:47Z</time>
      </trkpt>
      <trkpt lat="47.54776" lon="-2.46442">
        <ele>23.9</ele>
        <time>2020-06-06T09:55:48Z</time>
      </trkpt>
      <trkpt lat="47.54779" lon="-2.46451">
        <ele>23.5</ele>
        <time>2020-06-06T09:55:49Z</time>
      </trkpt>
      <trkpt lat="47.54784" lon="-2.4646">
        <ele>23.1</ele>
        <time>2020-06-06T09:55:50Z</time>
      </trkpt>
      <trkpt lat="47.54788" lon="-2.46471">
        <ele>22.6</ele>
        <time>2020-06-06T09:55:51Z</time>
      </trkpt>
      <trkpt lat="47.54792" lon="-2.46481">
        <ele>22.1</ele>
        <time>2020-06-06T09:55:52Z</time>
      </trkpt>
      <trkpt lat="47.54797" lon="-2.46492">
        <ele>21.6</ele>
        <time>2020-06-06T09:55:53Z</time>
      </trkpt>
      <trkpt lat="47.54802" lon="-2.46504">
        <ele>21</ele>
        <time>2020-06-06T09:55:54Z</time>
      </trkpt>
      <trkpt lat="47.54807" lon="-2.46515">
        <ele>20.3</ele>
        <time>2020-06-06T09:55:55Z</time>
      </trkpt>
      <trkpt lat="47.54812" lon="-2.46527">
        <ele>19.6</ele>
        <time>2020-06-06T09:55:56Z</time>
      </trkpt>
      <trkpt lat="47.54816" lon="-2.4654">
        <ele>18.9</ele>
        <time>2020-06-06T09:55:57Z</time>
      </trkpt>
      <trkpt lat="47.5482" lon="-2.46553">
        <ele>18.2</ele>
        <time>2020-06-06T09:55:58Z</time>
      </trkpt>
      <trkpt lat="47.54822" lon="-2.46567">
        <ele>17.5</ele>
        <time>2020-06-06T09:55:59Z</time>
      </trkpt>
      <trkpt lat="47.54824" lon="-2.46582">
        <ele>16.8</ele>
        <time>2020-06-06T09:56:00Z</time>
      </trkpt>
      <trkpt lat="47.54824" lon="-2.46596">
        <ele>16.4</ele>
        <time>2020-06-06T09:56:01Z</time>
      </trkpt>
      <trkpt lat="47.54825" lon="-2.46609">
        <ele>16.1</ele>
        <time>2020-06-06T09:56:02Z</time>
      </trkpt>
      <trkpt lat="47.54827" lon="-2.4662">
        <ele>16</ele>
        <time>2020-06-06T09:56:03Z</time>
      </trkpt>
      <trkpt lat="47.54829" lon="-2.46627">
        <ele>15.8</ele>
        <time>2020-06-06T09:56:04Z</time>
      </trkpt>
      <trkpt lat="47.54832" lon="-2.46632">
        <ele>15.7</ele>
        <time>2020-06-06T09:56:05Z</time>
      </trkpt>
      <trkpt lat="47.54835" lon="-2.46635">
        <ele>15.6</ele>
        <time>2020-06-06T09:56:06Z</time>
      </trkpt>
      <trkpt lat="47.54839" lon="-2.46635">
        <ele>15.4</ele>
        <time>2020-06-06T09:56:07Z</time>
      </trkpt>
      <trkpt lat="47.54842" lon="-2.46635">
        <ele>15.2</ele>
        <time>2020-06-06T09:56:08Z</time>
      </trkpt>
      <trkpt lat="47.54843" lon="-2.46634">
        <ele>15.2</ele>
        <time>2020-06-06T09:56:09Z</time>
      </trkpt>
      <trkpt lat="47.54845" lon="-2.46634">
        <ele>15.1</ele>
        <time>2020-06-06T09:56:10Z</time>
      </trkpt>
      <trkpt lat="47.54846" lon="-2.46633">
        <ele>15</ele>
        <time>2020-06-06T09:56:11Z</time>
      </trkpt>
      <trkpt lat="47.54848" lon="-2.46632">
        <ele>14.9</ele>
        <time>2020-06-06T09:56:12Z</time>
      </trkpt>
      <trkpt lat="47.54849" lon="-2.4663">
        <ele>14.8</ele>
        <time>2020-06-06T09:56:13Z</time>
      </trkpt>
      <trkpt lat="47.5485" lon="-2.46628">
        <ele>14.7</ele>
        <time>2020-06-06T09:56:14Z</time>
      </trkpt>
      <trkpt lat="47.54852" lon="-2.46626">
        <ele>14.6</ele>
        <time>2020-06-06T09:56:15Z</time>
      </trkpt>
      <trkpt lat="47.54854" lon="-2.46623">
        <ele>14.6</ele>
        <time>2020-06-06T09:56:16Z</time>
      </trkpt>
      <trkpt lat="47.54855" lon="-2.46622">
        <ele>14.6</ele>
        <time>2020-06-06T09:56:17Z</time>
      </trkpt>
      <trkpt lat="47.54857" lon="-2.46618">
        <ele>14.6</ele>
        <time>2020-06-06T09:56:18Z</time>
      </trkpt>
      <trkpt lat="47.5486" lon="-2.46617">
        <ele>14.6</ele>
        <time>2020-06-06T09:56:19Z</time>
      </trkpt>
      <trkpt lat="47.54864" lon="-2.46617">
        <ele>14.4</ele>
        <time>2020-06-06T09:56:20Z</time>
      </trkpt>
      <trkpt lat="47.54867" lon="-2.46617">
        <ele>14.4</ele>
        <time>2020-06-06T09:56:21Z</time>
      </trkpt>
      <trkpt lat="47.5487" lon="-2.46615">
        <ele>14.4</ele>
        <time>2020-06-06T09:56:22Z</time>
      </trkpt>
      <trkpt lat="47.54874" lon="-2.46614">
        <ele>13.3</ele>
        <time>2020-06-06T09:56:23Z</time>
      </trkpt>
      <trkpt lat="47.54878" lon="-2.46612">
        <ele>12.9</ele>
        <time>2020-06-06T09:56:24Z</time>
      </trkpt>
      <trkpt lat="47.54881" lon="-2.46609">
        <ele>12.5</ele>
        <time>2020-06-06T09:56:25Z</time>
      </trkpt>
      <trkpt lat="47.54886" lon="-2.46605">
        <ele>11.9</ele>
        <time>2020-06-06T09:56:26Z</time>
      </trkpt>
      <trkpt lat="47.5489" lon="-2.466">
        <ele>11.3</ele>
        <time>2020-06-06T09:56:27Z</time>
      </trkpt>
      <trkpt lat="47.54896" lon="-2.46595">
        <ele>10.9</ele>
        <time>2020-06-06T09:56:28Z</time>
      </trkpt>
      <trkpt lat="47.54902" lon="-2.46592">
        <ele>10.8</ele>
        <time>2020-06-06T09:56:29Z</time>
      </trkpt>
      <trkpt lat="47.54908" lon="-2.46589">
        <ele>10.7</ele>
        <time>2020-06-06T09:56:30Z</time>
      </trkpt>
      <trkpt lat="47.54916" lon="-2.46586">
        <ele>10.7</ele>
        <time>2020-06-06T09:56:31Z</time>
      </trkpt>
      <trkpt lat="47.54923" lon="-2.46585">
        <ele>10.6</ele>
        <time>2020-06-06T09:56:32Z</time>
      </trkpt>
      <trkpt lat="47.54931" lon="-2.46586">
        <ele>10.6</ele>
        <time>2020-06-06T09:56:33Z</time>
      </trkpt>
      <trkpt lat="47.54938" lon="-2.46586">
        <ele>10.6</ele>
        <time>2020-06-06T09:56:34Z</time>
      </trkpt>
      <trkpt lat="47.54948" lon="-2.46587">
        <ele>10.7</ele>
        <time>2020-06-06T09:56:35Z</time>
      </trkpt>
      <trkpt lat="47.54952" lon="-2.46588">
        <ele>10.8</ele>
        <time>2020-06-06T09:56:36Z</time>
      </trkpt>
      <trkpt lat="47.54959" lon="-2.46589">
        <ele>10.9</ele>
        <time>2020-06-06T09:56:37Z</time>
      </trkpt>
      <trkpt lat="47.54966" lon="-2.46589">
        <ele>11</ele>
        <time>2020-06-06T09:56:38Z</time>
      </trkpt>
      <trkpt lat="47.54973" lon="-2.46588">
        <ele>11.2</ele>
        <time>2020-06-06T09:56:39Z</time>
      </trkpt>
      <trkpt lat="47.5498" lon="-2.46587">
        <ele>11.4</ele>
        <time>2020-06-06T09:56:40Z</time>
      </trkpt>
      <trkpt lat="47.54987" lon="-2.46586">
        <ele>11.6</ele>
        <time>2020-06-06T09:56:41Z</time>
      </trkpt>
      <trkpt lat="47.54993" lon="-2.46586">
        <ele>12.1</ele>
        <time>2020-06-06T09:56:42Z</time>
      </trkpt>
      <trkpt lat="47.55" lon="-2.46584">
        <ele>12.6</ele>
        <time>2020-06-06T09:56:43Z</time>
      </trkpt>
      <trkpt lat="47.55005" lon="-2.46581">
        <ele>13.2</ele>
        <time>2020-06-06T09:56:44Z</time>
      </trkpt>
      <trkpt lat="47.5501" lon="-2.46577">
        <ele>13.7</ele>
        <time>2020-06-06T09:56:45Z</time>
      </trkpt>
      <trkpt lat="47.55014" lon="-2.46572">
        <ele>14.2</ele>
        <time>2020-06-06T09:56:46Z</time>
      </trkpt>
      <trkpt lat="47.55019" lon="-2.46568">
        <ele>14.3</ele>
        <time>2020-06-06T09:56:47Z</time>
      </trkpt>
      <trkpt lat="47.55023" lon="-2.46564">
        <ele>14.4</ele>
        <time>2020-06-06T09:56:48Z</time>
      </trkpt>
      <trkpt lat="47.55027" lon="-2.46561">
        <ele>14.4</ele>
        <time>2020-06-06T09:56:49Z</time>
      </trkpt>
      <trkpt lat="47.55032" lon="-2.4656">
        <ele>14.3</ele>
        <time>2020-06-06T09:56:50Z</time>
      </trkpt>
      <trkpt lat="47.55037" lon="-2.4656">
        <ele>14.2</ele>
        <time>2020-06-06T09:56:51Z</time>
      </trkpt>
      <trkpt lat="47.55041" lon="-2.46563">
        <ele>14.1</ele>
        <time>2020-06-06T09:56:52Z</time>
      </trkpt>
      <trkpt lat="47.55045" lon="-2.46568">
        <ele>14.2</ele>
        <time>2020-06-06T09:56:53Z</time>
      </trkpt>
      <trkpt lat="47.55048" lon="-2.46574">
        <ele>14.3</ele>
        <time>2020-06-06T09:56:54Z</time>
      </trkpt>
      <trkpt lat="47.5505" lon="-2.46581">
        <ele>14.3</ele>
        <time>2020-06-06T09:56:55Z</time>
      </trkpt>
      <trkpt lat="47.5505" lon="-2.46588">
        <ele>14.3</ele>
        <time>2020-06-06T09:56:56Z</time>
      </trkpt>
      <trkpt lat="47.55051" lon="-2.46596">
        <ele>14.6</ele>
        <time>2020-06-06T09:56:57Z</time>
      </trkpt>
      <trkpt lat="47.5505" lon="-2.46604">
        <ele>14.8</ele>
        <time>2020-06-06T09:56:58Z</time>
      </trkpt>
      <trkpt lat="47.55049" lon="-2.46611">
        <ele>14.2</ele>
        <time>2020-06-06T09:56:59Z</time>
      </trkpt>
      <trkpt lat="47.55048" lon="-2.46619">
        <ele>13.6</ele>
        <time>2020-06-06T09:57:00Z</time>
      </trkpt>
      <trkpt lat="47.55047" lon="-2.46627">
        <ele>13</ele>
        <time>2020-06-06T09:57:01Z</time>
      </trkpt>
      <trkpt lat="47.55049" lon="-2.46635">
        <ele>12.3</ele>
        <time>2020-06-06T09:57:02Z</time>
      </trkpt>
      <trkpt lat="47.55049" lon="-2.46643">
        <ele>11.7</ele>
        <time>2020-06-06T09:57:03Z</time>
      </trkpt>
      <trkpt lat="47.55047" lon="-2.4665">
        <ele>11.6</ele>
        <time>2020-06-06T09:57:04Z</time>
      </trkpt>
      <trkpt lat="47.55045" lon="-2.46657">
        <ele>11.5</ele>
        <time>2020-06-06T09:57:05Z</time>
      </trkpt>
      <trkpt lat="47.55043" lon="-2.46663">
        <ele>11.4</ele>
        <time>2020-06-06T09:57:06Z</time>
      </trkpt>
      <trkpt lat="47.5504" lon="-2.46668">
        <ele>11.3</ele>
        <time>2020-06-06T09:57:07Z</time>
      </trkpt>
      <trkpt lat="47.55037" lon="-2.46674">
        <ele>11.2</ele>
        <time>2020-06-06T09:57:08Z</time>
      </trkpt>
      <trkpt lat="47.55034" lon="-2.46679">
        <ele>11.1</ele>
        <time>2020-06-06T09:57:09Z</time>
      </trkpt>
      <trkpt lat="47.55031" lon="-2.46685">
        <ele>11</ele>
        <time>2020-06-06T09:57:10Z</time>
      </trkpt>
      <trkpt lat="47.55027" lon="-2.4669">
        <ele>10.9</ele>
        <time>2020-06-06T09:57:11Z</time>
      </trkpt>
      <trkpt lat="47.55023" lon="-2.46696">
        <ele>10.8</ele>
        <time>2020-06-06T09:57:12Z</time>
      </trkpt>
      <trkpt lat="47.55019" lon="-2.46702">
        <ele>10.5</ele>
        <time>2020-06-06T09:57:13Z</time>
      </trkpt>
      <trkpt lat="47.55015" lon="-2.46708">
        <ele>10.4</ele>
        <time>2020-06-06T09:57:14Z</time>
      </trkpt>
      <trkpt lat="47.55011" lon="-2.46714">
        <ele>10.2</ele>
        <time>2020-06-06T09:57:15Z</time>
      </trkpt>
      <trkpt lat="47.55007" lon="-2.46719">
        <ele>10</ele>
        <time>2020-06-06T09:57:16Z</time>
      </trkpt>
      <trkpt lat="47.55003" lon="-2.46725">
        <ele>9.9</ele>
        <time>2020-06-06T09:57:17Z</time>
      </trkpt>
      <trkpt lat="47.55" lon="-2.4673">
        <ele>9.8</ele>
        <time>2020-06-06T09:57:18Z</time>
      </trkpt>
      <trkpt lat="47.54997" lon="-2.46737">
        <ele>9.6</ele>
        <time>2020-06-06T09:57:19Z</time>
      </trkpt>
      <trkpt lat="47.54994" lon="-2.46743">
        <ele>9.5</ele>
        <time>2020-06-06T09:57:20Z</time>
      </trkpt>
      <trkpt lat="47.54991" lon="-2.4675">
        <ele>9.3</ele>
        <time>2020-06-06T09:57:21Z</time>
      </trkpt>
      <trkpt lat="47.54988" lon="-2.46757">
        <ele>9.2</ele>
        <time>2020-06-06T09:57:22Z</time>
      </trkpt>
      <trkpt lat="47.54986" lon="-2.46764">
        <ele>9</ele>
        <time>2020-06-06T09:57:23Z</time>
      </trkpt>
      <trkpt lat="47.54984" lon="-2.46772">
        <ele>8.9</ele>
        <time>2020-06-06T09:57:24Z</time>
      </trkpt>
      <trkpt lat="47.54982" lon="-2.46779">
        <ele>8.8</ele>
        <time>2020-06-06T09:57:25Z</time>
      </trkpt>
      <trkpt lat="47.5498" lon="-2.46788">
        <ele>8.7</ele>
        <time>2020-06-06T09:57:26Z</time>
      </trkpt>
      <trkpt lat="47.54979" lon="-2.46797">
        <ele>8.5</ele>
        <time>2020-06-06T09:57:27Z</time>
      </trkpt>
      <trkpt lat="47.54978" lon="-2.46806">
        <ele>8.4</ele>
        <time>2020-06-06T09:57:28Z</time>
      </trkpt>
      <trkpt lat="47.54976" lon="-2.46815">
        <ele>8.3</ele>
        <time>2020-06-06T09:57:29Z</time>
      </trkpt>
      <trkpt lat="47.54975" lon="-2.46825">
        <ele>8.1</ele>
        <time>2020-06-06T09:57:30Z</time>
      </trkpt>
      <trkpt lat="47.54975" lon="-2.46835">
        <ele>7.9</ele>
        <time>2020-06-06T09:57:31Z</time>
      </trkpt>
      <trkpt lat="47.54974" lon="-2.46845">
        <ele>7.8</ele>
        <time>2020-06-06T09:57:32Z</time>
      </trkpt>
      <trkpt lat="47.54973" lon="-2.46855">
        <ele>7.6</ele>
        <time>2020-06-06T09:57:33Z</time>
      </trkpt>
      <trkpt lat="47.54972" lon="-2.46865">
        <ele>7.4</ele>
        <time>2020-06-06T09:57:34Z</time>
      </trkpt>
      <trkpt lat="47.54971" lon="-2.46876">
        <ele>7.3</ele>
        <time>2020-06-06T09:57:35Z</time>
      </trkpt>
      <trkpt lat="47.5497" lon="-2.46886">
        <ele>7.2</ele>
        <time>2020-06-06T09:57:36Z</time>
      </trkpt>
      <trkpt lat="47.5497" lon="-2.46897">
        <ele>7</ele>
        <time>2020-06-06T09:57:37Z</time>
      </trkpt>
      <trkpt lat="47.54971" lon="-2.46907">
        <ele>6.8</ele>
        <time>2020-06-06T09:57:38Z</time>
      </trkpt>
      <trkpt lat="47.54972" lon="-2.46918">
        <ele>6.8</ele>
        <time>2020-06-06T09:57:39Z</time>
      </trkpt>
      <trkpt lat="47.54974" lon="-2.46928">
        <ele>6.9</ele>
        <time>2020-06-06T09:57:40Z</time>
      </trkpt>
      <trkpt lat="47.54976" lon="-2.46938">
        <ele>6.9</ele>
        <time>2020-06-06T09:57:41Z</time>
      </trkpt>
      <trkpt lat="47.54978" lon="-2.46947">
        <ele>7</ele>
        <time>2020-06-06T09:57:42Z</time>
      </trkpt>
      <trkpt lat="47.54981" lon="-2.46955">
        <ele>7.2</ele>
        <time>2020-06-06T09:57:43Z</time>
      </trkpt>
      <trkpt lat="47.54984" lon="-2.46964">
        <ele>7.4</ele>
        <time>2020-06-06T09:57:44Z</time>
      </trkpt>
      <trkpt lat="47.54987" lon="-2.46972">
        <ele>7.6</ele>
        <time>2020-06-06T09:57:45Z</time>
      </trkpt>
      <trkpt lat="47.54988" lon="-2.4698">
        <ele>7.9</ele>
        <time>2020-06-06T09:57:46Z</time>
      </trkpt>
      <trkpt lat="47.5499" lon="-2.46987">
        <ele>8.2</ele>
        <time>2020-06-06T09:57:47Z</time>
      </trkpt>
      <trkpt lat="47.54992" lon="-2.46994">
        <ele>8.5</ele>
        <time>2020-06-06T09:57:48Z</time>
      </trkpt>
      <trkpt lat="47.54995" lon="-2.47">
        <ele>8.8</ele>
        <time>2020-06-06T09:57:49Z</time>
      </trkpt>
      <trkpt lat="47.54996" lon="-2.47007">
        <ele>9.1</ele>
        <time>2020-06-06T09:57:50Z</time>
      </trkpt>
      <trkpt lat="47.54998" lon="-2.47012">
        <ele>9.4</ele>
        <time>2020-06-06T09:57:51Z</time>
      </trkpt>
      <trkpt lat="47.55" lon="-2.47018">
        <ele>9.7</ele>
        <time>2020-06-06T09:57:52Z</time>
      </trkpt>
      <trkpt lat="47.55002" lon="-2.47024">
        <ele>10</ele>
        <time>2020-06-06T09:57:53Z</time>
      </trkpt>
      <trkpt lat="47.55004" lon="-2.47031">
        <ele>10.3</ele>
        <time>2020-06-06T09:57:54Z</time>
      </trkpt>
      <trkpt lat="47.55005" lon="-2.47037">
        <ele>10.7</ele>
        <time>2020-06-06T09:57:55Z</time>
      </trkpt>
      <trkpt lat="47.55007" lon="-2.47044">
        <ele>11</ele>
        <time>2020-06-06T09:57:56Z</time>
      </trkpt>
      <trkpt lat="47.55008" lon="-2.4705">
        <ele>11.4</ele>
        <time>2020-06-06T09:57:57Z</time>
      </trkpt>
      <trkpt lat="47.5501" lon="-2.47057">
        <ele>11.7</ele>
        <time>2020-06-06T09:57:58Z</time>
      </trkpt>
      <trkpt lat="47.55011" lon="-2.47064">
        <ele>12.1</ele>
        <time>2020-06-06T09:57:59Z</time>
      </trkpt>
      <trkpt lat="47.55012" lon="-2.47071">
        <ele>12.5</ele>
        <time>2020-06-06T09:58:00Z</time>
      </trkpt>
      <trkpt lat="47.55013" lon="-2.47079">
        <ele>12.9</ele>
        <time>2020-06-06T09:58:01Z</time>
      </trkpt>
      <trkpt lat="47.55013" lon="-2.47087">
        <ele>13.3</ele>
        <time>2020-06-06T09:58:02Z</time>
      </trkpt>
      <trkpt lat="47.55013" lon="-2.47094">
        <ele>13.7</ele>
        <time>2020-06-06T09:58:03Z</time>
      </trkpt>
      <trkpt lat="47.55014" lon="-2.47101">
        <ele>14.1</ele>
        <time>2020-06-06T09:58:04Z</time>
      </trkpt>
      <trkpt lat="47.55014" lon="-2.47109">
        <ele>14.5</ele>
        <time>2020-06-06T09:58:05Z</time>
      </trkpt>
      <trkpt lat="47.55014" lon="-2.47117">
        <ele>14.9</ele>
        <time>2020-06-06T09:58:06Z</time>
      </trkpt>
      <trkpt lat="47.55014" lon="-2.47124">
        <ele>15.2</ele>
        <time>2020-06-06T09:58:07Z</time>
      </trkpt>
      <trkpt lat="47.55014" lon="-2.4713">
        <ele>15.5</ele>
        <time>2020-06-06T09:58:08Z</time>
      </trkpt>
      <trkpt lat="47.55014" lon="-2.47136">
        <ele>15.8</ele>
        <time>2020-06-06T09:58:09Z</time>
      </trkpt>
      <trkpt lat="47.55014" lon="-2.47142">
        <ele>16.1</ele>
        <time>2020-06-06T09:58:10Z</time>
      </trkpt>
      <trkpt lat="47.55015" lon="-2.47147">
        <ele>16.3</ele>
        <time>2020-06-06T09:58:11Z</time>
      </trkpt>
      <trkpt lat="47.55015" lon="-2.47152">
        <ele>16.5</ele>
        <time>2020-06-06T09:58:12Z</time>
      </trkpt>
      <trkpt lat="47.55015" lon="-2.47158">
        <ele>16.8</ele>
        <time>2020-06-06T09:58:13Z</time>
      </trkpt>
      <trkpt lat="47.55014" lon="-2.47164">
        <ele>17</ele>
        <time>2020-06-06T09:58:14Z</time>
      </trkpt>
      <trkpt lat="47.55015" lon="-2.47169">
        <ele>17.1</ele>
        <time>2020-06-06T09:58:15Z</time>
      </trkpt>
      <trkpt lat="47.55015" lon="-2.47175">
        <ele>17.3</ele>
        <time>2020-06-06T09:58:16Z</time>
      </trkpt>
      <trkpt lat="47.55015" lon="-2.47181">
        <ele>17.5</ele>
        <time>2020-06-06T09:58:17Z</time>
      </trkpt>
      <trkpt lat="47.55014" lon="-2.47187">
        <ele>17.7</ele>
        <time>2020-06-06T09:58:18Z</time>
      </trkpt>
      <trkpt lat="47.55015" lon="-2.47194">
        <ele>17.9</ele>
        <time>2020-06-06T09:58:19Z</time>
      </trkpt>
      <trkpt lat="47.55015" lon="-2.47201">
        <ele>18.1</ele>
        <time>2020-06-06T09:58:20Z</time>
      </trkpt>
      <trkpt lat="47.55015" lon="-2.47207">
        <ele>18.3</ele>
        <time>2020-06-06T09:58:21Z</time>
      </trkpt>
      <trkpt lat="47.55015" lon="-2.47213">
        <ele>18.5</ele>
        <time>2020-06-06T09:58:22Z</time>
      </trkpt>
      <trkpt lat="47.55015" lon="-2.47219">
        <ele>18.7</ele>
        <time>2020-06-06T09:58:23Z</time>
      </trkpt>
      <trkpt lat="47.55015" lon="-2.47225">
        <ele>18.8</ele>
        <time>2020-06-06T09:58:24Z</time>
      </trkpt>
      <trkpt lat="47.55015" lon="-2.47231">
        <ele>19</ele>
        <time>2020-06-06T09:58:25Z</time>
      </trkpt>
      <trkpt lat="47.55015" lon="-2.47235">
        <ele>19.1</ele>
        <time>2020-06-06T09:58:26Z</time>
      </trkpt>
      <trkpt lat="47.55015" lon="-2.47242">
        <ele>19.3</ele>
        <time>2020-06-06T09:58:27Z</time>
      </trkpt>
      <trkpt lat="47.55015" lon="-2.47247">
        <ele>19.4</ele>
        <time>2020-06-06T09:58:28Z</time>
      </trkpt>
      <trkpt lat="47.55015" lon="-2.47253">
        <ele>19.6</ele>
        <time>2020-06-06T09:58:29Z</time>
      </trkpt>
      <trkpt lat="47.55016" lon="-2.47259">
        <ele>19.7</ele>
        <time>2020-06-06T09:58:30Z</time>
      </trkpt>
      <trkpt lat="47.55016" lon="-2.47265">
        <ele>19.9</ele>
        <time>2020-06-06T09:58:31Z</time>
      </trkpt>
      <trkpt lat="47.55016" lon="-2.47271">
        <ele>20</ele>
        <time>2020-06-06T09:58:32Z</time>
      </trkpt>
      <trkpt lat="47.55016" lon="-2.47276">
        <ele>20.1</ele>
        <time>2020-06-06T09:58:33Z</time>
      </trkpt>
      <trkpt lat="47.55016" lon="-2.47283">
        <ele>20.2</ele>
        <time>2020-06-06T09:58:34Z</time>
      </trkpt>
      <trkpt lat="47.55016" lon="-2.47287">
        <ele>20.3</ele>
        <time>2020-06-06T09:58:35Z</time>
      </trkpt>
      <trkpt lat="47.55017" lon="-2.47292">
        <ele>20.4</ele>
        <time>2020-06-06T09:58:36Z</time>
      </trkpt>
      <trkpt lat="47.55016" lon="-2.47297">
        <ele>20.5</ele>
        <time>2020-06-06T09:58:37Z</time>
      </trkpt>
      <trkpt lat="47.55016" lon="-2.47303">
        <ele>20.6</ele>
        <time>2020-06-06T09:58:38Z</time>
      </trkpt>
      <trkpt lat="47.55016" lon="-2.47309">
        <ele>20.6</ele>
        <time>2020-06-06T09:58:39Z</time>
      </trkpt>
      <trkpt lat="47.55016" lon="-2.47314">
        <ele>20.7</ele>
        <time>2020-06-06T09:58:40Z</time>
      </trkpt>
      <trkpt lat="47.55016" lon="-2.4732">
        <ele>20.7</ele>
        <time>2020-06-06T09:58:41Z</time>
      </trkpt>
      <trkpt lat="47.55015" lon="-2.47329">
        <ele>20.8</ele>
        <time>2020-06-06T09:58:42Z</time>
      </trkpt>
      <trkpt lat="47.55015" lon="-2.47337">
        <ele>20.8</ele>
        <time>2020-06-06T09:58:43Z</time>
      </trkpt>
      <trkpt lat="47.55014" lon="-2.47346">
        <ele>20.8</ele>
        <time>2020-06-06T09:58:44Z</time>
      </trkpt>
      <trkpt lat="47.55014" lon="-2.47355">
        <ele>20.8</ele>
        <time>2020-06-06T09:58:45Z</time>
      </trkpt>
      <trkpt lat="47.55013" lon="-2.47364">
        <ele>20.7</ele>
        <time>2020-06-06T09:58:46Z</time>
      </trkpt>
      <trkpt lat="47.55012" lon="-2.47372">
        <ele>20.6</ele>
        <time>2020-06-06T09:58:47Z</time>
      </trkpt>
      <trkpt lat="47.55011" lon="-2.4738">
        <ele>20.5</ele>
        <time>2020-06-06T09:58:48Z</time>
      </trkpt>
      <trkpt lat="47.5501" lon="-2.47389">
        <ele>20.4</ele>
        <time>2020-06-06T09:58:49Z</time>
      </trkpt>
      <trkpt lat="47.55008" lon="-2.47398">
        <ele>20.3</ele>
        <time>2020-06-06T09:58:50Z</time>
      </trkpt>
      <trkpt lat="47.55007" lon="-2.47408">
        <ele>20.2</ele>
        <time>2020-06-06T09:58:51Z</time>
      </trkpt>
      <trkpt lat="47.55005" lon="-2.47416">
        <ele>20.2</ele>
        <time>2020-06-06T09:58:52Z</time>
      </trkpt>
      <trkpt lat="47.55004" lon="-2.47425">
        <ele>20.1</ele>
        <time>2020-06-06T09:58:53Z</time>
      </trkpt>
      <trkpt lat="47.55002" lon="-2.47435">
        <ele>20.1</ele>
        <time>2020-06-06T09:58:54Z</time>
      </trkpt>
      <trkpt lat="47.55002" lon="-2.47444">
        <ele>20</ele>
        <time>2020-06-06T09:58:55Z</time>
      </trkpt>
      <trkpt lat="47.55002" lon="-2.47455">
        <ele>20.1</ele>
        <time>2020-06-06T09:58:56Z</time>
      </trkpt>
      <trkpt lat="47.55003" lon="-2.47462">
        <ele>20.1</ele>
        <time>2020-06-06T09:58:57Z</time>
      </trkpt>
      <trkpt lat="47.55004" lon="-2.47468">
        <ele>20.2</ele>
        <time>2020-06-06T09:58:58Z</time>
      </trkpt>
      <trkpt lat="47.55006" lon="-2.47474">
        <ele>20.3</ele>
        <time>2020-06-06T09:58:59Z</time>
      </trkpt>
      <trkpt lat="47.55009" lon="-2.47477">
        <ele>20.4</ele>
        <time>2020-06-06T09:59:00Z</time>
      </trkpt>
      <trkpt lat="47.55011" lon="-2.47482">
        <ele>20.6</ele>
        <time>2020-06-06T09:59:01Z</time>
      </trkpt>
      <trkpt lat="47.55013" lon="-2.47487">
        <ele>20.8</ele>
        <time>2020-06-06T09:59:02Z</time>
      </trkpt>
      <trkpt lat="47.55016" lon="-2.47492">
        <ele>21</ele>
        <time>2020-06-06T09:59:03Z</time>
      </trkpt>
      <trkpt lat="47.55018" lon="-2.47497">
        <ele>21.2</ele>
        <time>2020-06-06T09:59:04Z</time>
      </trkpt>
      <trkpt lat="47.55021" lon="-2.47502">
        <ele>21.4</ele>
        <time>2020-06-06T09:59:05Z</time>
      </trkpt>
      <trkpt lat="47.55022" lon="-2.47506">
        <ele>21.6</ele>
        <time>2020-06-06T09:59:06Z</time>
      </trkpt>
      <trkpt lat="47.55025" lon="-2.47511">
        <ele>21.8</ele>
        <time>2020-06-06T09:59:07Z</time>
      </trkpt>
      <trkpt lat="47.55027" lon="-2.47515">
        <ele>22</ele>
        <time>2020-06-06T09:59:08Z</time>
      </trkpt>
      <trkpt lat="47.5503" lon="-2.47519">
        <ele>22.1</ele>
        <time>2020-06-06T09:59:09Z</time>
      </trkpt>
      <trkpt lat="47.55032" lon="-2.47524">
        <ele>22.3</ele>
        <time>2020-06-06T09:59:10Z</time>
      </trkpt>
      <trkpt lat="47.55034" lon="-2.4753">
        <ele>22.6</ele>
        <time>2020-06-06T09:59:11Z</time>
      </trkpt>
      <trkpt lat="47.55036" lon="-2.47534">
        <ele>22.7</ele>
        <time>2020-06-06T09:59:12Z</time>
      </trkpt>
      <trkpt lat="47.55039" lon="-2.47539">
        <ele>22.9</ele>
        <time>2020-06-06T09:59:13Z</time>
      </trkpt>
      <trkpt lat="47.55042" lon="-2.47545">
        <ele>23.2</ele>
        <time>2020-06-06T09:59:14Z</time>
      </trkpt>
      <trkpt lat="47.55044" lon="-2.4755">
        <ele>23.3</ele>
        <time>2020-06-06T09:59:15Z</time>
      </trkpt>
      <trkpt lat="47.55046" lon="-2.47554">
        <ele>23.5</ele>
        <time>2020-06-06T09:59:16Z</time>
      </trkpt>
      <trkpt lat="47.55048" lon="-2.47557">
        <ele>23.6</ele>
        <time>2020-06-06T09:59:17Z</time>
      </trkpt>
      <trkpt lat="47.55051" lon="-2.47562">
        <ele>23.8</ele>
        <time>2020-06-06T09:59:18Z</time>
      </trkpt>
      <trkpt lat="47.55053" lon="-2.47567">
        <ele>24</ele>
        <time>2020-06-06T09:59:19Z</time>
      </trkpt>
      <trkpt lat="47.55055" lon="-2.47571">
        <ele>24.2</ele>
        <time>2020-06-06T09:59:20Z</time>
      </trkpt>
      <trkpt lat="47.55057" lon="-2.47574">
        <ele>24.3</ele>
        <time>2020-06-06T09:59:21Z</time>
      </trkpt>
      <trkpt lat="47.55059" lon="-2.47578">
        <ele>24.4</ele>
        <time>2020-06-06T09:59:22Z</time>
      </trkpt>
      <trkpt lat="47.55062" lon="-2.47582">
        <ele>24.6</ele>
        <time>2020-06-06T09:59:23Z</time>
      </trkpt>
      <trkpt lat="47.55065" lon="-2.47587">
        <ele>24.8</ele>
        <time>2020-06-06T09:59:24Z</time>
      </trkpt>
      <trkpt lat="47.55068" lon="-2.47591">
        <ele>24.9</ele>
        <time>2020-06-06T09:59:25Z</time>
      </trkpt>
      <trkpt lat="47.5507" lon="-2.47595">
        <ele>25</ele>
        <time>2020-06-06T09:59:26Z</time>
      </trkpt>
      <trkpt lat="47.55073" lon="-2.476">
        <ele>25.1</ele>
        <time>2020-06-06T09:59:27Z</time>
      </trkpt>
      <trkpt lat="47.55075" lon="-2.47604">
        <ele>25.2</ele>
        <time>2020-06-06T09:59:28Z</time>
      </trkpt>
      <trkpt lat="47.55078" lon="-2.47609">
        <ele>25.3</ele>
        <time>2020-06-06T09:59:29Z</time>
      </trkpt>
      <trkpt lat="47.55081" lon="-2.47613">
        <ele>25.4</ele>
        <time>2020-06-06T09:59:30Z</time>
      </trkpt>
      <trkpt lat="47.55083" lon="-2.47617">
        <ele>25.5</ele>
        <time>2020-06-06T09:59:31Z</time>
      </trkpt>
      <trkpt lat="47.55086" lon="-2.47621">
        <ele>25.5</ele>
        <time>2020-06-06T09:59:32Z</time>
      </trkpt>
      <trkpt lat="47.55088" lon="-2.47625">
        <ele>25.6</ele>
        <time>2020-06-06T09:59:33Z</time>
      </trkpt>
      <trkpt lat="47.55091" lon="-2.47629">
        <ele>25.7</ele>
        <time>2020-06-06T09:59:34Z</time>
      </trkpt>
      <trkpt lat="47.55093" lon="-2.47633">
        <ele>25.7</ele>
        <time>2020-06-06T09:59:35Z</time>
      </trkpt>
      <trkpt lat="47.55095" lon="-2.47637">
        <ele>25.8</ele>
        <time>2020-06-06T09:59:36Z</time>
      </trkpt>
      <trkpt lat="47.55097" lon="-2.47641">
        <ele>25.8</ele>
        <time>2020-06-06T09:59:37Z</time>
      </trkpt>
      <trkpt lat="47.551" lon="-2.47647">
        <ele>25.9</ele>
        <time>2020-06-06T09:59:38Z</time>
      </trkpt>
      <trkpt lat="47.55103" lon="-2.47651">
        <ele>25.9</ele>
        <time>2020-06-06T09:59:39Z</time>
      </trkpt>
      <trkpt lat="47.55106" lon="-2.47656">
        <ele>26</ele>
        <time>2020-06-06T09:59:40Z</time>
      </trkpt>
      <trkpt lat="47.55108" lon="-2.4766">
        <ele>26</ele>
        <time>2020-06-06T09:59:41Z</time>
      </trkpt>
      <trkpt lat="47.5511" lon="-2.47664">
        <ele>25.9</ele>
        <time>2020-06-06T09:59:42Z</time>
      </trkpt>
      <trkpt lat="47.55113" lon="-2.47668">
        <ele>25.9</ele>
        <time>2020-06-06T09:59:43Z</time>
      </trkpt>
      <trkpt lat="47.55116" lon="-2.47674">
        <ele>25.8</ele>
        <time>2020-06-06T09:59:44Z</time>
      </trkpt>
      <trkpt lat="47.55118" lon="-2.4768">
        <ele>25.7</ele>
        <time>2020-06-06T09:59:45Z</time>
      </trkpt>
      <trkpt lat="47.55121" lon="-2.47686">
        <ele>25.6</ele>
        <time>2020-06-06T09:59:46Z</time>
      </trkpt>
      <trkpt lat="47.55124" lon="-2.47692">
        <ele>25.5</ele>
        <time>2020-06-06T09:59:47Z</time>
      </trkpt>
      <trkpt lat="47.55126" lon="-2.47698">
        <ele>25.3</ele>
        <time>2020-06-06T09:59:48Z</time>
      </trkpt>
      <trkpt lat="47.55128" lon="-2.47703">
        <ele>25.1</ele>
        <time>2020-06-06T09:59:49Z</time>
      </trkpt>
      <trkpt lat="47.55131" lon="-2.4771">
        <ele>24.9</ele>
        <time>2020-06-06T09:59:50Z</time>
      </trkpt>
      <trkpt lat="47.55134" lon="-2.47717">
        <ele>24.6</ele>
        <time>2020-06-06T09:59:51Z</time>
      </trkpt>
      <trkpt lat="47.55137" lon="-2.47727">
        <ele>24.3</ele>
        <time>2020-06-06T09:59:52Z</time>
      </trkpt>
      <trkpt lat="47.5514" lon="-2.47736">
        <ele>23.9</ele>
        <time>2020-06-06T09:59:53Z</time>
      </trkpt>
      <trkpt lat="47.55142" lon="-2.47745">
        <ele>23.6</ele>
        <time>2020-06-06T09:59:54Z</time>
      </trkpt>
      <trkpt lat="47.55145" lon="-2.47754">
        <ele>23.2</ele>
        <time>2020-06-06T09:59:55Z</time>
      </trkpt>
      <trkpt lat="47.55147" lon="-2.47764">
        <ele>22.8</ele>
        <time>2020-06-06T09:59:56Z</time>
      </trkpt>
      <trkpt lat="47.5515" lon="-2.47773">
        <ele>22.5</ele>
        <time>2020-06-06T09:59:57Z</time>
      </trkpt>
      <trkpt lat="47.55152" lon="-2.47782">
        <ele>22.1</ele>
        <time>2020-06-06T09:59:58Z</time>
      </trkpt>
      <trkpt lat="47.55155" lon="-2.47793">
        <ele>21.8</ele>
        <time>2020-06-06T09:59:59Z</time>
      </trkpt>
      <trkpt lat="47.55158" lon="-2.47804">
        <ele>21.5</ele>
        <time>2020-06-06T10:00:00Z</time>
      </trkpt>
      <trkpt lat="47.5516" lon="-2.47814">
        <ele>21.3</ele>
        <time>2020-06-06T10:00:01Z</time>
      </trkpt>
      <trkpt lat="47.55162" lon="-2.47824">
        <ele>21.1</ele>
        <time>2020-06-06T10:00:02Z</time>
      </trkpt>
      <trkpt lat="47.55165" lon="-2.47833">
        <ele>20.9</ele>
        <time>2020-06-06T10:00:03Z</time>
      </trkpt>
      <trkpt lat="47.55167" lon="-2.47843">
        <ele>20.7</ele>
        <time>2020-06-06T10:00:04Z</time>
      </trkpt>
      <trkpt lat="47.55169" lon="-2.47852">
        <ele>20.6</ele>
        <time>2020-06-06T10:00:05Z</time>
      </trkpt>
      <trkpt lat="47.55171" lon="-2.47862">
        <ele>20.5</ele>
        <time>2020-06-06T10:00:06Z</time>
      </trkpt>
      <trkpt lat="47.55173" lon="-2.47872">
        <ele>20.3</ele>
        <time>2020-06-06T10:00:07Z</time>
      </trkpt>
      <trkpt lat="47.55174" lon="-2.47882">
        <ele>20.2</ele>
        <time>2020-06-06T10:00:08Z</time>
      </trkpt>
      <trkpt lat="47.55176" lon="-2.47893">
        <ele>20</ele>
        <time>2020-06-06T10:00:09Z</time>
      </trkpt>
      <trkpt lat="47.55179" lon="-2.47903">
        <ele>19.9</ele>
        <time>2020-06-06T10:00:10Z</time>
      </trkpt>
      <trkpt lat="47.55182" lon="-2.47912">
        <ele>19.8</ele>
        <time>2020-06-06T10:00:11Z</time>
      </trkpt>
      <trkpt lat="47.55186" lon="-2.47921">
        <ele>19.8</ele>
        <time>2020-06-06T10:00:12Z</time>
      </trkpt>
      <trkpt lat="47.55189" lon="-2.47931">
        <ele>19.7</ele>
        <time>2020-06-06T10:00:13Z</time>
      </trkpt>
      <trkpt lat="47.55192" lon="-2.47941">
        <ele>19.7</ele>
        <time>2020-06-06T10:00:14Z</time>
      </trkpt>
      <trkpt lat="47.55195" lon="-2.47951">
        <ele>19.7</ele>
        <time>2020-06-06T10:00:15Z</time>
      </trkpt>
      <trkpt lat="47.55198" lon="-2.47961">
        <ele>19.7</ele>
        <time>2020-06-06T10:00:16Z</time>
      </trkpt>
      <trkpt lat="47.552" lon="-2.47969">
        <ele>19.6</ele>
        <time>2020-06-06T10:00:17Z</time>
      </trkpt>
      <trkpt lat="47.55203" lon="-2.47979">
        <ele>19.6</ele>
        <time>2020-06-06T10:00:18Z</time>
      </trkpt>
      <trkpt lat="47.55207" lon="-2.47988">
        <ele>19.5</ele>
        <time>2020-06-06T10:00:19Z</time>
      </trkpt>
      <trkpt lat="47.55209" lon="-2.47998">
        <ele>19.5</ele>
        <time>2020-06-06T10:00:20Z</time>
      </trkpt>
      <trkpt lat="47.55211" lon="-2.48007">
        <ele>19.4</ele>
        <time>2020-06-06T10:00:21Z</time>
      </trkpt>
      <trkpt lat="47.55213" lon="-2.48017">
        <ele>19.4</ele>
        <time>2020-06-06T10:00:22Z</time>
      </trkpt>
      <trkpt lat="47.55217" lon="-2.48026">
        <ele>19.3</ele>
        <time>2020-06-06T10:00:23Z</time>
      </trkpt>
      <trkpt lat="47.5522" lon="-2.48035">
        <ele>19.3</ele>
        <time>2020-06-06T10:00:24Z</time>
      </trkpt>
      <trkpt lat="47.55223" lon="-2.48044">
        <ele>19.3</ele>
        <time>2020-06-06T10:00:25Z</time>
      </trkpt>
      <trkpt lat="47.55226" lon="-2.48052">
        <ele>19.3</ele>
        <time>2020-06-06T10:00:26Z</time>
      </trkpt>
      <trkpt lat="47.55229" lon="-2.48061">
        <ele>19.2</ele>
        <time>2020-06-06T10:00:27Z</time>
      </trkpt>
      <trkpt lat="47.55232" lon="-2.4807">
        <ele>19.2</ele>
        <time>2020-06-06T10:00:28Z</time>
      </trkpt>
      <trkpt lat="47.55235" lon="-2.48079">
        <ele>19.2</ele>
        <time>2020-06-06T10:00:29Z</time>
      </trkpt>
      <trkpt lat="47.55238" lon="-2.48088">
        <ele>19.1</ele>
        <time>2020-06-06T10:00:30Z</time>
      </trkpt>
      <trkpt lat="47.55241" lon="-2.48096">
        <ele>19.1</ele>
        <time>2020-06-06T10:00:31Z</time>
      </trkpt>
      <trkpt lat="47.55244" lon="-2.48105">
        <ele>19.1</ele>
        <time>2020-06-06T10:00:32Z</time>
      </trkpt>
      <trkpt lat="47.55247" lon="-2.48113">
        <ele>19</ele>
        <time>2020-06-06T10:00:33Z</time>
      </trkpt>
      <trkpt lat="47.5525" lon="-2.48121">
        <ele>19</ele>
        <time>2020-06-06T10:00:34Z</time>
      </trkpt>
      <trkpt lat="47.55253" lon="-2.48129">
        <ele>19</ele>
        <time>2020-06-06T10:00:35Z</time>
      </trkpt>
      <trkpt lat="47.55257" lon="-2.48137">
        <ele>19</ele>
        <time>2020-06-06T10:00:36Z</time>
      </trkpt>
      <trkpt lat="47.5526" lon="-2.48145">
        <ele>19</ele>
        <time>2020-06-06T10:00:37Z</time>
      </trkpt>
      <trkpt lat="47.55263" lon="-2.48153">
        <ele>19.1</ele>
        <time>2020-06-06T10:00:38Z</time>
      </trkpt>
      <trkpt lat="47.55266" lon="-2.4816">
        <ele>19.2</ele>
        <time>2020-06-06T10:00:39Z</time>
      </trkpt>
      <trkpt lat="47.55269" lon="-2.48167">
        <ele>19.2</ele>
        <time>2020-06-06T10:00:40Z</time>
      </trkpt>
      <trkpt lat="47.55272" lon="-2.48173">
        <ele>19.3</ele>
        <time>2020-06-06T10:00:41Z</time>
      </trkpt>
      <trkpt lat="47.55274" lon="-2.48178">
        <ele>19.3</ele>
        <time>2020-06-06T10:00:42Z</time>
      </trkpt>
      <trkpt lat="47.55275" lon="-2.48182">
        <ele>19.4</ele>
        <time>2020-06-06T10:00:43Z</time>
      </trkpt>
      <trkpt lat="47.55277" lon="-2.48187">
        <ele>19.4</ele>
        <time>2020-06-06T10:00:44Z</time>
      </trkpt>
      <trkpt lat="47.55277" lon="-2.48189">
        <ele>19.5</ele>
        <time>2020-06-06T10:00:45Z</time>
      </trkpt>
      <trkpt lat="47.5528" lon="-2.48194">
        <ele>19.7</ele>
        <time>2020-06-06T10:00:46Z</time>
      </trkpt>
      <trkpt lat="47.55281" lon="-2.48196">
        <ele>19.7</ele>
        <time>2020-06-06T10:00:47Z</time>
      </trkpt>
      <trkpt lat="47.55284" lon="-2.48199">
        <ele>19.9</ele>
        <time>2020-06-06T10:00:48Z</time>
      </trkpt>
      <trkpt lat="47.55285" lon="-2.482">
        <ele>19.9</ele>
        <time>2020-06-06T10:00:49Z</time>
      </trkpt>
      <trkpt lat="47.55287" lon="-2.48203">
        <ele>20</ele>
        <time>2020-06-06T10:00:50Z</time>
      </trkpt>
      <trkpt lat="47.5529" lon="-2.48207">
        <ele>20.1</ele>
        <time>2020-06-06T10:00:51Z</time>
      </trkpt>
      <trkpt lat="47.5529" lon="-2.48209">
        <ele>20.2</ele>
        <time>2020-06-06T10:00:52Z</time>
      </trkpt>
      <trkpt lat="47.55293" lon="-2.48213">
        <ele>20.3</ele>
        <time>2020-06-06T10:00:53Z</time>
      </trkpt>
      <trkpt lat="47.55294" lon="-2.48215">
        <ele>20.4</ele>
        <time>2020-06-06T10:00:54Z</time>
      </trkpt>
      <trkpt lat="47.55295" lon="-2.48219">
        <ele>20.7</ele>
        <time>2020-06-06T10:00:55Z</time>
      </trkpt>
      <trkpt lat="47.55295" lon="-2.48224">
        <ele>20.7</ele>
        <time>2020-06-06T10:00:56Z</time>
      </trkpt>
      <trkpt lat="47.55295" lon="-2.48229">
        <ele>20.7</ele>
        <time>2020-06-06T10:00:57Z</time>
      </trkpt>
      <trkpt lat="47.55295" lon="-2.48234">
        <ele>20.7</ele>
        <time>2020-06-06T10:00:58Z</time>
      </trkpt>
      <trkpt lat="47.55295" lon="-2.4824">
        <ele>20.7</ele>
        <time>2020-06-06T10:00:59Z</time>
      </trkpt>
      <trkpt lat="47.55295" lon="-2.48247">
        <ele>20.6</ele>
        <time>2020-06-06T10:01:00Z</time>
      </trkpt>
      <trkpt lat="47.55296" lon="-2.48254">
        <ele>20.6</ele>
        <time>2020-06-06T10:01:01Z</time>
      </trkpt>
      <trkpt lat="47.55296" lon="-2.48261">
        <ele>20.5</ele>
        <time>2020-06-06T10:01:02Z</time>
      </trkpt>
      <trkpt lat="47.55297" lon="-2.48267">
        <ele>20.5</ele>
        <time>2020-06-06T10:01:03Z</time>
      </trkpt>
      <trkpt lat="47.55297" lon="-2.48273">
        <ele>20.5</ele>
        <time>2020-06-06T10:01:04Z</time>
      </trkpt>
      <trkpt lat="47.55298" lon="-2.48279">
        <ele>20.5</ele>
        <time>2020-06-06T10:01:05Z</time>
      </trkpt>
      <trkpt lat="47.55299" lon="-2.48285">
        <ele>20.5</ele>
        <time>2020-06-06T10:01:06Z</time>
      </trkpt>
      <trkpt lat="47.55299" lon="-2.48292">
        <ele>20.5</ele>
        <time>2020-06-06T10:01:07Z</time>
      </trkpt>
      <trkpt lat="47.553" lon="-2.48299">
        <ele>20.5</ele>
        <time>2020-06-06T10:01:08Z</time>
      </trkpt>
      <trkpt lat="47.55301" lon="-2.48306">
        <ele>20.4</ele>
        <time>2020-06-06T10:01:09Z</time>
      </trkpt>
      <trkpt lat="47.55302" lon="-2.48313">
        <ele>20.4</ele>
        <time>2020-06-06T10:01:10Z</time>
      </trkpt>
      <trkpt lat="47.55303" lon="-2.4832">
        <ele>20.3</ele>
        <time>2020-06-06T10:01:11Z</time>
      </trkpt>
      <trkpt lat="47.55303" lon="-2.48327">
        <ele>20.2</ele>
        <time>2020-06-06T10:01:12Z</time>
      </trkpt>
      <trkpt lat="47.55304" lon="-2.48335">
        <ele>20.1</ele>
        <time>2020-06-06T10:01:13Z</time>
      </trkpt>
      <trkpt lat="47.55306" lon="-2.48343">
        <ele>20</ele>
        <time>2020-06-06T10:01:14Z</time>
      </trkpt>
      <trkpt lat="47.55307" lon="-2.4835">
        <ele>19.8</ele>
        <time>2020-06-06T10:01:15Z</time>
      </trkpt>
      <trkpt lat="47.55308" lon="-2.48358">
        <ele>19.7</ele>
        <time>2020-06-06T10:01:16Z</time>
      </trkpt>
      <trkpt lat="47.55309" lon="-2.48366">
        <ele>19.6</ele>
        <time>2020-06-06T10:01:17Z</time>
      </trkpt>
      <trkpt lat="47.55311" lon="-2.48373">
        <ele>19.5</ele>
        <time>2020-06-06T10:01:18Z</time>
      </trkpt>
      <trkpt lat="47.55312" lon="-2.48381">
        <ele>19.4</ele>
        <time>2020-06-06T10:01:19Z</time>
      </trkpt>
      <trkpt lat="47.55314" lon="-2.48389">
        <ele>19.3</ele>
        <time>2020-06-06T10:01:20Z</time>
      </trkpt>
      <trkpt lat="47.55315" lon="-2.48396">
        <ele>19.1</ele>
        <time>2020-06-06T10:01:21Z</time>
      </trkpt>
      <trkpt lat="47.55316" lon="-2.48401">
        <ele>19</ele>
        <time>2020-06-06T10:01:22Z</time>
      </trkpt>
      <trkpt lat="47.55317" lon="-2.48406">
        <ele>18.9</ele>
        <time>2020-06-06T10:01:23Z</time>
      </trkpt>
      <trkpt lat="47.55318" lon="-2.48411">
        <ele>18.8</ele>
        <time>2020-06-06T10:01:24Z</time>
      </trkpt>
      <trkpt lat="47.55319" lon="-2.48416">
        <ele>18.7</ele>
        <time>2020-06-06T10:01:25Z</time>
      </trkpt>
      <trkpt lat="47.5532" lon="-2.48421">
        <ele>18.6</ele>
        <time>2020-06-06T10:01:26Z</time>
      </trkpt>
      <trkpt lat="47.55321" lon="-2.48425">
        <ele>18.6</ele>
        <time>2020-06-06T10:01:27Z</time>
      </trkpt>
      <trkpt lat="47.55321" lon="-2.4843">
        <ele>18.5</ele>
        <time>2020-06-06T10:01:28Z</time>
      </trkpt>
      <trkpt lat="47.55322" lon="-2.48434">
        <ele>18.5</ele>
        <time>2020-06-06T10:01:29Z</time>
      </trkpt>
      <trkpt lat="47.55323" lon="-2.48439">
        <ele>18.4</ele>
        <time>2020-06-06T10:01:30Z</time>
      </trkpt>
      <trkpt lat="47.55323" lon="-2.48444">
        <ele>18.4</ele>
        <time>2020-06-06T10:01:31Z</time>
      </trkpt>
      <trkpt lat="47.55323" lon="-2.48449">
        <ele>18.4</ele>
        <time>2020-06-06T10:01:32Z</time>
      </trkpt>
      <trkpt lat="47.55324" lon="-2.48453">
        <ele>18.4</ele>
        <time>2020-06-06T10:01:33Z</time>
      </trkpt>
      <trkpt lat="47.55325" lon="-2.48458">
        <ele>18.2</ele>
        <time>2020-06-06T10:01:34Z</time>
      </trkpt>
      <trkpt lat="47.55325" lon="-2.48459">
        <ele>18.2</ele>
        <time>2020-06-06T10:01:35Z</time>
      </trkpt>
      <trkpt lat="47.55326" lon="-2.48461">
        <ele>18.2</ele>
        <time>2020-06-06T10:01:36Z</time>
      </trkpt>
      <trkpt lat="47.55326" lon="-2.48462">
        <ele>18.1</ele>
        <time>2020-06-06T10:01:37Z</time>
      </trkpt>
      <trkpt lat="47.55326" lon="-2.48463">
        <ele>18.1</ele>
        <time>2020-06-06T10:01:38Z</time>
      </trkpt>
      <trkpt lat="47.55326" lon="-2.48465">
        <ele>18.1</ele>
        <time>2020-06-06T10:01:39Z</time>
      </trkpt>
      <trkpt lat="47.55326" lon="-2.48465">
        <ele>18.1</ele>
        <time>2020-06-06T10:01:40Z</time>
      </trkpt>
      <trkpt lat="47.55326" lon="-2.48466">
        <ele>18.1</ele>
        <time>2020-06-06T10:01:41Z</time>
      </trkpt>
      <trkpt lat="47.55326" lon="-2.48466">
        <ele>18</ele>
        <time>2020-06-06T10:01:42Z</time>
      </trkpt>
      <trkpt lat="47.55326" lon="-2.48467">
        <ele>18</ele>
        <time>2020-06-06T10:01:43Z</time>
      </trkpt>
      <trkpt lat="47.55325" lon="-2.48467">
        <ele>18</ele>
        <time>2020-06-06T10:01:44Z</time>
      </trkpt>
      <trkpt lat="47.55325" lon="-2.48467">
        <ele>18</ele>
        <time>2020-06-06T10:01:45Z</time>
      </trkpt>
      <trkpt lat="47.55326" lon="-2.48468">
        <ele>18</ele>
        <time>2020-06-06T10:01:46Z</time>
      </trkpt>
      <trkpt lat="47.55325" lon="-2.48468">
        <ele>18</ele>
        <time>2020-06-06T10:01:47Z</time>
      </trkpt>
      <trkpt lat="47.55325" lon="-2.48468">
        <ele>18</ele>
        <time>2020-06-06T10:01:48Z</time>
      </trkpt>
      <trkpt lat="47.55325" lon="-2.48468">
        <ele>17.9</ele>
        <time>2020-06-06T10:01:49Z</time>
      </trkpt>
      <trkpt lat="47.55326" lon="-2.48469">
        <ele>17.9</ele>
        <time>2020-06-06T10:01:50Z</time>
      </trkpt>
      <trkpt lat="47.55325" lon="-2.4847">
        <ele>17.9</ele>
        <time>2020-06-06T10:01:51Z</time>
      </trkpt>
      <trkpt lat="47.55325" lon="-2.48471">
        <ele>17.9</ele>
        <time>2020-06-06T10:01:52Z</time>
      </trkpt>
      <trkpt lat="47.55325" lon="-2.48471">
        <ele>17.9</ele>
        <time>2020-06-06T10:01:53Z</time>
      </trkpt>
      <trkpt lat="47.55324" lon="-2.48471">
        <ele>17.8</ele>
        <time>2020-06-06T10:01:54Z</time>
      </trkpt>
      <trkpt lat="47.55325" lon="-2.48472">
        <ele>17.8</ele>
        <time>2020-06-06T10:01:55Z</time>
      </trkpt>
      <trkpt lat="47.55325" lon="-2.48472">
        <ele>17.8</ele>
        <time>2020-06-06T10:01:56Z</time>
      </trkpt>
      <trkpt lat="47.55326" lon="-2.48473">
        <ele>17.8</ele>
        <time>2020-06-06T10:01:57Z</time>
      </trkpt>
      <trkpt lat="47.55326" lon="-2.48473">
        <ele>17.8</ele>
        <time>2020-06-06T10:01:58Z</time>
      </trkpt>
      <trkpt lat="47.55326" lon="-2.48474">
        <ele>17.8</ele>
        <time>2020-06-06T10:01:59Z</time>
      </trkpt>
      <trkpt lat="47.55325" lon="-2.48474">
        <ele>17.7</ele>
        <time>2020-06-06T10:02:00Z</time>
      </trkpt>
      <trkpt lat="47.55325" lon="-2.48475">
        <ele>17.7</ele>
        <time>2020-06-06T10:02:01Z</time>
      </trkpt>
      <trkpt lat="47.55326" lon="-2.48475">
        <ele>17.7</ele>
        <time>2020-06-06T10:02:02Z</time>
      </trkpt>
      <trkpt lat="47.55325" lon="-2.48476">
        <ele>17.7</ele>
        <time>2020-06-06T10:02:03Z</time>
      </trkpt>
      <trkpt lat="47.55325" lon="-2.48476">
        <ele>17.7</ele>
        <time>2020-06-06T10:02:04Z</time>
      </trkpt>
      <trkpt lat="47.55325" lon="-2.48476">
        <ele>17.7</ele>
        <time>2020-06-06T10:02:05Z</time>
      </trkpt>
      <trkpt lat="47.55325" lon="-2.48478">
        <ele>17.6</ele>
        <time>2020-06-06T10:02:06Z</time>
      </trkpt>
      <trkpt lat="47.55326" lon="-2.48478">
        <ele>17.6</ele>
        <time>2020-06-06T10:02:07Z</time>
      </trkpt>
      <trkpt lat="47.55326" lon="-2.48478">
        <ele>17.6</ele>
        <time>2020-06-06T10:02:08Z</time>
      </trkpt>
      <trkpt lat="47.55326" lon="-2.48479">
        <ele>17.6</ele>
        <time>2020-06-06T10:02:09Z</time>
      </trkpt>
      <trkpt lat="47.55326" lon="-2.48479">
        <ele>17.6</ele>
        <time>2020-06-06T10:02:10Z</time>
      </trkpt>
      <trkpt lat="47.55326" lon="-2.48479">
        <ele>17.6</ele>
        <time>2020-06-06T10:02:11Z</time>
      </trkpt>
      <trkpt lat="47.55327" lon="-2.4848">
        <ele>17.6</ele>
        <time>2020-06-06T10:02:12Z</time>
      </trkpt>
      <trkpt lat="47.55327" lon="-2.4848">
        <ele>17.6</ele>
        <time>2020-06-06T10:02:13Z</time>
      </trkpt>
      <trkpt lat="47.55327" lon="-2.48481">
        <ele>17.6</ele>
        <time>2020-06-06T10:02:14Z</time>
      </trkpt>
      <trkpt lat="47.55327" lon="-2.48481">
        <ele>17.6</ele>
        <time>2020-06-06T10:02:15Z</time>
      </trkpt>
      <trkpt lat="47.55327" lon="-2.48481">
        <ele>17.5</ele>
        <time>2020-06-06T10:02:16Z</time>
      </trkpt>
      <trkpt lat="47.55328" lon="-2.48482">
        <ele>17.5</ele>
        <time>2020-06-06T10:02:17Z</time>
      </trkpt>
      <trkpt lat="47.55329" lon="-2.48486">
        <ele>17.4</ele>
        <time>2020-06-06T10:02:18Z</time>
      </trkpt>
      <trkpt lat="47.55329" lon="-2.48488">
        <ele>17.3</ele>
        <time>2020-06-06T10:02:19Z</time>
      </trkpt>
      <trkpt lat="47.5533" lon="-2.48494">
        <ele>17</ele>
        <time>2020-06-06T10:02:20Z</time>
      </trkpt>
      <trkpt lat="47.5533" lon="-2.48496">
        <ele>16.9</ele>
        <time>2020-06-06T10:02:21Z</time>
      </trkpt>
      <trkpt lat="47.5533" lon="-2.48502">
        <ele>16.7</ele>
        <time>2020-06-06T10:02:22Z</time>
      </trkpt>
      <trkpt lat="47.55331" lon="-2.4851">
        <ele>16.4</ele>
        <time>2020-06-06T10:02:23Z</time>
      </trkpt>
      <trkpt lat="47.55332" lon="-2.48518">
        <ele>16.1</ele>
        <time>2020-06-06T10:02:24Z</time>
      </trkpt>
      <trkpt lat="47.55332" lon="-2.48525">
        <ele>15.8</ele>
        <time>2020-06-06T10:02:25Z</time>
      </trkpt>
      <trkpt lat="47.55332" lon="-2.48533">
        <ele>15.1</ele>
        <time>2020-06-06T10:02:26Z</time>
      </trkpt>
      <trkpt lat="47.55331" lon="-2.4854">
        <ele>14.9</ele>
        <time>2020-06-06T10:02:27Z</time>
      </trkpt>
      <trkpt lat="47.55331" lon="-2.48546">
        <ele>14.7</ele>
        <time>2020-06-06T10:02:28Z</time>
      </trkpt>
      <trkpt lat="47.55329" lon="-2.48555">
        <ele>14.4</ele>
        <time>2020-06-06T10:02:29Z</time>
      </trkpt>
      <trkpt lat="47.55328" lon="-2.48563">
        <ele>14.1</ele>
        <time>2020-06-06T10:02:30Z</time>
      </trkpt>
      <trkpt lat="47.55327" lon="-2.48573">
        <ele>13.8</ele>
        <time>2020-06-06T10:02:31Z</time>
      </trkpt>
      <trkpt lat="47.55326" lon="-2.48582">
        <ele>13.5</ele>
        <time>2020-06-06T10:02:32Z</time>
      </trkpt>
      <trkpt lat="47.55325" lon="-2.48593">
        <ele>13.2</ele>
        <time>2020-06-06T10:02:33Z</time>
      </trkpt>
      <trkpt lat="47.55323" lon="-2.48602">
        <ele>12.9</ele>
        <time>2020-06-06T10:02:34Z</time>
      </trkpt>
      <trkpt lat="47.55322" lon="-2.48611">
        <ele>12.7</ele>
        <time>2020-06-06T10:02:35Z</time>
      </trkpt>
      <trkpt lat="47.55321" lon="-2.48618">
        <ele>12.5</ele>
        <time>2020-06-06T10:02:36Z</time>
      </trkpt>
      <trkpt lat="47.5532" lon="-2.48626">
        <ele>12.1</ele>
        <time>2020-06-06T10:02:37Z</time>
      </trkpt>
      <trkpt lat="47.55319" lon="-2.48635">
        <ele>11.8</ele>
        <time>2020-06-06T10:02:38Z</time>
      </trkpt>
      <trkpt lat="47.55318" lon="-2.48642">
        <ele>11.5</ele>
        <time>2020-06-06T10:02:39Z</time>
      </trkpt>
      <trkpt lat="47.5532" lon="-2.48651">
        <ele>11.1</ele>
        <time>2020-06-06T10:02:40Z</time>
      </trkpt>
      <trkpt lat="47.55322" lon="-2.4866">
        <ele>10.7</ele>
        <time>2020-06-06T10:02:41Z</time>
      </trkpt>
      <trkpt lat="47.55325" lon="-2.48669">
        <ele>10.3</ele>
        <time>2020-06-06T10:02:42Z</time>
      </trkpt>
      <trkpt lat="47.55328" lon="-2.48678">
        <ele>9.8</ele>
        <time>2020-06-06T10:02:43Z</time>
      </trkpt>
      <trkpt lat="47.55331" lon="-2.48687">
        <ele>9.4</ele>
        <time>2020-06-06T10:02:44Z</time>
      </trkpt>
      <trkpt lat="47.55333" lon="-2.48697">
        <ele>8.9</ele>
        <time>2020-06-06T10:02:45Z</time>
      </trkpt>
      <trkpt lat="47.55336" lon="-2.48708">
        <ele>8.4</ele>
        <time>2020-06-06T10:02:46Z</time>
      </trkpt>
      <trkpt lat="47.55338" lon="-2.48719">
        <ele>8</ele>
        <time>2020-06-06T10:02:47Z</time>
      </trkpt>
      <trkpt lat="47.55341" lon="-2.48728">
        <ele>7.6</ele>
        <time>2020-06-06T10:02:48Z</time>
      </trkpt>
      <trkpt lat="47.55344" lon="-2.48735">
        <ele>7.3</ele>
        <time>2020-06-06T10:02:49Z</time>
      </trkpt>
      <trkpt lat="47.55346" lon="-2.4874">
        <ele>7.1</ele>
        <time>2020-06-06T10:02:50Z</time>
      </trkpt>
      <trkpt lat="47.55347" lon="-2.48744">
        <ele>7</ele>
        <time>2020-06-06T10:02:51Z</time>
      </trkpt>
      <trkpt lat="47.55349" lon="-2.48748">
        <ele>6.8</ele>
        <time>2020-06-06T10:02:52Z</time>
      </trkpt>
      <trkpt lat="47.55351" lon="-2.48752">
        <ele>6.7</ele>
        <time>2020-06-06T10:02:53Z</time>
      </trkpt>
      <trkpt lat="47.55352" lon="-2.48757">
        <ele>6.6</ele>
        <time>2020-06-06T10:02:54Z</time>
      </trkpt>
      <trkpt lat="47.55354" lon="-2.48762">
        <ele>6.4</ele>
        <time>2020-06-06T10:02:55Z</time>
      </trkpt>
      <trkpt lat="47.55356" lon="-2.48768">
        <ele>6.3</ele>
        <time>2020-06-06T10:02:56Z</time>
      </trkpt>
      <trkpt lat="47.55359" lon="-2.48773">
        <ele>6.1</ele>
        <time>2020-06-06T10:02:57Z</time>
      </trkpt>
      <trkpt lat="47.55362" lon="-2.48779">
        <ele>5.9</ele>
        <time>2020-06-06T10:02:58Z</time>
      </trkpt>
      <trkpt lat="47.55364" lon="-2.48786">
        <ele>5.7</ele>
        <time>2020-06-06T10:02:59Z</time>
      </trkpt>
      <trkpt lat="47.55367" lon="-2.48793">
        <ele>5.5</ele>
        <time>2020-06-06T10:03:00Z</time>
      </trkpt>
      <trkpt lat="47.5537" lon="-2.48801">
        <ele>5.3</ele>
        <time>2020-06-06T10:03:01Z</time>
      </trkpt>
      <trkpt lat="47.55373" lon="-2.4881">
        <ele>5.1</ele>
        <time>2020-06-06T10:03:02Z</time>
      </trkpt>
      <trkpt lat="47.55376" lon="-2.48818">
        <ele>5</ele>
        <time>2020-06-06T10:03:03Z</time>
      </trkpt>
      <trkpt lat="47.55379" lon="-2.48826">
        <ele>4.9</ele>
        <time>2020-06-06T10:03:04Z</time>
      </trkpt>
      <trkpt lat="47.55382" lon="-2.48833">
        <ele>4.8</ele>
        <time>2020-06-06T10:03:05Z</time>
      </trkpt>
      <trkpt lat="47.55385" lon="-2.48841">
        <ele>4.7</ele>
        <time>2020-06-06T10:03:06Z</time>
      </trkpt>
      <trkpt lat="47.55388" lon="-2.48848">
        <ele>4.6</ele>
        <time>2020-06-06T10:03:07Z</time>
      </trkpt>
      <trkpt lat="47.55391" lon="-2.48855">
        <ele>4.5</ele>
        <time>2020-06-06T10:03:08Z</time>
      </trkpt>
      <trkpt lat="47.55394" lon="-2.48863">
        <ele>4.4</ele>
        <time>2020-06-06T10:03:09Z</time>
      </trkpt>
      <trkpt lat="47.55397" lon="-2.4887">
        <ele>4.3</ele>
        <time>2020-06-06T10:03:10Z</time>
      </trkpt>
      <trkpt lat="47.554" lon="-2.48877">
        <ele>4.3</ele>
        <time>2020-06-06T10:03:11Z</time>
      </trkpt>
      <trkpt lat="47.55403" lon="-2.48884">
        <ele>4.2</ele>
        <time>2020-06-06T10:03:12Z</time>
      </trkpt>
      <trkpt lat="47.55406" lon="-2.4889">
        <ele>4.3</ele>
        <time>2020-06-06T10:03:13Z</time>
      </trkpt>
      <trkpt lat="47.55409" lon="-2.48897">
        <ele>4.3</ele>
        <time>2020-06-06T10:03:14Z</time>
      </trkpt>
      <trkpt lat="47.55412" lon="-2.48904">
        <ele>4.4</ele>
        <time>2020-06-06T10:03:15Z</time>
      </trkpt>
      <trkpt lat="47.55414" lon="-2.4891">
        <ele>4.5</ele>
        <time>2020-06-06T10:03:16Z</time>
      </trkpt>
      <trkpt lat="47.55416" lon="-2.48917">
        <ele>4.5</ele>
        <time>2020-06-06T10:03:17Z</time>
      </trkpt>
      <trkpt lat="47.5542" lon="-2.48921">
        <ele>4.6</ele>
        <time>2020-06-06T10:03:18Z</time>
      </trkpt>
      <trkpt lat="47.55422" lon="-2.48926">
        <ele>4.6</ele>
        <time>2020-06-06T10:03:19Z</time>
      </trkpt>
      <trkpt lat="47.55424" lon="-2.48931">
        <ele>4.7</ele>
        <time>2020-06-06T10:03:20Z</time>
      </trkpt>
      <trkpt lat="47.55427" lon="-2.48936">
        <ele>4.8</ele>
        <time>2020-06-06T10:03:21Z</time>
      </trkpt>
      <trkpt lat="47.55429" lon="-2.48942">
        <ele>4.9</ele>
        <time>2020-06-06T10:03:22Z</time>
      </trkpt>
      <trkpt lat="47.5543" lon="-2.48948">
        <ele>5</ele>
        <time>2020-06-06T10:03:23Z</time>
      </trkpt>
      <trkpt lat="47.55433" lon="-2.48953">
        <ele>5.1</ele>
        <time>2020-06-06T10:03:24Z</time>
      </trkpt>
      <trkpt lat="47.55436" lon="-2.48958">
        <ele>5.3</ele>
        <time>2020-06-06T10:03:25Z</time>
      </trkpt>
      <trkpt lat="47.55439" lon="-2.48963">
        <ele>5.5</ele>
        <time>2020-06-06T10:03:26Z</time>
      </trkpt>
      <trkpt lat="47.55441" lon="-2.48969">
        <ele>5.7</ele>
        <time>2020-06-06T10:03:27Z</time>
      </trkpt>
      <trkpt lat="47.55444" lon="-2.48976">
        <ele>5.9</ele>
        <time>2020-06-06T10:03:28Z</time>
      </trkpt>
      <trkpt lat="47.55447" lon="-2.48982">
        <ele>6.2</ele>
        <time>2020-06-06T10:03:29Z</time>
      </trkpt>
      <trkpt lat="47.5545" lon="-2.48988">
        <ele>6.4</ele>
        <time>2020-06-06T10:03:30Z</time>
      </trkpt>
      <trkpt lat="47.55453" lon="-2.48993">
        <ele>6.6</ele>
        <time>2020-06-06T10:03:31Z</time>
      </trkpt>
      <trkpt lat="47.55457" lon="-2.48999">
        <ele>6.8</ele>
        <time>2020-06-06T10:03:32Z</time>
      </trkpt>
      <trkpt lat="47.5546" lon="-2.49005">
        <ele>7</ele>
        <time>2020-06-06T10:03:33Z</time>
      </trkpt>
      <trkpt lat="47.55463" lon="-2.4901">
        <ele>7.2</ele>
        <time>2020-06-06T10:03:34Z</time>
      </trkpt>
      <trkpt lat="47.55466" lon="-2.49015">
        <ele>7.3</ele>
        <time>2020-06-06T10:03:35Z</time>
      </trkpt>
      <trkpt lat="47.5547" lon="-2.4902">
        <ele>7.4</ele>
        <time>2020-06-06T10:03:36Z</time>
      </trkpt>
      <trkpt lat="47.55474" lon="-2.49025">
        <ele>7.6</ele>
        <time>2020-06-06T10:03:37Z</time>
      </trkpt>
      <trkpt lat="47.55478" lon="-2.49029">
        <ele>7.6</ele>
        <time>2020-06-06T10:03:38Z</time>
      </trkpt>
      <trkpt lat="47.55482" lon="-2.49034">
        <ele>7.7</ele>
        <time>2020-06-06T10:03:39Z</time>
      </trkpt>
      <trkpt lat="47.55487" lon="-2.49039">
        <ele>7.7</ele>
        <time>2020-06-06T10:03:40Z</time>
      </trkpt>
      <trkpt lat="47.55491" lon="-2.49044">
        <ele>7.6</ele>
        <time>2020-06-06T10:03:41Z</time>
      </trkpt>
      <trkpt lat="47.55496" lon="-2.49049">
        <ele>7.6</ele>
        <time>2020-06-06T10:03:42Z</time>
      </trkpt>
      <trkpt lat="47.55501" lon="-2.49054">
        <ele>7.5</ele>
        <time>2020-06-06T10:03:43Z</time>
      </trkpt>
      <trkpt lat="47.55506" lon="-2.49059">
        <ele>7.4</ele>
        <time>2020-06-06T10:03:44Z</time>
      </trkpt>
      <trkpt lat="47.55511" lon="-2.49065">
        <ele>7.2</ele>
        <time>2020-06-06T10:03:45Z</time>
      </trkpt>
      <trkpt lat="47.55517" lon="-2.49069">
        <ele>7</ele>
        <time>2020-06-06T10:03:46Z</time>
      </trkpt>
      <trkpt lat="47.55522" lon="-2.49074">
        <ele>6.9</ele>
        <time>2020-06-06T10:03:47Z</time>
      </trkpt>
      <trkpt lat="47.55527" lon="-2.49078">
        <ele>6.7</ele>
        <time>2020-06-06T10:03:48Z</time>
      </trkpt>
      <trkpt lat="47.55532" lon="-2.49083">
        <ele>6.6</ele>
        <time>2020-06-06T10:03:49Z</time>
      </trkpt>
      <trkpt lat="47.55538" lon="-2.49089">
        <ele>6.5</ele>
        <time>2020-06-06T10:03:50Z</time>
      </trkpt>
      <trkpt lat="47.55544" lon="-2.49095">
        <ele>6.5</ele>
        <time>2020-06-06T10:03:51Z</time>
      </trkpt>
      <trkpt lat="47.5555" lon="-2.49101">
        <ele>6.4</ele>
        <time>2020-06-06T10:03:52Z</time>
      </trkpt>
      <trkpt lat="47.55555" lon="-2.49107">
        <ele>6.4</ele>
        <time>2020-06-06T10:03:53Z</time>
      </trkpt>
      <trkpt lat="47.5556" lon="-2.49113">
        <ele>6.5</ele>
        <time>2020-06-06T10:03:54Z</time>
      </trkpt>
      <trkpt lat="47.55565" lon="-2.49119">
        <ele>6.5</ele>
        <time>2020-06-06T10:03:55Z</time>
      </trkpt>
      <trkpt lat="47.55569" lon="-2.49126">
        <ele>6.7</ele>
        <time>2020-06-06T10:03:56Z</time>
      </trkpt>
      <trkpt lat="47.55573" lon="-2.49133">
        <ele>6.9</ele>
        <time>2020-06-06T10:03:57Z</time>
      </trkpt>
      <trkpt lat="47.55579" lon="-2.49142">
        <ele>7.2</ele>
        <time>2020-06-06T10:03:58Z</time>
      </trkpt>
      <trkpt lat="47.55583" lon="-2.4915">
        <ele>7.5</ele>
        <time>2020-06-06T10:03:59Z</time>
      </trkpt>
      <trkpt lat="47.55587" lon="-2.49159">
        <ele>7.8</ele>
        <time>2020-06-06T10:04:00Z</time>
      </trkpt>
      <trkpt lat="47.55592" lon="-2.49167">
        <ele>8.1</ele>
        <time>2020-06-06T10:04:01Z</time>
      </trkpt>
      <trkpt lat="47.55596" lon="-2.49175">
        <ele>8.4</ele>
        <time>2020-06-06T10:04:02Z</time>
      </trkpt>
      <trkpt lat="47.55601" lon="-2.49182">
        <ele>8.6</ele>
        <time>2020-06-06T10:04:03Z</time>
      </trkpt>
      <trkpt lat="47.55605" lon="-2.49188">
        <ele>8.8</ele>
        <time>2020-06-06T10:04:04Z</time>
      </trkpt>
      <trkpt lat="47.5561" lon="-2.49197">
        <ele>9</ele>
        <time>2020-06-06T10:04:05Z</time>
      </trkpt>
      <trkpt lat="47.55614" lon="-2.49204">
        <ele>9.2</ele>
        <time>2020-06-06T10:04:06Z</time>
      </trkpt>
      <trkpt lat="47.55617" lon="-2.4921">
        <ele>9.3</ele>
        <time>2020-06-06T10:04:07Z</time>
      </trkpt>
      <trkpt lat="47.55621" lon="-2.49218">
        <ele>9.4</ele>
        <time>2020-06-06T10:04:08Z</time>
      </trkpt>
      <trkpt lat="47.55625" lon="-2.49224">
        <ele>9.6</ele>
        <time>2020-06-06T10:04:09Z</time>
      </trkpt>
      <trkpt lat="47.55628" lon="-2.4923">
        <ele>9.7</ele>
        <time>2020-06-06T10:04:10Z</time>
      </trkpt>
      <trkpt lat="47.55631" lon="-2.49235">
        <ele>9.8</ele>
        <time>2020-06-06T10:04:11Z</time>
      </trkpt>
      <trkpt lat="47.55635" lon="-2.49241">
        <ele>9.9</ele>
        <time>2020-06-06T10:04:12Z</time>
      </trkpt>
      <trkpt lat="47.55638" lon="-2.49245">
        <ele>10</ele>
        <time>2020-06-06T10:04:13Z</time>
      </trkpt>
      <trkpt lat="47.55641" lon="-2.4925">
        <ele>10.1</ele>
        <time>2020-06-06T10:04:14Z</time>
      </trkpt>
      <trkpt lat="47.55644" lon="-2.49256">
        <ele>10.2</ele>
        <time>2020-06-06T10:04:15Z</time>
      </trkpt>
      <trkpt lat="47.55647" lon="-2.4926">
        <ele>10.2</ele>
        <time>2020-06-06T10:04:16Z</time>
      </trkpt>
      <trkpt lat="47.55651" lon="-2.49265">
        <ele>10.3</ele>
        <time>2020-06-06T10:04:17Z</time>
      </trkpt>
      <trkpt lat="47.55654" lon="-2.49269">
        <ele>10.4</ele>
        <time>2020-06-06T10:04:18Z</time>
      </trkpt>
      <trkpt lat="47.55657" lon="-2.49274">
        <ele>10.4</ele>
        <time>2020-06-06T10:04:19Z</time>
      </trkpt>
      <trkpt lat="47.5566" lon="-2.49279">
        <ele>10.5</ele>
        <time>2020-06-06T10:04:20Z</time>
      </trkpt>
      <trkpt lat="47.55664" lon="-2.49285">
        <ele>10.5</ele>
        <time>2020-06-06T10:04:21Z</time>
      </trkpt>
      <trkpt lat="47.55667" lon="-2.49289">
        <ele>10.5</ele>
        <time>2020-06-06T10:04:22Z</time>
      </trkpt>
      <trkpt lat="47.55671" lon="-2.49295">
        <ele>10.5</ele>
        <time>2020-06-06T10:04:23Z</time>
      </trkpt>
      <trkpt lat="47.55674" lon="-2.493">
        <ele>10.4</ele>
        <time>2020-06-06T10:04:24Z</time>
      </trkpt>
      <trkpt lat="47.55676" lon="-2.49304">
        <ele>10.4</ele>
        <time>2020-06-06T10:04:25Z</time>
      </trkpt>
      <trkpt lat="47.5568" lon="-2.49309">
        <ele>10.4</ele>
        <time>2020-06-06T10:04:26Z</time>
      </trkpt>
      <trkpt lat="47.55684" lon="-2.49316">
        <ele>10.3</ele>
        <time>2020-06-06T10:04:27Z</time>
      </trkpt>
      <trkpt lat="47.55687" lon="-2.49323">
        <ele>10.3</ele>
        <time>2020-06-06T10:04:28Z</time>
      </trkpt>
      <trkpt lat="47.55691" lon="-2.4933">
        <ele>10.3</ele>
        <time>2020-06-06T10:04:29Z</time>
      </trkpt>
      <trkpt lat="47.55694" lon="-2.49337">
        <ele>10.3</ele>
        <time>2020-06-06T10:04:30Z</time>
      </trkpt>
      <trkpt lat="47.55698" lon="-2.49345">
        <ele>10.2</ele>
        <time>2020-06-06T10:04:31Z</time>
      </trkpt>
      <trkpt lat="47.55701" lon="-2.49352">
        <ele>10.2</ele>
        <time>2020-06-06T10:04:32Z</time>
      </trkpt>
      <trkpt lat="47.55704" lon="-2.49358">
        <ele>10.2</ele>
        <time>2020-06-06T10:04:33Z</time>
      </trkpt>
      <trkpt lat="47.55708" lon="-2.49364">
        <ele>10.2</ele>
        <time>2020-06-06T10:04:34Z</time>
      </trkpt>
      <trkpt lat="47.55711" lon="-2.49371">
        <ele>10.2</ele>
        <time>2020-06-06T10:04:35Z</time>
      </trkpt>
      <trkpt lat="47.55715" lon="-2.49377">
        <ele>10.2</ele>
        <time>2020-06-06T10:04:36Z</time>
      </trkpt>
      <trkpt lat="47.55718" lon="-2.49383">
        <ele>10.2</ele>
        <time>2020-06-06T10:04:37Z</time>
      </trkpt>
      <trkpt lat="47.55721" lon="-2.4939">
        <ele>10.2</ele>
        <time>2020-06-06T10:04:38Z</time>
      </trkpt>
      <trkpt lat="47.55725" lon="-2.49397">
        <ele>10.3</ele>
        <time>2020-06-06T10:04:39Z</time>
      </trkpt>
      <trkpt lat="47.55729" lon="-2.49403">
        <ele>10.3</ele>
        <time>2020-06-06T10:04:40Z</time>
      </trkpt>
      <trkpt lat="47.55732" lon="-2.49408">
        <ele>10.3</ele>
        <time>2020-06-06T10:04:41Z</time>
      </trkpt>
      <trkpt lat="47.55735" lon="-2.49413">
        <ele>10.3</ele>
        <time>2020-06-06T10:04:42Z</time>
      </trkpt>
      <trkpt lat="47.55739" lon="-2.49419">
        <ele>10.4</ele>
        <time>2020-06-06T10:04:43Z</time>
      </trkpt>
      <trkpt lat="47.55743" lon="-2.49425">
        <ele>10.4</ele>
        <time>2020-06-06T10:04:44Z</time>
      </trkpt>
      <trkpt lat="47.55747" lon="-2.4943">
        <ele>10.5</ele>
        <time>2020-06-06T10:04:45Z</time>
      </trkpt>
      <trkpt lat="47.55751" lon="-2.49434">
        <ele>10.5</ele>
        <time>2020-06-06T10:04:46Z</time>
      </trkpt>
      <trkpt lat="47.55754" lon="-2.49439">
        <ele>10.6</ele>
        <time>2020-06-06T10:04:47Z</time>
      </trkpt>
      <trkpt lat="47.55758" lon="-2.49444">
        <ele>10.7</ele>
        <time>2020-06-06T10:04:48Z</time>
      </trkpt>
      <trkpt lat="47.5576" lon="-2.49449">
        <ele>10.8</ele>
        <time>2020-06-06T10:04:49Z</time>
      </trkpt>
      <trkpt lat="47.55763" lon="-2.49453">
        <ele>10.8</ele>
        <time>2020-06-06T10:04:50Z</time>
      </trkpt>
      <trkpt lat="47.55765" lon="-2.49459">
        <ele>10.9</ele>
        <time>2020-06-06T10:04:51Z</time>
      </trkpt>
      <trkpt lat="47.55767" lon="-2.49464">
        <ele>11</ele>
        <time>2020-06-06T10:04:52Z</time>
      </trkpt>
      <trkpt lat="47.5577" lon="-2.4947">
        <ele>11.1</ele>
        <time>2020-06-06T10:04:53Z</time>
      </trkpt>
      <trkpt lat="47.55774" lon="-2.49476">
        <ele>11.2</ele>
        <time>2020-06-06T10:04:54Z</time>
      </trkpt>
      <trkpt lat="47.55776" lon="-2.49482">
        <ele>11.4</ele>
        <time>2020-06-06T10:04:55Z</time>
      </trkpt>
      <trkpt lat="47.5578" lon="-2.49486">
        <ele>11.6</ele>
        <time>2020-06-06T10:04:56Z</time>
      </trkpt>
      <trkpt lat="47.55783" lon="-2.49491">
        <ele>11.7</ele>
        <time>2020-06-06T10:04:57Z</time>
      </trkpt>
      <trkpt lat="47.55786" lon="-2.49497">
        <ele>11.9</ele>
        <time>2020-06-06T10:04:58Z</time>
      </trkpt>
      <trkpt lat="47.55789" lon="-2.49503">
        <ele>12.1</ele>
        <time>2020-06-06T10:04:59Z</time>
      </trkpt>
      <trkpt lat="47.55792" lon="-2.4951">
        <ele>12.4</ele>
        <time>2020-06-06T10:05:00Z</time>
      </trkpt>
      <trkpt lat="47.55793" lon="-2.49515">
        <ele>12.6</ele>
        <time>2020-06-06T10:05:01Z</time>
      </trkpt>
      <trkpt lat="47.55795" lon="-2.49519">
        <ele>12.7</ele>
        <time>2020-06-06T10:05:02Z</time>
      </trkpt>
      <trkpt lat="47.55796" lon="-2.49523">
        <ele>12.9</ele>
        <time>2020-06-06T10:05:03Z</time>
      </trkpt>
      <trkpt lat="47.55799" lon="-2.49528">
        <ele>13.1</ele>
        <time>2020-06-06T10:05:04Z</time>
      </trkpt>
      <trkpt lat="47.55801" lon="-2.49533">
        <ele>13.3</ele>
        <time>2020-06-06T10:05:05Z</time>
      </trkpt>
      <trkpt lat="47.55803" lon="-2.49538">
        <ele>13.5</ele>
        <time>2020-06-06T10:05:06Z</time>
      </trkpt>
      <trkpt lat="47.55805" lon="-2.49543">
        <ele>13.6</ele>
        <time>2020-06-06T10:05:07Z</time>
      </trkpt>
      <trkpt lat="47.55808" lon="-2.4955">
        <ele>13.9</ele>
        <time>2020-06-06T10:05:08Z</time>
      </trkpt>
      <trkpt lat="47.55809" lon="-2.49554">
        <ele>14</ele>
        <time>2020-06-06T10:05:09Z</time>
      </trkpt>
      <trkpt lat="47.55811" lon="-2.49558">
        <ele>14.2</ele>
        <time>2020-06-06T10:05:10Z</time>
      </trkpt>
      <trkpt lat="47.55812" lon="-2.49563">
        <ele>14.4</ele>
        <time>2020-06-06T10:05:11Z</time>
      </trkpt>
      <trkpt lat="47.55813" lon="-2.49567">
        <ele>14.5</ele>
        <time>2020-06-06T10:05:12Z</time>
      </trkpt>
      <trkpt lat="47.55815" lon="-2.49572">
        <ele>14.7</ele>
        <time>2020-06-06T10:05:13Z</time>
      </trkpt>
      <trkpt lat="47.55817" lon="-2.49577">
        <ele>14.9</ele>
        <time>2020-06-06T10:05:14Z</time>
      </trkpt>
      <trkpt lat="47.55819" lon="-2.49582">
        <ele>15.1</ele>
        <time>2020-06-06T10:05:15Z</time>
      </trkpt>
      <trkpt lat="47.5582" lon="-2.49587">
        <ele>15.3</ele>
        <time>2020-06-06T10:05:16Z</time>
      </trkpt>
      <trkpt lat="47.55821" lon="-2.49592">
        <ele>15.4</ele>
        <time>2020-06-06T10:05:17Z</time>
      </trkpt>
      <trkpt lat="47.55823" lon="-2.49597">
        <ele>15.6</ele>
        <time>2020-06-06T10:05:18Z</time>
      </trkpt>
      <trkpt lat="47.55824" lon="-2.49602">
        <ele>15.7</ele>
        <time>2020-06-06T10:05:19Z</time>
      </trkpt>
      <trkpt lat="47.55826" lon="-2.49608">
        <ele>15.8</ele>
        <time>2020-06-06T10:05:20Z</time>
      </trkpt>
      <trkpt lat="47.55827" lon="-2.49614">
        <ele>16</ele>
        <time>2020-06-06T10:05:21Z</time>
      </trkpt>
      <trkpt lat="47.55828" lon="-2.4962">
        <ele>16.1</ele>
        <time>2020-06-06T10:05:22Z</time>
      </trkpt>
      <trkpt lat="47.5583" lon="-2.49625">
        <ele>16.2</ele>
        <time>2020-06-06T10:05:23Z</time>
      </trkpt>
      <trkpt lat="47.55831" lon="-2.49632">
        <ele>16.3</ele>
        <time>2020-06-06T10:05:24Z</time>
      </trkpt>
      <trkpt lat="47.55833" lon="-2.49639">
        <ele>16.4</ele>
        <time>2020-06-06T10:05:25Z</time>
      </trkpt>
      <trkpt lat="47.55835" lon="-2.49645">
        <ele>16.5</ele>
        <time>2020-06-06T10:05:26Z</time>
      </trkpt>
      <trkpt lat="47.55835" lon="-2.49647">
        <ele>16.5</ele>
        <time>2020-06-06T10:05:27Z</time>
      </trkpt>
      <trkpt lat="47.55837" lon="-2.49652">
        <ele>16.5</ele>
        <time>2020-06-06T10:05:28Z</time>
      </trkpt>
      <trkpt lat="47.55839" lon="-2.49658">
        <ele>16.6</ele>
        <time>2020-06-06T10:05:29Z</time>
      </trkpt>
      <trkpt lat="47.55841" lon="-2.49664">
        <ele>16.6</ele>
        <time>2020-06-06T10:05:30Z</time>
      </trkpt>
      <trkpt lat="47.55843" lon="-2.49669">
        <ele>16.7</ele>
        <time>2020-06-06T10:05:31Z</time>
      </trkpt>
      <trkpt lat="47.55846" lon="-2.49677">
        <ele>16.8</ele>
        <time>2020-06-06T10:05:32Z</time>
      </trkpt>
      <trkpt lat="47.55847" lon="-2.49682">
        <ele>16.8</ele>
        <time>2020-06-06T10:05:33Z</time>
      </trkpt>
      <trkpt lat="47.55849" lon="-2.49689">
        <ele>16.9</ele>
        <time>2020-06-06T10:05:34Z</time>
      </trkpt>
      <trkpt lat="47.5585" lon="-2.49694">
        <ele>17</ele>
        <time>2020-06-06T10:05:35Z</time>
      </trkpt>
      <trkpt lat="47.55852" lon="-2.49699">
        <ele>17.1</ele>
        <time>2020-06-06T10:05:36Z</time>
      </trkpt>
      <trkpt lat="47.55855" lon="-2.49707">
        <ele>17.2</ele>
        <time>2020-06-06T10:05:37Z</time>
      </trkpt>
      <trkpt lat="47.55857" lon="-2.49714">
        <ele>17.2</ele>
        <time>2020-06-06T10:05:38Z</time>
      </trkpt>
      <trkpt lat="47.55859" lon="-2.49719">
        <ele>17.3</ele>
        <time>2020-06-06T10:05:39Z</time>
      </trkpt>
      <trkpt lat="47.55861" lon="-2.49725">
        <ele>17.3</ele>
        <time>2020-06-06T10:05:40Z</time>
      </trkpt>
      <trkpt lat="47.55864" lon="-2.49731">
        <ele>17.4</ele>
        <time>2020-06-06T10:05:41Z</time>
      </trkpt>
      <trkpt lat="47.55866" lon="-2.49737">
        <ele>17.4</ele>
        <time>2020-06-06T10:05:42Z</time>
      </trkpt>
      <trkpt lat="47.55869" lon="-2.49743">
        <ele>17.4</ele>
        <time>2020-06-06T10:05:43Z</time>
      </trkpt>
      <trkpt lat="47.55872" lon="-2.49749">
        <ele>17.3</ele>
        <time>2020-06-06T10:05:44Z</time>
      </trkpt>
      <trkpt lat="47.55875" lon="-2.49754">
        <ele>17.3</ele>
        <time>2020-06-06T10:05:45Z</time>
      </trkpt>
      <trkpt lat="47.55877" lon="-2.49758">
        <ele>17.3</ele>
        <time>2020-06-06T10:05:46Z</time>
      </trkpt>
      <trkpt lat="47.5588" lon="-2.49763">
        <ele>17.2</ele>
        <time>2020-06-06T10:05:47Z</time>
      </trkpt>
      <trkpt lat="47.55882" lon="-2.49768">
        <ele>17.2</ele>
        <time>2020-06-06T10:05:48Z</time>
      </trkpt>
      <trkpt lat="47.55884" lon="-2.49774">
        <ele>17.1</ele>
        <time>2020-06-06T10:05:49Z</time>
      </trkpt>
      <trkpt lat="47.55887" lon="-2.49779">
        <ele>17.1</ele>
        <time>2020-06-06T10:05:50Z</time>
      </trkpt>
      <trkpt lat="47.5589" lon="-2.49784">
        <ele>17</ele>
        <time>2020-06-06T10:05:51Z</time>
      </trkpt>
      <trkpt lat="47.55892" lon="-2.49789">
        <ele>17</ele>
        <time>2020-06-06T10:05:52Z</time>
      </trkpt>
      <trkpt lat="47.55896" lon="-2.49793">
        <ele>16.8</ele>
        <time>2020-06-06T10:05:53Z</time>
      </trkpt>
      <trkpt lat="47.559" lon="-2.49797">
        <ele>16.7</ele>
        <time>2020-06-06T10:05:54Z</time>
      </trkpt>
      <trkpt lat="47.55906" lon="-2.49797">
        <ele>16.5</ele>
        <time>2020-06-06T10:05:55Z</time>
      </trkpt>
      <trkpt lat="47.55914" lon="-2.49797">
        <ele>16.2</ele>
        <time>2020-06-06T10:05:56Z</time>
      </trkpt>
      <trkpt lat="47.5592" lon="-2.49798">
        <ele>16</ele>
        <time>2020-06-06T10:05:57Z</time>
      </trkpt>
      <trkpt lat="47.55925" lon="-2.49799">
        <ele>15.8</ele>
        <time>2020-06-06T10:05:58Z</time>
      </trkpt>
      <trkpt lat="47.55931" lon="-2.498">
        <ele>15.6</ele>
        <time>2020-06-06T10:05:59Z</time>
      </trkpt>
      <trkpt lat="47.55937" lon="-2.49802">
        <ele>15.4</ele>
        <time>2020-06-06T10:06:00Z</time>
      </trkpt>
      <trkpt lat="47.55942" lon="-2.49804">
        <ele>15.2</ele>
        <time>2020-06-06T10:06:01Z</time>
      </trkpt>
      <trkpt lat="47.55948" lon="-2.49804">
        <ele>15.2</ele>
        <time>2020-06-06T10:06:02Z</time>
      </trkpt>
      <trkpt lat="47.55954" lon="-2.49801">
        <ele>15.2</ele>
        <time>2020-06-06T10:06:03Z</time>
      </trkpt>
      <trkpt lat="47.55958" lon="-2.49796">
        <ele>15.2</ele>
        <time>2020-06-06T10:06:04Z</time>
      </trkpt>
      <trkpt lat="47.55961" lon="-2.49789">
        <ele>15.2</ele>
        <time>2020-06-06T10:06:05Z</time>
      </trkpt>
      <trkpt lat="47.55965" lon="-2.49781">
        <ele>15.4</ele>
        <time>2020-06-06T10:06:06Z</time>
      </trkpt>
      <trkpt lat="47.55967" lon="-2.49774">
        <ele>15.4</ele>
        <time>2020-06-06T10:06:07Z</time>
      </trkpt>
      <trkpt lat="47.5597" lon="-2.49768">
        <ele>15.4</ele>
        <time>2020-06-06T10:06:08Z</time>
      </trkpt>
      <trkpt lat="47.55972" lon="-2.49761">
        <ele>15.4</ele>
        <time>2020-06-06T10:06:09Z</time>
      </trkpt>
      <trkpt lat="47.55975" lon="-2.49755">
        <ele>15.4</ele>
        <time>2020-06-06T10:06:10Z</time>
      </trkpt>
      <trkpt lat="47.55978" lon="-2.49749">
        <ele>15.5</ele>
        <time>2020-06-06T10:06:11Z</time>
      </trkpt>
      <trkpt lat="47.55982" lon="-2.49748">
        <ele>15.5</ele>
        <time>2020-06-06T10:06:12Z</time>
      </trkpt>
      <trkpt lat="47.55987" lon="-2.49749">
        <ele>15.6</ele>
        <time>2020-06-06T10:06:13Z</time>
      </trkpt>
      <trkpt lat="47.55991" lon="-2.4975">
        <ele>15.6</ele>
        <time>2020-06-06T10:06:14Z</time>
      </trkpt>
      <trkpt lat="47.55994" lon="-2.49753">
        <ele>15.6</ele>
        <time>2020-06-06T10:06:15Z</time>
      </trkpt>
      <trkpt lat="47.55997" lon="-2.49757">
        <ele>15.7</ele>
        <time>2020-06-06T10:06:16Z</time>
      </trkpt>
      <trkpt lat="47.56" lon="-2.49761">
        <ele>16</ele>
        <time>2020-06-06T10:06:17Z</time>
      </trkpt>
      <trkpt lat="47.56004" lon="-2.49764">
        <ele>16.1</ele>
        <time>2020-06-06T10:06:18Z</time>
      </trkpt>
      <trkpt lat="47.56007" lon="-2.49766">
        <ele>16.2</ele>
        <time>2020-06-06T10:06:19Z</time>
      </trkpt>
      <trkpt lat="47.56011" lon="-2.49767">
        <ele>16.4</ele>
        <time>2020-06-06T10:06:20Z</time>
      </trkpt>
      <trkpt lat="47.56015" lon="-2.49769">
        <ele>16.5</ele>
        <time>2020-06-06T10:06:21Z</time>
      </trkpt>
      <trkpt lat="47.56019" lon="-2.49772">
        <ele>16.6</ele>
        <time>2020-06-06T10:06:22Z</time>
      </trkpt>
      <trkpt lat="47.56024" lon="-2.49772">
        <ele>16.8</ele>
        <time>2020-06-06T10:06:23Z</time>
      </trkpt>
      <trkpt lat="47.56027" lon="-2.49774">
        <ele>16.9</ele>
        <time>2020-06-06T10:06:24Z</time>
      </trkpt>
      <trkpt lat="47.56031" lon="-2.49776">
        <ele>17</ele>
        <time>2020-06-06T10:06:25Z</time>
      </trkpt>
      <trkpt lat="47.56035" lon="-2.49778">
        <ele>17.2</ele>
        <time>2020-06-06T10:06:26Z</time>
      </trkpt>
      <trkpt lat="47.56039" lon="-2.4978">
        <ele>17.3</ele>
        <time>2020-06-06T10:06:27Z</time>
      </trkpt>
      <trkpt lat="47.56044" lon="-2.49784">
        <ele>17.5</ele>
        <time>2020-06-06T10:06:28Z</time>
      </trkpt>
      <trkpt lat="47.56047" lon="-2.49786">
        <ele>17.6</ele>
        <time>2020-06-06T10:06:29Z</time>
      </trkpt>
      <trkpt lat="47.56051" lon="-2.4979">
        <ele>17.8</ele>
        <time>2020-06-06T10:06:30Z</time>
      </trkpt>
      <trkpt lat="47.56057" lon="-2.49793">
        <ele>18</ele>
        <time>2020-06-06T10:06:31Z</time>
      </trkpt>
      <trkpt lat="47.56062" lon="-2.49796">
        <ele>18.2</ele>
        <time>2020-06-06T10:06:32Z</time>
      </trkpt>
      <trkpt lat="47.56065" lon="-2.49798">
        <ele>18.3</ele>
        <time>2020-06-06T10:06:33Z</time>
      </trkpt>
      <trkpt lat="47.56069" lon="-2.49801">
        <ele>18.4</ele>
        <time>2020-06-06T10:06:34Z</time>
      </trkpt>
      <trkpt lat="47.56073" lon="-2.49804">
        <ele>18.6</ele>
        <time>2020-06-06T10:06:35Z</time>
      </trkpt>
      <trkpt lat="47.56076" lon="-2.49807">
        <ele>18.7</ele>
        <time>2020-06-06T10:06:36Z</time>
      </trkpt>
      <trkpt lat="47.5608" lon="-2.4981">
        <ele>18.8</ele>
        <time>2020-06-06T10:06:37Z</time>
      </trkpt>
      <trkpt lat="47.56084" lon="-2.49813">
        <ele>18.9</ele>
        <time>2020-06-06T10:06:38Z</time>
      </trkpt>
      <trkpt lat="47.56089" lon="-2.49817">
        <ele>19</ele>
        <time>2020-06-06T10:06:39Z</time>
      </trkpt>
      <trkpt lat="47.56093" lon="-2.49821">
        <ele>19.1</ele>
        <time>2020-06-06T10:06:40Z</time>
      </trkpt>
      <trkpt lat="47.56097" lon="-2.49824">
        <ele>19.2</ele>
        <time>2020-06-06T10:06:41Z</time>
      </trkpt>
      <trkpt lat="47.56102" lon="-2.49827">
        <ele>19.4</ele>
        <time>2020-06-06T10:06:42Z</time>
      </trkpt>
      <trkpt lat="47.56105" lon="-2.4983">
        <ele>19.4</ele>
        <time>2020-06-06T10:06:43Z</time>
      </trkpt>
      <trkpt lat="47.56109" lon="-2.49833">
        <ele>19.5</ele>
        <time>2020-06-06T10:06:44Z</time>
      </trkpt>
      <trkpt lat="47.56113" lon="-2.49836">
        <ele>19.6</ele>
        <time>2020-06-06T10:06:45Z</time>
      </trkpt>
      <trkpt lat="47.56117" lon="-2.49839">
        <ele>19.7</ele>
        <time>2020-06-06T10:06:46Z</time>
      </trkpt>
      <trkpt lat="47.56122" lon="-2.49842">
        <ele>19.8</ele>
        <time>2020-06-06T10:06:47Z</time>
      </trkpt>
      <trkpt lat="47.56127" lon="-2.49845">
        <ele>19.9</ele>
        <time>2020-06-06T10:06:48Z</time>
      </trkpt>
      <trkpt lat="47.56131" lon="-2.49848">
        <ele>20</ele>
        <time>2020-06-06T10:06:49Z</time>
      </trkpt>
      <trkpt lat="47.56136" lon="-2.49851">
        <ele>20.1</ele>
        <time>2020-06-06T10:06:50Z</time>
      </trkpt>
      <trkpt lat="47.56139" lon="-2.49854">
        <ele>20.1</ele>
        <time>2020-06-06T10:06:51Z</time>
      </trkpt>
      <trkpt lat="47.56143" lon="-2.49857">
        <ele>20.2</ele>
        <time>2020-06-06T10:06:52Z</time>
      </trkpt>
      <trkpt lat="47.56148" lon="-2.4986">
        <ele>20.3</ele>
        <time>2020-06-06T10:06:53Z</time>
      </trkpt>
      <trkpt lat="47.56153" lon="-2.49863">
        <ele>20.3</ele>
        <time>2020-06-06T10:06:54Z</time>
      </trkpt>
      <trkpt lat="47.56156" lon="-2.49866">
        <ele>20.4</ele>
        <time>2020-06-06T10:06:55Z</time>
      </trkpt>
      <trkpt lat="47.56159" lon="-2.49868">
        <ele>20.4</ele>
        <time>2020-06-06T10:06:56Z</time>
      </trkpt>
      <trkpt lat="47.56162" lon="-2.49872">
        <ele>20.5</ele>
        <time>2020-06-06T10:06:57Z</time>
      </trkpt>
      <trkpt lat="47.56167" lon="-2.49875">
        <ele>20.6</ele>
        <time>2020-06-06T10:06:58Z</time>
      </trkpt>
      <trkpt lat="47.5617" lon="-2.49878">
        <ele>20.7</ele>
        <time>2020-06-06T10:06:59Z</time>
      </trkpt>
      <trkpt lat="47.56174" lon="-2.49882">
        <ele>20.8</ele>
        <time>2020-06-06T10:07:00Z</time>
      </trkpt>
      <trkpt lat="47.56179" lon="-2.49886">
        <ele>20.9</ele>
        <time>2020-06-06T10:07:01Z</time>
      </trkpt>
      <trkpt lat="47.56183" lon="-2.49889">
        <ele>21</ele>
        <time>2020-06-06T10:07:02Z</time>
      </trkpt>
      <trkpt lat="47.56187" lon="-2.49892">
        <ele>21</ele>
        <time>2020-06-06T10:07:03Z</time>
      </trkpt>
      <trkpt lat="47.5619" lon="-2.49895">
        <ele>21.1</ele>
        <time>2020-06-06T10:07:04Z</time>
      </trkpt>
      <trkpt lat="47.56194" lon="-2.499">
        <ele>21.2</ele>
        <time>2020-06-06T10:07:05Z</time>
      </trkpt>
      <trkpt lat="47.56198" lon="-2.49903">
        <ele>21.2</ele>
        <time>2020-06-06T10:07:06Z</time>
      </trkpt>
      <trkpt lat="47.56201" lon="-2.49906">
        <ele>21.3</ele>
        <time>2020-06-06T10:07:07Z</time>
      </trkpt>
      <trkpt lat="47.56204" lon="-2.49911">
        <ele>21.3</ele>
        <time>2020-06-06T10:07:08Z</time>
      </trkpt>
      <trkpt lat="47.56207" lon="-2.49913">
        <ele>21.4</ele>
        <time>2020-06-06T10:07:09Z</time>
      </trkpt>
      <trkpt lat="47.5621" lon="-2.49915">
        <ele>21.4</ele>
        <time>2020-06-06T10:07:10Z</time>
      </trkpt>
      <trkpt lat="47.56212" lon="-2.49919">
        <ele>21.5</ele>
        <time>2020-06-06T10:07:11Z</time>
      </trkpt>
      <trkpt lat="47.56215" lon="-2.49923">
        <ele>21.6</ele>
        <time>2020-06-06T10:07:12Z</time>
      </trkpt>
      <trkpt lat="47.5622" lon="-2.49928">
        <ele>21.7</ele>
        <time>2020-06-06T10:07:13Z</time>
      </trkpt>
      <trkpt lat="47.56223" lon="-2.49933">
        <ele>21.8</ele>
        <time>2020-06-06T10:07:14Z</time>
      </trkpt>
      <trkpt lat="47.56226" lon="-2.49937">
        <ele>21.8</ele>
        <time>2020-06-06T10:07:15Z</time>
      </trkpt>
      <trkpt lat="47.56229" lon="-2.49941">
        <ele>21.9</ele>
        <time>2020-06-06T10:07:16Z</time>
      </trkpt>
      <trkpt lat="47.56232" lon="-2.49944">
        <ele>21.9</ele>
        <time>2020-06-06T10:07:17Z</time>
      </trkpt>
      <trkpt lat="47.56235" lon="-2.49948">
        <ele>21.9</ele>
        <time>2020-06-06T10:07:18Z</time>
      </trkpt>
      <trkpt lat="47.56237" lon="-2.49953">
        <ele>22</ele>
        <time>2020-06-06T10:07:19Z</time>
      </trkpt>
      <trkpt lat="47.5624" lon="-2.49958">
        <ele>22</ele>
        <time>2020-06-06T10:07:20Z</time>
      </trkpt>
      <trkpt lat="47.56242" lon="-2.49963">
        <ele>22.1</ele>
        <time>2020-06-06T10:07:21Z</time>
      </trkpt>
      <trkpt lat="47.56244" lon="-2.49967">
        <ele>22.1</ele>
        <time>2020-06-06T10:07:22Z</time>
      </trkpt>
      <trkpt lat="47.56247" lon="-2.49971">
        <ele>22.1</ele>
        <time>2020-06-06T10:07:23Z</time>
      </trkpt>
      <trkpt lat="47.5625" lon="-2.49977">
        <ele>22.2</ele>
        <time>2020-06-06T10:07:24Z</time>
      </trkpt>
      <trkpt lat="47.56253" lon="-2.49982">
        <ele>22.2</ele>
        <time>2020-06-06T10:07:25Z</time>
      </trkpt>
      <trkpt lat="47.56256" lon="-2.49988">
        <ele>22.2</ele>
        <time>2020-06-06T10:07:26Z</time>
      </trkpt>
      <trkpt lat="47.56258" lon="-2.49992">
        <ele>22.3</ele>
        <time>2020-06-06T10:07:27Z</time>
      </trkpt>
      <trkpt lat="47.56261" lon="-2.49998">
        <ele>22.3</ele>
        <time>2020-06-06T10:07:28Z</time>
      </trkpt>
      <trkpt lat="47.56264" lon="-2.50002">
        <ele>22.3</ele>
        <time>2020-06-06T10:07:29Z</time>
      </trkpt>
      <trkpt lat="47.56266" lon="-2.50007">
        <ele>22.4</ele>
        <time>2020-06-06T10:07:30Z</time>
      </trkpt>
      <trkpt lat="47.5627" lon="-2.50012">
        <ele>22.5</ele>
        <time>2020-06-06T10:07:31Z</time>
      </trkpt>
      <trkpt lat="47.56274" lon="-2.50017">
        <ele>22.5</ele>
        <time>2020-06-06T10:07:32Z</time>
      </trkpt>
      <trkpt lat="47.56277" lon="-2.50022">
        <ele>22.6</ele>
        <time>2020-06-06T10:07:33Z</time>
      </trkpt>
      <trkpt lat="47.56279" lon="-2.50026">
        <ele>22.7</ele>
        <time>2020-06-06T10:07:34Z</time>
      </trkpt>
      <trkpt lat="47.56281" lon="-2.50032">
        <ele>22.7</ele>
        <time>2020-06-06T10:07:35Z</time>
      </trkpt>
      <trkpt lat="47.56283" lon="-2.50039">
        <ele>22.8</ele>
        <time>2020-06-06T10:07:36Z</time>
      </trkpt>
      <trkpt lat="47.56286" lon="-2.50045">
        <ele>22.9</ele>
        <time>2020-06-06T10:07:37Z</time>
      </trkpt>
      <trkpt lat="47.56288" lon="-2.5005">
        <ele>22.9</ele>
        <time>2020-06-06T10:07:38Z</time>
      </trkpt>
      <trkpt lat="47.5629" lon="-2.50055">
        <ele>23</ele>
        <time>2020-06-06T10:07:39Z</time>
      </trkpt>
      <trkpt lat="47.56293" lon="-2.50061">
        <ele>23</ele>
        <time>2020-06-06T10:07:40Z</time>
      </trkpt>
      <trkpt lat="47.56297" lon="-2.50067">
        <ele>23.1</ele>
        <time>2020-06-06T10:07:41Z</time>
      </trkpt>
      <trkpt lat="47.563" lon="-2.50071">
        <ele>23.1</ele>
        <time>2020-06-06T10:07:42Z</time>
      </trkpt>
      <trkpt lat="47.56303" lon="-2.50076">
        <ele>23.1</ele>
        <time>2020-06-06T10:07:43Z</time>
      </trkpt>
      <trkpt lat="47.56305" lon="-2.5008">
        <ele>23.2</ele>
        <time>2020-06-06T10:07:44Z</time>
      </trkpt>
      <trkpt lat="47.56307" lon="-2.50084">
        <ele>23.2</ele>
        <time>2020-06-06T10:07:45Z</time>
      </trkpt>
      <trkpt lat="47.56312" lon="-2.50089">
        <ele>23.3</ele>
        <time>2020-06-06T10:07:46Z</time>
      </trkpt>
      <trkpt lat="47.56314" lon="-2.50094">
        <ele>23.3</ele>
        <time>2020-06-06T10:07:47Z</time>
      </trkpt>
      <trkpt lat="47.56317" lon="-2.50099">
        <ele>23.3</ele>
        <time>2020-06-06T10:07:48Z</time>
      </trkpt>
      <trkpt lat="47.56319" lon="-2.50104">
        <ele>23.4</ele>
        <time>2020-06-06T10:07:49Z</time>
      </trkpt>
      <trkpt lat="47.56322" lon="-2.50108">
        <ele>23.4</ele>
        <time>2020-06-06T10:07:50Z</time>
      </trkpt>
      <trkpt lat="47.56325" lon="-2.50113">
        <ele>23.5</ele>
        <time>2020-06-06T10:07:51Z</time>
      </trkpt>
      <trkpt lat="47.56328" lon="-2.50118">
        <ele>23.5</ele>
        <time>2020-06-06T10:07:52Z</time>
      </trkpt>
      <trkpt lat="47.5633" lon="-2.50123">
        <ele>23.5</ele>
        <time>2020-06-06T10:07:53Z</time>
      </trkpt>
      <trkpt lat="47.56331" lon="-2.5013">
        <ele>23.6</ele>
        <time>2020-06-06T10:07:54Z</time>
      </trkpt>
      <trkpt lat="47.5633" lon="-2.50138">
        <ele>23.5</ele>
        <time>2020-06-06T10:07:55Z</time>
      </trkpt>
      <trkpt lat="47.56329" lon="-2.50145">
        <ele>23.5</ele>
        <time>2020-06-06T10:07:56Z</time>
      </trkpt>
      <trkpt lat="47.56329" lon="-2.50151">
        <ele>23.6</ele>
        <time>2020-06-06T10:07:57Z</time>
      </trkpt>
      <trkpt lat="47.5633" lon="-2.50157">
        <ele>23.7</ele>
        <time>2020-06-06T10:07:58Z</time>
      </trkpt>
      <trkpt lat="47.56332" lon="-2.50163">
        <ele>23.8</ele>
        <time>2020-06-06T10:07:59Z</time>
      </trkpt>
      <trkpt lat="47.56335" lon="-2.50168">
        <ele>23.9</ele>
        <time>2020-06-06T10:08:00Z</time>
      </trkpt>
      <trkpt lat="47.56337" lon="-2.50174">
        <ele>23.9</ele>
        <time>2020-06-06T10:08:01Z</time>
      </trkpt>
      <trkpt lat="47.56339" lon="-2.50178">
        <ele>24</ele>
        <time>2020-06-06T10:08:02Z</time>
      </trkpt>
      <trkpt lat="47.56342" lon="-2.50183">
        <ele>24</ele>
        <time>2020-06-06T10:08:03Z</time>
      </trkpt>
      <trkpt lat="47.56344" lon="-2.50189">
        <ele>24.1</ele>
        <time>2020-06-06T10:08:04Z</time>
      </trkpt>
      <trkpt lat="47.56347" lon="-2.50195">
        <ele>24.2</ele>
        <time>2020-06-06T10:08:05Z</time>
      </trkpt>
      <trkpt lat="47.56349" lon="-2.50202">
        <ele>24.2</ele>
        <time>2020-06-06T10:08:06Z</time>
      </trkpt>
      <trkpt lat="47.56351" lon="-2.50208">
        <ele>24.3</ele>
        <time>2020-06-06T10:08:07Z</time>
      </trkpt>
      <trkpt lat="47.56353" lon="-2.50215">
        <ele>24.3</ele>
        <time>2020-06-06T10:08:08Z</time>
      </trkpt>
      <trkpt lat="47.56354" lon="-2.5022">
        <ele>24.4</ele>
        <time>2020-06-06T10:08:09Z</time>
      </trkpt>
      <trkpt lat="47.56356" lon="-2.50225">
        <ele>24.4</ele>
        <time>2020-06-06T10:08:10Z</time>
      </trkpt>
      <trkpt lat="47.56357" lon="-2.5023">
        <ele>24.4</ele>
        <time>2020-06-06T10:08:11Z</time>
      </trkpt>
      <trkpt lat="47.5636" lon="-2.50236">
        <ele>24.5</ele>
        <time>2020-06-06T10:08:12Z</time>
      </trkpt>
      <trkpt lat="47.56362" lon="-2.50244">
        <ele>24.6</ele>
        <time>2020-06-06T10:08:13Z</time>
      </trkpt>
      <trkpt lat="47.56364" lon="-2.50251">
        <ele>24.7</ele>
        <time>2020-06-06T10:08:14Z</time>
      </trkpt>
      <trkpt lat="47.56366" lon="-2.50259">
        <ele>24.8</ele>
        <time>2020-06-06T10:08:15Z</time>
      </trkpt>
      <trkpt lat="47.56367" lon="-2.50265">
        <ele>24.9</ele>
        <time>2020-06-06T10:08:16Z</time>
      </trkpt>
      <trkpt lat="47.56368" lon="-2.50271">
        <ele>24.9</ele>
        <time>2020-06-06T10:08:17Z</time>
      </trkpt>
      <trkpt lat="47.5637" lon="-2.50277">
        <ele>25</ele>
        <time>2020-06-06T10:08:18Z</time>
      </trkpt>
      <trkpt lat="47.56372" lon="-2.50285">
        <ele>25</ele>
        <time>2020-06-06T10:08:19Z</time>
      </trkpt>
      <trkpt lat="47.56373" lon="-2.50292">
        <ele>25.1</ele>
        <time>2020-06-06T10:08:20Z</time>
      </trkpt>
      <trkpt lat="47.56374" lon="-2.50298">
        <ele>25.1</ele>
        <time>2020-06-06T10:08:21Z</time>
      </trkpt>
      <trkpt lat="47.56375" lon="-2.50304">
        <ele>25.1</ele>
        <time>2020-06-06T10:08:22Z</time>
      </trkpt>
      <trkpt lat="47.56377" lon="-2.50311">
        <ele>25.2</ele>
        <time>2020-06-06T10:08:23Z</time>
      </trkpt>
      <trkpt lat="47.56378" lon="-2.50319">
        <ele>25.2</ele>
        <time>2020-06-06T10:08:24Z</time>
      </trkpt>
      <trkpt lat="47.56378" lon="-2.50326">
        <ele>25.3</ele>
        <time>2020-06-06T10:08:25Z</time>
      </trkpt>
      <trkpt lat="47.56379" lon="-2.50334">
        <ele>25.4</ele>
        <time>2020-06-06T10:08:26Z</time>
      </trkpt>
      <trkpt lat="47.56379" lon="-2.50342">
        <ele>25.5</ele>
        <time>2020-06-06T10:08:27Z</time>
      </trkpt>
      <trkpt lat="47.5638" lon="-2.5035">
        <ele>25.6</ele>
        <time>2020-06-06T10:08:28Z</time>
      </trkpt>
      <trkpt lat="47.56381" lon="-2.50358">
        <ele>25.7</ele>
        <time>2020-06-06T10:08:29Z</time>
      </trkpt>
      <trkpt lat="47.56381" lon="-2.50367">
        <ele>25.9</ele>
        <time>2020-06-06T10:08:30Z</time>
      </trkpt>
      <trkpt lat="47.56382" lon="-2.50374">
        <ele>26</ele>
        <time>2020-06-06T10:08:31Z</time>
      </trkpt>
      <trkpt lat="47.56383" lon="-2.50381">
        <ele>26.1</ele>
        <time>2020-06-06T10:08:32Z</time>
      </trkpt>
      <trkpt lat="47.56384" lon="-2.50388">
        <ele>26.2</ele>
        <time>2020-06-06T10:08:33Z</time>
      </trkpt>
      <trkpt lat="47.56385" lon="-2.50394">
        <ele>26.3</ele>
        <time>2020-06-06T10:08:34Z</time>
      </trkpt>
      <trkpt lat="47.56386" lon="-2.504">
        <ele>26.3</ele>
        <time>2020-06-06T10:08:35Z</time>
      </trkpt>
      <trkpt lat="47.56387" lon="-2.50407">
        <ele>26.5</ele>
        <time>2020-06-06T10:08:36Z</time>
      </trkpt>
      <trkpt lat="47.56387" lon="-2.50413">
        <ele>26.6</ele>
        <time>2020-06-06T10:08:37Z</time>
      </trkpt>
      <trkpt lat="47.56387" lon="-2.50418">
        <ele>26.6</ele>
        <time>2020-06-06T10:08:38Z</time>
      </trkpt>
      <trkpt lat="47.56388" lon="-2.50422">
        <ele>26.7</ele>
        <time>2020-06-06T10:08:39Z</time>
      </trkpt>
      <trkpt lat="47.56388" lon="-2.50427">
        <ele>26.8</ele>
        <time>2020-06-06T10:08:40Z</time>
      </trkpt>
      <trkpt lat="47.56388" lon="-2.50433">
        <ele>27</ele>
        <time>2020-06-06T10:08:41Z</time>
      </trkpt>
      <trkpt lat="47.56387" lon="-2.50438">
        <ele>27</ele>
        <time>2020-06-06T10:08:42Z</time>
      </trkpt>
      <trkpt lat="47.56387" lon="-2.50443">
        <ele>27.1</ele>
        <time>2020-06-06T10:08:43Z</time>
      </trkpt>
      <trkpt lat="47.56387" lon="-2.50448">
        <ele>27.2</ele>
        <time>2020-06-06T10:08:44Z</time>
      </trkpt>
      <trkpt lat="47.56388" lon="-2.50453">
        <ele>27.3</ele>
        <time>2020-06-06T10:08:45Z</time>
      </trkpt>
      <trkpt lat="47.56389" lon="-2.50458">
        <ele>27.4</ele>
        <time>2020-06-06T10:08:46Z</time>
      </trkpt>
      <trkpt lat="47.56389" lon="-2.50463">
        <ele>27.4</ele>
        <time>2020-06-06T10:08:47Z</time>
      </trkpt>
      <trkpt lat="47.5639" lon="-2.50468">
        <ele>27.5</ele>
        <time>2020-06-06T10:08:48Z</time>
      </trkpt>
      <trkpt lat="47.5639" lon="-2.50474">
        <ele>27.6</ele>
        <time>2020-06-06T10:08:49Z</time>
      </trkpt>
      <trkpt lat="47.5639" lon="-2.5048">
        <ele>27.6</ele>
        <time>2020-06-06T10:08:50Z</time>
      </trkpt>
      <trkpt lat="47.56391" lon="-2.50486">
        <ele>27.7</ele>
        <time>2020-06-06T10:08:51Z</time>
      </trkpt>
      <trkpt lat="47.56392" lon="-2.50492">
        <ele>27.8</ele>
        <time>2020-06-06T10:08:52Z</time>
      </trkpt>
      <trkpt lat="47.56394" lon="-2.50498">
        <ele>27.8</ele>
        <time>2020-06-06T10:08:53Z</time>
      </trkpt>
      <trkpt lat="47.56395" lon="-2.50504">
        <ele>27.9</ele>
        <time>2020-06-06T10:08:54Z</time>
      </trkpt>
      <trkpt lat="47.56397" lon="-2.5051">
        <ele>27.9</ele>
        <time>2020-06-06T10:08:55Z</time>
      </trkpt>
      <trkpt lat="47.564" lon="-2.50517">
        <ele>28</ele>
        <time>2020-06-06T10:08:56Z</time>
      </trkpt>
      <trkpt lat="47.56402" lon="-2.50523">
        <ele>28</ele>
        <time>2020-06-06T10:08:57Z</time>
      </trkpt>
      <trkpt lat="47.56404" lon="-2.50528">
        <ele>28</ele>
        <time>2020-06-06T10:08:58Z</time>
      </trkpt>
      <trkpt lat="47.56406" lon="-2.50533">
        <ele>28.1</ele>
        <time>2020-06-06T10:08:59Z</time>
      </trkpt>
      <trkpt lat="47.56407" lon="-2.50537">
        <ele>28.1</ele>
        <time>2020-06-06T10:09:00Z</time>
      </trkpt>
      <trkpt lat="47.56408" lon="-2.50543">
        <ele>28.1</ele>
        <time>2020-06-06T10:09:01Z</time>
      </trkpt>
      <trkpt lat="47.5641" lon="-2.50549">
        <ele>28.2</ele>
        <time>2020-06-06T10:09:02Z</time>
      </trkpt>
      <trkpt lat="47.56411" lon="-2.50553">
        <ele>28.2</ele>
        <time>2020-06-06T10:09:03Z</time>
      </trkpt>
      <trkpt lat="47.56413" lon="-2.50559">
        <ele>28.2</ele>
        <time>2020-06-06T10:09:04Z</time>
      </trkpt>
      <trkpt lat="47.56414" lon="-2.50564">
        <ele>28.2</ele>
        <time>2020-06-06T10:09:05Z</time>
      </trkpt>
      <trkpt lat="47.56415" lon="-2.5057">
        <ele>28.3</ele>
        <time>2020-06-06T10:09:06Z</time>
      </trkpt>
      <trkpt lat="47.56417" lon="-2.50576">
        <ele>28.3</ele>
        <time>2020-06-06T10:09:07Z</time>
      </trkpt>
      <trkpt lat="47.56419" lon="-2.50581">
        <ele>28.4</ele>
        <time>2020-06-06T10:09:08Z</time>
      </trkpt>
      <trkpt lat="47.5642" lon="-2.50585">
        <ele>28.4</ele>
        <time>2020-06-06T10:09:09Z</time>
      </trkpt>
      <trkpt lat="47.56422" lon="-2.50589">
        <ele>28.4</ele>
        <time>2020-06-06T10:09:10Z</time>
      </trkpt>
      <trkpt lat="47.56424" lon="-2.50594">
        <ele>28.4</ele>
        <time>2020-06-06T10:09:11Z</time>
      </trkpt>
      <trkpt lat="47.56425" lon="-2.50599">
        <ele>28.4</ele>
        <time>2020-06-06T10:09:12Z</time>
      </trkpt>
      <trkpt lat="47.56426" lon="-2.50603">
        <ele>28.5</ele>
        <time>2020-06-06T10:09:13Z</time>
      </trkpt>
      <trkpt lat="47.56429" lon="-2.50607">
        <ele>28.5</ele>
        <time>2020-06-06T10:09:14Z</time>
      </trkpt>
      <trkpt lat="47.5643" lon="-2.50609">
        <ele>28.5</ele>
        <time>2020-06-06T10:09:15Z</time>
      </trkpt>
      <trkpt lat="47.56434" lon="-2.50609">
        <ele>28.5</ele>
        <time>2020-06-06T10:09:16Z</time>
      </trkpt>
      <trkpt lat="47.56435" lon="-2.5061">
        <ele>28.5</ele>
        <time>2020-06-06T10:09:17Z</time>
      </trkpt>
      <trkpt lat="47.56438" lon="-2.50613">
        <ele>28.6</ele>
        <time>2020-06-06T10:09:18Z</time>
      </trkpt>
      <trkpt lat="47.56439" lon="-2.50614">
        <ele>28.6</ele>
        <time>2020-06-06T10:09:19Z</time>
      </trkpt>
      <trkpt lat="47.56441" lon="-2.50618">
        <ele>28.6</ele>
        <time>2020-06-06T10:09:20Z</time>
      </trkpt>
      <trkpt lat="47.56442" lon="-2.50619">
        <ele>28.7</ele>
        <time>2020-06-06T10:09:21Z</time>
      </trkpt>
      <trkpt lat="47.56444" lon="-2.50622">
        <ele>28.7</ele>
        <time>2020-06-06T10:09:22Z</time>
      </trkpt>
      <trkpt lat="47.56446" lon="-2.50624">
        <ele>28.8</ele>
        <time>2020-06-06T10:09:23Z</time>
      </trkpt>
      <trkpt lat="47.56448" lon="-2.50626">
        <ele>29</ele>
        <time>2020-06-06T10:09:24Z</time>
      </trkpt>
      <trkpt lat="47.5645" lon="-2.50631">
        <ele>29.2</ele>
        <time>2020-06-06T10:09:25Z</time>
      </trkpt>
      <trkpt lat="47.56451" lon="-2.50633">
        <ele>29.2</ele>
        <time>2020-06-06T10:09:26Z</time>
      </trkpt>
      <trkpt lat="47.56451" lon="-2.50638">
        <ele>29.4</ele>
        <time>2020-06-06T10:09:27Z</time>
      </trkpt>
      <trkpt lat="47.56452" lon="-2.50642">
        <ele>29.4</ele>
        <time>2020-06-06T10:09:28Z</time>
      </trkpt>
      <trkpt lat="47.56453" lon="-2.50648">
        <ele>29.4</ele>
        <time>2020-06-06T10:09:29Z</time>
      </trkpt>
      <trkpt lat="47.56452" lon="-2.50652">
        <ele>29.1</ele>
        <time>2020-06-06T10:09:30Z</time>
      </trkpt>
      <trkpt lat="47.56451" lon="-2.50658">
        <ele>29</ele>
        <time>2020-06-06T10:09:31Z</time>
      </trkpt>
      <trkpt lat="47.56451" lon="-2.50663">
        <ele>28.9</ele>
        <time>2020-06-06T10:09:32Z</time>
      </trkpt>
      <trkpt lat="47.56452" lon="-2.50669">
        <ele>28.8</ele>
        <time>2020-06-06T10:09:33Z</time>
      </trkpt>
      <trkpt lat="47.56453" lon="-2.50675">
        <ele>28.8</ele>
        <time>2020-06-06T10:09:34Z</time>
      </trkpt>
      <trkpt lat="47.56454" lon="-2.5068">
        <ele>28.8</ele>
        <time>2020-06-06T10:09:35Z</time>
      </trkpt>
      <trkpt lat="47.56455" lon="-2.50686">
        <ele>28.8</ele>
        <time>2020-06-06T10:09:36Z</time>
      </trkpt>
      <trkpt lat="47.56457" lon="-2.50691">
        <ele>28.8</ele>
        <time>2020-06-06T10:09:37Z</time>
      </trkpt>
      <trkpt lat="47.56458" lon="-2.50696">
        <ele>28.7</ele>
        <time>2020-06-06T10:09:38Z</time>
      </trkpt>
      <trkpt lat="47.5646" lon="-2.50701">
        <ele>28.7</ele>
        <time>2020-06-06T10:09:39Z</time>
      </trkpt>
      <trkpt lat="47.56461" lon="-2.50707">
        <ele>28.8</ele>
        <time>2020-06-06T10:09:40Z</time>
      </trkpt>
      <trkpt lat="47.56463" lon="-2.50715">
        <ele>28.8</ele>
        <time>2020-06-06T10:09:41Z</time>
      </trkpt>
      <trkpt lat="47.56464" lon="-2.50721">
        <ele>28.8</ele>
        <time>2020-06-06T10:09:42Z</time>
      </trkpt>
      <trkpt lat="47.56466" lon="-2.50728">
        <ele>28.8</ele>
        <time>2020-06-06T10:09:43Z</time>
      </trkpt>
      <trkpt lat="47.56467" lon="-2.50734">
        <ele>28.8</ele>
        <time>2020-06-06T10:09:44Z</time>
      </trkpt>
      <trkpt lat="47.56468" lon="-2.5074">
        <ele>28.8</ele>
        <time>2020-06-06T10:09:45Z</time>
      </trkpt>
      <trkpt lat="47.56469" lon="-2.50746">
        <ele>28.8</ele>
        <time>2020-06-06T10:09:46Z</time>
      </trkpt>
      <trkpt lat="47.5647" lon="-2.50752">
        <ele>28.8</ele>
        <time>2020-06-06T10:09:47Z</time>
      </trkpt>
      <trkpt lat="47.56471" lon="-2.50758">
        <ele>28.8</ele>
        <time>2020-06-06T10:09:48Z</time>
      </trkpt>
      <trkpt lat="47.56472" lon="-2.50765">
        <ele>28.8</ele>
        <time>2020-06-06T10:09:49Z</time>
      </trkpt>
      <trkpt lat="47.56473" lon="-2.50772">
        <ele>28.8</ele>
        <time>2020-06-06T10:09:50Z</time>
      </trkpt>
      <trkpt lat="47.56474" lon="-2.50778">
        <ele>28.8</ele>
        <time>2020-06-06T10:09:51Z</time>
      </trkpt>
      <trkpt lat="47.56475" lon="-2.50787">
        <ele>28.8</ele>
        <time>2020-06-06T10:09:52Z</time>
      </trkpt>
      <trkpt lat="47.56476" lon="-2.50794">
        <ele>28.8</ele>
        <time>2020-06-06T10:09:53Z</time>
      </trkpt>
      <trkpt lat="47.56476" lon="-2.50801">
        <ele>28.8</ele>
        <time>2020-06-06T10:09:54Z</time>
      </trkpt>
      <trkpt lat="47.56477" lon="-2.50808">
        <ele>28.7</ele>
        <time>2020-06-06T10:09:55Z</time>
      </trkpt>
      <trkpt lat="47.56478" lon="-2.50815">
        <ele>28.7</ele>
        <time>2020-06-06T10:09:56Z</time>
      </trkpt>
      <trkpt lat="47.56479" lon="-2.50822">
        <ele>28.6</ele>
        <time>2020-06-06T10:09:57Z</time>
      </trkpt>
      <trkpt lat="47.5648" lon="-2.50829">
        <ele>28.6</ele>
        <time>2020-06-06T10:09:58Z</time>
      </trkpt>
      <trkpt lat="47.56481" lon="-2.50836">
        <ele>28.5</ele>
        <time>2020-06-06T10:09:59Z</time>
      </trkpt>
      <trkpt lat="47.56482" lon="-2.50842">
        <ele>28.5</ele>
        <time>2020-06-06T10:10:00Z</time>
      </trkpt>
      <trkpt lat="47.56483" lon="-2.50849">
        <ele>28.4</ele>
        <time>2020-06-06T10:10:01Z</time>
      </trkpt>
      <trkpt lat="47.56484" lon="-2.50856">
        <ele>28.4</ele>
        <time>2020-06-06T10:10:02Z</time>
      </trkpt>
      <trkpt lat="47.56485" lon="-2.50863">
        <ele>28.4</ele>
        <time>2020-06-06T10:10:03Z</time>
      </trkpt>
      <trkpt lat="47.56486" lon="-2.5087">
        <ele>28.4</ele>
        <time>2020-06-06T10:10:04Z</time>
      </trkpt>
      <trkpt lat="47.56486" lon="-2.50877">
        <ele>28.4</ele>
        <time>2020-06-06T10:10:05Z</time>
      </trkpt>
      <trkpt lat="47.56487" lon="-2.50884">
        <ele>28.4</ele>
        <time>2020-06-06T10:10:06Z</time>
      </trkpt>
      <trkpt lat="47.56488" lon="-2.50891">
        <ele>28.4</ele>
        <time>2020-06-06T10:10:07Z</time>
      </trkpt>
      <trkpt lat="47.5649" lon="-2.50897">
        <ele>28.4</ele>
        <time>2020-06-06T10:10:08Z</time>
      </trkpt>
      <trkpt lat="47.56491" lon="-2.50904">
        <ele>28.4</ele>
        <time>2020-06-06T10:10:09Z</time>
      </trkpt>
      <trkpt lat="47.56493" lon="-2.50912">
        <ele>28.4</ele>
        <time>2020-06-06T10:10:10Z</time>
      </trkpt>
      <trkpt lat="47.56495" lon="-2.5092">
        <ele>28.4</ele>
        <time>2020-06-06T10:10:11Z</time>
      </trkpt>
      <trkpt lat="47.56497" lon="-2.50926">
        <ele>28.4</ele>
        <time>2020-06-06T10:10:12Z</time>
      </trkpt>
      <trkpt lat="47.56499" lon="-2.50934">
        <ele>28.4</ele>
        <time>2020-06-06T10:10:13Z</time>
      </trkpt>
      <trkpt lat="47.56501" lon="-2.50941">
        <ele>28.4</ele>
        <time>2020-06-06T10:10:14Z</time>
      </trkpt>
      <trkpt lat="47.56502" lon="-2.50947">
        <ele>28.4</ele>
        <time>2020-06-06T10:10:15Z</time>
      </trkpt>
      <trkpt lat="47.56504" lon="-2.50954">
        <ele>28.4</ele>
        <time>2020-06-06T10:10:16Z</time>
      </trkpt>
      <trkpt lat="47.56506" lon="-2.5096">
        <ele>28.4</ele>
        <time>2020-06-06T10:10:17Z</time>
      </trkpt>
      <trkpt lat="47.56507" lon="-2.50967">
        <ele>28.4</ele>
        <time>2020-06-06T10:10:18Z</time>
      </trkpt>
      <trkpt lat="47.56509" lon="-2.50974">
        <ele>28.4</ele>
        <time>2020-06-06T10:10:19Z</time>
      </trkpt>
      <trkpt lat="47.56511" lon="-2.50981">
        <ele>28.3</ele>
        <time>2020-06-06T10:10:20Z</time>
      </trkpt>
      <trkpt lat="47.56512" lon="-2.50987">
        <ele>28.3</ele>
        <time>2020-06-06T10:10:21Z</time>
      </trkpt>
      <trkpt lat="47.56514" lon="-2.50993">
        <ele>28.3</ele>
        <time>2020-06-06T10:10:22Z</time>
      </trkpt>
      <trkpt lat="47.56516" lon="-2.51">
        <ele>28.3</ele>
        <time>2020-06-06T10:10:23Z</time>
      </trkpt>
      <trkpt lat="47.56518" lon="-2.51006">
        <ele>28.3</ele>
        <time>2020-06-06T10:10:24Z</time>
      </trkpt>
      <trkpt lat="47.56521" lon="-2.51013">
        <ele>28.2</ele>
        <time>2020-06-06T10:10:25Z</time>
      </trkpt>
      <trkpt lat="47.56523" lon="-2.51019">
        <ele>28.2</ele>
        <time>2020-06-06T10:10:26Z</time>
      </trkpt>
      <trkpt lat="47.56525" lon="-2.51026">
        <ele>28.1</ele>
        <time>2020-06-06T10:10:27Z</time>
      </trkpt>
      <trkpt lat="47.56527" lon="-2.51034">
        <ele>28.1</ele>
        <time>2020-06-06T10:10:28Z</time>
      </trkpt>
      <trkpt lat="47.56531" lon="-2.51041">
        <ele>28</ele>
        <time>2020-06-06T10:10:29Z</time>
      </trkpt>
      <trkpt lat="47.56533" lon="-2.51048">
        <ele>28</ele>
        <time>2020-06-06T10:10:30Z</time>
      </trkpt>
      <trkpt lat="47.56535" lon="-2.51055">
        <ele>27.9</ele>
        <time>2020-06-06T10:10:31Z</time>
      </trkpt>
      <trkpt lat="47.56538" lon="-2.51063">
        <ele>27.8</ele>
        <time>2020-06-06T10:10:32Z</time>
      </trkpt>
      <trkpt lat="47.56541" lon="-2.51069">
        <ele>27.8</ele>
        <time>2020-06-06T10:10:33Z</time>
      </trkpt>
      <trkpt lat="47.56544" lon="-2.51075">
        <ele>27.8</ele>
        <time>2020-06-06T10:10:34Z</time>
      </trkpt>
      <trkpt lat="47.56547" lon="-2.51081">
        <ele>27.7</ele>
        <time>2020-06-06T10:10:35Z</time>
      </trkpt>
      <trkpt lat="47.5655" lon="-2.51087">
        <ele>27.7</ele>
        <time>2020-06-06T10:10:36Z</time>
      </trkpt>
      <trkpt lat="47.56553" lon="-2.51093">
        <ele>27.7</ele>
        <time>2020-06-06T10:10:37Z</time>
      </trkpt>
      <trkpt lat="47.56557" lon="-2.51099">
        <ele>27.7</ele>
        <time>2020-06-06T10:10:38Z</time>
      </trkpt>
      <trkpt lat="47.5656" lon="-2.51105">
        <ele>27.7</ele>
        <time>2020-06-06T10:10:39Z</time>
      </trkpt>
      <trkpt lat="47.56564" lon="-2.51111">
        <ele>27.6</ele>
        <time>2020-06-06T10:10:40Z</time>
      </trkpt>
      <trkpt lat="47.56567" lon="-2.51117">
        <ele>27.6</ele>
        <time>2020-06-06T10:10:41Z</time>
      </trkpt>
      <trkpt lat="47.5657" lon="-2.51122">
        <ele>27.6</ele>
        <time>2020-06-06T10:10:42Z</time>
      </trkpt>
      <trkpt lat="47.56573" lon="-2.51127">
        <ele>27.6</ele>
        <time>2020-06-06T10:10:43Z</time>
      </trkpt>
      <trkpt lat="47.56577" lon="-2.51132">
        <ele>27.6</ele>
        <time>2020-06-06T10:10:44Z</time>
      </trkpt>
      <trkpt lat="47.5658" lon="-2.51138">
        <ele>27.5</ele>
        <time>2020-06-06T10:10:45Z</time>
      </trkpt>
      <trkpt lat="47.56584" lon="-2.51143">
        <ele>27.5</ele>
        <time>2020-06-06T10:10:46Z</time>
      </trkpt>
      <trkpt lat="47.56587" lon="-2.51148">
        <ele>27.6</ele>
        <time>2020-06-06T10:10:47Z</time>
      </trkpt>
      <trkpt lat="47.5659" lon="-2.51153">
        <ele>27.6</ele>
        <time>2020-06-06T10:10:48Z</time>
      </trkpt>
      <trkpt lat="47.56592" lon="-2.51158">
        <ele>27.6</ele>
        <time>2020-06-06T10:10:49Z</time>
      </trkpt>
      <trkpt lat="47.56595" lon="-2.51163">
        <ele>27.7</ele>
        <time>2020-06-06T10:10:50Z</time>
      </trkpt>
      <trkpt lat="47.56599" lon="-2.51167">
        <ele>27.8</ele>
        <time>2020-06-06T10:10:51Z</time>
      </trkpt>
      <trkpt lat="47.56603" lon="-2.51171">
        <ele>27.8</ele>
        <time>2020-06-06T10:10:52Z</time>
      </trkpt>
      <trkpt lat="47.56606" lon="-2.51177">
        <ele>27.9</ele>
        <time>2020-06-06T10:10:53Z</time>
      </trkpt>
      <trkpt lat="47.56609" lon="-2.51181">
        <ele>28</ele>
        <time>2020-06-06T10:10:54Z</time>
      </trkpt>
      <trkpt lat="47.56612" lon="-2.51186">
        <ele>28</ele>
        <time>2020-06-06T10:10:55Z</time>
      </trkpt>
      <trkpt lat="47.56615" lon="-2.51192">
        <ele>28.1</ele>
        <time>2020-06-06T10:10:56Z</time>
      </trkpt>
      <trkpt lat="47.56618" lon="-2.51198">
        <ele>28.2</ele>
        <time>2020-06-06T10:10:57Z</time>
      </trkpt>
      <trkpt lat="47.56621" lon="-2.51203">
        <ele>28.3</ele>
        <time>2020-06-06T10:10:58Z</time>
      </trkpt>
      <trkpt lat="47.56625" lon="-2.51208">
        <ele>28.4</ele>
        <time>2020-06-06T10:10:59Z</time>
      </trkpt>
      <trkpt lat="47.56628" lon="-2.51213">
        <ele>28.5</ele>
        <time>2020-06-06T10:11:00Z</time>
      </trkpt>
      <trkpt lat="47.56631" lon="-2.51218">
        <ele>28.6</ele>
        <time>2020-06-06T10:11:01Z</time>
      </trkpt>
      <trkpt lat="47.56634" lon="-2.51222">
        <ele>28.7</ele>
        <time>2020-06-06T10:11:02Z</time>
      </trkpt>
      <trkpt lat="47.56637" lon="-2.51227">
        <ele>28.7</ele>
        <time>2020-06-06T10:11:03Z</time>
      </trkpt>
      <trkpt lat="47.56639" lon="-2.5123">
        <ele>28.8</ele>
        <time>2020-06-06T10:11:04Z</time>
      </trkpt>
      <trkpt lat="47.56643" lon="-2.51234">
        <ele>28.8</ele>
        <time>2020-06-06T10:11:05Z</time>
      </trkpt>
      <trkpt lat="47.56646" lon="-2.51239">
        <ele>28.9</ele>
        <time>2020-06-06T10:11:06Z</time>
      </trkpt>
      <trkpt lat="47.56649" lon="-2.51244">
        <ele>28.9</ele>
        <time>2020-06-06T10:11:07Z</time>
      </trkpt>
      <trkpt lat="47.56651" lon="-2.51249">
        <ele>29</ele>
        <time>2020-06-06T10:11:08Z</time>
      </trkpt>
      <trkpt lat="47.56654" lon="-2.51254">
        <ele>29</ele>
        <time>2020-06-06T10:11:09Z</time>
      </trkpt>
      <trkpt lat="47.56657" lon="-2.51259">
        <ele>29.1</ele>
        <time>2020-06-06T10:11:10Z</time>
      </trkpt>
      <trkpt lat="47.5666" lon="-2.51264">
        <ele>29.1</ele>
        <time>2020-06-06T10:11:11Z</time>
      </trkpt>
      <trkpt lat="47.56663" lon="-2.5127">
        <ele>29.2</ele>
        <time>2020-06-06T10:11:12Z</time>
      </trkpt>
      <trkpt lat="47.56665" lon="-2.51275">
        <ele>29.3</ele>
        <time>2020-06-06T10:11:13Z</time>
      </trkpt>
      <trkpt lat="47.56667" lon="-2.5128">
        <ele>29.4</ele>
        <time>2020-06-06T10:11:14Z</time>
      </trkpt>
      <trkpt lat="47.56669" lon="-2.51285">
        <ele>29.4</ele>
        <time>2020-06-06T10:11:15Z</time>
      </trkpt>
      <trkpt lat="47.56672" lon="-2.5129">
        <ele>29.5</ele>
        <time>2020-06-06T10:11:16Z</time>
      </trkpt>
      <trkpt lat="47.56676" lon="-2.51295">
        <ele>29.6</ele>
        <time>2020-06-06T10:11:17Z</time>
      </trkpt>
      <trkpt lat="47.56678" lon="-2.51299">
        <ele>29.6</ele>
        <time>2020-06-06T10:11:18Z</time>
      </trkpt>
      <trkpt lat="47.56682" lon="-2.51303">
        <ele>29.7</ele>
        <time>2020-06-06T10:11:19Z</time>
      </trkpt>
      <trkpt lat="47.56684" lon="-2.51307">
        <ele>29.8</ele>
        <time>2020-06-06T10:11:20Z</time>
      </trkpt>
      <trkpt lat="47.56688" lon="-2.51311">
        <ele>29.8</ele>
        <time>2020-06-06T10:11:21Z</time>
      </trkpt>
      <trkpt lat="47.56691" lon="-2.51315">
        <ele>29.9</ele>
        <time>2020-06-06T10:11:22Z</time>
      </trkpt>
      <trkpt lat="47.56694" lon="-2.51319">
        <ele>30</ele>
        <time>2020-06-06T10:11:23Z</time>
      </trkpt>
      <trkpt lat="47.56697" lon="-2.51323">
        <ele>30</ele>
        <time>2020-06-06T10:11:24Z</time>
      </trkpt>
      <trkpt lat="47.56701" lon="-2.51328">
        <ele>30.1</ele>
        <time>2020-06-06T10:11:25Z</time>
      </trkpt>
      <trkpt lat="47.56704" lon="-2.51332">
        <ele>30.2</ele>
        <time>2020-06-06T10:11:26Z</time>
      </trkpt>
      <trkpt lat="47.56708" lon="-2.51336">
        <ele>30.3</ele>
        <time>2020-06-06T10:11:27Z</time>
      </trkpt>
      <trkpt lat="47.56711" lon="-2.51341">
        <ele>30.4</ele>
        <time>2020-06-06T10:11:28Z</time>
      </trkpt>
      <trkpt lat="47.56715" lon="-2.51345">
        <ele>30.4</ele>
        <time>2020-06-06T10:11:29Z</time>
      </trkpt>
      <trkpt lat="47.56719" lon="-2.51349">
        <ele>30.7</ele>
        <time>2020-06-06T10:11:30Z</time>
      </trkpt>
      <trkpt lat="47.56723" lon="-2.51354">
        <ele>30.8</ele>
        <time>2020-06-06T10:11:31Z</time>
      </trkpt>
      <trkpt lat="47.56726" lon="-2.51359">
        <ele>31</ele>
        <time>2020-06-06T10:11:32Z</time>
      </trkpt>
      <trkpt lat="47.56729" lon="-2.51363">
        <ele>31.1</ele>
        <time>2020-06-06T10:11:33Z</time>
      </trkpt>
      <trkpt lat="47.56732" lon="-2.51368">
        <ele>31.2</ele>
        <time>2020-06-06T10:11:34Z</time>
      </trkpt>
      <trkpt lat="47.56736" lon="-2.51372">
        <ele>31.4</ele>
        <time>2020-06-06T10:11:35Z</time>
      </trkpt>
      <trkpt lat="47.5674" lon="-2.51377">
        <ele>31.6</ele>
        <time>2020-06-06T10:11:36Z</time>
      </trkpt>
      <trkpt lat="47.56744" lon="-2.51381">
        <ele>31.7</ele>
        <time>2020-06-06T10:11:37Z</time>
      </trkpt>
      <trkpt lat="47.56746" lon="-2.51385">
        <ele>31.9</ele>
        <time>2020-06-06T10:11:38Z</time>
      </trkpt>
      <trkpt lat="47.56749" lon="-2.51389">
        <ele>32</ele>
        <time>2020-06-06T10:11:39Z</time>
      </trkpt>
      <trkpt lat="47.56752" lon="-2.51392">
        <ele>32.1</ele>
        <time>2020-06-06T10:11:40Z</time>
      </trkpt>
      <trkpt lat="47.56755" lon="-2.51395">
        <ele>32.2</ele>
        <time>2020-06-06T10:11:41Z</time>
      </trkpt>
      <trkpt lat="47.56758" lon="-2.51399">
        <ele>32.3</ele>
        <time>2020-06-06T10:11:42Z</time>
      </trkpt>
      <trkpt lat="47.56761" lon="-2.51403">
        <ele>32.4</ele>
        <time>2020-06-06T10:11:43Z</time>
      </trkpt>
      <trkpt lat="47.56765" lon="-2.51408">
        <ele>32.6</ele>
        <time>2020-06-06T10:11:44Z</time>
      </trkpt>
      <trkpt lat="47.56769" lon="-2.51412">
        <ele>32.7</ele>
        <time>2020-06-06T10:11:45Z</time>
      </trkpt>
      <trkpt lat="47.56772" lon="-2.51417">
        <ele>32.8</ele>
        <time>2020-06-06T10:11:46Z</time>
      </trkpt>
      <trkpt lat="47.56776" lon="-2.51422">
        <ele>33</ele>
        <time>2020-06-06T10:11:47Z</time>
      </trkpt>
      <trkpt lat="47.56779" lon="-2.51426">
        <ele>33.1</ele>
        <time>2020-06-06T10:11:48Z</time>
      </trkpt>
      <trkpt lat="47.56782" lon="-2.5143">
        <ele>33.2</ele>
        <time>2020-06-06T10:11:49Z</time>
      </trkpt>
      <trkpt lat="47.56785" lon="-2.51433">
        <ele>33.3</ele>
        <time>2020-06-06T10:11:50Z</time>
      </trkpt>
      <trkpt lat="47.56788" lon="-2.51437">
        <ele>33.5</ele>
        <time>2020-06-06T10:11:51Z</time>
      </trkpt>
      <trkpt lat="47.56792" lon="-2.51441">
        <ele>33.6</ele>
        <time>2020-06-06T10:11:52Z</time>
      </trkpt>
      <trkpt lat="47.56795" lon="-2.51444">
        <ele>33.7</ele>
        <time>2020-06-06T10:11:53Z</time>
      </trkpt>
      <trkpt lat="47.56799" lon="-2.51447">
        <ele>33.8</ele>
        <time>2020-06-06T10:11:54Z</time>
      </trkpt>
      <trkpt lat="47.56803" lon="-2.5145">
        <ele>34</ele>
        <time>2020-06-06T10:11:55Z</time>
      </trkpt>
      <trkpt lat="47.56807" lon="-2.51454">
        <ele>34.1</ele>
        <time>2020-06-06T10:11:56Z</time>
      </trkpt>
      <trkpt lat="47.5681" lon="-2.5146">
        <ele>34.2</ele>
        <time>2020-06-06T10:11:57Z</time>
      </trkpt>
      <trkpt lat="47.56813" lon="-2.51464">
        <ele>34.3</ele>
        <time>2020-06-06T10:11:58Z</time>
      </trkpt>
      <trkpt lat="47.56816" lon="-2.51468">
        <ele>34.4</ele>
        <time>2020-06-06T10:11:59Z</time>
      </trkpt>
      <trkpt lat="47.56819" lon="-2.51472">
        <ele>34.5</ele>
        <time>2020-06-06T10:12:00Z</time>
      </trkpt>
      <trkpt lat="47.56823" lon="-2.51475">
        <ele>34.6</ele>
        <time>2020-06-06T10:12:01Z</time>
      </trkpt>
      <trkpt lat="47.56827" lon="-2.51479">
        <ele>34.8</ele>
        <time>2020-06-06T10:12:02Z</time>
      </trkpt>
      <trkpt lat="47.5683" lon="-2.51483">
        <ele>34.9</ele>
        <time>2020-06-06T10:12:03Z</time>
      </trkpt>
      <trkpt lat="47.56834" lon="-2.51486">
        <ele>35</ele>
        <time>2020-06-06T10:12:04Z</time>
      </trkpt>
      <trkpt lat="47.56838" lon="-2.5149">
        <ele>35.1</ele>
        <time>2020-06-06T10:12:05Z</time>
      </trkpt>
      <trkpt lat="47.56841" lon="-2.51494">
        <ele>35.2</ele>
        <time>2020-06-06T10:12:06Z</time>
      </trkpt>
      <trkpt lat="47.56844" lon="-2.51498">
        <ele>35.3</ele>
        <time>2020-06-06T10:12:07Z</time>
      </trkpt>
      <trkpt lat="47.56848" lon="-2.51501">
        <ele>35.5</ele>
        <time>2020-06-06T10:12:08Z</time>
      </trkpt>
      <trkpt lat="47.56851" lon="-2.51506">
        <ele>35.6</ele>
        <time>2020-06-06T10:12:09Z</time>
      </trkpt>
      <trkpt lat="47.56855" lon="-2.51509">
        <ele>35.7</ele>
        <time>2020-06-06T10:12:10Z</time>
      </trkpt>
      <trkpt lat="47.56859" lon="-2.51512">
        <ele>35.8</ele>
        <time>2020-06-06T10:12:11Z</time>
      </trkpt>
      <trkpt lat="47.56862" lon="-2.51515">
        <ele>35.9</ele>
        <time>2020-06-06T10:12:12Z</time>
      </trkpt>
      <trkpt lat="47.56865" lon="-2.51518">
        <ele>36</ele>
        <time>2020-06-06T10:12:13Z</time>
      </trkpt>
      <trkpt lat="47.56869" lon="-2.51522">
        <ele>36.1</ele>
        <time>2020-06-06T10:12:14Z</time>
      </trkpt>
      <trkpt lat="47.56872" lon="-2.51526">
        <ele>36.2</ele>
        <time>2020-06-06T10:12:15Z</time>
      </trkpt>
      <trkpt lat="47.56876" lon="-2.5153">
        <ele>36.3</ele>
        <time>2020-06-06T10:12:16Z</time>
      </trkpt>
      <trkpt lat="47.5688" lon="-2.51534">
        <ele>36.4</ele>
        <time>2020-06-06T10:12:17Z</time>
      </trkpt>
      <trkpt lat="47.56883" lon="-2.51537">
        <ele>36.5</ele>
        <time>2020-06-06T10:12:18Z</time>
      </trkpt>
      <trkpt lat="47.56887" lon="-2.5154">
        <ele>36.6</ele>
        <time>2020-06-06T10:12:19Z</time>
      </trkpt>
      <trkpt lat="47.5689" lon="-2.51543">
        <ele>36.7</ele>
        <time>2020-06-06T10:12:20Z</time>
      </trkpt>
      <trkpt lat="47.56894" lon="-2.51546">
        <ele>36.8</ele>
        <time>2020-06-06T10:12:21Z</time>
      </trkpt>
      <trkpt lat="47.56897" lon="-2.5155">
        <ele>36.9</ele>
        <time>2020-06-06T10:12:22Z</time>
      </trkpt>
      <trkpt lat="47.56901" lon="-2.51554">
        <ele>37</ele>
        <time>2020-06-06T10:12:23Z</time>
      </trkpt>
      <trkpt lat="47.56905" lon="-2.51557">
        <ele>37</ele>
        <time>2020-06-06T10:12:24Z</time>
      </trkpt>
      <trkpt lat="47.56908" lon="-2.5156">
        <ele>37.1</ele>
        <time>2020-06-06T10:12:25Z</time>
      </trkpt>
      <trkpt lat="47.56912" lon="-2.51563">
        <ele>37.2</ele>
        <time>2020-06-06T10:12:26Z</time>
      </trkpt>
      <trkpt lat="47.56916" lon="-2.51566">
        <ele>37.3</ele>
        <time>2020-06-06T10:12:27Z</time>
      </trkpt>
      <trkpt lat="47.5692" lon="-2.51569">
        <ele>37.4</ele>
        <time>2020-06-06T10:12:28Z</time>
      </trkpt>
      <trkpt lat="47.56922" lon="-2.51572">
        <ele>37.4</ele>
        <time>2020-06-06T10:12:29Z</time>
      </trkpt>
      <trkpt lat="47.56926" lon="-2.51574">
        <ele>37.5</ele>
        <time>2020-06-06T10:12:30Z</time>
      </trkpt>
      <trkpt lat="47.56929" lon="-2.51577">
        <ele>37.6</ele>
        <time>2020-06-06T10:12:31Z</time>
      </trkpt>
      <trkpt lat="47.56932" lon="-2.5158">
        <ele>37.7</ele>
        <time>2020-06-06T10:12:32Z</time>
      </trkpt>
      <trkpt lat="47.56935" lon="-2.51583">
        <ele>37.9</ele>
        <time>2020-06-06T10:12:33Z</time>
      </trkpt>
      <trkpt lat="47.56939" lon="-2.51586">
        <ele>38</ele>
        <time>2020-06-06T10:12:34Z</time>
      </trkpt>
      <trkpt lat="47.56942" lon="-2.51589">
        <ele>38.1</ele>
        <time>2020-06-06T10:12:35Z</time>
      </trkpt>
      <trkpt lat="47.56946" lon="-2.51592">
        <ele>38.2</ele>
        <time>2020-06-06T10:12:36Z</time>
      </trkpt>
      <trkpt lat="47.56951" lon="-2.51595">
        <ele>38.3</ele>
        <time>2020-06-06T10:12:37Z</time>
      </trkpt>
      <trkpt lat="47.56955" lon="-2.51598">
        <ele>38.3</ele>
        <time>2020-06-06T10:12:38Z</time>
      </trkpt>
      <trkpt lat="47.56959" lon="-2.51601">
        <ele>38.3</ele>
        <time>2020-06-06T10:12:39Z</time>
      </trkpt>
      <trkpt lat="47.56963" lon="-2.51605">
        <ele>38.4</ele>
        <time>2020-06-06T10:12:40Z</time>
      </trkpt>
      <trkpt lat="47.56968" lon="-2.51608">
        <ele>38.5</ele>
        <time>2020-06-06T10:12:41Z</time>
      </trkpt>
      <trkpt lat="47.56972" lon="-2.51611">
        <ele>38.6</ele>
        <time>2020-06-06T10:12:42Z</time>
      </trkpt>
      <trkpt lat="47.56976" lon="-2.51614">
        <ele>38.6</ele>
        <time>2020-06-06T10:12:43Z</time>
      </trkpt>
      <trkpt lat="47.56979" lon="-2.51618">
        <ele>38.7</ele>
        <time>2020-06-06T10:12:44Z</time>
      </trkpt>
      <trkpt lat="47.56983" lon="-2.51621">
        <ele>38.8</ele>
        <time>2020-06-06T10:12:45Z</time>
      </trkpt>
      <trkpt lat="47.56987" lon="-2.51624">
        <ele>38.8</ele>
        <time>2020-06-06T10:12:46Z</time>
      </trkpt>
      <trkpt lat="47.56991" lon="-2.51626">
        <ele>38.9</ele>
        <time>2020-06-06T10:12:47Z</time>
      </trkpt>
      <trkpt lat="47.56996" lon="-2.51628">
        <ele>39</ele>
        <time>2020-06-06T10:12:48Z</time>
      </trkpt>
      <trkpt lat="47.57001" lon="-2.5163">
        <ele>39.1</ele>
        <time>2020-06-06T10:12:49Z</time>
      </trkpt>
      <trkpt lat="47.57004" lon="-2.51633">
        <ele>39.1</ele>
        <time>2020-06-06T10:12:50Z</time>
      </trkpt>
      <trkpt lat="47.57009" lon="-2.51636">
        <ele>39.3</ele>
        <time>2020-06-06T10:12:51Z</time>
      </trkpt>
      <trkpt lat="47.57014" lon="-2.51639">
        <ele>39.4</ele>
        <time>2020-06-06T10:12:52Z</time>
      </trkpt>
      <trkpt lat="47.57017" lon="-2.51642">
        <ele>39.5</ele>
        <time>2020-06-06T10:12:53Z</time>
      </trkpt>
      <trkpt lat="47.57021" lon="-2.51645">
        <ele>39.6</ele>
        <time>2020-06-06T10:12:54Z</time>
      </trkpt>
      <trkpt lat="47.57026" lon="-2.51648">
        <ele>39.7</ele>
        <time>2020-06-06T10:12:55Z</time>
      </trkpt>
      <trkpt lat="47.5703" lon="-2.51651">
        <ele>39.7</ele>
        <time>2020-06-06T10:12:56Z</time>
      </trkpt>
      <trkpt lat="47.57034" lon="-2.51654">
        <ele>39.8</ele>
        <time>2020-06-06T10:12:57Z</time>
      </trkpt>
      <trkpt lat="47.57038" lon="-2.51657">
        <ele>39.9</ele>
        <time>2020-06-06T10:12:58Z</time>
      </trkpt>
      <trkpt lat="47.57042" lon="-2.5166">
        <ele>39.9</ele>
        <time>2020-06-06T10:12:59Z</time>
      </trkpt>
      <trkpt lat="47.57046" lon="-2.51663">
        <ele>40</ele>
        <time>2020-06-06T10:13:00Z</time>
      </trkpt>
      <trkpt lat="47.5705" lon="-2.51667">
        <ele>40</ele>
        <time>2020-06-06T10:13:01Z</time>
      </trkpt>
      <trkpt lat="47.57053" lon="-2.51671">
        <ele>40.1</ele>
        <time>2020-06-06T10:13:02Z</time>
      </trkpt>
      <trkpt lat="47.57057" lon="-2.51675">
        <ele>40.1</ele>
        <time>2020-06-06T10:13:03Z</time>
      </trkpt>
      <trkpt lat="47.57061" lon="-2.51679">
        <ele>40.2</ele>
        <time>2020-06-06T10:13:04Z</time>
      </trkpt>
      <trkpt lat="47.57065" lon="-2.51683">
        <ele>40.3</ele>
        <time>2020-06-06T10:13:05Z</time>
      </trkpt>
      <trkpt lat="47.57069" lon="-2.51687">
        <ele>40.4</ele>
        <time>2020-06-06T10:13:06Z</time>
      </trkpt>
      <trkpt lat="47.57073" lon="-2.51689">
        <ele>40.5</ele>
        <time>2020-06-06T10:13:07Z</time>
      </trkpt>
      <trkpt lat="47.57077" lon="-2.51693">
        <ele>40.5</ele>
        <time>2020-06-06T10:13:08Z</time>
      </trkpt>
      <trkpt lat="47.57082" lon="-2.51697">
        <ele>40.6</ele>
        <time>2020-06-06T10:13:09Z</time>
      </trkpt>
      <trkpt lat="47.57086" lon="-2.517">
        <ele>40.7</ele>
        <time>2020-06-06T10:13:10Z</time>
      </trkpt>
      <trkpt lat="47.57091" lon="-2.51703">
        <ele>40.8</ele>
        <time>2020-06-06T10:13:11Z</time>
      </trkpt>
      <trkpt lat="47.57095" lon="-2.51707">
        <ele>40.8</ele>
        <time>2020-06-06T10:13:12Z</time>
      </trkpt>
      <trkpt lat="47.571" lon="-2.5171">
        <ele>40.9</ele>
        <time>2020-06-06T10:13:13Z</time>
      </trkpt>
      <trkpt lat="47.57105" lon="-2.51714">
        <ele>41</ele>
        <time>2020-06-06T10:13:14Z</time>
      </trkpt>
      <trkpt lat="47.57109" lon="-2.51717">
        <ele>41</ele>
        <time>2020-06-06T10:13:15Z</time>
      </trkpt>
      <trkpt lat="47.57115" lon="-2.51721">
        <ele>41.1</ele>
        <time>2020-06-06T10:13:16Z</time>
      </trkpt>
      <trkpt lat="47.57119" lon="-2.51726">
        <ele>41.2</ele>
        <time>2020-06-06T10:13:17Z</time>
      </trkpt>
      <trkpt lat="47.57124" lon="-2.5173">
        <ele>41.3</ele>
        <time>2020-06-06T10:13:18Z</time>
      </trkpt>
      <trkpt lat="47.57128" lon="-2.51734">
        <ele>41.3</ele>
        <time>2020-06-06T10:13:19Z</time>
      </trkpt>
      <trkpt lat="47.57132" lon="-2.51737">
        <ele>41.4</ele>
        <time>2020-06-06T10:13:20Z</time>
      </trkpt>
      <trkpt lat="47.57137" lon="-2.51741">
        <ele>41.4</ele>
        <time>2020-06-06T10:13:21Z</time>
      </trkpt>
      <trkpt lat="47.57141" lon="-2.51744">
        <ele>41.5</ele>
        <time>2020-06-06T10:13:22Z</time>
      </trkpt>
      <trkpt lat="47.57145" lon="-2.51748">
        <ele>41.5</ele>
        <time>2020-06-06T10:13:23Z</time>
      </trkpt>
      <trkpt lat="47.57148" lon="-2.51751">
        <ele>41.5</ele>
        <time>2020-06-06T10:13:24Z</time>
      </trkpt>
      <trkpt lat="47.57153" lon="-2.51756">
        <ele>41.5</ele>
        <time>2020-06-06T10:13:25Z</time>
      </trkpt>
      <trkpt lat="47.57156" lon="-2.5176">
        <ele>41.6</ele>
        <time>2020-06-06T10:13:26Z</time>
      </trkpt>
      <trkpt lat="47.57161" lon="-2.51763">
        <ele>41.6</ele>
        <time>2020-06-06T10:13:27Z</time>
      </trkpt>
      <trkpt lat="47.57166" lon="-2.51766">
        <ele>41.6</ele>
        <time>2020-06-06T10:13:28Z</time>
      </trkpt>
      <trkpt lat="47.5717" lon="-2.5177">
        <ele>41.6</ele>
        <time>2020-06-06T10:13:29Z</time>
      </trkpt>
      <trkpt lat="47.57174" lon="-2.51775">
        <ele>41.7</ele>
        <time>2020-06-06T10:13:30Z</time>
      </trkpt>
      <trkpt lat="47.57179" lon="-2.51779">
        <ele>41.7</ele>
        <time>2020-06-06T10:13:31Z</time>
      </trkpt>
      <trkpt lat="47.57183" lon="-2.51784">
        <ele>41.8</ele>
        <time>2020-06-06T10:13:32Z</time>
      </trkpt>
      <trkpt lat="47.57187" lon="-2.51789">
        <ele>41.8</ele>
        <time>2020-06-06T10:13:33Z</time>
      </trkpt>
      <trkpt lat="47.57192" lon="-2.51793">
        <ele>41.9</ele>
        <time>2020-06-06T10:13:34Z</time>
      </trkpt>
      <trkpt lat="47.57196" lon="-2.51797">
        <ele>41.9</ele>
        <time>2020-06-06T10:13:35Z</time>
      </trkpt>
      <trkpt lat="47.57201" lon="-2.51801">
        <ele>42</ele>
        <time>2020-06-06T10:13:36Z</time>
      </trkpt>
      <trkpt lat="47.57205" lon="-2.51805">
        <ele>42</ele>
        <time>2020-06-06T10:13:37Z</time>
      </trkpt>
      <trkpt lat="47.57209" lon="-2.5181">
        <ele>42</ele>
        <time>2020-06-06T10:13:38Z</time>
      </trkpt>
      <trkpt lat="47.57213" lon="-2.51814">
        <ele>42</ele>
        <time>2020-06-06T10:13:39Z</time>
      </trkpt>
      <trkpt lat="47.57217" lon="-2.51819">
        <ele>42.1</ele>
        <time>2020-06-06T10:13:40Z</time>
      </trkpt>
      <trkpt lat="47.57221" lon="-2.51823">
        <ele>42.1</ele>
        <time>2020-06-06T10:13:41Z</time>
      </trkpt>
      <trkpt lat="47.57226" lon="-2.51829">
        <ele>42.2</ele>
        <time>2020-06-06T10:13:42Z</time>
      </trkpt>
      <trkpt lat="47.5723" lon="-2.51834">
        <ele>42.2</ele>
        <time>2020-06-06T10:13:43Z</time>
      </trkpt>
      <trkpt lat="47.57234" lon="-2.51838">
        <ele>42.2</ele>
        <time>2020-06-06T10:13:44Z</time>
      </trkpt>
      <trkpt lat="47.57239" lon="-2.51843">
        <ele>42.3</ele>
        <time>2020-06-06T10:13:45Z</time>
      </trkpt>
      <trkpt lat="47.57243" lon="-2.51847">
        <ele>42.3</ele>
        <time>2020-06-06T10:13:46Z</time>
      </trkpt>
      <trkpt lat="47.57246" lon="-2.51852">
        <ele>42.3</ele>
        <time>2020-06-06T10:13:47Z</time>
      </trkpt>
      <trkpt lat="47.57251" lon="-2.51857">
        <ele>42.3</ele>
        <time>2020-06-06T10:13:48Z</time>
      </trkpt>
      <trkpt lat="47.57255" lon="-2.51861">
        <ele>42.3</ele>
        <time>2020-06-06T10:13:49Z</time>
      </trkpt>
      <trkpt lat="47.5726" lon="-2.51865">
        <ele>42.3</ele>
        <time>2020-06-06T10:13:50Z</time>
      </trkpt>
      <trkpt lat="47.57265" lon="-2.51869">
        <ele>42.3</ele>
        <time>2020-06-06T10:13:51Z</time>
      </trkpt>
      <trkpt lat="47.57269" lon="-2.51873">
        <ele>42.3</ele>
        <time>2020-06-06T10:13:52Z</time>
      </trkpt>
      <trkpt lat="47.57274" lon="-2.51878">
        <ele>42.3</ele>
        <time>2020-06-06T10:13:53Z</time>
      </trkpt>
      <trkpt lat="47.57278" lon="-2.51883">
        <ele>42.3</ele>
        <time>2020-06-06T10:13:54Z</time>
      </trkpt>
      <trkpt lat="47.57282" lon="-2.51888">
        <ele>42.3</ele>
        <time>2020-06-06T10:13:55Z</time>
      </trkpt>
      <trkpt lat="47.57286" lon="-2.51893">
        <ele>42.3</ele>
        <time>2020-06-06T10:13:56Z</time>
      </trkpt>
      <trkpt lat="47.5729" lon="-2.51898">
        <ele>42.3</ele>
        <time>2020-06-06T10:13:57Z</time>
      </trkpt>
      <trkpt lat="47.57295" lon="-2.51903">
        <ele>42.4</ele>
        <time>2020-06-06T10:13:58Z</time>
      </trkpt>
      <trkpt lat="47.573" lon="-2.51908">
        <ele>42.4</ele>
        <time>2020-06-06T10:13:59Z</time>
      </trkpt>
      <trkpt lat="47.57304" lon="-2.51914">
        <ele>42.4</ele>
        <time>2020-06-06T10:14:00Z</time>
      </trkpt>
      <trkpt lat="47.57307" lon="-2.51918">
        <ele>42.5</ele>
        <time>2020-06-06T10:14:01Z</time>
      </trkpt>
      <trkpt lat="47.57311" lon="-2.51923">
        <ele>42.5</ele>
        <time>2020-06-06T10:14:02Z</time>
      </trkpt>
      <trkpt lat="47.57314" lon="-2.51929">
        <ele>42.5</ele>
        <time>2020-06-06T10:14:03Z</time>
      </trkpt>
      <trkpt lat="47.57318" lon="-2.51933">
        <ele>42.6</ele>
        <time>2020-06-06T10:14:04Z</time>
      </trkpt>
      <trkpt lat="47.57322" lon="-2.51939">
        <ele>42.6</ele>
        <time>2020-06-06T10:14:05Z</time>
      </trkpt>
      <trkpt lat="47.57326" lon="-2.51945">
        <ele>42.6</ele>
        <time>2020-06-06T10:14:06Z</time>
      </trkpt>
      <trkpt lat="47.5733" lon="-2.51949">
        <ele>42.6</ele>
        <time>2020-06-06T10:14:07Z</time>
      </trkpt>
      <trkpt lat="47.57336" lon="-2.51955">
        <ele>42.6</ele>
        <time>2020-06-06T10:14:08Z</time>
      </trkpt>
      <trkpt lat="47.5734" lon="-2.5196">
        <ele>42.6</ele>
        <time>2020-06-06T10:14:09Z</time>
      </trkpt>
      <trkpt lat="47.57344" lon="-2.51967">
        <ele>42.6</ele>
        <time>2020-06-06T10:14:10Z</time>
      </trkpt>
      <trkpt lat="47.57348" lon="-2.51973">
        <ele>42.6</ele>
        <time>2020-06-06T10:14:11Z</time>
      </trkpt>
      <trkpt lat="47.57352" lon="-2.51978">
        <ele>42.6</ele>
        <time>2020-06-06T10:14:12Z</time>
      </trkpt>
      <trkpt lat="47.57356" lon="-2.51983">
        <ele>42.6</ele>
        <time>2020-06-06T10:14:13Z</time>
      </trkpt>
      <trkpt lat="47.5736" lon="-2.51988">
        <ele>42.6</ele>
        <time>2020-06-06T10:14:14Z</time>
      </trkpt>
      <trkpt lat="47.57364" lon="-2.51993">
        <ele>42.6</ele>
        <time>2020-06-06T10:14:15Z</time>
      </trkpt>
      <trkpt lat="47.57368" lon="-2.51998">
        <ele>42.5</ele>
        <time>2020-06-06T10:14:16Z</time>
      </trkpt>
      <trkpt lat="47.57372" lon="-2.52003">
        <ele>42.5</ele>
        <time>2020-06-06T10:14:17Z</time>
      </trkpt>
      <trkpt lat="47.57376" lon="-2.52008">
        <ele>42.5</ele>
        <time>2020-06-06T10:14:18Z</time>
      </trkpt>
      <trkpt lat="47.5738" lon="-2.52013">
        <ele>42.5</ele>
        <time>2020-06-06T10:14:19Z</time>
      </trkpt>
      <trkpt lat="47.57384" lon="-2.52019">
        <ele>42.5</ele>
        <time>2020-06-06T10:14:20Z</time>
      </trkpt>
      <trkpt lat="47.57387" lon="-2.52025">
        <ele>42.5</ele>
        <time>2020-06-06T10:14:21Z</time>
      </trkpt>
      <trkpt lat="47.57391" lon="-2.52032">
        <ele>42.5</ele>
        <time>2020-06-06T10:14:22Z</time>
      </trkpt>
      <trkpt lat="47.57395" lon="-2.52038">
        <ele>42.4</ele>
        <time>2020-06-06T10:14:23Z</time>
      </trkpt>
      <trkpt lat="47.57399" lon="-2.52044">
        <ele>42.4</ele>
        <time>2020-06-06T10:14:24Z</time>
      </trkpt>
      <trkpt lat="47.57403" lon="-2.52051">
        <ele>42.4</ele>
        <time>2020-06-06T10:14:25Z</time>
      </trkpt>
      <trkpt lat="47.57407" lon="-2.52057">
        <ele>42.5</ele>
        <time>2020-06-06T10:14:26Z</time>
      </trkpt>
      <trkpt lat="47.57411" lon="-2.52063">
        <ele>42.5</ele>
        <time>2020-06-06T10:14:27Z</time>
      </trkpt>
      <trkpt lat="47.57416" lon="-2.52068">
        <ele>42.5</ele>
        <time>2020-06-06T10:14:28Z</time>
      </trkpt>
      <trkpt lat="47.57419" lon="-2.52073">
        <ele>42.5</ele>
        <time>2020-06-06T10:14:29Z</time>
      </trkpt>
      <trkpt lat="47.57423" lon="-2.52077">
        <ele>42.4</ele>
        <time>2020-06-06T10:14:30Z</time>
      </trkpt>
      <trkpt lat="47.57428" lon="-2.52082">
        <ele>42.4</ele>
        <time>2020-06-06T10:14:31Z</time>
      </trkpt>
      <trkpt lat="47.57432" lon="-2.52087">
        <ele>42.4</ele>
        <time>2020-06-06T10:14:32Z</time>
      </trkpt>
      <trkpt lat="47.57436" lon="-2.52093">
        <ele>42.4</ele>
        <time>2020-06-06T10:14:33Z</time>
      </trkpt>
      <trkpt lat="47.5744" lon="-2.52097">
        <ele>42.3</ele>
        <time>2020-06-06T10:14:34Z</time>
      </trkpt>
      <trkpt lat="47.57445" lon="-2.52103">
        <ele>42.3</ele>
        <time>2020-06-06T10:14:35Z</time>
      </trkpt>
      <trkpt lat="47.57449" lon="-2.52109">
        <ele>42.2</ele>
        <time>2020-06-06T10:14:36Z</time>
      </trkpt>
      <trkpt lat="47.57452" lon="-2.52115">
        <ele>42.2</ele>
        <time>2020-06-06T10:14:37Z</time>
      </trkpt>
      <trkpt lat="47.57456" lon="-2.52121">
        <ele>42.2</ele>
        <time>2020-06-06T10:14:38Z</time>
      </trkpt>
      <trkpt lat="47.57459" lon="-2.52127">
        <ele>42.2</ele>
        <time>2020-06-06T10:14:39Z</time>
      </trkpt>
      <trkpt lat="47.57463" lon="-2.52134">
        <ele>42.2</ele>
        <time>2020-06-06T10:14:40Z</time>
      </trkpt>
      <trkpt lat="47.57467" lon="-2.52141">
        <ele>42.1</ele>
        <time>2020-06-06T10:14:41Z</time>
      </trkpt>
      <trkpt lat="47.57471" lon="-2.52147">
        <ele>42.1</ele>
        <time>2020-06-06T10:14:42Z</time>
      </trkpt>
      <trkpt lat="47.57474" lon="-2.52152">
        <ele>42.1</ele>
        <time>2020-06-06T10:14:43Z</time>
      </trkpt>
      <trkpt lat="47.57478" lon="-2.52159">
        <ele>42</ele>
        <time>2020-06-06T10:14:44Z</time>
      </trkpt>
      <trkpt lat="47.57482" lon="-2.52165">
        <ele>42</ele>
        <time>2020-06-06T10:14:45Z</time>
      </trkpt>
      <trkpt lat="47.57486" lon="-2.52171">
        <ele>41.9</ele>
        <time>2020-06-06T10:14:46Z</time>
      </trkpt>
      <trkpt lat="47.57489" lon="-2.52177">
        <ele>41.9</ele>
        <time>2020-06-06T10:14:47Z</time>
      </trkpt>
      <trkpt lat="47.57493" lon="-2.52184">
        <ele>41.9</ele>
        <time>2020-06-06T10:14:48Z</time>
      </trkpt>
      <trkpt lat="47.57497" lon="-2.5219">
        <ele>41.8</ele>
        <time>2020-06-06T10:14:49Z</time>
      </trkpt>
      <trkpt lat="47.57501" lon="-2.52196">
        <ele>41.8</ele>
        <time>2020-06-06T10:14:50Z</time>
      </trkpt>
      <trkpt lat="47.57504" lon="-2.52202">
        <ele>41.7</ele>
        <time>2020-06-06T10:14:51Z</time>
      </trkpt>
      <trkpt lat="47.5751" lon="-2.52208">
        <ele>41.7</ele>
        <time>2020-06-06T10:14:52Z</time>
      </trkpt>
      <trkpt lat="47.57515" lon="-2.52213">
        <ele>41.7</ele>
        <time>2020-06-06T10:14:53Z</time>
      </trkpt>
      <trkpt lat="47.57518" lon="-2.5222">
        <ele>41.6</ele>
        <time>2020-06-06T10:14:54Z</time>
      </trkpt>
      <trkpt lat="47.57522" lon="-2.52227">
        <ele>41.6</ele>
        <time>2020-06-06T10:14:55Z</time>
      </trkpt>
      <trkpt lat="47.57527" lon="-2.52231">
        <ele>41.5</ele>
        <time>2020-06-06T10:14:56Z</time>
      </trkpt>
      <trkpt lat="47.57531" lon="-2.52238">
        <ele>41.5</ele>
        <time>2020-06-06T10:14:57Z</time>
      </trkpt>
      <trkpt lat="47.57535" lon="-2.52245">
        <ele>41.5</ele>
        <time>2020-06-06T10:14:58Z</time>
      </trkpt>
      <trkpt lat="47.57539" lon="-2.52252">
        <ele>41.5</ele>
        <time>2020-06-06T10:14:59Z</time>
      </trkpt>
      <trkpt lat="47.57544" lon="-2.52259">
        <ele>41.6</ele>
        <time>2020-06-06T10:15:00Z</time>
      </trkpt>
      <trkpt lat="47.57548" lon="-2.52265">
        <ele>41.6</ele>
        <time>2020-06-06T10:15:01Z</time>
      </trkpt>
      <trkpt lat="47.57553" lon="-2.52272">
        <ele>41.7</ele>
        <time>2020-06-06T10:15:02Z</time>
      </trkpt>
      <trkpt lat="47.57557" lon="-2.52279">
        <ele>41.8</ele>
        <time>2020-06-06T10:15:03Z</time>
      </trkpt>
      <trkpt lat="47.5756" lon="-2.52285">
        <ele>41.9</ele>
        <time>2020-06-06T10:15:04Z</time>
      </trkpt>
      <trkpt lat="47.57564" lon="-2.52292">
        <ele>42</ele>
        <time>2020-06-06T10:15:05Z</time>
      </trkpt>
      <trkpt lat="47.57569" lon="-2.52299">
        <ele>42.1</ele>
        <time>2020-06-06T10:15:06Z</time>
      </trkpt>
      <trkpt lat="47.57574" lon="-2.52306">
        <ele>42.3</ele>
        <time>2020-06-06T10:15:07Z</time>
      </trkpt>
      <trkpt lat="47.57579" lon="-2.52312">
        <ele>42.5</ele>
        <time>2020-06-06T10:15:08Z</time>
      </trkpt>
      <trkpt lat="47.57582" lon="-2.52317">
        <ele>42.6</ele>
        <time>2020-06-06T10:15:09Z</time>
      </trkpt>
      <trkpt lat="47.57586" lon="-2.52323">
        <ele>42.7</ele>
        <time>2020-06-06T10:15:10Z</time>
      </trkpt>
      <trkpt lat="47.57591" lon="-2.52331">
        <ele>43</ele>
        <time>2020-06-06T10:15:11Z</time>
      </trkpt>
      <trkpt lat="47.57596" lon="-2.52339">
        <ele>43.2</ele>
        <time>2020-06-06T10:15:12Z</time>
      </trkpt>
      <trkpt lat="47.57601" lon="-2.52345">
        <ele>43.4</ele>
        <time>2020-06-06T10:15:13Z</time>
      </trkpt>
      <trkpt lat="47.57605" lon="-2.52351">
        <ele>43.5</ele>
        <time>2020-06-06T10:15:14Z</time>
      </trkpt>
      <trkpt lat="47.57608" lon="-2.52358">
        <ele>43.7</ele>
        <time>2020-06-06T10:15:15Z</time>
      </trkpt>
      <trkpt lat="47.57613" lon="-2.52364">
        <ele>43.8</ele>
        <time>2020-06-06T10:15:16Z</time>
      </trkpt>
      <trkpt lat="47.57618" lon="-2.52371">
        <ele>44</ele>
        <time>2020-06-06T10:15:17Z</time>
      </trkpt>
      <trkpt lat="47.57622" lon="-2.52378">
        <ele>44.2</ele>
        <time>2020-06-06T10:15:18Z</time>
      </trkpt>
      <trkpt lat="47.57626" lon="-2.52384">
        <ele>44.3</ele>
        <time>2020-06-06T10:15:19Z</time>
      </trkpt>
      <trkpt lat="47.5763" lon="-2.52391">
        <ele>44.5</ele>
        <time>2020-06-06T10:15:20Z</time>
      </trkpt>
      <trkpt lat="47.57635" lon="-2.52398">
        <ele>44.7</ele>
        <time>2020-06-06T10:15:21Z</time>
      </trkpt>
      <trkpt lat="47.57639" lon="-2.52405">
        <ele>44.8</ele>
        <time>2020-06-06T10:15:22Z</time>
      </trkpt>
      <trkpt lat="47.57644" lon="-2.52411">
        <ele>44.9</ele>
        <time>2020-06-06T10:15:23Z</time>
      </trkpt>
      <trkpt lat="47.57648" lon="-2.52418">
        <ele>44.9</ele>
        <time>2020-06-06T10:15:24Z</time>
      </trkpt>
      <trkpt lat="47.57654" lon="-2.52426">
        <ele>45</ele>
        <time>2020-06-06T10:15:25Z</time>
      </trkpt>
      <trkpt lat="47.57657" lon="-2.52432">
        <ele>45</ele>
        <time>2020-06-06T10:15:26Z</time>
      </trkpt>
      <trkpt lat="47.57662" lon="-2.5244">
        <ele>45.1</ele>
        <time>2020-06-06T10:15:27Z</time>
      </trkpt>
      <trkpt lat="47.57665" lon="-2.52446">
        <ele>45.1</ele>
        <time>2020-06-06T10:15:28Z</time>
      </trkpt>
      <trkpt lat="47.57669" lon="-2.52453">
        <ele>45.1</ele>
        <time>2020-06-06T10:15:29Z</time>
      </trkpt>
      <trkpt lat="47.57674" lon="-2.52459">
        <ele>45.2</ele>
        <time>2020-06-06T10:15:30Z</time>
      </trkpt>
      <trkpt lat="47.57677" lon="-2.52465">
        <ele>45.1</ele>
        <time>2020-06-06T10:15:31Z</time>
      </trkpt>
      <trkpt lat="47.57681" lon="-2.52471">
        <ele>45</ele>
        <time>2020-06-06T10:15:32Z</time>
      </trkpt>
      <trkpt lat="47.57684" lon="-2.52477">
        <ele>45</ele>
        <time>2020-06-06T10:15:33Z</time>
      </trkpt>
      <trkpt lat="47.57688" lon="-2.52483">
        <ele>44.9</ele>
        <time>2020-06-06T10:15:34Z</time>
      </trkpt>
      <trkpt lat="47.57691" lon="-2.52489">
        <ele>44.8</ele>
        <time>2020-06-06T10:15:36Z</time>
      </trkpt>
      <trkpt lat="47.57694" lon="-2.52494">
        <ele>44.8</ele>
        <time>2020-06-06T10:15:37Z</time>
      </trkpt>
      <trkpt lat="47.57697" lon="-2.525">
        <ele>44.7</ele>
        <time>2020-06-06T10:15:38Z</time>
      </trkpt>
      <trkpt lat="47.577" lon="-2.52506">
        <ele>44.6</ele>
        <time>2020-06-06T10:15:39Z</time>
      </trkpt>
      <trkpt lat="47.57703" lon="-2.52511">
        <ele>44.5</ele>
        <time>2020-06-06T10:15:40Z</time>
      </trkpt>
      <trkpt lat="47.57706" lon="-2.52517">
        <ele>44.5</ele>
        <time>2020-06-06T10:15:41Z</time>
      </trkpt>
      <trkpt lat="47.57708" lon="-2.52523">
        <ele>44.4</ele>
        <time>2020-06-06T10:15:42Z</time>
      </trkpt>
      <trkpt lat="47.57711" lon="-2.52529">
        <ele>44.3</ele>
        <time>2020-06-06T10:15:43Z</time>
      </trkpt>
      <trkpt lat="47.57714" lon="-2.52534">
        <ele>44.2</ele>
        <time>2020-06-06T10:15:44Z</time>
      </trkpt>
      <trkpt lat="47.57718" lon="-2.52539">
        <ele>44.2</ele>
        <time>2020-06-06T10:15:45Z</time>
      </trkpt>
      <trkpt lat="47.57721" lon="-2.52545">
        <ele>44.1</ele>
        <time>2020-06-06T10:15:46Z</time>
      </trkpt>
      <trkpt lat="47.57724" lon="-2.52551">
        <ele>44</ele>
        <time>2020-06-06T10:15:47Z</time>
      </trkpt>
      <trkpt lat="47.57726" lon="-2.52557">
        <ele>43.9</ele>
        <time>2020-06-06T10:15:48Z</time>
      </trkpt>
      <trkpt lat="47.57729" lon="-2.52562">
        <ele>43.8</ele>
        <time>2020-06-06T10:15:49Z</time>
      </trkpt>
      <trkpt lat="47.57732" lon="-2.52568">
        <ele>43.7</ele>
        <time>2020-06-06T10:15:50Z</time>
      </trkpt>
      <trkpt lat="47.57734" lon="-2.52573">
        <ele>43.6</ele>
        <time>2020-06-06T10:15:51Z</time>
      </trkpt>
      <trkpt lat="47.57737" lon="-2.52578">
        <ele>43.5</ele>
        <time>2020-06-06T10:15:52Z</time>
      </trkpt>
      <trkpt lat="47.57739" lon="-2.52584">
        <ele>43.4</ele>
        <time>2020-06-06T10:15:53Z</time>
      </trkpt>
      <trkpt lat="47.57742" lon="-2.52589">
        <ele>43.4</ele>
        <time>2020-06-06T10:15:54Z</time>
      </trkpt>
      <trkpt lat="47.57745" lon="-2.52594">
        <ele>43.3</ele>
        <time>2020-06-06T10:15:55Z</time>
      </trkpt>
      <trkpt lat="47.57748" lon="-2.52599">
        <ele>43.3</ele>
        <time>2020-06-06T10:15:56Z</time>
      </trkpt>
      <trkpt lat="47.57751" lon="-2.52605">
        <ele>43.2</ele>
        <time>2020-06-06T10:15:57Z</time>
      </trkpt>
      <trkpt lat="47.57754" lon="-2.5261">
        <ele>43</ele>
        <time>2020-06-06T10:15:58Z</time>
      </trkpt>
      <trkpt lat="47.57758" lon="-2.52616">
        <ele>42.9</ele>
        <time>2020-06-06T10:15:59Z</time>
      </trkpt>
      <trkpt lat="47.57761" lon="-2.52622">
        <ele>42.7</ele>
        <time>2020-06-06T10:16:00Z</time>
      </trkpt>
      <trkpt lat="47.57764" lon="-2.52629">
        <ele>42.5</ele>
        <time>2020-06-06T10:16:01Z</time>
      </trkpt>
      <trkpt lat="47.57767" lon="-2.52637">
        <ele>42.2</ele>
        <time>2020-06-06T10:16:02Z</time>
      </trkpt>
      <trkpt lat="47.57772" lon="-2.52652">
        <ele>41.8</ele>
        <time>2020-06-06T10:16:03Z</time>
      </trkpt>
      <trkpt lat="47.57775" lon="-2.52659">
        <ele>41.6</ele>
        <time>2020-06-06T10:16:04Z</time>
      </trkpt>
      <trkpt lat="47.57779" lon="-2.52666">
        <ele>41.3</ele>
        <time>2020-06-06T10:16:05Z</time>
      </trkpt>
      <trkpt lat="47.57783" lon="-2.52673">
        <ele>41.1</ele>
        <time>2020-06-06T10:16:06Z</time>
      </trkpt>
      <trkpt lat="47.57786" lon="-2.5268">
        <ele>40.9</ele>
        <time>2020-06-06T10:16:07Z</time>
      </trkpt>
      <trkpt lat="47.57789" lon="-2.52687">
        <ele>40.6</ele>
        <time>2020-06-06T10:16:08Z</time>
      </trkpt>
      <trkpt lat="47.57794" lon="-2.52693">
        <ele>40.4</ele>
        <time>2020-06-06T10:16:09Z</time>
      </trkpt>
      <trkpt lat="47.57798" lon="-2.527">
        <ele>40.1</ele>
        <time>2020-06-06T10:16:10Z</time>
      </trkpt>
      <trkpt lat="47.57801" lon="-2.52709">
        <ele>39.8</ele>
        <time>2020-06-06T10:16:11Z</time>
      </trkpt>
      <trkpt lat="47.57804" lon="-2.52718">
        <ele>39.5</ele>
        <time>2020-06-06T10:16:12Z</time>
      </trkpt>
      <trkpt lat="47.57808" lon="-2.52727">
        <ele>39.2</ele>
        <time>2020-06-06T10:16:13Z</time>
      </trkpt>
      <trkpt lat="47.57812" lon="-2.52734">
        <ele>39</ele>
        <time>2020-06-06T10:16:14Z</time>
      </trkpt>
      <trkpt lat="47.57816" lon="-2.52742">
        <ele>38.8</ele>
        <time>2020-06-06T10:16:15Z</time>
      </trkpt>
      <trkpt lat="47.5782" lon="-2.52749">
        <ele>38.6</ele>
        <time>2020-06-06T10:16:16Z</time>
      </trkpt>
      <trkpt lat="47.57824" lon="-2.52757">
        <ele>38.3</ele>
        <time>2020-06-06T10:16:17Z</time>
      </trkpt>
      <trkpt lat="47.57827" lon="-2.52766">
        <ele>38.1</ele>
        <time>2020-06-06T10:16:18Z</time>
      </trkpt>
      <trkpt lat="47.57831" lon="-2.52774">
        <ele>37.9</ele>
        <time>2020-06-06T10:16:19Z</time>
      </trkpt>
      <trkpt lat="47.57835" lon="-2.52782">
        <ele>37.7</ele>
        <time>2020-06-06T10:16:20Z</time>
      </trkpt>
      <trkpt lat="47.57839" lon="-2.5279">
        <ele>37.6</ele>
        <time>2020-06-06T10:16:21Z</time>
      </trkpt>
      <trkpt lat="47.57843" lon="-2.52798">
        <ele>37.4</ele>
        <time>2020-06-06T10:16:22Z</time>
      </trkpt>
      <trkpt lat="47.57847" lon="-2.52806">
        <ele>37.3</ele>
        <time>2020-06-06T10:16:23Z</time>
      </trkpt>
      <trkpt lat="47.57851" lon="-2.52814">
        <ele>37.2</ele>
        <time>2020-06-06T10:16:24Z</time>
      </trkpt>
      <trkpt lat="47.57855" lon="-2.52821">
        <ele>37.2</ele>
        <time>2020-06-06T10:16:25Z</time>
      </trkpt>
      <trkpt lat="47.57859" lon="-2.52829">
        <ele>37.1</ele>
        <time>2020-06-06T10:16:26Z</time>
      </trkpt>
      <trkpt lat="47.57863" lon="-2.52836">
        <ele>37.1</ele>
        <time>2020-06-06T10:16:27Z</time>
      </trkpt>
      <trkpt lat="47.57867" lon="-2.52843">
        <ele>37.1</ele>
        <time>2020-06-06T10:16:28Z</time>
      </trkpt>
      <trkpt lat="47.57871" lon="-2.52851">
        <ele>37.1</ele>
        <time>2020-06-06T10:16:29Z</time>
      </trkpt>
      <trkpt lat="47.57875" lon="-2.52858">
        <ele>37.1</ele>
        <time>2020-06-06T10:16:30Z</time>
      </trkpt>
      <trkpt lat="47.57879" lon="-2.52865">
        <ele>37.1</ele>
        <time>2020-06-06T10:16:31Z</time>
      </trkpt>
      <trkpt lat="47.57883" lon="-2.52872">
        <ele>37.1</ele>
        <time>2020-06-06T10:16:32Z</time>
      </trkpt>
      <trkpt lat="47.57886" lon="-2.5288">
        <ele>37.1</ele>
        <time>2020-06-06T10:16:33Z</time>
      </trkpt>
      <trkpt lat="47.5789" lon="-2.52888">
        <ele>37.2</ele>
        <time>2020-06-06T10:16:34Z</time>
      </trkpt>
      <trkpt lat="47.57893" lon="-2.52895">
        <ele>37.2</ele>
        <time>2020-06-06T10:16:35Z</time>
      </trkpt>
      <trkpt lat="47.57897" lon="-2.52902">
        <ele>37.3</ele>
        <time>2020-06-06T10:16:36Z</time>
      </trkpt>
      <trkpt lat="47.57901" lon="-2.52908">
        <ele>37.3</ele>
        <time>2020-06-06T10:16:37Z</time>
      </trkpt>
      <trkpt lat="47.57906" lon="-2.52915">
        <ele>37.3</ele>
        <time>2020-06-06T10:16:38Z</time>
      </trkpt>
      <trkpt lat="47.57909" lon="-2.52922">
        <ele>37.3</ele>
        <time>2020-06-06T10:16:39Z</time>
      </trkpt>
      <trkpt lat="47.57913" lon="-2.52929">
        <ele>37.3</ele>
        <time>2020-06-06T10:16:40Z</time>
      </trkpt>
      <trkpt lat="47.57917" lon="-2.52936">
        <ele>37.4</ele>
        <time>2020-06-06T10:16:41Z</time>
      </trkpt>
      <trkpt lat="47.57921" lon="-2.52944">
        <ele>37.4</ele>
        <time>2020-06-06T10:16:42Z</time>
      </trkpt>
      <trkpt lat="47.57924" lon="-2.52951">
        <ele>37.4</ele>
        <time>2020-06-06T10:16:43Z</time>
      </trkpt>
      <trkpt lat="47.57928" lon="-2.52957">
        <ele>37.5</ele>
        <time>2020-06-06T10:16:44Z</time>
      </trkpt>
      <trkpt lat="47.57931" lon="-2.52966">
        <ele>37.5</ele>
        <time>2020-06-06T10:16:45Z</time>
      </trkpt>
      <trkpt lat="47.57935" lon="-2.52973">
        <ele>37.6</ele>
        <time>2020-06-06T10:16:46Z</time>
      </trkpt>
      <trkpt lat="47.57938" lon="-2.52981">
        <ele>37.6</ele>
        <time>2020-06-06T10:16:47Z</time>
      </trkpt>
      <trkpt lat="47.57942" lon="-2.52988">
        <ele>37.6</ele>
        <time>2020-06-06T10:16:48Z</time>
      </trkpt>
      <trkpt lat="47.57947" lon="-2.52995">
        <ele>37.6</ele>
        <time>2020-06-06T10:16:49Z</time>
      </trkpt>
      <trkpt lat="47.57951" lon="-2.53002">
        <ele>37.6</ele>
        <time>2020-06-06T10:16:50Z</time>
      </trkpt>
      <trkpt lat="47.57956" lon="-2.53008">
        <ele>37.7</ele>
        <time>2020-06-06T10:16:51Z</time>
      </trkpt>
      <trkpt lat="47.5796" lon="-2.53015">
        <ele>37.7</ele>
        <time>2020-06-06T10:16:52Z</time>
      </trkpt>
      <trkpt lat="47.57964" lon="-2.53022">
        <ele>37.8</ele>
        <time>2020-06-06T10:16:53Z</time>
      </trkpt>
      <trkpt lat="47.57967" lon="-2.5303">
        <ele>37.8</ele>
        <time>2020-06-06T10:16:54Z</time>
      </trkpt>
      <trkpt lat="47.57971" lon="-2.53038">
        <ele>37.9</ele>
        <time>2020-06-06T10:16:55Z</time>
      </trkpt>
      <trkpt lat="47.57976" lon="-2.53045">
        <ele>37.9</ele>
        <time>2020-06-06T10:16:56Z</time>
      </trkpt>
      <trkpt lat="47.57979" lon="-2.53053">
        <ele>38</ele>
        <time>2020-06-06T10:16:57Z</time>
      </trkpt>
      <trkpt lat="47.57983" lon="-2.53062">
        <ele>38</ele>
        <time>2020-06-06T10:16:58Z</time>
      </trkpt>
      <trkpt lat="47.57987" lon="-2.53069">
        <ele>38</ele>
        <time>2020-06-06T10:16:59Z</time>
      </trkpt>
      <trkpt lat="47.57992" lon="-2.53076">
        <ele>38.1</ele>
        <time>2020-06-06T10:17:00Z</time>
      </trkpt>
      <trkpt lat="47.57996" lon="-2.53083">
        <ele>38.1</ele>
        <time>2020-06-06T10:17:01Z</time>
      </trkpt>
      <trkpt lat="47.58001" lon="-2.53091">
        <ele>38.1</ele>
        <time>2020-06-06T10:17:02Z</time>
      </trkpt>
      <trkpt lat="47.58005" lon="-2.53098">
        <ele>38.1</ele>
        <time>2020-06-06T10:17:03Z</time>
      </trkpt>
      <trkpt lat="47.58009" lon="-2.53106">
        <ele>38.1</ele>
        <time>2020-06-06T10:17:04Z</time>
      </trkpt>
      <trkpt lat="47.58013" lon="-2.53114">
        <ele>38.1</ele>
        <time>2020-06-06T10:17:05Z</time>
      </trkpt>
      <trkpt lat="47.58017" lon="-2.53122">
        <ele>38.1</ele>
        <time>2020-06-06T10:17:06Z</time>
      </trkpt>
      <trkpt lat="47.58021" lon="-2.5313">
        <ele>38.2</ele>
        <time>2020-06-06T10:17:07Z</time>
      </trkpt>
      <trkpt lat="47.58025" lon="-2.53137">
        <ele>38.2</ele>
        <time>2020-06-06T10:17:08Z</time>
      </trkpt>
      <trkpt lat="47.58028" lon="-2.53143">
        <ele>38.2</ele>
        <time>2020-06-06T10:17:09Z</time>
      </trkpt>
      <trkpt lat="47.58033" lon="-2.53151">
        <ele>38.2</ele>
        <time>2020-06-06T10:17:10Z</time>
      </trkpt>
      <trkpt lat="47.58037" lon="-2.53158">
        <ele>38.2</ele>
        <time>2020-06-06T10:17:11Z</time>
      </trkpt>
      <trkpt lat="47.5804" lon="-2.53165">
        <ele>38.2</ele>
        <time>2020-06-06T10:17:12Z</time>
      </trkpt>
      <trkpt lat="47.58044" lon="-2.53172">
        <ele>38.3</ele>
        <time>2020-06-06T10:17:13Z</time>
      </trkpt>
      <trkpt lat="47.58048" lon="-2.53179">
        <ele>38.3</ele>
        <time>2020-06-06T10:17:14Z</time>
      </trkpt>
      <trkpt lat="47.58051" lon="-2.53186">
        <ele>38.3</ele>
        <time>2020-06-06T10:17:15Z</time>
      </trkpt>
      <trkpt lat="47.58055" lon="-2.53193">
        <ele>38.3</ele>
        <time>2020-06-06T10:17:16Z</time>
      </trkpt>
      <trkpt lat="47.58059" lon="-2.532">
        <ele>38.3</ele>
        <time>2020-06-06T10:17:17Z</time>
      </trkpt>
      <trkpt lat="47.58064" lon="-2.53207">
        <ele>38.4</ele>
        <time>2020-06-06T10:17:18Z</time>
      </trkpt>
      <trkpt lat="47.58068" lon="-2.53214">
        <ele>38.4</ele>
        <time>2020-06-06T10:17:19Z</time>
      </trkpt>
      <trkpt lat="47.58072" lon="-2.53222">
        <ele>38.4</ele>
        <time>2020-06-06T10:17:20Z</time>
      </trkpt>
      <trkpt lat="47.58076" lon="-2.53229">
        <ele>38.5</ele>
        <time>2020-06-06T10:17:21Z</time>
      </trkpt>
      <trkpt lat="47.5808" lon="-2.53237">
        <ele>38.5</ele>
        <time>2020-06-06T10:17:22Z</time>
      </trkpt>
      <trkpt lat="47.58084" lon="-2.53244">
        <ele>38.6</ele>
        <time>2020-06-06T10:17:23Z</time>
      </trkpt>
      <trkpt lat="47.58089" lon="-2.53252">
        <ele>38.6</ele>
        <time>2020-06-06T10:17:24Z</time>
      </trkpt>
      <trkpt lat="47.58092" lon="-2.53259">
        <ele>38.6</ele>
        <time>2020-06-06T10:17:25Z</time>
      </trkpt>
      <trkpt lat="47.58096" lon="-2.53266">
        <ele>38.6</ele>
        <time>2020-06-06T10:17:26Z</time>
      </trkpt>
      <trkpt lat="47.58099" lon="-2.53273">
        <ele>38.7</ele>
        <time>2020-06-06T10:17:27Z</time>
      </trkpt>
      <trkpt lat="47.58104" lon="-2.53281">
        <ele>38.7</ele>
        <time>2020-06-06T10:17:28Z</time>
      </trkpt>
      <trkpt lat="47.58108" lon="-2.53288">
        <ele>38.8</ele>
        <time>2020-06-06T10:17:29Z</time>
      </trkpt>
      <trkpt lat="47.58112" lon="-2.53295">
        <ele>38.8</ele>
        <time>2020-06-06T10:17:30Z</time>
      </trkpt>
      <trkpt lat="47.58115" lon="-2.53302">
        <ele>38.9</ele>
        <time>2020-06-06T10:17:31Z</time>
      </trkpt>
      <trkpt lat="47.58118" lon="-2.53308">
        <ele>38.9</ele>
        <time>2020-06-06T10:17:32Z</time>
      </trkpt>
      <trkpt lat="47.58122" lon="-2.53315">
        <ele>38.9</ele>
        <time>2020-06-06T10:17:33Z</time>
      </trkpt>
      <trkpt lat="47.58127" lon="-2.53323">
        <ele>39</ele>
        <time>2020-06-06T10:17:34Z</time>
      </trkpt>
      <trkpt lat="47.5813" lon="-2.5333">
        <ele>39</ele>
        <time>2020-06-06T10:17:35Z</time>
      </trkpt>
      <trkpt lat="47.58134" lon="-2.53336">
        <ele>39</ele>
        <time>2020-06-06T10:17:36Z</time>
      </trkpt>
      <trkpt lat="47.58137" lon="-2.53342">
        <ele>39</ele>
        <time>2020-06-06T10:17:37Z</time>
      </trkpt>
      <trkpt lat="47.58141" lon="-2.53349">
        <ele>39.1</ele>
        <time>2020-06-06T10:17:38Z</time>
      </trkpt>
      <trkpt lat="47.58145" lon="-2.53356">
        <ele>39.2</ele>
        <time>2020-06-06T10:17:39Z</time>
      </trkpt>
      <trkpt lat="47.58149" lon="-2.53363">
        <ele>39.2</ele>
        <time>2020-06-06T10:17:40Z</time>
      </trkpt>
      <trkpt lat="47.58153" lon="-2.53371">
        <ele>39.3</ele>
        <time>2020-06-06T10:17:41Z</time>
      </trkpt>
      <trkpt lat="47.58158" lon="-2.53379">
        <ele>39.3</ele>
        <time>2020-06-06T10:17:42Z</time>
      </trkpt>
      <trkpt lat="47.58161" lon="-2.53385">
        <ele>39.4</ele>
        <time>2020-06-06T10:17:43Z</time>
      </trkpt>
      <trkpt lat="47.58166" lon="-2.53393">
        <ele>39.4</ele>
        <time>2020-06-06T10:17:44Z</time>
      </trkpt>
      <trkpt lat="47.58169" lon="-2.53401">
        <ele>39.4</ele>
        <time>2020-06-06T10:17:45Z</time>
      </trkpt>
      <trkpt lat="47.58173" lon="-2.53408">
        <ele>39.5</ele>
        <time>2020-06-06T10:17:46Z</time>
      </trkpt>
      <trkpt lat="47.58176" lon="-2.53415">
        <ele>39.5</ele>
        <time>2020-06-06T10:17:47Z</time>
      </trkpt>
      <trkpt lat="47.5818" lon="-2.5342">
        <ele>39.5</ele>
        <time>2020-06-06T10:17:48Z</time>
      </trkpt>
      <trkpt lat="47.58184" lon="-2.53427">
        <ele>39.6</ele>
        <time>2020-06-06T10:17:49Z</time>
      </trkpt>
      <trkpt lat="47.58187" lon="-2.53433">
        <ele>39.6</ele>
        <time>2020-06-06T10:17:50Z</time>
      </trkpt>
      <trkpt lat="47.5819" lon="-2.5344">
        <ele>39.7</ele>
        <time>2020-06-06T10:17:51Z</time>
      </trkpt>
      <trkpt lat="47.58194" lon="-2.53446">
        <ele>39.8</ele>
        <time>2020-06-06T10:17:52Z</time>
      </trkpt>
      <trkpt lat="47.58197" lon="-2.53452">
        <ele>39.8</ele>
        <time>2020-06-06T10:17:53Z</time>
      </trkpt>
      <trkpt lat="47.582" lon="-2.53458">
        <ele>39.9</ele>
        <time>2020-06-06T10:17:54Z</time>
      </trkpt>
      <trkpt lat="47.58204" lon="-2.53464">
        <ele>39.9</ele>
        <time>2020-06-06T10:17:55Z</time>
      </trkpt>
      <trkpt lat="47.58207" lon="-2.53469">
        <ele>39.9</ele>
        <time>2020-06-06T10:17:56Z</time>
      </trkpt>
      <trkpt lat="47.5821" lon="-2.53476">
        <ele>40</ele>
        <time>2020-06-06T10:17:57Z</time>
      </trkpt>
      <trkpt lat="47.58214" lon="-2.53482">
        <ele>40</ele>
        <time>2020-06-06T10:17:58Z</time>
      </trkpt>
      <trkpt lat="47.58218" lon="-2.53489">
        <ele>40</ele>
        <time>2020-06-06T10:17:59Z</time>
      </trkpt>
      <trkpt lat="47.58222" lon="-2.53495">
        <ele>40</ele>
        <time>2020-06-06T10:18:00Z</time>
      </trkpt>
      <trkpt lat="47.58225" lon="-2.53502">
        <ele>40.1</ele>
        <time>2020-06-06T10:18:01Z</time>
      </trkpt>
      <trkpt lat="47.58228" lon="-2.5351">
        <ele>40.1</ele>
        <time>2020-06-06T10:18:02Z</time>
      </trkpt>
      <trkpt lat="47.58231" lon="-2.53517">
        <ele>40.1</ele>
        <time>2020-06-06T10:18:03Z</time>
      </trkpt>
      <trkpt lat="47.58235" lon="-2.53524">
        <ele>40.2</ele>
        <time>2020-06-06T10:18:04Z</time>
      </trkpt>
      <trkpt lat="47.58239" lon="-2.5353">
        <ele>40.2</ele>
        <time>2020-06-06T10:18:05Z</time>
      </trkpt>
      <trkpt lat="47.58243" lon="-2.53537">
        <ele>40.2</ele>
        <time>2020-06-06T10:18:06Z</time>
      </trkpt>
      <trkpt lat="47.58248" lon="-2.53544">
        <ele>40.3</ele>
        <time>2020-06-06T10:18:07Z</time>
      </trkpt>
      <trkpt lat="47.58252" lon="-2.5355">
        <ele>40.3</ele>
        <time>2020-06-06T10:18:08Z</time>
      </trkpt>
      <trkpt lat="47.58256" lon="-2.53557">
        <ele>40.3</ele>
        <time>2020-06-06T10:18:09Z</time>
      </trkpt>
      <trkpt lat="47.5826" lon="-2.53565">
        <ele>40.3</ele>
        <time>2020-06-06T10:18:10Z</time>
      </trkpt>
      <trkpt lat="47.58264" lon="-2.53571">
        <ele>40.4</ele>
        <time>2020-06-06T10:18:11Z</time>
      </trkpt>
      <trkpt lat="47.58267" lon="-2.53577">
        <ele>40.4</ele>
        <time>2020-06-06T10:18:12Z</time>
      </trkpt>
      <trkpt lat="47.5827" lon="-2.53583">
        <ele>40.4</ele>
        <time>2020-06-06T10:18:13Z</time>
      </trkpt>
      <trkpt lat="47.58273" lon="-2.5359">
        <ele>40.4</ele>
        <time>2020-06-06T10:18:14Z</time>
      </trkpt>
      <trkpt lat="47.58278" lon="-2.53598">
        <ele>40.3</ele>
        <time>2020-06-06T10:18:15Z</time>
      </trkpt>
      <trkpt lat="47.58281" lon="-2.53604">
        <ele>40</ele>
        <time>2020-06-06T10:18:16Z</time>
      </trkpt>
      <trkpt lat="47.58285" lon="-2.53611">
        <ele>39.7</ele>
        <time>2020-06-06T10:18:17Z</time>
      </trkpt>
      <trkpt lat="47.58289" lon="-2.53618">
        <ele>39.7</ele>
        <time>2020-06-06T10:18:18Z</time>
      </trkpt>
      <trkpt lat="47.58293" lon="-2.53625">
        <ele>39.7</ele>
        <time>2020-06-06T10:18:19Z</time>
      </trkpt>
      <trkpt lat="47.58296" lon="-2.53631">
        <ele>39.7</ele>
        <time>2020-06-06T10:18:20Z</time>
      </trkpt>
      <trkpt lat="47.583" lon="-2.53638">
        <ele>39.7</ele>
        <time>2020-06-06T10:18:21Z</time>
      </trkpt>
      <trkpt lat="47.58303" lon="-2.53645">
        <ele>39.7</ele>
        <time>2020-06-06T10:18:22Z</time>
      </trkpt>
      <trkpt lat="47.58307" lon="-2.53652">
        <ele>39.7</ele>
        <time>2020-06-06T10:18:23Z</time>
      </trkpt>
      <trkpt lat="47.5831" lon="-2.53658">
        <ele>39.8</ele>
        <time>2020-06-06T10:18:24Z</time>
      </trkpt>
      <trkpt lat="47.58314" lon="-2.53665">
        <ele>39.8</ele>
        <time>2020-06-06T10:18:25Z</time>
      </trkpt>
      <trkpt lat="47.58318" lon="-2.53673">
        <ele>39.8</ele>
        <time>2020-06-06T10:18:26Z</time>
      </trkpt>
      <trkpt lat="47.58322" lon="-2.5368">
        <ele>39.8</ele>
        <time>2020-06-06T10:18:27Z</time>
      </trkpt>
      <trkpt lat="47.58326" lon="-2.53687">
        <ele>39.8</ele>
        <time>2020-06-06T10:18:28Z</time>
      </trkpt>
      <trkpt lat="47.58331" lon="-2.53697">
        <ele>39.9</ele>
        <time>2020-06-06T10:18:29Z</time>
      </trkpt>
      <trkpt lat="47.58335" lon="-2.53705">
        <ele>39.9</ele>
        <time>2020-06-06T10:18:30Z</time>
      </trkpt>
      <trkpt lat="47.58338" lon="-2.53711">
        <ele>39.9</ele>
        <time>2020-06-06T10:18:31Z</time>
      </trkpt>
      <trkpt lat="47.58342" lon="-2.53719">
        <ele>40</ele>
        <time>2020-06-06T10:18:32Z</time>
      </trkpt>
      <trkpt lat="47.58346" lon="-2.53726">
        <ele>40</ele>
        <time>2020-06-06T10:18:33Z</time>
      </trkpt>
      <trkpt lat="47.58349" lon="-2.53732">
        <ele>40</ele>
        <time>2020-06-06T10:18:34Z</time>
      </trkpt>
      <trkpt lat="47.58354" lon="-2.53739">
        <ele>40</ele>
        <time>2020-06-06T10:18:35Z</time>
      </trkpt>
      <trkpt lat="47.58358" lon="-2.53747">
        <ele>40</ele>
        <time>2020-06-06T10:18:36Z</time>
      </trkpt>
      <trkpt lat="47.58363" lon="-2.53754">
        <ele>40</ele>
        <time>2020-06-06T10:18:37Z</time>
      </trkpt>
      <trkpt lat="47.58367" lon="-2.53761">
        <ele>40</ele>
        <time>2020-06-06T10:18:38Z</time>
      </trkpt>
      <trkpt lat="47.58371" lon="-2.53768">
        <ele>40</ele>
        <time>2020-06-06T10:18:39Z</time>
      </trkpt>
      <trkpt lat="47.58375" lon="-2.53775">
        <ele>40</ele>
        <time>2020-06-06T10:18:40Z</time>
      </trkpt>
      <trkpt lat="47.58378" lon="-2.53782">
        <ele>40.1</ele>
        <time>2020-06-06T10:18:41Z</time>
      </trkpt>
      <trkpt lat="47.58382" lon="-2.53789">
        <ele>40.1</ele>
        <time>2020-06-06T10:18:42Z</time>
      </trkpt>
      <trkpt lat="47.58386" lon="-2.53796">
        <ele>40.1</ele>
        <time>2020-06-06T10:18:43Z</time>
      </trkpt>
      <trkpt lat="47.5839" lon="-2.53803">
        <ele>40.2</ele>
        <time>2020-06-06T10:18:44Z</time>
      </trkpt>
      <trkpt lat="47.58394" lon="-2.5381">
        <ele>40.2</ele>
        <time>2020-06-06T10:18:45Z</time>
      </trkpt>
      <trkpt lat="47.58397" lon="-2.53817">
        <ele>40.2</ele>
        <time>2020-06-06T10:18:46Z</time>
      </trkpt>
      <trkpt lat="47.584" lon="-2.53823">
        <ele>40.2</ele>
        <time>2020-06-06T10:18:47Z</time>
      </trkpt>
      <trkpt lat="47.58404" lon="-2.5383">
        <ele>40.3</ele>
        <time>2020-06-06T10:18:48Z</time>
      </trkpt>
      <trkpt lat="47.58407" lon="-2.53837">
        <ele>40.3</ele>
        <time>2020-06-06T10:18:49Z</time>
      </trkpt>
      <trkpt lat="47.58412" lon="-2.53844">
        <ele>40.3</ele>
        <time>2020-06-06T10:18:50Z</time>
      </trkpt>
      <trkpt lat="47.58415" lon="-2.53851">
        <ele>40.3</ele>
        <time>2020-06-06T10:18:51Z</time>
      </trkpt>
      <trkpt lat="47.58419" lon="-2.53858">
        <ele>40.3</ele>
        <time>2020-06-06T10:18:52Z</time>
      </trkpt>
      <trkpt lat="47.58422" lon="-2.53864">
        <ele>40.4</ele>
        <time>2020-06-06T10:18:53Z</time>
      </trkpt>
      <trkpt lat="47.58426" lon="-2.53871">
        <ele>40.4</ele>
        <time>2020-06-06T10:18:54Z</time>
      </trkpt>
      <trkpt lat="47.5843" lon="-2.53879">
        <ele>40.5</ele>
        <time>2020-06-06T10:18:55Z</time>
      </trkpt>
      <trkpt lat="47.58433" lon="-2.53886">
        <ele>40.5</ele>
        <time>2020-06-06T10:18:56Z</time>
      </trkpt>
      <trkpt lat="47.58438" lon="-2.53894">
        <ele>40.6</ele>
        <time>2020-06-06T10:18:57Z</time>
      </trkpt>
      <trkpt lat="47.58442" lon="-2.53902">
        <ele>40.6</ele>
        <time>2020-06-06T10:18:58Z</time>
      </trkpt>
      <trkpt lat="47.58445" lon="-2.53909">
        <ele>40.6</ele>
        <time>2020-06-06T10:18:59Z</time>
      </trkpt>
      <trkpt lat="47.58448" lon="-2.53914">
        <ele>40.7</ele>
        <time>2020-06-06T10:19:00Z</time>
      </trkpt>
      <trkpt lat="47.58451" lon="-2.53921">
        <ele>40.7</ele>
        <time>2020-06-06T10:19:01Z</time>
      </trkpt>
      <trkpt lat="47.58455" lon="-2.53928">
        <ele>40.7</ele>
        <time>2020-06-06T10:19:02Z</time>
      </trkpt>
      <trkpt lat="47.58459" lon="-2.53935">
        <ele>40.8</ele>
        <time>2020-06-06T10:19:03Z</time>
      </trkpt>
      <trkpt lat="47.58462" lon="-2.53942">
        <ele>40.8</ele>
        <time>2020-06-06T10:19:04Z</time>
      </trkpt>
      <trkpt lat="47.58466" lon="-2.53949">
        <ele>40.8</ele>
        <time>2020-06-06T10:19:05Z</time>
      </trkpt>
      <trkpt lat="47.5847" lon="-2.53956">
        <ele>40.9</ele>
        <time>2020-06-06T10:19:06Z</time>
      </trkpt>
      <trkpt lat="47.58474" lon="-2.53961">
        <ele>40.9</ele>
        <time>2020-06-06T10:19:07Z</time>
      </trkpt>
      <trkpt lat="47.58478" lon="-2.53967">
        <ele>40.9</ele>
        <time>2020-06-06T10:19:08Z</time>
      </trkpt>
      <trkpt lat="47.58481" lon="-2.53972">
        <ele>40.9</ele>
        <time>2020-06-06T10:19:09Z</time>
      </trkpt>
      <trkpt lat="47.58485" lon="-2.53977">
        <ele>41</ele>
        <time>2020-06-06T10:19:10Z</time>
      </trkpt>
      <trkpt lat="47.58488" lon="-2.53984">
        <ele>41</ele>
        <time>2020-06-06T10:19:11Z</time>
      </trkpt>
      <trkpt lat="47.58492" lon="-2.53989">
        <ele>41</ele>
        <time>2020-06-06T10:19:12Z</time>
      </trkpt>
      <trkpt lat="47.58496" lon="-2.53995">
        <ele>41</ele>
        <time>2020-06-06T10:19:13Z</time>
      </trkpt>
      <trkpt lat="47.585" lon="-2.54001">
        <ele>41</ele>
        <time>2020-06-06T10:19:14Z</time>
      </trkpt>
      <trkpt lat="47.58503" lon="-2.54007">
        <ele>41</ele>
        <time>2020-06-06T10:19:15Z</time>
      </trkpt>
      <trkpt lat="47.58506" lon="-2.54013">
        <ele>41</ele>
        <time>2020-06-06T10:19:16Z</time>
      </trkpt>
      <trkpt lat="47.58508" lon="-2.54018">
        <ele>41</ele>
        <time>2020-06-06T10:19:17Z</time>
      </trkpt>
      <trkpt lat="47.58511" lon="-2.54024">
        <ele>41</ele>
        <time>2020-06-06T10:19:18Z</time>
      </trkpt>
      <trkpt lat="47.58515" lon="-2.54032">
        <ele>41</ele>
        <time>2020-06-06T10:19:19Z</time>
      </trkpt>
      <trkpt lat="47.58518" lon="-2.54038">
        <ele>41</ele>
        <time>2020-06-06T10:19:20Z</time>
      </trkpt>
      <trkpt lat="47.58522" lon="-2.54046">
        <ele>41</ele>
        <time>2020-06-06T10:19:21Z</time>
      </trkpt>
      <trkpt lat="47.58525" lon="-2.54052">
        <ele>41.1</ele>
        <time>2020-06-06T10:19:22Z</time>
      </trkpt>
      <trkpt lat="47.58528" lon="-2.54057">
        <ele>41.1</ele>
        <time>2020-06-06T10:19:23Z</time>
      </trkpt>
      <trkpt lat="47.58531" lon="-2.54064">
        <ele>41.1</ele>
        <time>2020-06-06T10:19:24Z</time>
      </trkpt>
      <trkpt lat="47.58535" lon="-2.54071">
        <ele>41.1</ele>
        <time>2020-06-06T10:19:25Z</time>
      </trkpt>
      <trkpt lat="47.58538" lon="-2.54078">
        <ele>41.1</ele>
        <time>2020-06-06T10:19:26Z</time>
      </trkpt>
      <trkpt lat="47.5854" lon="-2.54083">
        <ele>41.1</ele>
        <time>2020-06-06T10:19:27Z</time>
      </trkpt>
      <trkpt lat="47.58543" lon="-2.54089">
        <ele>41.1</ele>
        <time>2020-06-06T10:19:28Z</time>
      </trkpt>
      <trkpt lat="47.58546" lon="-2.54095">
        <ele>41.1</ele>
        <time>2020-06-06T10:19:29Z</time>
      </trkpt>
      <trkpt lat="47.5855" lon="-2.54102">
        <ele>41</ele>
        <time>2020-06-06T10:19:30Z</time>
      </trkpt>
      <trkpt lat="47.58554" lon="-2.54109">
        <ele>41</ele>
        <time>2020-06-06T10:19:31Z</time>
      </trkpt>
      <trkpt lat="47.58558" lon="-2.54115">
        <ele>40.9</ele>
        <time>2020-06-06T10:19:32Z</time>
      </trkpt>
      <trkpt lat="47.58562" lon="-2.54123">
        <ele>40.9</ele>
        <time>2020-06-06T10:19:33Z</time>
      </trkpt>
      <trkpt lat="47.58565" lon="-2.5413">
        <ele>40.9</ele>
        <time>2020-06-06T10:19:34Z</time>
      </trkpt>
      <trkpt lat="47.58568" lon="-2.54137">
        <ele>41</ele>
        <time>2020-06-06T10:19:35Z</time>
      </trkpt>
      <trkpt lat="47.58573" lon="-2.54146">
        <ele>41</ele>
        <time>2020-06-06T10:19:36Z</time>
      </trkpt>
      <trkpt lat="47.58578" lon="-2.54155">
        <ele>41</ele>
        <time>2020-06-06T10:19:37Z</time>
      </trkpt>
      <trkpt lat="47.58581" lon="-2.54161">
        <ele>41</ele>
        <time>2020-06-06T10:19:38Z</time>
      </trkpt>
      <trkpt lat="47.58584" lon="-2.54167">
        <ele>40.9</ele>
        <time>2020-06-06T10:19:39Z</time>
      </trkpt>
      <trkpt lat="47.58588" lon="-2.54175">
        <ele>40.9</ele>
        <time>2020-06-06T10:19:40Z</time>
      </trkpt>
      <trkpt lat="47.58592" lon="-2.54182">
        <ele>40.9</ele>
        <time>2020-06-06T10:19:41Z</time>
      </trkpt>
      <trkpt lat="47.58595" lon="-2.54189">
        <ele>40.8</ele>
        <time>2020-06-06T10:19:42Z</time>
      </trkpt>
      <trkpt lat="47.58598" lon="-2.54196">
        <ele>40.8</ele>
        <time>2020-06-06T10:19:43Z</time>
      </trkpt>
      <trkpt lat="47.58602" lon="-2.54203">
        <ele>40.7</ele>
        <time>2020-06-06T10:19:44Z</time>
      </trkpt>
      <trkpt lat="47.58605" lon="-2.5421">
        <ele>40.7</ele>
        <time>2020-06-06T10:19:45Z</time>
      </trkpt>
      <trkpt lat="47.58608" lon="-2.54217">
        <ele>40.6</ele>
        <time>2020-06-06T10:19:46Z</time>
      </trkpt>
      <trkpt lat="47.58612" lon="-2.54225">
        <ele>40.5</ele>
        <time>2020-06-06T10:19:47Z</time>
      </trkpt>
      <trkpt lat="47.58615" lon="-2.54233">
        <ele>40.5</ele>
        <time>2020-06-06T10:19:48Z</time>
      </trkpt>
      <trkpt lat="47.58619" lon="-2.54241">
        <ele>40.5</ele>
        <time>2020-06-06T10:19:49Z</time>
      </trkpt>
      <trkpt lat="47.58623" lon="-2.54249">
        <ele>40.4</ele>
        <time>2020-06-06T10:19:50Z</time>
      </trkpt>
      <trkpt lat="47.58626" lon="-2.54257">
        <ele>40.4</ele>
        <time>2020-06-06T10:19:51Z</time>
      </trkpt>
      <trkpt lat="47.5863" lon="-2.54265">
        <ele>40.4</ele>
        <time>2020-06-06T10:19:52Z</time>
      </trkpt>
      <trkpt lat="47.58633" lon="-2.54273">
        <ele>40.3</ele>
        <time>2020-06-06T10:19:53Z</time>
      </trkpt>
      <trkpt lat="47.58637" lon="-2.54281">
        <ele>40.3</ele>
        <time>2020-06-06T10:19:54Z</time>
      </trkpt>
      <trkpt lat="47.5864" lon="-2.54289">
        <ele>40.2</ele>
        <time>2020-06-06T10:19:55Z</time>
      </trkpt>
      <trkpt lat="47.58643" lon="-2.54296">
        <ele>40.1</ele>
        <time>2020-06-06T10:19:56Z</time>
      </trkpt>
      <trkpt lat="47.58647" lon="-2.54304">
        <ele>40.1</ele>
        <time>2020-06-06T10:19:57Z</time>
      </trkpt>
      <trkpt lat="47.5865" lon="-2.54311">
        <ele>40</ele>
        <time>2020-06-06T10:19:58Z</time>
      </trkpt>
      <trkpt lat="47.58653" lon="-2.54319">
        <ele>39.9</ele>
        <time>2020-06-06T10:19:59Z</time>
      </trkpt>
      <trkpt lat="47.58656" lon="-2.54326">
        <ele>39.8</ele>
        <time>2020-06-06T10:20:00Z</time>
      </trkpt>
      <trkpt lat="47.5866" lon="-2.54333">
        <ele>39.7</ele>
        <time>2020-06-06T10:20:01Z</time>
      </trkpt>
      <trkpt lat="47.58663" lon="-2.5434">
        <ele>39.6</ele>
        <time>2020-06-06T10:20:02Z</time>
      </trkpt>
      <trkpt lat="47.58667" lon="-2.54348">
        <ele>39.5</ele>
        <time>2020-06-06T10:20:03Z</time>
      </trkpt>
      <trkpt lat="47.58671" lon="-2.54356">
        <ele>39.4</ele>
        <time>2020-06-06T10:20:04Z</time>
      </trkpt>
      <trkpt lat="47.58674" lon="-2.54363">
        <ele>39.4</ele>
        <time>2020-06-06T10:20:05Z</time>
      </trkpt>
      <trkpt lat="47.58677" lon="-2.54369">
        <ele>39.3</ele>
        <time>2020-06-06T10:20:06Z</time>
      </trkpt>
      <trkpt lat="47.5868" lon="-2.54375">
        <ele>39.2</ele>
        <time>2020-06-06T10:20:07Z</time>
      </trkpt>
      <trkpt lat="47.58683" lon="-2.54382">
        <ele>39.2</ele>
        <time>2020-06-06T10:20:08Z</time>
      </trkpt>
      <trkpt lat="47.58687" lon="-2.54389">
        <ele>39.1</ele>
        <time>2020-06-06T10:20:09Z</time>
      </trkpt>
      <trkpt lat="47.5869" lon="-2.54396">
        <ele>39</ele>
        <time>2020-06-06T10:20:10Z</time>
      </trkpt>
      <trkpt lat="47.58694" lon="-2.54405">
        <ele>38.9</ele>
        <time>2020-06-06T10:20:11Z</time>
      </trkpt>
      <trkpt lat="47.58697" lon="-2.54412">
        <ele>38.8</ele>
        <time>2020-06-06T10:20:12Z</time>
      </trkpt>
      <trkpt lat="47.58701" lon="-2.5442">
        <ele>38.6</ele>
        <time>2020-06-06T10:20:13Z</time>
      </trkpt>
      <trkpt lat="47.58704" lon="-2.54429">
        <ele>38.5</ele>
        <time>2020-06-06T10:20:14Z</time>
      </trkpt>
      <trkpt lat="47.58707" lon="-2.54437">
        <ele>38.3</ele>
        <time>2020-06-06T10:20:15Z</time>
      </trkpt>
      <trkpt lat="47.5871" lon="-2.54443">
        <ele>38.2</ele>
        <time>2020-06-06T10:20:16Z</time>
      </trkpt>
      <trkpt lat="47.58713" lon="-2.54451">
        <ele>38.1</ele>
        <time>2020-06-06T10:20:17Z</time>
      </trkpt>
      <trkpt lat="47.58717" lon="-2.5446">
        <ele>37.9</ele>
        <time>2020-06-06T10:20:18Z</time>
      </trkpt>
      <trkpt lat="47.5872" lon="-2.54467">
        <ele>37.8</ele>
        <time>2020-06-06T10:20:19Z</time>
      </trkpt>
      <trkpt lat="47.58724" lon="-2.54475">
        <ele>37.7</ele>
        <time>2020-06-06T10:20:20Z</time>
      </trkpt>
      <trkpt lat="47.58727" lon="-2.54483">
        <ele>37.5</ele>
        <time>2020-06-06T10:20:21Z</time>
      </trkpt>
      <trkpt lat="47.58731" lon="-2.54491">
        <ele>37.4</ele>
        <time>2020-06-06T10:20:22Z</time>
      </trkpt>
      <trkpt lat="47.58735" lon="-2.545">
        <ele>37.3</ele>
        <time>2020-06-06T10:20:23Z</time>
      </trkpt>
      <trkpt lat="47.58738" lon="-2.54509">
        <ele>37.1</ele>
        <time>2020-06-06T10:20:24Z</time>
      </trkpt>
      <trkpt lat="47.58741" lon="-2.54517">
        <ele>37</ele>
        <time>2020-06-06T10:20:25Z</time>
      </trkpt>
      <trkpt lat="47.58745" lon="-2.54524">
        <ele>36.8</ele>
        <time>2020-06-06T10:20:26Z</time>
      </trkpt>
      <trkpt lat="47.58748" lon="-2.54532">
        <ele>36.5</ele>
        <time>2020-06-06T10:20:27Z</time>
      </trkpt>
      <trkpt lat="47.58751" lon="-2.54539">
        <ele>36.4</ele>
        <time>2020-06-06T10:20:28Z</time>
      </trkpt>
      <trkpt lat="47.58754" lon="-2.54547">
        <ele>36.2</ele>
        <time>2020-06-06T10:20:29Z</time>
      </trkpt>
      <trkpt lat="47.58758" lon="-2.54555">
        <ele>36</ele>
        <time>2020-06-06T10:20:30Z</time>
      </trkpt>
      <trkpt lat="47.58761" lon="-2.54563">
        <ele>35.8</ele>
        <time>2020-06-06T10:20:31Z</time>
      </trkpt>
      <trkpt lat="47.58765" lon="-2.54571">
        <ele>35.6</ele>
        <time>2020-06-06T10:20:32Z</time>
      </trkpt>
      <trkpt lat="47.58768" lon="-2.5458">
        <ele>35.4</ele>
        <time>2020-06-06T10:20:33Z</time>
      </trkpt>
      <trkpt lat="47.58771" lon="-2.54588">
        <ele>35.2</ele>
        <time>2020-06-06T10:20:34Z</time>
      </trkpt>
      <trkpt lat="47.58775" lon="-2.54596">
        <ele>35</ele>
        <time>2020-06-06T10:20:35Z</time>
      </trkpt>
      <trkpt lat="47.58778" lon="-2.54604">
        <ele>34.8</ele>
        <time>2020-06-06T10:20:36Z</time>
      </trkpt>
      <trkpt lat="47.58782" lon="-2.54612">
        <ele>34.7</ele>
        <time>2020-06-06T10:20:37Z</time>
      </trkpt>
      <trkpt lat="47.58785" lon="-2.54619">
        <ele>34.5</ele>
        <time>2020-06-06T10:20:38Z</time>
      </trkpt>
      <trkpt lat="47.58789" lon="-2.54628">
        <ele>34.3</ele>
        <time>2020-06-06T10:20:39Z</time>
      </trkpt>
      <trkpt lat="47.58793" lon="-2.54636">
        <ele>34.1</ele>
        <time>2020-06-06T10:20:40Z</time>
      </trkpt>
      <trkpt lat="47.58796" lon="-2.54644">
        <ele>33.9</ele>
        <time>2020-06-06T10:20:41Z</time>
      </trkpt>
      <trkpt lat="47.588" lon="-2.54652">
        <ele>33.7</ele>
        <time>2020-06-06T10:20:42Z</time>
      </trkpt>
      <trkpt lat="47.58803" lon="-2.54659">
        <ele>33.6</ele>
        <time>2020-06-06T10:20:43Z</time>
      </trkpt>
      <trkpt lat="47.58807" lon="-2.54666">
        <ele>33.4</ele>
        <time>2020-06-06T10:20:44Z</time>
      </trkpt>
      <trkpt lat="47.5881" lon="-2.54675">
        <ele>33.3</ele>
        <time>2020-06-06T10:20:45Z</time>
      </trkpt>
      <trkpt lat="47.58814" lon="-2.54682">
        <ele>33.2</ele>
        <time>2020-06-06T10:20:46Z</time>
      </trkpt>
      <trkpt lat="47.58817" lon="-2.5469">
        <ele>33.1</ele>
        <time>2020-06-06T10:20:47Z</time>
      </trkpt>
      <trkpt lat="47.58821" lon="-2.54698">
        <ele>33.1</ele>
        <time>2020-06-06T10:20:48Z</time>
      </trkpt>
      <trkpt lat="47.58825" lon="-2.54705">
        <ele>33</ele>
        <time>2020-06-06T10:20:49Z</time>
      </trkpt>
      <trkpt lat="47.58828" lon="-2.54713">
        <ele>32.9</ele>
        <time>2020-06-06T10:20:50Z</time>
      </trkpt>
      <trkpt lat="47.58832" lon="-2.54721">
        <ele>32.9</ele>
        <time>2020-06-06T10:20:51Z</time>
      </trkpt>
      <trkpt lat="47.58836" lon="-2.54729">
        <ele>32.8</ele>
        <time>2020-06-06T10:20:52Z</time>
      </trkpt>
      <trkpt lat="47.5884" lon="-2.54737">
        <ele>32.8</ele>
        <time>2020-06-06T10:20:53Z</time>
      </trkpt>
      <trkpt lat="47.58843" lon="-2.54744">
        <ele>32.8</ele>
        <time>2020-06-06T10:20:54Z</time>
      </trkpt>
      <trkpt lat="47.58847" lon="-2.54752">
        <ele>32.8</ele>
        <time>2020-06-06T10:20:55Z</time>
      </trkpt>
      <trkpt lat="47.5885" lon="-2.54758">
        <ele>32.7</ele>
        <time>2020-06-06T10:20:56Z</time>
      </trkpt>
      <trkpt lat="47.58854" lon="-2.54766">
        <ele>32.7</ele>
        <time>2020-06-06T10:20:57Z</time>
      </trkpt>
      <trkpt lat="47.58858" lon="-2.54772">
        <ele>32.7</ele>
        <time>2020-06-06T10:20:58Z</time>
      </trkpt>
      <trkpt lat="47.58862" lon="-2.54779">
        <ele>32.6</ele>
        <time>2020-06-06T10:20:59Z</time>
      </trkpt>
      <trkpt lat="47.58866" lon="-2.54787">
        <ele>32.5</ele>
        <time>2020-06-06T10:21:00Z</time>
      </trkpt>
      <trkpt lat="47.5887" lon="-2.54794">
        <ele>32.5</ele>
        <time>2020-06-06T10:21:01Z</time>
      </trkpt>
      <trkpt lat="47.58875" lon="-2.548">
        <ele>32.4</ele>
        <time>2020-06-06T10:21:02Z</time>
      </trkpt>
      <trkpt lat="47.5888" lon="-2.54807">
        <ele>32.3</ele>
        <time>2020-06-06T10:21:03Z</time>
      </trkpt>
      <trkpt lat="47.58885" lon="-2.54812">
        <ele>32.2</ele>
        <time>2020-06-06T10:21:04Z</time>
      </trkpt>
      <trkpt lat="47.58889" lon="-2.54816">
        <ele>32.1</ele>
        <time>2020-06-06T10:21:05Z</time>
      </trkpt>
      <trkpt lat="47.58894" lon="-2.54821">
        <ele>32</ele>
        <time>2020-06-06T10:21:06Z</time>
      </trkpt>
      <trkpt lat="47.589" lon="-2.54825">
        <ele>31.9</ele>
        <time>2020-06-06T10:21:07Z</time>
      </trkpt>
      <trkpt lat="47.58905" lon="-2.54828">
        <ele>31.8</ele>
        <time>2020-06-06T10:21:08Z</time>
      </trkpt>
      <trkpt lat="47.58912" lon="-2.54831">
        <ele>31.6</ele>
        <time>2020-06-06T10:21:09Z</time>
      </trkpt>
      <trkpt lat="47.58917" lon="-2.54833">
        <ele>31.4</ele>
        <time>2020-06-06T10:21:10Z</time>
      </trkpt>
      <trkpt lat="47.58924" lon="-2.54835">
        <ele>31.3</ele>
        <time>2020-06-06T10:21:11Z</time>
      </trkpt>
      <trkpt lat="47.58929" lon="-2.54838">
        <ele>31.2</ele>
        <time>2020-06-06T10:21:12Z</time>
      </trkpt>
      <trkpt lat="47.58935" lon="-2.54839">
        <ele>31.1</ele>
        <time>2020-06-06T10:21:13Z</time>
      </trkpt>
      <trkpt lat="47.5894" lon="-2.54841">
        <ele>31</ele>
        <time>2020-06-06T10:21:14Z</time>
      </trkpt>
      <trkpt lat="47.58945" lon="-2.54842">
        <ele>30.9</ele>
        <time>2020-06-06T10:21:15Z</time>
      </trkpt>
      <trkpt lat="47.5895" lon="-2.54843">
        <ele>30.8</ele>
        <time>2020-06-06T10:21:16Z</time>
      </trkpt>
      <trkpt lat="47.58955" lon="-2.54842">
        <ele>30.6</ele>
        <time>2020-06-06T10:21:17Z</time>
      </trkpt>
      <trkpt lat="47.58961" lon="-2.54841">
        <ele>30.5</ele>
        <time>2020-06-06T10:21:18Z</time>
      </trkpt>
      <trkpt lat="47.58967" lon="-2.5484">
        <ele>30.4</ele>
        <time>2020-06-06T10:21:19Z</time>
      </trkpt>
      <trkpt lat="47.58973" lon="-2.5484">
        <ele>30.3</ele>
        <time>2020-06-06T10:21:20Z</time>
      </trkpt>
      <trkpt lat="47.58979" lon="-2.5484">
        <ele>30.3</ele>
        <time>2020-06-06T10:21:21Z</time>
      </trkpt>
      <trkpt lat="47.58983" lon="-2.54839">
        <ele>30.2</ele>
        <time>2020-06-06T10:21:22Z</time>
      </trkpt>
      <trkpt lat="47.58989" lon="-2.54839">
        <ele>30.1</ele>
        <time>2020-06-06T10:21:23Z</time>
      </trkpt>
      <trkpt lat="47.58995" lon="-2.54839">
        <ele>30</ele>
        <time>2020-06-06T10:21:24Z</time>
      </trkpt>
      <trkpt lat="47.59002" lon="-2.5484">
        <ele>29.9</ele>
        <time>2020-06-06T10:21:25Z</time>
      </trkpt>
      <trkpt lat="47.59008" lon="-2.54843">
        <ele>29.8</ele>
        <time>2020-06-06T10:21:26Z</time>
      </trkpt>
      <trkpt lat="47.59014" lon="-2.54847">
        <ele>29.7</ele>
        <time>2020-06-06T10:21:27Z</time>
      </trkpt>
      <trkpt lat="47.59019" lon="-2.54851">
        <ele>29.6</ele>
        <time>2020-06-06T10:21:28Z</time>
      </trkpt>
      <trkpt lat="47.59024" lon="-2.54857">
        <ele>29.4</ele>
        <time>2020-06-06T10:21:29Z</time>
      </trkpt>
      <trkpt lat="47.59029" lon="-2.54863">
        <ele>29.4</ele>
        <time>2020-06-06T10:21:30Z</time>
      </trkpt>
      <trkpt lat="47.59032" lon="-2.5487">
        <ele>29.4</ele>
        <time>2020-06-06T10:21:31Z</time>
      </trkpt>
      <trkpt lat="47.59033" lon="-2.54878">
        <ele>29.4</ele>
        <time>2020-06-06T10:21:32Z</time>
      </trkpt>
      <trkpt lat="47.59034" lon="-2.54887">
        <ele>29.4</ele>
        <time>2020-06-06T10:21:33Z</time>
      </trkpt>
      <trkpt lat="47.59034" lon="-2.54893">
        <ele>29.4</ele>
        <time>2020-06-06T10:21:34Z</time>
      </trkpt>
      <trkpt lat="47.59035" lon="-2.54902">
        <ele>29.4</ele>
        <time>2020-06-06T10:21:35Z</time>
      </trkpt>
      <trkpt lat="47.59036" lon="-2.54912">
        <ele>29.4</ele>
        <time>2020-06-06T10:21:36Z</time>
      </trkpt>
      <trkpt lat="47.59039" lon="-2.54921">
        <ele>29.4</ele>
        <time>2020-06-06T10:21:37Z</time>
      </trkpt>
      <trkpt lat="47.59042" lon="-2.5493">
        <ele>29.4</ele>
        <time>2020-06-06T10:21:38Z</time>
      </trkpt>
      <trkpt lat="47.59046" lon="-2.54937">
        <ele>29.4</ele>
        <time>2020-06-06T10:21:39Z</time>
      </trkpt>
      <trkpt lat="47.59049" lon="-2.54946">
        <ele>29.3</ele>
        <time>2020-06-06T10:21:40Z</time>
      </trkpt>
      <trkpt lat="47.5905" lon="-2.54955">
        <ele>29</ele>
        <time>2020-06-06T10:21:41Z</time>
      </trkpt>
      <trkpt lat="47.5905" lon="-2.54965">
        <ele>28.7</ele>
        <time>2020-06-06T10:21:42Z</time>
      </trkpt>
      <trkpt lat="47.59047" lon="-2.54973">
        <ele>28.6</ele>
        <time>2020-06-06T10:21:43Z</time>
      </trkpt>
      <trkpt lat="47.59043" lon="-2.54983">
        <ele>28.6</ele>
        <time>2020-06-06T10:21:44Z</time>
      </trkpt>
      <trkpt lat="47.59039" lon="-2.5499">
        <ele>28.5</ele>
        <time>2020-06-06T10:21:45Z</time>
      </trkpt>
      <trkpt lat="47.59035" lon="-2.54999">
        <ele>28.6</ele>
        <time>2020-06-06T10:21:46Z</time>
      </trkpt>
      <trkpt lat="47.59031" lon="-2.55008">
        <ele>28.7</ele>
        <time>2020-06-06T10:21:47Z</time>
      </trkpt>
      <trkpt lat="47.59029" lon="-2.55018">
        <ele>28.8</ele>
        <time>2020-06-06T10:21:48Z</time>
      </trkpt>
      <trkpt lat="47.59028" lon="-2.55026">
        <ele>28.9</ele>
        <time>2020-06-06T10:21:49Z</time>
      </trkpt>
      <trkpt lat="47.59026" lon="-2.55034">
        <ele>29</ele>
        <time>2020-06-06T10:21:50Z</time>
      </trkpt>
      <trkpt lat="47.59025" lon="-2.55043">
        <ele>29.2</ele>
        <time>2020-06-06T10:21:51Z</time>
      </trkpt>
      <trkpt lat="47.59023" lon="-2.55055">
        <ele>29.4</ele>
        <time>2020-06-06T10:21:52Z</time>
      </trkpt>
      <trkpt lat="47.59021" lon="-2.55062">
        <ele>29.7</ele>
        <time>2020-06-06T10:21:53Z</time>
      </trkpt>
      <trkpt lat="47.5902" lon="-2.55067">
        <ele>29.9</ele>
        <time>2020-06-06T10:21:54Z</time>
      </trkpt>
      <trkpt lat="47.59018" lon="-2.55072">
        <ele>30.1</ele>
        <time>2020-06-06T10:21:55Z</time>
      </trkpt>
      <trkpt lat="47.59017" lon="-2.55078">
        <ele>30.3</ele>
        <time>2020-06-06T10:21:56Z</time>
      </trkpt>
      <trkpt lat="47.59016" lon="-2.55085">
        <ele>30.5</ele>
        <time>2020-06-06T10:21:57Z</time>
      </trkpt>
      <trkpt lat="47.59015" lon="-2.55091">
        <ele>30.8</ele>
        <time>2020-06-06T10:21:58Z</time>
      </trkpt>
      <trkpt lat="47.59014" lon="-2.55097">
        <ele>31</ele>
        <time>2020-06-06T10:21:59Z</time>
      </trkpt>
      <trkpt lat="47.59013" lon="-2.55103">
        <ele>31.2</ele>
        <time>2020-06-06T10:22:00Z</time>
      </trkpt>
      <trkpt lat="47.59012" lon="-2.55111">
        <ele>31.5</ele>
        <time>2020-06-06T10:22:01Z</time>
      </trkpt>
      <trkpt lat="47.59012" lon="-2.55118">
        <ele>31.8</ele>
        <time>2020-06-06T10:22:02Z</time>
      </trkpt>
      <trkpt lat="47.59012" lon="-2.55124">
        <ele>32</ele>
        <time>2020-06-06T10:22:03Z</time>
      </trkpt>
      <trkpt lat="47.59011" lon="-2.55132">
        <ele>32.3</ele>
        <time>2020-06-06T10:22:04Z</time>
      </trkpt>
      <trkpt lat="47.5901" lon="-2.5514">
        <ele>32.6</ele>
        <time>2020-06-06T10:22:05Z</time>
      </trkpt>
      <trkpt lat="47.59009" lon="-2.5515">
        <ele>32.9</ele>
        <time>2020-06-06T10:22:06Z</time>
      </trkpt>
      <trkpt lat="47.59009" lon="-2.55157">
        <ele>33.2</ele>
        <time>2020-06-06T10:22:07Z</time>
      </trkpt>
      <trkpt lat="47.59009" lon="-2.55165">
        <ele>33.4</ele>
        <time>2020-06-06T10:22:08Z</time>
      </trkpt>
      <trkpt lat="47.5901" lon="-2.55172">
        <ele>33.6</ele>
        <time>2020-06-06T10:22:09Z</time>
      </trkpt>
      <trkpt lat="47.59009" lon="-2.55179">
        <ele>33.8</ele>
        <time>2020-06-06T10:22:10Z</time>
      </trkpt>
      <trkpt lat="47.5901" lon="-2.55189">
        <ele>34</ele>
        <time>2020-06-06T10:22:11Z</time>
      </trkpt>
      <trkpt lat="47.59011" lon="-2.55198">
        <ele>34.2</ele>
        <time>2020-06-06T10:22:12Z</time>
      </trkpt>
      <trkpt lat="47.59012" lon="-2.55204">
        <ele>34.3</ele>
        <time>2020-06-06T10:22:13Z</time>
      </trkpt>
      <trkpt lat="47.59014" lon="-2.5521">
        <ele>34.5</ele>
        <time>2020-06-06T10:22:14Z</time>
      </trkpt>
      <trkpt lat="47.59015" lon="-2.55217">
        <ele>34.6</ele>
        <time>2020-06-06T10:22:15Z</time>
      </trkpt>
      <trkpt lat="47.59016" lon="-2.55223">
        <ele>34.7</ele>
        <time>2020-06-06T10:22:16Z</time>
      </trkpt>
      <trkpt lat="47.59019" lon="-2.5523">
        <ele>34.8</ele>
        <time>2020-06-06T10:22:17Z</time>
      </trkpt>
      <trkpt lat="47.59021" lon="-2.55237">
        <ele>34.9</ele>
        <time>2020-06-06T10:22:18Z</time>
      </trkpt>
      <trkpt lat="47.59022" lon="-2.5524">
        <ele>34.9</ele>
        <time>2020-06-06T10:22:19Z</time>
      </trkpt>
      <trkpt lat="47.59024" lon="-2.55247">
        <ele>35.3</ele>
        <time>2020-06-06T10:22:20Z</time>
      </trkpt>
      <trkpt lat="47.59026" lon="-2.55252">
        <ele>35.6</ele>
        <time>2020-06-06T10:22:21Z</time>
      </trkpt>
      <trkpt lat="47.59028" lon="-2.55259">
        <ele>35.8</ele>
        <time>2020-06-06T10:22:22Z</time>
      </trkpt>
      <trkpt lat="47.59031" lon="-2.55266">
        <ele>35.8</ele>
        <time>2020-06-06T10:22:23Z</time>
      </trkpt>
      <trkpt lat="47.59033" lon="-2.55273">
        <ele>35.9</ele>
        <time>2020-06-06T10:22:24Z</time>
      </trkpt>
      <trkpt lat="47.59035" lon="-2.55278">
        <ele>35.9</ele>
        <time>2020-06-06T10:22:25Z</time>
      </trkpt>
      <trkpt lat="47.59037" lon="-2.55284">
        <ele>35.9</ele>
        <time>2020-06-06T10:22:26Z</time>
      </trkpt>
      <trkpt lat="47.59039" lon="-2.55289">
        <ele>35.9</ele>
        <time>2020-06-06T10:22:27Z</time>
      </trkpt>
      <trkpt lat="47.59042" lon="-2.55294">
        <ele>35.8</ele>
        <time>2020-06-06T10:22:28Z</time>
      </trkpt>
      <trkpt lat="47.59046" lon="-2.553">
        <ele>35.8</ele>
        <time>2020-06-06T10:22:29Z</time>
      </trkpt>
      <trkpt lat="47.59047" lon="-2.55306">
        <ele>35.8</ele>
        <time>2020-06-06T10:22:31Z</time>
      </trkpt>
      <trkpt lat="47.5905" lon="-2.55312">
        <ele>35.8</ele>
        <time>2020-06-06T10:22:32Z</time>
      </trkpt>
      <trkpt lat="47.59053" lon="-2.55316">
        <ele>35.7</ele>
        <time>2020-06-06T10:22:33Z</time>
      </trkpt>
      <trkpt lat="47.59055" lon="-2.55322">
        <ele>35.7</ele>
        <time>2020-06-06T10:22:34Z</time>
      </trkpt>
      <trkpt lat="47.59057" lon="-2.55328">
        <ele>35.6</ele>
        <time>2020-06-06T10:22:35Z</time>
      </trkpt>
      <trkpt lat="47.5906" lon="-2.55334">
        <ele>35.5</ele>
        <time>2020-06-06T10:22:36Z</time>
      </trkpt>
      <trkpt lat="47.59062" lon="-2.5534">
        <ele>35.5</ele>
        <time>2020-06-06T10:22:37Z</time>
      </trkpt>
      <trkpt lat="47.59065" lon="-2.55346">
        <ele>35.4</ele>
        <time>2020-06-06T10:22:38Z</time>
      </trkpt>
      <trkpt lat="47.59067" lon="-2.55352">
        <ele>35.3</ele>
        <time>2020-06-06T10:22:39Z</time>
      </trkpt>
      <trkpt lat="47.5907" lon="-2.55358">
        <ele>35.2</ele>
        <time>2020-06-06T10:22:40Z</time>
      </trkpt>
      <trkpt lat="47.59072" lon="-2.55363">
        <ele>35.1</ele>
        <time>2020-06-06T10:22:41Z</time>
      </trkpt>
      <trkpt lat="47.59073" lon="-2.55368">
        <ele>35</ele>
        <time>2020-06-06T10:22:42Z</time>
      </trkpt>
      <trkpt lat="47.59075" lon="-2.55374">
        <ele>34.9</ele>
        <time>2020-06-06T10:22:43Z</time>
      </trkpt>
      <trkpt lat="47.59077" lon="-2.55378">
        <ele>34.8</ele>
        <time>2020-06-06T10:22:44Z</time>
      </trkpt>
      <trkpt lat="47.59079" lon="-2.55383">
        <ele>34.7</ele>
        <time>2020-06-06T10:22:45Z</time>
      </trkpt>
      <trkpt lat="47.59081" lon="-2.55389">
        <ele>34.6</ele>
        <time>2020-06-06T10:22:46Z</time>
      </trkpt>
      <trkpt lat="47.59084" lon="-2.55396">
        <ele>34.5</ele>
        <time>2020-06-06T10:22:47Z</time>
      </trkpt>
      <trkpt lat="47.59086" lon="-2.55402">
        <ele>34.4</ele>
        <time>2020-06-06T10:22:48Z</time>
      </trkpt>
      <trkpt lat="47.59088" lon="-2.55407">
        <ele>34.3</ele>
        <time>2020-06-06T10:22:49Z</time>
      </trkpt>
      <trkpt lat="47.59091" lon="-2.55413">
        <ele>34.1</ele>
        <time>2020-06-06T10:22:50Z</time>
      </trkpt>
      <trkpt lat="47.59093" lon="-2.55419">
        <ele>34</ele>
        <time>2020-06-06T10:22:51Z</time>
      </trkpt>
      <trkpt lat="47.59095" lon="-2.55425">
        <ele>33.9</ele>
        <time>2020-06-06T10:22:52Z</time>
      </trkpt>
      <trkpt lat="47.591" lon="-2.55438">
        <ele>33.6</ele>
        <time>2020-06-06T10:22:53Z</time>
      </trkpt>
      <trkpt lat="47.59103" lon="-2.55445">
        <ele>33.4</ele>
        <time>2020-06-06T10:22:54Z</time>
      </trkpt>
      <trkpt lat="47.59105" lon="-2.55452">
        <ele>33.3</ele>
        <time>2020-06-06T10:22:55Z</time>
      </trkpt>
      <trkpt lat="47.59108" lon="-2.55457">
        <ele>33.1</ele>
        <time>2020-06-06T10:22:56Z</time>
      </trkpt>
      <trkpt lat="47.5911" lon="-2.55465">
        <ele>33</ele>
        <time>2020-06-06T10:22:57Z</time>
      </trkpt>
      <trkpt lat="47.59113" lon="-2.55472">
        <ele>32.8</ele>
        <time>2020-06-06T10:22:58Z</time>
      </trkpt>
      <trkpt lat="47.59116" lon="-2.55478">
        <ele>32.7</ele>
        <time>2020-06-06T10:22:59Z</time>
      </trkpt>
      <trkpt lat="47.59118" lon="-2.55484">
        <ele>32.5</ele>
        <time>2020-06-06T10:23:00Z</time>
      </trkpt>
      <trkpt lat="47.59123" lon="-2.55493">
        <ele>32.2</ele>
        <time>2020-06-06T10:23:01Z</time>
      </trkpt>
      <trkpt lat="47.59126" lon="-2.55502">
        <ele>32</ele>
        <time>2020-06-06T10:23:02Z</time>
      </trkpt>
      <trkpt lat="47.59128" lon="-2.55509">
        <ele>31.8</ele>
        <time>2020-06-06T10:23:03Z</time>
      </trkpt>
      <trkpt lat="47.5913" lon="-2.55517">
        <ele>31.7</ele>
        <time>2020-06-06T10:23:04Z</time>
      </trkpt>
      <trkpt lat="47.59133" lon="-2.55524">
        <ele>31.5</ele>
        <time>2020-06-06T10:23:05Z</time>
      </trkpt>
      <trkpt lat="47.59135" lon="-2.55531">
        <ele>31.4</ele>
        <time>2020-06-06T10:23:06Z</time>
      </trkpt>
      <trkpt lat="47.59138" lon="-2.55539">
        <ele>31.3</ele>
        <time>2020-06-06T10:23:07Z</time>
      </trkpt>
      <trkpt lat="47.59141" lon="-2.55548">
        <ele>31.2</ele>
        <time>2020-06-06T10:23:08Z</time>
      </trkpt>
      <trkpt lat="47.59144" lon="-2.55555">
        <ele>31.1</ele>
        <time>2020-06-06T10:23:09Z</time>
      </trkpt>
      <trkpt lat="47.59147" lon="-2.55562">
        <ele>31</ele>
        <time>2020-06-06T10:23:10Z</time>
      </trkpt>
      <trkpt lat="47.5915" lon="-2.5557">
        <ele>30.9</ele>
        <time>2020-06-06T10:23:11Z</time>
      </trkpt>
      <trkpt lat="47.59152" lon="-2.55578">
        <ele>30.8</ele>
        <time>2020-06-06T10:23:12Z</time>
      </trkpt>
      <trkpt lat="47.59154" lon="-2.55586">
        <ele>30.8</ele>
        <time>2020-06-06T10:23:13Z</time>
      </trkpt>
      <trkpt lat="47.59157" lon="-2.55595">
        <ele>30.7</ele>
        <time>2020-06-06T10:23:14Z</time>
      </trkpt>
      <trkpt lat="47.59159" lon="-2.55602">
        <ele>30.7</ele>
        <time>2020-06-06T10:23:15Z</time>
      </trkpt>
      <trkpt lat="47.59161" lon="-2.55609">
        <ele>30.7</ele>
        <time>2020-06-06T10:23:16Z</time>
      </trkpt>
      <trkpt lat="47.59164" lon="-2.55618">
        <ele>30.7</ele>
        <time>2020-06-06T10:23:17Z</time>
      </trkpt>
      <trkpt lat="47.59166" lon="-2.55625">
        <ele>30.6</ele>
        <time>2020-06-06T10:23:18Z</time>
      </trkpt>
      <trkpt lat="47.5917" lon="-2.55633">
        <ele>30.6</ele>
        <time>2020-06-06T10:23:19Z</time>
      </trkpt>
      <trkpt lat="47.59171" lon="-2.5564">
        <ele>30.6</ele>
        <time>2020-06-06T10:23:20Z</time>
      </trkpt>
      <trkpt lat="47.59174" lon="-2.55646">
        <ele>30.6</ele>
        <time>2020-06-06T10:23:21Z</time>
      </trkpt>
      <trkpt lat="47.59176" lon="-2.55652">
        <ele>30.6</ele>
        <time>2020-06-06T10:23:22Z</time>
      </trkpt>
      <trkpt lat="47.59177" lon="-2.55658">
        <ele>30.6</ele>
        <time>2020-06-06T10:23:23Z</time>
      </trkpt>
      <trkpt lat="47.59179" lon="-2.55665">
        <ele>30.6</ele>
        <time>2020-06-06T10:23:24Z</time>
      </trkpt>
      <trkpt lat="47.59181" lon="-2.5567">
        <ele>30.7</ele>
        <time>2020-06-06T10:23:25Z</time>
      </trkpt>
      <trkpt lat="47.59182" lon="-2.55675">
        <ele>30.7</ele>
        <time>2020-06-06T10:23:26Z</time>
      </trkpt>
      <trkpt lat="47.59185" lon="-2.5568">
        <ele>30.7</ele>
        <time>2020-06-06T10:23:27Z</time>
      </trkpt>
      <trkpt lat="47.59186" lon="-2.55684">
        <ele>30.7</ele>
        <time>2020-06-06T10:23:28Z</time>
      </trkpt>
      <trkpt lat="47.59187" lon="-2.55688">
        <ele>30.7</ele>
        <time>2020-06-06T10:23:29Z</time>
      </trkpt>
      <trkpt lat="47.59189" lon="-2.55693">
        <ele>30.7</ele>
        <time>2020-06-06T10:23:30Z</time>
      </trkpt>
      <trkpt lat="47.59191" lon="-2.55698">
        <ele>30.7</ele>
        <time>2020-06-06T10:23:31Z</time>
      </trkpt>
      <trkpt lat="47.59193" lon="-2.55703">
        <ele>30.7</ele>
        <time>2020-06-06T10:23:32Z</time>
      </trkpt>
      <trkpt lat="47.59195" lon="-2.55708">
        <ele>30.7</ele>
        <time>2020-06-06T10:23:33Z</time>
      </trkpt>
      <trkpt lat="47.59197" lon="-2.55713">
        <ele>30.7</ele>
        <time>2020-06-06T10:23:34Z</time>
      </trkpt>
      <trkpt lat="47.59199" lon="-2.55717">
        <ele>30.8</ele>
        <time>2020-06-06T10:23:35Z</time>
      </trkpt>
      <trkpt lat="47.592" lon="-2.55723">
        <ele>30.8</ele>
        <time>2020-06-06T10:23:36Z</time>
      </trkpt>
      <trkpt lat="47.59202" lon="-2.55727">
        <ele>30.8</ele>
        <time>2020-06-06T10:23:37Z</time>
      </trkpt>
      <trkpt lat="47.59203" lon="-2.55733">
        <ele>30.8</ele>
        <time>2020-06-06T10:23:38Z</time>
      </trkpt>
      <trkpt lat="47.59206" lon="-2.55738">
        <ele>30.8</ele>
        <time>2020-06-06T10:23:39Z</time>
      </trkpt>
      <trkpt lat="47.59207" lon="-2.55742">
        <ele>30.8</ele>
        <time>2020-06-06T10:23:40Z</time>
      </trkpt>
      <trkpt lat="47.59209" lon="-2.55747">
        <ele>30.8</ele>
        <time>2020-06-06T10:23:41Z</time>
      </trkpt>
      <trkpt lat="47.59211" lon="-2.55752">
        <ele>30.8</ele>
        <time>2020-06-06T10:23:42Z</time>
      </trkpt>
      <trkpt lat="47.59212" lon="-2.55758">
        <ele>30.7</ele>
        <time>2020-06-06T10:23:43Z</time>
      </trkpt>
      <trkpt lat="47.59214" lon="-2.55764">
        <ele>30.7</ele>
        <time>2020-06-06T10:23:44Z</time>
      </trkpt>
      <trkpt lat="47.59216" lon="-2.55771">
        <ele>30.7</ele>
        <time>2020-06-06T10:23:45Z</time>
      </trkpt>
      <trkpt lat="47.59218" lon="-2.55779">
        <ele>30.7</ele>
        <time>2020-06-06T10:23:46Z</time>
      </trkpt>
      <trkpt lat="47.59219" lon="-2.55785">
        <ele>30.7</ele>
        <time>2020-06-06T10:23:47Z</time>
      </trkpt>
      <trkpt lat="47.59221" lon="-2.55791">
        <ele>30.7</ele>
        <time>2020-06-06T10:23:48Z</time>
      </trkpt>
      <trkpt lat="47.59223" lon="-2.55796">
        <ele>30.7</ele>
        <time>2020-06-06T10:23:49Z</time>
      </trkpt>
      <trkpt lat="47.59224" lon="-2.558">
        <ele>30.7</ele>
        <time>2020-06-06T10:23:50Z</time>
      </trkpt>
      <trkpt lat="47.59225" lon="-2.55804">
        <ele>30.7</ele>
        <time>2020-06-06T10:23:51Z</time>
      </trkpt>
      <trkpt lat="47.59226" lon="-2.55809">
        <ele>30.7</ele>
        <time>2020-06-06T10:23:52Z</time>
      </trkpt>
      <trkpt lat="47.59228" lon="-2.55816">
        <ele>30.7</ele>
        <time>2020-06-06T10:23:53Z</time>
      </trkpt>
      <trkpt lat="47.5923" lon="-2.55822">
        <ele>30.7</ele>
        <time>2020-06-06T10:23:54Z</time>
      </trkpt>
      <trkpt lat="47.59233" lon="-2.55828">
        <ele>30.7</ele>
        <time>2020-06-06T10:23:55Z</time>
      </trkpt>
      <trkpt lat="47.59234" lon="-2.55834">
        <ele>30.6</ele>
        <time>2020-06-06T10:23:56Z</time>
      </trkpt>
      <trkpt lat="47.59236" lon="-2.5584">
        <ele>30.6</ele>
        <time>2020-06-06T10:23:57Z</time>
      </trkpt>
      <trkpt lat="47.59238" lon="-2.55846">
        <ele>30.5</ele>
        <time>2020-06-06T10:23:58Z</time>
      </trkpt>
      <trkpt lat="47.59239" lon="-2.55853">
        <ele>30.5</ele>
        <time>2020-06-06T10:23:59Z</time>
      </trkpt>
      <trkpt lat="47.59241" lon="-2.55859">
        <ele>30.4</ele>
        <time>2020-06-06T10:24:00Z</time>
      </trkpt>
      <trkpt lat="47.59243" lon="-2.55865">
        <ele>30.4</ele>
        <time>2020-06-06T10:24:01Z</time>
      </trkpt>
      <trkpt lat="47.59245" lon="-2.5587">
        <ele>30.4</ele>
        <time>2020-06-06T10:24:02Z</time>
      </trkpt>
      <trkpt lat="47.59246" lon="-2.55877">
        <ele>30.3</ele>
        <time>2020-06-06T10:24:03Z</time>
      </trkpt>
      <trkpt lat="47.59247" lon="-2.55882">
        <ele>30.3</ele>
        <time>2020-06-06T10:24:04Z</time>
      </trkpt>
      <trkpt lat="47.59248" lon="-2.55887">
        <ele>30.2</ele>
        <time>2020-06-06T10:24:05Z</time>
      </trkpt>
      <trkpt lat="47.59249" lon="-2.55893">
        <ele>30.2</ele>
        <time>2020-06-06T10:24:06Z</time>
      </trkpt>
      <trkpt lat="47.5925" lon="-2.55899">
        <ele>30.1</ele>
        <time>2020-06-06T10:24:07Z</time>
      </trkpt>
      <trkpt lat="47.59251" lon="-2.55905">
        <ele>30.1</ele>
        <time>2020-06-06T10:24:08Z</time>
      </trkpt>
      <trkpt lat="47.59252" lon="-2.5591">
        <ele>30</ele>
        <time>2020-06-06T10:24:09Z</time>
      </trkpt>
      <trkpt lat="47.59253" lon="-2.55915">
        <ele>30</ele>
        <time>2020-06-06T10:24:10Z</time>
      </trkpt>
      <trkpt lat="47.59255" lon="-2.55922">
        <ele>29.9</ele>
        <time>2020-06-06T10:24:11Z</time>
      </trkpt>
      <trkpt lat="47.59257" lon="-2.55929">
        <ele>29.8</ele>
        <time>2020-06-06T10:24:12Z</time>
      </trkpt>
      <trkpt lat="47.59259" lon="-2.55936">
        <ele>29.7</ele>
        <time>2020-06-06T10:24:13Z</time>
      </trkpt>
      <trkpt lat="47.59261" lon="-2.55945">
        <ele>29.6</ele>
        <time>2020-06-06T10:24:14Z</time>
      </trkpt>
      <trkpt lat="47.59263" lon="-2.55952">
        <ele>29.5</ele>
        <time>2020-06-06T10:24:15Z</time>
      </trkpt>
      <trkpt lat="47.59264" lon="-2.5596">
        <ele>29.4</ele>
        <time>2020-06-06T10:24:16Z</time>
      </trkpt>
      <trkpt lat="47.59265" lon="-2.55968">
        <ele>29.3</ele>
        <time>2020-06-06T10:24:17Z</time>
      </trkpt>
      <trkpt lat="47.59267" lon="-2.55978">
        <ele>29.2</ele>
        <time>2020-06-06T10:24:18Z</time>
      </trkpt>
      <trkpt lat="47.59268" lon="-2.55986">
        <ele>29.1</ele>
        <time>2020-06-06T10:24:19Z</time>
      </trkpt>
      <trkpt lat="47.59269" lon="-2.55993">
        <ele>29</ele>
        <time>2020-06-06T10:24:20Z</time>
      </trkpt>
      <trkpt lat="47.59271" lon="-2.56001">
        <ele>28.9</ele>
        <time>2020-06-06T10:24:21Z</time>
      </trkpt>
      <trkpt lat="47.59272" lon="-2.56008">
        <ele>28.8</ele>
        <time>2020-06-06T10:24:22Z</time>
      </trkpt>
      <trkpt lat="47.59273" lon="-2.56014">
        <ele>28.6</ele>
        <time>2020-06-06T10:24:23Z</time>
      </trkpt>
      <trkpt lat="47.59274" lon="-2.56021">
        <ele>28.5</ele>
        <time>2020-06-06T10:24:24Z</time>
      </trkpt>
      <trkpt lat="47.59276" lon="-2.56029">
        <ele>28.4</ele>
        <time>2020-06-06T10:24:25Z</time>
      </trkpt>
      <trkpt lat="47.59278" lon="-2.56036">
        <ele>28.2</ele>
        <time>2020-06-06T10:24:26Z</time>
      </trkpt>
      <trkpt lat="47.59279" lon="-2.56043">
        <ele>28.1</ele>
        <time>2020-06-06T10:24:27Z</time>
      </trkpt>
      <trkpt lat="47.59281" lon="-2.56049">
        <ele>28</ele>
        <time>2020-06-06T10:24:28Z</time>
      </trkpt>
      <trkpt lat="47.59283" lon="-2.56057">
        <ele>27.8</ele>
        <time>2020-06-06T10:24:29Z</time>
      </trkpt>
      <trkpt lat="47.59285" lon="-2.56064">
        <ele>27.7</ele>
        <time>2020-06-06T10:24:30Z</time>
      </trkpt>
      <trkpt lat="47.59285" lon="-2.5607">
        <ele>27.6</ele>
        <time>2020-06-06T10:24:31Z</time>
      </trkpt>
      <trkpt lat="47.59287" lon="-2.56078">
        <ele>27.4</ele>
        <time>2020-06-06T10:24:32Z</time>
      </trkpt>
      <trkpt lat="47.59289" lon="-2.56086">
        <ele>27.2</ele>
        <time>2020-06-06T10:24:33Z</time>
      </trkpt>
      <trkpt lat="47.5929" lon="-2.56093">
        <ele>27</ele>
        <time>2020-06-06T10:24:34Z</time>
      </trkpt>
      <trkpt lat="47.59292" lon="-2.561">
        <ele>26.9</ele>
        <time>2020-06-06T10:24:35Z</time>
      </trkpt>
      <trkpt lat="47.59294" lon="-2.56107">
        <ele>26.7</ele>
        <time>2020-06-06T10:24:36Z</time>
      </trkpt>
      <trkpt lat="47.59295" lon="-2.56116">
        <ele>26.5</ele>
        <time>2020-06-06T10:24:37Z</time>
      </trkpt>
      <trkpt lat="47.59297" lon="-2.56126">
        <ele>26.3</ele>
        <time>2020-06-06T10:24:38Z</time>
      </trkpt>
      <trkpt lat="47.59299" lon="-2.56134">
        <ele>26.1</ele>
        <time>2020-06-06T10:24:39Z</time>
      </trkpt>
      <trkpt lat="47.59301" lon="-2.56144">
        <ele>25.8</ele>
        <time>2020-06-06T10:24:40Z</time>
      </trkpt>
      <trkpt lat="47.59303" lon="-2.56153">
        <ele>25.5</ele>
        <time>2020-06-06T10:24:41Z</time>
      </trkpt>
      <trkpt lat="47.59306" lon="-2.56162">
        <ele>25.2</ele>
        <time>2020-06-06T10:24:42Z</time>
      </trkpt>
      <trkpt lat="47.59308" lon="-2.56171">
        <ele>25</ele>
        <time>2020-06-06T10:24:43Z</time>
      </trkpt>
      <trkpt lat="47.59309" lon="-2.5618">
        <ele>24.8</ele>
        <time>2020-06-06T10:24:44Z</time>
      </trkpt>
      <trkpt lat="47.59311" lon="-2.5619">
        <ele>24.6</ele>
        <time>2020-06-06T10:24:45Z</time>
      </trkpt>
      <trkpt lat="47.59313" lon="-2.562">
        <ele>24.4</ele>
        <time>2020-06-06T10:24:46Z</time>
      </trkpt>
      <trkpt lat="47.59315" lon="-2.5621">
        <ele>24.1</ele>
        <time>2020-06-06T10:24:47Z</time>
      </trkpt>
      <trkpt lat="47.59316" lon="-2.5622">
        <ele>23.8</ele>
        <time>2020-06-06T10:24:48Z</time>
      </trkpt>
      <trkpt lat="47.59318" lon="-2.5623">
        <ele>23.6</ele>
        <time>2020-06-06T10:24:49Z</time>
      </trkpt>
      <trkpt lat="47.5932" lon="-2.5624">
        <ele>23.3</ele>
        <time>2020-06-06T10:24:50Z</time>
      </trkpt>
      <trkpt lat="47.59322" lon="-2.5625">
        <ele>23</ele>
        <time>2020-06-06T10:24:51Z</time>
      </trkpt>
      <trkpt lat="47.59324" lon="-2.5626">
        <ele>22.7</ele>
        <time>2020-06-06T10:24:52Z</time>
      </trkpt>
      <trkpt lat="47.59326" lon="-2.5627">
        <ele>22.4</ele>
        <time>2020-06-06T10:24:53Z</time>
      </trkpt>
      <trkpt lat="47.59328" lon="-2.5628">
        <ele>22</ele>
        <time>2020-06-06T10:24:54Z</time>
      </trkpt>
      <trkpt lat="47.5933" lon="-2.5629">
        <ele>21.7</ele>
        <time>2020-06-06T10:24:55Z</time>
      </trkpt>
      <trkpt lat="47.59333" lon="-2.56301">
        <ele>21.3</ele>
        <time>2020-06-06T10:24:56Z</time>
      </trkpt>
      <trkpt lat="47.59335" lon="-2.56311">
        <ele>20.9</ele>
        <time>2020-06-06T10:24:57Z</time>
      </trkpt>
      <trkpt lat="47.59338" lon="-2.56322">
        <ele>20.4</ele>
        <time>2020-06-06T10:24:58Z</time>
      </trkpt>
      <trkpt lat="47.59341" lon="-2.56333">
        <ele>19.9</ele>
        <time>2020-06-06T10:24:59Z</time>
      </trkpt>
      <trkpt lat="47.59343" lon="-2.56344">
        <ele>19.4</ele>
        <time>2020-06-06T10:25:00Z</time>
      </trkpt>
      <trkpt lat="47.59347" lon="-2.56355">
        <ele>18.9</ele>
        <time>2020-06-06T10:25:01Z</time>
      </trkpt>
      <trkpt lat="47.59351" lon="-2.56366">
        <ele>18.5</ele>
        <time>2020-06-06T10:25:02Z</time>
      </trkpt>
      <trkpt lat="47.59355" lon="-2.56377">
        <ele>17.9</ele>
        <time>2020-06-06T10:25:03Z</time>
      </trkpt>
      <trkpt lat="47.59359" lon="-2.56389">
        <ele>17.4</ele>
        <time>2020-06-06T10:25:04Z</time>
      </trkpt>
      <trkpt lat="47.59364" lon="-2.56399">
        <ele>17</ele>
        <time>2020-06-06T10:25:05Z</time>
      </trkpt>
      <trkpt lat="47.59369" lon="-2.56409">
        <ele>16.7</ele>
        <time>2020-06-06T10:25:06Z</time>
      </trkpt>
      <trkpt lat="47.59375" lon="-2.5642">
        <ele>16.4</ele>
        <time>2020-06-06T10:25:07Z</time>
      </trkpt>
      <trkpt lat="47.5938" lon="-2.5643">
        <ele>16.1</ele>
        <time>2020-06-06T10:25:08Z</time>
      </trkpt>
      <trkpt lat="47.59385" lon="-2.5644">
        <ele>16</ele>
        <time>2020-06-06T10:25:09Z</time>
      </trkpt>
      <trkpt lat="47.5939" lon="-2.56449">
        <ele>16</ele>
        <time>2020-06-06T10:25:10Z</time>
      </trkpt>
      <trkpt lat="47.59396" lon="-2.56459">
        <ele>16</ele>
        <time>2020-06-06T10:25:11Z</time>
      </trkpt>
      <trkpt lat="47.59401" lon="-2.56467">
        <ele>15.9</ele>
        <time>2020-06-06T10:25:12Z</time>
      </trkpt>
      <trkpt lat="47.59406" lon="-2.56476">
        <ele>15.8</ele>
        <time>2020-06-06T10:25:13Z</time>
      </trkpt>
      <trkpt lat="47.59412" lon="-2.56484">
        <ele>15.8</ele>
        <time>2020-06-06T10:25:14Z</time>
      </trkpt>
      <trkpt lat="47.59417" lon="-2.56492">
        <ele>15.9</ele>
        <time>2020-06-06T10:25:15Z</time>
      </trkpt>
      <trkpt lat="47.59421" lon="-2.56499">
        <ele>16</ele>
        <time>2020-06-06T10:25:16Z</time>
      </trkpt>
      <trkpt lat="47.59426" lon="-2.56506">
        <ele>16.2</ele>
        <time>2020-06-06T10:25:17Z</time>
      </trkpt>
      <trkpt lat="47.5943" lon="-2.56513">
        <ele>16.3</ele>
        <time>2020-06-06T10:25:18Z</time>
      </trkpt>
      <trkpt lat="47.59435" lon="-2.56519">
        <ele>16.5</ele>
        <time>2020-06-06T10:25:19Z</time>
      </trkpt>
      <trkpt lat="47.59439" lon="-2.56525">
        <ele>16.7</ele>
        <time>2020-06-06T10:25:20Z</time>
      </trkpt>
      <trkpt lat="47.59443" lon="-2.56532">
        <ele>16.9</ele>
        <time>2020-06-06T10:25:21Z</time>
      </trkpt>
      <trkpt lat="47.59447" lon="-2.56538">
        <ele>17.1</ele>
        <time>2020-06-06T10:25:22Z</time>
      </trkpt>
      <trkpt lat="47.5945" lon="-2.56545">
        <ele>17.3</ele>
        <time>2020-06-06T10:25:23Z</time>
      </trkpt>
      <trkpt lat="47.59453" lon="-2.56551">
        <ele>17.5</ele>
        <time>2020-06-06T10:25:24Z</time>
      </trkpt>
      <trkpt lat="47.59456" lon="-2.56557">
        <ele>17.6</ele>
        <time>2020-06-06T10:25:25Z</time>
      </trkpt>
      <trkpt lat="47.59459" lon="-2.56564">
        <ele>17.8</ele>
        <time>2020-06-06T10:25:26Z</time>
      </trkpt>
      <trkpt lat="47.59463" lon="-2.5657">
        <ele>18</ele>
        <time>2020-06-06T10:25:27Z</time>
      </trkpt>
      <trkpt lat="47.59466" lon="-2.56576">
        <ele>18.2</ele>
        <time>2020-06-06T10:25:28Z</time>
      </trkpt>
      <trkpt lat="47.59468" lon="-2.56584">
        <ele>18.4</ele>
        <time>2020-06-06T10:25:29Z</time>
      </trkpt>
      <trkpt lat="47.59471" lon="-2.56591">
        <ele>18.6</ele>
        <time>2020-06-06T10:25:30Z</time>
      </trkpt>
      <trkpt lat="47.59474" lon="-2.56597">
        <ele>18.8</ele>
        <time>2020-06-06T10:25:31Z</time>
      </trkpt>
      <trkpt lat="47.59476" lon="-2.56604">
        <ele>18.9</ele>
        <time>2020-06-06T10:25:32Z</time>
      </trkpt>
      <trkpt lat="47.59479" lon="-2.56611">
        <ele>19.1</ele>
        <time>2020-06-06T10:25:33Z</time>
      </trkpt>
      <trkpt lat="47.59483" lon="-2.56617">
        <ele>19.3</ele>
        <time>2020-06-06T10:25:34Z</time>
      </trkpt>
      <trkpt lat="47.59486" lon="-2.56623">
        <ele>19.5</ele>
        <time>2020-06-06T10:25:35Z</time>
      </trkpt>
      <trkpt lat="47.59488" lon="-2.5663">
        <ele>19.6</ele>
        <time>2020-06-06T10:25:36Z</time>
      </trkpt>
      <trkpt lat="47.59491" lon="-2.56637">
        <ele>19.8</ele>
        <time>2020-06-06T10:25:37Z</time>
      </trkpt>
      <trkpt lat="47.59493" lon="-2.56644">
        <ele>20</ele>
        <time>2020-06-06T10:25:38Z</time>
      </trkpt>
      <trkpt lat="47.59496" lon="-2.5665">
        <ele>20.2</ele>
        <time>2020-06-06T10:25:39Z</time>
      </trkpt>
      <trkpt lat="47.59498" lon="-2.56657">
        <ele>20.4</ele>
        <time>2020-06-06T10:25:40Z</time>
      </trkpt>
      <trkpt lat="47.59501" lon="-2.56664">
        <ele>20.6</ele>
        <time>2020-06-06T10:25:41Z</time>
      </trkpt>
      <trkpt lat="47.59503" lon="-2.56672">
        <ele>20.8</ele>
        <time>2020-06-06T10:25:42Z</time>
      </trkpt>
      <trkpt lat="47.59506" lon="-2.5668">
        <ele>21.1</ele>
        <time>2020-06-06T10:25:43Z</time>
      </trkpt>
      <trkpt lat="47.59508" lon="-2.5669">
        <ele>21.5</ele>
        <time>2020-06-06T10:25:44Z</time>
      </trkpt>
      <trkpt lat="47.59511" lon="-2.56696">
        <ele>21.8</ele>
        <time>2020-06-06T10:25:45Z</time>
      </trkpt>
      <trkpt lat="47.59513" lon="-2.56703">
        <ele>22.1</ele>
        <time>2020-06-06T10:25:46Z</time>
      </trkpt>
      <trkpt lat="47.59516" lon="-2.56709">
        <ele>22.3</ele>
        <time>2020-06-06T10:25:47Z</time>
      </trkpt>
      <trkpt lat="47.59519" lon="-2.56717">
        <ele>22.7</ele>
        <time>2020-06-06T10:25:48Z</time>
      </trkpt>
      <trkpt lat="47.59522" lon="-2.56723">
        <ele>23</ele>
        <time>2020-06-06T10:25:49Z</time>
      </trkpt>
      <trkpt lat="47.59524" lon="-2.56729">
        <ele>23.3</ele>
        <time>2020-06-06T10:25:50Z</time>
      </trkpt>
      <trkpt lat="47.59526" lon="-2.56735">
        <ele>23.5</ele>
        <time>2020-06-06T10:25:51Z</time>
      </trkpt>
      <trkpt lat="47.59528" lon="-2.56741">
        <ele>23.8</ele>
        <time>2020-06-06T10:25:52Z</time>
      </trkpt>
      <trkpt lat="47.59531" lon="-2.56747">
        <ele>24.1</ele>
        <time>2020-06-06T10:25:53Z</time>
      </trkpt>
      <trkpt lat="47.59533" lon="-2.56754">
        <ele>24.4</ele>
        <time>2020-06-06T10:25:54Z</time>
      </trkpt>
      <trkpt lat="47.59536" lon="-2.56762">
        <ele>24.7</ele>
        <time>2020-06-06T10:25:55Z</time>
      </trkpt>
      <trkpt lat="47.59538" lon="-2.56768">
        <ele>25</ele>
        <time>2020-06-06T10:25:56Z</time>
      </trkpt>
      <trkpt lat="47.5954" lon="-2.56773">
        <ele>25.2</ele>
        <time>2020-06-06T10:25:57Z</time>
      </trkpt>
      <trkpt lat="47.59542" lon="-2.56779">
        <ele>25.4</ele>
        <time>2020-06-06T10:25:58Z</time>
      </trkpt>
      <trkpt lat="47.59544" lon="-2.56785">
        <ele>25.7</ele>
        <time>2020-06-06T10:25:59Z</time>
      </trkpt>
      <trkpt lat="47.59546" lon="-2.56791">
        <ele>25.9</ele>
        <time>2020-06-06T10:26:00Z</time>
      </trkpt>
      <trkpt lat="47.59549" lon="-2.56797">
        <ele>26.1</ele>
        <time>2020-06-06T10:26:01Z</time>
      </trkpt>
      <trkpt lat="47.59552" lon="-2.56804">
        <ele>26.4</ele>
        <time>2020-06-06T10:26:02Z</time>
      </trkpt>
      <trkpt lat="47.59553" lon="-2.5681">
        <ele>26.6</ele>
        <time>2020-06-06T10:26:03Z</time>
      </trkpt>
      <trkpt lat="47.59555" lon="-2.56817">
        <ele>26.7</ele>
        <time>2020-06-06T10:26:04Z</time>
      </trkpt>
      <trkpt lat="47.59557" lon="-2.56824">
        <ele>26.9</ele>
        <time>2020-06-06T10:26:05Z</time>
      </trkpt>
      <trkpt lat="47.5956" lon="-2.5683">
        <ele>27.1</ele>
        <time>2020-06-06T10:26:06Z</time>
      </trkpt>
      <trkpt lat="47.59562" lon="-2.56836">
        <ele>27.2</ele>
        <time>2020-06-06T10:26:07Z</time>
      </trkpt>
      <trkpt lat="47.59565" lon="-2.56842">
        <ele>27.4</ele>
        <time>2020-06-06T10:26:08Z</time>
      </trkpt>
      <trkpt lat="47.59568" lon="-2.56848">
        <ele>27.5</ele>
        <time>2020-06-06T10:26:09Z</time>
      </trkpt>
      <trkpt lat="47.59571" lon="-2.56854">
        <ele>27.6</ele>
        <time>2020-06-06T10:26:10Z</time>
      </trkpt>
      <trkpt lat="47.59573" lon="-2.56858">
        <ele>27.7</ele>
        <time>2020-06-06T10:26:11Z</time>
      </trkpt>
      <trkpt lat="47.59575" lon="-2.56863">
        <ele>27.8</ele>
        <time>2020-06-06T10:26:12Z</time>
      </trkpt>
      <trkpt lat="47.59577" lon="-2.56868">
        <ele>27.9</ele>
        <time>2020-06-06T10:26:13Z</time>
      </trkpt>
      <trkpt lat="47.59579" lon="-2.56874">
        <ele>28.1</ele>
        <time>2020-06-06T10:26:14Z</time>
      </trkpt>
      <trkpt lat="47.59581" lon="-2.56879">
        <ele>28.2</ele>
        <time>2020-06-06T10:26:15Z</time>
      </trkpt>
      <trkpt lat="47.59583" lon="-2.56885">
        <ele>28.3</ele>
        <time>2020-06-06T10:26:16Z</time>
      </trkpt>
      <trkpt lat="47.59584" lon="-2.5689">
        <ele>28.4</ele>
        <time>2020-06-06T10:26:17Z</time>
      </trkpt>
      <trkpt lat="47.59585" lon="-2.56895">
        <ele>28.6</ele>
        <time>2020-06-06T10:26:18Z</time>
      </trkpt>
      <trkpt lat="47.59588" lon="-2.569">
        <ele>28.7</ele>
        <time>2020-06-06T10:26:19Z</time>
      </trkpt>
      <trkpt lat="47.5959" lon="-2.56905">
        <ele>28.8</ele>
        <time>2020-06-06T10:26:20Z</time>
      </trkpt>
      <trkpt lat="47.59591" lon="-2.56909">
        <ele>28.9</ele>
        <time>2020-06-06T10:26:21Z</time>
      </trkpt>
      <trkpt lat="47.59593" lon="-2.56914">
        <ele>29</ele>
        <time>2020-06-06T10:26:22Z</time>
      </trkpt>
      <trkpt lat="47.59594" lon="-2.56918">
        <ele>29.1</ele>
        <time>2020-06-06T10:26:23Z</time>
      </trkpt>
      <trkpt lat="47.59595" lon="-2.56922">
        <ele>29.3</ele>
        <time>2020-06-06T10:26:24Z</time>
      </trkpt>
      <trkpt lat="47.59595" lon="-2.56926">
        <ele>29.4</ele>
        <time>2020-06-06T10:26:25Z</time>
      </trkpt>
      <trkpt lat="47.59596" lon="-2.5693">
        <ele>29.5</ele>
        <time>2020-06-06T10:26:26Z</time>
      </trkpt>
      <trkpt lat="47.59598" lon="-2.56936">
        <ele>29.6</ele>
        <time>2020-06-06T10:26:27Z</time>
      </trkpt>
      <trkpt lat="47.59599" lon="-2.56938">
        <ele>29.7</ele>
        <time>2020-06-06T10:26:28Z</time>
      </trkpt>
      <trkpt lat="47.596" lon="-2.56942">
        <ele>29.8</ele>
        <time>2020-06-06T10:26:29Z</time>
      </trkpt>
      <trkpt lat="47.59601" lon="-2.56946">
        <ele>29.9</ele>
        <time>2020-06-06T10:26:30Z</time>
      </trkpt>
      <trkpt lat="47.59602" lon="-2.56951">
        <ele>30</ele>
        <time>2020-06-06T10:26:31Z</time>
      </trkpt>
      <trkpt lat="47.59604" lon="-2.56957">
        <ele>30.2</ele>
        <time>2020-06-06T10:26:32Z</time>
      </trkpt>
      <trkpt lat="47.59605" lon="-2.56962">
        <ele>30.3</ele>
        <time>2020-06-06T10:26:33Z</time>
      </trkpt>
      <trkpt lat="47.59608" lon="-2.56967">
        <ele>30.5</ele>
        <time>2020-06-06T10:26:34Z</time>
      </trkpt>
      <trkpt lat="47.59609" lon="-2.56973">
        <ele>30.6</ele>
        <time>2020-06-06T10:26:35Z</time>
      </trkpt>
      <trkpt lat="47.59611" lon="-2.56978">
        <ele>30.7</ele>
        <time>2020-06-06T10:26:36Z</time>
      </trkpt>
      <trkpt lat="47.59613" lon="-2.56983">
        <ele>30.8</ele>
        <time>2020-06-06T10:26:37Z</time>
      </trkpt>
      <trkpt lat="47.59616" lon="-2.56988">
        <ele>30.9</ele>
        <time>2020-06-06T10:26:38Z</time>
      </trkpt>
      <trkpt lat="47.59616" lon="-2.5699">
        <ele>31</ele>
        <time>2020-06-06T10:26:39Z</time>
      </trkpt>
      <trkpt lat="47.59617" lon="-2.56994">
        <ele>31</ele>
        <time>2020-06-06T10:26:40Z</time>
      </trkpt>
      <trkpt lat="47.59619" lon="-2.56998">
        <ele>31.1</ele>
        <time>2020-06-06T10:26:41Z</time>
      </trkpt>
      <trkpt lat="47.5962" lon="-2.57003">
        <ele>31.2</ele>
        <time>2020-06-06T10:26:42Z</time>
      </trkpt>
      <trkpt lat="47.59622" lon="-2.57008">
        <ele>31.3</ele>
        <time>2020-06-06T10:26:43Z</time>
      </trkpt>
      <trkpt lat="47.59624" lon="-2.57013">
        <ele>31.4</ele>
        <time>2020-06-06T10:26:44Z</time>
      </trkpt>
      <trkpt lat="47.59626" lon="-2.57019">
        <ele>31.4</ele>
        <time>2020-06-06T10:26:45Z</time>
      </trkpt>
      <trkpt lat="47.59627" lon="-2.57024">
        <ele>31.5</ele>
        <time>2020-06-06T10:26:46Z</time>
      </trkpt>
      <trkpt lat="47.59629" lon="-2.5703">
        <ele>31.5</ele>
        <time>2020-06-06T10:26:47Z</time>
      </trkpt>
      <trkpt lat="47.5963" lon="-2.57034">
        <ele>31.4</ele>
        <time>2020-06-06T10:26:48Z</time>
      </trkpt>
      <trkpt lat="47.5963" lon="-2.57039">
        <ele>31.4</ele>
        <time>2020-06-06T10:26:49Z</time>
      </trkpt>
      <trkpt lat="47.59631" lon="-2.57044">
        <ele>31.2</ele>
        <time>2020-06-06T10:26:50Z</time>
      </trkpt>
      <trkpt lat="47.59632" lon="-2.57049">
        <ele>31.3</ele>
        <time>2020-06-06T10:26:51Z</time>
      </trkpt>
      <trkpt lat="47.59633" lon="-2.57055">
        <ele>31.5</ele>
        <time>2020-06-06T10:26:52Z</time>
      </trkpt>
      <trkpt lat="47.59634" lon="-2.5706">
        <ele>31.6</ele>
        <time>2020-06-06T10:26:53Z</time>
      </trkpt>
      <trkpt lat="47.59635" lon="-2.57064">
        <ele>31.7</ele>
        <time>2020-06-06T10:26:54Z</time>
      </trkpt>
      <trkpt lat="47.59636" lon="-2.57069">
        <ele>31.8</ele>
        <time>2020-06-06T10:26:55Z</time>
      </trkpt>
      <trkpt lat="47.59638" lon="-2.57074">
        <ele>32</ele>
        <time>2020-06-06T10:26:56Z</time>
      </trkpt>
      <trkpt lat="47.59639" lon="-2.5708">
        <ele>32.1</ele>
        <time>2020-06-06T10:26:57Z</time>
      </trkpt>
      <trkpt lat="47.5964" lon="-2.57084">
        <ele>32.2</ele>
        <time>2020-06-06T10:26:58Z</time>
      </trkpt>
      <trkpt lat="47.59641" lon="-2.5709">
        <ele>32.3</ele>
        <time>2020-06-06T10:26:59Z</time>
      </trkpt>
      <trkpt lat="47.59642" lon="-2.57095">
        <ele>32.4</ele>
        <time>2020-06-06T10:27:00Z</time>
      </trkpt>
      <trkpt lat="47.59643" lon="-2.57101">
        <ele>32.5</ele>
        <time>2020-06-06T10:27:01Z</time>
      </trkpt>
      <trkpt lat="47.59644" lon="-2.57106">
        <ele>32.6</ele>
        <time>2020-06-06T10:27:02Z</time>
      </trkpt>
      <trkpt lat="47.59645" lon="-2.57111">
        <ele>32.7</ele>
        <time>2020-06-06T10:27:03Z</time>
      </trkpt>
      <trkpt lat="47.59647" lon="-2.57115">
        <ele>32.7</ele>
        <time>2020-06-06T10:27:04Z</time>
      </trkpt>
      <trkpt lat="47.59647" lon="-2.57119">
        <ele>32.8</ele>
        <time>2020-06-06T10:27:05Z</time>
      </trkpt>
      <trkpt lat="47.59648" lon="-2.57125">
        <ele>32.9</ele>
        <time>2020-06-06T10:27:06Z</time>
      </trkpt>
      <trkpt lat="47.59648" lon="-2.57127">
        <ele>32.9</ele>
        <time>2020-06-06T10:27:07Z</time>
      </trkpt>
      <trkpt lat="47.59649" lon="-2.57132">
        <ele>33</ele>
        <time>2020-06-06T10:27:08Z</time>
      </trkpt>
      <trkpt lat="47.5965" lon="-2.57137">
        <ele>33.1</ele>
        <time>2020-06-06T10:27:09Z</time>
      </trkpt>
      <trkpt lat="47.59651" lon="-2.57141">
        <ele>33.2</ele>
        <time>2020-06-06T10:27:10Z</time>
      </trkpt>
      <trkpt lat="47.59652" lon="-2.57146">
        <ele>33.2</ele>
        <time>2020-06-06T10:27:11Z</time>
      </trkpt>
      <trkpt lat="47.59653" lon="-2.57151">
        <ele>33.3</ele>
        <time>2020-06-06T10:27:12Z</time>
      </trkpt>
      <trkpt lat="47.59654" lon="-2.57157">
        <ele>33.4</ele>
        <time>2020-06-06T10:27:13Z</time>
      </trkpt>
      <trkpt lat="47.59654" lon="-2.57163">
        <ele>33.5</ele>
        <time>2020-06-06T10:27:14Z</time>
      </trkpt>
      <trkpt lat="47.59654" lon="-2.57165">
        <ele>33.6</ele>
        <time>2020-06-06T10:27:15Z</time>
      </trkpt>
      <trkpt lat="47.59655" lon="-2.5717">
        <ele>33.6</ele>
        <time>2020-06-06T10:27:16Z</time>
      </trkpt>
      <trkpt lat="47.59655" lon="-2.57175">
        <ele>33.7</ele>
        <time>2020-06-06T10:27:17Z</time>
      </trkpt>
      <trkpt lat="47.59656" lon="-2.57181">
        <ele>33.8</ele>
        <time>2020-06-06T10:27:18Z</time>
      </trkpt>
      <trkpt lat="47.59656" lon="-2.57188">
        <ele>33.9</ele>
        <time>2020-06-06T10:27:19Z</time>
      </trkpt>
      <trkpt lat="47.59657" lon="-2.57193">
        <ele>34</ele>
        <time>2020-06-06T10:27:20Z</time>
      </trkpt>
      <trkpt lat="47.59658" lon="-2.57198">
        <ele>34.1</ele>
        <time>2020-06-06T10:27:21Z</time>
      </trkpt>
      <trkpt lat="47.59658" lon="-2.57203">
        <ele>34.1</ele>
        <time>2020-06-06T10:27:22Z</time>
      </trkpt>
      <trkpt lat="47.59659" lon="-2.5721">
        <ele>34.2</ele>
        <time>2020-06-06T10:27:23Z</time>
      </trkpt>
      <trkpt lat="47.5966" lon="-2.57216">
        <ele>34.4</ele>
        <time>2020-06-06T10:27:24Z</time>
      </trkpt>
      <trkpt lat="47.5966" lon="-2.57222">
        <ele>34.4</ele>
        <time>2020-06-06T10:27:25Z</time>
      </trkpt>
      <trkpt lat="47.5966" lon="-2.57227">
        <ele>34.5</ele>
        <time>2020-06-06T10:27:26Z</time>
      </trkpt>
      <trkpt lat="47.59661" lon="-2.57229">
        <ele>34.6</ele>
        <time>2020-06-06T10:27:27Z</time>
      </trkpt>
      <trkpt lat="47.59661" lon="-2.57235">
        <ele>34.6</ele>
        <time>2020-06-06T10:27:28Z</time>
      </trkpt>
      <trkpt lat="47.59662" lon="-2.57241">
        <ele>34.7</ele>
        <time>2020-06-06T10:27:29Z</time>
      </trkpt>
      <trkpt lat="47.59663" lon="-2.57248">
        <ele>34.8</ele>
        <time>2020-06-06T10:27:30Z</time>
      </trkpt>
      <trkpt lat="47.59664" lon="-2.57254">
        <ele>34.8</ele>
        <time>2020-06-06T10:27:31Z</time>
      </trkpt>
      <trkpt lat="47.59665" lon="-2.5726">
        <ele>34.9</ele>
        <time>2020-06-06T10:27:32Z</time>
      </trkpt>
      <trkpt lat="47.59666" lon="-2.57265">
        <ele>34.9</ele>
        <time>2020-06-06T10:27:33Z</time>
      </trkpt>
      <trkpt lat="47.59666" lon="-2.5727">
        <ele>35</ele>
        <time>2020-06-06T10:27:34Z</time>
      </trkpt>
      <trkpt lat="47.59667" lon="-2.57275">
        <ele>35.1</ele>
        <time>2020-06-06T10:27:35Z</time>
      </trkpt>
      <trkpt lat="47.59668" lon="-2.5728">
        <ele>35.1</ele>
        <time>2020-06-06T10:27:36Z</time>
      </trkpt>
      <trkpt lat="47.59669" lon="-2.57286">
        <ele>35.2</ele>
        <time>2020-06-06T10:27:37Z</time>
      </trkpt>
      <trkpt lat="47.5967" lon="-2.57291">
        <ele>35.2</ele>
        <time>2020-06-06T10:27:38Z</time>
      </trkpt>
      <trkpt lat="47.59671" lon="-2.57296">
        <ele>35.3</ele>
        <time>2020-06-06T10:27:39Z</time>
      </trkpt>
      <trkpt lat="47.59672" lon="-2.57303">
        <ele>35.3</ele>
        <time>2020-06-06T10:27:40Z</time>
      </trkpt>
      <trkpt lat="47.59672" lon="-2.57306">
        <ele>35.3</ele>
        <time>2020-06-06T10:27:41Z</time>
      </trkpt>
      <trkpt lat="47.59673" lon="-2.57312">
        <ele>35.3</ele>
        <time>2020-06-06T10:27:42Z</time>
      </trkpt>
      <trkpt lat="47.59673" lon="-2.57318">
        <ele>35.4</ele>
        <time>2020-06-06T10:27:43Z</time>
      </trkpt>
      <trkpt lat="47.59674" lon="-2.57324">
        <ele>35.4</ele>
        <time>2020-06-06T10:27:44Z</time>
      </trkpt>
      <trkpt lat="47.59675" lon="-2.57332">
        <ele>35.4</ele>
        <time>2020-06-06T10:27:45Z</time>
      </trkpt>
      <trkpt lat="47.59676" lon="-2.57337">
        <ele>35.5</ele>
        <time>2020-06-06T10:27:46Z</time>
      </trkpt>
      <trkpt lat="47.59677" lon="-2.57343">
        <ele>35.5</ele>
        <time>2020-06-06T10:27:47Z</time>
      </trkpt>
      <trkpt lat="47.59678" lon="-2.57348">
        <ele>35.5</ele>
        <time>2020-06-06T10:27:48Z</time>
      </trkpt>
      <trkpt lat="47.59679" lon="-2.57355">
        <ele>35.6</ele>
        <time>2020-06-06T10:27:49Z</time>
      </trkpt>
      <trkpt lat="47.59679" lon="-2.57362">
        <ele>35.6</ele>
        <time>2020-06-06T10:27:50Z</time>
      </trkpt>
      <trkpt lat="47.59681" lon="-2.57368">
        <ele>35.6</ele>
        <time>2020-06-06T10:27:51Z</time>
      </trkpt>
      <trkpt lat="47.59682" lon="-2.57374">
        <ele>35.7</ele>
        <time>2020-06-06T10:27:52Z</time>
      </trkpt>
      <trkpt lat="47.59683" lon="-2.5738">
        <ele>35.7</ele>
        <time>2020-06-06T10:27:53Z</time>
      </trkpt>
      <trkpt lat="47.59683" lon="-2.57385">
        <ele>35.7</ele>
        <time>2020-06-06T10:27:54Z</time>
      </trkpt>
      <trkpt lat="47.59683" lon="-2.57391">
        <ele>35.7</ele>
        <time>2020-06-06T10:27:55Z</time>
      </trkpt>
      <trkpt lat="47.59684" lon="-2.57396">
        <ele>35.7</ele>
        <time>2020-06-06T10:27:56Z</time>
      </trkpt>
      <trkpt lat="47.59684" lon="-2.57398">
        <ele>35.7</ele>
        <time>2020-06-06T10:27:57Z</time>
      </trkpt>
      <trkpt lat="47.59685" lon="-2.57404">
        <ele>35.7</ele>
        <time>2020-06-06T10:27:58Z</time>
      </trkpt>
      <trkpt lat="47.59686" lon="-2.57411">
        <ele>35.8</ele>
        <time>2020-06-06T10:27:59Z</time>
      </trkpt>
      <trkpt lat="47.59686" lon="-2.57417">
        <ele>35.8</ele>
        <time>2020-06-06T10:28:00Z</time>
      </trkpt>
      <trkpt lat="47.59687" lon="-2.57424">
        <ele>35.8</ele>
        <time>2020-06-06T10:28:01Z</time>
      </trkpt>
      <trkpt lat="47.59688" lon="-2.5743">
        <ele>35.8</ele>
        <time>2020-06-06T10:28:02Z</time>
      </trkpt>
      <trkpt lat="47.59689" lon="-2.57435">
        <ele>35.9</ele>
        <time>2020-06-06T10:28:03Z</time>
      </trkpt>
      <trkpt lat="47.5969" lon="-2.57442">
        <ele>35.9</ele>
        <time>2020-06-06T10:28:04Z</time>
      </trkpt>
      <trkpt lat="47.59692" lon="-2.57448">
        <ele>36</ele>
        <time>2020-06-06T10:28:05Z</time>
      </trkpt>
      <trkpt lat="47.59693" lon="-2.57454">
        <ele>36</ele>
        <time>2020-06-06T10:28:06Z</time>
      </trkpt>
      <trkpt lat="47.59694" lon="-2.57462">
        <ele>36.1</ele>
        <time>2020-06-06T10:28:07Z</time>
      </trkpt>
      <trkpt lat="47.59695" lon="-2.57467">
        <ele>36.1</ele>
        <time>2020-06-06T10:28:08Z</time>
      </trkpt>
      <trkpt lat="47.59697" lon="-2.57473">
        <ele>36.2</ele>
        <time>2020-06-06T10:28:09Z</time>
      </trkpt>
      <trkpt lat="47.59699" lon="-2.57479">
        <ele>36.2</ele>
        <time>2020-06-06T10:28:10Z</time>
      </trkpt>
      <trkpt lat="47.59701" lon="-2.57484">
        <ele>36.3</ele>
        <time>2020-06-06T10:28:11Z</time>
      </trkpt>
      <trkpt lat="47.59702" lon="-2.57489">
        <ele>36.3</ele>
        <time>2020-06-06T10:28:12Z</time>
      </trkpt>
      <trkpt lat="47.59704" lon="-2.57496">
        <ele>36.4</ele>
        <time>2020-06-06T10:28:13Z</time>
      </trkpt>
      <trkpt lat="47.59705" lon="-2.57501">
        <ele>36.4</ele>
        <time>2020-06-06T10:28:14Z</time>
      </trkpt>
      <trkpt lat="47.59706" lon="-2.57506">
        <ele>36.4</ele>
        <time>2020-06-06T10:28:15Z</time>
      </trkpt>
      <trkpt lat="47.59708" lon="-2.57511">
        <ele>36.5</ele>
        <time>2020-06-06T10:28:16Z</time>
      </trkpt>
      <trkpt lat="47.59711" lon="-2.57517">
        <ele>36.5</ele>
        <time>2020-06-06T10:28:17Z</time>
      </trkpt>
      <trkpt lat="47.59713" lon="-2.57523">
        <ele>36.6</ele>
        <time>2020-06-06T10:28:18Z</time>
      </trkpt>
      <trkpt lat="47.59715" lon="-2.57529">
        <ele>36.7</ele>
        <time>2020-06-06T10:28:19Z</time>
      </trkpt>
      <trkpt lat="47.59716" lon="-2.57534">
        <ele>36.7</ele>
        <time>2020-06-06T10:28:20Z</time>
      </trkpt>
      <trkpt lat="47.59718" lon="-2.5754">
        <ele>36.8</ele>
        <time>2020-06-06T10:28:21Z</time>
      </trkpt>
      <trkpt lat="47.5972" lon="-2.57546">
        <ele>36.8</ele>
        <time>2020-06-06T10:28:22Z</time>
      </trkpt>
      <trkpt lat="47.59722" lon="-2.57551">
        <ele>36.9</ele>
        <time>2020-06-06T10:28:23Z</time>
      </trkpt>
      <trkpt lat="47.59723" lon="-2.57557">
        <ele>36.9</ele>
        <time>2020-06-06T10:28:24Z</time>
      </trkpt>
      <trkpt lat="47.59724" lon="-2.57562">
        <ele>37</ele>
        <time>2020-06-06T10:28:25Z</time>
      </trkpt>
      <trkpt lat="47.59726" lon="-2.57567">
        <ele>37</ele>
        <time>2020-06-06T10:28:26Z</time>
      </trkpt>
      <trkpt lat="47.59727" lon="-2.57573">
        <ele>37</ele>
        <time>2020-06-06T10:28:27Z</time>
      </trkpt>
      <trkpt lat="47.59729" lon="-2.57579">
        <ele>37.1</ele>
        <time>2020-06-06T10:28:28Z</time>
      </trkpt>
      <trkpt lat="47.59732" lon="-2.57585">
        <ele>37.2</ele>
        <time>2020-06-06T10:28:29Z</time>
      </trkpt>
      <trkpt lat="47.59735" lon="-2.57592">
        <ele>37.2</ele>
        <time>2020-06-06T10:28:30Z</time>
      </trkpt>
      <trkpt lat="47.59736" lon="-2.57598">
        <ele>37.3</ele>
        <time>2020-06-06T10:28:31Z</time>
      </trkpt>
      <trkpt lat="47.59738" lon="-2.57603">
        <ele>37.3</ele>
        <time>2020-06-06T10:28:32Z</time>
      </trkpt>
      <trkpt lat="47.59739" lon="-2.57609">
        <ele>37.5</ele>
        <time>2020-06-06T10:28:33Z</time>
      </trkpt>
      <trkpt lat="47.5974" lon="-2.57613">
        <ele>37.6</ele>
        <time>2020-06-06T10:28:34Z</time>
      </trkpt>
      <trkpt lat="47.59741" lon="-2.57619">
        <ele>37.7</ele>
        <time>2020-06-06T10:28:35Z</time>
      </trkpt>
      <trkpt lat="47.59743" lon="-2.57624">
        <ele>37.8</ele>
        <time>2020-06-06T10:28:36Z</time>
      </trkpt>
      <trkpt lat="47.59744" lon="-2.57629">
        <ele>37.8</ele>
        <time>2020-06-06T10:28:37Z</time>
      </trkpt>
      <trkpt lat="47.59745" lon="-2.57633">
        <ele>37.9</ele>
        <time>2020-06-06T10:28:38Z</time>
      </trkpt>
      <trkpt lat="47.59747" lon="-2.57639">
        <ele>38</ele>
        <time>2020-06-06T10:28:39Z</time>
      </trkpt>
      <trkpt lat="47.59748" lon="-2.57642">
        <ele>38</ele>
        <time>2020-06-06T10:28:40Z</time>
      </trkpt>
      <trkpt lat="47.59749" lon="-2.57646">
        <ele>38.1</ele>
        <time>2020-06-06T10:28:41Z</time>
      </trkpt>
      <trkpt lat="47.5975" lon="-2.5765">
        <ele>38.1</ele>
        <time>2020-06-06T10:28:42Z</time>
      </trkpt>
      <trkpt lat="47.59751" lon="-2.57655">
        <ele>38.2</ele>
        <time>2020-06-06T10:28:43Z</time>
      </trkpt>
      <trkpt lat="47.59752" lon="-2.57661">
        <ele>38.2</ele>
        <time>2020-06-06T10:28:44Z</time>
      </trkpt>
      <trkpt lat="47.59754" lon="-2.57667">
        <ele>38.3</ele>
        <time>2020-06-06T10:28:45Z</time>
      </trkpt>
      <trkpt lat="47.59755" lon="-2.57673">
        <ele>38.4</ele>
        <time>2020-06-06T10:28:46Z</time>
      </trkpt>
      <trkpt lat="47.59757" lon="-2.57678">
        <ele>38.4</ele>
        <time>2020-06-06T10:28:47Z</time>
      </trkpt>
      <trkpt lat="47.59758" lon="-2.57683">
        <ele>38.5</ele>
        <time>2020-06-06T10:28:48Z</time>
      </trkpt>
      <trkpt lat="47.59759" lon="-2.57687">
        <ele>38.5</ele>
        <time>2020-06-06T10:28:49Z</time>
      </trkpt>
      <trkpt lat="47.5976" lon="-2.57692">
        <ele>38.5</ele>
        <time>2020-06-06T10:28:50Z</time>
      </trkpt>
      <trkpt lat="47.59761" lon="-2.57697">
        <ele>38.6</ele>
        <time>2020-06-06T10:28:51Z</time>
      </trkpt>
      <trkpt lat="47.59762" lon="-2.57703">
        <ele>38.6</ele>
        <time>2020-06-06T10:28:52Z</time>
      </trkpt>
      <trkpt lat="47.59764" lon="-2.5771">
        <ele>38.7</ele>
        <time>2020-06-06T10:28:53Z</time>
      </trkpt>
      <trkpt lat="47.59765" lon="-2.57715">
        <ele>38.7</ele>
        <time>2020-06-06T10:28:54Z</time>
      </trkpt>
      <trkpt lat="47.59767" lon="-2.57721">
        <ele>38.8</ele>
        <time>2020-06-06T10:28:55Z</time>
      </trkpt>
      <trkpt lat="47.59769" lon="-2.57726">
        <ele>38.8</ele>
        <time>2020-06-06T10:28:56Z</time>
      </trkpt>
      <trkpt lat="47.5977" lon="-2.57732">
        <ele>38.9</ele>
        <time>2020-06-06T10:28:57Z</time>
      </trkpt>
      <trkpt lat="47.59772" lon="-2.57737">
        <ele>39</ele>
        <time>2020-06-06T10:28:58Z</time>
      </trkpt>
      <trkpt lat="47.59774" lon="-2.57742">
        <ele>39</ele>
        <time>2020-06-06T10:28:59Z</time>
      </trkpt>
      <trkpt lat="47.59776" lon="-2.57747">
        <ele>39.1</ele>
        <time>2020-06-06T10:29:00Z</time>
      </trkpt>
      <trkpt lat="47.59778" lon="-2.57751">
        <ele>39.1</ele>
        <time>2020-06-06T10:29:01Z</time>
      </trkpt>
      <trkpt lat="47.59781" lon="-2.57755">
        <ele>39.2</ele>
        <time>2020-06-06T10:29:02Z</time>
      </trkpt>
      <trkpt lat="47.59783" lon="-2.5776">
        <ele>39.2</ele>
        <time>2020-06-06T10:29:03Z</time>
      </trkpt>
      <trkpt lat="47.59785" lon="-2.57765">
        <ele>39.3</ele>
        <time>2020-06-06T10:29:04Z</time>
      </trkpt>
      <trkpt lat="47.59788" lon="-2.57771">
        <ele>39.4</ele>
        <time>2020-06-06T10:29:05Z</time>
      </trkpt>
      <trkpt lat="47.5979" lon="-2.57776">
        <ele>39.5</ele>
        <time>2020-06-06T10:29:06Z</time>
      </trkpt>
      <trkpt lat="47.59792" lon="-2.57779">
        <ele>39.6</ele>
        <time>2020-06-06T10:29:07Z</time>
      </trkpt>
      <trkpt lat="47.59795" lon="-2.57784">
        <ele>39.6</ele>
        <time>2020-06-06T10:29:08Z</time>
      </trkpt>
      <trkpt lat="47.59798" lon="-2.5779">
        <ele>39.7</ele>
        <time>2020-06-06T10:29:09Z</time>
      </trkpt>
      <trkpt lat="47.598" lon="-2.57794">
        <ele>39.8</ele>
        <time>2020-06-06T10:29:10Z</time>
      </trkpt>
      <trkpt lat="47.59802" lon="-2.57797">
        <ele>39.8</ele>
        <time>2020-06-06T10:29:11Z</time>
      </trkpt>
      <trkpt lat="47.59804" lon="-2.57801">
        <ele>39.9</ele>
        <time>2020-06-06T10:29:12Z</time>
      </trkpt>
      <trkpt lat="47.59806" lon="-2.57805">
        <ele>39.9</ele>
        <time>2020-06-06T10:29:13Z</time>
      </trkpt>
      <trkpt lat="47.59807" lon="-2.57811">
        <ele>40</ele>
        <time>2020-06-06T10:29:14Z</time>
      </trkpt>
      <trkpt lat="47.59809" lon="-2.57816">
        <ele>40</ele>
        <time>2020-06-06T10:29:15Z</time>
      </trkpt>
      <trkpt lat="47.59811" lon="-2.5782">
        <ele>40.1</ele>
        <time>2020-06-06T10:29:16Z</time>
      </trkpt>
      <trkpt lat="47.59812" lon="-2.57825">
        <ele>40.1</ele>
        <time>2020-06-06T10:29:17Z</time>
      </trkpt>
      <trkpt lat="47.59814" lon="-2.5783">
        <ele>40.2</ele>
        <time>2020-06-06T10:29:18Z</time>
      </trkpt>
      <trkpt lat="47.59816" lon="-2.57837">
        <ele>40.2</ele>
        <time>2020-06-06T10:29:19Z</time>
      </trkpt>
      <trkpt lat="47.59818" lon="-2.57842">
        <ele>40.3</ele>
        <time>2020-06-06T10:29:20Z</time>
      </trkpt>
      <trkpt lat="47.5982" lon="-2.57847">
        <ele>40.3</ele>
        <time>2020-06-06T10:29:21Z</time>
      </trkpt>
      <trkpt lat="47.59821" lon="-2.57853">
        <ele>40.4</ele>
        <time>2020-06-06T10:29:22Z</time>
      </trkpt>
      <trkpt lat="47.59822" lon="-2.57857">
        <ele>40.4</ele>
        <time>2020-06-06T10:29:23Z</time>
      </trkpt>
      <trkpt lat="47.59824" lon="-2.57863">
        <ele>40.4</ele>
        <time>2020-06-06T10:29:24Z</time>
      </trkpt>
      <trkpt lat="47.59825" lon="-2.57866">
        <ele>40.5</ele>
        <time>2020-06-06T10:29:25Z</time>
      </trkpt>
      <trkpt lat="47.59827" lon="-2.57871">
        <ele>40.5</ele>
        <time>2020-06-06T10:29:26Z</time>
      </trkpt>
      <trkpt lat="47.59829" lon="-2.57876">
        <ele>40.5</ele>
        <time>2020-06-06T10:29:27Z</time>
      </trkpt>
      <trkpt lat="47.59831" lon="-2.57881">
        <ele>40.5</ele>
        <time>2020-06-06T10:29:28Z</time>
      </trkpt>
      <trkpt lat="47.59833" lon="-2.57885">
        <ele>40.6</ele>
        <time>2020-06-06T10:29:29Z</time>
      </trkpt>
      <trkpt lat="47.59836" lon="-2.57889">
        <ele>40.6</ele>
        <time>2020-06-06T10:29:30Z</time>
      </trkpt>
      <trkpt lat="47.59837" lon="-2.5789">
        <ele>40.6</ele>
        <time>2020-06-06T10:29:31Z</time>
      </trkpt>
      <trkpt lat="47.5984" lon="-2.57894">
        <ele>40.6</ele>
        <time>2020-06-06T10:29:32Z</time>
      </trkpt>
      <trkpt lat="47.59842" lon="-2.57898">
        <ele>40.7</ele>
        <time>2020-06-06T10:29:33Z</time>
      </trkpt>
      <trkpt lat="47.59843" lon="-2.57903">
        <ele>40.7</ele>
        <time>2020-06-06T10:29:34Z</time>
      </trkpt>
      <trkpt lat="47.59845" lon="-2.57908">
        <ele>40.7</ele>
        <time>2020-06-06T10:29:35Z</time>
      </trkpt>
      <trkpt lat="47.59846" lon="-2.57912">
        <ele>40.7</ele>
        <time>2020-06-06T10:29:36Z</time>
      </trkpt>
      <trkpt lat="47.59848" lon="-2.57915">
        <ele>40.8</ele>
        <time>2020-06-06T10:29:37Z</time>
      </trkpt>
      <trkpt lat="47.5985" lon="-2.57921">
        <ele>40.8</ele>
        <time>2020-06-06T10:29:38Z</time>
      </trkpt>
      <trkpt lat="47.59852" lon="-2.57925">
        <ele>40.9</ele>
        <time>2020-06-06T10:29:39Z</time>
      </trkpt>
      <trkpt lat="47.59853" lon="-2.57931">
        <ele>40.9</ele>
        <time>2020-06-06T10:29:40Z</time>
      </trkpt>
      <trkpt lat="47.59855" lon="-2.57935">
        <ele>41</ele>
        <time>2020-06-06T10:29:41Z</time>
      </trkpt>
      <trkpt lat="47.59857" lon="-2.57941">
        <ele>41</ele>
        <time>2020-06-06T10:29:42Z</time>
      </trkpt>
      <trkpt lat="47.59859" lon="-2.57947">
        <ele>41</ele>
        <time>2020-06-06T10:29:43Z</time>
      </trkpt>
      <trkpt lat="47.59862" lon="-2.57952">
        <ele>41</ele>
        <time>2020-06-06T10:29:44Z</time>
      </trkpt>
      <trkpt lat="47.59864" lon="-2.57957">
        <ele>41.1</ele>
        <time>2020-06-06T10:29:45Z</time>
      </trkpt>
      <trkpt lat="47.59866" lon="-2.57962">
        <ele>41.1</ele>
        <time>2020-06-06T10:29:46Z</time>
      </trkpt>
      <trkpt lat="47.59867" lon="-2.57966">
        <ele>41.1</ele>
        <time>2020-06-06T10:29:47Z</time>
      </trkpt>
      <trkpt lat="47.59869" lon="-2.57972">
        <ele>41.1</ele>
        <time>2020-06-06T10:29:48Z</time>
      </trkpt>
      <trkpt lat="47.59871" lon="-2.57977">
        <ele>41.1</ele>
        <time>2020-06-06T10:29:49Z</time>
      </trkpt>
      <trkpt lat="47.59873" lon="-2.57983">
        <ele>41.1</ele>
        <time>2020-06-06T10:29:50Z</time>
      </trkpt>
      <trkpt lat="47.59875" lon="-2.57989">
        <ele>41.1</ele>
        <time>2020-06-06T10:29:51Z</time>
      </trkpt>
      <trkpt lat="47.59877" lon="-2.57994">
        <ele>41.1</ele>
        <time>2020-06-06T10:29:52Z</time>
      </trkpt>
      <trkpt lat="47.59879" lon="-2.57998">
        <ele>41.1</ele>
        <time>2020-06-06T10:29:53Z</time>
      </trkpt>
      <trkpt lat="47.5988" lon="-2.58003">
        <ele>41.1</ele>
        <time>2020-06-06T10:29:54Z</time>
      </trkpt>
      <trkpt lat="47.59882" lon="-2.58007">
        <ele>41.1</ele>
        <time>2020-06-06T10:29:55Z</time>
      </trkpt>
      <trkpt lat="47.59884" lon="-2.58011">
        <ele>41.1</ele>
        <time>2020-06-06T10:29:56Z</time>
      </trkpt>
      <trkpt lat="47.59887" lon="-2.58017">
        <ele>41.1</ele>
        <time>2020-06-06T10:29:57Z</time>
      </trkpt>
      <trkpt lat="47.59889" lon="-2.58022">
        <ele>41.1</ele>
        <time>2020-06-06T10:29:58Z</time>
      </trkpt>
      <trkpt lat="47.59891" lon="-2.58027">
        <ele>41.1</ele>
        <time>2020-06-06T10:29:59Z</time>
      </trkpt>
      <trkpt lat="47.59894" lon="-2.58031">
        <ele>41.1</ele>
        <time>2020-06-06T10:30:00Z</time>
      </trkpt>
      <trkpt lat="47.59896" lon="-2.58038">
        <ele>41.1</ele>
        <time>2020-06-06T10:30:01Z</time>
      </trkpt>
      <trkpt lat="47.59898" lon="-2.58043">
        <ele>41.1</ele>
        <time>2020-06-06T10:30:02Z</time>
      </trkpt>
      <trkpt lat="47.59899" lon="-2.58048">
        <ele>41.1</ele>
        <time>2020-06-06T10:30:03Z</time>
      </trkpt>
      <trkpt lat="47.59901" lon="-2.58053">
        <ele>41.1</ele>
        <time>2020-06-06T10:30:04Z</time>
      </trkpt>
      <trkpt lat="47.59904" lon="-2.58058">
        <ele>41.1</ele>
        <time>2020-06-06T10:30:05Z</time>
      </trkpt>
      <trkpt lat="47.59906" lon="-2.58062">
        <ele>41.1</ele>
        <time>2020-06-06T10:30:06Z</time>
      </trkpt>
      <trkpt lat="47.59908" lon="-2.58067">
        <ele>41.1</ele>
        <time>2020-06-06T10:30:07Z</time>
      </trkpt>
      <trkpt lat="47.5991" lon="-2.58073">
        <ele>41.2</ele>
        <time>2020-06-06T10:30:08Z</time>
      </trkpt>
      <trkpt lat="47.59912" lon="-2.58078">
        <ele>41.2</ele>
        <time>2020-06-06T10:30:09Z</time>
      </trkpt>
      <trkpt lat="47.59914" lon="-2.58083">
        <ele>41.2</ele>
        <time>2020-06-06T10:30:10Z</time>
      </trkpt>
      <trkpt lat="47.59916" lon="-2.58088">
        <ele>41.2</ele>
        <time>2020-06-06T10:30:11Z</time>
      </trkpt>
      <trkpt lat="47.59918" lon="-2.58092">
        <ele>41.2</ele>
        <time>2020-06-06T10:30:12Z</time>
      </trkpt>
      <trkpt lat="47.59919" lon="-2.58098">
        <ele>41.3</ele>
        <time>2020-06-06T10:30:13Z</time>
      </trkpt>
      <trkpt lat="47.59921" lon="-2.58102">
        <ele>41.3</ele>
        <time>2020-06-06T10:30:14Z</time>
      </trkpt>
      <trkpt lat="47.59923" lon="-2.58107">
        <ele>41.3</ele>
        <time>2020-06-06T10:30:15Z</time>
      </trkpt>
      <trkpt lat="47.59926" lon="-2.58112">
        <ele>41.3</ele>
        <time>2020-06-06T10:30:16Z</time>
      </trkpt>
      <trkpt lat="47.59927" lon="-2.58116">
        <ele>41.3</ele>
        <time>2020-06-06T10:30:17Z</time>
      </trkpt>
      <trkpt lat="47.5993" lon="-2.58121">
        <ele>41.3</ele>
        <time>2020-06-06T10:30:18Z</time>
      </trkpt>
      <trkpt lat="47.59934" lon="-2.58126">
        <ele>41.3</ele>
        <time>2020-06-06T10:30:19Z</time>
      </trkpt>
      <trkpt lat="47.59936" lon="-2.58132">
        <ele>41.3</ele>
        <time>2020-06-06T10:30:20Z</time>
      </trkpt>
      <trkpt lat="47.59939" lon="-2.58137">
        <ele>41.3</ele>
        <time>2020-06-06T10:30:21Z</time>
      </trkpt>
      <trkpt lat="47.59942" lon="-2.58141">
        <ele>41.3</ele>
        <time>2020-06-06T10:30:22Z</time>
      </trkpt>
      <trkpt lat="47.59944" lon="-2.58145">
        <ele>41.3</ele>
        <time>2020-06-06T10:30:23Z</time>
      </trkpt>
      <trkpt lat="47.59947" lon="-2.58148">
        <ele>41.3</ele>
        <time>2020-06-06T10:30:24Z</time>
      </trkpt>
      <trkpt lat="47.59949" lon="-2.58153">
        <ele>41.3</ele>
        <time>2020-06-06T10:30:25Z</time>
      </trkpt>
      <trkpt lat="47.59951" lon="-2.58155">
        <ele>41.3</ele>
        <time>2020-06-06T10:30:26Z</time>
      </trkpt>
      <trkpt lat="47.59954" lon="-2.58159">
        <ele>41.3</ele>
        <time>2020-06-06T10:30:27Z</time>
      </trkpt>
      <trkpt lat="47.59956" lon="-2.58163">
        <ele>41.3</ele>
        <time>2020-06-06T10:30:28Z</time>
      </trkpt>
      <trkpt lat="47.59959" lon="-2.58166">
        <ele>41.4</ele>
        <time>2020-06-06T10:30:29Z</time>
      </trkpt>
      <trkpt lat="47.59962" lon="-2.5817">
        <ele>41.4</ele>
        <time>2020-06-06T10:30:30Z</time>
      </trkpt>
      <trkpt lat="47.59965" lon="-2.58173">
        <ele>41.4</ele>
        <time>2020-06-06T10:30:31Z</time>
      </trkpt>
      <trkpt lat="47.59967" lon="-2.58176">
        <ele>41.4</ele>
        <time>2020-06-06T10:30:32Z</time>
      </trkpt>
      <trkpt lat="47.59971" lon="-2.58179">
        <ele>41.4</ele>
        <time>2020-06-06T10:30:33Z</time>
      </trkpt>
      <trkpt lat="47.59972" lon="-2.58181">
        <ele>41.4</ele>
        <time>2020-06-06T10:30:34Z</time>
      </trkpt>
      <trkpt lat="47.59974" lon="-2.58183">
        <ele>41.4</ele>
        <time>2020-06-06T10:30:35Z</time>
      </trkpt>
      <trkpt lat="47.59977" lon="-2.58185">
        <ele>41.4</ele>
        <time>2020-06-06T10:30:36Z</time>
      </trkpt>
      <trkpt lat="47.5998" lon="-2.58187">
        <ele>41.4</ele>
        <time>2020-06-06T10:30:37Z</time>
      </trkpt>
      <trkpt lat="47.59981" lon="-2.58187">
        <ele>41.4</ele>
        <time>2020-06-06T10:30:38Z</time>
      </trkpt>
      <trkpt lat="47.59982" lon="-2.58187">
        <ele>41.4</ele>
        <time>2020-06-06T10:30:39Z</time>
      </trkpt>
      <trkpt lat="47.59983" lon="-2.58187">
        <ele>41.4</ele>
        <time>2020-06-06T10:30:40Z</time>
      </trkpt>
      <trkpt lat="47.59983" lon="-2.58187">
        <ele>41.4</ele>
        <time>2020-06-06T10:30:41Z</time>
      </trkpt>
      <trkpt lat="47.59983" lon="-2.58187">
        <ele>41.4</ele>
        <time>2020-06-06T10:30:42Z</time>
      </trkpt>
      <trkpt lat="47.59984" lon="-2.58187">
        <ele>41.4</ele>
        <time>2020-06-06T10:30:43Z</time>
      </trkpt>
      <trkpt lat="47.59984" lon="-2.58187">
        <ele>41.4</ele>
        <time>2020-06-06T10:30:44Z</time>
      </trkpt>
      <trkpt lat="47.59984" lon="-2.58187">
        <ele>41.4</ele>
        <time>2020-06-06T10:30:45Z</time>
      </trkpt>
      <trkpt lat="47.59984" lon="-2.58187">
        <ele>41.4</ele>
        <time>2020-06-06T10:30:46Z</time>
      </trkpt>
      <trkpt lat="47.59984" lon="-2.58187">
        <ele>41.4</ele>
        <time>2020-06-06T10:30:47Z</time>
      </trkpt>
      <trkpt lat="47.59984" lon="-2.58187">
        <ele>41.4</ele>
        <time>2020-06-06T10:30:48Z</time>
      </trkpt>
      <trkpt lat="47.59984" lon="-2.58186">
        <ele>41.4</ele>
        <time>2020-06-06T10:30:49Z</time>
      </trkpt>
      <trkpt lat="47.59984" lon="-2.58186">
        <ele>41.4</ele>
        <time>2020-06-06T10:30:50Z</time>
      </trkpt>
      <trkpt lat="47.59988" lon="-2.58191">
        <ele>41.4</ele>
        <time>2020-06-06T10:40:31Z</time>
      </trkpt>
      <trkpt lat="47.5999" lon="-2.58191">
        <ele>41.4</ele>
        <time>2020-06-06T10:40:32Z</time>
      </trkpt>
      <trkpt lat="47.59993" lon="-2.58193">
        <ele>41.3</ele>
        <time>2020-06-06T10:40:33Z</time>
      </trkpt>
      <trkpt lat="47.59995" lon="-2.58196">
        <ele>41.3</ele>
        <time>2020-06-06T10:40:34Z</time>
      </trkpt>
      <trkpt lat="47.59997" lon="-2.58199">
        <ele>41.3</ele>
        <time>2020-06-06T10:40:35Z</time>
      </trkpt>
      <trkpt lat="47.60001" lon="-2.58203">
        <ele>41.2</ele>
        <time>2020-06-06T10:40:36Z</time>
      </trkpt>
      <trkpt lat="47.60003" lon="-2.58206">
        <ele>41.2</ele>
        <time>2020-06-06T10:40:37Z</time>
      </trkpt>
      <trkpt lat="47.60006" lon="-2.58209">
        <ele>41.1</ele>
        <time>2020-06-06T10:40:38Z</time>
      </trkpt>
      <trkpt lat="47.6001" lon="-2.58212">
        <ele>41.1</ele>
        <time>2020-06-06T10:40:39Z</time>
      </trkpt>
      <trkpt lat="47.60013" lon="-2.58214">
        <ele>41</ele>
        <time>2020-06-06T10:40:40Z</time>
      </trkpt>
      <trkpt lat="47.60016" lon="-2.58216">
        <ele>41</ele>
        <time>2020-06-06T10:40:41Z</time>
      </trkpt>
      <trkpt lat="47.6002" lon="-2.58218">
        <ele>40.9</ele>
        <time>2020-06-06T10:40:42Z</time>
      </trkpt>
      <trkpt lat="47.60025" lon="-2.5822">
        <ele>40.9</ele>
        <time>2020-06-06T10:40:43Z</time>
      </trkpt>
      <trkpt lat="47.60028" lon="-2.58221">
        <ele>40.9</ele>
        <time>2020-06-06T10:40:44Z</time>
      </trkpt>
      <trkpt lat="47.60031" lon="-2.58223">
        <ele>40.8</ele>
        <time>2020-06-06T10:40:45Z</time>
      </trkpt>
      <trkpt lat="47.60035" lon="-2.58223">
        <ele>40.8</ele>
        <time>2020-06-06T10:40:46Z</time>
      </trkpt>
      <trkpt lat="47.60039" lon="-2.58225">
        <ele>40.8</ele>
        <time>2020-06-06T10:40:47Z</time>
      </trkpt>
      <trkpt lat="47.60043" lon="-2.58228">
        <ele>40.8</ele>
        <time>2020-06-06T10:40:48Z</time>
      </trkpt>
      <trkpt lat="47.60048" lon="-2.58231">
        <ele>40.7</ele>
        <time>2020-06-06T10:40:49Z</time>
      </trkpt>
      <trkpt lat="47.60052" lon="-2.58232">
        <ele>40.7</ele>
        <time>2020-06-06T10:40:50Z</time>
      </trkpt>
      <trkpt lat="47.60057" lon="-2.58233">
        <ele>40.7</ele>
        <time>2020-06-06T10:40:51Z</time>
      </trkpt>
      <trkpt lat="47.60062" lon="-2.58235">
        <ele>40.7</ele>
        <time>2020-06-06T10:40:52Z</time>
      </trkpt>
      <trkpt lat="47.60065" lon="-2.58235">
        <ele>40.7</ele>
        <time>2020-06-06T10:40:53Z</time>
      </trkpt>
      <trkpt lat="47.60069" lon="-2.58237">
        <ele>40.7</ele>
        <time>2020-06-06T10:40:54Z</time>
      </trkpt>
      <trkpt lat="47.60073" lon="-2.5824">
        <ele>40.7</ele>
        <time>2020-06-06T10:40:55Z</time>
      </trkpt>
      <trkpt lat="47.60076" lon="-2.58243">
        <ele>40.7</ele>
        <time>2020-06-06T10:40:56Z</time>
      </trkpt>
      <trkpt lat="47.60079" lon="-2.58246">
        <ele>40.6</ele>
        <time>2020-06-06T10:40:57Z</time>
      </trkpt>
      <trkpt lat="47.60081" lon="-2.58247">
        <ele>40.6</ele>
        <time>2020-06-06T10:40:58Z</time>
      </trkpt>
      <trkpt lat="47.60085" lon="-2.58248">
        <ele>40.6</ele>
        <time>2020-06-06T10:40:59Z</time>
      </trkpt>
      <trkpt lat="47.60089" lon="-2.58251">
        <ele>40.6</ele>
        <time>2020-06-06T10:41:00Z</time>
      </trkpt>
      <trkpt lat="47.60093" lon="-2.58254">
        <ele>40.6</ele>
        <time>2020-06-06T10:41:01Z</time>
      </trkpt>
      <trkpt lat="47.60097" lon="-2.58255">
        <ele>40.5</ele>
        <time>2020-06-06T10:41:02Z</time>
      </trkpt>
      <trkpt lat="47.60102" lon="-2.58257">
        <ele>40.5</ele>
        <time>2020-06-06T10:41:03Z</time>
      </trkpt>
      <trkpt lat="47.60106" lon="-2.58258">
        <ele>40.5</ele>
        <time>2020-06-06T10:41:04Z</time>
      </trkpt>
      <trkpt lat="47.60111" lon="-2.58261">
        <ele>40.4</ele>
        <time>2020-06-06T10:41:05Z</time>
      </trkpt>
      <trkpt lat="47.60115" lon="-2.58265">
        <ele>40.4</ele>
        <time>2020-06-06T10:41:06Z</time>
      </trkpt>
      <trkpt lat="47.6012" lon="-2.58269">
        <ele>40.3</ele>
        <time>2020-06-06T10:41:07Z</time>
      </trkpt>
      <trkpt lat="47.60124" lon="-2.58273">
        <ele>40.2</ele>
        <time>2020-06-06T10:41:08Z</time>
      </trkpt>
      <trkpt lat="47.60128" lon="-2.58276">
        <ele>40.2</ele>
        <time>2020-06-06T10:41:09Z</time>
      </trkpt>
      <trkpt lat="47.60133" lon="-2.58281">
        <ele>40.1</ele>
        <time>2020-06-06T10:41:10Z</time>
      </trkpt>
      <trkpt lat="47.60137" lon="-2.58285">
        <ele>40.1</ele>
        <time>2020-06-06T10:41:11Z</time>
      </trkpt>
      <trkpt lat="47.60141" lon="-2.58289">
        <ele>40</ele>
        <time>2020-06-06T10:41:12Z</time>
      </trkpt>
      <trkpt lat="47.60146" lon="-2.58294">
        <ele>40</ele>
        <time>2020-06-06T10:41:13Z</time>
      </trkpt>
      <trkpt lat="47.6015" lon="-2.58301">
        <ele>39.9</ele>
        <time>2020-06-06T10:41:14Z</time>
      </trkpt>
      <trkpt lat="47.60153" lon="-2.58306">
        <ele>39.9</ele>
        <time>2020-06-06T10:41:15Z</time>
      </trkpt>
      <trkpt lat="47.60156" lon="-2.58311">
        <ele>39.8</ele>
        <time>2020-06-06T10:41:16Z</time>
      </trkpt>
      <trkpt lat="47.6016" lon="-2.58314">
        <ele>39.8</ele>
        <time>2020-06-06T10:41:17Z</time>
      </trkpt>
      <trkpt lat="47.60165" lon="-2.58319">
        <ele>39.7</ele>
        <time>2020-06-06T10:41:18Z</time>
      </trkpt>
      <trkpt lat="47.60168" lon="-2.58324">
        <ele>39.6</ele>
        <time>2020-06-06T10:41:19Z</time>
      </trkpt>
      <trkpt lat="47.60173" lon="-2.58328">
        <ele>39.5</ele>
        <time>2020-06-06T10:41:20Z</time>
      </trkpt>
      <trkpt lat="47.60177" lon="-2.58332">
        <ele>39.5</ele>
        <time>2020-06-06T10:41:21Z</time>
      </trkpt>
      <trkpt lat="47.6018" lon="-2.58337">
        <ele>39.4</ele>
        <time>2020-06-06T10:41:22Z</time>
      </trkpt>
      <trkpt lat="47.60184" lon="-2.58343">
        <ele>39.3</ele>
        <time>2020-06-06T10:41:23Z</time>
      </trkpt>
      <trkpt lat="47.60187" lon="-2.58348">
        <ele>39.2</ele>
        <time>2020-06-06T10:41:24Z</time>
      </trkpt>
      <trkpt lat="47.6019" lon="-2.58355">
        <ele>39.2</ele>
        <time>2020-06-06T10:41:25Z</time>
      </trkpt>
      <trkpt lat="47.60194" lon="-2.58361">
        <ele>39.2</ele>
        <time>2020-06-06T10:41:26Z</time>
      </trkpt>
      <trkpt lat="47.60198" lon="-2.58368">
        <ele>39.2</ele>
        <time>2020-06-06T10:41:27Z</time>
      </trkpt>
      <trkpt lat="47.60201" lon="-2.58373">
        <ele>39.2</ele>
        <time>2020-06-06T10:41:28Z</time>
      </trkpt>
      <trkpt lat="47.60205" lon="-2.58379">
        <ele>39.3</ele>
        <time>2020-06-06T10:41:29Z</time>
      </trkpt>
      <trkpt lat="47.60208" lon="-2.58386">
        <ele>39.3</ele>
        <time>2020-06-06T10:41:30Z</time>
      </trkpt>
      <trkpt lat="47.60211" lon="-2.58392">
        <ele>39.2</ele>
        <time>2020-06-06T10:41:31Z</time>
      </trkpt>
      <trkpt lat="47.60213" lon="-2.58398">
        <ele>39</ele>
        <time>2020-06-06T10:41:32Z</time>
      </trkpt>
      <trkpt lat="47.60215" lon="-2.58405">
        <ele>39</ele>
        <time>2020-06-06T10:41:33Z</time>
      </trkpt>
      <trkpt lat="47.60218" lon="-2.58411">
        <ele>39</ele>
        <time>2020-06-06T10:41:34Z</time>
      </trkpt>
      <trkpt lat="47.60222" lon="-2.58418">
        <ele>38.9</ele>
        <time>2020-06-06T10:41:35Z</time>
      </trkpt>
      <trkpt lat="47.60225" lon="-2.58426">
        <ele>38.9</ele>
        <time>2020-06-06T10:41:36Z</time>
      </trkpt>
      <trkpt lat="47.60228" lon="-2.58432">
        <ele>38.9</ele>
        <time>2020-06-06T10:41:37Z</time>
      </trkpt>
      <trkpt lat="47.60231" lon="-2.58438">
        <ele>39</ele>
        <time>2020-06-06T10:41:38Z</time>
      </trkpt>
      <trkpt lat="47.60233" lon="-2.58443">
        <ele>39</ele>
        <time>2020-06-06T10:41:39Z</time>
      </trkpt>
      <trkpt lat="47.60235" lon="-2.5845">
        <ele>39</ele>
        <time>2020-06-06T10:41:40Z</time>
      </trkpt>
      <trkpt lat="47.60238" lon="-2.58456">
        <ele>39</ele>
        <time>2020-06-06T10:41:41Z</time>
      </trkpt>
      <trkpt lat="47.60241" lon="-2.58463">
        <ele>39.1</ele>
        <time>2020-06-06T10:41:42Z</time>
      </trkpt>
      <trkpt lat="47.60243" lon="-2.5847">
        <ele>39.1</ele>
        <time>2020-06-06T10:41:43Z</time>
      </trkpt>
      <trkpt lat="47.60246" lon="-2.58477">
        <ele>39.1</ele>
        <time>2020-06-06T10:41:44Z</time>
      </trkpt>
      <trkpt lat="47.60249" lon="-2.58484">
        <ele>39.2</ele>
        <time>2020-06-06T10:41:45Z</time>
      </trkpt>
      <trkpt lat="47.60253" lon="-2.58491">
        <ele>39.2</ele>
        <time>2020-06-06T10:41:46Z</time>
      </trkpt>
      <trkpt lat="47.60256" lon="-2.58498">
        <ele>39.3</ele>
        <time>2020-06-06T10:41:47Z</time>
      </trkpt>
      <trkpt lat="47.60258" lon="-2.58505">
        <ele>39.3</ele>
        <time>2020-06-06T10:41:48Z</time>
      </trkpt>
      <trkpt lat="47.60261" lon="-2.58512">
        <ele>39.3</ele>
        <time>2020-06-06T10:41:49Z</time>
      </trkpt>
      <trkpt lat="47.60262" lon="-2.58519">
        <ele>39.4</ele>
        <time>2020-06-06T10:41:50Z</time>
      </trkpt>
      <trkpt lat="47.60265" lon="-2.58527">
        <ele>39.4</ele>
        <time>2020-06-06T10:41:51Z</time>
      </trkpt>
      <trkpt lat="47.60268" lon="-2.58534">
        <ele>39.5</ele>
        <time>2020-06-06T10:41:52Z</time>
      </trkpt>
      <trkpt lat="47.6027" lon="-2.58541">
        <ele>39.5</ele>
        <time>2020-06-06T10:41:53Z</time>
      </trkpt>
      <trkpt lat="47.60272" lon="-2.58548">
        <ele>39.6</ele>
        <time>2020-06-06T10:41:54Z</time>
      </trkpt>
      <trkpt lat="47.60273" lon="-2.58555">
        <ele>39.6</ele>
        <time>2020-06-06T10:41:55Z</time>
      </trkpt>
      <trkpt lat="47.60274" lon="-2.58562">
        <ele>39.6</ele>
        <time>2020-06-06T10:41:56Z</time>
      </trkpt>
      <trkpt lat="47.60276" lon="-2.58569">
        <ele>39.6</ele>
        <time>2020-06-06T10:41:57Z</time>
      </trkpt>
      <trkpt lat="47.60277" lon="-2.58577">
        <ele>39.5</ele>
        <time>2020-06-06T10:41:58Z</time>
      </trkpt>
      <trkpt lat="47.60279" lon="-2.58584">
        <ele>39.5</ele>
        <time>2020-06-06T10:41:59Z</time>
      </trkpt>
      <trkpt lat="47.60281" lon="-2.58591">
        <ele>39.5</ele>
        <time>2020-06-06T10:42:00Z</time>
      </trkpt>
      <trkpt lat="47.60281" lon="-2.58597">
        <ele>39.5</ele>
        <time>2020-06-06T10:42:01Z</time>
      </trkpt>
      <trkpt lat="47.60284" lon="-2.58603">
        <ele>39.4</ele>
        <time>2020-06-06T10:42:02Z</time>
      </trkpt>
      <trkpt lat="47.60285" lon="-2.58608">
        <ele>39.4</ele>
        <time>2020-06-06T10:42:03Z</time>
      </trkpt>
      <trkpt lat="47.60286" lon="-2.58614">
        <ele>39.4</ele>
        <time>2020-06-06T10:42:04Z</time>
      </trkpt>
      <trkpt lat="47.60288" lon="-2.58619">
        <ele>39.3</ele>
        <time>2020-06-06T10:42:05Z</time>
      </trkpt>
      <trkpt lat="47.6029" lon="-2.58626">
        <ele>39.3</ele>
        <time>2020-06-06T10:42:06Z</time>
      </trkpt>
      <trkpt lat="47.60291" lon="-2.58632">
        <ele>39.3</ele>
        <time>2020-06-06T10:42:07Z</time>
      </trkpt>
      <trkpt lat="47.60293" lon="-2.58638">
        <ele>39.2</ele>
        <time>2020-06-06T10:42:08Z</time>
      </trkpt>
      <trkpt lat="47.60294" lon="-2.58644">
        <ele>39.2</ele>
        <time>2020-06-06T10:42:09Z</time>
      </trkpt>
      <trkpt lat="47.60295" lon="-2.58652">
        <ele>39.1</ele>
        <time>2020-06-06T10:42:10Z</time>
      </trkpt>
      <trkpt lat="47.60296" lon="-2.58659">
        <ele>39.1</ele>
        <time>2020-06-06T10:42:11Z</time>
      </trkpt>
      <trkpt lat="47.60297" lon="-2.58665">
        <ele>39.1</ele>
        <time>2020-06-06T10:42:12Z</time>
      </trkpt>
      <trkpt lat="47.60299" lon="-2.58672">
        <ele>39.1</ele>
        <time>2020-06-06T10:42:13Z</time>
      </trkpt>
      <trkpt lat="47.603" lon="-2.58677">
        <ele>39.1</ele>
        <time>2020-06-06T10:42:14Z</time>
      </trkpt>
      <trkpt lat="47.60301" lon="-2.58683">
        <ele>39.1</ele>
        <time>2020-06-06T10:42:15Z</time>
      </trkpt>
      <trkpt lat="47.60303" lon="-2.58689">
        <ele>39.1</ele>
        <time>2020-06-06T10:42:16Z</time>
      </trkpt>
      <trkpt lat="47.60304" lon="-2.58695">
        <ele>39.1</ele>
        <time>2020-06-06T10:42:17Z</time>
      </trkpt>
      <trkpt lat="47.60306" lon="-2.58701">
        <ele>39.1</ele>
        <time>2020-06-06T10:42:18Z</time>
      </trkpt>
      <trkpt lat="47.60308" lon="-2.58708">
        <ele>39.1</ele>
        <time>2020-06-06T10:42:19Z</time>
      </trkpt>
      <trkpt lat="47.60309" lon="-2.58713">
        <ele>39.1</ele>
        <time>2020-06-06T10:42:20Z</time>
      </trkpt>
      <trkpt lat="47.60311" lon="-2.58719">
        <ele>39.1</ele>
        <time>2020-06-06T10:42:21Z</time>
      </trkpt>
      <trkpt lat="47.60313" lon="-2.58726">
        <ele>39.1</ele>
        <time>2020-06-06T10:42:22Z</time>
      </trkpt>
      <trkpt lat="47.60315" lon="-2.58732">
        <ele>39.1</ele>
        <time>2020-06-06T10:42:23Z</time>
      </trkpt>
      <trkpt lat="47.60316" lon="-2.5874">
        <ele>39.1</ele>
        <time>2020-06-06T10:42:24Z</time>
      </trkpt>
      <trkpt lat="47.60319" lon="-2.58747">
        <ele>39.1</ele>
        <time>2020-06-06T10:42:25Z</time>
      </trkpt>
      <trkpt lat="47.60321" lon="-2.58755">
        <ele>39.1</ele>
        <time>2020-06-06T10:42:26Z</time>
      </trkpt>
      <trkpt lat="47.60323" lon="-2.58763">
        <ele>39.1</ele>
        <time>2020-06-06T10:42:27Z</time>
      </trkpt>
      <trkpt lat="47.60325" lon="-2.58771">
        <ele>39.1</ele>
        <time>2020-06-06T10:42:28Z</time>
      </trkpt>
      <trkpt lat="47.60326" lon="-2.58777">
        <ele>39.1</ele>
        <time>2020-06-06T10:42:29Z</time>
      </trkpt>
      <trkpt lat="47.60328" lon="-2.58784">
        <ele>39.1</ele>
        <time>2020-06-06T10:42:30Z</time>
      </trkpt>
      <trkpt lat="47.60329" lon="-2.58791">
        <ele>39.1</ele>
        <time>2020-06-06T10:42:31Z</time>
      </trkpt>
      <trkpt lat="47.60331" lon="-2.58797">
        <ele>39.2</ele>
        <time>2020-06-06T10:42:32Z</time>
      </trkpt>
      <trkpt lat="47.60333" lon="-2.58803">
        <ele>39.2</ele>
        <time>2020-06-06T10:42:33Z</time>
      </trkpt>
      <trkpt lat="47.60335" lon="-2.5881">
        <ele>39.2</ele>
        <time>2020-06-06T10:42:34Z</time>
      </trkpt>
      <trkpt lat="47.60338" lon="-2.58817">
        <ele>39.2</ele>
        <time>2020-06-06T10:42:35Z</time>
      </trkpt>
      <trkpt lat="47.6034" lon="-2.58823">
        <ele>39.2</ele>
        <time>2020-06-06T10:42:36Z</time>
      </trkpt>
      <trkpt lat="47.60341" lon="-2.58828">
        <ele>39.2</ele>
        <time>2020-06-06T10:42:37Z</time>
      </trkpt>
      <trkpt lat="47.60343" lon="-2.58834">
        <ele>39.2</ele>
        <time>2020-06-06T10:42:38Z</time>
      </trkpt>
      <trkpt lat="47.60344" lon="-2.5884">
        <ele>39.2</ele>
        <time>2020-06-06T10:42:39Z</time>
      </trkpt>
      <trkpt lat="47.60346" lon="-2.58846">
        <ele>39.2</ele>
        <time>2020-06-06T10:42:40Z</time>
      </trkpt>
      <trkpt lat="47.60348" lon="-2.58853">
        <ele>39.2</ele>
        <time>2020-06-06T10:42:41Z</time>
      </trkpt>
      <trkpt lat="47.60349" lon="-2.58859">
        <ele>39.2</ele>
        <time>2020-06-06T10:42:42Z</time>
      </trkpt>
      <trkpt lat="47.60351" lon="-2.58865">
        <ele>39.2</ele>
        <time>2020-06-06T10:42:43Z</time>
      </trkpt>
      <trkpt lat="47.60354" lon="-2.58871">
        <ele>39.3</ele>
        <time>2020-06-06T10:42:44Z</time>
      </trkpt>
      <trkpt lat="47.60356" lon="-2.58877">
        <ele>39.3</ele>
        <time>2020-06-06T10:42:45Z</time>
      </trkpt>
      <trkpt lat="47.60357" lon="-2.58883">
        <ele>39.3</ele>
        <time>2020-06-06T10:42:46Z</time>
      </trkpt>
      <trkpt lat="47.60359" lon="-2.58889">
        <ele>39.3</ele>
        <time>2020-06-06T10:42:47Z</time>
      </trkpt>
      <trkpt lat="47.60361" lon="-2.58896">
        <ele>39.3</ele>
        <time>2020-06-06T10:42:48Z</time>
      </trkpt>
      <trkpt lat="47.60363" lon="-2.58903">
        <ele>39.3</ele>
        <time>2020-06-06T10:42:49Z</time>
      </trkpt>
      <trkpt lat="47.60364" lon="-2.5891">
        <ele>39.3</ele>
        <time>2020-06-06T10:42:50Z</time>
      </trkpt>
      <trkpt lat="47.60366" lon="-2.58917">
        <ele>39.2</ele>
        <time>2020-06-06T10:42:51Z</time>
      </trkpt>
      <trkpt lat="47.60369" lon="-2.58924">
        <ele>39.1</ele>
        <time>2020-06-06T10:42:52Z</time>
      </trkpt>
      <trkpt lat="47.60371" lon="-2.58931">
        <ele>39</ele>
        <time>2020-06-06T10:42:53Z</time>
      </trkpt>
      <trkpt lat="47.60373" lon="-2.58939">
        <ele>38.8</ele>
        <time>2020-06-06T10:42:54Z</time>
      </trkpt>
      <trkpt lat="47.60376" lon="-2.58946">
        <ele>38.7</ele>
        <time>2020-06-06T10:42:55Z</time>
      </trkpt>
      <trkpt lat="47.60378" lon="-2.58952">
        <ele>38.6</ele>
        <time>2020-06-06T10:42:56Z</time>
      </trkpt>
      <trkpt lat="47.60381" lon="-2.58959">
        <ele>38.4</ele>
        <time>2020-06-06T10:42:57Z</time>
      </trkpt>
      <trkpt lat="47.60383" lon="-2.58965">
        <ele>38.3</ele>
        <time>2020-06-06T10:42:58Z</time>
      </trkpt>
      <trkpt lat="47.60386" lon="-2.58972">
        <ele>38.2</ele>
        <time>2020-06-06T10:42:59Z</time>
      </trkpt>
      <trkpt lat="47.60388" lon="-2.58979">
        <ele>38</ele>
        <time>2020-06-06T10:43:00Z</time>
      </trkpt>
      <trkpt lat="47.6039" lon="-2.58987">
        <ele>37.8</ele>
        <time>2020-06-06T10:43:01Z</time>
      </trkpt>
      <trkpt lat="47.60392" lon="-2.58994">
        <ele>37.7</ele>
        <time>2020-06-06T10:43:02Z</time>
      </trkpt>
      <trkpt lat="47.60395" lon="-2.59001">
        <ele>37.5</ele>
        <time>2020-06-06T10:43:03Z</time>
      </trkpt>
      <trkpt lat="47.60397" lon="-2.59008">
        <ele>37.3</ele>
        <time>2020-06-06T10:43:04Z</time>
      </trkpt>
      <trkpt lat="47.60399" lon="-2.59015">
        <ele>37.2</ele>
        <time>2020-06-06T10:43:05Z</time>
      </trkpt>
      <trkpt lat="47.60401" lon="-2.59022">
        <ele>37</ele>
        <time>2020-06-06T10:43:06Z</time>
      </trkpt>
      <trkpt lat="47.60404" lon="-2.59029">
        <ele>36.9</ele>
        <time>2020-06-06T10:43:07Z</time>
      </trkpt>
      <trkpt lat="47.60407" lon="-2.59036">
        <ele>36.7</ele>
        <time>2020-06-06T10:43:08Z</time>
      </trkpt>
      <trkpt lat="47.60409" lon="-2.59043">
        <ele>36.6</ele>
        <time>2020-06-06T10:43:09Z</time>
      </trkpt>
      <trkpt lat="47.60411" lon="-2.59051">
        <ele>36.4</ele>
        <time>2020-06-06T10:43:10Z</time>
      </trkpt>
      <trkpt lat="47.60411" lon="-2.59059">
        <ele>36.2</ele>
        <time>2020-06-06T10:43:11Z</time>
      </trkpt>
      <trkpt lat="47.60412" lon="-2.59069">
        <ele>36.1</ele>
        <time>2020-06-06T10:43:12Z</time>
      </trkpt>
      <trkpt lat="47.60413" lon="-2.5908">
        <ele>35.9</ele>
        <time>2020-06-06T10:43:13Z</time>
      </trkpt>
      <trkpt lat="47.60413" lon="-2.59091">
        <ele>35.7</ele>
        <time>2020-06-06T10:43:14Z</time>
      </trkpt>
      <trkpt lat="47.60413" lon="-2.59102">
        <ele>35.5</ele>
        <time>2020-06-06T10:43:15Z</time>
      </trkpt>
      <trkpt lat="47.60413" lon="-2.59115">
        <ele>35.2</ele>
        <time>2020-06-06T10:43:16Z</time>
      </trkpt>
      <trkpt lat="47.60411" lon="-2.59125">
        <ele>35</ele>
        <time>2020-06-06T10:43:17Z</time>
      </trkpt>
      <trkpt lat="47.60412" lon="-2.59136">
        <ele>34.8</ele>
        <time>2020-06-06T10:43:18Z</time>
      </trkpt>
      <trkpt lat="47.60412" lon="-2.59149">
        <ele>34.6</ele>
        <time>2020-06-06T10:43:19Z</time>
      </trkpt>
      <trkpt lat="47.60411" lon="-2.59162">
        <ele>34.4</ele>
        <time>2020-06-06T10:43:20Z</time>
      </trkpt>
      <trkpt lat="47.60411" lon="-2.59176">
        <ele>34.2</ele>
        <time>2020-06-06T10:43:21Z</time>
      </trkpt>
      <trkpt lat="47.60411" lon="-2.5919">
        <ele>34</ele>
        <time>2020-06-06T10:43:22Z</time>
      </trkpt>
      <trkpt lat="47.60411" lon="-2.59203">
        <ele>33.7</ele>
        <time>2020-06-06T10:43:23Z</time>
      </trkpt>
      <trkpt lat="47.60411" lon="-2.59217">
        <ele>33.5</ele>
        <time>2020-06-06T10:43:24Z</time>
      </trkpt>
      <trkpt lat="47.60412" lon="-2.59231">
        <ele>33.2</ele>
        <time>2020-06-06T10:43:25Z</time>
      </trkpt>
      <trkpt lat="47.60412" lon="-2.59245">
        <ele>33.1</ele>
        <time>2020-06-06T10:43:26Z</time>
      </trkpt>
      <trkpt lat="47.60412" lon="-2.59259">
        <ele>32.9</ele>
        <time>2020-06-06T10:43:27Z</time>
      </trkpt>
      <trkpt lat="47.60412" lon="-2.59272">
        <ele>32.8</ele>
        <time>2020-06-06T10:43:28Z</time>
      </trkpt>
      <trkpt lat="47.60412" lon="-2.59284">
        <ele>32.6</ele>
        <time>2020-06-06T10:43:29Z</time>
      </trkpt>
      <trkpt lat="47.60412" lon="-2.59297">
        <ele>32.5</ele>
        <time>2020-06-06T10:43:30Z</time>
      </trkpt>
      <trkpt lat="47.60413" lon="-2.5931">
        <ele>32.4</ele>
        <time>2020-06-06T10:43:31Z</time>
      </trkpt>
      <trkpt lat="47.60414" lon="-2.59322">
        <ele>32.2</ele>
        <time>2020-06-06T10:43:32Z</time>
      </trkpt>
      <trkpt lat="47.60415" lon="-2.59334">
        <ele>32.1</ele>
        <time>2020-06-06T10:43:33Z</time>
      </trkpt>
      <trkpt lat="47.60416" lon="-2.59344">
        <ele>32</ele>
        <time>2020-06-06T10:43:34Z</time>
      </trkpt>
      <trkpt lat="47.60415" lon="-2.59355">
        <ele>31.8</ele>
        <time>2020-06-06T10:43:35Z</time>
      </trkpt>
      <trkpt lat="47.60414" lon="-2.59366">
        <ele>31.7</ele>
        <time>2020-06-06T10:43:36Z</time>
      </trkpt>
      <trkpt lat="47.60414" lon="-2.59376">
        <ele>31.5</ele>
        <time>2020-06-06T10:43:37Z</time>
      </trkpt>
      <trkpt lat="47.60414" lon="-2.59386">
        <ele>31.4</ele>
        <time>2020-06-06T10:43:38Z</time>
      </trkpt>
      <trkpt lat="47.60414" lon="-2.59395">
        <ele>31.3</ele>
        <time>2020-06-06T10:43:39Z</time>
      </trkpt>
      <trkpt lat="47.60413" lon="-2.59405">
        <ele>31.1</ele>
        <time>2020-06-06T10:43:40Z</time>
      </trkpt>
      <trkpt lat="47.60414" lon="-2.59414">
        <ele>30.9</ele>
        <time>2020-06-06T10:43:41Z</time>
      </trkpt>
      <trkpt lat="47.60414" lon="-2.59424">
        <ele>30.7</ele>
        <time>2020-06-06T10:43:42Z</time>
      </trkpt>
      <trkpt lat="47.60415" lon="-2.59434">
        <ele>30.5</ele>
        <time>2020-06-06T10:43:43Z</time>
      </trkpt>
      <trkpt lat="47.60417" lon="-2.59443">
        <ele>30.2</ele>
        <time>2020-06-06T10:43:44Z</time>
      </trkpt>
      <trkpt lat="47.6042" lon="-2.59452">
        <ele>29.9</ele>
        <time>2020-06-06T10:43:45Z</time>
      </trkpt>
      <trkpt lat="47.60422" lon="-2.5946">
        <ele>29.6</ele>
        <time>2020-06-06T10:43:46Z</time>
      </trkpt>
      <trkpt lat="47.60425" lon="-2.59468">
        <ele>29.4</ele>
        <time>2020-06-06T10:43:47Z</time>
      </trkpt>
      <trkpt lat="47.60428" lon="-2.59476">
        <ele>29.1</ele>
        <time>2020-06-06T10:43:48Z</time>
      </trkpt>
      <trkpt lat="47.6043" lon="-2.59484">
        <ele>28.8</ele>
        <time>2020-06-06T10:43:49Z</time>
      </trkpt>
      <trkpt lat="47.60433" lon="-2.59491">
        <ele>28.4</ele>
        <time>2020-06-06T10:43:50Z</time>
      </trkpt>
      <trkpt lat="47.60437" lon="-2.59498">
        <ele>28.1</ele>
        <time>2020-06-06T10:43:51Z</time>
      </trkpt>
      <trkpt lat="47.60441" lon="-2.59505">
        <ele>27.8</ele>
        <time>2020-06-06T10:43:52Z</time>
      </trkpt>
      <trkpt lat="47.60445" lon="-2.59514">
        <ele>27.4</ele>
        <time>2020-06-06T10:43:53Z</time>
      </trkpt>
      <trkpt lat="47.60448" lon="-2.59523">
        <ele>27.1</ele>
        <time>2020-06-06T10:43:54Z</time>
      </trkpt>
      <trkpt lat="47.60451" lon="-2.59533">
        <ele>26.7</ele>
        <time>2020-06-06T10:43:55Z</time>
      </trkpt>
      <trkpt lat="47.60454" lon="-2.59542">
        <ele>26.5</ele>
        <time>2020-06-06T10:43:56Z</time>
      </trkpt>
      <trkpt lat="47.60458" lon="-2.59551">
        <ele>26.1</ele>
        <time>2020-06-06T10:43:57Z</time>
      </trkpt>
      <trkpt lat="47.60462" lon="-2.59562">
        <ele>25.6</ele>
        <time>2020-06-06T10:43:58Z</time>
      </trkpt>
      <trkpt lat="47.60465" lon="-2.59572">
        <ele>25.2</ele>
        <time>2020-06-06T10:43:59Z</time>
      </trkpt>
      <trkpt lat="47.60469" lon="-2.59581">
        <ele>24.8</ele>
        <time>2020-06-06T10:44:00Z</time>
      </trkpt>
      <trkpt lat="47.60473" lon="-2.59592">
        <ele>24.4</ele>
        <time>2020-06-06T10:44:01Z</time>
      </trkpt>
      <trkpt lat="47.60476" lon="-2.59602">
        <ele>24</ele>
        <time>2020-06-06T10:44:02Z</time>
      </trkpt>
      <trkpt lat="47.6048" lon="-2.59612">
        <ele>23.7</ele>
        <time>2020-06-06T10:44:03Z</time>
      </trkpt>
      <trkpt lat="47.60484" lon="-2.59622">
        <ele>23.4</ele>
        <time>2020-06-06T10:44:04Z</time>
      </trkpt>
      <trkpt lat="47.60487" lon="-2.59632">
        <ele>23.1</ele>
        <time>2020-06-06T10:44:05Z</time>
      </trkpt>
      <trkpt lat="47.6049" lon="-2.59642">
        <ele>22.8</ele>
        <time>2020-06-06T10:44:06Z</time>
      </trkpt>
      <trkpt lat="47.60493" lon="-2.59653">
        <ele>22.5</ele>
        <time>2020-06-06T10:44:07Z</time>
      </trkpt>
      <trkpt lat="47.60496" lon="-2.59662">
        <ele>22.4</ele>
        <time>2020-06-06T10:44:08Z</time>
      </trkpt>
      <trkpt lat="47.60499" lon="-2.59672">
        <ele>22.2</ele>
        <time>2020-06-06T10:44:09Z</time>
      </trkpt>
      <trkpt lat="47.60502" lon="-2.59682">
        <ele>22.1</ele>
        <time>2020-06-06T10:44:10Z</time>
      </trkpt>
      <trkpt lat="47.60505" lon="-2.59692">
        <ele>22.1</ele>
        <time>2020-06-06T10:44:11Z</time>
      </trkpt>
      <trkpt lat="47.60507" lon="-2.59701">
        <ele>21.9</ele>
        <time>2020-06-06T10:44:12Z</time>
      </trkpt>
      <trkpt lat="47.6051" lon="-2.59711">
        <ele>21.7</ele>
        <time>2020-06-06T10:44:13Z</time>
      </trkpt>
      <trkpt lat="47.60512" lon="-2.5972">
        <ele>21.5</ele>
        <time>2020-06-06T10:44:14Z</time>
      </trkpt>
      <trkpt lat="47.60515" lon="-2.5973">
        <ele>21.3</ele>
        <time>2020-06-06T10:44:15Z</time>
      </trkpt>
      <trkpt lat="47.60517" lon="-2.59739">
        <ele>21.1</ele>
        <time>2020-06-06T10:44:16Z</time>
      </trkpt>
      <trkpt lat="47.6052" lon="-2.59748">
        <ele>20.9</ele>
        <time>2020-06-06T10:44:17Z</time>
      </trkpt>
      <trkpt lat="47.60523" lon="-2.59757">
        <ele>20.7</ele>
        <time>2020-06-06T10:44:18Z</time>
      </trkpt>
      <trkpt lat="47.60527" lon="-2.59766">
        <ele>20.5</ele>
        <time>2020-06-06T10:44:19Z</time>
      </trkpt>
      <trkpt lat="47.6053" lon="-2.59775">
        <ele>20.4</ele>
        <time>2020-06-06T10:44:20Z</time>
      </trkpt>
      <trkpt lat="47.60533" lon="-2.59784">
        <ele>20.2</ele>
        <time>2020-06-06T10:44:21Z</time>
      </trkpt>
      <trkpt lat="47.60537" lon="-2.59794">
        <ele>20.1</ele>
        <time>2020-06-06T10:44:22Z</time>
      </trkpt>
      <trkpt lat="47.60539" lon="-2.59804">
        <ele>20</ele>
        <time>2020-06-06T10:44:23Z</time>
      </trkpt>
      <trkpt lat="47.60542" lon="-2.59815">
        <ele>20</ele>
        <time>2020-06-06T10:44:24Z</time>
      </trkpt>
      <trkpt lat="47.60545" lon="-2.59825">
        <ele>19.9</ele>
        <time>2020-06-06T10:44:25Z</time>
      </trkpt>
      <trkpt lat="47.60548" lon="-2.59835">
        <ele>19.8</ele>
        <time>2020-06-06T10:44:26Z</time>
      </trkpt>
      <trkpt lat="47.60551" lon="-2.59845">
        <ele>19.6</ele>
        <time>2020-06-06T10:44:27Z</time>
      </trkpt>
      <trkpt lat="47.60554" lon="-2.59855">
        <ele>19.5</ele>
        <time>2020-06-06T10:44:28Z</time>
      </trkpt>
      <trkpt lat="47.60557" lon="-2.59866">
        <ele>19.4</ele>
        <time>2020-06-06T10:44:29Z</time>
      </trkpt>
      <trkpt lat="47.6056" lon="-2.59875">
        <ele>19.2</ele>
        <time>2020-06-06T10:44:30Z</time>
      </trkpt>
      <trkpt lat="47.60564" lon="-2.59884">
        <ele>19.1</ele>
        <time>2020-06-06T10:44:31Z</time>
      </trkpt>
      <trkpt lat="47.60567" lon="-2.59894">
        <ele>18.9</ele>
        <time>2020-06-06T10:44:32Z</time>
      </trkpt>
      <trkpt lat="47.6057" lon="-2.59904">
        <ele>18.7</ele>
        <time>2020-06-06T10:44:33Z</time>
      </trkpt>
      <trkpt lat="47.60573" lon="-2.59915">
        <ele>18.6</ele>
        <time>2020-06-06T10:44:34Z</time>
      </trkpt>
      <trkpt lat="47.60576" lon="-2.59925">
        <ele>18.5</ele>
        <time>2020-06-06T10:44:35Z</time>
      </trkpt>
      <trkpt lat="47.60579" lon="-2.59935">
        <ele>18.4</ele>
        <time>2020-06-06T10:44:36Z</time>
      </trkpt>
      <trkpt lat="47.60582" lon="-2.59945">
        <ele>18.3</ele>
        <time>2020-06-06T10:44:37Z</time>
      </trkpt>
      <trkpt lat="47.60586" lon="-2.59955">
        <ele>18.3</ele>
        <time>2020-06-06T10:44:38Z</time>
      </trkpt>
      <trkpt lat="47.60589" lon="-2.59965">
        <ele>18.2</ele>
        <time>2020-06-06T10:44:39Z</time>
      </trkpt>
      <trkpt lat="47.60593" lon="-2.59975">
        <ele>18.1</ele>
        <time>2020-06-06T10:44:40Z</time>
      </trkpt>
      <trkpt lat="47.60596" lon="-2.59985">
        <ele>18</ele>
        <time>2020-06-06T10:44:41Z</time>
      </trkpt>
      <trkpt lat="47.606" lon="-2.59995">
        <ele>17.9</ele>
        <time>2020-06-06T10:44:42Z</time>
      </trkpt>
      <trkpt lat="47.60603" lon="-2.60005">
        <ele>17.8</ele>
        <time>2020-06-06T10:44:43Z</time>
      </trkpt>
      <trkpt lat="47.60605" lon="-2.60016">
        <ele>17.7</ele>
        <time>2020-06-06T10:44:44Z</time>
      </trkpt>
      <trkpt lat="47.60608" lon="-2.60025">
        <ele>17.7</ele>
        <time>2020-06-06T10:44:45Z</time>
      </trkpt>
      <trkpt lat="47.60611" lon="-2.60035">
        <ele>17.6</ele>
        <time>2020-06-06T10:44:46Z</time>
      </trkpt>
      <trkpt lat="47.60615" lon="-2.60044">
        <ele>17.6</ele>
        <time>2020-06-06T10:44:47Z</time>
      </trkpt>
      <trkpt lat="47.60618" lon="-2.60054">
        <ele>17.5</ele>
        <time>2020-06-06T10:44:48Z</time>
      </trkpt>
      <trkpt lat="47.60621" lon="-2.60063">
        <ele>17.5</ele>
        <time>2020-06-06T10:44:49Z</time>
      </trkpt>
      <trkpt lat="47.60625" lon="-2.60073">
        <ele>17.4</ele>
        <time>2020-06-06T10:44:50Z</time>
      </trkpt>
      <trkpt lat="47.60628" lon="-2.60081">
        <ele>17.3</ele>
        <time>2020-06-06T10:44:51Z</time>
      </trkpt>
      <trkpt lat="47.60631" lon="-2.6009">
        <ele>17.3</ele>
        <time>2020-06-06T10:44:52Z</time>
      </trkpt>
      <trkpt lat="47.60633" lon="-2.60099">
        <ele>17.2</ele>
        <time>2020-06-06T10:44:53Z</time>
      </trkpt>
      <trkpt lat="47.60635" lon="-2.60108">
        <ele>17.1</ele>
        <time>2020-06-06T10:44:54Z</time>
      </trkpt>
      <trkpt lat="47.60636" lon="-2.60117">
        <ele>17.1</ele>
        <time>2020-06-06T10:44:55Z</time>
      </trkpt>
      <trkpt lat="47.60638" lon="-2.60125">
        <ele>17</ele>
        <time>2020-06-06T10:44:56Z</time>
      </trkpt>
      <trkpt lat="47.60641" lon="-2.60133">
        <ele>16.9</ele>
        <time>2020-06-06T10:44:57Z</time>
      </trkpt>
      <trkpt lat="47.60644" lon="-2.60141">
        <ele>16.9</ele>
        <time>2020-06-06T10:44:58Z</time>
      </trkpt>
      <trkpt lat="47.60647" lon="-2.60149">
        <ele>16.8</ele>
        <time>2020-06-06T10:44:59Z</time>
      </trkpt>
      <trkpt lat="47.6065" lon="-2.60157">
        <ele>16.8</ele>
        <time>2020-06-06T10:45:00Z</time>
      </trkpt>
      <trkpt lat="47.60652" lon="-2.60166">
        <ele>16.7</ele>
        <time>2020-06-06T10:45:01Z</time>
      </trkpt>
      <trkpt lat="47.60655" lon="-2.60174">
        <ele>16.6</ele>
        <time>2020-06-06T10:45:02Z</time>
      </trkpt>
      <trkpt lat="47.60657" lon="-2.60183">
        <ele>16.6</ele>
        <time>2020-06-06T10:45:03Z</time>
      </trkpt>
      <trkpt lat="47.6066" lon="-2.60192">
        <ele>16.6</ele>
        <time>2020-06-06T10:45:04Z</time>
      </trkpt>
      <trkpt lat="47.60664" lon="-2.602">
        <ele>16.5</ele>
        <time>2020-06-06T10:45:05Z</time>
      </trkpt>
      <trkpt lat="47.60667" lon="-2.60209">
        <ele>16.5</ele>
        <time>2020-06-06T10:45:06Z</time>
      </trkpt>
      <trkpt lat="47.60669" lon="-2.60218">
        <ele>16.4</ele>
        <time>2020-06-06T10:45:07Z</time>
      </trkpt>
      <trkpt lat="47.60672" lon="-2.60228">
        <ele>16.3</ele>
        <time>2020-06-06T10:45:08Z</time>
      </trkpt>
      <trkpt lat="47.60676" lon="-2.60237">
        <ele>16.2</ele>
        <time>2020-06-06T10:45:09Z</time>
      </trkpt>
      <trkpt lat="47.60679" lon="-2.60246">
        <ele>16.2</ele>
        <time>2020-06-06T10:45:10Z</time>
      </trkpt>
      <trkpt lat="47.60682" lon="-2.60255">
        <ele>16.1</ele>
        <time>2020-06-06T10:45:11Z</time>
      </trkpt>
      <trkpt lat="47.60685" lon="-2.60265">
        <ele>16.1</ele>
        <time>2020-06-06T10:45:12Z</time>
      </trkpt>
      <trkpt lat="47.60688" lon="-2.60274">
        <ele>16</ele>
        <time>2020-06-06T10:45:13Z</time>
      </trkpt>
      <trkpt lat="47.60691" lon="-2.60284">
        <ele>16</ele>
        <time>2020-06-06T10:45:14Z</time>
      </trkpt>
      <trkpt lat="47.60693" lon="-2.60294">
        <ele>15.9</ele>
        <time>2020-06-06T10:45:15Z</time>
      </trkpt>
      <trkpt lat="47.60696" lon="-2.60304">
        <ele>15.9</ele>
        <time>2020-06-06T10:45:16Z</time>
      </trkpt>
      <trkpt lat="47.60699" lon="-2.60314">
        <ele>15.9</ele>
        <time>2020-06-06T10:45:17Z</time>
      </trkpt>
      <trkpt lat="47.60702" lon="-2.60323">
        <ele>15.9</ele>
        <time>2020-06-06T10:45:18Z</time>
      </trkpt>
      <trkpt lat="47.60705" lon="-2.60333">
        <ele>15.9</ele>
        <time>2020-06-06T10:45:19Z</time>
      </trkpt>
      <trkpt lat="47.60707" lon="-2.60343">
        <ele>15.9</ele>
        <time>2020-06-06T10:45:20Z</time>
      </trkpt>
      <trkpt lat="47.6071" lon="-2.60352">
        <ele>16</ele>
        <time>2020-06-06T10:45:21Z</time>
      </trkpt>
      <trkpt lat="47.60713" lon="-2.60362">
        <ele>16.1</ele>
        <time>2020-06-06T10:45:22Z</time>
      </trkpt>
      <trkpt lat="47.60716" lon="-2.60372">
        <ele>16.3</ele>
        <time>2020-06-06T10:45:23Z</time>
      </trkpt>
      <trkpt lat="47.60719" lon="-2.60382">
        <ele>16.4</ele>
        <time>2020-06-06T10:45:24Z</time>
      </trkpt>
      <trkpt lat="47.60723" lon="-2.6039">
        <ele>16.5</ele>
        <time>2020-06-06T10:45:25Z</time>
      </trkpt>
      <trkpt lat="47.60725" lon="-2.60399">
        <ele>16.6</ele>
        <time>2020-06-06T10:45:26Z</time>
      </trkpt>
      <trkpt lat="47.60728" lon="-2.60408">
        <ele>16.7</ele>
        <time>2020-06-06T10:45:27Z</time>
      </trkpt>
      <trkpt lat="47.60731" lon="-2.60416">
        <ele>16.7</ele>
        <time>2020-06-06T10:45:28Z</time>
      </trkpt>
      <trkpt lat="47.60734" lon="-2.60424">
        <ele>16.8</ele>
        <time>2020-06-06T10:45:29Z</time>
      </trkpt>
      <trkpt lat="47.60738" lon="-2.60432">
        <ele>16.9</ele>
        <time>2020-06-06T10:45:30Z</time>
      </trkpt>
      <trkpt lat="47.60741" lon="-2.6044">
        <ele>16.9</ele>
        <time>2020-06-06T10:45:31Z</time>
      </trkpt>
      <trkpt lat="47.60743" lon="-2.60449">
        <ele>17</ele>
        <time>2020-06-06T10:45:32Z</time>
      </trkpt>
      <trkpt lat="47.60746" lon="-2.60458">
        <ele>17</ele>
        <time>2020-06-06T10:45:33Z</time>
      </trkpt>
      <trkpt lat="47.60748" lon="-2.60468">
        <ele>17</ele>
        <time>2020-06-06T10:45:34Z</time>
      </trkpt>
      <trkpt lat="47.6075" lon="-2.60477">
        <ele>17</ele>
        <time>2020-06-06T10:45:35Z</time>
      </trkpt>
      <trkpt lat="47.60753" lon="-2.60485">
        <ele>17</ele>
        <time>2020-06-06T10:45:36Z</time>
      </trkpt>
      <trkpt lat="47.60755" lon="-2.60494">
        <ele>17</ele>
        <time>2020-06-06T10:45:37Z</time>
      </trkpt>
      <trkpt lat="47.60758" lon="-2.60502">
        <ele>16.9</ele>
        <time>2020-06-06T10:45:38Z</time>
      </trkpt>
      <trkpt lat="47.60761" lon="-2.60511">
        <ele>16.9</ele>
        <time>2020-06-06T10:45:39Z</time>
      </trkpt>
      <trkpt lat="47.60764" lon="-2.60521">
        <ele>16.9</ele>
        <time>2020-06-06T10:45:40Z</time>
      </trkpt>
      <trkpt lat="47.60767" lon="-2.6053">
        <ele>16.8</ele>
        <time>2020-06-06T10:45:41Z</time>
      </trkpt>
      <trkpt lat="47.60769" lon="-2.60539">
        <ele>16.8</ele>
        <time>2020-06-06T10:45:42Z</time>
      </trkpt>
      <trkpt lat="47.60772" lon="-2.60548">
        <ele>16.8</ele>
        <time>2020-06-06T10:45:43Z</time>
      </trkpt>
      <trkpt lat="47.60775" lon="-2.60558">
        <ele>16.8</ele>
        <time>2020-06-06T10:45:44Z</time>
      </trkpt>
      <trkpt lat="47.60778" lon="-2.60567">
        <ele>16.7</ele>
        <time>2020-06-06T10:45:45Z</time>
      </trkpt>
      <trkpt lat="47.60781" lon="-2.60576">
        <ele>16.7</ele>
        <time>2020-06-06T10:45:46Z</time>
      </trkpt>
      <trkpt lat="47.60784" lon="-2.60585">
        <ele>16.7</ele>
        <time>2020-06-06T10:45:47Z</time>
      </trkpt>
      <trkpt lat="47.60787" lon="-2.60594">
        <ele>16.6</ele>
        <time>2020-06-06T10:45:48Z</time>
      </trkpt>
      <trkpt lat="47.6079" lon="-2.60604">
        <ele>16.6</ele>
        <time>2020-06-06T10:45:49Z</time>
      </trkpt>
      <trkpt lat="47.60793" lon="-2.60613">
        <ele>16.5</ele>
        <time>2020-06-06T10:45:50Z</time>
      </trkpt>
      <trkpt lat="47.60795" lon="-2.60623">
        <ele>16.4</ele>
        <time>2020-06-06T10:45:51Z</time>
      </trkpt>
      <trkpt lat="47.60798" lon="-2.60633">
        <ele>16.3</ele>
        <time>2020-06-06T10:45:52Z</time>
      </trkpt>
      <trkpt lat="47.60801" lon="-2.60642">
        <ele>16.2</ele>
        <time>2020-06-06T10:45:53Z</time>
      </trkpt>
      <trkpt lat="47.60804" lon="-2.60652">
        <ele>16.1</ele>
        <time>2020-06-06T10:45:54Z</time>
      </trkpt>
      <trkpt lat="47.60808" lon="-2.6066">
        <ele>16</ele>
        <time>2020-06-06T10:45:55Z</time>
      </trkpt>
      <trkpt lat="47.60812" lon="-2.60668">
        <ele>15.9</ele>
        <time>2020-06-06T10:45:56Z</time>
      </trkpt>
      <trkpt lat="47.60816" lon="-2.60676">
        <ele>15.9</ele>
        <time>2020-06-06T10:45:57Z</time>
      </trkpt>
      <trkpt lat="47.60821" lon="-2.60684">
        <ele>15.8</ele>
        <time>2020-06-06T10:45:58Z</time>
      </trkpt>
      <trkpt lat="47.60825" lon="-2.60692">
        <ele>15.8</ele>
        <time>2020-06-06T10:45:59Z</time>
      </trkpt>
      <trkpt lat="47.6083" lon="-2.60699">
        <ele>15.8</ele>
        <time>2020-06-06T10:46:00Z</time>
      </trkpt>
      <trkpt lat="47.60834" lon="-2.60706">
        <ele>15.8</ele>
        <time>2020-06-06T10:46:01Z</time>
      </trkpt>
      <trkpt lat="47.60839" lon="-2.60713">
        <ele>15.7</ele>
        <time>2020-06-06T10:46:02Z</time>
      </trkpt>
      <trkpt lat="47.60843" lon="-2.60721">
        <ele>15.7</ele>
        <time>2020-06-06T10:46:03Z</time>
      </trkpt>
      <trkpt lat="47.60848" lon="-2.60729">
        <ele>15.7</ele>
        <time>2020-06-06T10:46:04Z</time>
      </trkpt>
      <trkpt lat="47.60852" lon="-2.60737">
        <ele>15.7</ele>
        <time>2020-06-06T10:46:05Z</time>
      </trkpt>
      <trkpt lat="47.60856" lon="-2.60745">
        <ele>15.7</ele>
        <time>2020-06-06T10:46:06Z</time>
      </trkpt>
      <trkpt lat="47.60861" lon="-2.60753">
        <ele>15.7</ele>
        <time>2020-06-06T10:46:07Z</time>
      </trkpt>
      <trkpt lat="47.60866" lon="-2.6076">
        <ele>15.8</ele>
        <time>2020-06-06T10:46:08Z</time>
      </trkpt>
      <trkpt lat="47.6087" lon="-2.60767">
        <ele>15.8</ele>
        <time>2020-06-06T10:46:09Z</time>
      </trkpt>
      <trkpt lat="47.60875" lon="-2.60774">
        <ele>15.9</ele>
        <time>2020-06-06T10:46:10Z</time>
      </trkpt>
      <trkpt lat="47.6088" lon="-2.60782">
        <ele>16</ele>
        <time>2020-06-06T10:46:11Z</time>
      </trkpt>
      <trkpt lat="47.60885" lon="-2.60789">
        <ele>16.1</ele>
        <time>2020-06-06T10:46:12Z</time>
      </trkpt>
      <trkpt lat="47.60889" lon="-2.60796">
        <ele>16.2</ele>
        <time>2020-06-06T10:46:13Z</time>
      </trkpt>
      <trkpt lat="47.60893" lon="-2.60804">
        <ele>16.3</ele>
        <time>2020-06-06T10:46:14Z</time>
      </trkpt>
      <trkpt lat="47.60898" lon="-2.60811">
        <ele>16.4</ele>
        <time>2020-06-06T10:46:15Z</time>
      </trkpt>
      <trkpt lat="47.60903" lon="-2.60818">
        <ele>16.5</ele>
        <time>2020-06-06T10:46:16Z</time>
      </trkpt>
      <trkpt lat="47.60907" lon="-2.60825">
        <ele>16.6</ele>
        <time>2020-06-06T10:46:17Z</time>
      </trkpt>
      <trkpt lat="47.60911" lon="-2.60832">
        <ele>16.8</ele>
        <time>2020-06-06T10:46:18Z</time>
      </trkpt>
      <trkpt lat="47.60915" lon="-2.60839">
        <ele>16.9</ele>
        <time>2020-06-06T10:46:19Z</time>
      </trkpt>
      <trkpt lat="47.6092" lon="-2.60847">
        <ele>17</ele>
        <time>2020-06-06T10:46:20Z</time>
      </trkpt>
      <trkpt lat="47.60924" lon="-2.60854">
        <ele>17.1</ele>
        <time>2020-06-06T10:46:21Z</time>
      </trkpt>
      <trkpt lat="47.60928" lon="-2.60862">
        <ele>17.3</ele>
        <time>2020-06-06T10:46:22Z</time>
      </trkpt>
      <trkpt lat="47.60932" lon="-2.60869">
        <ele>17.5</ele>
        <time>2020-06-06T10:46:23Z</time>
      </trkpt>
      <trkpt lat="47.60936" lon="-2.60876">
        <ele>17.7</ele>
        <time>2020-06-06T10:46:24Z</time>
      </trkpt>
      <trkpt lat="47.60941" lon="-2.60883">
        <ele>17.9</ele>
        <time>2020-06-06T10:46:25Z</time>
      </trkpt>
      <trkpt lat="47.60945" lon="-2.60891">
        <ele>18</ele>
        <time>2020-06-06T10:46:26Z</time>
      </trkpt>
      <trkpt lat="47.60949" lon="-2.60898">
        <ele>18.2</ele>
        <time>2020-06-06T10:46:27Z</time>
      </trkpt>
      <trkpt lat="47.60953" lon="-2.60905">
        <ele>18.3</ele>
        <time>2020-06-06T10:46:28Z</time>
      </trkpt>
      <trkpt lat="47.60958" lon="-2.60913">
        <ele>18.5</ele>
        <time>2020-06-06T10:46:29Z</time>
      </trkpt>
      <trkpt lat="47.60962" lon="-2.6092">
        <ele>18.6</ele>
        <time>2020-06-06T10:46:30Z</time>
      </trkpt>
      <trkpt lat="47.60966" lon="-2.60928">
        <ele>18.8</ele>
        <time>2020-06-06T10:46:31Z</time>
      </trkpt>
      <trkpt lat="47.6097" lon="-2.60935">
        <ele>19</ele>
        <time>2020-06-06T10:46:32Z</time>
      </trkpt>
      <trkpt lat="47.60974" lon="-2.60941">
        <ele>19.1</ele>
        <time>2020-06-06T10:46:33Z</time>
      </trkpt>
      <trkpt lat="47.60978" lon="-2.60947">
        <ele>19.2</ele>
        <time>2020-06-06T10:46:34Z</time>
      </trkpt>
      <trkpt lat="47.60981" lon="-2.60953">
        <ele>19.3</ele>
        <time>2020-06-06T10:46:35Z</time>
      </trkpt>
      <trkpt lat="47.60984" lon="-2.60959">
        <ele>19.4</ele>
        <time>2020-06-06T10:46:36Z</time>
      </trkpt>
      <trkpt lat="47.60988" lon="-2.60966">
        <ele>19.5</ele>
        <time>2020-06-06T10:46:37Z</time>
      </trkpt>
      <trkpt lat="47.60991" lon="-2.60971">
        <ele>19.6</ele>
        <time>2020-06-06T10:46:38Z</time>
      </trkpt>
      <trkpt lat="47.60994" lon="-2.60976">
        <ele>19.6</ele>
        <time>2020-06-06T10:46:39Z</time>
      </trkpt>
      <trkpt lat="47.60997" lon="-2.60982">
        <ele>19.7</ele>
        <time>2020-06-06T10:46:40Z</time>
      </trkpt>
      <trkpt lat="47.61001" lon="-2.60987">
        <ele>19.7</ele>
        <time>2020-06-06T10:46:41Z</time>
      </trkpt>
      <trkpt lat="47.61005" lon="-2.60994">
        <ele>19.7</ele>
        <time>2020-06-06T10:46:42Z</time>
      </trkpt>
      <trkpt lat="47.61009" lon="-2.60999">
        <ele>19.7</ele>
        <time>2020-06-06T10:46:43Z</time>
      </trkpt>
      <trkpt lat="47.61011" lon="-2.61003">
        <ele>19.7</ele>
        <time>2020-06-06T10:46:44Z</time>
      </trkpt>
      <trkpt lat="47.61013" lon="-2.61007">
        <ele>19.7</ele>
        <time>2020-06-06T10:46:45Z</time>
      </trkpt>
      <trkpt lat="47.61016" lon="-2.6101">
        <ele>19.7</ele>
        <time>2020-06-06T10:46:46Z</time>
      </trkpt>
      <trkpt lat="47.61019" lon="-2.61014">
        <ele>19.7</ele>
        <time>2020-06-06T10:46:47Z</time>
      </trkpt>
      <trkpt lat="47.61022" lon="-2.61018">
        <ele>19.7</ele>
        <time>2020-06-06T10:46:48Z</time>
      </trkpt>
      <trkpt lat="47.61025" lon="-2.61022">
        <ele>19.7</ele>
        <time>2020-06-06T10:46:49Z</time>
      </trkpt>
      <trkpt lat="47.61029" lon="-2.61027">
        <ele>19.7</ele>
        <time>2020-06-06T10:46:50Z</time>
      </trkpt>
      <trkpt lat="47.61033" lon="-2.61031">
        <ele>19.6</ele>
        <time>2020-06-06T10:46:51Z</time>
      </trkpt>
      <trkpt lat="47.61038" lon="-2.61036">
        <ele>19.6</ele>
        <time>2020-06-06T10:46:52Z</time>
      </trkpt>
      <trkpt lat="47.61042" lon="-2.61039">
        <ele>19.5</ele>
        <time>2020-06-06T10:46:53Z</time>
      </trkpt>
      <trkpt lat="47.61047" lon="-2.61043">
        <ele>19.5</ele>
        <time>2020-06-06T10:46:54Z</time>
      </trkpt>
      <trkpt lat="47.61052" lon="-2.61048">
        <ele>19.4</ele>
        <time>2020-06-06T10:46:55Z</time>
      </trkpt>
      <trkpt lat="47.61057" lon="-2.61051">
        <ele>19.4</ele>
        <time>2020-06-06T10:46:56Z</time>
      </trkpt>
      <trkpt lat="47.61062" lon="-2.61055">
        <ele>19.3</ele>
        <time>2020-06-06T10:46:57Z</time>
      </trkpt>
      <trkpt lat="47.61068" lon="-2.61059">
        <ele>19.3</ele>
        <time>2020-06-06T10:46:58Z</time>
      </trkpt>
      <trkpt lat="47.61073" lon="-2.61063">
        <ele>19.2</ele>
        <time>2020-06-06T10:46:59Z</time>
      </trkpt>
      <trkpt lat="47.61078" lon="-2.61068">
        <ele>19.2</ele>
        <time>2020-06-06T10:47:00Z</time>
      </trkpt>
      <trkpt lat="47.61084" lon="-2.61072">
        <ele>19.2</ele>
        <time>2020-06-06T10:47:01Z</time>
      </trkpt>
      <trkpt lat="47.6109" lon="-2.61074">
        <ele>19.1</ele>
        <time>2020-06-06T10:47:02Z</time>
      </trkpt>
      <trkpt lat="47.61095" lon="-2.61077">
        <ele>19.1</ele>
        <time>2020-06-06T10:47:03Z</time>
      </trkpt>
      <trkpt lat="47.61102" lon="-2.6108">
        <ele>19</ele>
        <time>2020-06-06T10:47:04Z</time>
      </trkpt>
      <trkpt lat="47.61107" lon="-2.61083">
        <ele>18.9</ele>
        <time>2020-06-06T10:47:05Z</time>
      </trkpt>
      <trkpt lat="47.61113" lon="-2.61086">
        <ele>18.8</ele>
        <time>2020-06-06T10:47:06Z</time>
      </trkpt>
      <trkpt lat="47.61118" lon="-2.61089">
        <ele>18.8</ele>
        <time>2020-06-06T10:47:07Z</time>
      </trkpt>
      <trkpt lat="47.61124" lon="-2.61092">
        <ele>18.7</ele>
        <time>2020-06-06T10:47:08Z</time>
      </trkpt>
      <trkpt lat="47.6113" lon="-2.61096">
        <ele>18.6</ele>
        <time>2020-06-06T10:47:09Z</time>
      </trkpt>
      <trkpt lat="47.61137" lon="-2.611">
        <ele>18.6</ele>
        <time>2020-06-06T10:47:10Z</time>
      </trkpt>
      <trkpt lat="47.61142" lon="-2.61102">
        <ele>18.5</ele>
        <time>2020-06-06T10:47:11Z</time>
      </trkpt>
      <trkpt lat="47.61147" lon="-2.61105">
        <ele>18.5</ele>
        <time>2020-06-06T10:47:12Z</time>
      </trkpt>
      <trkpt lat="47.61152" lon="-2.61107">
        <ele>18.5</ele>
        <time>2020-06-06T10:47:13Z</time>
      </trkpt>
      <trkpt lat="47.61158" lon="-2.6111">
        <ele>18.5</ele>
        <time>2020-06-06T10:47:14Z</time>
      </trkpt>
      <trkpt lat="47.61164" lon="-2.61115">
        <ele>18.4</ele>
        <time>2020-06-06T10:47:15Z</time>
      </trkpt>
      <trkpt lat="47.61169" lon="-2.6112">
        <ele>18.4</ele>
        <time>2020-06-06T10:47:16Z</time>
      </trkpt>
      <trkpt lat="47.61174" lon="-2.61124">
        <ele>18.4</ele>
        <time>2020-06-06T10:47:17Z</time>
      </trkpt>
      <trkpt lat="47.61179" lon="-2.6113">
        <ele>18.3</ele>
        <time>2020-06-06T10:47:18Z</time>
      </trkpt>
      <trkpt lat="47.61185" lon="-2.61136">
        <ele>18.3</ele>
        <time>2020-06-06T10:47:19Z</time>
      </trkpt>
      <trkpt lat="47.61189" lon="-2.61141">
        <ele>18.3</ele>
        <time>2020-06-06T10:47:20Z</time>
      </trkpt>
      <trkpt lat="47.61194" lon="-2.61146">
        <ele>18.3</ele>
        <time>2020-06-06T10:47:21Z</time>
      </trkpt>
      <trkpt lat="47.61198" lon="-2.61154">
        <ele>18.4</ele>
        <time>2020-06-06T10:47:22Z</time>
      </trkpt>
      <trkpt lat="47.61201" lon="-2.61162">
        <ele>18.4</ele>
        <time>2020-06-06T10:47:23Z</time>
      </trkpt>
      <trkpt lat="47.61204" lon="-2.6117">
        <ele>18.5</ele>
        <time>2020-06-06T10:47:24Z</time>
      </trkpt>
      <trkpt lat="47.61207" lon="-2.61176">
        <ele>18.5</ele>
        <time>2020-06-06T10:47:25Z</time>
      </trkpt>
      <trkpt lat="47.61209" lon="-2.61184">
        <ele>18.6</ele>
        <time>2020-06-06T10:47:26Z</time>
      </trkpt>
      <trkpt lat="47.61212" lon="-2.6119">
        <ele>18.7</ele>
        <time>2020-06-06T10:47:27Z</time>
      </trkpt>
      <trkpt lat="47.61215" lon="-2.61195">
        <ele>18.8</ele>
        <time>2020-06-06T10:47:28Z</time>
      </trkpt>
      <trkpt lat="47.6122" lon="-2.612">
        <ele>18.8</ele>
        <time>2020-06-06T10:47:29Z</time>
      </trkpt>
      <trkpt lat="47.61225" lon="-2.61206">
        <ele>18.9</ele>
        <time>2020-06-06T10:47:30Z</time>
      </trkpt>
      <trkpt lat="47.61229" lon="-2.61213">
        <ele>18.8</ele>
        <time>2020-06-06T10:47:31Z</time>
      </trkpt>
      <trkpt lat="47.61231" lon="-2.61222">
        <ele>18.6</ele>
        <time>2020-06-06T10:47:32Z</time>
      </trkpt>
      <trkpt lat="47.61234" lon="-2.6123">
        <ele>18.4</ele>
        <time>2020-06-06T10:47:33Z</time>
      </trkpt>
      <trkpt lat="47.61235" lon="-2.61237">
        <ele>18.3</ele>
        <time>2020-06-06T10:47:34Z</time>
      </trkpt>
      <trkpt lat="47.61236" lon="-2.61246">
        <ele>18.3</ele>
        <time>2020-06-06T10:47:35Z</time>
      </trkpt>
      <trkpt lat="47.61236" lon="-2.61255">
        <ele>18.3</ele>
        <time>2020-06-06T10:47:36Z</time>
      </trkpt>
      <trkpt lat="47.61237" lon="-2.61265">
        <ele>18.1</ele>
        <time>2020-06-06T10:47:37Z</time>
      </trkpt>
      <trkpt lat="47.61239" lon="-2.61273">
        <ele>17.9</ele>
        <time>2020-06-06T10:47:38Z</time>
      </trkpt>
      <trkpt lat="47.61243" lon="-2.6128">
        <ele>17.7</ele>
        <time>2020-06-06T10:47:39Z</time>
      </trkpt>
      <trkpt lat="47.61246" lon="-2.61288">
        <ele>17.5</ele>
        <time>2020-06-06T10:47:40Z</time>
      </trkpt>
      <trkpt lat="47.61249" lon="-2.61297">
        <ele>17.3</ele>
        <time>2020-06-06T10:47:41Z</time>
      </trkpt>
      <trkpt lat="47.61253" lon="-2.61306">
        <ele>17.1</ele>
        <time>2020-06-06T10:47:42Z</time>
      </trkpt>
      <trkpt lat="47.61255" lon="-2.61315">
        <ele>16.9</ele>
        <time>2020-06-06T10:47:43Z</time>
      </trkpt>
      <trkpt lat="47.61258" lon="-2.61324">
        <ele>16.7</ele>
        <time>2020-06-06T10:47:44Z</time>
      </trkpt>
      <trkpt lat="47.61261" lon="-2.61333">
        <ele>16.4</ele>
        <time>2020-06-06T10:47:45Z</time>
      </trkpt>
      <trkpt lat="47.61263" lon="-2.61343">
        <ele>16.1</ele>
        <time>2020-06-06T10:47:46Z</time>
      </trkpt>
      <trkpt lat="47.61265" lon="-2.61355">
        <ele>15.8</ele>
        <time>2020-06-06T10:47:47Z</time>
      </trkpt>
      <trkpt lat="47.61267" lon="-2.61366">
        <ele>15.6</ele>
        <time>2020-06-06T10:47:48Z</time>
      </trkpt>
      <trkpt lat="47.61268" lon="-2.61379">
        <ele>15.3</ele>
        <time>2020-06-06T10:47:49Z</time>
      </trkpt>
      <trkpt lat="47.6127" lon="-2.61391">
        <ele>15.1</ele>
        <time>2020-06-06T10:47:50Z</time>
      </trkpt>
      <trkpt lat="47.61271" lon="-2.61403">
        <ele>14.8</ele>
        <time>2020-06-06T10:47:51Z</time>
      </trkpt>
      <trkpt lat="47.61274" lon="-2.61416">
        <ele>14.4</ele>
        <time>2020-06-06T10:47:52Z</time>
      </trkpt>
      <trkpt lat="47.61276" lon="-2.61429">
        <ele>14.1</ele>
        <time>2020-06-06T10:47:53Z</time>
      </trkpt>
      <trkpt lat="47.61279" lon="-2.6144">
        <ele>13.9</ele>
        <time>2020-06-06T10:47:54Z</time>
      </trkpt>
      <trkpt lat="47.61281" lon="-2.61451">
        <ele>13.8</ele>
        <time>2020-06-06T10:47:55Z</time>
      </trkpt>
      <trkpt lat="47.61284" lon="-2.61463">
        <ele>13.7</ele>
        <time>2020-06-06T10:47:56Z</time>
      </trkpt>
      <trkpt lat="47.61287" lon="-2.61473">
        <ele>13.6</ele>
        <time>2020-06-06T10:47:57Z</time>
      </trkpt>
      <trkpt lat="47.61291" lon="-2.61484">
        <ele>13.6</ele>
        <time>2020-06-06T10:47:58Z</time>
      </trkpt>
      <trkpt lat="47.61295" lon="-2.61494">
        <ele>13.6</ele>
        <time>2020-06-06T10:47:59Z</time>
      </trkpt>
      <trkpt lat="47.61298" lon="-2.61504">
        <ele>13.6</ele>
        <time>2020-06-06T10:48:00Z</time>
      </trkpt>
      <trkpt lat="47.61302" lon="-2.61514">
        <ele>13.6</ele>
        <time>2020-06-06T10:48:01Z</time>
      </trkpt>
      <trkpt lat="47.61307" lon="-2.61523">
        <ele>13.7</ele>
        <time>2020-06-06T10:48:02Z</time>
      </trkpt>
      <trkpt lat="47.6131" lon="-2.61532">
        <ele>13.8</ele>
        <time>2020-06-06T10:48:03Z</time>
      </trkpt>
      <trkpt lat="47.61315" lon="-2.61541">
        <ele>13.9</ele>
        <time>2020-06-06T10:48:04Z</time>
      </trkpt>
      <trkpt lat="47.6132" lon="-2.61549">
        <ele>14</ele>
        <time>2020-06-06T10:48:05Z</time>
      </trkpt>
      <trkpt lat="47.61325" lon="-2.61557">
        <ele>14.1</ele>
        <time>2020-06-06T10:48:06Z</time>
      </trkpt>
      <trkpt lat="47.61331" lon="-2.61564">
        <ele>14.2</ele>
        <time>2020-06-06T10:48:07Z</time>
      </trkpt>
      <trkpt lat="47.61334" lon="-2.61573">
        <ele>14.4</ele>
        <time>2020-06-06T10:48:08Z</time>
      </trkpt>
      <trkpt lat="47.61338" lon="-2.61583">
        <ele>14.5</ele>
        <time>2020-06-06T10:48:09Z</time>
      </trkpt>
      <trkpt lat="47.61342" lon="-2.61591">
        <ele>14.7</ele>
        <time>2020-06-06T10:48:10Z</time>
      </trkpt>
      <trkpt lat="47.61347" lon="-2.61598">
        <ele>14.8</ele>
        <time>2020-06-06T10:48:11Z</time>
      </trkpt>
      <trkpt lat="47.61352" lon="-2.61606">
        <ele>14.9</ele>
        <time>2020-06-06T10:48:12Z</time>
      </trkpt>
      <trkpt lat="47.61356" lon="-2.61613">
        <ele>15</ele>
        <time>2020-06-06T10:48:13Z</time>
      </trkpt>
      <trkpt lat="47.6136" lon="-2.61619">
        <ele>15.1</ele>
        <time>2020-06-06T10:48:14Z</time>
      </trkpt>
      <trkpt lat="47.61364" lon="-2.61626">
        <ele>15.2</ele>
        <time>2020-06-06T10:48:15Z</time>
      </trkpt>
      <trkpt lat="47.61369" lon="-2.61633">
        <ele>15.3</ele>
        <time>2020-06-06T10:48:16Z</time>
      </trkpt>
      <trkpt lat="47.61373" lon="-2.61641">
        <ele>15.3</ele>
        <time>2020-06-06T10:48:17Z</time>
      </trkpt>
      <trkpt lat="47.61378" lon="-2.61648">
        <ele>15.3</ele>
        <time>2020-06-06T10:48:18Z</time>
      </trkpt>
      <trkpt lat="47.61382" lon="-2.61655">
        <ele>15.3</ele>
        <time>2020-06-06T10:48:19Z</time>
      </trkpt>
      <trkpt lat="47.61386" lon="-2.61661">
        <ele>15.3</ele>
        <time>2020-06-06T10:48:20Z</time>
      </trkpt>
      <trkpt lat="47.61389" lon="-2.61668">
        <ele>15.3</ele>
        <time>2020-06-06T10:48:21Z</time>
      </trkpt>
      <trkpt lat="47.61393" lon="-2.61675">
        <ele>15.3</ele>
        <time>2020-06-06T10:48:22Z</time>
      </trkpt>
      <trkpt lat="47.61397" lon="-2.61682">
        <ele>15.3</ele>
        <time>2020-06-06T10:48:23Z</time>
      </trkpt>
      <trkpt lat="47.61401" lon="-2.6169">
        <ele>15.3</ele>
        <time>2020-06-06T10:48:24Z</time>
      </trkpt>
      <trkpt lat="47.61406" lon="-2.61697">
        <ele>15.3</ele>
        <time>2020-06-06T10:48:25Z</time>
      </trkpt>
      <trkpt lat="47.61411" lon="-2.61704">
        <ele>15.3</ele>
        <time>2020-06-06T10:48:26Z</time>
      </trkpt>
      <trkpt lat="47.61415" lon="-2.61711">
        <ele>15.3</ele>
        <time>2020-06-06T10:48:27Z</time>
      </trkpt>
      <trkpt lat="47.61419" lon="-2.61718">
        <ele>15.4</ele>
        <time>2020-06-06T10:48:28Z</time>
      </trkpt>
      <trkpt lat="47.61423" lon="-2.61724">
        <ele>15.5</ele>
        <time>2020-06-06T10:48:29Z</time>
      </trkpt>
      <trkpt lat="47.61426" lon="-2.61731">
        <ele>15.6</ele>
        <time>2020-06-06T10:48:30Z</time>
      </trkpt>
      <trkpt lat="47.6143" lon="-2.61737">
        <ele>15.6</ele>
        <time>2020-06-06T10:48:31Z</time>
      </trkpt>
      <trkpt lat="47.61436" lon="-2.61745">
        <ele>15.8</ele>
        <time>2020-06-06T10:48:32Z</time>
      </trkpt>
      <trkpt lat="47.6144" lon="-2.61753">
        <ele>15.9</ele>
        <time>2020-06-06T10:48:33Z</time>
      </trkpt>
      <trkpt lat="47.61445" lon="-2.61761">
        <ele>16</ele>
        <time>2020-06-06T10:48:34Z</time>
      </trkpt>
      <trkpt lat="47.6145" lon="-2.61769">
        <ele>16.2</ele>
        <time>2020-06-06T10:48:35Z</time>
      </trkpt>
      <trkpt lat="47.61455" lon="-2.61777">
        <ele>16.4</ele>
        <time>2020-06-06T10:48:36Z</time>
      </trkpt>
      <trkpt lat="47.6146" lon="-2.61785">
        <ele>16.6</ele>
        <time>2020-06-06T10:48:37Z</time>
      </trkpt>
      <trkpt lat="47.61464" lon="-2.61794">
        <ele>16.9</ele>
        <time>2020-06-06T10:48:38Z</time>
      </trkpt>
      <trkpt lat="47.61468" lon="-2.61801">
        <ele>17.1</ele>
        <time>2020-06-06T10:48:39Z</time>
      </trkpt>
      <trkpt lat="47.61471" lon="-2.61808">
        <ele>17.3</ele>
        <time>2020-06-06T10:48:40Z</time>
      </trkpt>
      <trkpt lat="47.61475" lon="-2.61814">
        <ele>17.5</ele>
        <time>2020-06-06T10:48:41Z</time>
      </trkpt>
      <trkpt lat="47.61478" lon="-2.61821">
        <ele>17.7</ele>
        <time>2020-06-06T10:48:42Z</time>
      </trkpt>
      <trkpt lat="47.61483" lon="-2.61828">
        <ele>17.9</ele>
        <time>2020-06-06T10:48:43Z</time>
      </trkpt>
      <trkpt lat="47.61487" lon="-2.61835">
        <ele>18.2</ele>
        <time>2020-06-06T10:48:44Z</time>
      </trkpt>
      <trkpt lat="47.6149" lon="-2.61842">
        <ele>18.4</ele>
        <time>2020-06-06T10:48:45Z</time>
      </trkpt>
      <trkpt lat="47.61494" lon="-2.61848">
        <ele>18.6</ele>
        <time>2020-06-06T10:48:46Z</time>
      </trkpt>
      <trkpt lat="47.61498" lon="-2.61855">
        <ele>18.8</ele>
        <time>2020-06-06T10:48:47Z</time>
      </trkpt>
      <trkpt lat="47.61503" lon="-2.61863">
        <ele>19</ele>
        <time>2020-06-06T10:48:48Z</time>
      </trkpt>
      <trkpt lat="47.61507" lon="-2.61869">
        <ele>19.1</ele>
        <time>2020-06-06T10:48:49Z</time>
      </trkpt>
      <trkpt lat="47.61511" lon="-2.61875">
        <ele>19.2</ele>
        <time>2020-06-06T10:48:50Z</time>
      </trkpt>
      <trkpt lat="47.61513" lon="-2.61879">
        <ele>19.3</ele>
        <time>2020-06-06T10:48:51Z</time>
      </trkpt>
      <trkpt lat="47.61517" lon="-2.61885">
        <ele>19.4</ele>
        <time>2020-06-06T10:48:52Z</time>
      </trkpt>
      <trkpt lat="47.61521" lon="-2.6189">
        <ele>19.5</ele>
        <time>2020-06-06T10:48:53Z</time>
      </trkpt>
      <trkpt lat="47.61524" lon="-2.61896">
        <ele>19.5</ele>
        <time>2020-06-06T10:48:54Z</time>
      </trkpt>
      <trkpt lat="47.61527" lon="-2.61901">
        <ele>19.6</ele>
        <time>2020-06-06T10:48:55Z</time>
      </trkpt>
      <trkpt lat="47.61531" lon="-2.61907">
        <ele>19.7</ele>
        <time>2020-06-06T10:48:56Z</time>
      </trkpt>
      <trkpt lat="47.61535" lon="-2.61913">
        <ele>19.7</ele>
        <time>2020-06-06T10:48:57Z</time>
      </trkpt>
      <trkpt lat="47.61538" lon="-2.61919">
        <ele>19.8</ele>
        <time>2020-06-06T10:48:58Z</time>
      </trkpt>
      <trkpt lat="47.61543" lon="-2.61927">
        <ele>19.8</ele>
        <time>2020-06-06T10:48:59Z</time>
      </trkpt>
      <trkpt lat="47.61547" lon="-2.61933">
        <ele>19.9</ele>
        <time>2020-06-06T10:49:00Z</time>
      </trkpt>
      <trkpt lat="47.6155" lon="-2.61939">
        <ele>20</ele>
        <time>2020-06-06T10:49:01Z</time>
      </trkpt>
      <trkpt lat="47.61553" lon="-2.61945">
        <ele>20</ele>
        <time>2020-06-06T10:49:02Z</time>
      </trkpt>
      <trkpt lat="47.61557" lon="-2.61951">
        <ele>20.1</ele>
        <time>2020-06-06T10:49:03Z</time>
      </trkpt>
      <trkpt lat="47.6156" lon="-2.61956">
        <ele>20.2</ele>
        <time>2020-06-06T10:49:04Z</time>
      </trkpt>
      <trkpt lat="47.61564" lon="-2.61962">
        <ele>20.4</ele>
        <time>2020-06-06T10:49:05Z</time>
      </trkpt>
      <trkpt lat="47.61567" lon="-2.61968">
        <ele>20.5</ele>
        <time>2020-06-06T10:49:06Z</time>
      </trkpt>
      <trkpt lat="47.6157" lon="-2.61975">
        <ele>20.7</ele>
        <time>2020-06-06T10:49:07Z</time>
      </trkpt>
      <trkpt lat="47.61573" lon="-2.61982">
        <ele>20.8</ele>
        <time>2020-06-06T10:49:08Z</time>
      </trkpt>
      <trkpt lat="47.61575" lon="-2.61988">
        <ele>20.9</ele>
        <time>2020-06-06T10:49:09Z</time>
      </trkpt>
      <trkpt lat="47.61577" lon="-2.61995">
        <ele>21.1</ele>
        <time>2020-06-06T10:49:10Z</time>
      </trkpt>
      <trkpt lat="47.6158" lon="-2.62001">
        <ele>21.2</ele>
        <time>2020-06-06T10:49:11Z</time>
      </trkpt>
      <trkpt lat="47.61583" lon="-2.62007">
        <ele>21.4</ele>
        <time>2020-06-06T10:49:12Z</time>
      </trkpt>
      <trkpt lat="47.61586" lon="-2.62012">
        <ele>21.5</ele>
        <time>2020-06-06T10:49:13Z</time>
      </trkpt>
      <trkpt lat="47.61589" lon="-2.62019">
        <ele>21.7</ele>
        <time>2020-06-06T10:49:14Z</time>
      </trkpt>
      <trkpt lat="47.61591" lon="-2.62024">
        <ele>21.9</ele>
        <time>2020-06-06T10:49:15Z</time>
      </trkpt>
      <trkpt lat="47.61595" lon="-2.6203">
        <ele>22</ele>
        <time>2020-06-06T10:49:16Z</time>
      </trkpt>
      <trkpt lat="47.61598" lon="-2.62035">
        <ele>22.2</ele>
        <time>2020-06-06T10:49:17Z</time>
      </trkpt>
      <trkpt lat="47.616" lon="-2.62041">
        <ele>22.4</ele>
        <time>2020-06-06T10:49:18Z</time>
      </trkpt>
      <trkpt lat="47.61603" lon="-2.62046">
        <ele>22.6</ele>
        <time>2020-06-06T10:49:19Z</time>
      </trkpt>
      <trkpt lat="47.61606" lon="-2.62052">
        <ele>22.8</ele>
        <time>2020-06-06T10:49:20Z</time>
      </trkpt>
      <trkpt lat="47.61608" lon="-2.62058">
        <ele>23.1</ele>
        <time>2020-06-06T10:49:21Z</time>
      </trkpt>
      <trkpt lat="47.61611" lon="-2.62064">
        <ele>23.3</ele>
        <time>2020-06-06T10:49:22Z</time>
      </trkpt>
      <trkpt lat="47.61613" lon="-2.62069">
        <ele>23.5</ele>
        <time>2020-06-06T10:49:23Z</time>
      </trkpt>
      <trkpt lat="47.61616" lon="-2.62074">
        <ele>23.6</ele>
        <time>2020-06-06T10:49:24Z</time>
      </trkpt>
      <trkpt lat="47.6162" lon="-2.62077">
        <ele>23.8</ele>
        <time>2020-06-06T10:49:25Z</time>
      </trkpt>
      <trkpt lat="47.61623" lon="-2.62081">
        <ele>24</ele>
        <time>2020-06-06T10:49:26Z</time>
      </trkpt>
      <trkpt lat="47.61625" lon="-2.62085">
        <ele>24.1</ele>
        <time>2020-06-06T10:49:27Z</time>
      </trkpt>
      <trkpt lat="47.61628" lon="-2.6209">
        <ele>24.2</ele>
        <time>2020-06-06T10:49:28Z</time>
      </trkpt>
      <trkpt lat="47.61631" lon="-2.62095">
        <ele>24.4</ele>
        <time>2020-06-06T10:49:29Z</time>
      </trkpt>
      <trkpt lat="47.61634" lon="-2.621">
        <ele>24.5</ele>
        <time>2020-06-06T10:49:30Z</time>
      </trkpt>
      <trkpt lat="47.61637" lon="-2.62104">
        <ele>24.6</ele>
        <time>2020-06-06T10:49:31Z</time>
      </trkpt>
      <trkpt lat="47.61641" lon="-2.62109">
        <ele>24.7</ele>
        <time>2020-06-06T10:49:32Z</time>
      </trkpt>
      <trkpt lat="47.61644" lon="-2.62114">
        <ele>24.7</ele>
        <time>2020-06-06T10:49:33Z</time>
      </trkpt>
      <trkpt lat="47.61646" lon="-2.62119">
        <ele>24.8</ele>
        <time>2020-06-06T10:49:34Z</time>
      </trkpt>
      <trkpt lat="47.61649" lon="-2.62124">
        <ele>24.8</ele>
        <time>2020-06-06T10:49:35Z</time>
      </trkpt>
      <trkpt lat="47.61651" lon="-2.62128">
        <ele>24.8</ele>
        <time>2020-06-06T10:49:36Z</time>
      </trkpt>
      <trkpt lat="47.61655" lon="-2.62134">
        <ele>24.9</ele>
        <time>2020-06-06T10:49:37Z</time>
      </trkpt>
      <trkpt lat="47.61658" lon="-2.62139">
        <ele>24.9</ele>
        <time>2020-06-06T10:49:38Z</time>
      </trkpt>
      <trkpt lat="47.61661" lon="-2.62146">
        <ele>24.9</ele>
        <time>2020-06-06T10:49:39Z</time>
      </trkpt>
      <trkpt lat="47.61664" lon="-2.62151">
        <ele>24.9</ele>
        <time>2020-06-06T10:49:40Z</time>
      </trkpt>
      <trkpt lat="47.61668" lon="-2.62157">
        <ele>24.9</ele>
        <time>2020-06-06T10:49:41Z</time>
      </trkpt>
      <trkpt lat="47.61672" lon="-2.62163">
        <ele>25</ele>
        <time>2020-06-06T10:49:42Z</time>
      </trkpt>
      <trkpt lat="47.61676" lon="-2.62168">
        <ele>25</ele>
        <time>2020-06-06T10:49:43Z</time>
      </trkpt>
      <trkpt lat="47.61679" lon="-2.62173">
        <ele>25</ele>
        <time>2020-06-06T10:49:44Z</time>
      </trkpt>
      <trkpt lat="47.61682" lon="-2.62179">
        <ele>25</ele>
        <time>2020-06-06T10:49:45Z</time>
      </trkpt>
      <trkpt lat="47.61685" lon="-2.62183">
        <ele>25.1</ele>
        <time>2020-06-06T10:49:46Z</time>
      </trkpt>
      <trkpt lat="47.61689" lon="-2.62189">
        <ele>25.1</ele>
        <time>2020-06-06T10:49:47Z</time>
      </trkpt>
      <trkpt lat="47.61693" lon="-2.62195">
        <ele>25.2</ele>
        <time>2020-06-06T10:49:48Z</time>
      </trkpt>
      <trkpt lat="47.61698" lon="-2.62201">
        <ele>25.3</ele>
        <time>2020-06-06T10:49:49Z</time>
      </trkpt>
      <trkpt lat="47.61701" lon="-2.62206">
        <ele>25.4</ele>
        <time>2020-06-06T10:49:50Z</time>
      </trkpt>
      <trkpt lat="47.61704" lon="-2.62212">
        <ele>25.5</ele>
        <time>2020-06-06T10:49:51Z</time>
      </trkpt>
      <trkpt lat="47.61707" lon="-2.62217">
        <ele>25.5</ele>
        <time>2020-06-06T10:49:52Z</time>
      </trkpt>
      <trkpt lat="47.61711" lon="-2.62222">
        <ele>25.6</ele>
        <time>2020-06-06T10:49:53Z</time>
      </trkpt>
      <trkpt lat="47.61714" lon="-2.62228">
        <ele>25.6</ele>
        <time>2020-06-06T10:49:54Z</time>
      </trkpt>
      <trkpt lat="47.61717" lon="-2.62233">
        <ele>25.7</ele>
        <time>2020-06-06T10:49:55Z</time>
      </trkpt>
      <trkpt lat="47.61721" lon="-2.62238">
        <ele>25.8</ele>
        <time>2020-06-06T10:49:56Z</time>
      </trkpt>
      <trkpt lat="47.61724" lon="-2.62243">
        <ele>25.8</ele>
        <time>2020-06-06T10:49:57Z</time>
      </trkpt>
      <trkpt lat="47.61727" lon="-2.62249">
        <ele>25.9</ele>
        <time>2020-06-06T10:49:58Z</time>
      </trkpt>
      <trkpt lat="47.61731" lon="-2.62254">
        <ele>25.9</ele>
        <time>2020-06-06T10:49:59Z</time>
      </trkpt>
      <trkpt lat="47.61734" lon="-2.6226">
        <ele>25.9</ele>
        <time>2020-06-06T10:50:00Z</time>
      </trkpt>
      <trkpt lat="47.61737" lon="-2.62267">
        <ele>26</ele>
        <time>2020-06-06T10:50:01Z</time>
      </trkpt>
      <trkpt lat="47.6174" lon="-2.62271">
        <ele>26</ele>
        <time>2020-06-06T10:50:02Z</time>
      </trkpt>
      <trkpt lat="47.61744" lon="-2.62277">
        <ele>26</ele>
        <time>2020-06-06T10:50:03Z</time>
      </trkpt>
      <trkpt lat="47.61749" lon="-2.62281">
        <ele>26</ele>
        <time>2020-06-06T10:50:04Z</time>
      </trkpt>
      <trkpt lat="47.61753" lon="-2.62287">
        <ele>25.9</ele>
        <time>2020-06-06T10:50:05Z</time>
      </trkpt>
      <trkpt lat="47.61757" lon="-2.62292">
        <ele>25.9</ele>
        <time>2020-06-06T10:50:06Z</time>
      </trkpt>
      <trkpt lat="47.61761" lon="-2.62298">
        <ele>25.9</ele>
        <time>2020-06-06T10:50:07Z</time>
      </trkpt>
      <trkpt lat="47.61765" lon="-2.62304">
        <ele>25.9</ele>
        <time>2020-06-06T10:50:08Z</time>
      </trkpt>
      <trkpt lat="47.6177" lon="-2.62309">
        <ele>25.9</ele>
        <time>2020-06-06T10:50:09Z</time>
      </trkpt>
      <trkpt lat="47.61774" lon="-2.62317">
        <ele>25.8</ele>
        <time>2020-06-06T10:50:10Z</time>
      </trkpt>
      <trkpt lat="47.61777" lon="-2.62323">
        <ele>25.7</ele>
        <time>2020-06-06T10:50:11Z</time>
      </trkpt>
      <trkpt lat="47.61782" lon="-2.62329">
        <ele>25.7</ele>
        <time>2020-06-06T10:50:12Z</time>
      </trkpt>
      <trkpt lat="47.61786" lon="-2.62336">
        <ele>25.6</ele>
        <time>2020-06-06T10:50:13Z</time>
      </trkpt>
      <trkpt lat="47.6179" lon="-2.62343">
        <ele>25.5</ele>
        <time>2020-06-06T10:50:14Z</time>
      </trkpt>
      <trkpt lat="47.61795" lon="-2.62349">
        <ele>25.3</ele>
        <time>2020-06-06T10:50:15Z</time>
      </trkpt>
      <trkpt lat="47.618" lon="-2.62355">
        <ele>25.2</ele>
        <time>2020-06-06T10:50:16Z</time>
      </trkpt>
      <trkpt lat="47.61804" lon="-2.62361">
        <ele>25.1</ele>
        <time>2020-06-06T10:50:17Z</time>
      </trkpt>
      <trkpt lat="47.6181" lon="-2.62367">
        <ele>24.9</ele>
        <time>2020-06-06T10:50:18Z</time>
      </trkpt>
      <trkpt lat="47.61815" lon="-2.62373">
        <ele>24.8</ele>
        <time>2020-06-06T10:50:19Z</time>
      </trkpt>
      <trkpt lat="47.6182" lon="-2.62381">
        <ele>24.6</ele>
        <time>2020-06-06T10:50:20Z</time>
      </trkpt>
      <trkpt lat="47.61824" lon="-2.62388">
        <ele>24.5</ele>
        <time>2020-06-06T10:50:21Z</time>
      </trkpt>
      <trkpt lat="47.61829" lon="-2.62397">
        <ele>24.4</ele>
        <time>2020-06-06T10:50:22Z</time>
      </trkpt>
      <trkpt lat="47.61833" lon="-2.62405">
        <ele>24.3</ele>
        <time>2020-06-06T10:50:23Z</time>
      </trkpt>
      <trkpt lat="47.61838" lon="-2.62413">
        <ele>24.2</ele>
        <time>2020-06-06T10:50:24Z</time>
      </trkpt>
      <trkpt lat="47.61843" lon="-2.62422">
        <ele>24</ele>
        <time>2020-06-06T10:50:25Z</time>
      </trkpt>
      <trkpt lat="47.61849" lon="-2.6243">
        <ele>23.8</ele>
        <time>2020-06-06T10:50:26Z</time>
      </trkpt>
      <trkpt lat="47.61854" lon="-2.62439">
        <ele>23.6</ele>
        <time>2020-06-06T10:50:27Z</time>
      </trkpt>
      <trkpt lat="47.61859" lon="-2.62447">
        <ele>23.5</ele>
        <time>2020-06-06T10:50:28Z</time>
      </trkpt>
      <trkpt lat="47.61864" lon="-2.62455">
        <ele>23.4</ele>
        <time>2020-06-06T10:50:29Z</time>
      </trkpt>
      <trkpt lat="47.61869" lon="-2.62462">
        <ele>23.4</ele>
        <time>2020-06-06T10:50:30Z</time>
      </trkpt>
      <trkpt lat="47.61873" lon="-2.62469">
        <ele>23.4</ele>
        <time>2020-06-06T10:50:31Z</time>
      </trkpt>
      <trkpt lat="47.61878" lon="-2.62476">
        <ele>23.4</ele>
        <time>2020-06-06T10:50:32Z</time>
      </trkpt>
      <trkpt lat="47.61883" lon="-2.62483">
        <ele>23.4</ele>
        <time>2020-06-06T10:50:33Z</time>
      </trkpt>
      <trkpt lat="47.61887" lon="-2.62491">
        <ele>23.5</ele>
        <time>2020-06-06T10:50:34Z</time>
      </trkpt>
      <trkpt lat="47.61892" lon="-2.62498">
        <ele>23.5</ele>
        <time>2020-06-06T10:50:35Z</time>
      </trkpt>
      <trkpt lat="47.61897" lon="-2.62505">
        <ele>23.6</ele>
        <time>2020-06-06T10:50:36Z</time>
      </trkpt>
      <trkpt lat="47.61901" lon="-2.62512">
        <ele>23.6</ele>
        <time>2020-06-06T10:50:37Z</time>
      </trkpt>
      <trkpt lat="47.61906" lon="-2.62519">
        <ele>23.7</ele>
        <time>2020-06-06T10:50:38Z</time>
      </trkpt>
      <trkpt lat="47.6191" lon="-2.62526">
        <ele>23.9</ele>
        <time>2020-06-06T10:50:39Z</time>
      </trkpt>
      <trkpt lat="47.61914" lon="-2.62533">
        <ele>24</ele>
        <time>2020-06-06T10:50:40Z</time>
      </trkpt>
      <trkpt lat="47.61918" lon="-2.62539">
        <ele>24.1</ele>
        <time>2020-06-06T10:50:41Z</time>
      </trkpt>
      <trkpt lat="47.61922" lon="-2.62546">
        <ele>24.3</ele>
        <time>2020-06-06T10:50:42Z</time>
      </trkpt>
      <trkpt lat="47.61927" lon="-2.62552">
        <ele>24.4</ele>
        <time>2020-06-06T10:50:43Z</time>
      </trkpt>
      <trkpt lat="47.61932" lon="-2.62559">
        <ele>24.6</ele>
        <time>2020-06-06T10:50:44Z</time>
      </trkpt>
      <trkpt lat="47.61936" lon="-2.62565">
        <ele>24.7</ele>
        <time>2020-06-06T10:50:45Z</time>
      </trkpt>
      <trkpt lat="47.61939" lon="-2.62572">
        <ele>24.8</ele>
        <time>2020-06-06T10:50:46Z</time>
      </trkpt>
      <trkpt lat="47.61943" lon="-2.62579">
        <ele>24.9</ele>
        <time>2020-06-06T10:50:47Z</time>
      </trkpt>
      <trkpt lat="47.61947" lon="-2.62586">
        <ele>25.1</ele>
        <time>2020-06-06T10:50:48Z</time>
      </trkpt>
      <trkpt lat="47.61951" lon="-2.62593">
        <ele>25.2</ele>
        <time>2020-06-06T10:50:49Z</time>
      </trkpt>
      <trkpt lat="47.61956" lon="-2.62599">
        <ele>25.3</ele>
        <time>2020-06-06T10:50:50Z</time>
      </trkpt>
      <trkpt lat="47.61961" lon="-2.62604">
        <ele>25.4</ele>
        <time>2020-06-06T10:50:51Z</time>
      </trkpt>
      <trkpt lat="47.61966" lon="-2.6261">
        <ele>25.6</ele>
        <time>2020-06-06T10:50:52Z</time>
      </trkpt>
      <trkpt lat="47.6197" lon="-2.62616">
        <ele>25.6</ele>
        <time>2020-06-06T10:50:53Z</time>
      </trkpt>
      <trkpt lat="47.61974" lon="-2.62623">
        <ele>25.7</ele>
        <time>2020-06-06T10:50:54Z</time>
      </trkpt>
      <trkpt lat="47.61978" lon="-2.62628">
        <ele>25.8</ele>
        <time>2020-06-06T10:50:55Z</time>
      </trkpt>
      <trkpt lat="47.61981" lon="-2.62634">
        <ele>25.9</ele>
        <time>2020-06-06T10:50:56Z</time>
      </trkpt>
      <trkpt lat="47.61985" lon="-2.6264">
        <ele>26</ele>
        <time>2020-06-06T10:50:57Z</time>
      </trkpt>
      <trkpt lat="47.6199" lon="-2.62644">
        <ele>26</ele>
        <time>2020-06-06T10:50:58Z</time>
      </trkpt>
      <trkpt lat="47.61993" lon="-2.62649">
        <ele>26.1</ele>
        <time>2020-06-06T10:50:59Z</time>
      </trkpt>
      <trkpt lat="47.61996" lon="-2.62653">
        <ele>26.1</ele>
        <time>2020-06-06T10:51:00Z</time>
      </trkpt>
      <trkpt lat="47.61999" lon="-2.62657">
        <ele>26.1</ele>
        <time>2020-06-06T10:51:01Z</time>
      </trkpt>
      <trkpt lat="47.62003" lon="-2.6266">
        <ele>26.2</ele>
        <time>2020-06-06T10:51:02Z</time>
      </trkpt>
      <trkpt lat="47.62006" lon="-2.62664">
        <ele>26.2</ele>
        <time>2020-06-06T10:51:03Z</time>
      </trkpt>
      <trkpt lat="47.62008" lon="-2.62668">
        <ele>26.2</ele>
        <time>2020-06-06T10:51:04Z</time>
      </trkpt>
      <trkpt lat="47.62011" lon="-2.62672">
        <ele>26.2</ele>
        <time>2020-06-06T10:51:05Z</time>
      </trkpt>
      <trkpt lat="47.62013" lon="-2.62675">
        <ele>26.2</ele>
        <time>2020-06-06T10:51:06Z</time>
      </trkpt>
      <trkpt lat="47.62015" lon="-2.62679">
        <ele>26.3</ele>
        <time>2020-06-06T10:51:07Z</time>
      </trkpt>
      <trkpt lat="47.62018" lon="-2.62682">
        <ele>26.3</ele>
        <time>2020-06-06T10:51:08Z</time>
      </trkpt>
      <trkpt lat="47.6202" lon="-2.62686">
        <ele>26.3</ele>
        <time>2020-06-06T10:51:09Z</time>
      </trkpt>
      <trkpt lat="47.62023" lon="-2.6269">
        <ele>26.3</ele>
        <time>2020-06-06T10:51:10Z</time>
      </trkpt>
      <trkpt lat="47.62025" lon="-2.62693">
        <ele>26.3</ele>
        <time>2020-06-06T10:51:11Z</time>
      </trkpt>
      <trkpt lat="47.62027" lon="-2.62698">
        <ele>26.2</ele>
        <time>2020-06-06T10:51:12Z</time>
      </trkpt>
      <trkpt lat="47.62029" lon="-2.62702">
        <ele>26.2</ele>
        <time>2020-06-06T10:51:13Z</time>
      </trkpt>
      <trkpt lat="47.62032" lon="-2.62706">
        <ele>26.2</ele>
        <time>2020-06-06T10:51:14Z</time>
      </trkpt>
      <trkpt lat="47.62034" lon="-2.6271">
        <ele>26.2</ele>
        <time>2020-06-06T10:51:15Z</time>
      </trkpt>
      <trkpt lat="47.62037" lon="-2.62714">
        <ele>26.2</ele>
        <time>2020-06-06T10:51:16Z</time>
      </trkpt>
      <trkpt lat="47.62039" lon="-2.62718">
        <ele>26.2</ele>
        <time>2020-06-06T10:51:17Z</time>
      </trkpt>
      <trkpt lat="47.62041" lon="-2.62722">
        <ele>26.2</ele>
        <time>2020-06-06T10:51:18Z</time>
      </trkpt>
      <trkpt lat="47.62043" lon="-2.62726">
        <ele>26.1</ele>
        <time>2020-06-06T10:51:19Z</time>
      </trkpt>
      <trkpt lat="47.62045" lon="-2.6273">
        <ele>26.1</ele>
        <time>2020-06-06T10:51:20Z</time>
      </trkpt>
      <trkpt lat="47.62047" lon="-2.62733">
        <ele>26.1</ele>
        <time>2020-06-06T10:51:21Z</time>
      </trkpt>
      <trkpt lat="47.62049" lon="-2.62737">
        <ele>26</ele>
        <time>2020-06-06T10:51:22Z</time>
      </trkpt>
      <trkpt lat="47.62051" lon="-2.6274">
        <ele>26</ele>
        <time>2020-06-06T10:51:23Z</time>
      </trkpt>
      <trkpt lat="47.62054" lon="-2.62744">
        <ele>25.9</ele>
        <time>2020-06-06T10:51:24Z</time>
      </trkpt>
      <trkpt lat="47.62058" lon="-2.62746">
        <ele>25.9</ele>
        <time>2020-06-06T10:51:25Z</time>
      </trkpt>
      <trkpt lat="47.62061" lon="-2.6275">
        <ele>25.8</ele>
        <time>2020-06-06T10:51:26Z</time>
      </trkpt>
      <trkpt lat="47.62064" lon="-2.62753">
        <ele>25.7</ele>
        <time>2020-06-06T10:51:27Z</time>
      </trkpt>
      <trkpt lat="47.62067" lon="-2.62757">
        <ele>25.7</ele>
        <time>2020-06-06T10:51:28Z</time>
      </trkpt>
      <trkpt lat="47.6207" lon="-2.6276">
        <ele>25.6</ele>
        <time>2020-06-06T10:51:29Z</time>
      </trkpt>
      <trkpt lat="47.62073" lon="-2.62764">
        <ele>25.6</ele>
        <time>2020-06-06T10:51:30Z</time>
      </trkpt>
      <trkpt lat="47.62075" lon="-2.62768">
        <ele>25.6</ele>
        <time>2020-06-06T10:51:31Z</time>
      </trkpt>
      <trkpt lat="47.62078" lon="-2.6277">
        <ele>25.5</ele>
        <time>2020-06-06T10:51:32Z</time>
      </trkpt>
      <trkpt lat="47.62081" lon="-2.62774">
        <ele>25.5</ele>
        <time>2020-06-06T10:51:33Z</time>
      </trkpt>
      <trkpt lat="47.62084" lon="-2.62778">
        <ele>25.4</ele>
        <time>2020-06-06T10:51:34Z</time>
      </trkpt>
      <trkpt lat="47.62085" lon="-2.62783">
        <ele>25.4</ele>
        <time>2020-06-06T10:51:35Z</time>
      </trkpt>
      <trkpt lat="47.62088" lon="-2.62787">
        <ele>25.4</ele>
        <time>2020-06-06T10:51:36Z</time>
      </trkpt>
      <trkpt lat="47.62091" lon="-2.62792">
        <ele>25.3</ele>
        <time>2020-06-06T10:51:37Z</time>
      </trkpt>
      <trkpt lat="47.62094" lon="-2.62797">
        <ele>25.3</ele>
        <time>2020-06-06T10:51:38Z</time>
      </trkpt>
      <trkpt lat="47.62097" lon="-2.62802">
        <ele>25.2</ele>
        <time>2020-06-06T10:51:39Z</time>
      </trkpt>
      <trkpt lat="47.62099" lon="-2.62808">
        <ele>25.2</ele>
        <time>2020-06-06T10:51:40Z</time>
      </trkpt>
      <trkpt lat="47.62102" lon="-2.62814">
        <ele>25.1</ele>
        <time>2020-06-06T10:51:41Z</time>
      </trkpt>
      <trkpt lat="47.62107" lon="-2.62818">
        <ele>25</ele>
        <time>2020-06-06T10:51:42Z</time>
      </trkpt>
      <trkpt lat="47.62111" lon="-2.62822">
        <ele>25</ele>
        <time>2020-06-06T10:51:43Z</time>
      </trkpt>
      <trkpt lat="47.62115" lon="-2.62826">
        <ele>24.9</ele>
        <time>2020-06-06T10:51:44Z</time>
      </trkpt>
      <trkpt lat="47.62117" lon="-2.62832">
        <ele>24.9</ele>
        <time>2020-06-06T10:51:45Z</time>
      </trkpt>
      <trkpt lat="47.62121" lon="-2.62837">
        <ele>24.8</ele>
        <time>2020-06-06T10:51:46Z</time>
      </trkpt>
      <trkpt lat="47.62125" lon="-2.62841">
        <ele>24.8</ele>
        <time>2020-06-06T10:51:47Z</time>
      </trkpt>
      <trkpt lat="47.62128" lon="-2.62845">
        <ele>24.7</ele>
        <time>2020-06-06T10:51:48Z</time>
      </trkpt>
      <trkpt lat="47.62132" lon="-2.6285">
        <ele>24.7</ele>
        <time>2020-06-06T10:51:49Z</time>
      </trkpt>
      <trkpt lat="47.62135" lon="-2.62855">
        <ele>24.6</ele>
        <time>2020-06-06T10:51:50Z</time>
      </trkpt>
      <trkpt lat="47.62137" lon="-2.62862">
        <ele>24.5</ele>
        <time>2020-06-06T10:51:51Z</time>
      </trkpt>
      <trkpt lat="47.62141" lon="-2.62867">
        <ele>24.4</ele>
        <time>2020-06-06T10:51:52Z</time>
      </trkpt>
      <trkpt lat="47.62145" lon="-2.62873">
        <ele>24.4</ele>
        <time>2020-06-06T10:51:53Z</time>
      </trkpt>
      <trkpt lat="47.62149" lon="-2.62877">
        <ele>24.3</ele>
        <time>2020-06-06T10:51:54Z</time>
      </trkpt>
      <trkpt lat="47.62152" lon="-2.62883">
        <ele>24.2</ele>
        <time>2020-06-06T10:51:55Z</time>
      </trkpt>
      <trkpt lat="47.62157" lon="-2.62889">
        <ele>24.1</ele>
        <time>2020-06-06T10:51:56Z</time>
      </trkpt>
      <trkpt lat="47.62161" lon="-2.62894">
        <ele>24</ele>
        <time>2020-06-06T10:51:57Z</time>
      </trkpt>
      <trkpt lat="47.62165" lon="-2.629">
        <ele>24</ele>
        <time>2020-06-06T10:51:58Z</time>
      </trkpt>
      <trkpt lat="47.62169" lon="-2.62905">
        <ele>23.9</ele>
        <time>2020-06-06T10:51:59Z</time>
      </trkpt>
      <trkpt lat="47.62173" lon="-2.62911">
        <ele>23.8</ele>
        <time>2020-06-06T10:52:00Z</time>
      </trkpt>
      <trkpt lat="47.62177" lon="-2.62916">
        <ele>23.7</ele>
        <time>2020-06-06T10:52:01Z</time>
      </trkpt>
      <trkpt lat="47.62182" lon="-2.62921">
        <ele>23.7</ele>
        <time>2020-06-06T10:52:02Z</time>
      </trkpt>
      <trkpt lat="47.62186" lon="-2.62927">
        <ele>23.6</ele>
        <time>2020-06-06T10:52:03Z</time>
      </trkpt>
      <trkpt lat="47.6219" lon="-2.62934">
        <ele>23.5</ele>
        <time>2020-06-06T10:52:04Z</time>
      </trkpt>
      <trkpt lat="47.62195" lon="-2.6294">
        <ele>23.4</ele>
        <time>2020-06-06T10:52:05Z</time>
      </trkpt>
      <trkpt lat="47.62199" lon="-2.62945">
        <ele>23.3</ele>
        <time>2020-06-06T10:52:06Z</time>
      </trkpt>
      <trkpt lat="47.62204" lon="-2.6295">
        <ele>23.3</ele>
        <time>2020-06-06T10:52:07Z</time>
      </trkpt>
      <trkpt lat="47.62208" lon="-2.62956">
        <ele>23.2</ele>
        <time>2020-06-06T10:52:08Z</time>
      </trkpt>
      <trkpt lat="47.62212" lon="-2.62961">
        <ele>23.1</ele>
        <time>2020-06-06T10:52:09Z</time>
      </trkpt>
      <trkpt lat="47.62216" lon="-2.62967">
        <ele>23</ele>
        <time>2020-06-06T10:52:10Z</time>
      </trkpt>
      <trkpt lat="47.62221" lon="-2.62971">
        <ele>22.9</ele>
        <time>2020-06-06T10:52:11Z</time>
      </trkpt>
      <trkpt lat="47.62226" lon="-2.62976">
        <ele>22.8</ele>
        <time>2020-06-06T10:52:12Z</time>
      </trkpt>
      <trkpt lat="47.62231" lon="-2.62982">
        <ele>22.7</ele>
        <time>2020-06-06T10:52:13Z</time>
      </trkpt>
      <trkpt lat="47.62235" lon="-2.62988">
        <ele>22.6</ele>
        <time>2020-06-06T10:52:14Z</time>
      </trkpt>
      <trkpt lat="47.6224" lon="-2.62995">
        <ele>22.5</ele>
        <time>2020-06-06T10:52:15Z</time>
      </trkpt>
      <trkpt lat="47.62245" lon="-2.63">
        <ele>22.4</ele>
        <time>2020-06-06T10:52:16Z</time>
      </trkpt>
      <trkpt lat="47.6225" lon="-2.63006">
        <ele>22.2</ele>
        <time>2020-06-06T10:52:17Z</time>
      </trkpt>
      <trkpt lat="47.62256" lon="-2.63012">
        <ele>22.1</ele>
        <time>2020-06-06T10:52:18Z</time>
      </trkpt>
      <trkpt lat="47.62261" lon="-2.63017">
        <ele>22</ele>
        <time>2020-06-06T10:52:19Z</time>
      </trkpt>
      <trkpt lat="47.62266" lon="-2.63023">
        <ele>21.8</ele>
        <time>2020-06-06T10:52:20Z</time>
      </trkpt>
      <trkpt lat="47.62272" lon="-2.63029">
        <ele>21.6</ele>
        <time>2020-06-06T10:52:21Z</time>
      </trkpt>
      <trkpt lat="47.62277" lon="-2.63034">
        <ele>21.5</ele>
        <time>2020-06-06T10:52:22Z</time>
      </trkpt>
      <trkpt lat="47.62283" lon="-2.63039">
        <ele>21.3</ele>
        <time>2020-06-06T10:52:23Z</time>
      </trkpt>
      <trkpt lat="47.62289" lon="-2.63044">
        <ele>21.1</ele>
        <time>2020-06-06T10:52:24Z</time>
      </trkpt>
      <trkpt lat="47.62295" lon="-2.6305">
        <ele>20.8</ele>
        <time>2020-06-06T10:52:25Z</time>
      </trkpt>
      <trkpt lat="47.62301" lon="-2.63055">
        <ele>20.5</ele>
        <time>2020-06-06T10:52:26Z</time>
      </trkpt>
      <trkpt lat="47.62307" lon="-2.6306">
        <ele>20.3</ele>
        <time>2020-06-06T10:52:27Z</time>
      </trkpt>
      <trkpt lat="47.62313" lon="-2.63065">
        <ele>20.3</ele>
        <time>2020-06-06T10:52:28Z</time>
      </trkpt>
      <trkpt lat="47.6232" lon="-2.6307">
        <ele>20</ele>
        <time>2020-06-06T10:52:29Z</time>
      </trkpt>
      <trkpt lat="47.62326" lon="-2.63074">
        <ele>19.7</ele>
        <time>2020-06-06T10:52:30Z</time>
      </trkpt>
      <trkpt lat="47.62333" lon="-2.63079">
        <ele>19.4</ele>
        <time>2020-06-06T10:52:31Z</time>
      </trkpt>
      <trkpt lat="47.62339" lon="-2.63084">
        <ele>19.1</ele>
        <time>2020-06-06T10:52:32Z</time>
      </trkpt>
      <trkpt lat="47.62345" lon="-2.63089">
        <ele>18.8</ele>
        <time>2020-06-06T10:52:33Z</time>
      </trkpt>
      <trkpt lat="47.62351" lon="-2.63094">
        <ele>18.6</ele>
        <time>2020-06-06T10:52:34Z</time>
      </trkpt>
      <trkpt lat="47.62358" lon="-2.63099">
        <ele>18.3</ele>
        <time>2020-06-06T10:52:35Z</time>
      </trkpt>
      <trkpt lat="47.62365" lon="-2.63103">
        <ele>18</ele>
        <time>2020-06-06T10:52:36Z</time>
      </trkpt>
      <trkpt lat="47.62372" lon="-2.63108">
        <ele>17.7</ele>
        <time>2020-06-06T10:52:37Z</time>
      </trkpt>
      <trkpt lat="47.62378" lon="-2.63113">
        <ele>17.3</ele>
        <time>2020-06-06T10:52:38Z</time>
      </trkpt>
      <trkpt lat="47.62385" lon="-2.63118">
        <ele>16.9</ele>
        <time>2020-06-06T10:52:39Z</time>
      </trkpt>
      <trkpt lat="47.62392" lon="-2.63124">
        <ele>16.6</ele>
        <time>2020-06-06T10:52:40Z</time>
      </trkpt>
      <trkpt lat="47.62399" lon="-2.63129">
        <ele>16.2</ele>
        <time>2020-06-06T10:52:41Z</time>
      </trkpt>
      <trkpt lat="47.62406" lon="-2.63133">
        <ele>15.9</ele>
        <time>2020-06-06T10:52:42Z</time>
      </trkpt>
      <trkpt lat="47.62414" lon="-2.63138">
        <ele>15.6</ele>
        <time>2020-06-06T10:52:43Z</time>
      </trkpt>
      <trkpt lat="47.62421" lon="-2.63143">
        <ele>15.3</ele>
        <time>2020-06-06T10:52:44Z</time>
      </trkpt>
      <trkpt lat="47.62429" lon="-2.63148">
        <ele>14.9</ele>
        <time>2020-06-06T10:52:45Z</time>
      </trkpt>
      <trkpt lat="47.62437" lon="-2.63154">
        <ele>14.5</ele>
        <time>2020-06-06T10:52:46Z</time>
      </trkpt>
      <trkpt lat="47.62444" lon="-2.63159">
        <ele>14.1</ele>
        <time>2020-06-06T10:52:47Z</time>
      </trkpt>
      <trkpt lat="47.62452" lon="-2.63165">
        <ele>13.7</ele>
        <time>2020-06-06T10:52:48Z</time>
      </trkpt>
      <trkpt lat="47.6246" lon="-2.6317">
        <ele>13.4</ele>
        <time>2020-06-06T10:52:49Z</time>
      </trkpt>
      <trkpt lat="47.62468" lon="-2.63177">
        <ele>13.2</ele>
        <time>2020-06-06T10:52:50Z</time>
      </trkpt>
      <trkpt lat="47.62476" lon="-2.63183">
        <ele>12.9</ele>
        <time>2020-06-06T10:52:51Z</time>
      </trkpt>
      <trkpt lat="47.62484" lon="-2.63188">
        <ele>12.7</ele>
        <time>2020-06-06T10:52:52Z</time>
      </trkpt>
      <trkpt lat="47.62492" lon="-2.63195">
        <ele>12.6</ele>
        <time>2020-06-06T10:52:53Z</time>
      </trkpt>
      <trkpt lat="47.62499" lon="-2.63202">
        <ele>12.5</ele>
        <time>2020-06-06T10:52:54Z</time>
      </trkpt>
      <trkpt lat="47.62505" lon="-2.63211">
        <ele>12.5</ele>
        <time>2020-06-06T10:52:55Z</time>
      </trkpt>
      <trkpt lat="47.62512" lon="-2.63217">
        <ele>12.5</ele>
        <time>2020-06-06T10:52:56Z</time>
      </trkpt>
      <trkpt lat="47.62519" lon="-2.63224">
        <ele>12.6</ele>
        <time>2020-06-06T10:52:57Z</time>
      </trkpt>
      <trkpt lat="47.62526" lon="-2.6323">
        <ele>12.6</ele>
        <time>2020-06-06T10:52:58Z</time>
      </trkpt>
      <trkpt lat="47.62532" lon="-2.63236">
        <ele>12.7</ele>
        <time>2020-06-06T10:52:59Z</time>
      </trkpt>
      <trkpt lat="47.62538" lon="-2.63243">
        <ele>12.8</ele>
        <time>2020-06-06T10:53:00Z</time>
      </trkpt>
      <trkpt lat="47.62544" lon="-2.63249">
        <ele>12.9</ele>
        <time>2020-06-06T10:53:01Z</time>
      </trkpt>
      <trkpt lat="47.6255" lon="-2.63255">
        <ele>13.1</ele>
        <time>2020-06-06T10:53:02Z</time>
      </trkpt>
      <trkpt lat="47.62556" lon="-2.63261">
        <ele>13.2</ele>
        <time>2020-06-06T10:53:03Z</time>
      </trkpt>
      <trkpt lat="47.62561" lon="-2.63267">
        <ele>13.4</ele>
        <time>2020-06-06T10:53:04Z</time>
      </trkpt>
      <trkpt lat="47.62567" lon="-2.63272">
        <ele>13.5</ele>
        <time>2020-06-06T10:53:05Z</time>
      </trkpt>
      <trkpt lat="47.62573" lon="-2.63277">
        <ele>13.7</ele>
        <time>2020-06-06T10:53:06Z</time>
      </trkpt>
      <trkpt lat="47.62578" lon="-2.63282">
        <ele>13.8</ele>
        <time>2020-06-06T10:53:07Z</time>
      </trkpt>
      <trkpt lat="47.62584" lon="-2.63287">
        <ele>14</ele>
        <time>2020-06-06T10:53:08Z</time>
      </trkpt>
      <trkpt lat="47.6259" lon="-2.63293">
        <ele>14.1</ele>
        <time>2020-06-06T10:53:09Z</time>
      </trkpt>
      <trkpt lat="47.62595" lon="-2.63299">
        <ele>14.2</ele>
        <time>2020-06-06T10:53:10Z</time>
      </trkpt>
      <trkpt lat="47.62601" lon="-2.63304">
        <ele>14.3</ele>
        <time>2020-06-06T10:53:11Z</time>
      </trkpt>
      <trkpt lat="47.62607" lon="-2.63309">
        <ele>14.3</ele>
        <time>2020-06-06T10:53:12Z</time>
      </trkpt>
      <trkpt lat="47.62612" lon="-2.63315">
        <ele>14.4</ele>
        <time>2020-06-06T10:53:13Z</time>
      </trkpt>
      <trkpt lat="47.62617" lon="-2.6332">
        <ele>14.5</ele>
        <time>2020-06-06T10:53:14Z</time>
      </trkpt>
      <trkpt lat="47.62623" lon="-2.63326">
        <ele>14.5</ele>
        <time>2020-06-06T10:53:15Z</time>
      </trkpt>
      <trkpt lat="47.62628" lon="-2.63331">
        <ele>14.6</ele>
        <time>2020-06-06T10:53:16Z</time>
      </trkpt>
      <trkpt lat="47.62633" lon="-2.63336">
        <ele>14.6</ele>
        <time>2020-06-06T10:53:17Z</time>
      </trkpt>
      <trkpt lat="47.62638" lon="-2.63341">
        <ele>14.6</ele>
        <time>2020-06-06T10:53:18Z</time>
      </trkpt>
      <trkpt lat="47.62643" lon="-2.63346">
        <ele>14.6</ele>
        <time>2020-06-06T10:53:19Z</time>
      </trkpt>
      <trkpt lat="47.62648" lon="-2.63352">
        <ele>14.5</ele>
        <time>2020-06-06T10:53:20Z</time>
      </trkpt>
      <trkpt lat="47.62653" lon="-2.63357">
        <ele>14.5</ele>
        <time>2020-06-06T10:53:21Z</time>
      </trkpt>
      <trkpt lat="47.62658" lon="-2.63361">
        <ele>14.4</ele>
        <time>2020-06-06T10:53:22Z</time>
      </trkpt>
      <trkpt lat="47.62663" lon="-2.63366">
        <ele>14.3</ele>
        <time>2020-06-06T10:53:23Z</time>
      </trkpt>
      <trkpt lat="47.62668" lon="-2.63371">
        <ele>14.2</ele>
        <time>2020-06-06T10:53:24Z</time>
      </trkpt>
      <trkpt lat="47.62673" lon="-2.63376">
        <ele>14.2</ele>
        <time>2020-06-06T10:53:25Z</time>
      </trkpt>
      <trkpt lat="47.62677" lon="-2.63383">
        <ele>14.1</ele>
        <time>2020-06-06T10:53:26Z</time>
      </trkpt>
      <trkpt lat="47.62681" lon="-2.63389">
        <ele>14.1</ele>
        <time>2020-06-06T10:53:27Z</time>
      </trkpt>
      <trkpt lat="47.62685" lon="-2.63393">
        <ele>14</ele>
        <time>2020-06-06T10:53:28Z</time>
      </trkpt>
      <trkpt lat="47.62689" lon="-2.63398">
        <ele>14</ele>
        <time>2020-06-06T10:53:29Z</time>
      </trkpt>
      <trkpt lat="47.62695" lon="-2.63401">
        <ele>13.9</ele>
        <time>2020-06-06T10:53:30Z</time>
      </trkpt>
      <trkpt lat="47.62699" lon="-2.63406">
        <ele>13.8</ele>
        <time>2020-06-06T10:53:31Z</time>
      </trkpt>
      <trkpt lat="47.62704" lon="-2.63411">
        <ele>13.7</ele>
        <time>2020-06-06T10:53:32Z</time>
      </trkpt>
      <trkpt lat="47.62709" lon="-2.63417">
        <ele>13.6</ele>
        <time>2020-06-06T10:53:33Z</time>
      </trkpt>
      <trkpt lat="47.62714" lon="-2.63422">
        <ele>13.5</ele>
        <time>2020-06-06T10:53:34Z</time>
      </trkpt>
      <trkpt lat="47.62719" lon="-2.63427">
        <ele>13.4</ele>
        <time>2020-06-06T10:53:35Z</time>
      </trkpt>
      <trkpt lat="47.62724" lon="-2.63432">
        <ele>13.3</ele>
        <time>2020-06-06T10:53:36Z</time>
      </trkpt>
      <trkpt lat="47.62729" lon="-2.63438">
        <ele>13.1</ele>
        <time>2020-06-06T10:53:37Z</time>
      </trkpt>
      <trkpt lat="47.62734" lon="-2.63443">
        <ele>13</ele>
        <time>2020-06-06T10:53:38Z</time>
      </trkpt>
      <trkpt lat="47.62739" lon="-2.63448">
        <ele>12.9</ele>
        <time>2020-06-06T10:53:39Z</time>
      </trkpt>
      <trkpt lat="47.62745" lon="-2.63452">
        <ele>12.8</ele>
        <time>2020-06-06T10:53:40Z</time>
      </trkpt>
      <trkpt lat="47.6275" lon="-2.63456">
        <ele>12.7</ele>
        <time>2020-06-06T10:53:41Z</time>
      </trkpt>
      <trkpt lat="47.62755" lon="-2.63461">
        <ele>12.6</ele>
        <time>2020-06-06T10:53:42Z</time>
      </trkpt>
      <trkpt lat="47.6276" lon="-2.63466">
        <ele>12.5</ele>
        <time>2020-06-06T10:53:43Z</time>
      </trkpt>
      <trkpt lat="47.62765" lon="-2.6347">
        <ele>12.4</ele>
        <time>2020-06-06T10:53:44Z</time>
      </trkpt>
      <trkpt lat="47.62769" lon="-2.63475">
        <ele>12.3</ele>
        <time>2020-06-06T10:53:45Z</time>
      </trkpt>
      <trkpt lat="47.62774" lon="-2.6348">
        <ele>12.3</ele>
        <time>2020-06-06T10:53:46Z</time>
      </trkpt>
      <trkpt lat="47.62779" lon="-2.63484">
        <ele>12.2</ele>
        <time>2020-06-06T10:53:47Z</time>
      </trkpt>
      <trkpt lat="47.62785" lon="-2.63489">
        <ele>12.1</ele>
        <time>2020-06-06T10:53:48Z</time>
      </trkpt>
      <trkpt lat="47.6279" lon="-2.63493">
        <ele>12</ele>
        <time>2020-06-06T10:53:49Z</time>
      </trkpt>
      <trkpt lat="47.62795" lon="-2.63497">
        <ele>11.9</ele>
        <time>2020-06-06T10:53:50Z</time>
      </trkpt>
      <trkpt lat="47.62801" lon="-2.63501">
        <ele>11.8</ele>
        <time>2020-06-06T10:53:51Z</time>
      </trkpt>
      <trkpt lat="47.62806" lon="-2.63505">
        <ele>11.7</ele>
        <time>2020-06-06T10:53:52Z</time>
      </trkpt>
      <trkpt lat="47.62811" lon="-2.6351">
        <ele>11.6</ele>
        <time>2020-06-06T10:53:53Z</time>
      </trkpt>
      <trkpt lat="47.62816" lon="-2.63515">
        <ele>11.4</ele>
        <time>2020-06-06T10:53:54Z</time>
      </trkpt>
      <trkpt lat="47.62822" lon="-2.6352">
        <ele>11.3</ele>
        <time>2020-06-06T10:53:55Z</time>
      </trkpt>
      <trkpt lat="47.62827" lon="-2.63524">
        <ele>11.2</ele>
        <time>2020-06-06T10:53:56Z</time>
      </trkpt>
      <trkpt lat="47.62833" lon="-2.63527">
        <ele>11.1</ele>
        <time>2020-06-06T10:53:57Z</time>
      </trkpt>
      <trkpt lat="47.62838" lon="-2.6353">
        <ele>11.1</ele>
        <time>2020-06-06T10:53:58Z</time>
      </trkpt>
      <trkpt lat="47.62844" lon="-2.63534">
        <ele>11</ele>
        <time>2020-06-06T10:53:59Z</time>
      </trkpt>
      <trkpt lat="47.6285" lon="-2.63537">
        <ele>11</ele>
        <time>2020-06-06T10:54:00Z</time>
      </trkpt>
      <trkpt lat="47.62856" lon="-2.63539">
        <ele>10.9</ele>
        <time>2020-06-06T10:54:01Z</time>
      </trkpt>
      <trkpt lat="47.62861" lon="-2.63542">
        <ele>10.9</ele>
        <time>2020-06-06T10:54:02Z</time>
      </trkpt>
      <trkpt lat="47.62866" lon="-2.63546">
        <ele>10.9</ele>
        <time>2020-06-06T10:54:03Z</time>
      </trkpt>
      <trkpt lat="47.62871" lon="-2.6355">
        <ele>10.9</ele>
        <time>2020-06-06T10:54:04Z</time>
      </trkpt>
      <trkpt lat="47.62877" lon="-2.63553">
        <ele>10.9</ele>
        <time>2020-06-06T10:54:05Z</time>
      </trkpt>
      <trkpt lat="47.62882" lon="-2.63556">
        <ele>11</ele>
        <time>2020-06-06T10:54:06Z</time>
      </trkpt>
      <trkpt lat="47.62888" lon="-2.63559">
        <ele>11</ele>
        <time>2020-06-06T10:54:07Z</time>
      </trkpt>
      <trkpt lat="47.62893" lon="-2.63562">
        <ele>11.1</ele>
        <time>2020-06-06T10:54:08Z</time>
      </trkpt>
      <trkpt lat="47.62899" lon="-2.63566">
        <ele>11.1</ele>
        <time>2020-06-06T10:54:09Z</time>
      </trkpt>
      <trkpt lat="47.62904" lon="-2.6357">
        <ele>11.2</ele>
        <time>2020-06-06T10:54:10Z</time>
      </trkpt>
      <trkpt lat="47.62909" lon="-2.63573">
        <ele>11.3</ele>
        <time>2020-06-06T10:54:11Z</time>
      </trkpt>
      <trkpt lat="47.62914" lon="-2.63576">
        <ele>11.4</ele>
        <time>2020-06-06T10:54:12Z</time>
      </trkpt>
      <trkpt lat="47.62919" lon="-2.63579">
        <ele>11.6</ele>
        <time>2020-06-06T10:54:13Z</time>
      </trkpt>
      <trkpt lat="47.62924" lon="-2.63583">
        <ele>11.8</ele>
        <time>2020-06-06T10:54:14Z</time>
      </trkpt>
      <trkpt lat="47.62929" lon="-2.63585">
        <ele>12</ele>
        <time>2020-06-06T10:54:15Z</time>
      </trkpt>
      <trkpt lat="47.62933" lon="-2.63589">
        <ele>12.2</ele>
        <time>2020-06-06T10:54:16Z</time>
      </trkpt>
      <trkpt lat="47.62938" lon="-2.63592">
        <ele>12.3</ele>
        <time>2020-06-06T10:54:17Z</time>
      </trkpt>
      <trkpt lat="47.62942" lon="-2.63595">
        <ele>12.5</ele>
        <time>2020-06-06T10:54:18Z</time>
      </trkpt>
      <trkpt lat="47.62946" lon="-2.63599">
        <ele>12.7</ele>
        <time>2020-06-06T10:54:19Z</time>
      </trkpt>
      <trkpt lat="47.6295" lon="-2.63602">
        <ele>12.9</ele>
        <time>2020-06-06T10:54:20Z</time>
      </trkpt>
      <trkpt lat="47.62954" lon="-2.63606">
        <ele>13.2</ele>
        <time>2020-06-06T10:54:21Z</time>
      </trkpt>
      <trkpt lat="47.62958" lon="-2.6361">
        <ele>13.2</ele>
        <time>2020-06-06T10:54:22Z</time>
      </trkpt>
      <trkpt lat="47.62962" lon="-2.63614">
        <ele>13.2</ele>
        <time>2020-06-06T10:54:23Z</time>
      </trkpt>
      <trkpt lat="47.62965" lon="-2.63617">
        <ele>13.3</ele>
        <time>2020-06-06T10:54:24Z</time>
      </trkpt>
      <trkpt lat="47.62967" lon="-2.63622">
        <ele>13.3</ele>
        <time>2020-06-06T10:54:25Z</time>
      </trkpt>
      <trkpt lat="47.62968" lon="-2.63627">
        <ele>13.3</ele>
        <time>2020-06-06T10:54:26Z</time>
      </trkpt>
      <trkpt lat="47.62967" lon="-2.63633">
        <ele>13.3</ele>
        <time>2020-06-06T10:54:27Z</time>
      </trkpt>
      <trkpt lat="47.62965" lon="-2.63637">
        <ele>13.3</ele>
        <time>2020-06-06T10:54:28Z</time>
      </trkpt>
      <trkpt lat="47.62962" lon="-2.63643">
        <ele>13.3</ele>
        <time>2020-06-06T10:54:29Z</time>
      </trkpt>
      <trkpt lat="47.6296" lon="-2.63648">
        <ele>13.3</ele>
        <time>2020-06-06T10:54:30Z</time>
      </trkpt>
      <trkpt lat="47.62958" lon="-2.63654">
        <ele>13.3</ele>
        <time>2020-06-06T10:54:31Z</time>
      </trkpt>
      <trkpt lat="47.62955" lon="-2.63659">
        <ele>13.3</ele>
        <time>2020-06-06T10:54:32Z</time>
      </trkpt>
      <trkpt lat="47.62952" lon="-2.63664">
        <ele>13.4</ele>
        <time>2020-06-06T10:54:33Z</time>
      </trkpt>
      <trkpt lat="47.62949" lon="-2.6367">
        <ele>13.4</ele>
        <time>2020-06-06T10:54:34Z</time>
      </trkpt>
      <trkpt lat="47.62946" lon="-2.63675">
        <ele>13.4</ele>
        <time>2020-06-06T10:54:35Z</time>
      </trkpt>
      <trkpt lat="47.62943" lon="-2.6368">
        <ele>13.4</ele>
        <time>2020-06-06T10:54:36Z</time>
      </trkpt>
      <trkpt lat="47.6294" lon="-2.63685">
        <ele>13.5</ele>
        <time>2020-06-06T10:54:37Z</time>
      </trkpt>
      <trkpt lat="47.62938" lon="-2.63691">
        <ele>13.5</ele>
        <time>2020-06-06T10:54:38Z</time>
      </trkpt>
      <trkpt lat="47.62935" lon="-2.63696">
        <ele>13.5</ele>
        <time>2020-06-06T10:54:39Z</time>
      </trkpt>
      <trkpt lat="47.62932" lon="-2.63702">
        <ele>13.6</ele>
        <time>2020-06-06T10:54:40Z</time>
      </trkpt>
      <trkpt lat="47.6293" lon="-2.63708">
        <ele>13.6</ele>
        <time>2020-06-06T10:54:41Z</time>
      </trkpt>
      <trkpt lat="47.62928" lon="-2.63714">
        <ele>13.6</ele>
        <time>2020-06-06T10:54:42Z</time>
      </trkpt>
      <trkpt lat="47.62926" lon="-2.63721">
        <ele>13.6</ele>
        <time>2020-06-06T10:54:43Z</time>
      </trkpt>
      <trkpt lat="47.62924" lon="-2.63727">
        <ele>13.6</ele>
        <time>2020-06-06T10:54:44Z</time>
      </trkpt>
      <trkpt lat="47.62922" lon="-2.63733">
        <ele>13.6</ele>
        <time>2020-06-06T10:54:45Z</time>
      </trkpt>
      <trkpt lat="47.6292" lon="-2.63739">
        <ele>13.6</ele>
        <time>2020-06-06T10:54:46Z</time>
      </trkpt>
      <trkpt lat="47.62918" lon="-2.63745">
        <ele>13.6</ele>
        <time>2020-06-06T10:54:47Z</time>
      </trkpt>
      <trkpt lat="47.62916" lon="-2.63751">
        <ele>13.5</ele>
        <time>2020-06-06T10:54:48Z</time>
      </trkpt>
      <trkpt lat="47.62914" lon="-2.63757">
        <ele>13.5</ele>
        <time>2020-06-06T10:54:49Z</time>
      </trkpt>
      <trkpt lat="47.62911" lon="-2.63764">
        <ele>13.5</ele>
        <time>2020-06-06T10:54:50Z</time>
      </trkpt>
      <trkpt lat="47.62909" lon="-2.63772">
        <ele>13.4</ele>
        <time>2020-06-06T10:54:51Z</time>
      </trkpt>
      <trkpt lat="47.62907" lon="-2.63779">
        <ele>13.3</ele>
        <time>2020-06-06T10:54:52Z</time>
      </trkpt>
      <trkpt lat="47.62905" lon="-2.63787">
        <ele>13.3</ele>
        <time>2020-06-06T10:54:53Z</time>
      </trkpt>
      <trkpt lat="47.62903" lon="-2.63795">
        <ele>13.2</ele>
        <time>2020-06-06T10:54:54Z</time>
      </trkpt>
      <trkpt lat="47.62901" lon="-2.63803">
        <ele>13</ele>
        <time>2020-06-06T10:54:55Z</time>
      </trkpt>
      <trkpt lat="47.629" lon="-2.63811">
        <ele>12.9</ele>
        <time>2020-06-06T10:54:56Z</time>
      </trkpt>
      <trkpt lat="47.62897" lon="-2.63819">
        <ele>12.8</ele>
        <time>2020-06-06T10:54:57Z</time>
      </trkpt>
      <trkpt lat="47.62896" lon="-2.63827">
        <ele>12.6</ele>
        <time>2020-06-06T10:54:58Z</time>
      </trkpt>
      <trkpt lat="47.62895" lon="-2.63836">
        <ele>12.4</ele>
        <time>2020-06-06T10:54:59Z</time>
      </trkpt>
      <trkpt lat="47.62894" lon="-2.63846">
        <ele>12.2</ele>
        <time>2020-06-06T10:55:00Z</time>
      </trkpt>
      <trkpt lat="47.62893" lon="-2.63855">
        <ele>12.1</ele>
        <time>2020-06-06T10:55:01Z</time>
      </trkpt>
      <trkpt lat="47.62893" lon="-2.63865">
        <ele>11.9</ele>
        <time>2020-06-06T10:55:02Z</time>
      </trkpt>
      <trkpt lat="47.62893" lon="-2.63875">
        <ele>11.8</ele>
        <time>2020-06-06T10:55:03Z</time>
      </trkpt>
      <trkpt lat="47.62893" lon="-2.63884">
        <ele>11.7</ele>
        <time>2020-06-06T10:55:04Z</time>
      </trkpt>
      <trkpt lat="47.62892" lon="-2.63894">
        <ele>11.6</ele>
        <time>2020-06-06T10:55:05Z</time>
      </trkpt>
      <trkpt lat="47.62892" lon="-2.63903">
        <ele>11.5</ele>
        <time>2020-06-06T10:55:06Z</time>
      </trkpt>
      <trkpt lat="47.62892" lon="-2.63911">
        <ele>11.5</ele>
        <time>2020-06-06T10:55:07Z</time>
      </trkpt>
      <trkpt lat="47.62891" lon="-2.6392">
        <ele>11.5</ele>
        <time>2020-06-06T10:55:08Z</time>
      </trkpt>
      <trkpt lat="47.62892" lon="-2.63928">
        <ele>11.5</ele>
        <time>2020-06-06T10:55:09Z</time>
      </trkpt>
      <trkpt lat="47.62892" lon="-2.63936">
        <ele>11.5</ele>
        <time>2020-06-06T10:55:10Z</time>
      </trkpt>
      <trkpt lat="47.62892" lon="-2.63944">
        <ele>11.6</ele>
        <time>2020-06-06T10:55:11Z</time>
      </trkpt>
      <trkpt lat="47.62892" lon="-2.63952">
        <ele>11.6</ele>
        <time>2020-06-06T10:55:12Z</time>
      </trkpt>
      <trkpt lat="47.62893" lon="-2.6396">
        <ele>11.7</ele>
        <time>2020-06-06T10:55:13Z</time>
      </trkpt>
      <trkpt lat="47.62892" lon="-2.63968">
        <ele>11.8</ele>
        <time>2020-06-06T10:55:14Z</time>
      </trkpt>
      <trkpt lat="47.62892" lon="-2.63975">
        <ele>11.9</ele>
        <time>2020-06-06T10:55:15Z</time>
      </trkpt>
      <trkpt lat="47.62891" lon="-2.63982">
        <ele>12</ele>
        <time>2020-06-06T10:55:16Z</time>
      </trkpt>
      <trkpt lat="47.62891" lon="-2.6399">
        <ele>12.1</ele>
        <time>2020-06-06T10:55:17Z</time>
      </trkpt>
      <trkpt lat="47.6289" lon="-2.63999">
        <ele>12.2</ele>
        <time>2020-06-06T10:55:18Z</time>
      </trkpt>
      <trkpt lat="47.62889" lon="-2.64008">
        <ele>12.3</ele>
        <time>2020-06-06T10:55:19Z</time>
      </trkpt>
      <trkpt lat="47.62889" lon="-2.64016">
        <ele>12.4</ele>
        <time>2020-06-06T10:55:20Z</time>
      </trkpt>
      <trkpt lat="47.62888" lon="-2.64025">
        <ele>12.5</ele>
        <time>2020-06-06T10:55:21Z</time>
      </trkpt>
      <trkpt lat="47.62888" lon="-2.64034">
        <ele>12.7</ele>
        <time>2020-06-06T10:55:22Z</time>
      </trkpt>
      <trkpt lat="47.62888" lon="-2.64043">
        <ele>12.8</ele>
        <time>2020-06-06T10:55:23Z</time>
      </trkpt>
      <trkpt lat="47.62887" lon="-2.64052">
        <ele>13</ele>
        <time>2020-06-06T10:55:24Z</time>
      </trkpt>
      <trkpt lat="47.62887" lon="-2.6406">
        <ele>13.2</ele>
        <time>2020-06-06T10:55:25Z</time>
      </trkpt>
      <trkpt lat="47.62886" lon="-2.64068">
        <ele>13.3</ele>
        <time>2020-06-06T10:55:26Z</time>
      </trkpt>
      <trkpt lat="47.62885" lon="-2.64076">
        <ele>13.5</ele>
        <time>2020-06-06T10:55:27Z</time>
      </trkpt>
      <trkpt lat="47.62884" lon="-2.64082">
        <ele>13.5</ele>
        <time>2020-06-06T10:55:28Z</time>
      </trkpt>
      <trkpt lat="47.62884" lon="-2.64089">
        <ele>13.6</ele>
        <time>2020-06-06T10:55:29Z</time>
      </trkpt>
      <trkpt lat="47.62883" lon="-2.64095">
        <ele>13.7</ele>
        <time>2020-06-06T10:55:30Z</time>
      </trkpt>
      <trkpt lat="47.62882" lon="-2.64101">
        <ele>13.8</ele>
        <time>2020-06-06T10:55:31Z</time>
      </trkpt>
      <trkpt lat="47.62881" lon="-2.6411">
        <ele>13.9</ele>
        <time>2020-06-06T10:55:32Z</time>
      </trkpt>
      <trkpt lat="47.6288" lon="-2.64119">
        <ele>14</ele>
        <time>2020-06-06T10:55:33Z</time>
      </trkpt>
      <trkpt lat="47.62879" lon="-2.64127">
        <ele>14</ele>
        <time>2020-06-06T10:55:34Z</time>
      </trkpt>
      <trkpt lat="47.62878" lon="-2.64134">
        <ele>14</ele>
        <time>2020-06-06T10:55:35Z</time>
      </trkpt>
      <trkpt lat="47.62876" lon="-2.64142">
        <ele>14.1</ele>
        <time>2020-06-06T10:55:36Z</time>
      </trkpt>
      <trkpt lat="47.62874" lon="-2.6415">
        <ele>14.2</ele>
        <time>2020-06-06T10:55:37Z</time>
      </trkpt>
      <trkpt lat="47.62872" lon="-2.64156">
        <ele>14.2</ele>
        <time>2020-06-06T10:55:38Z</time>
      </trkpt>
      <trkpt lat="47.6287" lon="-2.64164">
        <ele>14.3</ele>
        <time>2020-06-06T10:55:39Z</time>
      </trkpt>
      <trkpt lat="47.62868" lon="-2.6417">
        <ele>14.3</ele>
        <time>2020-06-06T10:55:40Z</time>
      </trkpt>
      <trkpt lat="47.62866" lon="-2.64175">
        <ele>14.3</ele>
        <time>2020-06-06T10:55:41Z</time>
      </trkpt>
      <trkpt lat="47.62864" lon="-2.64182">
        <ele>14.3</ele>
        <time>2020-06-06T10:55:42Z</time>
      </trkpt>
      <trkpt lat="47.62861" lon="-2.64191">
        <ele>14.2</ele>
        <time>2020-06-06T10:55:43Z</time>
      </trkpt>
      <trkpt lat="47.62858" lon="-2.64197">
        <ele>14.2</ele>
        <time>2020-06-06T10:55:44Z</time>
      </trkpt>
      <trkpt lat="47.62856" lon="-2.64203">
        <ele>14.1</ele>
        <time>2020-06-06T10:55:45Z</time>
      </trkpt>
      <trkpt lat="47.62853" lon="-2.6421">
        <ele>14.1</ele>
        <time>2020-06-06T10:55:46Z</time>
      </trkpt>
      <trkpt lat="47.62851" lon="-2.64216">
        <ele>14</ele>
        <time>2020-06-06T10:55:47Z</time>
      </trkpt>
      <trkpt lat="47.62849" lon="-2.64223">
        <ele>14</ele>
        <time>2020-06-06T10:55:48Z</time>
      </trkpt>
      <trkpt lat="47.62846" lon="-2.6423">
        <ele>13.9</ele>
        <time>2020-06-06T10:55:49Z</time>
      </trkpt>
      <trkpt lat="47.62844" lon="-2.64237">
        <ele>13.8</ele>
        <time>2020-06-06T10:55:50Z</time>
      </trkpt>
      <trkpt lat="47.62842" lon="-2.64243">
        <ele>13.8</ele>
        <time>2020-06-06T10:55:51Z</time>
      </trkpt>
      <trkpt lat="47.6284" lon="-2.64249">
        <ele>13.7</ele>
        <time>2020-06-06T10:55:52Z</time>
      </trkpt>
      <trkpt lat="47.62838" lon="-2.64255">
        <ele>13.6</ele>
        <time>2020-06-06T10:55:53Z</time>
      </trkpt>
      <trkpt lat="47.62836" lon="-2.64259">
        <ele>13.6</ele>
        <time>2020-06-06T10:55:54Z</time>
      </trkpt>
      <trkpt lat="47.62834" lon="-2.64265">
        <ele>13.4</ele>
        <time>2020-06-06T10:55:55Z</time>
      </trkpt>
      <trkpt lat="47.62832" lon="-2.64272">
        <ele>13.3</ele>
        <time>2020-06-06T10:55:56Z</time>
      </trkpt>
      <trkpt lat="47.62829" lon="-2.64278">
        <ele>13.2</ele>
        <time>2020-06-06T10:55:57Z</time>
      </trkpt>
      <trkpt lat="47.62827" lon="-2.64285">
        <ele>13</ele>
        <time>2020-06-06T10:55:58Z</time>
      </trkpt>
      <trkpt lat="47.62825" lon="-2.64292">
        <ele>13</ele>
        <time>2020-06-06T10:55:59Z</time>
      </trkpt>
      <trkpt lat="47.62823" lon="-2.64301">
        <ele>13</ele>
        <time>2020-06-06T10:56:00Z</time>
      </trkpt>
      <trkpt lat="47.62822" lon="-2.64309">
        <ele>13</ele>
        <time>2020-06-06T10:56:01Z</time>
      </trkpt>
      <trkpt lat="47.62822" lon="-2.64318">
        <ele>13</ele>
        <time>2020-06-06T10:56:02Z</time>
      </trkpt>
      <trkpt lat="47.62821" lon="-2.64327">
        <ele>13</ele>
        <time>2020-06-06T10:56:03Z</time>
      </trkpt>
      <trkpt lat="47.6282" lon="-2.64334">
        <ele>13</ele>
        <time>2020-06-06T10:56:04Z</time>
      </trkpt>
      <trkpt lat="47.62819" lon="-2.6434">
        <ele>12.8</ele>
        <time>2020-06-06T10:56:05Z</time>
      </trkpt>
      <trkpt lat="47.62818" lon="-2.64347">
        <ele>12.7</ele>
        <time>2020-06-06T10:56:06Z</time>
      </trkpt>
      <trkpt lat="47.62816" lon="-2.64354">
        <ele>12.6</ele>
        <time>2020-06-06T10:56:07Z</time>
      </trkpt>
      <trkpt lat="47.62813" lon="-2.6436">
        <ele>12.4</ele>
        <time>2020-06-06T10:56:08Z</time>
      </trkpt>
      <trkpt lat="47.62813" lon="-2.64365">
        <ele>12.3</ele>
        <time>2020-06-06T10:56:09Z</time>
      </trkpt>
      <trkpt lat="47.62812" lon="-2.64372">
        <ele>12.2</ele>
        <time>2020-06-06T10:56:10Z</time>
      </trkpt>
      <trkpt lat="47.62811" lon="-2.64381">
        <ele>12.1</ele>
        <time>2020-06-06T10:56:11Z</time>
      </trkpt>
      <trkpt lat="47.62812" lon="-2.64388">
        <ele>12</ele>
        <time>2020-06-06T10:56:12Z</time>
      </trkpt>
      <trkpt lat="47.62813" lon="-2.64396">
        <ele>11.9</ele>
        <time>2020-06-06T10:56:13Z</time>
      </trkpt>
      <trkpt lat="47.62816" lon="-2.64403">
        <ele>11.8</ele>
        <time>2020-06-06T10:56:14Z</time>
      </trkpt>
      <trkpt lat="47.6282" lon="-2.64408">
        <ele>13.3</ele>
        <time>2020-06-06T10:56:15Z</time>
      </trkpt>
      <trkpt lat="47.62822" lon="-2.64413">
        <ele>13.1</ele>
        <time>2020-06-06T10:56:16Z</time>
      </trkpt>
      <trkpt lat="47.62823" lon="-2.64419">
        <ele>12.9</ele>
        <time>2020-06-06T10:56:17Z</time>
      </trkpt>
      <trkpt lat="47.62821" lon="-2.64424">
        <ele>12.5</ele>
        <time>2020-06-06T10:56:18Z</time>
      </trkpt>
      <trkpt lat="47.62816" lon="-2.64427">
        <ele>12.2</ele>
        <time>2020-06-06T10:56:19Z</time>
      </trkpt>
      <trkpt lat="47.62813" lon="-2.64432">
        <ele>11.4</ele>
        <time>2020-06-06T10:56:20Z</time>
      </trkpt>
      <trkpt lat="47.62809" lon="-2.64436">
        <ele>10.5</ele>
        <time>2020-06-06T10:56:21Z</time>
      </trkpt>
      <trkpt lat="47.62805" lon="-2.64444">
        <ele>9.4</ele>
        <time>2020-06-06T10:56:22Z</time>
      </trkpt>
      <trkpt lat="47.62804" lon="-2.64453">
        <ele>9.1</ele>
        <time>2020-06-06T10:56:23Z</time>
      </trkpt>
      <trkpt lat="47.62803" lon="-2.64463">
        <ele>8.8</ele>
        <time>2020-06-06T10:56:24Z</time>
      </trkpt>
      <trkpt lat="47.62802" lon="-2.64472">
        <ele>8.6</ele>
        <time>2020-06-06T10:56:25Z</time>
      </trkpt>
      <trkpt lat="47.628" lon="-2.64481">
        <ele>8.4</ele>
        <time>2020-06-06T10:56:26Z</time>
      </trkpt>
      <trkpt lat="47.62798" lon="-2.64489">
        <ele>8.3</ele>
        <time>2020-06-06T10:56:27Z</time>
      </trkpt>
      <trkpt lat="47.62796" lon="-2.64499">
        <ele>8.1</ele>
        <time>2020-06-06T10:56:28Z</time>
      </trkpt>
      <trkpt lat="47.62794" lon="-2.64509">
        <ele>7.9</ele>
        <time>2020-06-06T10:56:29Z</time>
      </trkpt>
      <trkpt lat="47.62791" lon="-2.64517">
        <ele>7.8</ele>
        <time>2020-06-06T10:56:30Z</time>
      </trkpt>
      <trkpt lat="47.62789" lon="-2.64523">
        <ele>7.8</ele>
        <time>2020-06-06T10:56:31Z</time>
      </trkpt>
      <trkpt lat="47.62786" lon="-2.64531">
        <ele>7.7</ele>
        <time>2020-06-06T10:56:32Z</time>
      </trkpt>
      <trkpt lat="47.62783" lon="-2.64538">
        <ele>7.7</ele>
        <time>2020-06-06T10:56:33Z</time>
      </trkpt>
      <trkpt lat="47.62781" lon="-2.64546">
        <ele>7.6</ele>
        <time>2020-06-06T10:56:34Z</time>
      </trkpt>
      <trkpt lat="47.62779" lon="-2.64553">
        <ele>7.6</ele>
        <time>2020-06-06T10:56:35Z</time>
      </trkpt>
      <trkpt lat="47.62777" lon="-2.64559">
        <ele>7.6</ele>
        <time>2020-06-06T10:56:36Z</time>
      </trkpt>
      <trkpt lat="47.62775" lon="-2.64566">
        <ele>7.7</ele>
        <time>2020-06-06T10:56:37Z</time>
      </trkpt>
      <trkpt lat="47.62773" lon="-2.64572">
        <ele>7.7</ele>
        <time>2020-06-06T10:56:38Z</time>
      </trkpt>
      <trkpt lat="47.62772" lon="-2.64577">
        <ele>7.7</ele>
        <time>2020-06-06T10:56:39Z</time>
      </trkpt>
      <trkpt lat="47.62771" lon="-2.64585">
        <ele>7.8</ele>
        <time>2020-06-06T10:56:40Z</time>
      </trkpt>
      <trkpt lat="47.62769" lon="-2.64593">
        <ele>7.8</ele>
        <time>2020-06-06T10:56:41Z</time>
      </trkpt>
      <trkpt lat="47.62766" lon="-2.64601">
        <ele>7.9</ele>
        <time>2020-06-06T10:56:42Z</time>
      </trkpt>
      <trkpt lat="47.62764" lon="-2.64609">
        <ele>8</ele>
        <time>2020-06-06T10:56:43Z</time>
      </trkpt>
      <trkpt lat="47.62763" lon="-2.64615">
        <ele>8</ele>
        <time>2020-06-06T10:56:44Z</time>
      </trkpt>
      <trkpt lat="47.62761" lon="-2.64622">
        <ele>8.1</ele>
        <time>2020-06-06T10:56:45Z</time>
      </trkpt>
      <trkpt lat="47.62759" lon="-2.64629">
        <ele>8.3</ele>
        <time>2020-06-06T10:56:46Z</time>
      </trkpt>
      <trkpt lat="47.62758" lon="-2.64636">
        <ele>8.4</ele>
        <time>2020-06-06T10:56:47Z</time>
      </trkpt>
      <trkpt lat="47.62757" lon="-2.64641">
        <ele>8.5</ele>
        <time>2020-06-06T10:56:48Z</time>
      </trkpt>
      <trkpt lat="47.62756" lon="-2.64646">
        <ele>8.7</ele>
        <time>2020-06-06T10:56:49Z</time>
      </trkpt>
      <trkpt lat="47.62756" lon="-2.64652">
        <ele>8.8</ele>
        <time>2020-06-06T10:56:50Z</time>
      </trkpt>
      <trkpt lat="47.62756" lon="-2.64655">
        <ele>8.9</ele>
        <time>2020-06-06T10:56:51Z</time>
      </trkpt>
      <trkpt lat="47.62757" lon="-2.6466">
        <ele>9</ele>
        <time>2020-06-06T10:56:52Z</time>
      </trkpt>
      <trkpt lat="47.62757" lon="-2.64664">
        <ele>9.1</ele>
        <time>2020-06-06T10:56:53Z</time>
      </trkpt>
      <trkpt lat="47.62758" lon="-2.64669">
        <ele>9.2</ele>
        <time>2020-06-06T10:56:54Z</time>
      </trkpt>
      <trkpt lat="47.6276" lon="-2.64675">
        <ele>9.3</ele>
        <time>2020-06-06T10:56:55Z</time>
      </trkpt>
      <trkpt lat="47.62762" lon="-2.6468">
        <ele>9.4</ele>
        <time>2020-06-06T10:56:56Z</time>
      </trkpt>
      <trkpt lat="47.62763" lon="-2.64686">
        <ele>9.6</ele>
        <time>2020-06-06T10:56:57Z</time>
      </trkpt>
      <trkpt lat="47.62764" lon="-2.6469">
        <ele>9.7</ele>
        <time>2020-06-06T10:56:58Z</time>
      </trkpt>
      <trkpt lat="47.62764" lon="-2.64696">
        <ele>9.9</ele>
        <time>2020-06-06T10:56:59Z</time>
      </trkpt>
      <trkpt lat="47.62765" lon="-2.64698">
        <ele>10</ele>
        <time>2020-06-06T10:57:00Z</time>
      </trkpt>
      <trkpt lat="47.62766" lon="-2.64703">
        <ele>10.2</ele>
        <time>2020-06-06T10:57:01Z</time>
      </trkpt>
      <trkpt lat="47.62768" lon="-2.6471">
        <ele>10.4</ele>
        <time>2020-06-06T10:57:02Z</time>
      </trkpt>
      <trkpt lat="47.62771" lon="-2.64716">
        <ele>10.7</ele>
        <time>2020-06-06T10:57:03Z</time>
      </trkpt>
      <trkpt lat="47.62775" lon="-2.64721">
        <ele>10.9</ele>
        <time>2020-06-06T10:57:04Z</time>
      </trkpt>
      <trkpt lat="47.62778" lon="-2.64726">
        <ele>11.2</ele>
        <time>2020-06-06T10:57:05Z</time>
      </trkpt>
      <trkpt lat="47.6278" lon="-2.6473">
        <ele>11.4</ele>
        <time>2020-06-06T10:57:06Z</time>
      </trkpt>
      <trkpt lat="47.62784" lon="-2.64734">
        <ele>11.6</ele>
        <time>2020-06-06T10:57:07Z</time>
      </trkpt>
      <trkpt lat="47.62789" lon="-2.64737">
        <ele>11.9</ele>
        <time>2020-06-06T10:57:08Z</time>
      </trkpt>
      <trkpt lat="47.62794" lon="-2.6474">
        <ele>12.3</ele>
        <time>2020-06-06T10:57:09Z</time>
      </trkpt>
      <trkpt lat="47.62799" lon="-2.64743">
        <ele>12.5</ele>
        <time>2020-06-06T10:57:10Z</time>
      </trkpt>
      <trkpt lat="47.62803" lon="-2.64747">
        <ele>12.8</ele>
        <time>2020-06-06T10:57:11Z</time>
      </trkpt>
      <trkpt lat="47.62806" lon="-2.64749">
        <ele>12.9</ele>
        <time>2020-06-06T10:57:12Z</time>
      </trkpt>
      <trkpt lat="47.6281" lon="-2.64752">
        <ele>13.1</ele>
        <time>2020-06-06T10:57:13Z</time>
      </trkpt>
      <trkpt lat="47.62813" lon="-2.64754">
        <ele>13.3</ele>
        <time>2020-06-06T10:57:14Z</time>
      </trkpt>
      <trkpt lat="47.62816" lon="-2.64757">
        <ele>13.5</ele>
        <time>2020-06-06T10:57:15Z</time>
      </trkpt>
      <trkpt lat="47.62819" lon="-2.64761">
        <ele>13.6</ele>
        <time>2020-06-06T10:57:16Z</time>
      </trkpt>
      <trkpt lat="47.62823" lon="-2.64765">
        <ele>13.8</ele>
        <time>2020-06-06T10:57:17Z</time>
      </trkpt>
      <trkpt lat="47.62828" lon="-2.64769">
        <ele>14</ele>
        <time>2020-06-06T10:57:18Z</time>
      </trkpt>
      <trkpt lat="47.62832" lon="-2.64771">
        <ele>14.2</ele>
        <time>2020-06-06T10:57:19Z</time>
      </trkpt>
      <trkpt lat="47.62836" lon="-2.64773">
        <ele>14.4</ele>
        <time>2020-06-06T10:57:20Z</time>
      </trkpt>
      <trkpt lat="47.6284" lon="-2.64776">
        <ele>14.7</ele>
        <time>2020-06-06T10:57:21Z</time>
      </trkpt>
      <trkpt lat="47.62845" lon="-2.6478">
        <ele>15</ele>
        <time>2020-06-06T10:57:22Z</time>
      </trkpt>
      <trkpt lat="47.62849" lon="-2.64782">
        <ele>15.2</ele>
        <time>2020-06-06T10:57:23Z</time>
      </trkpt>
      <trkpt lat="47.62853" lon="-2.64785">
        <ele>15.5</ele>
        <time>2020-06-06T10:57:24Z</time>
      </trkpt>
      <trkpt lat="47.62858" lon="-2.64787">
        <ele>15.8</ele>
        <time>2020-06-06T10:57:25Z</time>
      </trkpt>
      <trkpt lat="47.62864" lon="-2.6479">
        <ele>16.1</ele>
        <time>2020-06-06T10:57:26Z</time>
      </trkpt>
      <trkpt lat="47.62869" lon="-2.64791">
        <ele>16.3</ele>
        <time>2020-06-06T10:57:27Z</time>
      </trkpt>
      <trkpt lat="47.62873" lon="-2.64792">
        <ele>16.5</ele>
        <time>2020-06-06T10:57:28Z</time>
      </trkpt>
      <trkpt lat="47.62877" lon="-2.64794">
        <ele>16.8</ele>
        <time>2020-06-06T10:57:29Z</time>
      </trkpt>
      <trkpt lat="47.62881" lon="-2.64796">
        <ele>17</ele>
        <time>2020-06-06T10:57:30Z</time>
      </trkpt>
      <trkpt lat="47.62885" lon="-2.64798">
        <ele>17.2</ele>
        <time>2020-06-06T10:57:31Z</time>
      </trkpt>
      <trkpt lat="47.62888" lon="-2.648">
        <ele>17.3</ele>
        <time>2020-06-06T10:57:32Z</time>
      </trkpt>
      <trkpt lat="47.62892" lon="-2.64803">
        <ele>17.5</ele>
        <time>2020-06-06T10:57:33Z</time>
      </trkpt>
      <trkpt lat="47.62894" lon="-2.64807">
        <ele>17.7</ele>
        <time>2020-06-06T10:57:34Z</time>
      </trkpt>
      <trkpt lat="47.62897" lon="-2.64812">
        <ele>17.9</ele>
        <time>2020-06-06T10:57:35Z</time>
      </trkpt>
      <trkpt lat="47.629" lon="-2.64816">
        <ele>18.1</ele>
        <time>2020-06-06T10:57:36Z</time>
      </trkpt>
      <trkpt lat="47.62902" lon="-2.64821">
        <ele>18.2</ele>
        <time>2020-06-06T10:57:37Z</time>
      </trkpt>
      <trkpt lat="47.62905" lon="-2.64827">
        <ele>18.4</ele>
        <time>2020-06-06T10:57:38Z</time>
      </trkpt>
      <trkpt lat="47.62907" lon="-2.64831">
        <ele>18.8</ele>
        <time>2020-06-06T10:57:39Z</time>
      </trkpt>
      <trkpt lat="47.62909" lon="-2.64836">
        <ele>18.9</ele>
        <time>2020-06-06T10:57:40Z</time>
      </trkpt>
      <trkpt lat="47.62912" lon="-2.64841">
        <ele>19.2</ele>
        <time>2020-06-06T10:57:41Z</time>
      </trkpt>
      <trkpt lat="47.62915" lon="-2.64846">
        <ele>19.3</ele>
        <time>2020-06-06T10:57:42Z</time>
      </trkpt>
      <trkpt lat="47.62917" lon="-2.64851">
        <ele>19.5</ele>
        <time>2020-06-06T10:57:43Z</time>
      </trkpt>
      <trkpt lat="47.62919" lon="-2.64856">
        <ele>19.7</ele>
        <time>2020-06-06T10:57:44Z</time>
      </trkpt>
      <trkpt lat="47.6292" lon="-2.64863">
        <ele>19.9</ele>
        <time>2020-06-06T10:57:45Z</time>
      </trkpt>
      <trkpt lat="47.6292" lon="-2.64869">
        <ele>20</ele>
        <time>2020-06-06T10:57:46Z</time>
      </trkpt>
      <trkpt lat="47.6292" lon="-2.64875">
        <ele>20.2</ele>
        <time>2020-06-06T10:57:47Z</time>
      </trkpt>
      <trkpt lat="47.6292" lon="-2.64881">
        <ele>20.4</ele>
        <time>2020-06-06T10:57:48Z</time>
      </trkpt>
      <trkpt lat="47.6292" lon="-2.64888">
        <ele>20.6</ele>
        <time>2020-06-06T10:57:49Z</time>
      </trkpt>
      <trkpt lat="47.62921" lon="-2.64893">
        <ele>20.7</ele>
        <time>2020-06-06T10:57:50Z</time>
      </trkpt>
      <trkpt lat="47.62921" lon="-2.649">
        <ele>20.9</ele>
        <time>2020-06-06T10:57:51Z</time>
      </trkpt>
      <trkpt lat="47.6292" lon="-2.64905">
        <ele>21</ele>
        <time>2020-06-06T10:57:52Z</time>
      </trkpt>
      <trkpt lat="47.62919" lon="-2.64911">
        <ele>21</ele>
        <time>2020-06-06T10:57:53Z</time>
      </trkpt>
      <trkpt lat="47.62917" lon="-2.64914">
        <ele>21.1</ele>
        <time>2020-06-06T10:57:54Z</time>
      </trkpt>
      <trkpt lat="47.62915" lon="-2.64919">
        <ele>21.1</ele>
        <time>2020-06-06T10:57:55Z</time>
      </trkpt>
      <trkpt lat="47.62914" lon="-2.64922">
        <ele>21.2</ele>
        <time>2020-06-06T10:57:56Z</time>
      </trkpt>
      <trkpt lat="47.62913" lon="-2.64928">
        <ele>21.2</ele>
        <time>2020-06-06T10:57:57Z</time>
      </trkpt>
      <trkpt lat="47.62912" lon="-2.64931">
        <ele>21.3</ele>
        <time>2020-06-06T10:57:58Z</time>
      </trkpt>
      <trkpt lat="47.62912" lon="-2.64933">
        <ele>21.3</ele>
        <time>2020-06-06T10:57:59Z</time>
      </trkpt>
      <trkpt lat="47.62912" lon="-2.64937">
        <ele>21.4</ele>
        <time>2020-06-06T10:58:00Z</time>
      </trkpt>
      <trkpt lat="47.62911" lon="-2.64943">
        <ele>21.5</ele>
        <time>2020-06-06T10:58:01Z</time>
      </trkpt>
      <trkpt lat="47.62911" lon="-2.64948">
        <ele>21.5</ele>
        <time>2020-06-06T10:58:02Z</time>
      </trkpt>
      <trkpt lat="47.6291" lon="-2.64953">
        <ele>21.6</ele>
        <time>2020-06-06T10:58:03Z</time>
      </trkpt>
      <trkpt lat="47.62909" lon="-2.64957">
        <ele>21.7</ele>
        <time>2020-06-06T10:58:04Z</time>
      </trkpt>
      <trkpt lat="47.62909" lon="-2.64962">
        <ele>21.7</ele>
        <time>2020-06-06T10:58:05Z</time>
      </trkpt>
      <trkpt lat="47.62908" lon="-2.64964">
        <ele>21.8</ele>
        <time>2020-06-06T10:58:06Z</time>
      </trkpt>
      <trkpt lat="47.62909" lon="-2.64968">
        <ele>21.8</ele>
        <time>2020-06-06T10:58:07Z</time>
      </trkpt>
      <trkpt lat="47.6291" lon="-2.64973">
        <ele>21.8</ele>
        <time>2020-06-06T10:58:08Z</time>
      </trkpt>
      <trkpt lat="47.6291" lon="-2.64975">
        <ele>21.8</ele>
        <time>2020-06-06T10:58:09Z</time>
      </trkpt>
      <trkpt lat="47.6291" lon="-2.64979">
        <ele>21.9</ele>
        <time>2020-06-06T10:58:10Z</time>
      </trkpt>
      <trkpt lat="47.6291" lon="-2.64983">
        <ele>21.9</ele>
        <time>2020-06-06T10:58:12Z</time>
      </trkpt>
      <trkpt lat="47.62911" lon="-2.64987">
        <ele>21.9</ele>
        <time>2020-06-06T10:58:13Z</time>
      </trkpt>
      <trkpt lat="47.62912" lon="-2.64989">
        <ele>21.9</ele>
        <time>2020-06-06T10:58:14Z</time>
      </trkpt>
      <trkpt lat="47.62913" lon="-2.64993">
        <ele>21.9</ele>
        <time>2020-06-06T10:58:15Z</time>
      </trkpt>
      <trkpt lat="47.62915" lon="-2.64997">
        <ele>21.9</ele>
        <time>2020-06-06T10:58:16Z</time>
      </trkpt>
      <trkpt lat="47.62915" lon="-2.64998">
        <ele>21.9</ele>
        <time>2020-06-06T10:58:17Z</time>
      </trkpt>
      <trkpt lat="47.62915" lon="-2.64999">
        <ele>21.9</ele>
        <time>2020-06-06T10:58:18Z</time>
      </trkpt>
      <trkpt lat="47.62916" lon="-2.65002">
        <ele>21.9</ele>
        <time>2020-06-06T10:58:19Z</time>
      </trkpt>
      <trkpt lat="47.62918" lon="-2.65006">
        <ele>21.8</ele>
        <time>2020-06-06T10:58:20Z</time>
      </trkpt>
      <trkpt lat="47.62919" lon="-2.65007">
        <ele>21.8</ele>
        <time>2020-06-06T10:58:21Z</time>
      </trkpt>
      <trkpt lat="47.62919" lon="-2.65013">
        <ele>21.8</ele>
        <time>2020-06-06T10:58:22Z</time>
      </trkpt>
      <trkpt lat="47.62919" lon="-2.65015">
        <ele>21.8</ele>
        <time>2020-06-06T10:58:23Z</time>
      </trkpt>
      <trkpt lat="47.62922" lon="-2.65019">
        <ele>21.8</ele>
        <time>2020-06-06T10:58:24Z</time>
      </trkpt>
      <trkpt lat="47.62922" lon="-2.65021">
        <ele>21.8</ele>
        <time>2020-06-06T10:58:25Z</time>
      </trkpt>
      <trkpt lat="47.62926" lon="-2.65024">
        <ele>21.8</ele>
        <time>2020-06-06T10:58:26Z</time>
      </trkpt>
      <trkpt lat="47.62927" lon="-2.65026">
        <ele>21.8</ele>
        <time>2020-06-06T10:58:27Z</time>
      </trkpt>
      <trkpt lat="47.62929" lon="-2.65029">
        <ele>21.8</ele>
        <time>2020-06-06T10:58:28Z</time>
      </trkpt>
      <trkpt lat="47.62931" lon="-2.65034">
        <ele>21.8</ele>
        <time>2020-06-06T10:58:29Z</time>
      </trkpt>
      <trkpt lat="47.62932" lon="-2.65036">
        <ele>21.7</ele>
        <time>2020-06-06T10:58:30Z</time>
      </trkpt>
      <trkpt lat="47.62933" lon="-2.6504">
        <ele>21.7</ele>
        <time>2020-06-06T10:58:31Z</time>
      </trkpt>
      <trkpt lat="47.62935" lon="-2.65044">
        <ele>21.7</ele>
        <time>2020-06-06T10:58:32Z</time>
      </trkpt>
      <trkpt lat="47.62936" lon="-2.65045">
        <ele>21.6</ele>
        <time>2020-06-06T10:58:33Z</time>
      </trkpt>
      <trkpt lat="47.62937" lon="-2.65051">
        <ele>21.6</ele>
        <time>2020-06-06T10:58:34Z</time>
      </trkpt>
      <trkpt lat="47.62937" lon="-2.65054">
        <ele>21.5</ele>
        <time>2020-06-06T10:58:35Z</time>
      </trkpt>
      <trkpt lat="47.62937" lon="-2.65058">
        <ele>21.4</ele>
        <time>2020-06-06T10:58:36Z</time>
      </trkpt>
      <trkpt lat="47.62937" lon="-2.65065">
        <ele>21.2</ele>
        <time>2020-06-06T10:58:37Z</time>
      </trkpt>
      <trkpt lat="47.62937" lon="-2.65067">
        <ele>21.1</ele>
        <time>2020-06-06T10:58:38Z</time>
      </trkpt>
      <trkpt lat="47.62936" lon="-2.65073">
        <ele>20.9</ele>
        <time>2020-06-06T10:58:39Z</time>
      </trkpt>
      <trkpt lat="47.62935" lon="-2.65079">
        <ele>20.7</ele>
        <time>2020-06-06T10:58:40Z</time>
      </trkpt>
      <trkpt lat="47.62934" lon="-2.65085">
        <ele>20.4</ele>
        <time>2020-06-06T10:58:41Z</time>
      </trkpt>
      <trkpt lat="47.62934" lon="-2.65091">
        <ele>20.2</ele>
        <time>2020-06-06T10:58:42Z</time>
      </trkpt>
      <trkpt lat="47.62933" lon="-2.65097">
        <ele>19.9</ele>
        <time>2020-06-06T10:58:43Z</time>
      </trkpt>
      <trkpt lat="47.62933" lon="-2.65103">
        <ele>19.7</ele>
        <time>2020-06-06T10:58:44Z</time>
      </trkpt>
      <trkpt lat="47.62933" lon="-2.6511">
        <ele>19.3</ele>
        <time>2020-06-06T10:58:45Z</time>
      </trkpt>
      <trkpt lat="47.62932" lon="-2.65119">
        <ele>19</ele>
        <time>2020-06-06T10:58:46Z</time>
      </trkpt>
      <trkpt lat="47.62931" lon="-2.65129">
        <ele>18.6</ele>
        <time>2020-06-06T10:58:47Z</time>
      </trkpt>
      <trkpt lat="47.62931" lon="-2.65139">
        <ele>18.1</ele>
        <time>2020-06-06T10:58:48Z</time>
      </trkpt>
      <trkpt lat="47.62931" lon="-2.65149">
        <ele>17.7</ele>
        <time>2020-06-06T10:58:49Z</time>
      </trkpt>
      <trkpt lat="47.62931" lon="-2.65159">
        <ele>17.3</ele>
        <time>2020-06-06T10:58:50Z</time>
      </trkpt>
      <trkpt lat="47.6293" lon="-2.65168">
        <ele>16.9</ele>
        <time>2020-06-06T10:58:51Z</time>
      </trkpt>
      <trkpt lat="47.62928" lon="-2.65178">
        <ele>16.5</ele>
        <time>2020-06-06T10:58:52Z</time>
      </trkpt>
      <trkpt lat="47.62927" lon="-2.65188">
        <ele>16.2</ele>
        <time>2020-06-06T10:58:53Z</time>
      </trkpt>
      <trkpt lat="47.62925" lon="-2.65198">
        <ele>15.8</ele>
        <time>2020-06-06T10:58:54Z</time>
      </trkpt>
      <trkpt lat="47.62924" lon="-2.65208">
        <ele>15.5</ele>
        <time>2020-06-06T10:58:55Z</time>
      </trkpt>
      <trkpt lat="47.62922" lon="-2.65219">
        <ele>15.2</ele>
        <time>2020-06-06T10:58:56Z</time>
      </trkpt>
      <trkpt lat="47.62918" lon="-2.65239">
        <ele>14.6</ele>
        <time>2020-06-06T10:58:57Z</time>
      </trkpt>
      <trkpt lat="47.62916" lon="-2.65249">
        <ele>14.3</ele>
        <time>2020-06-06T10:58:58Z</time>
      </trkpt>
      <trkpt lat="47.62914" lon="-2.65259">
        <ele>14</ele>
        <time>2020-06-06T10:58:59Z</time>
      </trkpt>
      <trkpt lat="47.62913" lon="-2.65269">
        <ele>13.8</ele>
        <time>2020-06-06T10:59:00Z</time>
      </trkpt>
      <trkpt lat="47.62911" lon="-2.6528">
        <ele>13.6</ele>
        <time>2020-06-06T10:59:01Z</time>
      </trkpt>
      <trkpt lat="47.62909" lon="-2.6529">
        <ele>13.4</ele>
        <time>2020-06-06T10:59:02Z</time>
      </trkpt>
      <trkpt lat="47.62908" lon="-2.653">
        <ele>13.3</ele>
        <time>2020-06-06T10:59:03Z</time>
      </trkpt>
      <trkpt lat="47.62906" lon="-2.6531">
        <ele>13.2</ele>
        <time>2020-06-06T10:59:04Z</time>
      </trkpt>
      <trkpt lat="47.62904" lon="-2.65321">
        <ele>13</ele>
        <time>2020-06-06T10:59:05Z</time>
      </trkpt>
      <trkpt lat="47.62903" lon="-2.65331">
        <ele>12.9</ele>
        <time>2020-06-06T10:59:06Z</time>
      </trkpt>
      <trkpt lat="47.62902" lon="-2.6534">
        <ele>12.9</ele>
        <time>2020-06-06T10:59:07Z</time>
      </trkpt>
      <trkpt lat="47.629" lon="-2.6535">
        <ele>12.8</ele>
        <time>2020-06-06T10:59:08Z</time>
      </trkpt>
      <trkpt lat="47.62899" lon="-2.65359">
        <ele>12.8</ele>
        <time>2020-06-06T10:59:09Z</time>
      </trkpt>
      <trkpt lat="47.62897" lon="-2.65369">
        <ele>12.9</ele>
        <time>2020-06-06T10:59:10Z</time>
      </trkpt>
      <trkpt lat="47.62897" lon="-2.65377">
        <ele>12.9</ele>
        <time>2020-06-06T10:59:11Z</time>
      </trkpt>
      <trkpt lat="47.62897" lon="-2.65386">
        <ele>13</ele>
        <time>2020-06-06T10:59:12Z</time>
      </trkpt>
      <trkpt lat="47.62897" lon="-2.65394">
        <ele>14.2</ele>
        <time>2020-06-06T10:59:13Z</time>
      </trkpt>
      <trkpt lat="47.62896" lon="-2.65402">
        <ele>13.8</ele>
        <time>2020-06-06T10:59:14Z</time>
      </trkpt>
      <trkpt lat="47.62895" lon="-2.6541">
        <ele>13.2</ele>
        <time>2020-06-06T10:59:15Z</time>
      </trkpt>
      <trkpt lat="47.62893" lon="-2.65418">
        <ele>12.7</ele>
        <time>2020-06-06T10:59:16Z</time>
      </trkpt>
      <trkpt lat="47.6289" lon="-2.65425">
        <ele>12.5</ele>
        <time>2020-06-06T10:59:17Z</time>
      </trkpt>
      <trkpt lat="47.62888" lon="-2.65433">
        <ele>12.4</ele>
        <time>2020-06-06T10:59:18Z</time>
      </trkpt>
      <trkpt lat="47.62886" lon="-2.65441">
        <ele>12.4</ele>
        <time>2020-06-06T10:59:19Z</time>
      </trkpt>
      <trkpt lat="47.62885" lon="-2.65449">
        <ele>12.4</ele>
        <time>2020-06-06T10:59:20Z</time>
      </trkpt>
      <trkpt lat="47.62884" lon="-2.65458">
        <ele>12.3</ele>
        <time>2020-06-06T10:59:21Z</time>
      </trkpt>
      <trkpt lat="47.62883" lon="-2.65467">
        <ele>12.3</ele>
        <time>2020-06-06T10:59:22Z</time>
      </trkpt>
      <trkpt lat="47.62882" lon="-2.65475">
        <ele>12.3</ele>
        <time>2020-06-06T10:59:23Z</time>
      </trkpt>
      <trkpt lat="47.62882" lon="-2.65484">
        <ele>12.3</ele>
        <time>2020-06-06T10:59:24Z</time>
      </trkpt>
      <trkpt lat="47.62883" lon="-2.65492">
        <ele>12.4</ele>
        <time>2020-06-06T10:59:25Z</time>
      </trkpt>
      <trkpt lat="47.62884" lon="-2.655">
        <ele>12.4</ele>
        <time>2020-06-06T10:59:26Z</time>
      </trkpt>
      <trkpt lat="47.62885" lon="-2.65508">
        <ele>12.3</ele>
        <time>2020-06-06T10:59:27Z</time>
      </trkpt>
      <trkpt lat="47.62887" lon="-2.65516">
        <ele>12.3</ele>
        <time>2020-06-06T10:59:28Z</time>
      </trkpt>
      <trkpt lat="47.62889" lon="-2.65522">
        <ele>12.2</ele>
        <time>2020-06-06T10:59:29Z</time>
      </trkpt>
      <trkpt lat="47.62893" lon="-2.65529">
        <ele>12.1</ele>
        <time>2020-06-06T10:59:30Z</time>
      </trkpt>
      <trkpt lat="47.62897" lon="-2.65535">
        <ele>12</ele>
        <time>2020-06-06T10:59:31Z</time>
      </trkpt>
      <trkpt lat="47.62901" lon="-2.65541">
        <ele>11.9</ele>
        <time>2020-06-06T10:59:32Z</time>
      </trkpt>
      <trkpt lat="47.62905" lon="-2.65547">
        <ele>11.8</ele>
        <time>2020-06-06T10:59:33Z</time>
      </trkpt>
      <trkpt lat="47.6291" lon="-2.65553">
        <ele>11.7</ele>
        <time>2020-06-06T10:59:34Z</time>
      </trkpt>
      <trkpt lat="47.62914" lon="-2.65559">
        <ele>11.5</ele>
        <time>2020-06-06T10:59:35Z</time>
      </trkpt>
      <trkpt lat="47.62918" lon="-2.65565">
        <ele>11.4</ele>
        <time>2020-06-06T10:59:36Z</time>
      </trkpt>
      <trkpt lat="47.62922" lon="-2.65571">
        <ele>11.4</ele>
        <time>2020-06-06T10:59:37Z</time>
      </trkpt>
      <trkpt lat="47.62926" lon="-2.65578">
        <ele>11.3</ele>
        <time>2020-06-06T10:59:38Z</time>
      </trkpt>
      <trkpt lat="47.6293" lon="-2.65584">
        <ele>11.3</ele>
        <time>2020-06-06T10:59:39Z</time>
      </trkpt>
      <trkpt lat="47.62934" lon="-2.65591">
        <ele>11.2</ele>
        <time>2020-06-06T10:59:40Z</time>
      </trkpt>
      <trkpt lat="47.62939" lon="-2.65597">
        <ele>11.1</ele>
        <time>2020-06-06T10:59:41Z</time>
      </trkpt>
      <trkpt lat="47.62944" lon="-2.65602">
        <ele>11</ele>
        <time>2020-06-06T10:59:42Z</time>
      </trkpt>
      <trkpt lat="47.62948" lon="-2.65608">
        <ele>10.9</ele>
        <time>2020-06-06T10:59:43Z</time>
      </trkpt>
      <trkpt lat="47.62952" lon="-2.65614">
        <ele>10.8</ele>
        <time>2020-06-06T10:59:44Z</time>
      </trkpt>
      <trkpt lat="47.62956" lon="-2.6562">
        <ele>10.7</ele>
        <time>2020-06-06T10:59:45Z</time>
      </trkpt>
      <trkpt lat="47.62961" lon="-2.65627">
        <ele>10.6</ele>
        <time>2020-06-06T10:59:46Z</time>
      </trkpt>
      <trkpt lat="47.62965" lon="-2.65633">
        <ele>10.5</ele>
        <time>2020-06-06T10:59:47Z</time>
      </trkpt>
      <trkpt lat="47.62971" lon="-2.65639">
        <ele>10.4</ele>
        <time>2020-06-06T10:59:48Z</time>
      </trkpt>
      <trkpt lat="47.62975" lon="-2.65646">
        <ele>10.3</ele>
        <time>2020-06-06T10:59:49Z</time>
      </trkpt>
      <trkpt lat="47.6298" lon="-2.65653">
        <ele>10.2</ele>
        <time>2020-06-06T10:59:50Z</time>
      </trkpt>
      <trkpt lat="47.62984" lon="-2.6566">
        <ele>10</ele>
        <time>2020-06-06T10:59:51Z</time>
      </trkpt>
      <trkpt lat="47.62988" lon="-2.65667">
        <ele>9.9</ele>
        <time>2020-06-06T10:59:52Z</time>
      </trkpt>
      <trkpt lat="47.62992" lon="-2.65674">
        <ele>9.8</ele>
        <time>2020-06-06T10:59:53Z</time>
      </trkpt>
      <trkpt lat="47.62997" lon="-2.65681">
        <ele>9.7</ele>
        <time>2020-06-06T10:59:54Z</time>
      </trkpt>
      <trkpt lat="47.63002" lon="-2.65688">
        <ele>9.6</ele>
        <time>2020-06-06T10:59:55Z</time>
      </trkpt>
      <trkpt lat="47.63006" lon="-2.65695">
        <ele>9.5</ele>
        <time>2020-06-06T10:59:56Z</time>
      </trkpt>
      <trkpt lat="47.63011" lon="-2.65701">
        <ele>9.4</ele>
        <time>2020-06-06T10:59:57Z</time>
      </trkpt>
      <trkpt lat="47.63015" lon="-2.65708">
        <ele>9.2</ele>
        <time>2020-06-06T10:59:58Z</time>
      </trkpt>
      <trkpt lat="47.63019" lon="-2.65715">
        <ele>9.1</ele>
        <time>2020-06-06T10:59:59Z</time>
      </trkpt>
      <trkpt lat="47.63023" lon="-2.65722">
        <ele>9.1</ele>
        <time>2020-06-06T11:00:00Z</time>
      </trkpt>
      <trkpt lat="47.63028" lon="-2.65729">
        <ele>9.1</ele>
        <time>2020-06-06T11:00:01Z</time>
      </trkpt>
      <trkpt lat="47.63032" lon="-2.65736">
        <ele>9</ele>
        <time>2020-06-06T11:00:02Z</time>
      </trkpt>
      <trkpt lat="47.63036" lon="-2.65743">
        <ele>8.9</ele>
        <time>2020-06-06T11:00:03Z</time>
      </trkpt>
      <trkpt lat="47.63039" lon="-2.6575">
        <ele>8.8</ele>
        <time>2020-06-06T11:00:04Z</time>
      </trkpt>
      <trkpt lat="47.63043" lon="-2.65757">
        <ele>8.7</ele>
        <time>2020-06-06T11:00:05Z</time>
      </trkpt>
      <trkpt lat="47.63046" lon="-2.65764">
        <ele>8.7</ele>
        <time>2020-06-06T11:00:06Z</time>
      </trkpt>
      <trkpt lat="47.63049" lon="-2.65771">
        <ele>8.6</ele>
        <time>2020-06-06T11:00:07Z</time>
      </trkpt>
      <trkpt lat="47.63052" lon="-2.65778">
        <ele>8.5</ele>
        <time>2020-06-06T11:00:08Z</time>
      </trkpt>
      <trkpt lat="47.63056" lon="-2.65785">
        <ele>8.5</ele>
        <time>2020-06-06T11:00:09Z</time>
      </trkpt>
      <trkpt lat="47.63059" lon="-2.65791">
        <ele>8.5</ele>
        <time>2020-06-06T11:00:10Z</time>
      </trkpt>
      <trkpt lat="47.63063" lon="-2.65798">
        <ele>8.4</ele>
        <time>2020-06-06T11:00:11Z</time>
      </trkpt>
      <trkpt lat="47.63067" lon="-2.65804">
        <ele>8.5</ele>
        <time>2020-06-06T11:00:12Z</time>
      </trkpt>
      <trkpt lat="47.6307" lon="-2.65811">
        <ele>8.5</ele>
        <time>2020-06-06T11:00:13Z</time>
      </trkpt>
      <trkpt lat="47.63074" lon="-2.65818">
        <ele>8.4</ele>
        <time>2020-06-06T11:00:14Z</time>
      </trkpt>
      <trkpt lat="47.63077" lon="-2.65826">
        <ele>8.3</ele>
        <time>2020-06-06T11:00:15Z</time>
      </trkpt>
      <trkpt lat="47.6308" lon="-2.65834">
        <ele>8.3</ele>
        <time>2020-06-06T11:00:16Z</time>
      </trkpt>
      <trkpt lat="47.63083" lon="-2.65842">
        <ele>8.2</ele>
        <time>2020-06-06T11:00:17Z</time>
      </trkpt>
      <trkpt lat="47.63087" lon="-2.6585">
        <ele>8.1</ele>
        <time>2020-06-06T11:00:18Z</time>
      </trkpt>
      <trkpt lat="47.63091" lon="-2.65857">
        <ele>8.1</ele>
        <time>2020-06-06T11:00:19Z</time>
      </trkpt>
      <trkpt lat="47.63094" lon="-2.65866">
        <ele>8.1</ele>
        <time>2020-06-06T11:00:20Z</time>
      </trkpt>
      <trkpt lat="47.63097" lon="-2.65874">
        <ele>8.1</ele>
        <time>2020-06-06T11:00:21Z</time>
      </trkpt>
      <trkpt lat="47.631" lon="-2.65882">
        <ele>8.1</ele>
        <time>2020-06-06T11:00:22Z</time>
      </trkpt>
      <trkpt lat="47.63103" lon="-2.65889">
        <ele>8.1</ele>
        <time>2020-06-06T11:00:23Z</time>
      </trkpt>
      <trkpt lat="47.63106" lon="-2.65897">
        <ele>8.1</ele>
        <time>2020-06-06T11:00:24Z</time>
      </trkpt>
      <trkpt lat="47.63109" lon="-2.65905">
        <ele>8.1</ele>
        <time>2020-06-06T11:00:25Z</time>
      </trkpt>
      <trkpt lat="47.63112" lon="-2.65912">
        <ele>8.1</ele>
        <time>2020-06-06T11:00:26Z</time>
      </trkpt>
      <trkpt lat="47.63114" lon="-2.6592">
        <ele>8.1</ele>
        <time>2020-06-06T11:00:27Z</time>
      </trkpt>
      <trkpt lat="47.63117" lon="-2.65928">
        <ele>8.1</ele>
        <time>2020-06-06T11:00:28Z</time>
      </trkpt>
      <trkpt lat="47.63119" lon="-2.65937">
        <ele>8.1</ele>
        <time>2020-06-06T11:00:29Z</time>
      </trkpt>
      <trkpt lat="47.63121" lon="-2.65946">
        <ele>8.1</ele>
        <time>2020-06-06T11:00:30Z</time>
      </trkpt>
      <trkpt lat="47.63124" lon="-2.65954">
        <ele>8.1</ele>
        <time>2020-06-06T11:00:31Z</time>
      </trkpt>
      <trkpt lat="47.63126" lon="-2.65963">
        <ele>8</ele>
        <time>2020-06-06T11:00:32Z</time>
      </trkpt>
      <trkpt lat="47.63129" lon="-2.65971">
        <ele>8</ele>
        <time>2020-06-06T11:00:33Z</time>
      </trkpt>
      <trkpt lat="47.63132" lon="-2.6598">
        <ele>8</ele>
        <time>2020-06-06T11:00:34Z</time>
      </trkpt>
      <trkpt lat="47.63135" lon="-2.65988">
        <ele>8</ele>
        <time>2020-06-06T11:00:35Z</time>
      </trkpt>
      <trkpt lat="47.63137" lon="-2.65996">
        <ele>8</ele>
        <time>2020-06-06T11:00:36Z</time>
      </trkpt>
      <trkpt lat="47.63139" lon="-2.66005">
        <ele>8</ele>
        <time>2020-06-06T11:00:37Z</time>
      </trkpt>
      <trkpt lat="47.63141" lon="-2.66013">
        <ele>8</ele>
        <time>2020-06-06T11:00:38Z</time>
      </trkpt>
      <trkpt lat="47.63143" lon="-2.66022">
        <ele>8</ele>
        <time>2020-06-06T11:00:39Z</time>
      </trkpt>
      <trkpt lat="47.63145" lon="-2.6603">
        <ele>8</ele>
        <time>2020-06-06T11:00:40Z</time>
      </trkpt>
      <trkpt lat="47.63147" lon="-2.66038">
        <ele>8</ele>
        <time>2020-06-06T11:00:41Z</time>
      </trkpt>
      <trkpt lat="47.63149" lon="-2.66046">
        <ele>8.1</ele>
        <time>2020-06-06T11:00:42Z</time>
      </trkpt>
      <trkpt lat="47.63151" lon="-2.66055">
        <ele>8.1</ele>
        <time>2020-06-06T11:00:43Z</time>
      </trkpt>
      <trkpt lat="47.63152" lon="-2.66064">
        <ele>8.1</ele>
        <time>2020-06-06T11:00:44Z</time>
      </trkpt>
      <trkpt lat="47.63154" lon="-2.66072">
        <ele>8</ele>
        <time>2020-06-06T11:00:45Z</time>
      </trkpt>
      <trkpt lat="47.63154" lon="-2.66081">
        <ele>8</ele>
        <time>2020-06-06T11:00:46Z</time>
      </trkpt>
      <trkpt lat="47.63156" lon="-2.6609">
        <ele>8</ele>
        <time>2020-06-06T11:00:47Z</time>
      </trkpt>
      <trkpt lat="47.63157" lon="-2.66099">
        <ele>7.9</ele>
        <time>2020-06-06T11:00:48Z</time>
      </trkpt>
      <trkpt lat="47.63158" lon="-2.6611">
        <ele>7.9</ele>
        <time>2020-06-06T11:00:49Z</time>
      </trkpt>
      <trkpt lat="47.6316" lon="-2.6612">
        <ele>7.9</ele>
        <time>2020-06-06T11:00:50Z</time>
      </trkpt>
      <trkpt lat="47.63161" lon="-2.6613">
        <ele>7.9</ele>
        <time>2020-06-06T11:00:51Z</time>
      </trkpt>
      <trkpt lat="47.63162" lon="-2.66139">
        <ele>7.9</ele>
        <time>2020-06-06T11:00:52Z</time>
      </trkpt>
      <trkpt lat="47.63163" lon="-2.66148">
        <ele>7.9</ele>
        <time>2020-06-06T11:00:53Z</time>
      </trkpt>
      <trkpt lat="47.63165" lon="-2.66158">
        <ele>8</ele>
        <time>2020-06-06T11:00:54Z</time>
      </trkpt>
      <trkpt lat="47.63166" lon="-2.66168">
        <ele>8.1</ele>
        <time>2020-06-06T11:00:55Z</time>
      </trkpt>
      <trkpt lat="47.63167" lon="-2.66177">
        <ele>8.1</ele>
        <time>2020-06-06T11:00:56Z</time>
      </trkpt>
      <trkpt lat="47.6317" lon="-2.66186">
        <ele>8.1</ele>
        <time>2020-06-06T11:00:57Z</time>
      </trkpt>
      <trkpt lat="47.63172" lon="-2.66194">
        <ele>8.1</ele>
        <time>2020-06-06T11:00:58Z</time>
      </trkpt>
      <trkpt lat="47.63175" lon="-2.66201">
        <ele>8.1</ele>
        <time>2020-06-06T11:00:59Z</time>
      </trkpt>
      <trkpt lat="47.63179" lon="-2.66208">
        <ele>8.1</ele>
        <time>2020-06-06T11:01:00Z</time>
      </trkpt>
      <trkpt lat="47.63183" lon="-2.66215">
        <ele>9.6</ele>
        <time>2020-06-06T11:01:01Z</time>
      </trkpt>
      <trkpt lat="47.63186" lon="-2.66221">
        <ele>9.3</ele>
        <time>2020-06-06T11:01:02Z</time>
      </trkpt>
      <trkpt lat="47.63188" lon="-2.66227">
        <ele>9</ele>
        <time>2020-06-06T11:01:03Z</time>
      </trkpt>
      <trkpt lat="47.63187" lon="-2.66234">
        <ele>8.9</ele>
        <time>2020-06-06T11:01:04Z</time>
      </trkpt>
      <trkpt lat="47.63185" lon="-2.66242">
        <ele>8.7</ele>
        <time>2020-06-06T11:01:05Z</time>
      </trkpt>
      <trkpt lat="47.63184" lon="-2.6625">
        <ele>8.6</ele>
        <time>2020-06-06T11:01:06Z</time>
      </trkpt>
      <trkpt lat="47.63182" lon="-2.66259">
        <ele>8.4</ele>
        <time>2020-06-06T11:01:07Z</time>
      </trkpt>
      <trkpt lat="47.63181" lon="-2.66268">
        <ele>8.3</ele>
        <time>2020-06-06T11:01:08Z</time>
      </trkpt>
      <trkpt lat="47.6318" lon="-2.66277">
        <ele>8.1</ele>
        <time>2020-06-06T11:01:09Z</time>
      </trkpt>
      <trkpt lat="47.63179" lon="-2.66286">
        <ele>8</ele>
        <time>2020-06-06T11:01:10Z</time>
      </trkpt>
      <trkpt lat="47.63179" lon="-2.66297">
        <ele>8</ele>
        <time>2020-06-06T11:01:11Z</time>
      </trkpt>
      <trkpt lat="47.63179" lon="-2.66307">
        <ele>8</ele>
        <time>2020-06-06T11:01:12Z</time>
      </trkpt>
      <trkpt lat="47.63179" lon="-2.66315">
        <ele>8</ele>
        <time>2020-06-06T11:01:13Z</time>
      </trkpt>
      <trkpt lat="47.63181" lon="-2.66322">
        <ele>8.1</ele>
        <time>2020-06-06T11:01:14Z</time>
      </trkpt>
      <trkpt lat="47.63182" lon="-2.6633">
        <ele>8.1</ele>
        <time>2020-06-06T11:01:15Z</time>
      </trkpt>
      <trkpt lat="47.63183" lon="-2.6634">
        <ele>8.2</ele>
        <time>2020-06-06T11:01:16Z</time>
      </trkpt>
      <trkpt lat="47.63184" lon="-2.66349">
        <ele>8.3</ele>
        <time>2020-06-06T11:01:17Z</time>
      </trkpt>
      <trkpt lat="47.63186" lon="-2.66358">
        <ele>8.4</ele>
        <time>2020-06-06T11:01:18Z</time>
      </trkpt>
      <trkpt lat="47.63187" lon="-2.66366">
        <ele>8.5</ele>
        <time>2020-06-06T11:01:19Z</time>
      </trkpt>
      <trkpt lat="47.63188" lon="-2.66373">
        <ele>8.6</ele>
        <time>2020-06-06T11:01:20Z</time>
      </trkpt>
      <trkpt lat="47.63189" lon="-2.6638">
        <ele>8.6</ele>
        <time>2020-06-06T11:01:21Z</time>
      </trkpt>
      <trkpt lat="47.63189" lon="-2.66388">
        <ele>8.7</ele>
        <time>2020-06-06T11:01:22Z</time>
      </trkpt>
      <trkpt lat="47.6319" lon="-2.66396">
        <ele>8.8</ele>
        <time>2020-06-06T11:01:23Z</time>
      </trkpt>
      <trkpt lat="47.63191" lon="-2.66404">
        <ele>8.9</ele>
        <time>2020-06-06T11:01:24Z</time>
      </trkpt>
      <trkpt lat="47.63192" lon="-2.66413">
        <ele>9</ele>
        <time>2020-06-06T11:01:25Z</time>
      </trkpt>
      <trkpt lat="47.63192" lon="-2.66421">
        <ele>9.1</ele>
        <time>2020-06-06T11:01:26Z</time>
      </trkpt>
      <trkpt lat="47.63194" lon="-2.66431">
        <ele>9.3</ele>
        <time>2020-06-06T11:01:27Z</time>
      </trkpt>
      <trkpt lat="47.63195" lon="-2.6644">
        <ele>9.4</ele>
        <time>2020-06-06T11:01:28Z</time>
      </trkpt>
      <trkpt lat="47.63196" lon="-2.66449">
        <ele>9.6</ele>
        <time>2020-06-06T11:01:29Z</time>
      </trkpt>
      <trkpt lat="47.63197" lon="-2.66457">
        <ele>9.7</ele>
        <time>2020-06-06T11:01:30Z</time>
      </trkpt>
      <trkpt lat="47.63197" lon="-2.66467">
        <ele>9.8</ele>
        <time>2020-06-06T11:01:31Z</time>
      </trkpt>
      <trkpt lat="47.63199" lon="-2.66476">
        <ele>9.9</ele>
        <time>2020-06-06T11:01:32Z</time>
      </trkpt>
      <trkpt lat="47.632" lon="-2.66483">
        <ele>10</ele>
        <time>2020-06-06T11:01:33Z</time>
      </trkpt>
      <trkpt lat="47.632" lon="-2.66489">
        <ele>10.1</ele>
        <time>2020-06-06T11:01:34Z</time>
      </trkpt>
      <trkpt lat="47.63201" lon="-2.66496">
        <ele>10.2</ele>
        <time>2020-06-06T11:01:35Z</time>
      </trkpt>
      <trkpt lat="47.63201" lon="-2.66504">
        <ele>10.4</ele>
        <time>2020-06-06T11:01:36Z</time>
      </trkpt>
      <trkpt lat="47.63202" lon="-2.66512">
        <ele>10.5</ele>
        <time>2020-06-06T11:01:37Z</time>
      </trkpt>
      <trkpt lat="47.63204" lon="-2.6652">
        <ele>10.7</ele>
        <time>2020-06-06T11:01:38Z</time>
      </trkpt>
      <trkpt lat="47.63205" lon="-2.66528">
        <ele>10.8</ele>
        <time>2020-06-06T11:01:39Z</time>
      </trkpt>
      <trkpt lat="47.63206" lon="-2.66538">
        <ele>11</ele>
        <time>2020-06-06T11:01:40Z</time>
      </trkpt>
      <trkpt lat="47.63207" lon="-2.66546">
        <ele>11.2</ele>
        <time>2020-06-06T11:01:41Z</time>
      </trkpt>
      <trkpt lat="47.63208" lon="-2.66554">
        <ele>11.4</ele>
        <time>2020-06-06T11:01:42Z</time>
      </trkpt>
      <trkpt lat="47.6321" lon="-2.66561">
        <ele>11.5</ele>
        <time>2020-06-06T11:01:43Z</time>
      </trkpt>
      <trkpt lat="47.63211" lon="-2.66569">
        <ele>11.7</ele>
        <time>2020-06-06T11:01:44Z</time>
      </trkpt>
      <trkpt lat="47.63211" lon="-2.66577">
        <ele>11.8</ele>
        <time>2020-06-06T11:01:45Z</time>
      </trkpt>
      <trkpt lat="47.63212" lon="-2.66584">
        <ele>11.9</ele>
        <time>2020-06-06T11:01:46Z</time>
      </trkpt>
      <trkpt lat="47.63214" lon="-2.66591">
        <ele>12</ele>
        <time>2020-06-06T11:01:47Z</time>
      </trkpt>
      <trkpt lat="47.63215" lon="-2.66599">
        <ele>12.1</ele>
        <time>2020-06-06T11:01:48Z</time>
      </trkpt>
      <trkpt lat="47.63215" lon="-2.66606">
        <ele>12.2</ele>
        <time>2020-06-06T11:01:49Z</time>
      </trkpt>
      <trkpt lat="47.63216" lon="-2.66614">
        <ele>12.3</ele>
        <time>2020-06-06T11:01:50Z</time>
      </trkpt>
      <trkpt lat="47.63216" lon="-2.66622">
        <ele>12.4</ele>
        <time>2020-06-06T11:01:51Z</time>
      </trkpt>
      <trkpt lat="47.63217" lon="-2.66629">
        <ele>12.4</ele>
        <time>2020-06-06T11:01:52Z</time>
      </trkpt>
      <trkpt lat="47.63217" lon="-2.66637">
        <ele>12.5</ele>
        <time>2020-06-06T11:01:53Z</time>
      </trkpt>
      <trkpt lat="47.63218" lon="-2.66644">
        <ele>12.5</ele>
        <time>2020-06-06T11:01:54Z</time>
      </trkpt>
      <trkpt lat="47.63219" lon="-2.66652">
        <ele>12.5</ele>
        <time>2020-06-06T11:01:55Z</time>
      </trkpt>
      <trkpt lat="47.63219" lon="-2.66661">
        <ele>12.6</ele>
        <time>2020-06-06T11:01:56Z</time>
      </trkpt>
      <trkpt lat="47.63219" lon="-2.66667">
        <ele>12.6</ele>
        <time>2020-06-06T11:01:57Z</time>
      </trkpt>
      <trkpt lat="47.6322" lon="-2.66674">
        <ele>12.7</ele>
        <time>2020-06-06T11:01:58Z</time>
      </trkpt>
      <trkpt lat="47.63221" lon="-2.66682">
        <ele>12.7</ele>
        <time>2020-06-06T11:01:59Z</time>
      </trkpt>
      <trkpt lat="47.63222" lon="-2.6669">
        <ele>12.8</ele>
        <time>2020-06-06T11:02:00Z</time>
      </trkpt>
      <trkpt lat="47.63223" lon="-2.66698">
        <ele>12.9</ele>
        <time>2020-06-06T11:02:01Z</time>
      </trkpt>
      <trkpt lat="47.63226" lon="-2.66705">
        <ele>13</ele>
        <time>2020-06-06T11:02:02Z</time>
      </trkpt>
      <trkpt lat="47.6323" lon="-2.66711">
        <ele>13.3</ele>
        <time>2020-06-06T11:02:03Z</time>
      </trkpt>
      <trkpt lat="47.63233" lon="-2.66716">
        <ele>13.4</ele>
        <time>2020-06-06T11:02:04Z</time>
      </trkpt>
      <trkpt lat="47.63237" lon="-2.66722">
        <ele>13.6</ele>
        <time>2020-06-06T11:02:05Z</time>
      </trkpt>
      <trkpt lat="47.63239" lon="-2.66729">
        <ele>13.7</ele>
        <time>2020-06-06T11:02:06Z</time>
      </trkpt>
      <trkpt lat="47.6324" lon="-2.66737">
        <ele>13.7</ele>
        <time>2020-06-06T11:02:07Z</time>
      </trkpt>
      <trkpt lat="47.63241" lon="-2.66744">
        <ele>13.8</ele>
        <time>2020-06-06T11:02:08Z</time>
      </trkpt>
      <trkpt lat="47.63242" lon="-2.66752">
        <ele>13.9</ele>
        <time>2020-06-06T11:02:09Z</time>
      </trkpt>
      <trkpt lat="47.63243" lon="-2.66759">
        <ele>14</ele>
        <time>2020-06-06T11:02:10Z</time>
      </trkpt>
      <trkpt lat="47.63244" lon="-2.66765">
        <ele>14.1</ele>
        <time>2020-06-06T11:02:11Z</time>
      </trkpt>
      <trkpt lat="47.63245" lon="-2.66771">
        <ele>14.2</ele>
        <time>2020-06-06T11:02:12Z</time>
      </trkpt>
      <trkpt lat="47.63246" lon="-2.66777">
        <ele>14.3</ele>
        <time>2020-06-06T11:02:13Z</time>
      </trkpt>
      <trkpt lat="47.63247" lon="-2.66783">
        <ele>14.4</ele>
        <time>2020-06-06T11:02:14Z</time>
      </trkpt>
      <trkpt lat="47.63248" lon="-2.6679">
        <ele>14.5</ele>
        <time>2020-06-06T11:02:15Z</time>
      </trkpt>
      <trkpt lat="47.6325" lon="-2.66796">
        <ele>14.6</ele>
        <time>2020-06-06T11:02:16Z</time>
      </trkpt>
      <trkpt lat="47.63251" lon="-2.66803">
        <ele>14.7</ele>
        <time>2020-06-06T11:02:17Z</time>
      </trkpt>
      <trkpt lat="47.63251" lon="-2.6681">
        <ele>14.8</ele>
        <time>2020-06-06T11:02:18Z</time>
      </trkpt>
      <trkpt lat="47.63251" lon="-2.66817">
        <ele>14.9</ele>
        <time>2020-06-06T11:02:19Z</time>
      </trkpt>
      <trkpt lat="47.63251" lon="-2.66823">
        <ele>14.9</ele>
        <time>2020-06-06T11:02:20Z</time>
      </trkpt>
      <trkpt lat="47.6325" lon="-2.66829">
        <ele>15</ele>
        <time>2020-06-06T11:02:21Z</time>
      </trkpt>
      <trkpt lat="47.6325" lon="-2.66835">
        <ele>15</ele>
        <time>2020-06-06T11:02:22Z</time>
      </trkpt>
      <trkpt lat="47.63251" lon="-2.66842">
        <ele>15.1</ele>
        <time>2020-06-06T11:02:23Z</time>
      </trkpt>
      <trkpt lat="47.63251" lon="-2.66849">
        <ele>15.1</ele>
        <time>2020-06-06T11:02:24Z</time>
      </trkpt>
      <trkpt lat="47.63252" lon="-2.66855">
        <ele>15.2</ele>
        <time>2020-06-06T11:02:25Z</time>
      </trkpt>
      <trkpt lat="47.63253" lon="-2.66863">
        <ele>15.2</ele>
        <time>2020-06-06T11:02:26Z</time>
      </trkpt>
      <trkpt lat="47.63253" lon="-2.6687">
        <ele>15.3</ele>
        <time>2020-06-06T11:02:27Z</time>
      </trkpt>
      <trkpt lat="47.63254" lon="-2.66877">
        <ele>15.3</ele>
        <time>2020-06-06T11:02:28Z</time>
      </trkpt>
      <trkpt lat="47.63254" lon="-2.66884">
        <ele>15.4</ele>
        <time>2020-06-06T11:02:29Z</time>
      </trkpt>
      <trkpt lat="47.63254" lon="-2.66892">
        <ele>15.4</ele>
        <time>2020-06-06T11:02:30Z</time>
      </trkpt>
      <trkpt lat="47.63254" lon="-2.66899">
        <ele>15.5</ele>
        <time>2020-06-06T11:02:31Z</time>
      </trkpt>
      <trkpt lat="47.63255" lon="-2.66906">
        <ele>15.5</ele>
        <time>2020-06-06T11:02:32Z</time>
      </trkpt>
      <trkpt lat="47.63257" lon="-2.66912">
        <ele>15.6</ele>
        <time>2020-06-06T11:02:33Z</time>
      </trkpt>
      <trkpt lat="47.63259" lon="-2.66917">
        <ele>15.6</ele>
        <time>2020-06-06T11:02:34Z</time>
      </trkpt>
      <trkpt lat="47.63262" lon="-2.66921">
        <ele>15.6</ele>
        <time>2020-06-06T11:02:35Z</time>
      </trkpt>
      <trkpt lat="47.63264" lon="-2.66925">
        <ele>15.5</ele>
        <time>2020-06-06T11:02:36Z</time>
      </trkpt>
      <trkpt lat="47.63266" lon="-2.66932">
        <ele>15.4</ele>
        <time>2020-06-06T11:02:37Z</time>
      </trkpt>
      <trkpt lat="47.63266" lon="-2.66939">
        <ele>15.4</ele>
        <time>2020-06-06T11:02:38Z</time>
      </trkpt>
      <trkpt lat="47.63266" lon="-2.66947">
        <ele>15.4</ele>
        <time>2020-06-06T11:02:39Z</time>
      </trkpt>
      <trkpt lat="47.63266" lon="-2.66954">
        <ele>15.3</ele>
        <time>2020-06-06T11:02:40Z</time>
      </trkpt>
      <trkpt lat="47.63266" lon="-2.66962">
        <ele>15.3</ele>
        <time>2020-06-06T11:02:41Z</time>
      </trkpt>
      <trkpt lat="47.63266" lon="-2.66968">
        <ele>15.3</ele>
        <time>2020-06-06T11:02:42Z</time>
      </trkpt>
      <trkpt lat="47.63267" lon="-2.66974">
        <ele>15.3</ele>
        <time>2020-06-06T11:02:43Z</time>
      </trkpt>
      <trkpt lat="47.63266" lon="-2.6698">
        <ele>15.3</ele>
        <time>2020-06-06T11:02:44Z</time>
      </trkpt>
      <trkpt lat="47.63267" lon="-2.66986">
        <ele>15.3</ele>
        <time>2020-06-06T11:02:45Z</time>
      </trkpt>
      <trkpt lat="47.63267" lon="-2.66992">
        <ele>15.3</ele>
        <time>2020-06-06T11:02:46Z</time>
      </trkpt>
      <trkpt lat="47.63268" lon="-2.67">
        <ele>15.4</ele>
        <time>2020-06-06T11:02:47Z</time>
      </trkpt>
      <trkpt lat="47.63269" lon="-2.67008">
        <ele>15.4</ele>
        <time>2020-06-06T11:02:48Z</time>
      </trkpt>
      <trkpt lat="47.6327" lon="-2.67016">
        <ele>15.4</ele>
        <time>2020-06-06T11:02:49Z</time>
      </trkpt>
      <trkpt lat="47.63271" lon="-2.67023">
        <ele>15.5</ele>
        <time>2020-06-06T11:02:50Z</time>
      </trkpt>
      <trkpt lat="47.63272" lon="-2.67031">
        <ele>15.5</ele>
        <time>2020-06-06T11:02:51Z</time>
      </trkpt>
      <trkpt lat="47.63274" lon="-2.6704">
        <ele>15.5</ele>
        <time>2020-06-06T11:02:52Z</time>
      </trkpt>
      <trkpt lat="47.63274" lon="-2.67047">
        <ele>15.6</ele>
        <time>2020-06-06T11:02:53Z</time>
      </trkpt>
      <trkpt lat="47.63274" lon="-2.67054">
        <ele>15.6</ele>
        <time>2020-06-06T11:02:54Z</time>
      </trkpt>
      <trkpt lat="47.63275" lon="-2.67062">
        <ele>15.7</ele>
        <time>2020-06-06T11:02:55Z</time>
      </trkpt>
      <trkpt lat="47.63277" lon="-2.67071">
        <ele>15.8</ele>
        <time>2020-06-06T11:02:56Z</time>
      </trkpt>
      <trkpt lat="47.63278" lon="-2.67078">
        <ele>15.9</ele>
        <time>2020-06-06T11:02:57Z</time>
      </trkpt>
      <trkpt lat="47.63279" lon="-2.67087">
        <ele>16</ele>
        <time>2020-06-06T11:02:58Z</time>
      </trkpt>
      <trkpt lat="47.6328" lon="-2.67094">
        <ele>16.1</ele>
        <time>2020-06-06T11:02:59Z</time>
      </trkpt>
      <trkpt lat="47.63281" lon="-2.67101">
        <ele>16.2</ele>
        <time>2020-06-06T11:03:00Z</time>
      </trkpt>
      <trkpt lat="47.63282" lon="-2.67108">
        <ele>16.3</ele>
        <time>2020-06-06T11:03:01Z</time>
      </trkpt>
      <trkpt lat="47.63283" lon="-2.67115">
        <ele>16.4</ele>
        <time>2020-06-06T11:03:02Z</time>
      </trkpt>
      <trkpt lat="47.63283" lon="-2.67123">
        <ele>16.5</ele>
        <time>2020-06-06T11:03:03Z</time>
      </trkpt>
      <trkpt lat="47.63284" lon="-2.6713">
        <ele>16.6</ele>
        <time>2020-06-06T11:03:04Z</time>
      </trkpt>
      <trkpt lat="47.63285" lon="-2.67137">
        <ele>16.8</ele>
        <time>2020-06-06T11:03:05Z</time>
      </trkpt>
      <trkpt lat="47.63285" lon="-2.67145">
        <ele>16.9</ele>
        <time>2020-06-06T11:03:06Z</time>
      </trkpt>
      <trkpt lat="47.63286" lon="-2.67152">
        <ele>17</ele>
        <time>2020-06-06T11:03:07Z</time>
      </trkpt>
      <trkpt lat="47.63286" lon="-2.67159">
        <ele>17.1</ele>
        <time>2020-06-06T11:03:08Z</time>
      </trkpt>
      <trkpt lat="47.63287" lon="-2.67166">
        <ele>17.3</ele>
        <time>2020-06-06T11:03:09Z</time>
      </trkpt>
      <trkpt lat="47.63287" lon="-2.67173">
        <ele>17.4</ele>
        <time>2020-06-06T11:03:10Z</time>
      </trkpt>
      <trkpt lat="47.63287" lon="-2.67179">
        <ele>17.5</ele>
        <time>2020-06-06T11:03:11Z</time>
      </trkpt>
      <trkpt lat="47.63288" lon="-2.67186">
        <ele>17.6</ele>
        <time>2020-06-06T11:03:12Z</time>
      </trkpt>
      <trkpt lat="47.63288" lon="-2.67192">
        <ele>17.7</ele>
        <time>2020-06-06T11:03:13Z</time>
      </trkpt>
      <trkpt lat="47.6329" lon="-2.67199">
        <ele>17.8</ele>
        <time>2020-06-06T11:03:14Z</time>
      </trkpt>
      <trkpt lat="47.63291" lon="-2.67206">
        <ele>18</ele>
        <time>2020-06-06T11:03:15Z</time>
      </trkpt>
      <trkpt lat="47.63291" lon="-2.67213">
        <ele>18.1</ele>
        <time>2020-06-06T11:03:16Z</time>
      </trkpt>
      <trkpt lat="47.63292" lon="-2.67221">
        <ele>18.2</ele>
        <time>2020-06-06T11:03:17Z</time>
      </trkpt>
      <trkpt lat="47.63293" lon="-2.67228">
        <ele>18.4</ele>
        <time>2020-06-06T11:03:18Z</time>
      </trkpt>
      <trkpt lat="47.63294" lon="-2.67235">
        <ele>18.5</ele>
        <time>2020-06-06T11:03:19Z</time>
      </trkpt>
      <trkpt lat="47.63295" lon="-2.67243">
        <ele>18.6</ele>
        <time>2020-06-06T11:03:20Z</time>
      </trkpt>
      <trkpt lat="47.63296" lon="-2.67249">
        <ele>18.8</ele>
        <time>2020-06-06T11:03:21Z</time>
      </trkpt>
      <trkpt lat="47.63297" lon="-2.67256">
        <ele>18.9</ele>
        <time>2020-06-06T11:03:22Z</time>
      </trkpt>
      <trkpt lat="47.63297" lon="-2.67262">
        <ele>18.9</ele>
        <time>2020-06-06T11:03:23Z</time>
      </trkpt>
      <trkpt lat="47.63298" lon="-2.67269">
        <ele>19</ele>
        <time>2020-06-06T11:03:24Z</time>
      </trkpt>
      <trkpt lat="47.63298" lon="-2.67276">
        <ele>19.1</ele>
        <time>2020-06-06T11:03:25Z</time>
      </trkpt>
      <trkpt lat="47.63299" lon="-2.67283">
        <ele>19.3</ele>
        <time>2020-06-06T11:03:26Z</time>
      </trkpt>
      <trkpt lat="47.633" lon="-2.6729">
        <ele>19.4</ele>
        <time>2020-06-06T11:03:27Z</time>
      </trkpt>
      <trkpt lat="47.63302" lon="-2.67297">
        <ele>19.5</ele>
        <time>2020-06-06T11:03:28Z</time>
      </trkpt>
      <trkpt lat="47.63304" lon="-2.67305">
        <ele>19.6</ele>
        <time>2020-06-06T11:03:29Z</time>
      </trkpt>
      <trkpt lat="47.63306" lon="-2.67312">
        <ele>19.7</ele>
        <time>2020-06-06T11:03:30Z</time>
      </trkpt>
      <trkpt lat="47.63308" lon="-2.67318">
        <ele>19.8</ele>
        <time>2020-06-06T11:03:31Z</time>
      </trkpt>
      <trkpt lat="47.63311" lon="-2.67324">
        <ele>19.8</ele>
        <time>2020-06-06T11:03:32Z</time>
      </trkpt>
      <trkpt lat="47.63313" lon="-2.67331">
        <ele>19.9</ele>
        <time>2020-06-06T11:03:33Z</time>
      </trkpt>
      <trkpt lat="47.63315" lon="-2.67339">
        <ele>20</ele>
        <time>2020-06-06T11:03:34Z</time>
      </trkpt>
      <trkpt lat="47.63317" lon="-2.67346">
        <ele>20.1</ele>
        <time>2020-06-06T11:03:35Z</time>
      </trkpt>
      <trkpt lat="47.63318" lon="-2.67354">
        <ele>20.2</ele>
        <time>2020-06-06T11:03:36Z</time>
      </trkpt>
      <trkpt lat="47.6332" lon="-2.67362">
        <ele>20.3</ele>
        <time>2020-06-06T11:03:37Z</time>
      </trkpt>
      <trkpt lat="47.63322" lon="-2.6737">
        <ele>20.3</ele>
        <time>2020-06-06T11:03:38Z</time>
      </trkpt>
      <trkpt lat="47.63324" lon="-2.67377">
        <ele>20.4</ele>
        <time>2020-06-06T11:03:39Z</time>
      </trkpt>
      <trkpt lat="47.63326" lon="-2.67385">
        <ele>20.4</ele>
        <time>2020-06-06T11:03:40Z</time>
      </trkpt>
      <trkpt lat="47.63328" lon="-2.67392">
        <ele>20.4</ele>
        <time>2020-06-06T11:03:41Z</time>
      </trkpt>
      <trkpt lat="47.63331" lon="-2.67399">
        <ele>20.5</ele>
        <time>2020-06-06T11:03:42Z</time>
      </trkpt>
      <trkpt lat="47.63333" lon="-2.67406">
        <ele>20.5</ele>
        <time>2020-06-06T11:03:43Z</time>
      </trkpt>
      <trkpt lat="47.63335" lon="-2.67413">
        <ele>20.5</ele>
        <time>2020-06-06T11:03:44Z</time>
      </trkpt>
      <trkpt lat="47.63336" lon="-2.6742">
        <ele>20.4</ele>
        <time>2020-06-06T11:03:45Z</time>
      </trkpt>
      <trkpt lat="47.63339" lon="-2.67428">
        <ele>20.4</ele>
        <time>2020-06-06T11:03:46Z</time>
      </trkpt>
      <trkpt lat="47.63341" lon="-2.67435">
        <ele>20.4</ele>
        <time>2020-06-06T11:03:47Z</time>
      </trkpt>
      <trkpt lat="47.63343" lon="-2.67443">
        <ele>20.4</ele>
        <time>2020-06-06T11:03:48Z</time>
      </trkpt>
      <trkpt lat="47.63345" lon="-2.67451">
        <ele>20.4</ele>
        <time>2020-06-06T11:03:49Z</time>
      </trkpt>
      <trkpt lat="47.63348" lon="-2.67459">
        <ele>20.4</ele>
        <time>2020-06-06T11:03:50Z</time>
      </trkpt>
      <trkpt lat="47.63349" lon="-2.67467">
        <ele>20.4</ele>
        <time>2020-06-06T11:03:51Z</time>
      </trkpt>
      <trkpt lat="47.63351" lon="-2.67475">
        <ele>20.4</ele>
        <time>2020-06-06T11:03:52Z</time>
      </trkpt>
      <trkpt lat="47.63352" lon="-2.67482">
        <ele>20.4</ele>
        <time>2020-06-06T11:03:53Z</time>
      </trkpt>
      <trkpt lat="47.63354" lon="-2.6749">
        <ele>20.4</ele>
        <time>2020-06-06T11:03:54Z</time>
      </trkpt>
      <trkpt lat="47.63357" lon="-2.67497">
        <ele>20.4</ele>
        <time>2020-06-06T11:03:55Z</time>
      </trkpt>
      <trkpt lat="47.63359" lon="-2.67505">
        <ele>20.4</ele>
        <time>2020-06-06T11:03:56Z</time>
      </trkpt>
      <trkpt lat="47.63361" lon="-2.67512">
        <ele>20.4</ele>
        <time>2020-06-06T11:03:57Z</time>
      </trkpt>
      <trkpt lat="47.63363" lon="-2.67519">
        <ele>20.3</ele>
        <time>2020-06-06T11:03:58Z</time>
      </trkpt>
      <trkpt lat="47.63366" lon="-2.67526">
        <ele>20.3</ele>
        <time>2020-06-06T11:03:59Z</time>
      </trkpt>
      <trkpt lat="47.63368" lon="-2.67534">
        <ele>20.3</ele>
        <time>2020-06-06T11:04:00Z</time>
      </trkpt>
      <trkpt lat="47.6337" lon="-2.67541">
        <ele>20.3</ele>
        <time>2020-06-06T11:04:01Z</time>
      </trkpt>
      <trkpt lat="47.63372" lon="-2.67549">
        <ele>20.3</ele>
        <time>2020-06-06T11:04:02Z</time>
      </trkpt>
      <trkpt lat="47.63375" lon="-2.67557">
        <ele>20.3</ele>
        <time>2020-06-06T11:04:03Z</time>
      </trkpt>
      <trkpt lat="47.63377" lon="-2.67565">
        <ele>20.2</ele>
        <time>2020-06-06T11:04:04Z</time>
      </trkpt>
      <trkpt lat="47.63379" lon="-2.67573">
        <ele>20.2</ele>
        <time>2020-06-06T11:04:05Z</time>
      </trkpt>
      <trkpt lat="47.6338" lon="-2.67581">
        <ele>20.2</ele>
        <time>2020-06-06T11:04:06Z</time>
      </trkpt>
      <trkpt lat="47.63383" lon="-2.67588">
        <ele>20.2</ele>
        <time>2020-06-06T11:04:07Z</time>
      </trkpt>
      <trkpt lat="47.63385" lon="-2.67596">
        <ele>20.1</ele>
        <time>2020-06-06T11:04:08Z</time>
      </trkpt>
      <trkpt lat="47.63387" lon="-2.67604">
        <ele>20.1</ele>
        <time>2020-06-06T11:04:09Z</time>
      </trkpt>
      <trkpt lat="47.6339" lon="-2.67611">
        <ele>20</ele>
        <time>2020-06-06T11:04:10Z</time>
      </trkpt>
      <trkpt lat="47.63393" lon="-2.67618">
        <ele>20</ele>
        <time>2020-06-06T11:04:11Z</time>
      </trkpt>
      <trkpt lat="47.63394" lon="-2.67626">
        <ele>20</ele>
        <time>2020-06-06T11:04:12Z</time>
      </trkpt>
      <trkpt lat="47.63396" lon="-2.67634">
        <ele>20</ele>
        <time>2020-06-06T11:04:13Z</time>
      </trkpt>
      <trkpt lat="47.63398" lon="-2.67643">
        <ele>20</ele>
        <time>2020-06-06T11:04:14Z</time>
      </trkpt>
      <trkpt lat="47.63401" lon="-2.6765">
        <ele>20</ele>
        <time>2020-06-06T11:04:15Z</time>
      </trkpt>
      <trkpt lat="47.63403" lon="-2.67658">
        <ele>19.9</ele>
        <time>2020-06-06T11:04:16Z</time>
      </trkpt>
      <trkpt lat="47.63405" lon="-2.67666">
        <ele>19.9</ele>
        <time>2020-06-06T11:04:17Z</time>
      </trkpt>
      <trkpt lat="47.63408" lon="-2.67673">
        <ele>19.8</ele>
        <time>2020-06-06T11:04:18Z</time>
      </trkpt>
      <trkpt lat="47.6341" lon="-2.67681">
        <ele>19.8</ele>
        <time>2020-06-06T11:04:19Z</time>
      </trkpt>
      <trkpt lat="47.63412" lon="-2.67689">
        <ele>19.7</ele>
        <time>2020-06-06T11:04:20Z</time>
      </trkpt>
      <trkpt lat="47.63414" lon="-2.67697">
        <ele>19.6</ele>
        <time>2020-06-06T11:04:21Z</time>
      </trkpt>
      <trkpt lat="47.63416" lon="-2.67705">
        <ele>19.5</ele>
        <time>2020-06-06T11:04:22Z</time>
      </trkpt>
      <trkpt lat="47.63419" lon="-2.67713">
        <ele>19.4</ele>
        <time>2020-06-06T11:04:23Z</time>
      </trkpt>
      <trkpt lat="47.63421" lon="-2.67722">
        <ele>19.3</ele>
        <time>2020-06-06T11:04:24Z</time>
      </trkpt>
      <trkpt lat="47.63424" lon="-2.67729">
        <ele>19.2</ele>
        <time>2020-06-06T11:04:25Z</time>
      </trkpt>
      <trkpt lat="47.63426" lon="-2.67736">
        <ele>19.2</ele>
        <time>2020-06-06T11:04:26Z</time>
      </trkpt>
      <trkpt lat="47.63428" lon="-2.67744">
        <ele>19.1</ele>
        <time>2020-06-06T11:04:27Z</time>
      </trkpt>
      <trkpt lat="47.63429" lon="-2.67752">
        <ele>18.9</ele>
        <time>2020-06-06T11:04:28Z</time>
      </trkpt>
      <trkpt lat="47.6343" lon="-2.67759">
        <ele>18.8</ele>
        <time>2020-06-06T11:04:29Z</time>
      </trkpt>
      <trkpt lat="47.63432" lon="-2.67768">
        <ele>18.7</ele>
        <time>2020-06-06T11:04:30Z</time>
      </trkpt>
      <trkpt lat="47.63433" lon="-2.67775">
        <ele>18.5</ele>
        <time>2020-06-06T11:04:31Z</time>
      </trkpt>
      <trkpt lat="47.63435" lon="-2.67782">
        <ele>18.4</ele>
        <time>2020-06-06T11:04:32Z</time>
      </trkpt>
      <trkpt lat="47.63437" lon="-2.6779">
        <ele>18.3</ele>
        <time>2020-06-06T11:04:33Z</time>
      </trkpt>
      <trkpt lat="47.6344" lon="-2.67796">
        <ele>18.1</ele>
        <time>2020-06-06T11:04:34Z</time>
      </trkpt>
      <trkpt lat="47.63443" lon="-2.67804">
        <ele>18</ele>
        <time>2020-06-06T11:04:35Z</time>
      </trkpt>
      <trkpt lat="47.63446" lon="-2.67811">
        <ele>17.9</ele>
        <time>2020-06-06T11:04:36Z</time>
      </trkpt>
      <trkpt lat="47.63449" lon="-2.67819">
        <ele>17.8</ele>
        <time>2020-06-06T11:04:37Z</time>
      </trkpt>
      <trkpt lat="47.63451" lon="-2.67827">
        <ele>17.6</ele>
        <time>2020-06-06T11:04:38Z</time>
      </trkpt>
      <trkpt lat="47.63453" lon="-2.67835">
        <ele>17.5</ele>
        <time>2020-06-06T11:04:39Z</time>
      </trkpt>
      <trkpt lat="47.63455" lon="-2.67842">
        <ele>17.3</ele>
        <time>2020-06-06T11:04:40Z</time>
      </trkpt>
      <trkpt lat="47.63457" lon="-2.67851">
        <ele>17.2</ele>
        <time>2020-06-06T11:04:41Z</time>
      </trkpt>
      <trkpt lat="47.63458" lon="-2.67858">
        <ele>17</ele>
        <time>2020-06-06T11:04:42Z</time>
      </trkpt>
      <trkpt lat="47.6346" lon="-2.67867">
        <ele>16.9</ele>
        <time>2020-06-06T11:04:43Z</time>
      </trkpt>
      <trkpt lat="47.63463" lon="-2.67875">
        <ele>16.7</ele>
        <time>2020-06-06T11:04:44Z</time>
      </trkpt>
      <trkpt lat="47.63466" lon="-2.67882">
        <ele>16.5</ele>
        <time>2020-06-06T11:04:45Z</time>
      </trkpt>
      <trkpt lat="47.6347" lon="-2.67889">
        <ele>16.3</ele>
        <time>2020-06-06T11:04:46Z</time>
      </trkpt>
      <trkpt lat="47.63473" lon="-2.67897">
        <ele>16</ele>
        <time>2020-06-06T11:04:47Z</time>
      </trkpt>
      <trkpt lat="47.63476" lon="-2.67904">
        <ele>15.8</ele>
        <time>2020-06-06T11:04:48Z</time>
      </trkpt>
      <trkpt lat="47.63479" lon="-2.67911">
        <ele>15.6</ele>
        <time>2020-06-06T11:04:49Z</time>
      </trkpt>
      <trkpt lat="47.63484" lon="-2.6792">
        <ele>15.3</ele>
        <time>2020-06-06T11:04:50Z</time>
      </trkpt>
      <trkpt lat="47.63489" lon="-2.67929">
        <ele>15.1</ele>
        <time>2020-06-06T11:04:51Z</time>
      </trkpt>
      <trkpt lat="47.63494" lon="-2.67938">
        <ele>14.8</ele>
        <time>2020-06-06T11:04:52Z</time>
      </trkpt>
      <trkpt lat="47.63499" lon="-2.67945">
        <ele>14.6</ele>
        <time>2020-06-06T11:04:53Z</time>
      </trkpt>
      <trkpt lat="47.63504" lon="-2.67953">
        <ele>14.4</ele>
        <time>2020-06-06T11:04:54Z</time>
      </trkpt>
      <trkpt lat="47.6351" lon="-2.6796">
        <ele>14.2</ele>
        <time>2020-06-06T11:04:55Z</time>
      </trkpt>
      <trkpt lat="47.63516" lon="-2.67968">
        <ele>14</ele>
        <time>2020-06-06T11:04:56Z</time>
      </trkpt>
      <trkpt lat="47.63521" lon="-2.67975">
        <ele>13.8</ele>
        <time>2020-06-06T11:04:57Z</time>
      </trkpt>
      <trkpt lat="47.63527" lon="-2.67982">
        <ele>13.7</ele>
        <time>2020-06-06T11:04:58Z</time>
      </trkpt>
      <trkpt lat="47.63533" lon="-2.67988">
        <ele>13.6</ele>
        <time>2020-06-06T11:04:59Z</time>
      </trkpt>
      <trkpt lat="47.63539" lon="-2.67994">
        <ele>13.4</ele>
        <time>2020-06-06T11:05:00Z</time>
      </trkpt>
      <trkpt lat="47.63546" lon="-2.68">
        <ele>13.3</ele>
        <time>2020-06-06T11:05:01Z</time>
      </trkpt>
      <trkpt lat="47.63552" lon="-2.68005">
        <ele>13.2</ele>
        <time>2020-06-06T11:05:02Z</time>
      </trkpt>
      <trkpt lat="47.63558" lon="-2.6801">
        <ele>13.1</ele>
        <time>2020-06-06T11:05:03Z</time>
      </trkpt>
      <trkpt lat="47.63564" lon="-2.68015">
        <ele>13</ele>
        <time>2020-06-06T11:05:04Z</time>
      </trkpt>
      <trkpt lat="47.63571" lon="-2.68019">
        <ele>12.9</ele>
        <time>2020-06-06T11:05:05Z</time>
      </trkpt>
      <trkpt lat="47.63577" lon="-2.68023">
        <ele>12.7</ele>
        <time>2020-06-06T11:05:06Z</time>
      </trkpt>
      <trkpt lat="47.63584" lon="-2.68027">
        <ele>12.6</ele>
        <time>2020-06-06T11:05:07Z</time>
      </trkpt>
      <trkpt lat="47.63591" lon="-2.6803">
        <ele>12.5</ele>
        <time>2020-06-06T11:05:08Z</time>
      </trkpt>
      <trkpt lat="47.63597" lon="-2.68035">
        <ele>12.3</ele>
        <time>2020-06-06T11:05:09Z</time>
      </trkpt>
      <trkpt lat="47.63604" lon="-2.68039">
        <ele>12.2</ele>
        <time>2020-06-06T11:05:10Z</time>
      </trkpt>
      <trkpt lat="47.6361" lon="-2.68043">
        <ele>12</ele>
        <time>2020-06-06T11:05:11Z</time>
      </trkpt>
      <trkpt lat="47.63616" lon="-2.68047">
        <ele>11.8</ele>
        <time>2020-06-06T11:05:12Z</time>
      </trkpt>
      <trkpt lat="47.63623" lon="-2.6805">
        <ele>11.7</ele>
        <time>2020-06-06T11:05:13Z</time>
      </trkpt>
      <trkpt lat="47.63629" lon="-2.68054">
        <ele>11.5</ele>
        <time>2020-06-06T11:05:14Z</time>
      </trkpt>
      <trkpt lat="47.63635" lon="-2.68057">
        <ele>11.3</ele>
        <time>2020-06-06T11:05:15Z</time>
      </trkpt>
      <trkpt lat="47.63641" lon="-2.68061">
        <ele>11.1</ele>
        <time>2020-06-06T11:05:16Z</time>
      </trkpt>
      <trkpt lat="47.63647" lon="-2.68065">
        <ele>10.9</ele>
        <time>2020-06-06T11:05:17Z</time>
      </trkpt>
      <trkpt lat="47.63654" lon="-2.68068">
        <ele>10.7</ele>
        <time>2020-06-06T11:05:18Z</time>
      </trkpt>
      <trkpt lat="47.6366" lon="-2.68072">
        <ele>10.4</ele>
        <time>2020-06-06T11:05:19Z</time>
      </trkpt>
      <trkpt lat="47.63666" lon="-2.68077">
        <ele>10</ele>
        <time>2020-06-06T11:05:20Z</time>
      </trkpt>
      <trkpt lat="47.63672" lon="-2.68083">
        <ele>9.6</ele>
        <time>2020-06-06T11:05:21Z</time>
      </trkpt>
      <trkpt lat="47.63678" lon="-2.68091">
        <ele>9.2</ele>
        <time>2020-06-06T11:05:22Z</time>
      </trkpt>
      <trkpt lat="47.63684" lon="-2.68097">
        <ele>8.7</ele>
        <time>2020-06-06T11:05:23Z</time>
      </trkpt>
      <trkpt lat="47.63691" lon="-2.68104">
        <ele>8.2</ele>
        <time>2020-06-06T11:05:24Z</time>
      </trkpt>
      <trkpt lat="47.63698" lon="-2.6811">
        <ele>7.7</ele>
        <time>2020-06-06T11:05:25Z</time>
      </trkpt>
      <trkpt lat="47.63705" lon="-2.68117">
        <ele>7.2</ele>
        <time>2020-06-06T11:05:26Z</time>
      </trkpt>
      <trkpt lat="47.63712" lon="-2.68125">
        <ele>6.8</ele>
        <time>2020-06-06T11:05:27Z</time>
      </trkpt>
      <trkpt lat="47.63719" lon="-2.68133">
        <ele>6.5</ele>
        <time>2020-06-06T11:05:28Z</time>
      </trkpt>
      <trkpt lat="47.63724" lon="-2.68143">
        <ele>6.2</ele>
        <time>2020-06-06T11:05:29Z</time>
      </trkpt>
      <trkpt lat="47.63729" lon="-2.68154">
        <ele>6</ele>
        <time>2020-06-06T11:05:30Z</time>
      </trkpt>
      <trkpt lat="47.63732" lon="-2.68165">
        <ele>5.9</ele>
        <time>2020-06-06T11:05:31Z</time>
      </trkpt>
      <trkpt lat="47.63732" lon="-2.68177">
        <ele>5.7</ele>
        <time>2020-06-06T11:05:32Z</time>
      </trkpt>
      <trkpt lat="47.63732" lon="-2.68188">
        <ele>5.6</ele>
        <time>2020-06-06T11:05:33Z</time>
      </trkpt>
      <trkpt lat="47.63729" lon="-2.68197">
        <ele>5.5</ele>
        <time>2020-06-06T11:05:34Z</time>
      </trkpt>
      <trkpt lat="47.63724" lon="-2.68204">
        <ele>5.4</ele>
        <time>2020-06-06T11:05:35Z</time>
      </trkpt>
      <trkpt lat="47.63717" lon="-2.68209">
        <ele>5.3</ele>
        <time>2020-06-06T11:05:36Z</time>
      </trkpt>
      <trkpt lat="47.63706" lon="-2.68213">
        <ele>5.1</ele>
        <time>2020-06-06T11:05:37Z</time>
      </trkpt>
      <trkpt lat="47.63702" lon="-2.68214">
        <ele>5.1</ele>
        <time>2020-06-06T11:05:38Z</time>
      </trkpt>
      <trkpt lat="47.63698" lon="-2.68214">
        <ele>5.2</ele>
        <time>2020-06-06T11:05:39Z</time>
      </trkpt>
      <trkpt lat="47.63691" lon="-2.68217">
        <ele>5.3</ele>
        <time>2020-06-06T11:05:40Z</time>
      </trkpt>
      <trkpt lat="47.63684" lon="-2.68217">
        <ele>5.5</ele>
        <time>2020-06-06T11:05:41Z</time>
      </trkpt>
      <trkpt lat="47.63677" lon="-2.68218">
        <ele>5.7</ele>
        <time>2020-06-06T11:05:42Z</time>
      </trkpt>
      <trkpt lat="47.63671" lon="-2.68218">
        <ele>5.9</ele>
        <time>2020-06-06T11:05:43Z</time>
      </trkpt>
      <trkpt lat="47.63665" lon="-2.68219">
        <ele>6</ele>
        <time>2020-06-06T11:05:44Z</time>
      </trkpt>
      <trkpt lat="47.63659" lon="-2.68218">
        <ele>6.2</ele>
        <time>2020-06-06T11:05:45Z</time>
      </trkpt>
      <trkpt lat="47.63653" lon="-2.68218">
        <ele>6.3</ele>
        <time>2020-06-06T11:05:46Z</time>
      </trkpt>
      <trkpt lat="47.63647" lon="-2.68218">
        <ele>6.4</ele>
        <time>2020-06-06T11:05:47Z</time>
      </trkpt>
      <trkpt lat="47.63642" lon="-2.68219">
        <ele>6.6</ele>
        <time>2020-06-06T11:05:48Z</time>
      </trkpt>
      <trkpt lat="47.63639" lon="-2.68222">
        <ele>6.5</ele>
        <time>2020-06-06T11:05:49Z</time>
      </trkpt>
      <trkpt lat="47.63637" lon="-2.68227">
        <ele>6.5</ele>
        <time>2020-06-06T11:05:50Z</time>
      </trkpt>
      <trkpt lat="47.63636" lon="-2.68234">
        <ele>6.4</ele>
        <time>2020-06-06T11:05:51Z</time>
      </trkpt>
      <trkpt lat="47.63636" lon="-2.68242">
        <ele>6.3</ele>
        <time>2020-06-06T11:05:52Z</time>
      </trkpt>
      <trkpt lat="47.63635" lon="-2.68257">
        <ele>6.2</ele>
        <time>2020-06-06T11:05:53Z</time>
      </trkpt>
      <trkpt lat="47.63635" lon="-2.68264">
        <ele>6.1</ele>
        <time>2020-06-06T11:05:54Z</time>
      </trkpt>
      <trkpt lat="47.63634" lon="-2.68272">
        <ele>6</ele>
        <time>2020-06-06T11:05:55Z</time>
      </trkpt>
      <trkpt lat="47.63634" lon="-2.68279">
        <ele>6</ele>
        <time>2020-06-06T11:05:56Z</time>
      </trkpt>
      <trkpt lat="47.63634" lon="-2.68297">
        <ele>5.9</ele>
        <time>2020-06-06T11:05:57Z</time>
      </trkpt>
      <trkpt lat="47.63632" lon="-2.68308">
        <ele>6</ele>
        <time>2020-06-06T11:05:58Z</time>
      </trkpt>
      <trkpt lat="47.63628" lon="-2.68315">
        <ele>6.1</ele>
        <time>2020-06-06T11:05:59Z</time>
      </trkpt>
      <trkpt lat="47.63626" lon="-2.6832">
        <ele>6.2</ele>
        <time>2020-06-06T11:06:00Z</time>
      </trkpt>
      <trkpt lat="47.63622" lon="-2.6832">
        <ele>6.2</ele>
        <time>2020-06-06T11:06:01Z</time>
      </trkpt>
      <trkpt lat="47.63619" lon="-2.68322">
        <ele>6.3</ele>
        <time>2020-06-06T11:06:02Z</time>
      </trkpt>
      <trkpt lat="47.63618" lon="-2.68327">
        <ele>6.4</ele>
        <time>2020-06-06T11:06:03Z</time>
      </trkpt>
      <trkpt lat="47.63617" lon="-2.6833">
        <ele>6.4</ele>
        <time>2020-06-06T11:06:04Z</time>
      </trkpt>
      <trkpt lat="47.63617" lon="-2.6833">
        <ele>6.4</ele>
        <time>2020-06-06T11:06:05Z</time>
      </trkpt>
      <trkpt lat="47.63616" lon="-2.6833">
        <ele>6.4</ele>
        <time>2020-06-06T11:06:06Z</time>
      </trkpt>
      <trkpt lat="47.63615" lon="-2.6833">
        <ele>6.4</ele>
        <time>2020-06-06T11:06:07Z</time>
      </trkpt>
      <trkpt lat="47.63614" lon="-2.6833">
        <ele>6.4</ele>
        <time>2020-06-06T11:06:08Z</time>
      </trkpt>
      <trkpt lat="47.63614" lon="-2.6833">
        <ele>6.5</ele>
        <time>2020-06-06T11:06:09Z</time>
      </trkpt>
      <trkpt lat="47.63613" lon="-2.68331">
        <ele>6.5</ele>
        <time>2020-06-06T11:06:10Z</time>
      </trkpt>
      <trkpt lat="47.63613" lon="-2.68331">
        <ele>6.5</ele>
        <time>2020-06-06T11:06:11Z</time>
      </trkpt>
      <trkpt lat="47.63613" lon="-2.68331">
        <ele>6.5</ele>
        <time>2020-06-06T11:06:12Z</time>
      </trkpt>
      <trkpt lat="47.63613" lon="-2.68331">
        <ele>6.5</ele>
        <time>2020-06-06T11:06:13Z</time>
      </trkpt>
      <trkpt lat="47.63613" lon="-2.68331">
        <ele>6.5</ele>
        <time>2020-06-06T11:06:14Z</time>
      </trkpt>
      <trkpt lat="47.63613" lon="-2.68331">
        <ele>6.5</ele>
        <time>2020-06-06T11:06:15Z</time>
      </trkpt>
      <trkpt lat="47.63613" lon="-2.68331">
        <ele>6.5</ele>
        <time>2020-06-06T11:06:16Z</time>
      </trkpt>
      <trkpt lat="47.63613" lon="-2.68331">
        <ele>6.5</ele>
        <time>2020-06-06T11:06:17Z</time>
      </trkpt>
      <trkpt lat="47.63614" lon="-2.68331">
        <ele>6.5</ele>
        <time>2020-06-06T11:06:18Z</time>
      </trkpt>
      <trkpt lat="47.63614" lon="-2.68332">
        <ele>6.5</ele>
        <time>2020-06-06T11:06:19Z</time>
      </trkpt>
      <trkpt lat="47.63614" lon="-2.68333">
        <ele>6.5</ele>
        <time>2020-06-06T11:06:20Z</time>
      </trkpt>
      <trkpt lat="47.63614" lon="-2.68334">
        <ele>6.5</ele>
        <time>2020-06-06T11:06:21Z</time>
      </trkpt>
      <trkpt lat="47.63614" lon="-2.68334">
        <ele>6.5</ele>
        <time>2020-06-06T11:06:22Z</time>
      </trkpt>
      <trkpt lat="47.63614" lon="-2.68335">
        <ele>6.5</ele>
        <time>2020-06-06T11:06:23Z</time>
      </trkpt>
      <trkpt lat="47.63614" lon="-2.68335">
        <ele>6.5</ele>
        <time>2020-06-06T11:06:24Z</time>
      </trkpt>
      <trkpt lat="47.63614" lon="-2.68336">
        <ele>6.5</ele>
        <time>2020-06-06T11:06:25Z</time>
      </trkpt>
      <trkpt lat="47.6361" lon="-2.68332">
        <ele>6.6</ele>
        <time>2020-06-06T11:06:59Z</time>
      </trkpt>
      <trkpt lat="47.63609" lon="-2.68331">
        <ele>6.6</ele>
        <time>2020-06-06T11:07:00Z</time>
      </trkpt>
      <trkpt lat="47.63609" lon="-2.68331">
        <ele>6.6</ele>
        <time>2020-06-06T11:07:01Z</time>
      </trkpt>
      <trkpt lat="47.63609" lon="-2.68331">
        <ele>6.6</ele>
        <time>2020-06-06T11:07:02Z</time>
      </trkpt>
      <trkpt lat="47.63609" lon="-2.68331">
        <ele>6.6</ele>
        <time>2020-06-06T11:07:03Z</time>
      </trkpt>
      <trkpt lat="47.6361" lon="-2.6833">
        <ele>6.6</ele>
        <time>2020-06-06T11:07:04Z</time>
      </trkpt>
      <trkpt lat="47.6361" lon="-2.6833">
        <ele>6.6</ele>
        <time>2020-06-06T11:07:05Z</time>
      </trkpt>
      <trkpt lat="47.63609" lon="-2.68331">
        <ele>6.7</ele>
        <time>2020-06-06T11:07:06Z</time>
      </trkpt>
      <trkpt lat="47.63609" lon="-2.68331">
        <ele>6.7</ele>
        <time>2020-06-06T11:07:07Z</time>
      </trkpt>
      <trkpt lat="47.63608" lon="-2.68332">
        <ele>6.7</ele>
        <time>2020-06-06T11:07:08Z</time>
      </trkpt>
      <trkpt lat="47.63606" lon="-2.68331">
        <ele>6.7</ele>
        <time>2020-06-06T11:07:09Z</time>
      </trkpt>
      <trkpt lat="47.63604" lon="-2.68329">
        <ele>6.7</ele>
        <time>2020-06-06T11:07:10Z</time>
      </trkpt>
      <trkpt lat="47.63601" lon="-2.68328">
        <ele>6.7</ele>
        <time>2020-06-06T11:08:32Z</time>
      </trkpt>
      <trkpt lat="47.63599" lon="-2.68326">
        <ele>6.8</ele>
        <time>2020-06-06T11:08:33Z</time>
      </trkpt>
      <trkpt lat="47.63597" lon="-2.68325">
        <ele>6.8</ele>
        <time>2020-06-06T11:08:34Z</time>
      </trkpt>
      <trkpt lat="47.63594" lon="-2.68322">
        <ele>6.9</ele>
        <time>2020-06-06T11:08:35Z</time>
      </trkpt>
      <trkpt lat="47.63591" lon="-2.68319">
        <ele>6.9</ele>
        <time>2020-06-06T11:08:36Z</time>
      </trkpt>
      <trkpt lat="47.63588" lon="-2.68316">
        <ele>7</ele>
        <time>2020-06-06T11:08:37Z</time>
      </trkpt>
      <trkpt lat="47.63584" lon="-2.68315">
        <ele>7</ele>
        <time>2020-06-06T11:08:38Z</time>
      </trkpt>
      <trkpt lat="47.63581" lon="-2.68314">
        <ele>7.1</ele>
        <time>2020-06-06T11:08:39Z</time>
      </trkpt>
      <trkpt lat="47.63578" lon="-2.68313">
        <ele>7.2</ele>
        <time>2020-06-06T11:08:40Z</time>
      </trkpt>
      <trkpt lat="47.63575" lon="-2.68311">
        <ele>7.3</ele>
        <time>2020-06-06T11:08:41Z</time>
      </trkpt>
      <trkpt lat="47.63572" lon="-2.6831">
        <ele>7.4</ele>
        <time>2020-06-06T11:08:42Z</time>
      </trkpt>
      <trkpt lat="47.63569" lon="-2.68307">
        <ele>7.5</ele>
        <time>2020-06-06T11:08:43Z</time>
      </trkpt>
      <trkpt lat="47.63565" lon="-2.68306">
        <ele>7.6</ele>
        <time>2020-06-06T11:08:44Z</time>
      </trkpt>
      <trkpt lat="47.63562" lon="-2.68307">
        <ele>7.7</ele>
        <time>2020-06-06T11:08:45Z</time>
      </trkpt>
      <trkpt lat="47.63558" lon="-2.68308">
        <ele>7.8</ele>
        <time>2020-06-06T11:08:46Z</time>
      </trkpt>
      <trkpt lat="47.63554" lon="-2.68309">
        <ele>7.9</ele>
        <time>2020-06-06T11:08:47Z</time>
      </trkpt>
      <trkpt lat="47.63551" lon="-2.6831">
        <ele>8</ele>
        <time>2020-06-06T11:08:48Z</time>
      </trkpt>
      <trkpt lat="47.63547" lon="-2.68311">
        <ele>8.2</ele>
        <time>2020-06-06T11:08:49Z</time>
      </trkpt>
      <trkpt lat="47.63544" lon="-2.68313">
        <ele>8.3</ele>
        <time>2020-06-06T11:08:50Z</time>
      </trkpt>
      <trkpt lat="47.6354" lon="-2.68315">
        <ele>8.5</ele>
        <time>2020-06-06T11:08:51Z</time>
      </trkpt>
      <trkpt lat="47.63538" lon="-2.68317">
        <ele>8.6</ele>
        <time>2020-06-06T11:08:52Z</time>
      </trkpt>
      <trkpt lat="47.63536" lon="-2.68321">
        <ele>8.6</ele>
        <time>2020-06-06T11:08:53Z</time>
      </trkpt>
      <trkpt lat="47.63535" lon="-2.68326">
        <ele>8.6</ele>
        <time>2020-06-06T11:08:54Z</time>
      </trkpt>
      <trkpt lat="47.63534" lon="-2.68331">
        <ele>8.6</ele>
        <time>2020-06-06T11:08:55Z</time>
      </trkpt>
      <trkpt lat="47.63534" lon="-2.68338">
        <ele>8.6</ele>
        <time>2020-06-06T11:08:56Z</time>
      </trkpt>
      <trkpt lat="47.63535" lon="-2.68345">
        <ele>8.6</ele>
        <time>2020-06-06T11:08:57Z</time>
      </trkpt>
      <trkpt lat="47.63536" lon="-2.6835">
        <ele>8.6</ele>
        <time>2020-06-06T11:08:58Z</time>
      </trkpt>
      <trkpt lat="47.63536" lon="-2.68356">
        <ele>8.6</ele>
        <time>2020-06-06T11:08:59Z</time>
      </trkpt>
      <trkpt lat="47.63537" lon="-2.68362">
        <ele>8.6</ele>
        <time>2020-06-06T11:09:00Z</time>
      </trkpt>
      <trkpt lat="47.63538" lon="-2.6837">
        <ele>8.6</ele>
        <time>2020-06-06T11:09:01Z</time>
      </trkpt>
      <trkpt lat="47.6354" lon="-2.68376">
        <ele>8.6</ele>
        <time>2020-06-06T11:09:02Z</time>
      </trkpt>
      <trkpt lat="47.63541" lon="-2.68384">
        <ele>8.6</ele>
        <time>2020-06-06T11:09:03Z</time>
      </trkpt>
      <trkpt lat="47.63541" lon="-2.68391">
        <ele>8.7</ele>
        <time>2020-06-06T11:09:04Z</time>
      </trkpt>
      <trkpt lat="47.63543" lon="-2.68395">
        <ele>8.7</ele>
        <time>2020-06-06T11:09:05Z</time>
      </trkpt>
      <trkpt lat="47.63544" lon="-2.68401">
        <ele>8.7</ele>
        <time>2020-06-06T11:09:06Z</time>
      </trkpt>
      <trkpt lat="47.63545" lon="-2.68406">
        <ele>8.7</ele>
        <time>2020-06-06T11:09:07Z</time>
      </trkpt>
      <trkpt lat="47.63546" lon="-2.6841">
        <ele>8.7</ele>
        <time>2020-06-06T11:09:08Z</time>
      </trkpt>
      <trkpt lat="47.63547" lon="-2.68415">
        <ele>8.7</ele>
        <time>2020-06-06T11:09:09Z</time>
      </trkpt>
      <trkpt lat="47.63548" lon="-2.68421">
        <ele>8.7</ele>
        <time>2020-06-06T11:09:10Z</time>
      </trkpt>
      <trkpt lat="47.63549" lon="-2.68427">
        <ele>8.7</ele>
        <time>2020-06-06T11:09:11Z</time>
      </trkpt>
      <trkpt lat="47.6355" lon="-2.68434">
        <ele>8.7</ele>
        <time>2020-06-06T11:09:12Z</time>
      </trkpt>
      <trkpt lat="47.6355" lon="-2.68441">
        <ele>8.7</ele>
        <time>2020-06-06T11:09:13Z</time>
      </trkpt>
      <trkpt lat="47.63551" lon="-2.68448">
        <ele>8.6</ele>
        <time>2020-06-06T11:09:14Z</time>
      </trkpt>
      <trkpt lat="47.63552" lon="-2.68455">
        <ele>8.6</ele>
        <time>2020-06-06T11:09:15Z</time>
      </trkpt>
      <trkpt lat="47.63553" lon="-2.68462">
        <ele>8.6</ele>
        <time>2020-06-06T11:09:16Z</time>
      </trkpt>
      <trkpt lat="47.63554" lon="-2.68469">
        <ele>8.5</ele>
        <time>2020-06-06T11:09:17Z</time>
      </trkpt>
      <trkpt lat="47.63555" lon="-2.68474">
        <ele>8.5</ele>
        <time>2020-06-06T11:09:18Z</time>
      </trkpt>
      <trkpt lat="47.63556" lon="-2.6848">
        <ele>8.4</ele>
        <time>2020-06-06T11:09:19Z</time>
      </trkpt>
      <trkpt lat="47.63558" lon="-2.68486">
        <ele>8.4</ele>
        <time>2020-06-06T11:09:20Z</time>
      </trkpt>
      <trkpt lat="47.6356" lon="-2.6849">
        <ele>8.4</ele>
        <time>2020-06-06T11:09:21Z</time>
      </trkpt>
      <trkpt lat="47.6356" lon="-2.68496">
        <ele>8.4</ele>
        <time>2020-06-06T11:09:22Z</time>
      </trkpt>
      <trkpt lat="47.63561" lon="-2.68502">
        <ele>8.3</ele>
        <time>2020-06-06T11:09:23Z</time>
      </trkpt>
      <trkpt lat="47.63562" lon="-2.68507">
        <ele>8.3</ele>
        <time>2020-06-06T11:09:24Z</time>
      </trkpt>
      <trkpt lat="47.63563" lon="-2.68512">
        <ele>8.3</ele>
        <time>2020-06-06T11:09:25Z</time>
      </trkpt>
      <trkpt lat="47.63565" lon="-2.68518">
        <ele>8.2</ele>
        <time>2020-06-06T11:09:26Z</time>
      </trkpt>
      <trkpt lat="47.63565" lon="-2.68522">
        <ele>8.2</ele>
        <time>2020-06-06T11:09:27Z</time>
      </trkpt>
      <trkpt lat="47.63566" lon="-2.68527">
        <ele>8.2</ele>
        <time>2020-06-06T11:09:28Z</time>
      </trkpt>
      <trkpt lat="47.63567" lon="-2.68533">
        <ele>8.1</ele>
        <time>2020-06-06T11:09:29Z</time>
      </trkpt>
      <trkpt lat="47.63568" lon="-2.6854">
        <ele>8.1</ele>
        <time>2020-06-06T11:09:30Z</time>
      </trkpt>
      <trkpt lat="47.6357" lon="-2.68547">
        <ele>8</ele>
        <time>2020-06-06T11:09:31Z</time>
      </trkpt>
      <trkpt lat="47.63571" lon="-2.68555">
        <ele>8</ele>
        <time>2020-06-06T11:09:32Z</time>
      </trkpt>
      <trkpt lat="47.63574" lon="-2.68562">
        <ele>7.9</ele>
        <time>2020-06-06T11:09:33Z</time>
      </trkpt>
      <trkpt lat="47.63576" lon="-2.68571">
        <ele>7.8</ele>
        <time>2020-06-06T11:09:34Z</time>
      </trkpt>
      <trkpt lat="47.63578" lon="-2.68579">
        <ele>7.8</ele>
        <time>2020-06-06T11:09:35Z</time>
      </trkpt>
      <trkpt lat="47.63579" lon="-2.68587">
        <ele>7.7</ele>
        <time>2020-06-06T11:09:36Z</time>
      </trkpt>
      <trkpt lat="47.63581" lon="-2.68595">
        <ele>7.7</ele>
        <time>2020-06-06T11:09:37Z</time>
      </trkpt>
      <trkpt lat="47.63583" lon="-2.68603">
        <ele>7.7</ele>
        <time>2020-06-06T11:09:38Z</time>
      </trkpt>
      <trkpt lat="47.63585" lon="-2.68611">
        <ele>7.6</ele>
        <time>2020-06-06T11:09:39Z</time>
      </trkpt>
      <trkpt lat="47.63586" lon="-2.68619">
        <ele>7.6</ele>
        <time>2020-06-06T11:09:40Z</time>
      </trkpt>
      <trkpt lat="47.63587" lon="-2.68626">
        <ele>7.6</ele>
        <time>2020-06-06T11:09:41Z</time>
      </trkpt>
      <trkpt lat="47.63589" lon="-2.68634">
        <ele>7.6</ele>
        <time>2020-06-06T11:09:42Z</time>
      </trkpt>
      <trkpt lat="47.63591" lon="-2.68641">
        <ele>7.6</ele>
        <time>2020-06-06T11:09:43Z</time>
      </trkpt>
      <trkpt lat="47.63594" lon="-2.68647">
        <ele>7.7</ele>
        <time>2020-06-06T11:09:44Z</time>
      </trkpt>
      <trkpt lat="47.63596" lon="-2.68653">
        <ele>7.7</ele>
        <time>2020-06-06T11:09:45Z</time>
      </trkpt>
      <trkpt lat="47.63599" lon="-2.68661">
        <ele>7.7</ele>
        <time>2020-06-06T11:09:46Z</time>
      </trkpt>
      <trkpt lat="47.63601" lon="-2.68667">
        <ele>7.7</ele>
        <time>2020-06-06T11:09:47Z</time>
      </trkpt>
      <trkpt lat="47.63603" lon="-2.68674">
        <ele>7.7</ele>
        <time>2020-06-06T11:09:48Z</time>
      </trkpt>
      <trkpt lat="47.63605" lon="-2.68681">
        <ele>7.7</ele>
        <time>2020-06-06T11:09:49Z</time>
      </trkpt>
      <trkpt lat="47.63607" lon="-2.6869">
        <ele>7.8</ele>
        <time>2020-06-06T11:09:50Z</time>
      </trkpt>
      <trkpt lat="47.6361" lon="-2.68697">
        <ele>7.8</ele>
        <time>2020-06-06T11:09:51Z</time>
      </trkpt>
      <trkpt lat="47.63612" lon="-2.68703">
        <ele>7.8</ele>
        <time>2020-06-06T11:09:52Z</time>
      </trkpt>
      <trkpt lat="47.63614" lon="-2.68709">
        <ele>7.8</ele>
        <time>2020-06-06T11:09:53Z</time>
      </trkpt>
      <trkpt lat="47.63617" lon="-2.68715">
        <ele>7.8</ele>
        <time>2020-06-06T11:09:54Z</time>
      </trkpt>
      <trkpt lat="47.6362" lon="-2.6872">
        <ele>7.8</ele>
        <time>2020-06-06T11:09:55Z</time>
      </trkpt>
      <trkpt lat="47.63623" lon="-2.68726">
        <ele>7.8</ele>
        <time>2020-06-06T11:09:56Z</time>
      </trkpt>
      <trkpt lat="47.63626" lon="-2.68732">
        <ele>7.8</ele>
        <time>2020-06-06T11:09:57Z</time>
      </trkpt>
      <trkpt lat="47.63628" lon="-2.68738">
        <ele>7.8</ele>
        <time>2020-06-06T11:09:58Z</time>
      </trkpt>
      <trkpt lat="47.63631" lon="-2.68745">
        <ele>7.7</ele>
        <time>2020-06-06T11:09:59Z</time>
      </trkpt>
      <trkpt lat="47.63634" lon="-2.68751">
        <ele>7.6</ele>
        <time>2020-06-06T11:10:00Z</time>
      </trkpt>
      <trkpt lat="47.63638" lon="-2.68757">
        <ele>7.5</ele>
        <time>2020-06-06T11:10:01Z</time>
      </trkpt>
      <trkpt lat="47.63641" lon="-2.68764">
        <ele>7.4</ele>
        <time>2020-06-06T11:10:02Z</time>
      </trkpt>
      <trkpt lat="47.63643" lon="-2.68771">
        <ele>7.3</ele>
        <time>2020-06-06T11:10:03Z</time>
      </trkpt>
      <trkpt lat="47.63646" lon="-2.68778">
        <ele>7.1</ele>
        <time>2020-06-06T11:10:04Z</time>
      </trkpt>
      <trkpt lat="47.6365" lon="-2.68784">
        <ele>7</ele>
        <time>2020-06-06T11:10:05Z</time>
      </trkpt>
      <trkpt lat="47.63653" lon="-2.6879">
        <ele>6.8</ele>
        <time>2020-06-06T11:10:06Z</time>
      </trkpt>
      <trkpt lat="47.63657" lon="-2.68796">
        <ele>6.7</ele>
        <time>2020-06-06T11:10:07Z</time>
      </trkpt>
      <trkpt lat="47.63659" lon="-2.68804">
        <ele>6.6</ele>
        <time>2020-06-06T11:10:08Z</time>
      </trkpt>
      <trkpt lat="47.63663" lon="-2.68811">
        <ele>6.4</ele>
        <time>2020-06-06T11:10:09Z</time>
      </trkpt>
      <trkpt lat="47.63667" lon="-2.68817">
        <ele>6.3</ele>
        <time>2020-06-06T11:10:10Z</time>
      </trkpt>
      <trkpt lat="47.6367" lon="-2.68824">
        <ele>6.2</ele>
        <time>2020-06-06T11:10:11Z</time>
      </trkpt>
      <trkpt lat="47.63674" lon="-2.6883">
        <ele>6</ele>
        <time>2020-06-06T11:10:12Z</time>
      </trkpt>
      <trkpt lat="47.63677" lon="-2.68835">
        <ele>5.9</ele>
        <time>2020-06-06T11:10:13Z</time>
      </trkpt>
      <trkpt lat="47.6368" lon="-2.68841">
        <ele>5.7</ele>
        <time>2020-06-06T11:10:14Z</time>
      </trkpt>
      <trkpt lat="47.63683" lon="-2.68847">
        <ele>5.6</ele>
        <time>2020-06-06T11:10:15Z</time>
      </trkpt>
      <trkpt lat="47.63686" lon="-2.68852">
        <ele>5.4</ele>
        <time>2020-06-06T11:10:16Z</time>
      </trkpt>
      <trkpt lat="47.6369" lon="-2.68857">
        <ele>5.3</ele>
        <time>2020-06-06T11:10:17Z</time>
      </trkpt>
      <trkpt lat="47.63693" lon="-2.68862">
        <ele>5.2</ele>
        <time>2020-06-06T11:10:18Z</time>
      </trkpt>
      <trkpt lat="47.63695" lon="-2.68866">
        <ele>4.9</ele>
        <time>2020-06-06T11:10:19Z</time>
      </trkpt>
      <trkpt lat="47.63698" lon="-2.68871">
        <ele>4.9</ele>
        <time>2020-06-06T11:10:20Z</time>
      </trkpt>
      <trkpt lat="47.63701" lon="-2.68875">
        <ele>4.8</ele>
        <time>2020-06-06T11:10:21Z</time>
      </trkpt>
      <trkpt lat="47.63704" lon="-2.68879">
        <ele>4.8</ele>
        <time>2020-06-06T11:10:22Z</time>
      </trkpt>
      <trkpt lat="47.63707" lon="-2.68882">
        <ele>4.8</ele>
        <time>2020-06-06T11:10:23Z</time>
      </trkpt>
      <trkpt lat="47.63709" lon="-2.68887">
        <ele>4.8</ele>
        <time>2020-06-06T11:10:24Z</time>
      </trkpt>
      <trkpt lat="47.63712" lon="-2.6889">
        <ele>4.8</ele>
        <time>2020-06-06T11:10:25Z</time>
      </trkpt>
      <trkpt lat="47.63715" lon="-2.68894">
        <ele>4.8</ele>
        <time>2020-06-06T11:10:26Z</time>
      </trkpt>
      <trkpt lat="47.63719" lon="-2.689">
        <ele>4.8</ele>
        <time>2020-06-06T11:10:27Z</time>
      </trkpt>
      <trkpt lat="47.63722" lon="-2.68905">
        <ele>4.8</ele>
        <time>2020-06-06T11:10:28Z</time>
      </trkpt>
      <trkpt lat="47.63726" lon="-2.68911">
        <ele>4.8</ele>
        <time>2020-06-06T11:10:29Z</time>
      </trkpt>
      <trkpt lat="47.63729" lon="-2.68917">
        <ele>4.8</ele>
        <time>2020-06-06T11:10:30Z</time>
      </trkpt>
      <trkpt lat="47.63733" lon="-2.68922">
        <ele>4.7</ele>
        <time>2020-06-06T11:10:31Z</time>
      </trkpt>
      <trkpt lat="47.63735" lon="-2.68927">
        <ele>4.7</ele>
        <time>2020-06-06T11:10:32Z</time>
      </trkpt>
      <trkpt lat="47.63739" lon="-2.68933">
        <ele>4.7</ele>
        <time>2020-06-06T11:10:33Z</time>
      </trkpt>
      <trkpt lat="47.63742" lon="-2.68938">
        <ele>4.7</ele>
        <time>2020-06-06T11:10:34Z</time>
      </trkpt>
      <trkpt lat="47.63746" lon="-2.68942">
        <ele>4.7</ele>
        <time>2020-06-06T11:10:35Z</time>
      </trkpt>
      <trkpt lat="47.6375" lon="-2.68948">
        <ele>4.7</ele>
        <time>2020-06-06T11:10:36Z</time>
      </trkpt>
      <trkpt lat="47.63753" lon="-2.68953">
        <ele>4.6</ele>
        <time>2020-06-06T11:10:37Z</time>
      </trkpt>
      <trkpt lat="47.63758" lon="-2.68958">
        <ele>4.6</ele>
        <time>2020-06-06T11:10:38Z</time>
      </trkpt>
      <trkpt lat="47.63761" lon="-2.68963">
        <ele>4.6</ele>
        <time>2020-06-06T11:10:39Z</time>
      </trkpt>
      <trkpt lat="47.63765" lon="-2.6897">
        <ele>4.5</ele>
        <time>2020-06-06T11:10:40Z</time>
      </trkpt>
      <trkpt lat="47.63769" lon="-2.68974">
        <ele>4.5</ele>
        <time>2020-06-06T11:10:41Z</time>
      </trkpt>
      <trkpt lat="47.63773" lon="-2.6898">
        <ele>4.5</ele>
        <time>2020-06-06T11:10:42Z</time>
      </trkpt>
      <trkpt lat="47.63778" lon="-2.68984">
        <ele>4.5</ele>
        <time>2020-06-06T11:10:43Z</time>
      </trkpt>
      <trkpt lat="47.63782" lon="-2.68989">
        <ele>4.5</ele>
        <time>2020-06-06T11:10:44Z</time>
      </trkpt>
      <trkpt lat="47.63786" lon="-2.68993">
        <ele>4.4</ele>
        <time>2020-06-06T11:10:45Z</time>
      </trkpt>
      <trkpt lat="47.63791" lon="-2.68997">
        <ele>4.5</ele>
        <time>2020-06-06T11:10:46Z</time>
      </trkpt>
      <trkpt lat="47.63795" lon="-2.69003">
        <ele>4.5</ele>
        <time>2020-06-06T11:10:47Z</time>
      </trkpt>
      <trkpt lat="47.638" lon="-2.69008">
        <ele>4.5</ele>
        <time>2020-06-06T11:10:48Z</time>
      </trkpt>
      <trkpt lat="47.63804" lon="-2.69015">
        <ele>4.6</ele>
        <time>2020-06-06T11:10:49Z</time>
      </trkpt>
      <trkpt lat="47.63808" lon="-2.6902">
        <ele>4.6</ele>
        <time>2020-06-06T11:10:50Z</time>
      </trkpt>
      <trkpt lat="47.63812" lon="-2.69024">
        <ele>4.6</ele>
        <time>2020-06-06T11:10:51Z</time>
      </trkpt>
      <trkpt lat="47.63817" lon="-2.69028">
        <ele>4.6</ele>
        <time>2020-06-06T11:10:52Z</time>
      </trkpt>
      <trkpt lat="47.63821" lon="-2.69031">
        <ele>4.7</ele>
        <time>2020-06-06T11:10:53Z</time>
      </trkpt>
      <trkpt lat="47.63826" lon="-2.69035">
        <ele>4.7</ele>
        <time>2020-06-06T11:10:54Z</time>
      </trkpt>
      <trkpt lat="47.63831" lon="-2.6904">
        <ele>4.8</ele>
        <time>2020-06-06T11:10:55Z</time>
      </trkpt>
      <trkpt lat="47.63835" lon="-2.69043">
        <ele>4.8</ele>
        <time>2020-06-06T11:10:56Z</time>
      </trkpt>
      <trkpt lat="47.6384" lon="-2.69046">
        <ele>4.8</ele>
        <time>2020-06-06T11:10:57Z</time>
      </trkpt>
      <trkpt lat="47.63844" lon="-2.69049">
        <ele>4.8</ele>
        <time>2020-06-06T11:10:58Z</time>
      </trkpt>
      <trkpt lat="47.63849" lon="-2.69053">
        <ele>4.8</ele>
        <time>2020-06-06T11:10:59Z</time>
      </trkpt>
      <trkpt lat="47.63853" lon="-2.69057">
        <ele>4.8</ele>
        <time>2020-06-06T11:11:00Z</time>
      </trkpt>
      <trkpt lat="47.63857" lon="-2.69061">
        <ele>4.8</ele>
        <time>2020-06-06T11:11:01Z</time>
      </trkpt>
      <trkpt lat="47.63862" lon="-2.69067">
        <ele>4.9</ele>
        <time>2020-06-06T11:11:02Z</time>
      </trkpt>
      <trkpt lat="47.63865" lon="-2.69071">
        <ele>4.9</ele>
        <time>2020-06-06T11:11:03Z</time>
      </trkpt>
      <trkpt lat="47.6387" lon="-2.69075">
        <ele>4.9</ele>
        <time>2020-06-06T11:11:04Z</time>
      </trkpt>
      <trkpt lat="47.63874" lon="-2.6908">
        <ele>5</ele>
        <time>2020-06-06T11:11:05Z</time>
      </trkpt>
      <trkpt lat="47.63878" lon="-2.69083">
        <ele>5</ele>
        <time>2020-06-06T11:11:06Z</time>
      </trkpt>
      <trkpt lat="47.63881" lon="-2.69089">
        <ele>5</ele>
        <time>2020-06-06T11:11:07Z</time>
      </trkpt>
      <trkpt lat="47.63885" lon="-2.69094">
        <ele>5</ele>
        <time>2020-06-06T11:11:08Z</time>
      </trkpt>
      <trkpt lat="47.63889" lon="-2.69098">
        <ele>5</ele>
        <time>2020-06-06T11:11:09Z</time>
      </trkpt>
      <trkpt lat="47.63893" lon="-2.69104">
        <ele>5</ele>
        <time>2020-06-06T11:11:10Z</time>
      </trkpt>
      <trkpt lat="47.63897" lon="-2.69108">
        <ele>5.1</ele>
        <time>2020-06-06T11:11:11Z</time>
      </trkpt>
      <trkpt lat="47.639" lon="-2.69114">
        <ele>5.1</ele>
        <time>2020-06-06T11:11:12Z</time>
      </trkpt>
      <trkpt lat="47.63905" lon="-2.69118">
        <ele>5.1</ele>
        <time>2020-06-06T11:11:13Z</time>
      </trkpt>
      <trkpt lat="47.63909" lon="-2.69122">
        <ele>5.2</ele>
        <time>2020-06-06T11:11:14Z</time>
      </trkpt>
      <trkpt lat="47.63914" lon="-2.69127">
        <ele>5.2</ele>
        <time>2020-06-06T11:11:15Z</time>
      </trkpt>
      <trkpt lat="47.63917" lon="-2.69132">
        <ele>5.2</ele>
        <time>2020-06-06T11:11:16Z</time>
      </trkpt>
      <trkpt lat="47.63921" lon="-2.69136">
        <ele>5.2</ele>
        <time>2020-06-06T11:11:17Z</time>
      </trkpt>
      <trkpt lat="47.63924" lon="-2.69142">
        <ele>5.2</ele>
        <time>2020-06-06T11:11:18Z</time>
      </trkpt>
      <trkpt lat="47.63927" lon="-2.69147">
        <ele>5.2</ele>
        <time>2020-06-06T11:11:19Z</time>
      </trkpt>
      <trkpt lat="47.6393" lon="-2.69153">
        <ele>5.1</ele>
        <time>2020-06-06T11:11:20Z</time>
      </trkpt>
      <trkpt lat="47.63933" lon="-2.69159">
        <ele>5.1</ele>
        <time>2020-06-06T11:11:21Z</time>
      </trkpt>
      <trkpt lat="47.63936" lon="-2.69165">
        <ele>5.1</ele>
        <time>2020-06-06T11:11:22Z</time>
      </trkpt>
      <trkpt lat="47.63939" lon="-2.69172">
        <ele>5.1</ele>
        <time>2020-06-06T11:11:23Z</time>
      </trkpt>
      <trkpt lat="47.63941" lon="-2.6918">
        <ele>5.1</ele>
        <time>2020-06-06T11:11:24Z</time>
      </trkpt>
      <trkpt lat="47.63943" lon="-2.69187">
        <ele>5.1</ele>
        <time>2020-06-06T11:11:25Z</time>
      </trkpt>
      <trkpt lat="47.63945" lon="-2.69193">
        <ele>5.1</ele>
        <time>2020-06-06T11:11:26Z</time>
      </trkpt>
      <trkpt lat="47.63947" lon="-2.692">
        <ele>5.1</ele>
        <time>2020-06-06T11:11:27Z</time>
      </trkpt>
      <trkpt lat="47.63948" lon="-2.69208">
        <ele>5.1</ele>
        <time>2020-06-06T11:11:28Z</time>
      </trkpt>
      <trkpt lat="47.63949" lon="-2.69217">
        <ele>5</ele>
        <time>2020-06-06T11:11:29Z</time>
      </trkpt>
      <trkpt lat="47.63949" lon="-2.69226">
        <ele>5</ele>
        <time>2020-06-06T11:11:30Z</time>
      </trkpt>
      <trkpt lat="47.6395" lon="-2.69234">
        <ele>5</ele>
        <time>2020-06-06T11:11:31Z</time>
      </trkpt>
      <trkpt lat="47.63951" lon="-2.69243">
        <ele>5</ele>
        <time>2020-06-06T11:11:32Z</time>
      </trkpt>
      <trkpt lat="47.63952" lon="-2.69252">
        <ele>5</ele>
        <time>2020-06-06T11:11:33Z</time>
      </trkpt>
      <trkpt lat="47.63954" lon="-2.69259">
        <ele>5</ele>
        <time>2020-06-06T11:11:34Z</time>
      </trkpt>
      <trkpt lat="47.63954" lon="-2.69268">
        <ele>5.1</ele>
        <time>2020-06-06T11:11:35Z</time>
      </trkpt>
      <trkpt lat="47.63955" lon="-2.69275">
        <ele>5.1</ele>
        <time>2020-06-06T11:11:36Z</time>
      </trkpt>
      <trkpt lat="47.63956" lon="-2.69283">
        <ele>5.1</ele>
        <time>2020-06-06T11:11:37Z</time>
      </trkpt>
      <trkpt lat="47.63957" lon="-2.69291">
        <ele>5.2</ele>
        <time>2020-06-06T11:11:38Z</time>
      </trkpt>
      <trkpt lat="47.63958" lon="-2.69297">
        <ele>5.2</ele>
        <time>2020-06-06T11:11:39Z</time>
      </trkpt>
      <trkpt lat="47.63958" lon="-2.69302">
        <ele>5.3</ele>
        <time>2020-06-06T11:11:40Z</time>
      </trkpt>
      <trkpt lat="47.63958" lon="-2.69309">
        <ele>5.3</ele>
        <time>2020-06-06T11:11:41Z</time>
      </trkpt>
      <trkpt lat="47.63959" lon="-2.69316">
        <ele>5.3</ele>
        <time>2020-06-06T11:11:42Z</time>
      </trkpt>
      <trkpt lat="47.6396" lon="-2.69323">
        <ele>5.3</ele>
        <time>2020-06-06T11:11:43Z</time>
      </trkpt>
      <trkpt lat="47.6396" lon="-2.6933">
        <ele>5.4</ele>
        <time>2020-06-06T11:11:44Z</time>
      </trkpt>
      <trkpt lat="47.63959" lon="-2.69336">
        <ele>5.4</ele>
        <time>2020-06-06T11:11:45Z</time>
      </trkpt>
      <trkpt lat="47.63959" lon="-2.69342">
        <ele>5.4</ele>
        <time>2020-06-06T11:11:46Z</time>
      </trkpt>
      <trkpt lat="47.63958" lon="-2.69348">
        <ele>5.4</ele>
        <time>2020-06-06T11:11:47Z</time>
      </trkpt>
      <trkpt lat="47.63958" lon="-2.69354">
        <ele>5.4</ele>
        <time>2020-06-06T11:11:48Z</time>
      </trkpt>
      <trkpt lat="47.63957" lon="-2.6936">
        <ele>5.4</ele>
        <time>2020-06-06T11:11:49Z</time>
      </trkpt>
      <trkpt lat="47.63956" lon="-2.69367">
        <ele>5.5</ele>
        <time>2020-06-06T11:11:50Z</time>
      </trkpt>
      <trkpt lat="47.63955" lon="-2.69374">
        <ele>5.5</ele>
        <time>2020-06-06T11:11:51Z</time>
      </trkpt>
      <trkpt lat="47.63954" lon="-2.69381">
        <ele>5.5</ele>
        <time>2020-06-06T11:11:52Z</time>
      </trkpt>
      <trkpt lat="47.63953" lon="-2.69389">
        <ele>5.5</ele>
        <time>2020-06-06T11:11:53Z</time>
      </trkpt>
      <trkpt lat="47.63951" lon="-2.69398">
        <ele>5.5</ele>
        <time>2020-06-06T11:11:54Z</time>
      </trkpt>
      <trkpt lat="47.63949" lon="-2.69405">
        <ele>5.5</ele>
        <time>2020-06-06T11:11:55Z</time>
      </trkpt>
      <trkpt lat="47.63948" lon="-2.69413">
        <ele>5.6</ele>
        <time>2020-06-06T11:11:56Z</time>
      </trkpt>
      <trkpt lat="47.63947" lon="-2.69421">
        <ele>5.6</ele>
        <time>2020-06-06T11:11:57Z</time>
      </trkpt>
      <trkpt lat="47.63944" lon="-2.6943">
        <ele>5.6</ele>
        <time>2020-06-06T11:11:58Z</time>
      </trkpt>
      <trkpt lat="47.63943" lon="-2.69438">
        <ele>5.6</ele>
        <time>2020-06-06T11:11:59Z</time>
      </trkpt>
      <trkpt lat="47.63942" lon="-2.69446">
        <ele>5.6</ele>
        <time>2020-06-06T11:12:00Z</time>
      </trkpt>
      <trkpt lat="47.63941" lon="-2.69454">
        <ele>5.6</ele>
        <time>2020-06-06T11:12:01Z</time>
      </trkpt>
      <trkpt lat="47.6394" lon="-2.69462">
        <ele>5.6</ele>
        <time>2020-06-06T11:12:02Z</time>
      </trkpt>
      <trkpt lat="47.63938" lon="-2.6947">
        <ele>5.6</ele>
        <time>2020-06-06T11:12:03Z</time>
      </trkpt>
      <trkpt lat="47.63937" lon="-2.69479">
        <ele>5.6</ele>
        <time>2020-06-06T11:12:04Z</time>
      </trkpt>
      <trkpt lat="47.63937" lon="-2.69487">
        <ele>5.6</ele>
        <time>2020-06-06T11:12:05Z</time>
      </trkpt>
      <trkpt lat="47.63936" lon="-2.69496">
        <ele>5.6</ele>
        <time>2020-06-06T11:12:06Z</time>
      </trkpt>
      <trkpt lat="47.63935" lon="-2.69504">
        <ele>5.6</ele>
        <time>2020-06-06T11:12:07Z</time>
      </trkpt>
      <trkpt lat="47.63934" lon="-2.69512">
        <ele>5.6</ele>
        <time>2020-06-06T11:12:08Z</time>
      </trkpt>
      <trkpt lat="47.63933" lon="-2.69519">
        <ele>5.6</ele>
        <time>2020-06-06T11:12:09Z</time>
      </trkpt>
      <trkpt lat="47.63932" lon="-2.69526">
        <ele>5.5</ele>
        <time>2020-06-06T11:12:10Z</time>
      </trkpt>
      <trkpt lat="47.63931" lon="-2.69533">
        <ele>5.5</ele>
        <time>2020-06-06T11:12:11Z</time>
      </trkpt>
      <trkpt lat="47.63931" lon="-2.69541">
        <ele>5.5</ele>
        <time>2020-06-06T11:12:12Z</time>
      </trkpt>
      <trkpt lat="47.63931" lon="-2.6955">
        <ele>5.5</ele>
        <time>2020-06-06T11:12:13Z</time>
      </trkpt>
      <trkpt lat="47.6393" lon="-2.69556">
        <ele>5.5</ele>
        <time>2020-06-06T11:12:14Z</time>
      </trkpt>
      <trkpt lat="47.6393" lon="-2.69563">
        <ele>5.5</ele>
        <time>2020-06-06T11:12:15Z</time>
      </trkpt>
      <trkpt lat="47.63929" lon="-2.6957">
        <ele>5.5</ele>
        <time>2020-06-06T11:12:16Z</time>
      </trkpt>
      <trkpt lat="47.63928" lon="-2.69576">
        <ele>5.5</ele>
        <time>2020-06-06T11:12:17Z</time>
      </trkpt>
      <trkpt lat="47.63928" lon="-2.69584">
        <ele>5.5</ele>
        <time>2020-06-06T11:12:18Z</time>
      </trkpt>
      <trkpt lat="47.63928" lon="-2.69592">
        <ele>5.5</ele>
        <time>2020-06-06T11:12:19Z</time>
      </trkpt>
      <trkpt lat="47.63928" lon="-2.69599">
        <ele>5.5</ele>
        <time>2020-06-06T11:12:20Z</time>
      </trkpt>
      <trkpt lat="47.63928" lon="-2.69607">
        <ele>5.5</ele>
        <time>2020-06-06T11:12:21Z</time>
      </trkpt>
      <trkpt lat="47.63927" lon="-2.69615">
        <ele>5.5</ele>
        <time>2020-06-06T11:12:22Z</time>
      </trkpt>
      <trkpt lat="47.63927" lon="-2.69622">
        <ele>5.5</ele>
        <time>2020-06-06T11:12:23Z</time>
      </trkpt>
      <trkpt lat="47.63926" lon="-2.6963">
        <ele>5.5</ele>
        <time>2020-06-06T11:12:24Z</time>
      </trkpt>
      <trkpt lat="47.63926" lon="-2.69638">
        <ele>5.5</ele>
        <time>2020-06-06T11:12:25Z</time>
      </trkpt>
      <trkpt lat="47.63925" lon="-2.69646">
        <ele>5.4</ele>
        <time>2020-06-06T11:12:26Z</time>
      </trkpt>
      <trkpt lat="47.63923" lon="-2.69654">
        <ele>5.4</ele>
        <time>2020-06-06T11:12:27Z</time>
      </trkpt>
      <trkpt lat="47.63923" lon="-2.69662">
        <ele>5.4</ele>
        <time>2020-06-06T11:12:28Z</time>
      </trkpt>
      <trkpt lat="47.63922" lon="-2.6967">
        <ele>5.4</ele>
        <time>2020-06-06T11:12:29Z</time>
      </trkpt>
      <trkpt lat="47.6392" lon="-2.69677">
        <ele>5.4</ele>
        <time>2020-06-06T11:12:30Z</time>
      </trkpt>
      <trkpt lat="47.63919" lon="-2.69686">
        <ele>5.4</ele>
        <time>2020-06-06T11:12:31Z</time>
      </trkpt>
      <trkpt lat="47.63918" lon="-2.69694">
        <ele>5.5</ele>
        <time>2020-06-06T11:12:32Z</time>
      </trkpt>
      <trkpt lat="47.63915" lon="-2.69702">
        <ele>5.5</ele>
        <time>2020-06-06T11:12:33Z</time>
      </trkpt>
      <trkpt lat="47.63915" lon="-2.69711">
        <ele>5.5</ele>
        <time>2020-06-06T11:12:34Z</time>
      </trkpt>
      <trkpt lat="47.63914" lon="-2.69719">
        <ele>5.6</ele>
        <time>2020-06-06T11:12:35Z</time>
      </trkpt>
      <trkpt lat="47.63914" lon="-2.69726">
        <ele>5.6</ele>
        <time>2020-06-06T11:12:36Z</time>
      </trkpt>
      <trkpt lat="47.63914" lon="-2.69733">
        <ele>5.6</ele>
        <time>2020-06-06T11:12:37Z</time>
      </trkpt>
      <trkpt lat="47.63914" lon="-2.69741">
        <ele>5.6</ele>
        <time>2020-06-06T11:12:38Z</time>
      </trkpt>
      <trkpt lat="47.63914" lon="-2.69749">
        <ele>5.6</ele>
        <time>2020-06-06T11:12:39Z</time>
      </trkpt>
      <trkpt lat="47.63914" lon="-2.69756">
        <ele>5.6</ele>
        <time>2020-06-06T11:12:40Z</time>
      </trkpt>
      <trkpt lat="47.63915" lon="-2.69763">
        <ele>5.6</ele>
        <time>2020-06-06T11:12:41Z</time>
      </trkpt>
      <trkpt lat="47.63916" lon="-2.6977">
        <ele>5.7</ele>
        <time>2020-06-06T11:12:42Z</time>
      </trkpt>
      <trkpt lat="47.63916" lon="-2.69778">
        <ele>5.7</ele>
        <time>2020-06-06T11:12:43Z</time>
      </trkpt>
      <trkpt lat="47.63916" lon="-2.69786">
        <ele>5.7</ele>
        <time>2020-06-06T11:12:44Z</time>
      </trkpt>
      <trkpt lat="47.63916" lon="-2.69794">
        <ele>5.7</ele>
        <time>2020-06-06T11:12:45Z</time>
      </trkpt>
      <trkpt lat="47.63917" lon="-2.69802">
        <ele>5.7</ele>
        <time>2020-06-06T11:12:46Z</time>
      </trkpt>
      <trkpt lat="47.63917" lon="-2.69808">
        <ele>5.7</ele>
        <time>2020-06-06T11:12:47Z</time>
      </trkpt>
      <trkpt lat="47.63918" lon="-2.69815">
        <ele>5.8</ele>
        <time>2020-06-06T11:12:48Z</time>
      </trkpt>
      <trkpt lat="47.63918" lon="-2.69822">
        <ele>5.9</ele>
        <time>2020-06-06T11:12:49Z</time>
      </trkpt>
      <trkpt lat="47.6392" lon="-2.6983">
        <ele>5.9</ele>
        <time>2020-06-06T11:12:50Z</time>
      </trkpt>
      <trkpt lat="47.63921" lon="-2.69837">
        <ele>6</ele>
        <time>2020-06-06T11:12:51Z</time>
      </trkpt>
      <trkpt lat="47.63922" lon="-2.69845">
        <ele>6.1</ele>
        <time>2020-06-06T11:12:52Z</time>
      </trkpt>
      <trkpt lat="47.63924" lon="-2.69852">
        <ele>6.1</ele>
        <time>2020-06-06T11:12:53Z</time>
      </trkpt>
      <trkpt lat="47.63925" lon="-2.69859">
        <ele>6.2</ele>
        <time>2020-06-06T11:12:54Z</time>
      </trkpt>
      <trkpt lat="47.63926" lon="-2.69866">
        <ele>6.2</ele>
        <time>2020-06-06T11:12:55Z</time>
      </trkpt>
      <trkpt lat="47.63927" lon="-2.69873">
        <ele>6.3</ele>
        <time>2020-06-06T11:12:56Z</time>
      </trkpt>
      <trkpt lat="47.63929" lon="-2.69879">
        <ele>6.3</ele>
        <time>2020-06-06T11:12:57Z</time>
      </trkpt>
      <trkpt lat="47.63931" lon="-2.69885">
        <ele>6.4</ele>
        <time>2020-06-06T11:12:58Z</time>
      </trkpt>
      <trkpt lat="47.63932" lon="-2.69892">
        <ele>6.4</ele>
        <time>2020-06-06T11:12:59Z</time>
      </trkpt>
      <trkpt lat="47.63934" lon="-2.69898">
        <ele>6.5</ele>
        <time>2020-06-06T11:13:00Z</time>
      </trkpt>
      <trkpt lat="47.63936" lon="-2.69905">
        <ele>6.6</ele>
        <time>2020-06-06T11:13:01Z</time>
      </trkpt>
      <trkpt lat="47.63938" lon="-2.69911">
        <ele>6.6</ele>
        <time>2020-06-06T11:13:02Z</time>
      </trkpt>
      <trkpt lat="47.63941" lon="-2.69917">
        <ele>6.7</ele>
        <time>2020-06-06T11:13:03Z</time>
      </trkpt>
      <trkpt lat="47.63942" lon="-2.69924">
        <ele>6.8</ele>
        <time>2020-06-06T11:13:04Z</time>
      </trkpt>
      <trkpt lat="47.63945" lon="-2.6993">
        <ele>6.9</ele>
        <time>2020-06-06T11:13:05Z</time>
      </trkpt>
      <trkpt lat="47.63947" lon="-2.69936">
        <ele>7</ele>
        <time>2020-06-06T11:13:06Z</time>
      </trkpt>
      <trkpt lat="47.6395" lon="-2.69943">
        <ele>7.1</ele>
        <time>2020-06-06T11:13:07Z</time>
      </trkpt>
      <trkpt lat="47.63952" lon="-2.69949">
        <ele>7.2</ele>
        <time>2020-06-06T11:13:08Z</time>
      </trkpt>
      <trkpt lat="47.63954" lon="-2.69955">
        <ele>7.3</ele>
        <time>2020-06-06T11:13:09Z</time>
      </trkpt>
      <trkpt lat="47.63956" lon="-2.69961">
        <ele>7.4</ele>
        <time>2020-06-06T11:13:10Z</time>
      </trkpt>
      <trkpt lat="47.63959" lon="-2.69967">
        <ele>7.5</ele>
        <time>2020-06-06T11:13:11Z</time>
      </trkpt>
      <trkpt lat="47.6396" lon="-2.69972">
        <ele>7.5</ele>
        <time>2020-06-06T11:13:12Z</time>
      </trkpt>
      <trkpt lat="47.63963" lon="-2.69978">
        <ele>7.6</ele>
        <time>2020-06-06T11:13:13Z</time>
      </trkpt>
      <trkpt lat="47.63966" lon="-2.69983">
        <ele>7.6</ele>
        <time>2020-06-06T11:13:14Z</time>
      </trkpt>
      <trkpt lat="47.6397" lon="-2.69989">
        <ele>7.6</ele>
        <time>2020-06-06T11:13:15Z</time>
      </trkpt>
      <trkpt lat="47.63973" lon="-2.69994">
        <ele>7.6</ele>
        <time>2020-06-06T11:13:16Z</time>
      </trkpt>
      <trkpt lat="47.63975" lon="-2.69999">
        <ele>7.7</ele>
        <time>2020-06-06T11:13:17Z</time>
      </trkpt>
      <trkpt lat="47.63978" lon="-2.70004">
        <ele>7.7</ele>
        <time>2020-06-06T11:13:18Z</time>
      </trkpt>
      <trkpt lat="47.63981" lon="-2.7001">
        <ele>7.6</ele>
        <time>2020-06-06T11:13:19Z</time>
      </trkpt>
      <trkpt lat="47.63984" lon="-2.70015">
        <ele>7.6</ele>
        <time>2020-06-06T11:13:20Z</time>
      </trkpt>
      <trkpt lat="47.63987" lon="-2.70021">
        <ele>7.6</ele>
        <time>2020-06-06T11:13:21Z</time>
      </trkpt>
      <trkpt lat="47.63991" lon="-2.70025">
        <ele>7.5</ele>
        <time>2020-06-06T11:13:22Z</time>
      </trkpt>
      <trkpt lat="47.63995" lon="-2.7003">
        <ele>7.5</ele>
        <time>2020-06-06T11:13:23Z</time>
      </trkpt>
      <trkpt lat="47.64" lon="-2.70036">
        <ele>7.5</ele>
        <time>2020-06-06T11:13:24Z</time>
      </trkpt>
      <trkpt lat="47.64004" lon="-2.70042">
        <ele>7.4</ele>
        <time>2020-06-06T11:13:25Z</time>
      </trkpt>
      <trkpt lat="47.64009" lon="-2.70049">
        <ele>7.2</ele>
        <time>2020-06-06T11:13:26Z</time>
      </trkpt>
      <trkpt lat="47.64014" lon="-2.70055">
        <ele>7.1</ele>
        <time>2020-06-06T11:13:27Z</time>
      </trkpt>
      <trkpt lat="47.64019" lon="-2.70062">
        <ele>6.9</ele>
        <time>2020-06-06T11:13:28Z</time>
      </trkpt>
      <trkpt lat="47.64024" lon="-2.7007">
        <ele>6.8</ele>
        <time>2020-06-06T11:13:29Z</time>
      </trkpt>
      <trkpt lat="47.64028" lon="-2.70077">
        <ele>6.7</ele>
        <time>2020-06-06T11:13:30Z</time>
      </trkpt>
      <trkpt lat="47.64033" lon="-2.70085">
        <ele>6.5</ele>
        <time>2020-06-06T11:13:31Z</time>
      </trkpt>
      <trkpt lat="47.64038" lon="-2.70093">
        <ele>6.4</ele>
        <time>2020-06-06T11:13:32Z</time>
      </trkpt>
      <trkpt lat="47.64043" lon="-2.701">
        <ele>6.3</ele>
        <time>2020-06-06T11:13:33Z</time>
      </trkpt>
      <trkpt lat="47.64048" lon="-2.70107">
        <ele>6.1</ele>
        <time>2020-06-06T11:13:34Z</time>
      </trkpt>
      <trkpt lat="47.64053" lon="-2.70115">
        <ele>6</ele>
        <time>2020-06-06T11:13:35Z</time>
      </trkpt>
      <trkpt lat="47.64058" lon="-2.70122">
        <ele>5.8</ele>
        <time>2020-06-06T11:13:36Z</time>
      </trkpt>
      <trkpt lat="47.64063" lon="-2.70128">
        <ele>5.7</ele>
        <time>2020-06-06T11:13:37Z</time>
      </trkpt>
      <trkpt lat="47.64067" lon="-2.70135">
        <ele>5.6</ele>
        <time>2020-06-06T11:13:38Z</time>
      </trkpt>
      <trkpt lat="47.64072" lon="-2.70141">
        <ele>5.6</ele>
        <time>2020-06-06T11:13:39Z</time>
      </trkpt>
      <trkpt lat="47.64076" lon="-2.70148">
        <ele>5.5</ele>
        <time>2020-06-06T11:13:40Z</time>
      </trkpt>
      <trkpt lat="47.6408" lon="-2.70155">
        <ele>5.5</ele>
        <time>2020-06-06T11:13:41Z</time>
      </trkpt>
      <trkpt lat="47.64085" lon="-2.70162">
        <ele>5.5</ele>
        <time>2020-06-06T11:13:42Z</time>
      </trkpt>
      <trkpt lat="47.6409" lon="-2.70169">
        <ele>5.4</ele>
        <time>2020-06-06T11:13:43Z</time>
      </trkpt>
      <trkpt lat="47.64095" lon="-2.70177">
        <ele>5.4</ele>
        <time>2020-06-06T11:13:44Z</time>
      </trkpt>
      <trkpt lat="47.64099" lon="-2.70183">
        <ele>5.4</ele>
        <time>2020-06-06T11:13:45Z</time>
      </trkpt>
      <trkpt lat="47.64104" lon="-2.7019">
        <ele>5.4</ele>
        <time>2020-06-06T11:13:46Z</time>
      </trkpt>
      <trkpt lat="47.64109" lon="-2.70196">
        <ele>5.4</ele>
        <time>2020-06-06T11:13:47Z</time>
      </trkpt>
      <trkpt lat="47.64113" lon="-2.70202">
        <ele>5.4</ele>
        <time>2020-06-06T11:13:48Z</time>
      </trkpt>
      <trkpt lat="47.64117" lon="-2.70208">
        <ele>5.4</ele>
        <time>2020-06-06T11:13:49Z</time>
      </trkpt>
      <trkpt lat="47.64121" lon="-2.70214">
        <ele>5.4</ele>
        <time>2020-06-06T11:13:50Z</time>
      </trkpt>
      <trkpt lat="47.64126" lon="-2.7022">
        <ele>5.4</ele>
        <time>2020-06-06T11:13:51Z</time>
      </trkpt>
      <trkpt lat="47.6413" lon="-2.70226">
        <ele>5.4</ele>
        <time>2020-06-06T11:13:52Z</time>
      </trkpt>
      <trkpt lat="47.64134" lon="-2.70233">
        <ele>5.5</ele>
        <time>2020-06-06T11:13:53Z</time>
      </trkpt>
      <trkpt lat="47.64139" lon="-2.70239">
        <ele>5.5</ele>
        <time>2020-06-06T11:13:54Z</time>
      </trkpt>
      <trkpt lat="47.64144" lon="-2.70245">
        <ele>5.6</ele>
        <time>2020-06-06T11:13:55Z</time>
      </trkpt>
      <trkpt lat="47.64147" lon="-2.7025">
        <ele>5.6</ele>
        <time>2020-06-06T11:13:56Z</time>
      </trkpt>
      <trkpt lat="47.64152" lon="-2.70256">
        <ele>5.7</ele>
        <time>2020-06-06T11:13:57Z</time>
      </trkpt>
      <trkpt lat="47.64156" lon="-2.7026">
        <ele>5.8</ele>
        <time>2020-06-06T11:13:58Z</time>
      </trkpt>
      <trkpt lat="47.64159" lon="-2.70265">
        <ele>5.9</ele>
        <time>2020-06-06T11:13:59Z</time>
      </trkpt>
      <trkpt lat="47.64162" lon="-2.70271">
        <ele>6.1</ele>
        <time>2020-06-06T11:14:00Z</time>
      </trkpt>
      <trkpt lat="47.64166" lon="-2.70276">
        <ele>6.2</ele>
        <time>2020-06-06T11:14:01Z</time>
      </trkpt>
      <trkpt lat="47.6417" lon="-2.70282">
        <ele>6.4</ele>
        <time>2020-06-06T11:14:02Z</time>
      </trkpt>
      <trkpt lat="47.64174" lon="-2.70288">
        <ele>6.5</ele>
        <time>2020-06-06T11:14:03Z</time>
      </trkpt>
      <trkpt lat="47.64178" lon="-2.70293">
        <ele>6.6</ele>
        <time>2020-06-06T11:14:04Z</time>
      </trkpt>
      <trkpt lat="47.64181" lon="-2.70299">
        <ele>6.8</ele>
        <time>2020-06-06T11:14:05Z</time>
      </trkpt>
      <trkpt lat="47.64185" lon="-2.70304">
        <ele>6.8</ele>
        <time>2020-06-06T11:14:06Z</time>
      </trkpt>
      <trkpt lat="47.64187" lon="-2.70309">
        <ele>6.9</ele>
        <time>2020-06-06T11:14:07Z</time>
      </trkpt>
      <trkpt lat="47.64191" lon="-2.70314">
        <ele>7</ele>
        <time>2020-06-06T11:14:08Z</time>
      </trkpt>
      <trkpt lat="47.64194" lon="-2.70319">
        <ele>7</ele>
        <time>2020-06-06T11:14:09Z</time>
      </trkpt>
      <trkpt lat="47.64197" lon="-2.70323">
        <ele>7</ele>
        <time>2020-06-06T11:14:10Z</time>
      </trkpt>
      <trkpt lat="47.642" lon="-2.70328">
        <ele>7.1</ele>
        <time>2020-06-06T11:14:11Z</time>
      </trkpt>
      <trkpt lat="47.64204" lon="-2.70333">
        <ele>7.1</ele>
        <time>2020-06-06T11:14:12Z</time>
      </trkpt>
      <trkpt lat="47.64209" lon="-2.7034">
        <ele>7.1</ele>
        <time>2020-06-06T11:14:13Z</time>
      </trkpt>
      <trkpt lat="47.64212" lon="-2.70344">
        <ele>7.1</ele>
        <time>2020-06-06T11:14:14Z</time>
      </trkpt>
      <trkpt lat="47.64217" lon="-2.70351">
        <ele>7.2</ele>
        <time>2020-06-06T11:14:15Z</time>
      </trkpt>
      <trkpt lat="47.64222" lon="-2.70357">
        <ele>7.2</ele>
        <time>2020-06-06T11:14:16Z</time>
      </trkpt>
      <trkpt lat="47.64226" lon="-2.70363">
        <ele>7.2</ele>
        <time>2020-06-06T11:14:17Z</time>
      </trkpt>
      <trkpt lat="47.64229" lon="-2.70368">
        <ele>7.2</ele>
        <time>2020-06-06T11:14:18Z</time>
      </trkpt>
      <trkpt lat="47.64233" lon="-2.70374">
        <ele>7.1</ele>
        <time>2020-06-06T11:14:19Z</time>
      </trkpt>
      <trkpt lat="47.64237" lon="-2.70379">
        <ele>7.1</ele>
        <time>2020-06-06T11:14:20Z</time>
      </trkpt>
      <trkpt lat="47.64242" lon="-2.70385">
        <ele>7</ele>
        <time>2020-06-06T11:14:21Z</time>
      </trkpt>
      <trkpt lat="47.64245" lon="-2.70391">
        <ele>7</ele>
        <time>2020-06-06T11:14:22Z</time>
      </trkpt>
      <trkpt lat="47.64249" lon="-2.70396">
        <ele>6.9</ele>
        <time>2020-06-06T11:14:23Z</time>
      </trkpt>
      <trkpt lat="47.64253" lon="-2.70403">
        <ele>6.8</ele>
        <time>2020-06-06T11:14:24Z</time>
      </trkpt>
      <trkpt lat="47.64257" lon="-2.70408">
        <ele>6.7</ele>
        <time>2020-06-06T11:14:25Z</time>
      </trkpt>
      <trkpt lat="47.64261" lon="-2.70414">
        <ele>6.5</ele>
        <time>2020-06-06T11:14:26Z</time>
      </trkpt>
      <trkpt lat="47.64264" lon="-2.7042">
        <ele>6.3</ele>
        <time>2020-06-06T11:14:27Z</time>
      </trkpt>
      <trkpt lat="47.64269" lon="-2.70426">
        <ele>6.1</ele>
        <time>2020-06-06T11:14:28Z</time>
      </trkpt>
      <trkpt lat="47.64273" lon="-2.70433">
        <ele>5.9</ele>
        <time>2020-06-06T11:14:29Z</time>
      </trkpt>
      <trkpt lat="47.64278" lon="-2.70439">
        <ele>5.7</ele>
        <time>2020-06-06T11:14:30Z</time>
      </trkpt>
      <trkpt lat="47.64283" lon="-2.70447">
        <ele>5.5</ele>
        <time>2020-06-06T11:14:31Z</time>
      </trkpt>
      <trkpt lat="47.64287" lon="-2.70453">
        <ele>5.4</ele>
        <time>2020-06-06T11:14:32Z</time>
      </trkpt>
      <trkpt lat="47.64291" lon="-2.70459">
        <ele>5.3</ele>
        <time>2020-06-06T11:14:33Z</time>
      </trkpt>
      <trkpt lat="47.64296" lon="-2.70465">
        <ele>5.1</ele>
        <time>2020-06-06T11:14:34Z</time>
      </trkpt>
      <trkpt lat="47.64301" lon="-2.70471">
        <ele>4.9</ele>
        <time>2020-06-06T11:14:35Z</time>
      </trkpt>
      <trkpt lat="47.64305" lon="-2.70477">
        <ele>4.9</ele>
        <time>2020-06-06T11:14:36Z</time>
      </trkpt>
      <trkpt lat="47.64308" lon="-2.70482">
        <ele>4.9</ele>
        <time>2020-06-06T11:14:37Z</time>
      </trkpt>
      <trkpt lat="47.64312" lon="-2.70488">
        <ele>4.9</ele>
        <time>2020-06-06T11:14:38Z</time>
      </trkpt>
      <trkpt lat="47.64315" lon="-2.70495">
        <ele>4.9</ele>
        <time>2020-06-06T11:14:39Z</time>
      </trkpt>
      <trkpt lat="47.64318" lon="-2.70501">
        <ele>4.8</ele>
        <time>2020-06-06T11:14:40Z</time>
      </trkpt>
      <trkpt lat="47.64321" lon="-2.70505">
        <ele>4.8</ele>
        <time>2020-06-06T11:14:41Z</time>
      </trkpt>
      <trkpt lat="47.64324" lon="-2.70509">
        <ele>4.8</ele>
        <time>2020-06-06T11:14:42Z</time>
      </trkpt>
      <trkpt lat="47.64327" lon="-2.70513">
        <ele>4.8</ele>
        <time>2020-06-06T11:14:43Z</time>
      </trkpt>
      <trkpt lat="47.64331" lon="-2.70517">
        <ele>4.8</ele>
        <time>2020-06-06T11:14:44Z</time>
      </trkpt>
      <trkpt lat="47.64333" lon="-2.70522">
        <ele>4.8</ele>
        <time>2020-06-06T11:14:45Z</time>
      </trkpt>
      <trkpt lat="47.64336" lon="-2.70527">
        <ele>4.7</ele>
        <time>2020-06-06T11:14:46Z</time>
      </trkpt>
      <trkpt lat="47.64339" lon="-2.70532">
        <ele>4.7</ele>
        <time>2020-06-06T11:14:47Z</time>
      </trkpt>
      <trkpt lat="47.64341" lon="-2.70536">
        <ele>4.7</ele>
        <time>2020-06-06T11:14:48Z</time>
      </trkpt>
      <trkpt lat="47.64344" lon="-2.70539">
        <ele>4.7</ele>
        <time>2020-06-06T11:14:49Z</time>
      </trkpt>
      <trkpt lat="47.64347" lon="-2.70543">
        <ele>4.7</ele>
        <time>2020-06-06T11:14:50Z</time>
      </trkpt>
      <trkpt lat="47.6435" lon="-2.70546">
        <ele>4.7</ele>
        <time>2020-06-06T11:14:51Z</time>
      </trkpt>
      <trkpt lat="47.64352" lon="-2.70549">
        <ele>4.7</ele>
        <time>2020-06-06T11:14:52Z</time>
      </trkpt>
      <trkpt lat="47.64355" lon="-2.70554">
        <ele>4.7</ele>
        <time>2020-06-06T11:14:53Z</time>
      </trkpt>
      <trkpt lat="47.64359" lon="-2.70558">
        <ele>4.7</ele>
        <time>2020-06-06T11:14:54Z</time>
      </trkpt>
      <trkpt lat="47.64362" lon="-2.70562">
        <ele>4.7</ele>
        <time>2020-06-06T11:14:55Z</time>
      </trkpt>
      <trkpt lat="47.64366" lon="-2.70567">
        <ele>4.7</ele>
        <time>2020-06-06T11:14:56Z</time>
      </trkpt>
      <trkpt lat="47.64369" lon="-2.70571">
        <ele>4.7</ele>
        <time>2020-06-06T11:14:57Z</time>
      </trkpt>
      <trkpt lat="47.64371" lon="-2.70575">
        <ele>4.7</ele>
        <time>2020-06-06T11:14:58Z</time>
      </trkpt>
      <trkpt lat="47.64374" lon="-2.70581">
        <ele>4.7</ele>
        <time>2020-06-06T11:14:59Z</time>
      </trkpt>
      <trkpt lat="47.64377" lon="-2.70584">
        <ele>4.7</ele>
        <time>2020-06-06T11:15:00Z</time>
      </trkpt>
      <trkpt lat="47.64381" lon="-2.70591">
        <ele>4.6</ele>
        <time>2020-06-06T11:15:01Z</time>
      </trkpt>
      <trkpt lat="47.64384" lon="-2.70596">
        <ele>4.6</ele>
        <time>2020-06-06T11:15:02Z</time>
      </trkpt>
      <trkpt lat="47.64388" lon="-2.70601">
        <ele>4.6</ele>
        <time>2020-06-06T11:15:03Z</time>
      </trkpt>
      <trkpt lat="47.64392" lon="-2.70605">
        <ele>4.6</ele>
        <time>2020-06-06T11:15:04Z</time>
      </trkpt>
      <trkpt lat="47.64394" lon="-2.70609">
        <ele>4.6</ele>
        <time>2020-06-06T11:15:05Z</time>
      </trkpt>
      <trkpt lat="47.64397" lon="-2.70613">
        <ele>4.6</ele>
        <time>2020-06-06T11:15:06Z</time>
      </trkpt>
      <trkpt lat="47.64399" lon="-2.70617">
        <ele>4.6</ele>
        <time>2020-06-06T11:15:07Z</time>
      </trkpt>
      <trkpt lat="47.64403" lon="-2.70623">
        <ele>4.6</ele>
        <time>2020-06-06T11:15:08Z</time>
      </trkpt>
      <trkpt lat="47.64406" lon="-2.70628">
        <ele>4.7</ele>
        <time>2020-06-06T11:15:09Z</time>
      </trkpt>
      <trkpt lat="47.64409" lon="-2.70634">
        <ele>4.7</ele>
        <time>2020-06-06T11:15:10Z</time>
      </trkpt>
      <trkpt lat="47.64412" lon="-2.70638">
        <ele>4.7</ele>
        <time>2020-06-06T11:15:11Z</time>
      </trkpt>
      <trkpt lat="47.64416" lon="-2.70644">
        <ele>4.7</ele>
        <time>2020-06-06T11:15:12Z</time>
      </trkpt>
      <trkpt lat="47.64419" lon="-2.70649">
        <ele>4.8</ele>
        <time>2020-06-06T11:15:13Z</time>
      </trkpt>
      <trkpt lat="47.64422" lon="-2.70653">
        <ele>4.8</ele>
        <time>2020-06-06T11:15:14Z</time>
      </trkpt>
      <trkpt lat="47.64425" lon="-2.70658">
        <ele>4.8</ele>
        <time>2020-06-06T11:15:15Z</time>
      </trkpt>
      <trkpt lat="47.64427" lon="-2.70663">
        <ele>4.8</ele>
        <time>2020-06-06T11:15:16Z</time>
      </trkpt>
      <trkpt lat="47.64432" lon="-2.70669">
        <ele>4.8</ele>
        <time>2020-06-06T11:15:17Z</time>
      </trkpt>
      <trkpt lat="47.64435" lon="-2.70674">
        <ele>4.8</ele>
        <time>2020-06-06T11:15:18Z</time>
      </trkpt>
      <trkpt lat="47.64439" lon="-2.70679">
        <ele>4.8</ele>
        <time>2020-06-06T11:15:19Z</time>
      </trkpt>
      <trkpt lat="47.64443" lon="-2.70683">
        <ele>4.8</ele>
        <time>2020-06-06T11:15:20Z</time>
      </trkpt>
      <trkpt lat="47.64447" lon="-2.70687">
        <ele>4.8</ele>
        <time>2020-06-06T11:15:21Z</time>
      </trkpt>
      <trkpt lat="47.6445" lon="-2.70691">
        <ele>4.8</ele>
        <time>2020-06-06T11:15:22Z</time>
      </trkpt>
      <trkpt lat="47.64453" lon="-2.70694">
        <ele>4.9</ele>
        <time>2020-06-06T11:15:23Z</time>
      </trkpt>
      <trkpt lat="47.64456" lon="-2.70698">
        <ele>4.9</ele>
        <time>2020-06-06T11:15:24Z</time>
      </trkpt>
      <trkpt lat="47.64459" lon="-2.70702">
        <ele>4.9</ele>
        <time>2020-06-06T11:15:25Z</time>
      </trkpt>
      <trkpt lat="47.64462" lon="-2.70707">
        <ele>4.9</ele>
        <time>2020-06-06T11:15:26Z</time>
      </trkpt>
      <trkpt lat="47.64464" lon="-2.70711">
        <ele>4.9</ele>
        <time>2020-06-06T11:15:27Z</time>
      </trkpt>
      <trkpt lat="47.64469" lon="-2.70717">
        <ele>4.9</ele>
        <time>2020-06-06T11:15:28Z</time>
      </trkpt>
      <trkpt lat="47.64471" lon="-2.7072">
        <ele>4.9</ele>
        <time>2020-06-06T11:15:29Z</time>
      </trkpt>
      <trkpt lat="47.64474" lon="-2.70725">
        <ele>4.9</ele>
        <time>2020-06-06T11:15:30Z</time>
      </trkpt>
      <trkpt lat="47.64476" lon="-2.70729">
        <ele>4.9</ele>
        <time>2020-06-06T11:15:31Z</time>
      </trkpt>
      <trkpt lat="47.6448" lon="-2.70734">
        <ele>4.9</ele>
        <time>2020-06-06T11:15:32Z</time>
      </trkpt>
      <trkpt lat="47.64483" lon="-2.70739">
        <ele>4.9</ele>
        <time>2020-06-06T11:15:33Z</time>
      </trkpt>
      <trkpt lat="47.64486" lon="-2.70743">
        <ele>4.9</ele>
        <time>2020-06-06T11:15:34Z</time>
      </trkpt>
      <trkpt lat="47.6449" lon="-2.70748">
        <ele>4.8</ele>
        <time>2020-06-06T11:15:35Z</time>
      </trkpt>
      <trkpt lat="47.64493" lon="-2.70753">
        <ele>4.8</ele>
        <time>2020-06-06T11:15:36Z</time>
      </trkpt>
      <trkpt lat="47.64497" lon="-2.70758">
        <ele>4.8</ele>
        <time>2020-06-06T11:15:37Z</time>
      </trkpt>
      <trkpt lat="47.645" lon="-2.70762">
        <ele>4.8</ele>
        <time>2020-06-06T11:15:38Z</time>
      </trkpt>
      <trkpt lat="47.64503" lon="-2.70767">
        <ele>4.8</ele>
        <time>2020-06-06T11:15:39Z</time>
      </trkpt>
      <trkpt lat="47.64507" lon="-2.70771">
        <ele>4.8</ele>
        <time>2020-06-06T11:15:40Z</time>
      </trkpt>
      <trkpt lat="47.64511" lon="-2.70776">
        <ele>4.8</ele>
        <time>2020-06-06T11:15:41Z</time>
      </trkpt>
      <trkpt lat="47.64515" lon="-2.70781">
        <ele>4.8</ele>
        <time>2020-06-06T11:15:42Z</time>
      </trkpt>
      <trkpt lat="47.64519" lon="-2.70787">
        <ele>4.8</ele>
        <time>2020-06-06T11:15:43Z</time>
      </trkpt>
      <trkpt lat="47.64523" lon="-2.70793">
        <ele>4.8</ele>
        <time>2020-06-06T11:15:44Z</time>
      </trkpt>
      <trkpt lat="47.64528" lon="-2.70798">
        <ele>4.8</ele>
        <time>2020-06-06T11:15:45Z</time>
      </trkpt>
      <trkpt lat="47.64532" lon="-2.70803">
        <ele>4.8</ele>
        <time>2020-06-06T11:15:46Z</time>
      </trkpt>
      <trkpt lat="47.64535" lon="-2.70808">
        <ele>4.8</ele>
        <time>2020-06-06T11:15:47Z</time>
      </trkpt>
      <trkpt lat="47.64538" lon="-2.70813">
        <ele>4.8</ele>
        <time>2020-06-06T11:15:48Z</time>
      </trkpt>
      <trkpt lat="47.64541" lon="-2.70817">
        <ele>4.7</ele>
        <time>2020-06-06T11:15:49Z</time>
      </trkpt>
      <trkpt lat="47.64544" lon="-2.70821">
        <ele>4.7</ele>
        <time>2020-06-06T11:15:50Z</time>
      </trkpt>
      <trkpt lat="47.64548" lon="-2.70826">
        <ele>4.7</ele>
        <time>2020-06-06T11:15:51Z</time>
      </trkpt>
      <trkpt lat="47.64551" lon="-2.7083">
        <ele>4.8</ele>
        <time>2020-06-06T11:15:52Z</time>
      </trkpt>
      <trkpt lat="47.64554" lon="-2.70835">
        <ele>4.8</ele>
        <time>2020-06-06T11:15:53Z</time>
      </trkpt>
      <trkpt lat="47.64557" lon="-2.7084">
        <ele>4.8</ele>
        <time>2020-06-06T11:15:54Z</time>
      </trkpt>
      <trkpt lat="47.6456" lon="-2.70845">
        <ele>4.9</ele>
        <time>2020-06-06T11:15:55Z</time>
      </trkpt>
      <trkpt lat="47.64562" lon="-2.7085">
        <ele>4.9</ele>
        <time>2020-06-06T11:15:56Z</time>
      </trkpt>
      <trkpt lat="47.64565" lon="-2.70855">
        <ele>4.9</ele>
        <time>2020-06-06T11:15:57Z</time>
      </trkpt>
      <trkpt lat="47.64569" lon="-2.70861">
        <ele>5</ele>
        <time>2020-06-06T11:15:58Z</time>
      </trkpt>
      <trkpt lat="47.64572" lon="-2.70865">
        <ele>5</ele>
        <time>2020-06-06T11:15:59Z</time>
      </trkpt>
      <trkpt lat="47.64575" lon="-2.7087">
        <ele>5</ele>
        <time>2020-06-06T11:16:00Z</time>
      </trkpt>
      <trkpt lat="47.64578" lon="-2.70875">
        <ele>5</ele>
        <time>2020-06-06T11:16:01Z</time>
      </trkpt>
      <trkpt lat="47.64581" lon="-2.70879">
        <ele>5</ele>
        <time>2020-06-06T11:16:02Z</time>
      </trkpt>
      <trkpt lat="47.64584" lon="-2.70884">
        <ele>5</ele>
        <time>2020-06-06T11:16:03Z</time>
      </trkpt>
      <trkpt lat="47.64587" lon="-2.7089">
        <ele>5</ele>
        <time>2020-06-06T11:16:04Z</time>
      </trkpt>
      <trkpt lat="47.64591" lon="-2.70893">
        <ele>5</ele>
        <time>2020-06-06T11:16:05Z</time>
      </trkpt>
      <trkpt lat="47.64594" lon="-2.70898">
        <ele>5</ele>
        <time>2020-06-06T11:16:06Z</time>
      </trkpt>
      <trkpt lat="47.64598" lon="-2.70904">
        <ele>5</ele>
        <time>2020-06-06T11:16:07Z</time>
      </trkpt>
      <trkpt lat="47.64602" lon="-2.70909">
        <ele>5</ele>
        <time>2020-06-06T11:16:08Z</time>
      </trkpt>
      <trkpt lat="47.64606" lon="-2.70914">
        <ele>5</ele>
        <time>2020-06-06T11:16:09Z</time>
      </trkpt>
      <trkpt lat="47.6461" lon="-2.7092">
        <ele>5</ele>
        <time>2020-06-06T11:16:10Z</time>
      </trkpt>
      <trkpt lat="47.64613" lon="-2.70924">
        <ele>5</ele>
        <time>2020-06-06T11:16:11Z</time>
      </trkpt>
      <trkpt lat="47.64617" lon="-2.70929">
        <ele>5</ele>
        <time>2020-06-06T11:16:12Z</time>
      </trkpt>
      <trkpt lat="47.64621" lon="-2.70935">
        <ele>5</ele>
        <time>2020-06-06T11:16:13Z</time>
      </trkpt>
      <trkpt lat="47.64624" lon="-2.7094">
        <ele>5.1</ele>
        <time>2020-06-06T11:16:14Z</time>
      </trkpt>
      <trkpt lat="47.64627" lon="-2.70944">
        <ele>5.1</ele>
        <time>2020-06-06T11:16:15Z</time>
      </trkpt>
      <trkpt lat="47.64631" lon="-2.70948">
        <ele>5.1</ele>
        <time>2020-06-06T11:16:16Z</time>
      </trkpt>
      <trkpt lat="47.64633" lon="-2.70952">
        <ele>5.1</ele>
        <time>2020-06-06T11:16:17Z</time>
      </trkpt>
      <trkpt lat="47.64636" lon="-2.70956">
        <ele>5.1</ele>
        <time>2020-06-06T11:16:18Z</time>
      </trkpt>
      <trkpt lat="47.64638" lon="-2.7096">
        <ele>5.1</ele>
        <time>2020-06-06T11:16:19Z</time>
      </trkpt>
      <trkpt lat="47.64641" lon="-2.70965">
        <ele>5.1</ele>
        <time>2020-06-06T11:16:20Z</time>
      </trkpt>
      <trkpt lat="47.64644" lon="-2.7097">
        <ele>5.1</ele>
        <time>2020-06-06T11:16:21Z</time>
      </trkpt>
      <trkpt lat="47.64648" lon="-2.70977">
        <ele>5.1</ele>
        <time>2020-06-06T11:16:22Z</time>
      </trkpt>
      <trkpt lat="47.64652" lon="-2.70984">
        <ele>5.1</ele>
        <time>2020-06-06T11:16:23Z</time>
      </trkpt>
      <trkpt lat="47.64655" lon="-2.70991">
        <ele>5.2</ele>
        <time>2020-06-06T11:16:24Z</time>
      </trkpt>
      <trkpt lat="47.64659" lon="-2.70996">
        <ele>5.3</ele>
        <time>2020-06-06T11:16:25Z</time>
      </trkpt>
      <trkpt lat="47.64663" lon="-2.71002">
        <ele>5.4</ele>
        <time>2020-06-06T11:16:26Z</time>
      </trkpt>
      <trkpt lat="47.64667" lon="-2.71008">
        <ele>5.5</ele>
        <time>2020-06-06T11:16:27Z</time>
      </trkpt>
      <trkpt lat="47.6467" lon="-2.71013">
        <ele>5.6</ele>
        <time>2020-06-06T11:16:28Z</time>
      </trkpt>
      <trkpt lat="47.64675" lon="-2.7102">
        <ele>5.7</ele>
        <time>2020-06-06T11:16:29Z</time>
      </trkpt>
      <trkpt lat="47.6468" lon="-2.71025">
        <ele>5.8</ele>
        <time>2020-06-06T11:16:30Z</time>
      </trkpt>
      <trkpt lat="47.64685" lon="-2.7103">
        <ele>5.9</ele>
        <time>2020-06-06T11:16:31Z</time>
      </trkpt>
      <trkpt lat="47.64689" lon="-2.71035">
        <ele>6</ele>
        <time>2020-06-06T11:16:32Z</time>
      </trkpt>
      <trkpt lat="47.64693" lon="-2.7104">
        <ele>6.1</ele>
        <time>2020-06-06T11:16:33Z</time>
      </trkpt>
      <trkpt lat="47.64698" lon="-2.71044">
        <ele>6.2</ele>
        <time>2020-06-06T11:16:34Z</time>
      </trkpt>
      <trkpt lat="47.64702" lon="-2.71049">
        <ele>6.3</ele>
        <time>2020-06-06T11:16:35Z</time>
      </trkpt>
      <trkpt lat="47.64706" lon="-2.71052">
        <ele>6.4</ele>
        <time>2020-06-06T11:16:36Z</time>
      </trkpt>
      <trkpt lat="47.6471" lon="-2.71056">
        <ele>6.4</ele>
        <time>2020-06-06T11:16:37Z</time>
      </trkpt>
      <trkpt lat="47.64715" lon="-2.71059">
        <ele>6.5</ele>
        <time>2020-06-06T11:16:38Z</time>
      </trkpt>
      <trkpt lat="47.64719" lon="-2.71062">
        <ele>6.5</ele>
        <time>2020-06-06T11:16:39Z</time>
      </trkpt>
      <trkpt lat="47.64724" lon="-2.71065">
        <ele>6.6</ele>
        <time>2020-06-06T11:16:40Z</time>
      </trkpt>
      <trkpt lat="47.64729" lon="-2.71067">
        <ele>6.6</ele>
        <time>2020-06-06T11:16:41Z</time>
      </trkpt>
      <trkpt lat="47.64734" lon="-2.7107">
        <ele>6.7</ele>
        <time>2020-06-06T11:16:42Z</time>
      </trkpt>
      <trkpt lat="47.64738" lon="-2.71072">
        <ele>6.7</ele>
        <time>2020-06-06T11:16:43Z</time>
      </trkpt>
      <trkpt lat="47.64742" lon="-2.71073">
        <ele>6.7</ele>
        <time>2020-06-06T11:16:44Z</time>
      </trkpt>
      <trkpt lat="47.64745" lon="-2.71075">
        <ele>6.7</ele>
        <time>2020-06-06T11:16:45Z</time>
      </trkpt>
      <trkpt lat="47.6475" lon="-2.71076">
        <ele>6.7</ele>
        <time>2020-06-06T11:16:46Z</time>
      </trkpt>
      <trkpt lat="47.64753" lon="-2.71077">
        <ele>6.7</ele>
        <time>2020-06-06T11:16:47Z</time>
      </trkpt>
      <trkpt lat="47.64757" lon="-2.71078">
        <ele>6.7</ele>
        <time>2020-06-06T11:16:48Z</time>
      </trkpt>
      <trkpt lat="47.64762" lon="-2.71078">
        <ele>6.7</ele>
        <time>2020-06-06T11:16:49Z</time>
      </trkpt>
      <trkpt lat="47.64766" lon="-2.71079">
        <ele>6.6</ele>
        <time>2020-06-06T11:16:50Z</time>
      </trkpt>
      <trkpt lat="47.6477" lon="-2.71079">
        <ele>6.6</ele>
        <time>2020-06-06T11:16:51Z</time>
      </trkpt>
      <trkpt lat="47.64773" lon="-2.71079">
        <ele>6.6</ele>
        <time>2020-06-06T11:16:52Z</time>
      </trkpt>
      <trkpt lat="47.64778" lon="-2.71078">
        <ele>6.6</ele>
        <time>2020-06-06T11:16:53Z</time>
      </trkpt>
      <trkpt lat="47.64782" lon="-2.71077">
        <ele>6.6</ele>
        <time>2020-06-06T11:16:54Z</time>
      </trkpt>
      <trkpt lat="47.64788" lon="-2.71076">
        <ele>6.6</ele>
        <time>2020-06-06T11:16:55Z</time>
      </trkpt>
      <trkpt lat="47.64794" lon="-2.71073">
        <ele>6.6</ele>
        <time>2020-06-06T11:16:56Z</time>
      </trkpt>
      <trkpt lat="47.648" lon="-2.7107">
        <ele>6.6</ele>
        <time>2020-06-06T11:16:57Z</time>
      </trkpt>
      <trkpt lat="47.64806" lon="-2.71066">
        <ele>6.5</ele>
        <time>2020-06-06T11:16:58Z</time>
      </trkpt>
      <trkpt lat="47.6481" lon="-2.71064">
        <ele>6.5</ele>
        <time>2020-06-06T11:16:59Z</time>
      </trkpt>
      <trkpt lat="47.64814" lon="-2.71062">
        <ele>6.5</ele>
        <time>2020-06-06T11:17:00Z</time>
      </trkpt>
      <trkpt lat="47.64817" lon="-2.7106">
        <ele>6.5</ele>
        <time>2020-06-06T11:17:01Z</time>
      </trkpt>
      <trkpt lat="47.64821" lon="-2.71057">
        <ele>6.5</ele>
        <time>2020-06-06T11:17:02Z</time>
      </trkpt>
      <trkpt lat="47.64826" lon="-2.71054">
        <ele>6.5</ele>
        <time>2020-06-06T11:17:03Z</time>
      </trkpt>
      <trkpt lat="47.64831" lon="-2.71052">
        <ele>6.4</ele>
        <time>2020-06-06T11:17:04Z</time>
      </trkpt>
      <trkpt lat="47.64836" lon="-2.71049">
        <ele>6.4</ele>
        <time>2020-06-06T11:17:05Z</time>
      </trkpt>
      <trkpt lat="47.64839" lon="-2.71047">
        <ele>6.4</ele>
        <time>2020-06-06T11:17:06Z</time>
      </trkpt>
      <trkpt lat="47.64842" lon="-2.71044">
        <ele>6.4</ele>
        <time>2020-06-06T11:17:07Z</time>
      </trkpt>
      <trkpt lat="47.64847" lon="-2.71041">
        <ele>6.4</ele>
        <time>2020-06-06T11:17:08Z</time>
      </trkpt>
      <trkpt lat="47.64851" lon="-2.71039">
        <ele>6.4</ele>
        <time>2020-06-06T11:17:09Z</time>
      </trkpt>
      <trkpt lat="47.64856" lon="-2.71037">
        <ele>6.4</ele>
        <time>2020-06-06T11:17:10Z</time>
      </trkpt>
      <trkpt lat="47.6486" lon="-2.71036">
        <ele>6.4</ele>
        <time>2020-06-06T11:17:11Z</time>
      </trkpt>
      <trkpt lat="47.64863" lon="-2.71035">
        <ele>6.4</ele>
        <time>2020-06-06T11:17:12Z</time>
      </trkpt>
      <trkpt lat="47.64866" lon="-2.71034">
        <ele>6.4</ele>
        <time>2020-06-06T11:17:13Z</time>
      </trkpt>
      <trkpt lat="47.6487" lon="-2.71031">
        <ele>6.5</ele>
        <time>2020-06-06T11:17:14Z</time>
      </trkpt>
      <trkpt lat="47.64873" lon="-2.71029">
        <ele>6.5</ele>
        <time>2020-06-06T11:17:15Z</time>
      </trkpt>
      <trkpt lat="47.64877" lon="-2.71028">
        <ele>6.5</ele>
        <time>2020-06-06T11:17:16Z</time>
      </trkpt>
      <trkpt lat="47.6488" lon="-2.71027">
        <ele>6.5</ele>
        <time>2020-06-06T11:17:17Z</time>
      </trkpt>
      <trkpt lat="47.64884" lon="-2.71025">
        <ele>6.5</ele>
        <time>2020-06-06T11:17:18Z</time>
      </trkpt>
      <trkpt lat="47.64888" lon="-2.71023">
        <ele>6.5</ele>
        <time>2020-06-06T11:17:19Z</time>
      </trkpt>
      <trkpt lat="47.6489" lon="-2.71023">
        <ele>6.6</ele>
        <time>2020-06-06T11:17:20Z</time>
      </trkpt>
      <trkpt lat="47.64891" lon="-2.71023">
        <ele>6.6</ele>
        <time>2020-06-06T11:17:21Z</time>
      </trkpt>
      <trkpt lat="47.64892" lon="-2.71022">
        <ele>6.6</ele>
        <time>2020-06-06T11:17:22Z</time>
      </trkpt>
      <trkpt lat="47.64893" lon="-2.71021">
        <ele>6.6</ele>
        <time>2020-06-06T11:17:23Z</time>
      </trkpt>
      <trkpt lat="47.64893" lon="-2.7102">
        <ele>6.6</ele>
        <time>2020-06-06T11:17:24Z</time>
      </trkpt>
      <trkpt lat="47.64894" lon="-2.7102">
        <ele>6.6</ele>
        <time>2020-06-06T11:17:25Z</time>
      </trkpt>
      <trkpt lat="47.64894" lon="-2.7102">
        <ele>6.6</ele>
        <time>2020-06-06T11:17:26Z</time>
      </trkpt>
      <trkpt lat="47.64894" lon="-2.7102">
        <ele>6.6</ele>
        <time>2020-06-06T11:17:27Z</time>
      </trkpt>
      <trkpt lat="47.64894" lon="-2.7102">
        <ele>6.6</ele>
        <time>2020-06-06T11:17:28Z</time>
      </trkpt>
      <trkpt lat="47.64894" lon="-2.7102">
        <ele>6.6</ele>
        <time>2020-06-06T11:17:29Z</time>
      </trkpt>
      <trkpt lat="47.64894" lon="-2.7102">
        <ele>6.6</ele>
        <time>2020-06-06T11:17:30Z</time>
      </trkpt>
      <trkpt lat="47.64894" lon="-2.71019">
        <ele>6.6</ele>
        <time>2020-06-06T11:17:31Z</time>
      </trkpt>
      <trkpt lat="47.64895" lon="-2.71019">
        <ele>6.6</ele>
        <time>2020-06-06T11:17:32Z</time>
      </trkpt>
      <trkpt lat="47.64895" lon="-2.71019">
        <ele>6.6</ele>
        <time>2020-06-06T11:17:33Z</time>
      </trkpt>
      <trkpt lat="47.64896" lon="-2.71018">
        <ele>6.6</ele>
        <time>2020-06-06T11:17:34Z</time>
      </trkpt>
      <trkpt lat="47.64896" lon="-2.71018">
        <ele>6.6</ele>
        <time>2020-06-06T11:17:35Z</time>
      </trkpt>
      <trkpt lat="47.64897" lon="-2.71018">
        <ele>6.6</ele>
        <time>2020-06-06T11:17:36Z</time>
      </trkpt>
      <trkpt lat="47.64898" lon="-2.71018">
        <ele>6.6</ele>
        <time>2020-06-06T11:17:37Z</time>
      </trkpt>
      <trkpt lat="47.64899" lon="-2.71018">
        <ele>6.6</ele>
        <time>2020-06-06T11:17:38Z</time>
      </trkpt>
      <trkpt lat="47.64899" lon="-2.71018">
        <ele>6.6</ele>
        <time>2020-06-06T11:17:39Z</time>
      </trkpt>
      <trkpt lat="47.649" lon="-2.71018">
        <ele>6.6</ele>
        <time>2020-06-06T11:17:40Z</time>
      </trkpt>
      <trkpt lat="47.64901" lon="-2.71018">
        <ele>6.6</ele>
        <time>2020-06-06T11:17:41Z</time>
      </trkpt>
      <trkpt lat="47.64902" lon="-2.71019">
        <ele>6.6</ele>
        <time>2020-06-06T11:17:42Z</time>
      </trkpt>
      <trkpt lat="47.64902" lon="-2.7102">
        <ele>6.6</ele>
        <time>2020-06-06T11:17:43Z</time>
      </trkpt>
      <trkpt lat="47.64903" lon="-2.71022">
        <ele>6.5</ele>
        <time>2020-06-06T11:17:44Z</time>
      </trkpt>
      <trkpt lat="47.64904" lon="-2.71023">
        <ele>6.5</ele>
        <time>2020-06-06T11:17:45Z</time>
      </trkpt>
      <trkpt lat="47.64904" lon="-2.71024">
        <ele>6.5</ele>
        <time>2020-06-06T11:17:46Z</time>
      </trkpt>
      <trkpt lat="47.64904" lon="-2.71025">
        <ele>6.5</ele>
        <time>2020-06-06T11:17:47Z</time>
      </trkpt>
      <trkpt lat="47.64905" lon="-2.71026">
        <ele>6.5</ele>
        <time>2020-06-06T11:17:48Z</time>
      </trkpt>
      <trkpt lat="47.64905" lon="-2.71027">
        <ele>6.5</ele>
        <time>2020-06-06T11:17:49Z</time>
      </trkpt>
      <trkpt lat="47.64905" lon="-2.71028">
        <ele>6.5</ele>
        <time>2020-06-06T11:17:50Z</time>
      </trkpt>
      <trkpt lat="47.64906" lon="-2.71029">
        <ele>6.5</ele>
        <time>2020-06-06T11:17:51Z</time>
      </trkpt>
      <trkpt lat="47.64906" lon="-2.7103">
        <ele>6.5</ele>
        <time>2020-06-06T11:17:52Z</time>
      </trkpt>
      <trkpt lat="47.64906" lon="-2.71031">
        <ele>6.5</ele>
        <time>2020-06-06T11:17:53Z</time>
      </trkpt>
      <trkpt lat="47.64907" lon="-2.71032">
        <ele>6.5</ele>
        <time>2020-06-06T11:17:54Z</time>
      </trkpt>
      <trkpt lat="47.64907" lon="-2.71033">
        <ele>6.5</ele>
        <time>2020-06-06T11:17:55Z</time>
      </trkpt>
      <trkpt lat="47.64907" lon="-2.71034">
        <ele>6.5</ele>
        <time>2020-06-06T11:17:56Z</time>
      </trkpt>
      <trkpt lat="47.64908" lon="-2.71035">
        <ele>6.5</ele>
        <time>2020-06-06T11:17:57Z</time>
      </trkpt>
      <trkpt lat="47.64908" lon="-2.71036">
        <ele>6.5</ele>
        <time>2020-06-06T11:18:58Z</time>
      </trkpt>
      <trkpt lat="47.64908" lon="-2.71037">
        <ele>6.5</ele>
        <time>2020-06-06T11:18:59Z</time>
      </trkpt>
      <trkpt lat="47.64909" lon="-2.71042">
        <ele>6.5</ele>
        <time>2020-06-06T11:19:00Z</time>
      </trkpt>
      <trkpt lat="47.6491" lon="-2.71049">
        <ele>6.5</ele>
        <time>2020-06-06T11:19:01Z</time>
      </trkpt>
      <trkpt lat="47.64911" lon="-2.71057">
        <ele>6.4</ele>
        <time>2020-06-06T11:19:02Z</time>
      </trkpt>
      <trkpt lat="47.64913" lon="-2.71064">
        <ele>6.4</ele>
        <time>2020-06-06T11:19:03Z</time>
      </trkpt>
      <trkpt lat="47.64914" lon="-2.71072">
        <ele>6.3</ele>
        <time>2020-06-06T11:19:04Z</time>
      </trkpt>
      <trkpt lat="47.64915" lon="-2.7108">
        <ele>6.2</ele>
        <time>2020-06-06T11:19:05Z</time>
      </trkpt>
      <trkpt lat="47.64916" lon="-2.71087">
        <ele>6.2</ele>
        <time>2020-06-06T11:19:06Z</time>
      </trkpt>
      <trkpt lat="47.64917" lon="-2.71095">
        <ele>6.2</ele>
        <time>2020-06-06T11:19:07Z</time>
      </trkpt>
      <trkpt lat="47.64918" lon="-2.71103">
        <ele>6.1</ele>
        <time>2020-06-06T11:19:08Z</time>
      </trkpt>
      <trkpt lat="47.64919" lon="-2.7111">
        <ele>6.2</ele>
        <time>2020-06-06T11:19:09Z</time>
      </trkpt>
      <trkpt lat="47.64919" lon="-2.71117">
        <ele>6.2</ele>
        <time>2020-06-06T11:19:10Z</time>
      </trkpt>
      <trkpt lat="47.64919" lon="-2.71124">
        <ele>6.3</ele>
        <time>2020-06-06T11:19:11Z</time>
      </trkpt>
      <trkpt lat="47.64919" lon="-2.71131">
        <ele>6.4</ele>
        <time>2020-06-06T11:19:12Z</time>
      </trkpt>
      <trkpt lat="47.6492" lon="-2.71138">
        <ele>6.5</ele>
        <time>2020-06-06T11:19:13Z</time>
      </trkpt>
      <trkpt lat="47.64921" lon="-2.71146">
        <ele>6.6</ele>
        <time>2020-06-06T11:19:14Z</time>
      </trkpt>
      <trkpt lat="47.64922" lon="-2.71154">
        <ele>6.7</ele>
        <time>2020-06-06T11:19:15Z</time>
      </trkpt>
      <trkpt lat="47.64922" lon="-2.71161">
        <ele>6.9</ele>
        <time>2020-06-06T11:19:16Z</time>
      </trkpt>
      <trkpt lat="47.64923" lon="-2.71168">
        <ele>7</ele>
        <time>2020-06-06T11:19:17Z</time>
      </trkpt>
      <trkpt lat="47.64923" lon="-2.71174">
        <ele>7.1</ele>
        <time>2020-06-06T11:19:18Z</time>
      </trkpt>
      <trkpt lat="47.64923" lon="-2.7118">
        <ele>7.3</ele>
        <time>2020-06-06T11:19:19Z</time>
      </trkpt>
      <trkpt lat="47.64923" lon="-2.71186">
        <ele>7.4</ele>
        <time>2020-06-06T11:19:20Z</time>
      </trkpt>
      <trkpt lat="47.64923" lon="-2.71192">
        <ele>7.6</ele>
        <time>2020-06-06T11:19:21Z</time>
      </trkpt>
      <trkpt lat="47.64923" lon="-2.71199">
        <ele>7.8</ele>
        <time>2020-06-06T11:19:22Z</time>
      </trkpt>
      <trkpt lat="47.64923" lon="-2.71205">
        <ele>8</ele>
        <time>2020-06-06T11:19:23Z</time>
      </trkpt>
      <trkpt lat="47.64923" lon="-2.71212">
        <ele>8.2</ele>
        <time>2020-06-06T11:19:24Z</time>
      </trkpt>
      <trkpt lat="47.64923" lon="-2.71219">
        <ele>8.4</ele>
        <time>2020-06-06T11:19:25Z</time>
      </trkpt>
      <trkpt lat="47.64923" lon="-2.71226">
        <ele>8.6</ele>
        <time>2020-06-06T11:19:26Z</time>
      </trkpt>
      <trkpt lat="47.64923" lon="-2.71231">
        <ele>8.7</ele>
        <time>2020-06-06T11:19:27Z</time>
      </trkpt>
      <trkpt lat="47.64923" lon="-2.71237">
        <ele>8.9</ele>
        <time>2020-06-06T11:19:28Z</time>
      </trkpt>
      <trkpt lat="47.64924" lon="-2.71242">
        <ele>9.1</ele>
        <time>2020-06-06T11:19:29Z</time>
      </trkpt>
      <trkpt lat="47.64924" lon="-2.71248">
        <ele>9.2</ele>
        <time>2020-06-06T11:19:30Z</time>
      </trkpt>
      <trkpt lat="47.64924" lon="-2.71254">
        <ele>9.4</ele>
        <time>2020-06-06T11:19:31Z</time>
      </trkpt>
      <trkpt lat="47.64924" lon="-2.71259">
        <ele>9.6</ele>
        <time>2020-06-06T11:19:32Z</time>
      </trkpt>
      <trkpt lat="47.64924" lon="-2.71263">
        <ele>9.8</ele>
        <time>2020-06-06T11:19:33Z</time>
      </trkpt>
      <trkpt lat="47.64925" lon="-2.71268">
        <ele>9.9</ele>
        <time>2020-06-06T11:19:34Z</time>
      </trkpt>
      <trkpt lat="47.64925" lon="-2.71273">
        <ele>10.1</ele>
        <time>2020-06-06T11:19:35Z</time>
      </trkpt>
      <trkpt lat="47.64925" lon="-2.71278">
        <ele>10.3</ele>
        <time>2020-06-06T11:19:36Z</time>
      </trkpt>
      <trkpt lat="47.64925" lon="-2.71283">
        <ele>10.4</ele>
        <time>2020-06-06T11:19:37Z</time>
      </trkpt>
      <trkpt lat="47.64925" lon="-2.71288">
        <ele>10.6</ele>
        <time>2020-06-06T11:19:38Z</time>
      </trkpt>
      <trkpt lat="47.64924" lon="-2.71293">
        <ele>10.8</ele>
        <time>2020-06-06T11:19:39Z</time>
      </trkpt>
      <trkpt lat="47.64924" lon="-2.71298">
        <ele>11</ele>
        <time>2020-06-06T11:19:40Z</time>
      </trkpt>
      <trkpt lat="47.64924" lon="-2.71304">
        <ele>11.1</ele>
        <time>2020-06-06T11:19:41Z</time>
      </trkpt>
      <trkpt lat="47.64924" lon="-2.71308">
        <ele>11.3</ele>
        <time>2020-06-06T11:19:42Z</time>
      </trkpt>
      <trkpt lat="47.64925" lon="-2.71313">
        <ele>11.5</ele>
        <time>2020-06-06T11:19:43Z</time>
      </trkpt>
      <trkpt lat="47.64926" lon="-2.71319">
        <ele>11.6</ele>
        <time>2020-06-06T11:19:44Z</time>
      </trkpt>
      <trkpt lat="47.64927" lon="-2.71323">
        <ele>11.8</ele>
        <time>2020-06-06T11:19:45Z</time>
      </trkpt>
      <trkpt lat="47.64927" lon="-2.71327">
        <ele>11.9</ele>
        <time>2020-06-06T11:19:46Z</time>
      </trkpt>
      <trkpt lat="47.64927" lon="-2.71333">
        <ele>12.1</ele>
        <time>2020-06-06T11:19:47Z</time>
      </trkpt>
      <trkpt lat="47.64927" lon="-2.71336">
        <ele>12.2</ele>
        <time>2020-06-06T11:19:48Z</time>
      </trkpt>
      <trkpt lat="47.64928" lon="-2.71341">
        <ele>12.3</ele>
        <time>2020-06-06T11:19:49Z</time>
      </trkpt>
      <trkpt lat="47.64927" lon="-2.71347">
        <ele>12.5</ele>
        <time>2020-06-06T11:19:50Z</time>
      </trkpt>
      <trkpt lat="47.64928" lon="-2.71351">
        <ele>12.6</ele>
        <time>2020-06-06T11:19:51Z</time>
      </trkpt>
      <trkpt lat="47.64928" lon="-2.71357">
        <ele>12.8</ele>
        <time>2020-06-06T11:19:52Z</time>
      </trkpt>
      <trkpt lat="47.64929" lon="-2.71362">
        <ele>12.9</ele>
        <time>2020-06-06T11:19:53Z</time>
      </trkpt>
      <trkpt lat="47.64929" lon="-2.71368">
        <ele>13.1</ele>
        <time>2020-06-06T11:19:54Z</time>
      </trkpt>
      <trkpt lat="47.64929" lon="-2.71373">
        <ele>13.2</ele>
        <time>2020-06-06T11:19:55Z</time>
      </trkpt>
      <trkpt lat="47.64929" lon="-2.71378">
        <ele>13.4</ele>
        <time>2020-06-06T11:19:56Z</time>
      </trkpt>
      <trkpt lat="47.64929" lon="-2.71383">
        <ele>13.5</ele>
        <time>2020-06-06T11:19:57Z</time>
      </trkpt>
      <trkpt lat="47.6493" lon="-2.71388">
        <ele>13.7</ele>
        <time>2020-06-06T11:19:58Z</time>
      </trkpt>
      <trkpt lat="47.6493" lon="-2.71392">
        <ele>13.8</ele>
        <time>2020-06-06T11:19:59Z</time>
      </trkpt>
      <trkpt lat="47.64931" lon="-2.71398">
        <ele>13.9</ele>
        <time>2020-06-06T11:20:00Z</time>
      </trkpt>
      <trkpt lat="47.64931" lon="-2.714">
        <ele>14</ele>
        <time>2020-06-06T11:20:01Z</time>
      </trkpt>
      <trkpt lat="47.64932" lon="-2.71404">
        <ele>14.1</ele>
        <time>2020-06-06T11:20:02Z</time>
      </trkpt>
      <trkpt lat="47.64933" lon="-2.71409">
        <ele>14.2</ele>
        <time>2020-06-06T11:20:03Z</time>
      </trkpt>
      <trkpt lat="47.64933" lon="-2.71411">
        <ele>14.3</ele>
        <time>2020-06-06T11:20:04Z</time>
      </trkpt>
      <trkpt lat="47.64934" lon="-2.71416">
        <ele>14.4</ele>
        <time>2020-06-06T11:20:05Z</time>
      </trkpt>
      <trkpt lat="47.64935" lon="-2.71421">
        <ele>14.6</ele>
        <time>2020-06-06T11:20:06Z</time>
      </trkpt>
      <trkpt lat="47.64936" lon="-2.71427">
        <ele>14.7</ele>
        <time>2020-06-06T11:20:07Z</time>
      </trkpt>
      <trkpt lat="47.64936" lon="-2.71432">
        <ele>14.9</ele>
        <time>2020-06-06T11:20:08Z</time>
      </trkpt>
      <trkpt lat="47.64937" lon="-2.71438">
        <ele>15.1</ele>
        <time>2020-06-06T11:20:09Z</time>
      </trkpt>
      <trkpt lat="47.64937" lon="-2.71443">
        <ele>15.2</ele>
        <time>2020-06-06T11:20:10Z</time>
      </trkpt>
      <trkpt lat="47.64937" lon="-2.71448">
        <ele>15.4</ele>
        <time>2020-06-06T11:20:11Z</time>
      </trkpt>
      <trkpt lat="47.64938" lon="-2.71452">
        <ele>15.6</ele>
        <time>2020-06-06T11:20:12Z</time>
      </trkpt>
      <trkpt lat="47.64939" lon="-2.71457">
        <ele>15.7</ele>
        <time>2020-06-06T11:20:13Z</time>
      </trkpt>
      <trkpt lat="47.6494" lon="-2.71462">
        <ele>15.9</ele>
        <time>2020-06-06T11:20:14Z</time>
      </trkpt>
      <trkpt lat="47.6494" lon="-2.71468">
        <ele>16</ele>
        <time>2020-06-06T11:20:15Z</time>
      </trkpt>
      <trkpt lat="47.64941" lon="-2.71474">
        <ele>16.2</ele>
        <time>2020-06-06T11:20:16Z</time>
      </trkpt>
      <trkpt lat="47.64941" lon="-2.71478">
        <ele>16.3</ele>
        <time>2020-06-06T11:20:17Z</time>
      </trkpt>
      <trkpt lat="47.64942" lon="-2.71484">
        <ele>16.5</ele>
        <time>2020-06-06T11:20:18Z</time>
      </trkpt>
      <trkpt lat="47.64942" lon="-2.71486">
        <ele>16.5</ele>
        <time>2020-06-06T11:20:19Z</time>
      </trkpt>
      <trkpt lat="47.64943" lon="-2.71491">
        <ele>16.7</ele>
        <time>2020-06-06T11:20:20Z</time>
      </trkpt>
      <trkpt lat="47.64943" lon="-2.71494">
        <ele>16.7</ele>
        <time>2020-06-06T11:20:21Z</time>
      </trkpt>
      <trkpt lat="47.64943" lon="-2.71498">
        <ele>16.8</ele>
        <time>2020-06-06T11:20:22Z</time>
      </trkpt>
      <trkpt lat="47.64944" lon="-2.71503">
        <ele>17</ele>
        <time>2020-06-06T11:20:23Z</time>
      </trkpt>
      <trkpt lat="47.64945" lon="-2.71508">
        <ele>17.1</ele>
        <time>2020-06-06T11:20:24Z</time>
      </trkpt>
      <trkpt lat="47.64945" lon="-2.71513">
        <ele>17.2</ele>
        <time>2020-06-06T11:20:25Z</time>
      </trkpt>
      <trkpt lat="47.64946" lon="-2.71517">
        <ele>17.4</ele>
        <time>2020-06-06T11:20:26Z</time>
      </trkpt>
      <trkpt lat="47.64947" lon="-2.71522">
        <ele>17.5</ele>
        <time>2020-06-06T11:20:27Z</time>
      </trkpt>
      <trkpt lat="47.64948" lon="-2.71527">
        <ele>17.6</ele>
        <time>2020-06-06T11:20:28Z</time>
      </trkpt>
      <trkpt lat="47.64949" lon="-2.71532">
        <ele>17.7</ele>
        <time>2020-06-06T11:20:29Z</time>
      </trkpt>
      <trkpt lat="47.64949" lon="-2.71537">
        <ele>17.8</ele>
        <time>2020-06-06T11:20:30Z</time>
      </trkpt>
      <trkpt lat="47.64949" lon="-2.71542">
        <ele>17.9</ele>
        <time>2020-06-06T11:20:31Z</time>
      </trkpt>
      <trkpt lat="47.64951" lon="-2.71547">
        <ele>18</ele>
        <time>2020-06-06T11:20:32Z</time>
      </trkpt>
      <trkpt lat="47.64952" lon="-2.71554">
        <ele>18.2</ele>
        <time>2020-06-06T11:20:33Z</time>
      </trkpt>
      <trkpt lat="47.64953" lon="-2.71559">
        <ele>18.3</ele>
        <time>2020-06-06T11:20:34Z</time>
      </trkpt>
      <trkpt lat="47.64955" lon="-2.71563">
        <ele>18.4</ele>
        <time>2020-06-06T11:20:35Z</time>
      </trkpt>
      <trkpt lat="47.64955" lon="-2.71568">
        <ele>18.5</ele>
        <time>2020-06-06T11:20:36Z</time>
      </trkpt>
      <trkpt lat="47.64956" lon="-2.71572">
        <ele>18.5</ele>
        <time>2020-06-06T11:20:37Z</time>
      </trkpt>
      <trkpt lat="47.64957" lon="-2.71576">
        <ele>18.6</ele>
        <time>2020-06-06T11:20:38Z</time>
      </trkpt>
      <trkpt lat="47.64957" lon="-2.71581">
        <ele>18.6</ele>
        <time>2020-06-06T11:20:39Z</time>
      </trkpt>
      <trkpt lat="47.64957" lon="-2.71585">
        <ele>18.6</ele>
        <time>2020-06-06T11:20:40Z</time>
      </trkpt>
      <trkpt lat="47.64958" lon="-2.7159">
        <ele>18.7</ele>
        <time>2020-06-06T11:20:41Z</time>
      </trkpt>
      <trkpt lat="47.64959" lon="-2.71594">
        <ele>18.7</ele>
        <time>2020-06-06T11:20:42Z</time>
      </trkpt>
      <trkpt lat="47.64959" lon="-2.71599">
        <ele>18.7</ele>
        <time>2020-06-06T11:20:43Z</time>
      </trkpt>
      <trkpt lat="47.64959" lon="-2.71604">
        <ele>18.6</ele>
        <time>2020-06-06T11:20:44Z</time>
      </trkpt>
      <trkpt lat="47.64959" lon="-2.71609">
        <ele>18.6</ele>
        <time>2020-06-06T11:20:45Z</time>
      </trkpt>
      <trkpt lat="47.64959" lon="-2.71614">
        <ele>18.6</ele>
        <time>2020-06-06T11:20:46Z</time>
      </trkpt>
      <trkpt lat="47.64959" lon="-2.7162">
        <ele>18.6</ele>
        <time>2020-06-06T11:20:47Z</time>
      </trkpt>
      <trkpt lat="47.64956" lon="-2.71623">
        <ele>18.6</ele>
        <time>2020-06-06T11:20:48Z</time>
      </trkpt>
      <trkpt lat="47.64955" lon="-2.71623">
        <ele>18.6</ele>
        <time>2020-06-06T11:20:49Z</time>
      </trkpt>
      <trkpt lat="47.64952" lon="-2.71623">
        <ele>18.6</ele>
        <time>2020-06-06T11:20:50Z</time>
      </trkpt>
      <trkpt lat="47.64949" lon="-2.71623">
        <ele>18.6</ele>
        <time>2020-06-06T11:20:51Z</time>
      </trkpt>
      <trkpt lat="47.64945" lon="-2.71623">
        <ele>18.6</ele>
        <time>2020-06-06T11:20:52Z</time>
      </trkpt>
      <trkpt lat="47.64944" lon="-2.71623">
        <ele>18.6</ele>
        <time>2020-06-06T11:20:53Z</time>
      </trkpt>
      <trkpt lat="47.64942" lon="-2.71623">
        <ele>18.6</ele>
        <time>2020-06-06T11:20:54Z</time>
      </trkpt>
      <trkpt lat="47.64942" lon="-2.71623">
        <ele>18.6</ele>
        <time>2020-06-06T11:20:55Z</time>
      </trkpt>
      <trkpt lat="47.64941" lon="-2.71623">
        <ele>18.6</ele>
        <time>2020-06-06T11:20:56Z</time>
      </trkpt>
      <trkpt lat="47.6494" lon="-2.71623">
        <ele>18.6</ele>
        <time>2020-06-06T11:20:57Z</time>
      </trkpt>
      <trkpt lat="47.64939" lon="-2.71623">
        <ele>18.6</ele>
        <time>2020-06-06T11:20:58Z</time>
      </trkpt>
      <trkpt lat="47.64939" lon="-2.71624">
        <ele>18.6</ele>
        <time>2020-06-06T11:20:59Z</time>
      </trkpt>
      <trkpt lat="47.64938" lon="-2.71624">
        <ele>18.6</ele>
        <time>2020-06-06T11:21:00Z</time>
      </trkpt>
      <trkpt lat="47.64937" lon="-2.71625">
        <ele>18.6</ele>
        <time>2020-06-06T11:21:01Z</time>
      </trkpt>
      <trkpt lat="47.64937" lon="-2.71625">
        <ele>18.6</ele>
        <time>2020-06-06T11:21:02Z</time>
      </trkpt>
      <trkpt lat="47.64937" lon="-2.71625">
        <ele>18.6</ele>
        <time>2020-06-06T11:21:03Z</time>
      </trkpt>
      <trkpt lat="47.64936" lon="-2.71625">
        <ele>18.6</ele>
        <time>2020-06-06T11:21:04Z</time>
      </trkpt>
      <trkpt lat="47.64937" lon="-2.71625">
        <ele>18.6</ele>
        <time>2020-06-06T11:21:05Z</time>
      </trkpt>
      <trkpt lat="47.64937" lon="-2.71625">
        <ele>18.6</ele>
        <time>2020-06-06T11:21:06Z</time>
      </trkpt>
      <trkpt lat="47.64937" lon="-2.71625">
        <ele>18.6</ele>
        <time>2020-06-06T11:21:07Z</time>
      </trkpt>
      <trkpt lat="47.64937" lon="-2.71626">
        <ele>18.6</ele>
        <time>2020-06-06T11:21:08Z</time>
      </trkpt>
      <trkpt lat="47.64937" lon="-2.71626">
        <ele>18.6</ele>
        <time>2020-06-06T11:21:09Z</time>
      </trkpt>
      <trkpt lat="47.64937" lon="-2.71627">
        <ele>18.6</ele>
        <time>2020-06-06T11:21:10Z</time>
      </trkpt>
      <trkpt lat="47.64937" lon="-2.71628">
        <ele>18.7</ele>
        <time>2020-06-06T11:21:11Z</time>
      </trkpt>
      <trkpt lat="47.64937" lon="-2.71628">
        <ele>18.7</ele>
        <time>2020-06-06T11:21:12Z</time>
      </trkpt>
      <trkpt lat="47.64938" lon="-2.71628">
        <ele>18.7</ele>
        <time>2020-06-06T11:21:13Z</time>
      </trkpt>
      <trkpt lat="47.64938" lon="-2.71628">
        <ele>18.7</ele>
        <time>2020-06-06T11:21:14Z</time>
      </trkpt>
      <trkpt lat="47.64938" lon="-2.71628">
        <ele>18.7</ele>
        <time>2020-06-06T11:21:15Z</time>
      </trkpt>
      <trkpt lat="47.64938" lon="-2.71628">
        <ele>18.7</ele>
        <time>2020-06-06T11:21:16Z</time>
      </trkpt>
      <trkpt lat="47.64938" lon="-2.71629">
        <ele>18.7</ele>
        <time>2020-06-06T11:21:17Z</time>
      </trkpt>
      <trkpt lat="47.64938" lon="-2.71629">
        <ele>18.7</ele>
        <time>2020-06-06T11:21:18Z</time>
      </trkpt>
      <trkpt lat="47.64938" lon="-2.7163">
        <ele>18.7</ele>
        <time>2020-06-06T11:21:19Z</time>
      </trkpt>
      <trkpt lat="47.64938" lon="-2.7163">
        <ele>18.7</ele>
        <time>2020-06-06T11:21:20Z</time>
      </trkpt>
      <trkpt lat="47.64937" lon="-2.7163">
        <ele>18.7</ele>
        <time>2020-06-06T11:21:21Z</time>
      </trkpt>
      <trkpt lat="47.64936" lon="-2.7163">
        <ele>18.7</ele>
        <time>2020-06-06T11:21:22Z</time>
      </trkpt>
      <trkpt lat="47.64936" lon="-2.7163">
        <ele>18.7</ele>
        <time>2020-06-06T11:21:23Z</time>
      </trkpt>
      <trkpt lat="47.64936" lon="-2.7163">
        <ele>18.7</ele>
        <time>2020-06-06T11:21:24Z</time>
      </trkpt>
      <trkpt lat="47.64936" lon="-2.7163">
        <ele>18.7</ele>
        <time>2020-06-06T11:21:25Z</time>
      </trkpt>
      <trkpt lat="47.64936" lon="-2.71629">
        <ele>18.7</ele>
        <time>2020-06-06T11:21:26Z</time>
      </trkpt>
      <trkpt lat="47.64936" lon="-2.71628">
        <ele>18.7</ele>
        <time>2020-06-06T11:21:27Z</time>
      </trkpt>
      <trkpt lat="47.64936" lon="-2.71627">
        <ele>18.7</ele>
        <time>2020-06-06T11:21:28Z</time>
      </trkpt>
      <trkpt lat="47.64936" lon="-2.71626">
        <ele>18.7</ele>
        <time>2020-06-06T11:21:29Z</time>
      </trkpt>
      <trkpt lat="47.64935" lon="-2.71625">
        <ele>18.7</ele>
        <time>2020-06-06T11:21:30Z</time>
      </trkpt>
      <trkpt lat="47.64935" lon="-2.71624">
        <ele>18.7</ele>
        <time>2020-06-06T11:21:31Z</time>
      </trkpt>
      <trkpt lat="47.64935" lon="-2.71623">
        <ele>18.7</ele>
        <time>2020-06-06T11:21:32Z</time>
      </trkpt>
      <trkpt lat="47.64935" lon="-2.71623">
        <ele>18.7</ele>
        <time>2020-06-06T11:21:33Z</time>
      </trkpt>
      <trkpt lat="47.64937" lon="-2.71622">
        <ele>18.7</ele>
        <time>2020-06-06T11:21:34Z</time>
      </trkpt>
      <trkpt lat="47.64936" lon="-2.71622">
        <ele>18.7</ele>
        <time>2020-06-06T11:21:35Z</time>
      </trkpt>
      <trkpt lat="47.64937" lon="-2.71621">
        <ele>18.7</ele>
        <time>2020-06-06T11:21:36Z</time>
      </trkpt>
      <trkpt lat="47.64936" lon="-2.71621">
        <ele>18.7</ele>
        <time>2020-06-06T11:21:37Z</time>
      </trkpt>
      <trkpt lat="47.64936" lon="-2.71621">
        <ele>18.7</ele>
        <time>2020-06-06T11:21:38Z</time>
      </trkpt>
      <trkpt lat="47.64936" lon="-2.71622">
        <ele>18.7</ele>
        <time>2020-06-06T11:21:39Z</time>
      </trkpt>
      <trkpt lat="47.64935" lon="-2.71623">
        <ele>18.7</ele>
        <time>2020-06-06T11:21:40Z</time>
      </trkpt>
      <trkpt lat="47.64935" lon="-2.71623">
        <ele>18.7</ele>
        <time>2020-06-06T11:21:41Z</time>
      </trkpt>
      <trkpt lat="47.64934" lon="-2.71623">
        <ele>18.7</ele>
        <time>2020-06-06T11:21:42Z</time>
      </trkpt>
      <trkpt lat="47.64934" lon="-2.71623">
        <ele>18.7</ele>
        <time>2020-06-06T11:21:43Z</time>
      </trkpt>
      <trkpt lat="47.64934" lon="-2.71623">
        <ele>18.7</ele>
        <time>2020-06-06T11:21:44Z</time>
      </trkpt>
      <trkpt lat="47.64934" lon="-2.71624">
        <ele>18.7</ele>
        <time>2020-06-06T11:21:45Z</time>
      </trkpt>
      <trkpt lat="47.64935" lon="-2.71624">
        <ele>18.7</ele>
        <time>2020-06-06T11:21:46Z</time>
      </trkpt>
      <trkpt lat="47.64935" lon="-2.71625">
        <ele>18.7</ele>
        <time>2020-06-06T11:21:47Z</time>
      </trkpt>
      <trkpt lat="47.64935" lon="-2.71625">
        <ele>18.7</ele>
        <time>2020-06-06T11:21:48Z</time>
      </trkpt>
      <trkpt lat="47.64935" lon="-2.71625">
        <ele>18.7</ele>
        <time>2020-06-06T11:21:49Z</time>
      </trkpt>
      <trkpt lat="47.64935" lon="-2.71625">
        <ele>18.7</ele>
        <time>2020-06-06T11:21:50Z</time>
      </trkpt>
      <trkpt lat="47.64935" lon="-2.71625">
        <ele>18.7</ele>
        <time>2020-06-06T11:21:51Z</time>
      </trkpt>
      <trkpt lat="47.64935" lon="-2.71625">
        <ele>18.7</ele>
        <time>2020-06-06T11:21:52Z</time>
      </trkpt>
      <trkpt lat="47.64936" lon="-2.71626">
        <ele>18.7</ele>
        <time>2020-06-06T11:21:53Z</time>
      </trkpt>
      <trkpt lat="47.64935" lon="-2.71634">
        <ele>18.7</ele>
        <time>2020-06-06T11:22:32Z</time>
      </trkpt>
      <trkpt lat="47.64934" lon="-2.71634">
        <ele>18.7</ele>
        <time>2020-06-06T11:22:33Z</time>
      </trkpt>
      <trkpt lat="47.64932" lon="-2.71636">
        <ele>18.7</ele>
        <time>2020-06-06T11:22:34Z</time>
      </trkpt>
      <trkpt lat="47.64931" lon="-2.71636">
        <ele>18.7</ele>
        <time>2020-06-06T11:22:35Z</time>
      </trkpt>
      <trkpt lat="47.64931" lon="-2.71637">
        <ele>18.7</ele>
        <time>2020-06-06T11:22:36Z</time>
      </trkpt>
      <trkpt lat="47.64928" lon="-2.71637">
        <ele>18.7</ele>
        <time>2020-06-06T11:22:37Z</time>
      </trkpt>
      <trkpt lat="47.64927" lon="-2.71637">
        <ele>18.7</ele>
        <time>2020-06-06T11:22:38Z</time>
      </trkpt>
      <trkpt lat="47.64923" lon="-2.71638">
        <ele>18.7</ele>
        <time>2020-06-06T11:22:39Z</time>
      </trkpt>
      <trkpt lat="47.64922" lon="-2.71639">
        <ele>18.7</ele>
        <time>2020-06-06T11:22:40Z</time>
      </trkpt>
      <trkpt lat="47.64919" lon="-2.71642">
        <ele>18.7</ele>
        <time>2020-06-06T11:22:41Z</time>
      </trkpt>
      <trkpt lat="47.64919" lon="-2.71643">
        <ele>18.7</ele>
        <time>2020-06-06T11:22:42Z</time>
      </trkpt>
      <trkpt lat="47.64917" lon="-2.71647">
        <ele>18.7</ele>
        <time>2020-06-06T11:22:43Z</time>
      </trkpt>
      <trkpt lat="47.64914" lon="-2.71649">
        <ele>18.7</ele>
        <time>2020-06-06T11:22:44Z</time>
      </trkpt>
      <trkpt lat="47.64911" lon="-2.71651">
        <ele>18.7</ele>
        <time>2020-06-06T11:22:45Z</time>
      </trkpt>
      <trkpt lat="47.64907" lon="-2.71653">
        <ele>18.8</ele>
        <time>2020-06-06T11:22:46Z</time>
      </trkpt>
      <trkpt lat="47.64903" lon="-2.71654">
        <ele>18.8</ele>
        <time>2020-06-06T11:22:47Z</time>
      </trkpt>
      <trkpt lat="47.64899" lon="-2.71655">
        <ele>18.9</ele>
        <time>2020-06-06T11:22:48Z</time>
      </trkpt>
      <trkpt lat="47.64895" lon="-2.71657">
        <ele>19</ele>
        <time>2020-06-06T11:22:49Z</time>
      </trkpt>
      <trkpt lat="47.64893" lon="-2.71659">
        <ele>19.1</ele>
        <time>2020-06-06T11:22:50Z</time>
      </trkpt>
      <trkpt lat="47.6489" lon="-2.71662">
        <ele>19.2</ele>
        <time>2020-06-06T11:22:51Z</time>
      </trkpt>
      <trkpt lat="47.64889" lon="-2.71664">
        <ele>19.2</ele>
        <time>2020-06-06T11:22:52Z</time>
      </trkpt>
      <trkpt lat="47.6489" lon="-2.71669">
        <ele>19.3</ele>
        <time>2020-06-06T11:22:53Z</time>
      </trkpt>
      <trkpt lat="47.6489" lon="-2.7167">
        <ele>19.3</ele>
        <time>2020-06-06T11:22:54Z</time>
      </trkpt>
      <trkpt lat="47.64891" lon="-2.71674">
        <ele>19.4</ele>
        <time>2020-06-06T11:22:55Z</time>
      </trkpt>
      <trkpt lat="47.6489" lon="-2.71676">
        <ele>19.4</ele>
        <time>2020-06-06T11:22:56Z</time>
      </trkpt>
      <trkpt lat="47.64889" lon="-2.7168">
        <ele>19.4</ele>
        <time>2020-06-06T11:22:57Z</time>
      </trkpt>
      <trkpt lat="47.64888" lon="-2.71687">
        <ele>19.5</ele>
        <time>2020-06-06T11:22:58Z</time>
      </trkpt>
      <trkpt lat="47.64886" lon="-2.71695">
        <ele>19.6</ele>
        <time>2020-06-06T11:22:59Z</time>
      </trkpt>
      <trkpt lat="47.64885" lon="-2.71702">
        <ele>19.7</ele>
        <time>2020-06-06T11:23:00Z</time>
      </trkpt>
      <trkpt lat="47.64884" lon="-2.71709">
        <ele>19.7</ele>
        <time>2020-06-06T11:23:01Z</time>
      </trkpt>
      <trkpt lat="47.64883" lon="-2.71714">
        <ele>19.8</ele>
        <time>2020-06-06T11:23:02Z</time>
      </trkpt>
      <trkpt lat="47.64882" lon="-2.7172">
        <ele>19.9</ele>
        <time>2020-06-06T11:23:03Z</time>
      </trkpt>
      <trkpt lat="47.64881" lon="-2.71725">
        <ele>20</ele>
        <time>2020-06-06T11:23:04Z</time>
      </trkpt>
      <trkpt lat="47.64881" lon="-2.7173">
        <ele>20.1</ele>
        <time>2020-06-06T11:23:05Z</time>
      </trkpt>
      <trkpt lat="47.6488" lon="-2.71737">
        <ele>20.2</ele>
        <time>2020-06-06T11:23:06Z</time>
      </trkpt>
      <trkpt lat="47.6488" lon="-2.71742">
        <ele>20.2</ele>
        <time>2020-06-06T11:23:07Z</time>
      </trkpt>
      <trkpt lat="47.64879" lon="-2.71748">
        <ele>20.3</ele>
        <time>2020-06-06T11:23:08Z</time>
      </trkpt>
      <trkpt lat="47.64879" lon="-2.7175">
        <ele>20.3</ele>
        <time>2020-06-06T11:23:09Z</time>
      </trkpt>
      <trkpt lat="47.64879" lon="-2.71754">
        <ele>20.3</ele>
        <time>2020-06-06T11:23:10Z</time>
      </trkpt>
      <trkpt lat="47.64878" lon="-2.71759">
        <ele>20.3</ele>
        <time>2020-06-06T11:23:11Z</time>
      </trkpt>
      <trkpt lat="47.64878" lon="-2.71765">
        <ele>20.3</ele>
        <time>2020-06-06T11:23:12Z</time>
      </trkpt>
      <trkpt lat="47.64877" lon="-2.7177">
        <ele>20.4</ele>
        <time>2020-06-06T11:23:13Z</time>
      </trkpt>
      <trkpt lat="47.64876" lon="-2.71775">
        <ele>20.4</ele>
        <time>2020-06-06T11:23:14Z</time>
      </trkpt>
      <trkpt lat="47.64875" lon="-2.7178">
        <ele>20.4</ele>
        <time>2020-06-06T11:23:15Z</time>
      </trkpt>
      <trkpt lat="47.64875" lon="-2.71785">
        <ele>20.4</ele>
        <time>2020-06-06T11:23:16Z</time>
      </trkpt>
      <trkpt lat="47.64875" lon="-2.71791">
        <ele>20.4</ele>
        <time>2020-06-06T11:23:17Z</time>
      </trkpt>
      <trkpt lat="47.64875" lon="-2.71796">
        <ele>20.4</ele>
        <time>2020-06-06T11:23:18Z</time>
      </trkpt>
      <trkpt lat="47.64875" lon="-2.71801">
        <ele>20.3</ele>
        <time>2020-06-06T11:23:19Z</time>
      </trkpt>
      <trkpt lat="47.64873" lon="-2.71806">
        <ele>20.3</ele>
        <time>2020-06-06T11:23:20Z</time>
      </trkpt>
      <trkpt lat="47.64873" lon="-2.71807">
        <ele>20.3</ele>
        <time>2020-06-06T11:23:21Z</time>
      </trkpt>
      <trkpt lat="47.6487" lon="-2.71808">
        <ele>20.3</ele>
        <time>2020-06-06T11:23:22Z</time>
      </trkpt>
      <trkpt lat="47.64869" lon="-2.71809">
        <ele>20.3</ele>
        <time>2020-06-06T11:23:23Z</time>
      </trkpt>
      <trkpt lat="47.64867" lon="-2.71812">
        <ele>20.2</ele>
        <time>2020-06-06T11:23:24Z</time>
      </trkpt>
      <trkpt lat="47.64864" lon="-2.71814">
        <ele>20.2</ele>
        <time>2020-06-06T11:23:25Z</time>
      </trkpt>
      <trkpt lat="47.64861" lon="-2.71817">
        <ele>20.2</ele>
        <time>2020-06-06T11:23:26Z</time>
      </trkpt>
      <trkpt lat="47.64858" lon="-2.7182">
        <ele>20.1</ele>
        <time>2020-06-06T11:23:27Z</time>
      </trkpt>
      <trkpt lat="47.64855" lon="-2.71822">
        <ele>20.1</ele>
        <time>2020-06-06T11:23:28Z</time>
      </trkpt>
      <trkpt lat="47.64853" lon="-2.71826">
        <ele>20</ele>
        <time>2020-06-06T11:23:29Z</time>
      </trkpt>
      <trkpt lat="47.64852" lon="-2.71828">
        <ele>20</ele>
        <time>2020-06-06T11:23:30Z</time>
      </trkpt>
      <trkpt lat="47.64852" lon="-2.71834">
        <ele>20</ele>
        <time>2020-06-06T11:23:31Z</time>
      </trkpt>
      <trkpt lat="47.64852" lon="-2.71836">
        <ele>20</ele>
        <time>2020-06-06T11:23:32Z</time>
      </trkpt>
      <trkpt lat="47.64854" lon="-2.71841">
        <ele>20</ele>
        <time>2020-06-06T11:23:33Z</time>
      </trkpt>
      <trkpt lat="47.64854" lon="-2.71842">
        <ele>20</ele>
        <time>2020-06-06T11:23:34Z</time>
      </trkpt>
      <trkpt lat="47.64855" lon="-2.71847">
        <ele>20</ele>
        <time>2020-06-06T11:23:35Z</time>
      </trkpt>
      <trkpt lat="47.64855" lon="-2.71849">
        <ele>19.9</ele>
        <time>2020-06-06T11:23:36Z</time>
      </trkpt>
      <trkpt lat="47.64857" lon="-2.71852">
        <ele>19.9</ele>
        <time>2020-06-06T11:23:37Z</time>
      </trkpt>
      <trkpt lat="47.64858" lon="-2.71854">
        <ele>19.9</ele>
        <time>2020-06-06T11:23:38Z</time>
      </trkpt>
      <trkpt lat="47.64859" lon="-2.71858">
        <ele>19.9</ele>
        <time>2020-06-06T11:23:39Z</time>
      </trkpt>
      <trkpt lat="47.6486" lon="-2.71863">
        <ele>19.9</ele>
        <time>2020-06-06T11:23:40Z</time>
      </trkpt>
      <trkpt lat="47.6486" lon="-2.71866">
        <ele>19.9</ele>
        <time>2020-06-06T11:23:41Z</time>
      </trkpt>
      <trkpt lat="47.64861" lon="-2.7187">
        <ele>19.8</ele>
        <time>2020-06-06T11:23:42Z</time>
      </trkpt>
      <trkpt lat="47.64862" lon="-2.71875">
        <ele>19.8</ele>
        <time>2020-06-06T11:23:43Z</time>
      </trkpt>
      <trkpt lat="47.64861" lon="-2.7188">
        <ele>19.8</ele>
        <time>2020-06-06T11:23:44Z</time>
      </trkpt>
      <trkpt lat="47.64861" lon="-2.71885">
        <ele>19.8</ele>
        <time>2020-06-06T11:23:45Z</time>
      </trkpt>
      <trkpt lat="47.64862" lon="-2.71889">
        <ele>19.8</ele>
        <time>2020-06-06T11:23:46Z</time>
      </trkpt>
      <trkpt lat="47.64862" lon="-2.71894">
        <ele>19.8</ele>
        <time>2020-06-06T11:23:47Z</time>
      </trkpt>
      <trkpt lat="47.64862" lon="-2.71898">
        <ele>19.9</ele>
        <time>2020-06-06T11:23:48Z</time>
      </trkpt>
      <trkpt lat="47.64862" lon="-2.719">
        <ele>19.9</ele>
        <time>2020-06-06T11:23:49Z</time>
      </trkpt>
      <trkpt lat="47.64862" lon="-2.719">
        <ele>19.9</ele>
        <time>2020-06-06T11:23:50Z</time>
      </trkpt>
      <trkpt lat="47.64862" lon="-2.719">
        <ele>19.9</ele>
        <time>2020-06-06T11:23:51Z</time>
      </trkpt>
      <trkpt lat="47.64862" lon="-2.719">
        <ele>19.9</ele>
        <time>2020-06-06T11:23:52Z</time>
      </trkpt>
      <trkpt lat="47.64863" lon="-2.71901">
        <ele>19.9</ele>
        <time>2020-06-06T11:23:53Z</time>
      </trkpt>
      <trkpt lat="47.64863" lon="-2.71902">
        <ele>19.9</ele>
        <time>2020-06-06T11:23:54Z</time>
      </trkpt>
      <trkpt lat="47.64863" lon="-2.71902">
        <ele>19.9</ele>
        <time>2020-06-06T11:23:55Z</time>
      </trkpt>
      <trkpt lat="47.64863" lon="-2.71903">
        <ele>19.9</ele>
        <time>2020-06-06T11:23:56Z</time>
      </trkpt>
      <trkpt lat="47.64862" lon="-2.71904">
        <ele>19.9</ele>
        <time>2020-06-06T11:23:57Z</time>
      </trkpt>
      <trkpt lat="47.64861" lon="-2.71905">
        <ele>19.9</ele>
        <time>2020-06-06T11:23:58Z</time>
      </trkpt>
      <trkpt lat="47.6486" lon="-2.71905">
        <ele>19.9</ele>
        <time>2020-06-06T11:23:59Z</time>
      </trkpt>
      <trkpt lat="47.64859" lon="-2.71905">
        <ele>19.9</ele>
        <time>2020-06-06T11:24:00Z</time>
      </trkpt>
      <trkpt lat="47.64856" lon="-2.71906">
        <ele>19.9</ele>
        <time>2020-06-06T11:24:01Z</time>
      </trkpt>
      <trkpt lat="47.64853" lon="-2.71906">
        <ele>19.9</ele>
        <time>2020-06-06T11:24:02Z</time>
      </trkpt>
      <trkpt lat="47.64849" lon="-2.71907">
        <ele>19.9</ele>
        <time>2020-06-06T11:24:03Z</time>
      </trkpt>
      <trkpt lat="47.64844" lon="-2.71907">
        <ele>19.9</ele>
        <time>2020-06-06T11:24:04Z</time>
      </trkpt>
      <trkpt lat="47.6484" lon="-2.71909">
        <ele>19.8</ele>
        <time>2020-06-06T11:24:05Z</time>
      </trkpt>
      <trkpt lat="47.64836" lon="-2.71909">
        <ele>19.8</ele>
        <time>2020-06-06T11:24:06Z</time>
      </trkpt>
      <trkpt lat="47.64832" lon="-2.71909">
        <ele>19.8</ele>
        <time>2020-06-06T11:24:07Z</time>
      </trkpt>
      <trkpt lat="47.64826" lon="-2.71913">
        <ele>19.7</ele>
        <time>2020-06-06T11:24:08Z</time>
      </trkpt>
      <trkpt lat="47.64823" lon="-2.71912">
        <ele>19.7</ele>
        <time>2020-06-06T11:24:09Z</time>
      </trkpt>
      <trkpt lat="47.64818" lon="-2.71912">
        <ele>19.6</ele>
        <time>2020-06-06T11:24:10Z</time>
      </trkpt>
      <trkpt lat="47.64814" lon="-2.71912">
        <ele>19.5</ele>
        <time>2020-06-06T11:24:11Z</time>
      </trkpt>
      <trkpt lat="47.64809" lon="-2.71913">
        <ele>19.5</ele>
        <time>2020-06-06T11:24:12Z</time>
      </trkpt>
      <trkpt lat="47.64804" lon="-2.71913">
        <ele>19.4</ele>
        <time>2020-06-06T11:24:13Z</time>
      </trkpt>
      <trkpt lat="47.648" lon="-2.71913">
        <ele>19.4</ele>
        <time>2020-06-06T11:24:14Z</time>
      </trkpt>
      <trkpt lat="47.64795" lon="-2.71914">
        <ele>19.3</ele>
        <time>2020-06-06T11:24:15Z</time>
      </trkpt>
      <trkpt lat="47.6479" lon="-2.71914">
        <ele>19.3</ele>
        <time>2020-06-06T11:24:16Z</time>
      </trkpt>
      <trkpt lat="47.64786" lon="-2.71914">
        <ele>19.3</ele>
        <time>2020-06-06T11:24:17Z</time>
      </trkpt>
      <trkpt lat="47.64781" lon="-2.71915">
        <ele>19.3</ele>
        <time>2020-06-06T11:24:18Z</time>
      </trkpt>
      <trkpt lat="47.64777" lon="-2.71916">
        <ele>19.2</ele>
        <time>2020-06-06T11:24:19Z</time>
      </trkpt>
      <trkpt lat="47.64772" lon="-2.71918">
        <ele>19.2</ele>
        <time>2020-06-06T11:24:20Z</time>
      </trkpt>
      <trkpt lat="47.64767" lon="-2.71919">
        <ele>19.2</ele>
        <time>2020-06-06T11:24:21Z</time>
      </trkpt>
      <trkpt lat="47.64762" lon="-2.7192">
        <ele>19.1</ele>
        <time>2020-06-06T11:24:22Z</time>
      </trkpt>
      <trkpt lat="47.64757" lon="-2.71919">
        <ele>19.1</ele>
        <time>2020-06-06T11:24:23Z</time>
      </trkpt>
      <trkpt lat="47.64753" lon="-2.71921">
        <ele>19.1</ele>
        <time>2020-06-06T11:24:24Z</time>
      </trkpt>
      <trkpt lat="47.64749" lon="-2.71922">
        <ele>19.1</ele>
        <time>2020-06-06T11:24:25Z</time>
      </trkpt>
      <trkpt lat="47.64745" lon="-2.71925">
        <ele>19.1</ele>
        <time>2020-06-06T11:24:26Z</time>
      </trkpt>
      <trkpt lat="47.64743" lon="-2.71927">
        <ele>19.1</ele>
        <time>2020-06-06T11:24:27Z</time>
      </trkpt>
      <trkpt lat="47.6474" lon="-2.71928">
        <ele>19</ele>
        <time>2020-06-06T11:24:28Z</time>
      </trkpt>
      <trkpt lat="47.64737" lon="-2.71928">
        <ele>19.1</ele>
        <time>2020-06-06T11:24:29Z</time>
      </trkpt>
      <trkpt lat="47.64736" lon="-2.71928">
        <ele>19.1</ele>
        <time>2020-06-06T11:24:30Z</time>
      </trkpt>
      <trkpt lat="47.64733" lon="-2.71929">
        <ele>19.2</ele>
        <time>2020-06-06T11:24:31Z</time>
      </trkpt>
      <trkpt lat="47.6473" lon="-2.7193">
        <ele>19.2</ele>
        <time>2020-06-06T11:24:32Z</time>
      </trkpt>
      <trkpt lat="47.64729" lon="-2.71931">
        <ele>19.2</ele>
        <time>2020-06-06T11:24:33Z</time>
      </trkpt>
      <trkpt lat="47.64727" lon="-2.71932">
        <ele>19.2</ele>
        <time>2020-06-06T11:24:34Z</time>
      </trkpt>
      <trkpt lat="47.64726" lon="-2.71933">
        <ele>19.3</ele>
        <time>2020-06-06T11:24:35Z</time>
      </trkpt>
      <trkpt lat="47.64725" lon="-2.71934">
        <ele>19.3</ele>
        <time>2020-06-06T11:24:36Z</time>
      </trkpt>
      <trkpt lat="47.64724" lon="-2.71935">
        <ele>19.3</ele>
        <time>2020-06-06T11:24:37Z</time>
      </trkpt>
      <trkpt lat="47.6472" lon="-2.71938">
        <ele>19.3</ele>
        <time>2020-06-06T11:24:38Z</time>
      </trkpt>
      <trkpt lat="47.64719" lon="-2.71939">
        <ele>19.3</ele>
        <time>2020-06-06T11:24:39Z</time>
      </trkpt>
      <trkpt lat="47.64715" lon="-2.71942">
        <ele>19.3</ele>
        <time>2020-06-06T11:24:40Z</time>
      </trkpt>
      <trkpt lat="47.64713" lon="-2.71943">
        <ele>19.3</ele>
        <time>2020-06-06T11:24:41Z</time>
      </trkpt>
      <trkpt lat="47.64709" lon="-2.71946">
        <ele>19.3</ele>
        <time>2020-06-06T11:24:42Z</time>
      </trkpt>
      <trkpt lat="47.64706" lon="-2.71949">
        <ele>19.3</ele>
        <time>2020-06-06T11:24:43Z</time>
      </trkpt>
      <trkpt lat="47.64702" lon="-2.71952">
        <ele>19.3</ele>
        <time>2020-06-06T11:24:44Z</time>
      </trkpt>
      <trkpt lat="47.64697" lon="-2.71955">
        <ele>19.3</ele>
        <time>2020-06-06T11:24:45Z</time>
      </trkpt>
      <trkpt lat="47.64694" lon="-2.71957">
        <ele>19.3</ele>
        <time>2020-06-06T11:24:46Z</time>
      </trkpt>
      <trkpt lat="47.6469" lon="-2.71959">
        <ele>19.3</ele>
        <time>2020-06-06T11:24:47Z</time>
      </trkpt>
      <trkpt lat="47.64686" lon="-2.71962">
        <ele>19.3</ele>
        <time>2020-06-06T11:24:48Z</time>
      </trkpt>
      <trkpt lat="47.64683" lon="-2.71964">
        <ele>19.3</ele>
        <time>2020-06-06T11:24:49Z</time>
      </trkpt>
      <trkpt lat="47.64679" lon="-2.71966">
        <ele>19.2</ele>
        <time>2020-06-06T11:24:50Z</time>
      </trkpt>
      <trkpt lat="47.64676" lon="-2.71968">
        <ele>19.2</ele>
        <time>2020-06-06T11:24:51Z</time>
      </trkpt>
      <trkpt lat="47.64672" lon="-2.71971">
        <ele>19.1</ele>
        <time>2020-06-06T11:24:52Z</time>
      </trkpt>
      <trkpt lat="47.64669" lon="-2.71974">
        <ele>19.1</ele>
        <time>2020-06-06T11:24:53Z</time>
      </trkpt>
      <trkpt lat="47.64666" lon="-2.71977">
        <ele>19</ele>
        <time>2020-06-06T11:24:54Z</time>
      </trkpt>
      <trkpt lat="47.64663" lon="-2.71979">
        <ele>19</ele>
        <time>2020-06-06T11:24:55Z</time>
      </trkpt>
      <trkpt lat="47.64661" lon="-2.71981">
        <ele>19</ele>
        <time>2020-06-06T11:24:56Z</time>
      </trkpt>
      <trkpt lat="47.64658" lon="-2.71984">
        <ele>18.9</ele>
        <time>2020-06-06T11:24:57Z</time>
      </trkpt>
      <trkpt lat="47.64657" lon="-2.71985">
        <ele>18.9</ele>
        <time>2020-06-06T11:24:58Z</time>
      </trkpt>
      <trkpt lat="47.64654" lon="-2.71987">
        <ele>18.9</ele>
        <time>2020-06-06T11:24:59Z</time>
      </trkpt>
      <trkpt lat="47.64653" lon="-2.71988">
        <ele>18.9</ele>
        <time>2020-06-06T11:25:00Z</time>
      </trkpt>
      <trkpt lat="47.6465" lon="-2.7199">
        <ele>18.8</ele>
        <time>2020-06-06T11:25:01Z</time>
      </trkpt>
      <trkpt lat="47.64649" lon="-2.71991">
        <ele>18.8</ele>
        <time>2020-06-06T11:25:02Z</time>
      </trkpt>
      <trkpt lat="47.64647" lon="-2.71992">
        <ele>18.8</ele>
        <time>2020-06-06T11:25:03Z</time>
      </trkpt>
      <trkpt lat="47.64643" lon="-2.71995">
        <ele>18.7</ele>
        <time>2020-06-06T11:25:04Z</time>
      </trkpt>
      <trkpt lat="47.64642" lon="-2.71997">
        <ele>18.7</ele>
        <time>2020-06-06T11:25:05Z</time>
      </trkpt>
      <trkpt lat="47.64639" lon="-2.71999">
        <ele>18.7</ele>
        <time>2020-06-06T11:25:06Z</time>
      </trkpt>
      <trkpt lat="47.64635" lon="-2.72002">
        <ele>18.6</ele>
        <time>2020-06-06T11:25:07Z</time>
      </trkpt>
      <trkpt lat="47.64634" lon="-2.72003">
        <ele>18.6</ele>
        <time>2020-06-06T11:25:08Z</time>
      </trkpt>
      <trkpt lat="47.64632" lon="-2.72004">
        <ele>18.6</ele>
        <time>2020-06-06T11:25:09Z</time>
      </trkpt>
      <trkpt lat="47.64631" lon="-2.72005">
        <ele>18.6</ele>
        <time>2020-06-06T11:25:10Z</time>
      </trkpt>
      <trkpt lat="47.6463" lon="-2.72006">
        <ele>18.7</ele>
        <time>2020-06-06T11:25:11Z</time>
      </trkpt>
      <trkpt lat="47.6463" lon="-2.72006">
        <ele>18.7</ele>
        <time>2020-06-06T11:25:12Z</time>
      </trkpt>
      <trkpt lat="47.6463" lon="-2.72006">
        <ele>18.7</ele>
        <time>2020-06-06T11:25:13Z</time>
      </trkpt>
      <trkpt lat="47.6463" lon="-2.72007">
        <ele>18.7</ele>
        <time>2020-06-06T11:25:14Z</time>
      </trkpt>
      <trkpt lat="47.64629" lon="-2.72007">
        <ele>18.7</ele>
        <time>2020-06-06T11:25:15Z</time>
      </trkpt>
      <trkpt lat="47.64629" lon="-2.72007">
        <ele>18.7</ele>
        <time>2020-06-06T11:25:16Z</time>
      </trkpt>
      <trkpt lat="47.64629" lon="-2.72007">
        <ele>18.7</ele>
        <time>2020-06-06T11:25:17Z</time>
      </trkpt>
      <trkpt lat="47.64629" lon="-2.72007">
        <ele>18.7</ele>
        <time>2020-06-06T11:25:18Z</time>
      </trkpt>
      <trkpt lat="47.64629" lon="-2.72007">
        <ele>18.7</ele>
        <time>2020-06-06T11:25:19Z</time>
      </trkpt>
      <trkpt lat="47.64629" lon="-2.72007">
        <ele>18.7</ele>
        <time>2020-06-06T11:25:20Z</time>
      </trkpt>
      <trkpt lat="47.64637" lon="-2.71998">
        <ele>18.8</ele>
        <time>2020-06-06T11:27:40Z</time>
      </trkpt>
      <trkpt lat="47.64639" lon="-2.71997">
        <ele>18.8</ele>
        <time>2020-06-06T11:27:41Z</time>
      </trkpt>
      <trkpt lat="47.64642" lon="-2.71994">
        <ele>18.8</ele>
        <time>2020-06-06T11:27:42Z</time>
      </trkpt>
      <trkpt lat="47.64643" lon="-2.71993">
        <ele>18.9</ele>
        <time>2020-06-06T11:27:43Z</time>
      </trkpt>
      <trkpt lat="47.64646" lon="-2.71992">
        <ele>18.9</ele>
        <time>2020-06-06T11:27:44Z</time>
      </trkpt>
      <trkpt lat="47.64649" lon="-2.7199">
        <ele>18.9</ele>
        <time>2020-06-06T11:27:45Z</time>
      </trkpt>
      <trkpt lat="47.64652" lon="-2.71989">
        <ele>18.9</ele>
        <time>2020-06-06T11:27:46Z</time>
      </trkpt>
      <trkpt lat="47.64655" lon="-2.71985">
        <ele>19</ele>
        <time>2020-06-06T11:27:47Z</time>
      </trkpt>
      <trkpt lat="47.64659" lon="-2.71981">
        <ele>19</ele>
        <time>2020-06-06T11:27:48Z</time>
      </trkpt>
      <trkpt lat="47.64661" lon="-2.71979">
        <ele>19.1</ele>
        <time>2020-06-06T11:27:49Z</time>
      </trkpt>
      <trkpt lat="47.64664" lon="-2.71977">
        <ele>19.1</ele>
        <time>2020-06-06T11:27:50Z</time>
      </trkpt>
      <trkpt lat="47.64667" lon="-2.71976">
        <ele>19.2</ele>
        <time>2020-06-06T11:27:51Z</time>
      </trkpt>
      <trkpt lat="47.6467" lon="-2.71975">
        <ele>19.2</ele>
        <time>2020-06-06T11:27:52Z</time>
      </trkpt>
      <trkpt lat="47.64673" lon="-2.71974">
        <ele>19.2</ele>
        <time>2020-06-06T11:27:53Z</time>
      </trkpt>
      <trkpt lat="47.64675" lon="-2.71972">
        <ele>19.2</ele>
        <time>2020-06-06T11:27:54Z</time>
      </trkpt>
      <trkpt lat="47.64679" lon="-2.7197">
        <ele>19.3</ele>
        <time>2020-06-06T11:27:55Z</time>
      </trkpt>
      <trkpt lat="47.6468" lon="-2.71969">
        <ele>19.3</ele>
        <time>2020-06-06T11:27:56Z</time>
      </trkpt>
      <trkpt lat="47.64683" lon="-2.71967">
        <ele>19.3</ele>
        <time>2020-06-06T11:27:57Z</time>
      </trkpt>
      <trkpt lat="47.64686" lon="-2.71965">
        <ele>19.3</ele>
        <time>2020-06-06T11:27:58Z</time>
      </trkpt>
      <trkpt lat="47.64689" lon="-2.71962">
        <ele>19.3</ele>
        <time>2020-06-06T11:27:59Z</time>
      </trkpt>
      <trkpt lat="47.64692" lon="-2.7196">
        <ele>19.3</ele>
        <time>2020-06-06T11:28:00Z</time>
      </trkpt>
      <trkpt lat="47.64695" lon="-2.71957">
        <ele>19.3</ele>
        <time>2020-06-06T11:28:01Z</time>
      </trkpt>
      <trkpt lat="47.64698" lon="-2.71954">
        <ele>19.3</ele>
        <time>2020-06-06T11:28:02Z</time>
      </trkpt>
      <trkpt lat="47.64702" lon="-2.71952">
        <ele>19.3</ele>
        <time>2020-06-06T11:28:03Z</time>
      </trkpt>
      <trkpt lat="47.64705" lon="-2.71951">
        <ele>19.3</ele>
        <time>2020-06-06T11:28:04Z</time>
      </trkpt>
      <trkpt lat="47.64708" lon="-2.71948">
        <ele>19.3</ele>
        <time>2020-06-06T11:28:05Z</time>
      </trkpt>
      <trkpt lat="47.64712" lon="-2.71945">
        <ele>19.3</ele>
        <time>2020-06-06T11:28:06Z</time>
      </trkpt>
      <trkpt lat="47.64715" lon="-2.71943">
        <ele>19.3</ele>
        <time>2020-06-06T11:28:07Z</time>
      </trkpt>
      <trkpt lat="47.64718" lon="-2.71941">
        <ele>19.3</ele>
        <time>2020-06-06T11:28:08Z</time>
      </trkpt>
      <trkpt lat="47.64721" lon="-2.71939">
        <ele>19.3</ele>
        <time>2020-06-06T11:28:09Z</time>
      </trkpt>
      <trkpt lat="47.64724" lon="-2.71938">
        <ele>19.3</ele>
        <time>2020-06-06T11:28:10Z</time>
      </trkpt>
      <trkpt lat="47.64727" lon="-2.71937">
        <ele>19.2</ele>
        <time>2020-06-06T11:28:11Z</time>
      </trkpt>
      <trkpt lat="47.6473" lon="-2.71937">
        <ele>19.2</ele>
        <time>2020-06-06T11:28:12Z</time>
      </trkpt>
      <trkpt lat="47.64732" lon="-2.71936">
        <ele>19.2</ele>
        <time>2020-06-06T11:28:13Z</time>
      </trkpt>
      <trkpt lat="47.64735" lon="-2.71936">
        <ele>19.1</ele>
        <time>2020-06-06T11:28:14Z</time>
      </trkpt>
      <trkpt lat="47.6474" lon="-2.71935">
        <ele>19</ele>
        <time>2020-06-06T11:28:15Z</time>
      </trkpt>
      <trkpt lat="47.64744" lon="-2.71933">
        <ele>19.1</ele>
        <time>2020-06-06T11:28:16Z</time>
      </trkpt>
      <trkpt lat="47.6475" lon="-2.7193">
        <ele>19.1</ele>
        <time>2020-06-06T11:28:17Z</time>
      </trkpt>
      <trkpt lat="47.64752" lon="-2.71927">
        <ele>19.1</ele>
        <time>2020-06-06T11:28:18Z</time>
      </trkpt>
      <trkpt lat="47.64757" lon="-2.71925">
        <ele>19.1</ele>
        <time>2020-06-06T11:28:19Z</time>
      </trkpt>
      <trkpt lat="47.64761" lon="-2.71922">
        <ele>19.1</ele>
        <time>2020-06-06T11:28:20Z</time>
      </trkpt>
      <trkpt lat="47.64766" lon="-2.71921">
        <ele>19.2</ele>
        <time>2020-06-06T11:28:21Z</time>
      </trkpt>
      <trkpt lat="47.64771" lon="-2.71921">
        <ele>19.2</ele>
        <time>2020-06-06T11:28:22Z</time>
      </trkpt>
      <trkpt lat="47.64776" lon="-2.71919">
        <ele>19.2</ele>
        <time>2020-06-06T11:28:23Z</time>
      </trkpt>
      <trkpt lat="47.64781" lon="-2.71919">
        <ele>19.2</ele>
        <time>2020-06-06T11:28:24Z</time>
      </trkpt>
      <trkpt lat="47.64785" lon="-2.71918">
        <ele>19.3</ele>
        <time>2020-06-06T11:28:25Z</time>
      </trkpt>
      <trkpt lat="47.6479" lon="-2.71917">
        <ele>19.3</ele>
        <time>2020-06-06T11:28:26Z</time>
      </trkpt>
      <trkpt lat="47.64795" lon="-2.71916">
        <ele>19.3</ele>
        <time>2020-06-06T11:28:27Z</time>
      </trkpt>
      <trkpt lat="47.648" lon="-2.71916">
        <ele>19.4</ele>
        <time>2020-06-06T11:28:28Z</time>
      </trkpt>
      <trkpt lat="47.64804" lon="-2.71916">
        <ele>19.4</ele>
        <time>2020-06-06T11:28:29Z</time>
      </trkpt>
      <trkpt lat="47.64807" lon="-2.71915">
        <ele>19.5</ele>
        <time>2020-06-06T11:28:30Z</time>
      </trkpt>
      <trkpt lat="47.64812" lon="-2.71914">
        <ele>19.5</ele>
        <time>2020-06-06T11:28:31Z</time>
      </trkpt>
      <trkpt lat="47.64817" lon="-2.71913">
        <ele>19.6</ele>
        <time>2020-06-06T11:28:32Z</time>
      </trkpt>
      <trkpt lat="47.64822" lon="-2.71912">
        <ele>19.7</ele>
        <time>2020-06-06T11:28:33Z</time>
      </trkpt>
      <trkpt lat="47.64827" lon="-2.71911">
        <ele>19.7</ele>
        <time>2020-06-06T11:28:34Z</time>
      </trkpt>
      <trkpt lat="47.64831" lon="-2.71911">
        <ele>19.8</ele>
        <time>2020-06-06T11:28:35Z</time>
      </trkpt>
      <trkpt lat="47.64836" lon="-2.71911">
        <ele>19.8</ele>
        <time>2020-06-06T11:28:36Z</time>
      </trkpt>
      <trkpt lat="47.64839" lon="-2.71911">
        <ele>19.8</ele>
        <time>2020-06-06T11:28:37Z</time>
      </trkpt>
      <trkpt lat="47.64843" lon="-2.71911">
        <ele>19.9</ele>
        <time>2020-06-06T11:28:38Z</time>
      </trkpt>
      <trkpt lat="47.64847" lon="-2.71909">
        <ele>19.9</ele>
        <time>2020-06-06T11:28:39Z</time>
      </trkpt>
      <trkpt lat="47.64852" lon="-2.71908">
        <ele>19.9</ele>
        <time>2020-06-06T11:28:40Z</time>
      </trkpt>
      <trkpt lat="47.64856" lon="-2.71906">
        <ele>19.9</ele>
        <time>2020-06-06T11:28:41Z</time>
      </trkpt>
      <trkpt lat="47.64861" lon="-2.71906">
        <ele>19.9</ele>
        <time>2020-06-06T11:28:42Z</time>
      </trkpt>
      <trkpt lat="47.64865" lon="-2.71905">
        <ele>19.6</ele>
        <time>2020-06-06T11:28:43Z</time>
      </trkpt>
      <trkpt lat="47.6487" lon="-2.71906">
        <ele>19.3</ele>
        <time>2020-06-06T11:28:44Z</time>
      </trkpt>
      <trkpt lat="47.64874" lon="-2.71907">
        <ele>19.1</ele>
        <time>2020-06-06T11:28:45Z</time>
      </trkpt>
      <trkpt lat="47.64879" lon="-2.71905">
        <ele>18.7</ele>
        <time>2020-06-06T11:28:46Z</time>
      </trkpt>
      <trkpt lat="47.64883" lon="-2.71903">
        <ele>18.4</ele>
        <time>2020-06-06T11:28:47Z</time>
      </trkpt>
      <trkpt lat="47.64887" lon="-2.71901">
        <ele>18.2</ele>
        <time>2020-06-06T11:28:48Z</time>
      </trkpt>
      <trkpt lat="47.64891" lon="-2.719">
        <ele>17.9</ele>
        <time>2020-06-06T11:28:49Z</time>
      </trkpt>
      <trkpt lat="47.64895" lon="-2.71899">
        <ele>17.6</ele>
        <time>2020-06-06T11:28:50Z</time>
      </trkpt>
      <trkpt lat="47.64899" lon="-2.71899">
        <ele>17.3</ele>
        <time>2020-06-06T11:28:51Z</time>
      </trkpt>
      <trkpt lat="47.64903" lon="-2.71898">
        <ele>17</ele>
        <time>2020-06-06T11:28:52Z</time>
      </trkpt>
      <trkpt lat="47.64908" lon="-2.71896">
        <ele>16.8</ele>
        <time>2020-06-06T11:28:53Z</time>
      </trkpt>
      <trkpt lat="47.64911" lon="-2.71897">
        <ele>16.6</ele>
        <time>2020-06-06T11:28:54Z</time>
      </trkpt>
      <trkpt lat="47.64915" lon="-2.71897">
        <ele>16.6</ele>
        <time>2020-06-06T11:28:55Z</time>
      </trkpt>
      <trkpt lat="47.64919" lon="-2.71897">
        <ele>16.5</ele>
        <time>2020-06-06T11:28:56Z</time>
      </trkpt>
      <trkpt lat="47.64924" lon="-2.71896">
        <ele>16.4</ele>
        <time>2020-06-06T11:28:57Z</time>
      </trkpt>
      <trkpt lat="47.64929" lon="-2.71896">
        <ele>16.3</ele>
        <time>2020-06-06T11:28:58Z</time>
      </trkpt>
      <trkpt lat="47.64934" lon="-2.71894">
        <ele>16.2</ele>
        <time>2020-06-06T11:28:59Z</time>
      </trkpt>
      <trkpt lat="47.64939" lon="-2.71893">
        <ele>16.2</ele>
        <time>2020-06-06T11:29:00Z</time>
      </trkpt>
      <trkpt lat="47.64944" lon="-2.71891">
        <ele>16.1</ele>
        <time>2020-06-06T11:29:01Z</time>
      </trkpt>
      <trkpt lat="47.64948" lon="-2.71891">
        <ele>16</ele>
        <time>2020-06-06T11:29:02Z</time>
      </trkpt>
      <trkpt lat="47.64953" lon="-2.7189">
        <ele>15.9</ele>
        <time>2020-06-06T11:29:03Z</time>
      </trkpt>
      <trkpt lat="47.64958" lon="-2.7189">
        <ele>15.8</ele>
        <time>2020-06-06T11:29:04Z</time>
      </trkpt>
      <trkpt lat="47.64962" lon="-2.71889">
        <ele>15.7</ele>
        <time>2020-06-06T11:29:05Z</time>
      </trkpt>
      <trkpt lat="47.64968" lon="-2.71888">
        <ele>15.6</ele>
        <time>2020-06-06T11:29:06Z</time>
      </trkpt>
      <trkpt lat="47.64972" lon="-2.71886">
        <ele>15.6</ele>
        <time>2020-06-06T11:29:07Z</time>
      </trkpt>
      <trkpt lat="47.64977" lon="-2.71885">
        <ele>15.6</ele>
        <time>2020-06-06T11:29:08Z</time>
      </trkpt>
      <trkpt lat="47.64981" lon="-2.71885">
        <ele>15.6</ele>
        <time>2020-06-06T11:29:09Z</time>
      </trkpt>
      <trkpt lat="47.64985" lon="-2.71884">
        <ele>15.5</ele>
        <time>2020-06-06T11:29:10Z</time>
      </trkpt>
      <trkpt lat="47.64988" lon="-2.71884">
        <ele>15.5</ele>
        <time>2020-06-06T11:29:11Z</time>
      </trkpt>
      <trkpt lat="47.6499" lon="-2.71884">
        <ele>15.5</ele>
        <time>2020-06-06T11:29:12Z</time>
      </trkpt>
      <trkpt lat="47.64991" lon="-2.71883">
        <ele>15.5</ele>
        <time>2020-06-06T11:29:13Z</time>
      </trkpt>
      <trkpt lat="47.64993" lon="-2.71884">
        <ele>15.5</ele>
        <time>2020-06-06T11:29:14Z</time>
      </trkpt>
      <trkpt lat="47.64994" lon="-2.71883">
        <ele>15.5</ele>
        <time>2020-06-06T11:29:15Z</time>
      </trkpt>
      <trkpt lat="47.64994" lon="-2.71884">
        <ele>15.5</ele>
        <time>2020-06-06T11:29:16Z</time>
      </trkpt>
      <trkpt lat="47.64993" lon="-2.71884">
        <ele>15.5</ele>
        <time>2020-06-06T11:29:17Z</time>
      </trkpt>
      <trkpt lat="47.64993" lon="-2.71884">
        <ele>15.5</ele>
        <time>2020-06-06T11:29:18Z</time>
      </trkpt>
      <trkpt lat="47.64993" lon="-2.71885">
        <ele>15.5</ele>
        <time>2020-06-06T11:29:19Z</time>
      </trkpt>
      <trkpt lat="47.64992" lon="-2.71885">
        <ele>15.5</ele>
        <time>2020-06-06T11:29:20Z</time>
      </trkpt>
      <trkpt lat="47.64992" lon="-2.71885">
        <ele>15.5</ele>
        <time>2020-06-06T11:29:21Z</time>
      </trkpt>
      <trkpt lat="47.64992" lon="-2.71885">
        <ele>15.5</ele>
        <time>2020-06-06T11:29:22Z</time>
      </trkpt>
      <trkpt lat="47.64992" lon="-2.71885">
        <ele>15.5</ele>
        <time>2020-06-06T11:29:23Z</time>
      </trkpt>
      <trkpt lat="47.64992" lon="-2.71885">
        <ele>15.5</ele>
        <time>2020-06-06T11:29:24Z</time>
      </trkpt>
      <trkpt lat="47.64992" lon="-2.71885">
        <ele>15.5</ele>
        <time>2020-06-06T11:29:25Z</time>
      </trkpt>
      <trkpt lat="47.64992" lon="-2.71885">
        <ele>15.5</ele>
        <time>2020-06-06T11:29:26Z</time>
      </trkpt>
      <trkpt lat="47.65527" lon="-2.75556">
        <ele>11.8</ele>
        <time>2020-06-06T12:49:08Z</time>
      </trkpt>
      <trkpt lat="47.65524" lon="-2.75561">
        <ele>11.9</ele>
        <time>2020-06-06T12:49:10Z</time>
      </trkpt>
      <trkpt lat="47.65522" lon="-2.75564">
        <ele>12</ele>
        <time>2020-06-06T12:49:12Z</time>
      </trkpt>
      <trkpt lat="47.6552" lon="-2.75567">
        <ele>12</ele>
        <time>2020-06-06T12:49:13Z</time>
      </trkpt>
      <trkpt lat="47.65518" lon="-2.75569">
        <ele>12.1</ele>
        <time>2020-06-06T12:49:14Z</time>
      </trkpt>
      <trkpt lat="47.65514" lon="-2.75573">
        <ele>12.2</ele>
        <time>2020-06-06T12:49:15Z</time>
      </trkpt>
      <trkpt lat="47.65512" lon="-2.75577">
        <ele>12.3</ele>
        <time>2020-06-06T12:49:16Z</time>
      </trkpt>
      <trkpt lat="47.65511" lon="-2.75579">
        <ele>12.3</ele>
        <time>2020-06-06T12:49:17Z</time>
      </trkpt>
      <trkpt lat="47.65508" lon="-2.75583">
        <ele>12.4</ele>
        <time>2020-06-06T12:49:18Z</time>
      </trkpt>
      <trkpt lat="47.65505" lon="-2.75587">
        <ele>12.3</ele>
        <time>2020-06-06T12:49:19Z</time>
      </trkpt>
      <trkpt lat="47.65502" lon="-2.75593">
        <ele>12.2</ele>
        <time>2020-06-06T12:49:20Z</time>
      </trkpt>
      <trkpt lat="47.65499" lon="-2.75598">
        <ele>12.2</ele>
        <time>2020-06-06T12:49:21Z</time>
      </trkpt>
      <trkpt lat="47.65497" lon="-2.75604">
        <ele>12.1</ele>
        <time>2020-06-06T12:49:22Z</time>
      </trkpt>
      <trkpt lat="47.65495" lon="-2.75608">
        <ele>12</ele>
        <time>2020-06-06T12:49:23Z</time>
      </trkpt>
      <trkpt lat="47.65492" lon="-2.75612">
        <ele>11.9</ele>
        <time>2020-06-06T12:49:24Z</time>
      </trkpt>
      <trkpt lat="47.6549" lon="-2.75618">
        <ele>11.8</ele>
        <time>2020-06-06T12:49:25Z</time>
      </trkpt>
      <trkpt lat="47.65488" lon="-2.75622">
        <ele>11.6</ele>
        <time>2020-06-06T12:49:26Z</time>
      </trkpt>
      <trkpt lat="47.65485" lon="-2.75628">
        <ele>11.5</ele>
        <time>2020-06-06T12:49:27Z</time>
      </trkpt>
      <trkpt lat="47.65483" lon="-2.75634">
        <ele>11.3</ele>
        <time>2020-06-06T12:49:28Z</time>
      </trkpt>
      <trkpt lat="47.6548" lon="-2.75642">
        <ele>11.1</ele>
        <time>2020-06-06T12:49:29Z</time>
      </trkpt>
      <trkpt lat="47.65478" lon="-2.75648">
        <ele>10.8</ele>
        <time>2020-06-06T12:49:30Z</time>
      </trkpt>
      <trkpt lat="47.65474" lon="-2.75656">
        <ele>10.6</ele>
        <time>2020-06-06T12:49:31Z</time>
      </trkpt>
      <trkpt lat="47.65471" lon="-2.75664">
        <ele>10.3</ele>
        <time>2020-06-06T12:49:32Z</time>
      </trkpt>
      <trkpt lat="47.65467" lon="-2.75671">
        <ele>10</ele>
        <time>2020-06-06T12:49:33Z</time>
      </trkpt>
      <trkpt lat="47.65464" lon="-2.75678">
        <ele>9.7</ele>
        <time>2020-06-06T12:49:34Z</time>
      </trkpt>
      <trkpt lat="47.6546" lon="-2.75685">
        <ele>9.5</ele>
        <time>2020-06-06T12:49:35Z</time>
      </trkpt>
      <trkpt lat="47.65457" lon="-2.75695">
        <ele>9.1</ele>
        <time>2020-06-06T12:49:36Z</time>
      </trkpt>
      <trkpt lat="47.65455" lon="-2.75704">
        <ele>8.8</ele>
        <time>2020-06-06T12:49:37Z</time>
      </trkpt>
      <trkpt lat="47.65452" lon="-2.75711">
        <ele>8.6</ele>
        <time>2020-06-06T12:49:38Z</time>
      </trkpt>
      <trkpt lat="47.65449" lon="-2.75719">
        <ele>8.3</ele>
        <time>2020-06-06T12:49:39Z</time>
      </trkpt>
      <trkpt lat="47.65447" lon="-2.75725">
        <ele>8.1</ele>
        <time>2020-06-06T12:49:40Z</time>
      </trkpt>
      <trkpt lat="47.65444" lon="-2.7573">
        <ele>7.9</ele>
        <time>2020-06-06T12:49:41Z</time>
      </trkpt>
      <trkpt lat="47.65441" lon="-2.75735">
        <ele>7.7</ele>
        <time>2020-06-06T12:49:42Z</time>
      </trkpt>
      <trkpt lat="47.65439" lon="-2.7574">
        <ele>7.5</ele>
        <time>2020-06-06T12:49:43Z</time>
      </trkpt>
      <trkpt lat="47.65435" lon="-2.75743">
        <ele>7.4</ele>
        <time>2020-06-06T12:49:44Z</time>
      </trkpt>
      <trkpt lat="47.65433" lon="-2.75748">
        <ele>7.2</ele>
        <time>2020-06-06T12:49:45Z</time>
      </trkpt>
      <trkpt lat="47.65433" lon="-2.75753">
        <ele>7.1</ele>
        <time>2020-06-06T12:49:46Z</time>
      </trkpt>
      <trkpt lat="47.65431" lon="-2.75758">
        <ele>7</ele>
        <time>2020-06-06T12:49:47Z</time>
      </trkpt>
      <trkpt lat="47.65429" lon="-2.75765">
        <ele>6.8</ele>
        <time>2020-06-06T12:49:48Z</time>
      </trkpt>
      <trkpt lat="47.65428" lon="-2.75772">
        <ele>6.6</ele>
        <time>2020-06-06T12:49:49Z</time>
      </trkpt>
      <trkpt lat="47.65426" lon="-2.75778">
        <ele>6.2</ele>
        <time>2020-06-06T12:49:50Z</time>
      </trkpt>
      <trkpt lat="47.65426" lon="-2.75785">
        <ele>6.1</ele>
        <time>2020-06-06T12:49:51Z</time>
      </trkpt>
      <trkpt lat="47.65425" lon="-2.75794">
        <ele>6</ele>
        <time>2020-06-06T12:49:52Z</time>
      </trkpt>
      <trkpt lat="47.65424" lon="-2.75802">
        <ele>6.1</ele>
        <time>2020-06-06T12:49:53Z</time>
      </trkpt>
      <trkpt lat="47.65423" lon="-2.75809">
        <ele>6.1</ele>
        <time>2020-06-06T12:49:54Z</time>
      </trkpt>
      <trkpt lat="47.65424" lon="-2.75818">
        <ele>6</ele>
        <time>2020-06-06T12:49:55Z</time>
      </trkpt>
      <trkpt lat="47.65423" lon="-2.75826">
        <ele>5.8</ele>
        <time>2020-06-06T12:49:56Z</time>
      </trkpt>
      <trkpt lat="47.65423" lon="-2.75833">
        <ele>5.7</ele>
        <time>2020-06-06T12:49:57Z</time>
      </trkpt>
      <trkpt lat="47.65422" lon="-2.7584">
        <ele>5.6</ele>
        <time>2020-06-06T12:49:58Z</time>
      </trkpt>
      <trkpt lat="47.6542" lon="-2.75846">
        <ele>5.6</ele>
        <time>2020-06-06T12:49:59Z</time>
      </trkpt>
      <trkpt lat="47.65417" lon="-2.75852">
        <ele>5.5</ele>
        <time>2020-06-06T12:50:00Z</time>
      </trkpt>
      <trkpt lat="47.65415" lon="-2.75856">
        <ele>5.4</ele>
        <time>2020-06-06T12:50:01Z</time>
      </trkpt>
      <trkpt lat="47.65411" lon="-2.75862">
        <ele>5.3</ele>
        <time>2020-06-06T12:50:02Z</time>
      </trkpt>
      <trkpt lat="47.65408" lon="-2.75867">
        <ele>5.3</ele>
        <time>2020-06-06T12:50:03Z</time>
      </trkpt>
      <trkpt lat="47.65405" lon="-2.75871">
        <ele>5.3</ele>
        <time>2020-06-06T12:50:04Z</time>
      </trkpt>
      <trkpt lat="47.65401" lon="-2.75877">
        <ele>5.3</ele>
        <time>2020-06-06T12:50:05Z</time>
      </trkpt>
      <trkpt lat="47.65397" lon="-2.75881">
        <ele>5.3</ele>
        <time>2020-06-06T12:50:06Z</time>
      </trkpt>
      <trkpt lat="47.65393" lon="-2.75885">
        <ele>5.3</ele>
        <time>2020-06-06T12:50:07Z</time>
      </trkpt>
      <trkpt lat="47.65391" lon="-2.75888">
        <ele>5.4</ele>
        <time>2020-06-06T12:50:08Z</time>
      </trkpt>
      <trkpt lat="47.65388" lon="-2.75892">
        <ele>5.5</ele>
        <time>2020-06-06T12:50:09Z</time>
      </trkpt>
      <trkpt lat="47.65386" lon="-2.75895">
        <ele>5.5</ele>
        <time>2020-06-06T12:50:10Z</time>
      </trkpt>
      <trkpt lat="47.65383" lon="-2.75899">
        <ele>5.6</ele>
        <time>2020-06-06T12:50:11Z</time>
      </trkpt>
      <trkpt lat="47.6538" lon="-2.759">
        <ele>5.7</ele>
        <time>2020-06-06T12:50:12Z</time>
      </trkpt>
      <trkpt lat="47.65377" lon="-2.75902">
        <ele>5.7</ele>
        <time>2020-06-06T12:50:13Z</time>
      </trkpt>
      <trkpt lat="47.65374" lon="-2.75905">
        <ele>5.8</ele>
        <time>2020-06-06T12:50:14Z</time>
      </trkpt>
      <trkpt lat="47.65373" lon="-2.75906">
        <ele>5.8</ele>
        <time>2020-06-06T12:50:15Z</time>
      </trkpt>
      <trkpt lat="47.65372" lon="-2.75908">
        <ele>5.8</ele>
        <time>2020-06-06T12:50:16Z</time>
      </trkpt>
      <trkpt lat="47.65372" lon="-2.7591">
        <ele>5.9</ele>
        <time>2020-06-06T12:50:17Z</time>
      </trkpt>
      <trkpt lat="47.65371" lon="-2.7591">
        <ele>5.9</ele>
        <time>2020-06-06T12:50:18Z</time>
      </trkpt>
      <trkpt lat="47.6537" lon="-2.75914">
        <ele>6</ele>
        <time>2020-06-06T12:50:19Z</time>
      </trkpt>
      <trkpt lat="47.65369" lon="-2.75915">
        <ele>6</ele>
        <time>2020-06-06T12:50:20Z</time>
      </trkpt>
      <trkpt lat="47.65368" lon="-2.75919">
        <ele>6.2</ele>
        <time>2020-06-06T12:50:21Z</time>
      </trkpt>
      <trkpt lat="47.65366" lon="-2.75924">
        <ele>6.2</ele>
        <time>2020-06-06T12:50:22Z</time>
      </trkpt>
      <trkpt lat="47.65366" lon="-2.75925">
        <ele>6.2</ele>
        <time>2020-06-06T12:50:23Z</time>
      </trkpt>
      <trkpt lat="47.65365" lon="-2.75929">
        <ele>6.3</ele>
        <time>2020-06-06T12:50:24Z</time>
      </trkpt>
      <trkpt lat="47.65364" lon="-2.75931">
        <ele>6.3</ele>
        <time>2020-06-06T12:50:25Z</time>
      </trkpt>
      <trkpt lat="47.65364" lon="-2.75933">
        <ele>6.3</ele>
        <time>2020-06-06T12:50:26Z</time>
      </trkpt>
      <trkpt lat="47.65362" lon="-2.75938">
        <ele>6.3</ele>
        <time>2020-06-06T12:50:27Z</time>
      </trkpt>
      <trkpt lat="47.65359" lon="-2.75942">
        <ele>6.3</ele>
        <time>2020-06-06T12:50:28Z</time>
      </trkpt>
      <trkpt lat="47.65357" lon="-2.75945">
        <ele>6.3</ele>
        <time>2020-06-06T12:50:29Z</time>
      </trkpt>
      <trkpt lat="47.65353" lon="-2.75948">
        <ele>6.3</ele>
        <time>2020-06-06T12:50:30Z</time>
      </trkpt>
      <trkpt lat="47.65349" lon="-2.75947">
        <ele>6.3</ele>
        <time>2020-06-06T12:50:31Z</time>
      </trkpt>
      <trkpt lat="47.65344" lon="-2.75946">
        <ele>6.2</ele>
        <time>2020-06-06T12:50:32Z</time>
      </trkpt>
      <trkpt lat="47.65339" lon="-2.75946">
        <ele>6.1</ele>
        <time>2020-06-06T12:50:33Z</time>
      </trkpt>
      <trkpt lat="47.65334" lon="-2.75946">
        <ele>6</ele>
        <time>2020-06-06T12:50:34Z</time>
      </trkpt>
      <trkpt lat="47.65327" lon="-2.75944">
        <ele>5.6</ele>
        <time>2020-06-06T12:50:35Z</time>
      </trkpt>
      <trkpt lat="47.65322" lon="-2.75944">
        <ele>5.5</ele>
        <time>2020-06-06T12:50:36Z</time>
      </trkpt>
      <trkpt lat="47.65318" lon="-2.7594">
        <ele>5.5</ele>
        <time>2020-06-06T12:50:37Z</time>
      </trkpt>
      <trkpt lat="47.65314" lon="-2.7594">
        <ele>5.4</ele>
        <time>2020-06-06T12:50:38Z</time>
      </trkpt>
      <trkpt lat="47.65313" lon="-2.7594">
        <ele>5.4</ele>
        <time>2020-06-06T12:50:39Z</time>
      </trkpt>
      <trkpt lat="47.65312" lon="-2.7594">
        <ele>5.4</ele>
        <time>2020-06-06T12:50:40Z</time>
      </trkpt>
      <trkpt lat="47.6531" lon="-2.75939">
        <ele>5.3</ele>
        <time>2020-06-06T12:50:41Z</time>
      </trkpt>
      <trkpt lat="47.65309" lon="-2.7594">
        <ele>5.3</ele>
        <time>2020-06-06T12:50:42Z</time>
      </trkpt>
      <trkpt lat="47.65309" lon="-2.75938">
        <ele>5.3</ele>
        <time>2020-06-06T12:50:43Z</time>
      </trkpt>
      <trkpt lat="47.6531" lon="-2.75939">
        <ele>5.3</ele>
        <time>2020-06-06T12:50:44Z</time>
      </trkpt>
      <trkpt lat="47.65311" lon="-2.7594">
        <ele>5.3</ele>
        <time>2020-06-06T12:50:45Z</time>
      </trkpt>
      <trkpt lat="47.65311" lon="-2.7594">
        <ele>5.2</ele>
        <time>2020-06-06T12:50:46Z</time>
      </trkpt>
      <trkpt lat="47.65313" lon="-2.75942">
        <ele>5.2</ele>
        <time>2020-06-06T12:50:47Z</time>
      </trkpt>
      <trkpt lat="47.65311" lon="-2.7594">
        <ele>5.2</ele>
        <time>2020-06-06T12:50:48Z</time>
      </trkpt>
      <trkpt lat="47.6531" lon="-2.7594">
        <ele>5.2</ele>
        <time>2020-06-06T12:50:49Z</time>
      </trkpt>
      <trkpt lat="47.65309" lon="-2.75939">
        <ele>5.2</ele>
        <time>2020-06-06T12:50:50Z</time>
      </trkpt>
      <trkpt lat="47.65308" lon="-2.75939">
        <ele>5.1</ele>
        <time>2020-06-06T12:50:51Z</time>
      </trkpt>
      <trkpt lat="47.65307" lon="-2.75938">
        <ele>5.1</ele>
        <time>2020-06-06T12:50:52Z</time>
      </trkpt>
      <trkpt lat="47.65306" lon="-2.75937">
        <ele>5.1</ele>
        <time>2020-06-06T12:50:53Z</time>
      </trkpt>
      <trkpt lat="47.65306" lon="-2.75937">
        <ele>5.1</ele>
        <time>2020-06-06T12:50:54Z</time>
      </trkpt>
      <trkpt lat="47.65305" lon="-2.75936">
        <ele>5.1</ele>
        <time>2020-06-06T12:50:55Z</time>
      </trkpt>
      <trkpt lat="47.65304" lon="-2.75936">
        <ele>5.1</ele>
        <time>2020-06-06T12:50:56Z</time>
      </trkpt>
      <trkpt lat="47.65303" lon="-2.75935">
        <ele>5</ele>
        <time>2020-06-06T12:50:57Z</time>
      </trkpt>
      <trkpt lat="47.65302" lon="-2.75935">
        <ele>5</ele>
        <time>2020-06-06T12:50:58Z</time>
      </trkpt>
      <trkpt lat="47.65301" lon="-2.75934">
        <ele>5</ele>
        <time>2020-06-06T12:51:25Z</time>
      </trkpt>
      <trkpt lat="47.653" lon="-2.75933">
        <ele>5</ele>
        <time>2020-06-06T12:51:26Z</time>
      </trkpt>
      <trkpt lat="47.65297" lon="-2.75931">
        <ele>4.9</ele>
        <time>2020-06-06T12:51:27Z</time>
      </trkpt>
      <trkpt lat="47.65293" lon="-2.75928">
        <ele>4.8</ele>
        <time>2020-06-06T12:51:28Z</time>
      </trkpt>
      <trkpt lat="47.65289" lon="-2.75925">
        <ele>4.7</ele>
        <time>2020-06-06T12:51:29Z</time>
      </trkpt>
      <trkpt lat="47.65286" lon="-2.75923">
        <ele>4.7</ele>
        <time>2020-06-06T12:51:30Z</time>
      </trkpt>
      <trkpt lat="47.65282" lon="-2.75922">
        <ele>4.6</ele>
        <time>2020-06-06T12:51:31Z</time>
      </trkpt>
      <trkpt lat="47.65277" lon="-2.7592">
        <ele>4.5</ele>
        <time>2020-06-06T12:51:32Z</time>
      </trkpt>
      <trkpt lat="47.65272" lon="-2.7592">
        <ele>4.6</ele>
        <time>2020-06-06T12:51:33Z</time>
      </trkpt>
      <trkpt lat="47.65268" lon="-2.75919">
        <ele>4.7</ele>
        <time>2020-06-06T12:51:34Z</time>
      </trkpt>
      <trkpt lat="47.65263" lon="-2.75919">
        <ele>4.8</ele>
        <time>2020-06-06T12:51:35Z</time>
      </trkpt>
      <trkpt lat="47.65258" lon="-2.75919">
        <ele>4.9</ele>
        <time>2020-06-06T12:51:36Z</time>
      </trkpt>
      <trkpt lat="47.65253" lon="-2.7592">
        <ele>5</ele>
        <time>2020-06-06T12:51:37Z</time>
      </trkpt>
      <trkpt lat="47.65248" lon="-2.75924">
        <ele>5</ele>
        <time>2020-06-06T12:51:38Z</time>
      </trkpt>
      <trkpt lat="47.65243" lon="-2.75923">
        <ele>4.9</ele>
        <time>2020-06-06T12:51:39Z</time>
      </trkpt>
      <trkpt lat="47.65239" lon="-2.75923">
        <ele>4.8</ele>
        <time>2020-06-06T12:51:40Z</time>
      </trkpt>
      <trkpt lat="47.65235" lon="-2.75926">
        <ele>4.7</ele>
        <time>2020-06-06T12:51:41Z</time>
      </trkpt>
      <trkpt lat="47.65231" lon="-2.75932">
        <ele>4.8</ele>
        <time>2020-06-06T12:51:42Z</time>
      </trkpt>
      <trkpt lat="47.65227" lon="-2.75932">
        <ele>4.9</ele>
        <time>2020-06-06T12:51:43Z</time>
      </trkpt>
      <trkpt lat="47.65222" lon="-2.75935">
        <ele>5.1</ele>
        <time>2020-06-06T12:51:44Z</time>
      </trkpt>
      <trkpt lat="47.65218" lon="-2.75939">
        <ele>5</ele>
        <time>2020-06-06T12:51:45Z</time>
      </trkpt>
      <trkpt lat="47.65213" lon="-2.75942">
        <ele>5</ele>
        <time>2020-06-06T12:51:46Z</time>
      </trkpt>
      <trkpt lat="47.65208" lon="-2.75945">
        <ele>4.9</ele>
        <time>2020-06-06T12:51:47Z</time>
      </trkpt>
      <trkpt lat="47.65203" lon="-2.75947">
        <ele>4.9</ele>
        <time>2020-06-06T12:51:48Z</time>
      </trkpt>
      <trkpt lat="47.65197" lon="-2.75946">
        <ele>4.8</ele>
        <time>2020-06-06T12:51:49Z</time>
      </trkpt>
      <trkpt lat="47.65192" lon="-2.75947">
        <ele>4.7</ele>
        <time>2020-06-06T12:51:50Z</time>
      </trkpt>
      <trkpt lat="47.65186" lon="-2.75947">
        <ele>4.7</ele>
        <time>2020-06-06T12:51:51Z</time>
      </trkpt>
      <trkpt lat="47.65181" lon="-2.75946">
        <ele>4.6</ele>
        <time>2020-06-06T12:51:52Z</time>
      </trkpt>
      <trkpt lat="47.65177" lon="-2.75945">
        <ele>4.6</ele>
        <time>2020-06-06T12:51:53Z</time>
      </trkpt>
      <trkpt lat="47.65173" lon="-2.75943">
        <ele>4.6</ele>
        <time>2020-06-06T12:51:54Z</time>
      </trkpt>
      <trkpt lat="47.6517" lon="-2.7594">
        <ele>4.6</ele>
        <time>2020-06-06T12:51:55Z</time>
      </trkpt>
      <trkpt lat="47.65166" lon="-2.75937">
        <ele>4.6</ele>
        <time>2020-06-06T12:51:56Z</time>
      </trkpt>
      <trkpt lat="47.65161" lon="-2.75934">
        <ele>4.6</ele>
        <time>2020-06-06T12:51:57Z</time>
      </trkpt>
      <trkpt lat="47.65158" lon="-2.75928">
        <ele>4.6</ele>
        <time>2020-06-06T12:51:58Z</time>
      </trkpt>
      <trkpt lat="47.65155" lon="-2.75925">
        <ele>4.6</ele>
        <time>2020-06-06T12:51:59Z</time>
      </trkpt>
      <trkpt lat="47.6515" lon="-2.75922">
        <ele>4.6</ele>
        <time>2020-06-06T12:52:00Z</time>
      </trkpt>
      <trkpt lat="47.65146" lon="-2.75919">
        <ele>4.6</ele>
        <time>2020-06-06T12:52:01Z</time>
      </trkpt>
      <trkpt lat="47.65142" lon="-2.75914">
        <ele>4.5</ele>
        <time>2020-06-06T12:52:02Z</time>
      </trkpt>
      <trkpt lat="47.65137" lon="-2.7591">
        <ele>4.5</ele>
        <time>2020-06-06T12:52:03Z</time>
      </trkpt>
      <trkpt lat="47.65131" lon="-2.75905">
        <ele>4.4</ele>
        <time>2020-06-06T12:52:04Z</time>
      </trkpt>
      <trkpt lat="47.65126" lon="-2.75903">
        <ele>4.4</ele>
        <time>2020-06-06T12:52:05Z</time>
      </trkpt>
      <trkpt lat="47.65119" lon="-2.75902">
        <ele>4.3</ele>
        <time>2020-06-06T12:52:06Z</time>
      </trkpt>
      <trkpt lat="47.65113" lon="-2.75903">
        <ele>4.3</ele>
        <time>2020-06-06T12:52:07Z</time>
      </trkpt>
      <trkpt lat="47.65107" lon="-2.75903">
        <ele>4.3</ele>
        <time>2020-06-06T12:52:08Z</time>
      </trkpt>
      <trkpt lat="47.65103" lon="-2.75901">
        <ele>4.3</ele>
        <time>2020-06-06T12:52:09Z</time>
      </trkpt>
      <trkpt lat="47.65097" lon="-2.75901">
        <ele>4.3</ele>
        <time>2020-06-06T12:52:10Z</time>
      </trkpt>
      <trkpt lat="47.65091" lon="-2.75899">
        <ele>4.4</ele>
        <time>2020-06-06T12:52:11Z</time>
      </trkpt>
      <trkpt lat="47.65085" lon="-2.75898">
        <ele>4.4</ele>
        <time>2020-06-06T12:52:12Z</time>
      </trkpt>
      <trkpt lat="47.65079" lon="-2.75898">
        <ele>4.4</ele>
        <time>2020-06-06T12:52:13Z</time>
      </trkpt>
      <trkpt lat="47.65073" lon="-2.75897">
        <ele>4.4</ele>
        <time>2020-06-06T12:52:14Z</time>
      </trkpt>
      <trkpt lat="47.65067" lon="-2.75896">
        <ele>4.4</ele>
        <time>2020-06-06T12:52:15Z</time>
      </trkpt>
      <trkpt lat="47.65062" lon="-2.75893">
        <ele>4.4</ele>
        <time>2020-06-06T12:52:16Z</time>
      </trkpt>
      <trkpt lat="47.65057" lon="-2.75891">
        <ele>4.4</ele>
        <time>2020-06-06T12:52:17Z</time>
      </trkpt>
      <trkpt lat="47.65052" lon="-2.75887">
        <ele>4.5</ele>
        <time>2020-06-06T12:52:18Z</time>
      </trkpt>
      <trkpt lat="47.65048" lon="-2.75885">
        <ele>4.5</ele>
        <time>2020-06-06T12:52:19Z</time>
      </trkpt>
      <trkpt lat="47.65043" lon="-2.75883">
        <ele>4.5</ele>
        <time>2020-06-06T12:52:20Z</time>
      </trkpt>
      <trkpt lat="47.65038" lon="-2.75882">
        <ele>4.5</ele>
        <time>2020-06-06T12:52:21Z</time>
      </trkpt>
      <trkpt lat="47.65034" lon="-2.75881">
        <ele>4.5</ele>
        <time>2020-06-06T12:52:22Z</time>
      </trkpt>
      <trkpt lat="47.65028" lon="-2.75881">
        <ele>4.5</ele>
        <time>2020-06-06T12:52:23Z</time>
      </trkpt>
      <trkpt lat="47.65023" lon="-2.75881">
        <ele>4.4</ele>
        <time>2020-06-06T12:52:24Z</time>
      </trkpt>
      <trkpt lat="47.65018" lon="-2.75881">
        <ele>4.4</ele>
        <time>2020-06-06T12:52:25Z</time>
      </trkpt>
      <trkpt lat="47.65012" lon="-2.75881">
        <ele>4.3</ele>
        <time>2020-06-06T12:52:26Z</time>
      </trkpt>
      <trkpt lat="47.65007" lon="-2.75881">
        <ele>4.3</ele>
        <time>2020-06-06T12:52:27Z</time>
      </trkpt>
      <trkpt lat="47.65002" lon="-2.75881">
        <ele>4.3</ele>
        <time>2020-06-06T12:52:28Z</time>
      </trkpt>
      <trkpt lat="47.64997" lon="-2.7588">
        <ele>4.3</ele>
        <time>2020-06-06T12:52:29Z</time>
      </trkpt>
      <trkpt lat="47.64993" lon="-2.7588">
        <ele>4.3</ele>
        <time>2020-06-06T12:52:30Z</time>
      </trkpt>
      <trkpt lat="47.64988" lon="-2.75879">
        <ele>4.3</ele>
        <time>2020-06-06T12:52:31Z</time>
      </trkpt>
      <trkpt lat="47.64983" lon="-2.75879">
        <ele>4.4</ele>
        <time>2020-06-06T12:52:32Z</time>
      </trkpt>
      <trkpt lat="47.64978" lon="-2.75878">
        <ele>4.4</ele>
        <time>2020-06-06T12:52:33Z</time>
      </trkpt>
      <trkpt lat="47.64973" lon="-2.75876">
        <ele>4.4</ele>
        <time>2020-06-06T12:52:34Z</time>
      </trkpt>
      <trkpt lat="47.64968" lon="-2.75875">
        <ele>4.4</ele>
        <time>2020-06-06T12:52:35Z</time>
      </trkpt>
      <trkpt lat="47.64962" lon="-2.75874">
        <ele>4.4</ele>
        <time>2020-06-06T12:52:36Z</time>
      </trkpt>
      <trkpt lat="47.64957" lon="-2.75874">
        <ele>4.5</ele>
        <time>2020-06-06T12:52:37Z</time>
      </trkpt>
      <trkpt lat="47.64952" lon="-2.75874">
        <ele>4.5</ele>
        <time>2020-06-06T12:52:38Z</time>
      </trkpt>
      <trkpt lat="47.64947" lon="-2.75874">
        <ele>4.5</ele>
        <time>2020-06-06T12:52:39Z</time>
      </trkpt>
      <trkpt lat="47.64942" lon="-2.75874">
        <ele>4.5</ele>
        <time>2020-06-06T12:52:40Z</time>
      </trkpt>
      <trkpt lat="47.64938" lon="-2.75874">
        <ele>4.5</ele>
        <time>2020-06-06T12:52:41Z</time>
      </trkpt>
      <trkpt lat="47.64932" lon="-2.75873">
        <ele>4.5</ele>
        <time>2020-06-06T12:52:42Z</time>
      </trkpt>
      <trkpt lat="47.64927" lon="-2.75872">
        <ele>4.5</ele>
        <time>2020-06-06T12:52:43Z</time>
      </trkpt>
      <trkpt lat="47.64922" lon="-2.75868">
        <ele>4.6</ele>
        <time>2020-06-06T12:52:44Z</time>
      </trkpt>
      <trkpt lat="47.64917" lon="-2.75866">
        <ele>4.6</ele>
        <time>2020-06-06T12:52:45Z</time>
      </trkpt>
      <trkpt lat="47.64911" lon="-2.75865">
        <ele>4.6</ele>
        <time>2020-06-06T12:52:46Z</time>
      </trkpt>
      <trkpt lat="47.64905" lon="-2.75865">
        <ele>4.6</ele>
        <time>2020-06-06T12:52:47Z</time>
      </trkpt>
      <trkpt lat="47.649" lon="-2.75863">
        <ele>4.6</ele>
        <time>2020-06-06T12:52:48Z</time>
      </trkpt>
      <trkpt lat="47.64894" lon="-2.75862">
        <ele>4.6</ele>
        <time>2020-06-06T12:52:49Z</time>
      </trkpt>
      <trkpt lat="47.64889" lon="-2.7586">
        <ele>4.7</ele>
        <time>2020-06-06T12:52:50Z</time>
      </trkpt>
      <trkpt lat="47.64883" lon="-2.75859">
        <ele>4.7</ele>
        <time>2020-06-06T12:52:51Z</time>
      </trkpt>
      <trkpt lat="47.64878" lon="-2.75859">
        <ele>4.8</ele>
        <time>2020-06-06T12:52:52Z</time>
      </trkpt>
      <trkpt lat="47.64874" lon="-2.7586">
        <ele>4.8</ele>
        <time>2020-06-06T12:52:53Z</time>
      </trkpt>
      <trkpt lat="47.64871" lon="-2.75857">
        <ele>4.9</ele>
        <time>2020-06-06T12:52:54Z</time>
      </trkpt>
      <trkpt lat="47.64865" lon="-2.75857">
        <ele>5</ele>
        <time>2020-06-06T12:52:55Z</time>
      </trkpt>
      <trkpt lat="47.6486" lon="-2.75857">
        <ele>5.2</ele>
        <time>2020-06-06T12:52:56Z</time>
      </trkpt>
      <trkpt lat="47.64854" lon="-2.75855">
        <ele>5.1</ele>
        <time>2020-06-06T12:52:57Z</time>
      </trkpt>
      <trkpt lat="47.64849" lon="-2.75854">
        <ele>5</ele>
        <time>2020-06-06T12:52:58Z</time>
      </trkpt>
      <trkpt lat="47.64845" lon="-2.75851">
        <ele>5</ele>
        <time>2020-06-06T12:52:59Z</time>
      </trkpt>
      <trkpt lat="47.6484" lon="-2.75851">
        <ele>4.9</ele>
        <time>2020-06-06T12:53:00Z</time>
      </trkpt>
      <trkpt lat="47.64834" lon="-2.75851">
        <ele>4.9</ele>
        <time>2020-06-06T12:53:01Z</time>
      </trkpt>
      <trkpt lat="47.64828" lon="-2.75852">
        <ele>4.9</ele>
        <time>2020-06-06T12:53:02Z</time>
      </trkpt>
      <trkpt lat="47.64822" lon="-2.75851">
        <ele>4.9</ele>
        <time>2020-06-06T12:53:03Z</time>
      </trkpt>
      <trkpt lat="47.64815" lon="-2.75852">
        <ele>4.9</ele>
        <time>2020-06-06T12:53:04Z</time>
      </trkpt>
      <trkpt lat="47.64809" lon="-2.75853">
        <ele>4.8</ele>
        <time>2020-06-06T12:53:05Z</time>
      </trkpt>
      <trkpt lat="47.64803" lon="-2.75853">
        <ele>4.8</ele>
        <time>2020-06-06T12:53:06Z</time>
      </trkpt>
      <trkpt lat="47.64797" lon="-2.75853">
        <ele>4.8</ele>
        <time>2020-06-06T12:53:07Z</time>
      </trkpt>
      <trkpt lat="47.6479" lon="-2.75853">
        <ele>4.8</ele>
        <time>2020-06-06T12:53:08Z</time>
      </trkpt>
      <trkpt lat="47.64785" lon="-2.75853">
        <ele>4.8</ele>
        <time>2020-06-06T12:53:09Z</time>
      </trkpt>
      <trkpt lat="47.64779" lon="-2.75852">
        <ele>4.8</ele>
        <time>2020-06-06T12:53:10Z</time>
      </trkpt>
      <trkpt lat="47.64773" lon="-2.75853">
        <ele>4.8</ele>
        <time>2020-06-06T12:53:11Z</time>
      </trkpt>
      <trkpt lat="47.64767" lon="-2.75855">
        <ele>4.8</ele>
        <time>2020-06-06T12:53:12Z</time>
      </trkpt>
      <trkpt lat="47.64761" lon="-2.75855">
        <ele>4.7</ele>
        <time>2020-06-06T12:53:13Z</time>
      </trkpt>
      <trkpt lat="47.64756" lon="-2.75856">
        <ele>4.7</ele>
        <time>2020-06-06T12:53:14Z</time>
      </trkpt>
      <trkpt lat="47.6475" lon="-2.75857">
        <ele>4.7</ele>
        <time>2020-06-06T12:53:15Z</time>
      </trkpt>
      <trkpt lat="47.64744" lon="-2.75858">
        <ele>4.7</ele>
        <time>2020-06-06T12:53:16Z</time>
      </trkpt>
      <trkpt lat="47.6474" lon="-2.7586">
        <ele>4.7</ele>
        <time>2020-06-06T12:53:17Z</time>
      </trkpt>
      <trkpt lat="47.64735" lon="-2.75862">
        <ele>4.7</ele>
        <time>2020-06-06T12:53:18Z</time>
      </trkpt>
      <trkpt lat="47.64731" lon="-2.75863">
        <ele>4.7</ele>
        <time>2020-06-06T12:53:19Z</time>
      </trkpt>
      <trkpt lat="47.64725" lon="-2.75865">
        <ele>4.6</ele>
        <time>2020-06-06T12:53:20Z</time>
      </trkpt>
      <trkpt lat="47.6472" lon="-2.75867">
        <ele>4.6</ele>
        <time>2020-06-06T12:53:21Z</time>
      </trkpt>
      <trkpt lat="47.64715" lon="-2.75871">
        <ele>4.6</ele>
        <time>2020-06-06T12:53:22Z</time>
      </trkpt>
      <trkpt lat="47.64709" lon="-2.75875">
        <ele>4.6</ele>
        <time>2020-06-06T12:53:23Z</time>
      </trkpt>
      <trkpt lat="47.64703" lon="-2.75879">
        <ele>4.7</ele>
        <time>2020-06-06T12:53:24Z</time>
      </trkpt>
      <trkpt lat="47.64698" lon="-2.75883">
        <ele>4.7</ele>
        <time>2020-06-06T12:53:25Z</time>
      </trkpt>
      <trkpt lat="47.64693" lon="-2.75887">
        <ele>4.7</ele>
        <time>2020-06-06T12:53:26Z</time>
      </trkpt>
      <trkpt lat="47.64687" lon="-2.75889">
        <ele>4.8</ele>
        <time>2020-06-06T12:53:27Z</time>
      </trkpt>
      <trkpt lat="47.64681" lon="-2.75894">
        <ele>4.8</ele>
        <time>2020-06-06T12:53:28Z</time>
      </trkpt>
      <trkpt lat="47.64676" lon="-2.75896">
        <ele>4.9</ele>
        <time>2020-06-06T12:53:29Z</time>
      </trkpt>
      <trkpt lat="47.64671" lon="-2.75898">
        <ele>5</ele>
        <time>2020-06-06T12:53:30Z</time>
      </trkpt>
      <trkpt lat="47.64665" lon="-2.759">
        <ele>5</ele>
        <time>2020-06-06T12:53:31Z</time>
      </trkpt>
      <trkpt lat="47.64659" lon="-2.75902">
        <ele>5.2</ele>
        <time>2020-06-06T12:53:32Z</time>
      </trkpt>
      <trkpt lat="47.64653" lon="-2.75905">
        <ele>5.1</ele>
        <time>2020-06-06T12:53:33Z</time>
      </trkpt>
      <trkpt lat="47.64647" lon="-2.75909">
        <ele>5</ele>
        <time>2020-06-06T12:53:34Z</time>
      </trkpt>
      <trkpt lat="47.64641" lon="-2.75911">
        <ele>5</ele>
        <time>2020-06-06T12:53:35Z</time>
      </trkpt>
      <trkpt lat="47.64636" lon="-2.75913">
        <ele>5</ele>
        <time>2020-06-06T12:53:36Z</time>
      </trkpt>
      <trkpt lat="47.64631" lon="-2.75916">
        <ele>5</ele>
        <time>2020-06-06T12:53:37Z</time>
      </trkpt>
      <trkpt lat="47.64626" lon="-2.75918">
        <ele>4.9</ele>
        <time>2020-06-06T12:53:38Z</time>
      </trkpt>
      <trkpt lat="47.64621" lon="-2.7592">
        <ele>4.9</ele>
        <time>2020-06-06T12:53:39Z</time>
      </trkpt>
      <trkpt lat="47.64616" lon="-2.75922">
        <ele>4.9</ele>
        <time>2020-06-06T12:53:40Z</time>
      </trkpt>
      <trkpt lat="47.6461" lon="-2.75924">
        <ele>4.9</ele>
        <time>2020-06-06T12:53:41Z</time>
      </trkpt>
      <trkpt lat="47.64604" lon="-2.75927">
        <ele>4.9</ele>
        <time>2020-06-06T12:53:42Z</time>
      </trkpt>
      <trkpt lat="47.64599" lon="-2.75929">
        <ele>4.9</ele>
        <time>2020-06-06T12:53:43Z</time>
      </trkpt>
      <trkpt lat="47.64594" lon="-2.75933">
        <ele>4.9</ele>
        <time>2020-06-06T12:53:44Z</time>
      </trkpt>
      <trkpt lat="47.64589" lon="-2.75935">
        <ele>4.9</ele>
        <time>2020-06-06T12:53:45Z</time>
      </trkpt>
      <trkpt lat="47.64584" lon="-2.75938">
        <ele>4.9</ele>
        <time>2020-06-06T12:53:46Z</time>
      </trkpt>
      <trkpt lat="47.64578" lon="-2.7594">
        <ele>4.9</ele>
        <time>2020-06-06T12:53:47Z</time>
      </trkpt>
      <trkpt lat="47.64572" lon="-2.75942">
        <ele>4.9</ele>
        <time>2020-06-06T12:53:48Z</time>
      </trkpt>
      <trkpt lat="47.64567" lon="-2.75945">
        <ele>4.9</ele>
        <time>2020-06-06T12:53:49Z</time>
      </trkpt>
      <trkpt lat="47.64561" lon="-2.75947">
        <ele>4.9</ele>
        <time>2020-06-06T12:53:50Z</time>
      </trkpt>
      <trkpt lat="47.64557" lon="-2.75947">
        <ele>4.8</ele>
        <time>2020-06-06T12:53:51Z</time>
      </trkpt>
      <trkpt lat="47.64553" lon="-2.75949">
        <ele>4.8</ele>
        <time>2020-06-06T12:53:52Z</time>
      </trkpt>
      <trkpt lat="47.64548" lon="-2.7595">
        <ele>4.8</ele>
        <time>2020-06-06T12:53:53Z</time>
      </trkpt>
      <trkpt lat="47.64543" lon="-2.75952">
        <ele>4.8</ele>
        <time>2020-06-06T12:53:54Z</time>
      </trkpt>
      <trkpt lat="47.64538" lon="-2.75955">
        <ele>4.7</ele>
        <time>2020-06-06T12:53:55Z</time>
      </trkpt>
      <trkpt lat="47.64533" lon="-2.75958">
        <ele>4.7</ele>
        <time>2020-06-06T12:53:56Z</time>
      </trkpt>
      <trkpt lat="47.64527" lon="-2.7596">
        <ele>4.7</ele>
        <time>2020-06-06T12:53:57Z</time>
      </trkpt>
      <trkpt lat="47.64522" lon="-2.75963">
        <ele>4.6</ele>
        <time>2020-06-06T12:53:58Z</time>
      </trkpt>
      <trkpt lat="47.64517" lon="-2.75967">
        <ele>4.5</ele>
        <time>2020-06-06T12:53:59Z</time>
      </trkpt>
      <trkpt lat="47.64511" lon="-2.75969">
        <ele>4.5</ele>
        <time>2020-06-06T12:54:00Z</time>
      </trkpt>
      <trkpt lat="47.64506" lon="-2.75972">
        <ele>4.4</ele>
        <time>2020-06-06T12:54:01Z</time>
      </trkpt>
      <trkpt lat="47.64501" lon="-2.75975">
        <ele>4.3</ele>
        <time>2020-06-06T12:54:02Z</time>
      </trkpt>
      <trkpt lat="47.64495" lon="-2.75978">
        <ele>4.3</ele>
        <time>2020-06-06T12:54:03Z</time>
      </trkpt>
      <trkpt lat="47.64489" lon="-2.75981">
        <ele>4.3</ele>
        <time>2020-06-06T12:54:04Z</time>
      </trkpt>
      <trkpt lat="47.64483" lon="-2.75986">
        <ele>4.4</ele>
        <time>2020-06-06T12:54:05Z</time>
      </trkpt>
      <trkpt lat="47.64478" lon="-2.7599">
        <ele>4.3</ele>
        <time>2020-06-06T12:54:06Z</time>
      </trkpt>
      <trkpt lat="47.64473" lon="-2.75995">
        <ele>4.2</ele>
        <time>2020-06-06T12:54:07Z</time>
      </trkpt>
      <trkpt lat="47.64468" lon="-2.75999">
        <ele>4.2</ele>
        <time>2020-06-06T12:54:08Z</time>
      </trkpt>
      <trkpt lat="47.64462" lon="-2.76003">
        <ele>4.1</ele>
        <time>2020-06-06T12:54:09Z</time>
      </trkpt>
      <trkpt lat="47.64456" lon="-2.76006">
        <ele>4.1</ele>
        <time>2020-06-06T12:54:10Z</time>
      </trkpt>
      <trkpt lat="47.6445" lon="-2.76007">
        <ele>4.1</ele>
        <time>2020-06-06T12:54:11Z</time>
      </trkpt>
      <trkpt lat="47.64445" lon="-2.7601">
        <ele>4.1</ele>
        <time>2020-06-06T12:54:12Z</time>
      </trkpt>
      <trkpt lat="47.64439" lon="-2.76012">
        <ele>4.1</ele>
        <time>2020-06-06T12:54:13Z</time>
      </trkpt>
      <trkpt lat="47.64434" lon="-2.76015">
        <ele>4.1</ele>
        <time>2020-06-06T12:54:14Z</time>
      </trkpt>
      <trkpt lat="47.64429" lon="-2.76017">
        <ele>4</ele>
        <time>2020-06-06T12:54:15Z</time>
      </trkpt>
      <trkpt lat="47.64424" lon="-2.7602">
        <ele>4</ele>
        <time>2020-06-06T12:54:16Z</time>
      </trkpt>
      <trkpt lat="47.64417" lon="-2.76023">
        <ele>3.9</ele>
        <time>2020-06-06T12:54:17Z</time>
      </trkpt>
      <trkpt lat="47.64412" lon="-2.76023">
        <ele>3.9</ele>
        <time>2020-06-06T12:54:18Z</time>
      </trkpt>
      <trkpt lat="47.64406" lon="-2.76025">
        <ele>3.9</ele>
        <time>2020-06-06T12:54:19Z</time>
      </trkpt>
      <trkpt lat="47.64399" lon="-2.76028">
        <ele>3.9</ele>
        <time>2020-06-06T12:54:20Z</time>
      </trkpt>
      <trkpt lat="47.64394" lon="-2.76033">
        <ele>3.9</ele>
        <time>2020-06-06T12:54:21Z</time>
      </trkpt>
      <trkpt lat="47.64388" lon="-2.76036">
        <ele>3.8</ele>
        <time>2020-06-06T12:54:22Z</time>
      </trkpt>
      <trkpt lat="47.64382" lon="-2.76039">
        <ele>3.8</ele>
        <time>2020-06-06T12:54:23Z</time>
      </trkpt>
      <trkpt lat="47.64377" lon="-2.76042">
        <ele>3.8</ele>
        <time>2020-06-06T12:54:24Z</time>
      </trkpt>
      <trkpt lat="47.64371" lon="-2.76046">
        <ele>3.8</ele>
        <time>2020-06-06T12:54:25Z</time>
      </trkpt>
      <trkpt lat="47.64366" lon="-2.76049">
        <ele>3.8</ele>
        <time>2020-06-06T12:54:26Z</time>
      </trkpt>
      <trkpt lat="47.64361" lon="-2.76051">
        <ele>3.8</ele>
        <time>2020-06-06T12:54:27Z</time>
      </trkpt>
      <trkpt lat="47.64355" lon="-2.76053">
        <ele>3.8</ele>
        <time>2020-06-06T12:54:28Z</time>
      </trkpt>
      <trkpt lat="47.64348" lon="-2.76057">
        <ele>3.8</ele>
        <time>2020-06-06T12:54:29Z</time>
      </trkpt>
      <trkpt lat="47.64343" lon="-2.7606">
        <ele>3.8</ele>
        <time>2020-06-06T12:54:30Z</time>
      </trkpt>
      <trkpt lat="47.64338" lon="-2.76063">
        <ele>3.8</ele>
        <time>2020-06-06T12:54:31Z</time>
      </trkpt>
      <trkpt lat="47.64333" lon="-2.76066">
        <ele>3.8</ele>
        <time>2020-06-06T12:54:32Z</time>
      </trkpt>
      <trkpt lat="47.64328" lon="-2.76069">
        <ele>3.8</ele>
        <time>2020-06-06T12:54:33Z</time>
      </trkpt>
      <trkpt lat="47.64322" lon="-2.76072">
        <ele>3.8</ele>
        <time>2020-06-06T12:54:34Z</time>
      </trkpt>
      <trkpt lat="47.64317" lon="-2.76075">
        <ele>3.8</ele>
        <time>2020-06-06T12:54:35Z</time>
      </trkpt>
      <trkpt lat="47.64311" lon="-2.76077">
        <ele>3.9</ele>
        <time>2020-06-06T12:54:36Z</time>
      </trkpt>
      <trkpt lat="47.64306" lon="-2.76079">
        <ele>3.9</ele>
        <time>2020-06-06T12:54:37Z</time>
      </trkpt>
      <trkpt lat="47.64299" lon="-2.76082">
        <ele>4</ele>
        <time>2020-06-06T12:54:38Z</time>
      </trkpt>
      <trkpt lat="47.64294" lon="-2.76085">
        <ele>4</ele>
        <time>2020-06-06T12:54:39Z</time>
      </trkpt>
      <trkpt lat="47.6429" lon="-2.76089">
        <ele>4</ele>
        <time>2020-06-06T12:54:40Z</time>
      </trkpt>
      <trkpt lat="47.64286" lon="-2.76091">
        <ele>3.9</ele>
        <time>2020-06-06T12:54:41Z</time>
      </trkpt>
      <trkpt lat="47.64283" lon="-2.76093">
        <ele>3.9</ele>
        <time>2020-06-06T12:54:42Z</time>
      </trkpt>
      <trkpt lat="47.64278" lon="-2.76095">
        <ele>3.9</ele>
        <time>2020-06-06T12:54:43Z</time>
      </trkpt>
      <trkpt lat="47.64273" lon="-2.76097">
        <ele>3.8</ele>
        <time>2020-06-06T12:54:44Z</time>
      </trkpt>
      <trkpt lat="47.64269" lon="-2.761">
        <ele>3.8</ele>
        <time>2020-06-06T12:54:45Z</time>
      </trkpt>
      <trkpt lat="47.64263" lon="-2.76102">
        <ele>3.8</ele>
        <time>2020-06-06T12:54:46Z</time>
      </trkpt>
      <trkpt lat="47.64258" lon="-2.76103">
        <ele>3.7</ele>
        <time>2020-06-06T12:54:47Z</time>
      </trkpt>
      <trkpt lat="47.64253" lon="-2.76106">
        <ele>3.7</ele>
        <time>2020-06-06T12:54:48Z</time>
      </trkpt>
      <trkpt lat="47.64247" lon="-2.76108">
        <ele>3.6</ele>
        <time>2020-06-06T12:54:49Z</time>
      </trkpt>
      <trkpt lat="47.64242" lon="-2.7611">
        <ele>3.6</ele>
        <time>2020-06-06T12:54:50Z</time>
      </trkpt>
      <trkpt lat="47.64237" lon="-2.76113">
        <ele>3.5</ele>
        <time>2020-06-06T12:54:51Z</time>
      </trkpt>
      <trkpt lat="47.64232" lon="-2.76116">
        <ele>3.5</ele>
        <time>2020-06-06T12:54:52Z</time>
      </trkpt>
      <trkpt lat="47.64227" lon="-2.76118">
        <ele>3.5</ele>
        <time>2020-06-06T12:54:53Z</time>
      </trkpt>
      <trkpt lat="47.64221" lon="-2.76122">
        <ele>3.4</ele>
        <time>2020-06-06T12:54:54Z</time>
      </trkpt>
      <trkpt lat="47.64215" lon="-2.76124">
        <ele>3.4</ele>
        <time>2020-06-06T12:54:55Z</time>
      </trkpt>
      <trkpt lat="47.64209" lon="-2.76127">
        <ele>3.3</ele>
        <time>2020-06-06T12:54:56Z</time>
      </trkpt>
      <trkpt lat="47.64203" lon="-2.76131">
        <ele>3.3</ele>
        <time>2020-06-06T12:54:57Z</time>
      </trkpt>
      <trkpt lat="47.64198" lon="-2.76135">
        <ele>3.2</ele>
        <time>2020-06-06T12:54:58Z</time>
      </trkpt>
      <trkpt lat="47.64192" lon="-2.76138">
        <ele>3.1</ele>
        <time>2020-06-06T12:54:59Z</time>
      </trkpt>
      <trkpt lat="47.64187" lon="-2.76141">
        <ele>3</ele>
        <time>2020-06-06T12:55:00Z</time>
      </trkpt>
      <trkpt lat="47.64182" lon="-2.76144">
        <ele>3</ele>
        <time>2020-06-06T12:55:01Z</time>
      </trkpt>
      <trkpt lat="47.64177" lon="-2.76148">
        <ele>2.9</ele>
        <time>2020-06-06T12:55:02Z</time>
      </trkpt>
      <trkpt lat="47.64171" lon="-2.76151">
        <ele>2.8</ele>
        <time>2020-06-06T12:55:03Z</time>
      </trkpt>
      <trkpt lat="47.64167" lon="-2.76155">
        <ele>2.8</ele>
        <time>2020-06-06T12:55:04Z</time>
      </trkpt>
      <trkpt lat="47.64162" lon="-2.76159">
        <ele>2.7</ele>
        <time>2020-06-06T12:55:05Z</time>
      </trkpt>
      <trkpt lat="47.64157" lon="-2.76163">
        <ele>2.7</ele>
        <time>2020-06-06T12:55:06Z</time>
      </trkpt>
      <trkpt lat="47.64152" lon="-2.76168">
        <ele>2.6</ele>
        <time>2020-06-06T12:55:07Z</time>
      </trkpt>
      <trkpt lat="47.64147" lon="-2.76173">
        <ele>2.5</ele>
        <time>2020-06-06T12:55:08Z</time>
      </trkpt>
      <trkpt lat="47.64142" lon="-2.76178">
        <ele>2.5</ele>
        <time>2020-06-06T12:55:09Z</time>
      </trkpt>
      <trkpt lat="47.64137" lon="-2.76182">
        <ele>2.5</ele>
        <time>2020-06-06T12:55:10Z</time>
      </trkpt>
      <trkpt lat="47.64133" lon="-2.76186">
        <ele>2.5</ele>
        <time>2020-06-06T12:55:11Z</time>
      </trkpt>
      <trkpt lat="47.64127" lon="-2.76189">
        <ele>2.5</ele>
        <time>2020-06-06T12:55:12Z</time>
      </trkpt>
      <trkpt lat="47.64123" lon="-2.76192">
        <ele>2.6</ele>
        <time>2020-06-06T12:55:13Z</time>
      </trkpt>
      <trkpt lat="47.64118" lon="-2.76195">
        <ele>2.7</ele>
        <time>2020-06-06T12:55:14Z</time>
      </trkpt>
      <trkpt lat="47.64114" lon="-2.76198">
        <ele>2.8</ele>
        <time>2020-06-06T12:55:15Z</time>
      </trkpt>
      <trkpt lat="47.6411" lon="-2.76201">
        <ele>2.9</ele>
        <time>2020-06-06T12:55:16Z</time>
      </trkpt>
      <trkpt lat="47.64105" lon="-2.76205">
        <ele>2.8</ele>
        <time>2020-06-06T12:55:17Z</time>
      </trkpt>
      <trkpt lat="47.64101" lon="-2.76207">
        <ele>2.7</ele>
        <time>2020-06-06T12:55:18Z</time>
      </trkpt>
      <trkpt lat="47.64096" lon="-2.7621">
        <ele>2.6</ele>
        <time>2020-06-06T12:55:19Z</time>
      </trkpt>
      <trkpt lat="47.64091" lon="-2.76212">
        <ele>2.6</ele>
        <time>2020-06-06T12:55:20Z</time>
      </trkpt>
      <trkpt lat="47.64088" lon="-2.76217">
        <ele>2.5</ele>
        <time>2020-06-06T12:55:21Z</time>
      </trkpt>
      <trkpt lat="47.64084" lon="-2.76221">
        <ele>2.5</ele>
        <time>2020-06-06T12:55:22Z</time>
      </trkpt>
      <trkpt lat="47.6408" lon="-2.76223">
        <ele>2.4</ele>
        <time>2020-06-06T12:55:23Z</time>
      </trkpt>
      <trkpt lat="47.64076" lon="-2.76226">
        <ele>2.4</ele>
        <time>2020-06-06T12:55:24Z</time>
      </trkpt>
      <trkpt lat="47.64072" lon="-2.76227">
        <ele>2.4</ele>
        <time>2020-06-06T12:55:25Z</time>
      </trkpt>
      <trkpt lat="47.64069" lon="-2.7623">
        <ele>2.5</ele>
        <time>2020-06-06T12:55:26Z</time>
      </trkpt>
      <trkpt lat="47.64065" lon="-2.76231">
        <ele>2.6</ele>
        <time>2020-06-06T12:55:27Z</time>
      </trkpt>
      <trkpt lat="47.64062" lon="-2.76231">
        <ele>2.6</ele>
        <time>2020-06-06T12:55:28Z</time>
      </trkpt>
      <trkpt lat="47.6406" lon="-2.76234">
        <ele>2.7</ele>
        <time>2020-06-06T12:55:29Z</time>
      </trkpt>
      <trkpt lat="47.64056" lon="-2.76235">
        <ele>2.8</ele>
        <time>2020-06-06T12:55:30Z</time>
      </trkpt>
      <trkpt lat="47.64053" lon="-2.76236">
        <ele>2.9</ele>
        <time>2020-06-06T12:55:31Z</time>
      </trkpt>
      <trkpt lat="47.64049" lon="-2.76237">
        <ele>3</ele>
        <time>2020-06-06T12:55:32Z</time>
      </trkpt>
      <trkpt lat="47.64046" lon="-2.76239">
        <ele>3</ele>
        <time>2020-06-06T12:55:33Z</time>
      </trkpt>
      <trkpt lat="47.64041" lon="-2.76239">
        <ele>3.1</ele>
        <time>2020-06-06T12:55:34Z</time>
      </trkpt>
      <trkpt lat="47.64038" lon="-2.76241">
        <ele>3.4</ele>
        <time>2020-06-06T12:55:35Z</time>
      </trkpt>
      <trkpt lat="47.64034" lon="-2.76245">
        <ele>3.6</ele>
        <time>2020-06-06T12:55:36Z</time>
      </trkpt>
      <trkpt lat="47.64031" lon="-2.76248">
        <ele>3.8</ele>
        <time>2020-06-06T12:55:37Z</time>
      </trkpt>
      <trkpt lat="47.64028" lon="-2.76252">
        <ele>4.1</ele>
        <time>2020-06-06T12:55:38Z</time>
      </trkpt>
      <trkpt lat="47.64026" lon="-2.76257">
        <ele>3.9</ele>
        <time>2020-06-06T12:55:39Z</time>
      </trkpt>
      <trkpt lat="47.64022" lon="-2.7626">
        <ele>3.7</ele>
        <time>2020-06-06T12:55:40Z</time>
      </trkpt>
      <trkpt lat="47.6402" lon="-2.76264">
        <ele>3.6</ele>
        <time>2020-06-06T12:55:41Z</time>
      </trkpt>
      <trkpt lat="47.64018" lon="-2.7627">
        <ele>3.5</ele>
        <time>2020-06-06T12:55:42Z</time>
      </trkpt>
      <trkpt lat="47.64016" lon="-2.76277">
        <ele>3.5</ele>
        <time>2020-06-06T12:55:43Z</time>
      </trkpt>
      <trkpt lat="47.64014" lon="-2.76284">
        <ele>3.5</ele>
        <time>2020-06-06T12:55:44Z</time>
      </trkpt>
      <trkpt lat="47.64012" lon="-2.7629">
        <ele>3.4</ele>
        <time>2020-06-06T12:55:45Z</time>
      </trkpt>
      <trkpt lat="47.64009" lon="-2.76296">
        <ele>3.4</ele>
        <time>2020-06-06T12:55:46Z</time>
      </trkpt>
      <trkpt lat="47.64007" lon="-2.76303">
        <ele>3.3</ele>
        <time>2020-06-06T12:55:47Z</time>
      </trkpt>
      <trkpt lat="47.64005" lon="-2.76309">
        <ele>3.2</ele>
        <time>2020-06-06T12:55:48Z</time>
      </trkpt>
      <trkpt lat="47.64003" lon="-2.76316">
        <ele>3.1</ele>
        <time>2020-06-06T12:55:49Z</time>
      </trkpt>
      <trkpt lat="47.64001" lon="-2.76323">
        <ele>3.1</ele>
        <time>2020-06-06T12:55:50Z</time>
      </trkpt>
      <trkpt lat="47.64" lon="-2.76328">
        <ele>3</ele>
        <time>2020-06-06T12:55:51Z</time>
      </trkpt>
      <trkpt lat="47.63997" lon="-2.76335">
        <ele>3</ele>
        <time>2020-06-06T12:55:52Z</time>
      </trkpt>
      <trkpt lat="47.63994" lon="-2.76342">
        <ele>3</ele>
        <time>2020-06-06T12:55:53Z</time>
      </trkpt>
      <trkpt lat="47.63991" lon="-2.76349">
        <ele>2.9</ele>
        <time>2020-06-06T12:55:54Z</time>
      </trkpt>
      <trkpt lat="47.63987" lon="-2.76357">
        <ele>2.9</ele>
        <time>2020-06-06T12:55:55Z</time>
      </trkpt>
      <trkpt lat="47.63984" lon="-2.76364">
        <ele>2.9</ele>
        <time>2020-06-06T12:55:56Z</time>
      </trkpt>
      <trkpt lat="47.63981" lon="-2.7637">
        <ele>2.8</ele>
        <time>2020-06-06T12:55:57Z</time>
      </trkpt>
      <trkpt lat="47.63977" lon="-2.76376">
        <ele>2.8</ele>
        <time>2020-06-06T12:55:58Z</time>
      </trkpt>
      <trkpt lat="47.63973" lon="-2.76381">
        <ele>2.8</ele>
        <time>2020-06-06T12:55:59Z</time>
      </trkpt>
      <trkpt lat="47.63969" lon="-2.76386">
        <ele>2.8</ele>
        <time>2020-06-06T12:56:00Z</time>
      </trkpt>
      <trkpt lat="47.63965" lon="-2.76391">
        <ele>2.8</ele>
        <time>2020-06-06T12:56:01Z</time>
      </trkpt>
      <trkpt lat="47.63961" lon="-2.76396">
        <ele>2.7</ele>
        <time>2020-06-06T12:56:02Z</time>
      </trkpt>
      <trkpt lat="47.63958" lon="-2.76402">
        <ele>2.7</ele>
        <time>2020-06-06T12:56:03Z</time>
      </trkpt>
      <trkpt lat="47.63955" lon="-2.76407">
        <ele>2.8</ele>
        <time>2020-06-06T12:56:04Z</time>
      </trkpt>
      <trkpt lat="47.63951" lon="-2.76411">
        <ele>2.8</ele>
        <time>2020-06-06T12:56:05Z</time>
      </trkpt>
      <trkpt lat="47.63947" lon="-2.76415">
        <ele>2.9</ele>
        <time>2020-06-06T12:56:06Z</time>
      </trkpt>
      <trkpt lat="47.63943" lon="-2.76421">
        <ele>2.9</ele>
        <time>2020-06-06T12:56:07Z</time>
      </trkpt>
      <trkpt lat="47.6394" lon="-2.76426">
        <ele>3</ele>
        <time>2020-06-06T12:56:08Z</time>
      </trkpt>
      <trkpt lat="47.63936" lon="-2.76431">
        <ele>3</ele>
        <time>2020-06-06T12:56:09Z</time>
      </trkpt>
      <trkpt lat="47.63931" lon="-2.76434">
        <ele>3</ele>
        <time>2020-06-06T12:56:10Z</time>
      </trkpt>
      <trkpt lat="47.63929" lon="-2.76439">
        <ele>3.1</ele>
        <time>2020-06-06T12:56:11Z</time>
      </trkpt>
      <trkpt lat="47.63925" lon="-2.76444">
        <ele>3.1</ele>
        <time>2020-06-06T12:56:12Z</time>
      </trkpt>
      <trkpt lat="47.63922" lon="-2.76449">
        <ele>3.2</ele>
        <time>2020-06-06T12:56:13Z</time>
      </trkpt>
      <trkpt lat="47.63919" lon="-2.76454">
        <ele>3.3</ele>
        <time>2020-06-06T12:56:14Z</time>
      </trkpt>
      <trkpt lat="47.63917" lon="-2.76459">
        <ele>3.4</ele>
        <time>2020-06-06T12:56:15Z</time>
      </trkpt>
      <trkpt lat="47.63912" lon="-2.76461">
        <ele>3.5</ele>
        <time>2020-06-06T12:56:16Z</time>
      </trkpt>
      <trkpt lat="47.63909" lon="-2.76465">
        <ele>3.6</ele>
        <time>2020-06-06T12:56:17Z</time>
      </trkpt>
      <trkpt lat="47.63905" lon="-2.76468">
        <ele>3.7</ele>
        <time>2020-06-06T12:56:18Z</time>
      </trkpt>
      <trkpt lat="47.63902" lon="-2.76471">
        <ele>3.8</ele>
        <time>2020-06-06T12:56:19Z</time>
      </trkpt>
      <trkpt lat="47.63898" lon="-2.76474">
        <ele>3.8</ele>
        <time>2020-06-06T12:56:20Z</time>
      </trkpt>
      <trkpt lat="47.63895" lon="-2.7648">
        <ele>3.8</ele>
        <time>2020-06-06T12:56:21Z</time>
      </trkpt>
      <trkpt lat="47.63891" lon="-2.76486">
        <ele>3.9</ele>
        <time>2020-06-06T12:56:22Z</time>
      </trkpt>
      <trkpt lat="47.63888" lon="-2.76492">
        <ele>4</ele>
        <time>2020-06-06T12:56:23Z</time>
      </trkpt>
      <trkpt lat="47.63885" lon="-2.76498">
        <ele>4</ele>
        <time>2020-06-06T12:56:24Z</time>
      </trkpt>
      <trkpt lat="47.63884" lon="-2.76505">
        <ele>4.1</ele>
        <time>2020-06-06T12:56:25Z</time>
      </trkpt>
      <trkpt lat="47.63883" lon="-2.76513">
        <ele>4.2</ele>
        <time>2020-06-06T12:56:26Z</time>
      </trkpt>
      <trkpt lat="47.63883" lon="-2.7652">
        <ele>4.3</ele>
        <time>2020-06-06T12:56:27Z</time>
      </trkpt>
      <trkpt lat="47.63884" lon="-2.76526">
        <ele>4.4</ele>
        <time>2020-06-06T12:56:28Z</time>
      </trkpt>
      <trkpt lat="47.63885" lon="-2.76533">
        <ele>4.5</ele>
        <time>2020-06-06T12:56:29Z</time>
      </trkpt>
      <trkpt lat="47.63885" lon="-2.7654">
        <ele>4.6</ele>
        <time>2020-06-06T12:56:30Z</time>
      </trkpt>
      <trkpt lat="47.63886" lon="-2.76547">
        <ele>4.7</ele>
        <time>2020-06-06T12:56:31Z</time>
      </trkpt>
      <trkpt lat="47.63887" lon="-2.76553">
        <ele>4.8</ele>
        <time>2020-06-06T12:56:32Z</time>
      </trkpt>
      <trkpt lat="47.63887" lon="-2.7656">
        <ele>4.8</ele>
        <time>2020-06-06T12:56:33Z</time>
      </trkpt>
      <trkpt lat="47.63887" lon="-2.76566">
        <ele>4.9</ele>
        <time>2020-06-06T12:56:34Z</time>
      </trkpt>
      <trkpt lat="47.63887" lon="-2.76571">
        <ele>5</ele>
        <time>2020-06-06T12:56:35Z</time>
      </trkpt>
      <trkpt lat="47.63887" lon="-2.76577">
        <ele>5</ele>
        <time>2020-06-06T12:56:36Z</time>
      </trkpt>
      <trkpt lat="47.63888" lon="-2.76584">
        <ele>5.1</ele>
        <time>2020-06-06T12:56:37Z</time>
      </trkpt>
      <trkpt lat="47.63889" lon="-2.7659">
        <ele>5.1</ele>
        <time>2020-06-06T12:56:38Z</time>
      </trkpt>
      <trkpt lat="47.63889" lon="-2.76596">
        <ele>5.1</ele>
        <time>2020-06-06T12:56:39Z</time>
      </trkpt>
      <trkpt lat="47.63888" lon="-2.76602">
        <ele>5.1</ele>
        <time>2020-06-06T12:56:40Z</time>
      </trkpt>
      <trkpt lat="47.63888" lon="-2.76608">
        <ele>5.1</ele>
        <time>2020-06-06T12:56:41Z</time>
      </trkpt>
      <trkpt lat="47.63888" lon="-2.76614">
        <ele>5.1</ele>
        <time>2020-06-06T12:56:42Z</time>
      </trkpt>
      <trkpt lat="47.63888" lon="-2.76619">
        <ele>5.1</ele>
        <time>2020-06-06T12:56:43Z</time>
      </trkpt>
      <trkpt lat="47.63888" lon="-2.76626">
        <ele>5</ele>
        <time>2020-06-06T12:56:44Z</time>
      </trkpt>
      <trkpt lat="47.63887" lon="-2.76632">
        <ele>5</ele>
        <time>2020-06-06T12:56:45Z</time>
      </trkpt>
      <trkpt lat="47.63887" lon="-2.76638">
        <ele>4.9</ele>
        <time>2020-06-06T12:56:46Z</time>
      </trkpt>
      <trkpt lat="47.63886" lon="-2.76643">
        <ele>4.9</ele>
        <time>2020-06-06T12:56:47Z</time>
      </trkpt>
      <trkpt lat="47.63886" lon="-2.76649">
        <ele>5</ele>
        <time>2020-06-06T12:56:48Z</time>
      </trkpt>
      <trkpt lat="47.63887" lon="-2.76657">
        <ele>5</ele>
        <time>2020-06-06T12:56:49Z</time>
      </trkpt>
      <trkpt lat="47.63887" lon="-2.76664">
        <ele>5</ele>
        <time>2020-06-06T12:56:50Z</time>
      </trkpt>
      <trkpt lat="47.63886" lon="-2.76671">
        <ele>4.9</ele>
        <time>2020-06-06T12:56:51Z</time>
      </trkpt>
      <trkpt lat="47.63885" lon="-2.76677">
        <ele>4.9</ele>
        <time>2020-06-06T12:56:52Z</time>
      </trkpt>
      <trkpt lat="47.63885" lon="-2.76683">
        <ele>4.9</ele>
        <time>2020-06-06T12:56:53Z</time>
      </trkpt>
      <trkpt lat="47.63885" lon="-2.7669">
        <ele>4.8</ele>
        <time>2020-06-06T12:56:54Z</time>
      </trkpt>
      <trkpt lat="47.63885" lon="-2.76697">
        <ele>4.8</ele>
        <time>2020-06-06T12:56:55Z</time>
      </trkpt>
      <trkpt lat="47.63884" lon="-2.76705">
        <ele>4.7</ele>
        <time>2020-06-06T12:56:56Z</time>
      </trkpt>
      <trkpt lat="47.63884" lon="-2.76712">
        <ele>4.7</ele>
        <time>2020-06-06T12:56:57Z</time>
      </trkpt>
      <trkpt lat="47.63883" lon="-2.7672">
        <ele>4.6</ele>
        <time>2020-06-06T12:56:58Z</time>
      </trkpt>
      <trkpt lat="47.63882" lon="-2.76726">
        <ele>4.6</ele>
        <time>2020-06-06T12:56:59Z</time>
      </trkpt>
      <trkpt lat="47.63882" lon="-2.76732">
        <ele>4.7</ele>
        <time>2020-06-06T12:57:00Z</time>
      </trkpt>
      <trkpt lat="47.63883" lon="-2.76738">
        <ele>4.9</ele>
        <time>2020-06-06T12:57:01Z</time>
      </trkpt>
      <trkpt lat="47.63884" lon="-2.76743">
        <ele>5</ele>
        <time>2020-06-06T12:57:02Z</time>
      </trkpt>
      <trkpt lat="47.63886" lon="-2.7675">
        <ele>4.9</ele>
        <time>2020-06-06T12:57:03Z</time>
      </trkpt>
      <trkpt lat="47.63884" lon="-2.76754">
        <ele>4.9</ele>
        <time>2020-06-06T12:57:04Z</time>
      </trkpt>
      <trkpt lat="47.63884" lon="-2.7676">
        <ele>4.8</ele>
        <time>2020-06-06T12:57:05Z</time>
      </trkpt>
      <trkpt lat="47.63881" lon="-2.76766">
        <ele>4.8</ele>
        <time>2020-06-06T12:57:06Z</time>
      </trkpt>
      <trkpt lat="47.63878" lon="-2.76772">
        <ele>4.9</ele>
        <time>2020-06-06T12:57:07Z</time>
      </trkpt>
      <trkpt lat="47.63875" lon="-2.76777">
        <ele>5.1</ele>
        <time>2020-06-06T12:57:08Z</time>
      </trkpt>
      <trkpt lat="47.6387" lon="-2.76779">
        <ele>5.2</ele>
        <time>2020-06-06T12:57:09Z</time>
      </trkpt>
      <trkpt lat="47.63865" lon="-2.76781">
        <ele>5.3</ele>
        <time>2020-06-06T12:57:10Z</time>
      </trkpt>
      <trkpt lat="47.6386" lon="-2.76783">
        <ele>5.3</ele>
        <time>2020-06-06T12:57:11Z</time>
      </trkpt>
      <trkpt lat="47.63856" lon="-2.76788">
        <ele>5.2</ele>
        <time>2020-06-06T12:57:12Z</time>
      </trkpt>
      <trkpt lat="47.63852" lon="-2.76792">
        <ele>5.1</ele>
        <time>2020-06-06T12:57:13Z</time>
      </trkpt>
      <trkpt lat="47.6385" lon="-2.76798">
        <ele>5.1</ele>
        <time>2020-06-06T12:57:14Z</time>
      </trkpt>
      <trkpt lat="47.63846" lon="-2.76805">
        <ele>5</ele>
        <time>2020-06-06T12:57:15Z</time>
      </trkpt>
      <trkpt lat="47.63841" lon="-2.76811">
        <ele>5.1</ele>
        <time>2020-06-06T12:57:16Z</time>
      </trkpt>
      <trkpt lat="47.63838" lon="-2.76818">
        <ele>5</ele>
        <time>2020-06-06T12:57:17Z</time>
      </trkpt>
      <trkpt lat="47.63834" lon="-2.76824">
        <ele>5</ele>
        <time>2020-06-06T12:57:18Z</time>
      </trkpt>
      <trkpt lat="47.6383" lon="-2.7683">
        <ele>5</ele>
        <time>2020-06-06T12:57:19Z</time>
      </trkpt>
      <trkpt lat="47.63826" lon="-2.76836">
        <ele>5</ele>
        <time>2020-06-06T12:57:20Z</time>
      </trkpt>
      <trkpt lat="47.63823" lon="-2.76843">
        <ele>5</ele>
        <time>2020-06-06T12:57:21Z</time>
      </trkpt>
      <trkpt lat="47.6382" lon="-2.7685">
        <ele>5.1</ele>
        <time>2020-06-06T12:57:22Z</time>
      </trkpt>
      <trkpt lat="47.63818" lon="-2.76857">
        <ele>5.2</ele>
        <time>2020-06-06T12:57:23Z</time>
      </trkpt>
      <trkpt lat="47.63816" lon="-2.76863">
        <ele>5.2</ele>
        <time>2020-06-06T12:57:24Z</time>
      </trkpt>
      <trkpt lat="47.63814" lon="-2.76869">
        <ele>5.3</ele>
        <time>2020-06-06T12:57:25Z</time>
      </trkpt>
      <trkpt lat="47.63812" lon="-2.76875">
        <ele>5.3</ele>
        <time>2020-06-06T12:57:26Z</time>
      </trkpt>
      <trkpt lat="47.6381" lon="-2.76882">
        <ele>5.4</ele>
        <time>2020-06-06T12:57:27Z</time>
      </trkpt>
      <trkpt lat="47.63809" lon="-2.76887">
        <ele>5.4</ele>
        <time>2020-06-06T12:57:28Z</time>
      </trkpt>
      <trkpt lat="47.63807" lon="-2.76891">
        <ele>5.4</ele>
        <time>2020-06-06T12:57:29Z</time>
      </trkpt>
      <trkpt lat="47.63805" lon="-2.76896">
        <ele>5.5</ele>
        <time>2020-06-06T12:57:30Z</time>
      </trkpt>
      <trkpt lat="47.63802" lon="-2.769">
        <ele>5.5</ele>
        <time>2020-06-06T12:57:31Z</time>
      </trkpt>
      <trkpt lat="47.638" lon="-2.76905">
        <ele>5.5</ele>
        <time>2020-06-06T12:57:32Z</time>
      </trkpt>
      <trkpt lat="47.63797" lon="-2.76909">
        <ele>5.5</ele>
        <time>2020-06-06T12:57:33Z</time>
      </trkpt>
      <trkpt lat="47.63795" lon="-2.76914">
        <ele>5.6</ele>
        <time>2020-06-06T12:57:34Z</time>
      </trkpt>
      <trkpt lat="47.63793" lon="-2.7692">
        <ele>5.6</ele>
        <time>2020-06-06T12:57:35Z</time>
      </trkpt>
      <trkpt lat="47.63792" lon="-2.76926">
        <ele>5.6</ele>
        <time>2020-06-06T12:57:36Z</time>
      </trkpt>
      <trkpt lat="47.6379" lon="-2.76932">
        <ele>5.7</ele>
        <time>2020-06-06T12:57:37Z</time>
      </trkpt>
      <trkpt lat="47.63789" lon="-2.76935">
        <ele>5.7</ele>
        <time>2020-06-06T12:57:38Z</time>
      </trkpt>
      <trkpt lat="47.63787" lon="-2.7694">
        <ele>5.7</ele>
        <time>2020-06-06T12:57:39Z</time>
      </trkpt>
      <trkpt lat="47.63785" lon="-2.76944">
        <ele>5.7</ele>
        <time>2020-06-06T12:57:40Z</time>
      </trkpt>
      <trkpt lat="47.63783" lon="-2.7695">
        <ele>5.8</ele>
        <time>2020-06-06T12:57:41Z</time>
      </trkpt>
      <trkpt lat="47.63781" lon="-2.76954">
        <ele>5.8</ele>
        <time>2020-06-06T12:57:42Z</time>
      </trkpt>
      <trkpt lat="47.63779" lon="-2.76959">
        <ele>5.8</ele>
        <time>2020-06-06T12:57:43Z</time>
      </trkpt>
      <trkpt lat="47.63777" lon="-2.76963">
        <ele>5.8</ele>
        <time>2020-06-06T12:57:44Z</time>
      </trkpt>
      <trkpt lat="47.63776" lon="-2.76968">
        <ele>5.8</ele>
        <time>2020-06-06T12:57:45Z</time>
      </trkpt>
      <trkpt lat="47.63774" lon="-2.76973">
        <ele>5.8</ele>
        <time>2020-06-06T12:57:46Z</time>
      </trkpt>
      <trkpt lat="47.63773" lon="-2.76979">
        <ele>5.7</ele>
        <time>2020-06-06T12:57:47Z</time>
      </trkpt>
      <trkpt lat="47.63771" lon="-2.76986">
        <ele>5.7</ele>
        <time>2020-06-06T12:57:48Z</time>
      </trkpt>
      <trkpt lat="47.63768" lon="-2.76991">
        <ele>5.7</ele>
        <time>2020-06-06T12:57:49Z</time>
      </trkpt>
      <trkpt lat="47.63766" lon="-2.76996">
        <ele>5.7</ele>
        <time>2020-06-06T12:57:50Z</time>
      </trkpt>
      <trkpt lat="47.63764" lon="-2.76999">
        <ele>5.7</ele>
        <time>2020-06-06T12:57:51Z</time>
      </trkpt>
      <trkpt lat="47.63762" lon="-2.77003">
        <ele>5.6</ele>
        <time>2020-06-06T12:57:52Z</time>
      </trkpt>
      <trkpt lat="47.63761" lon="-2.77008">
        <ele>5.6</ele>
        <time>2020-06-06T12:57:53Z</time>
      </trkpt>
      <trkpt lat="47.63759" lon="-2.77012">
        <ele>5.6</ele>
        <time>2020-06-06T12:57:54Z</time>
      </trkpt>
      <trkpt lat="47.63757" lon="-2.77016">
        <ele>5.6</ele>
        <time>2020-06-06T12:57:55Z</time>
      </trkpt>
      <trkpt lat="47.63755" lon="-2.77021">
        <ele>5.5</ele>
        <time>2020-06-06T12:57:56Z</time>
      </trkpt>
      <trkpt lat="47.63752" lon="-2.77026">
        <ele>5.5</ele>
        <time>2020-06-06T12:57:57Z</time>
      </trkpt>
      <trkpt lat="47.63749" lon="-2.77033">
        <ele>5.5</ele>
        <time>2020-06-06T12:57:58Z</time>
      </trkpt>
      <trkpt lat="47.63746" lon="-2.77037">
        <ele>5.5</ele>
        <time>2020-06-06T12:57:59Z</time>
      </trkpt>
      <trkpt lat="47.63743" lon="-2.77041">
        <ele>5.5</ele>
        <time>2020-06-06T12:58:00Z</time>
      </trkpt>
      <trkpt lat="47.6374" lon="-2.77045">
        <ele>5.5</ele>
        <time>2020-06-06T12:58:01Z</time>
      </trkpt>
      <trkpt lat="47.63737" lon="-2.77049">
        <ele>5.5</ele>
        <time>2020-06-06T12:58:02Z</time>
      </trkpt>
      <trkpt lat="47.63735" lon="-2.77052">
        <ele>5.5</ele>
        <time>2020-06-06T12:58:03Z</time>
      </trkpt>
      <trkpt lat="47.63732" lon="-2.77056">
        <ele>5.5</ele>
        <time>2020-06-06T12:58:04Z</time>
      </trkpt>
      <trkpt lat="47.63731" lon="-2.77062">
        <ele>5.5</ele>
        <time>2020-06-06T12:58:05Z</time>
      </trkpt>
      <trkpt lat="47.63728" lon="-2.77067">
        <ele>5.5</ele>
        <time>2020-06-06T12:58:06Z</time>
      </trkpt>
      <trkpt lat="47.63725" lon="-2.77071">
        <ele>5.5</ele>
        <time>2020-06-06T12:58:07Z</time>
      </trkpt>
      <trkpt lat="47.63723" lon="-2.77077">
        <ele>5.5</ele>
        <time>2020-06-06T12:58:08Z</time>
      </trkpt>
      <trkpt lat="47.6372" lon="-2.77081">
        <ele>5.5</ele>
        <time>2020-06-06T12:58:09Z</time>
      </trkpt>
      <trkpt lat="47.63717" lon="-2.77085">
        <ele>5.5</ele>
        <time>2020-06-06T12:58:10Z</time>
      </trkpt>
      <trkpt lat="47.63715" lon="-2.7709">
        <ele>5.5</ele>
        <time>2020-06-06T12:58:11Z</time>
      </trkpt>
      <trkpt lat="47.63712" lon="-2.77095">
        <ele>5.5</ele>
        <time>2020-06-06T12:58:12Z</time>
      </trkpt>
      <trkpt lat="47.63709" lon="-2.771">
        <ele>5.5</ele>
        <time>2020-06-06T12:58:13Z</time>
      </trkpt>
      <trkpt lat="47.63707" lon="-2.77105">
        <ele>5.5</ele>
        <time>2020-06-06T12:58:14Z</time>
      </trkpt>
      <trkpt lat="47.63704" lon="-2.7711">
        <ele>5.5</ele>
        <time>2020-06-06T12:58:15Z</time>
      </trkpt>
      <trkpt lat="47.63702" lon="-2.77115">
        <ele>5.6</ele>
        <time>2020-06-06T12:58:16Z</time>
      </trkpt>
      <trkpt lat="47.63699" lon="-2.7712">
        <ele>5.6</ele>
        <time>2020-06-06T12:58:17Z</time>
      </trkpt>
      <trkpt lat="47.63696" lon="-2.77126">
        <ele>5.7</ele>
        <time>2020-06-06T12:58:18Z</time>
      </trkpt>
      <trkpt lat="47.63693" lon="-2.7713">
        <ele>5.8</ele>
        <time>2020-06-06T12:58:19Z</time>
      </trkpt>
      <trkpt lat="47.6369" lon="-2.77133">
        <ele>5.8</ele>
        <time>2020-06-06T12:58:20Z</time>
      </trkpt>
      <trkpt lat="47.63688" lon="-2.77137">
        <ele>5.9</ele>
        <time>2020-06-06T12:58:21Z</time>
      </trkpt>
      <trkpt lat="47.63685" lon="-2.77141">
        <ele>6</ele>
        <time>2020-06-06T12:58:22Z</time>
      </trkpt>
      <trkpt lat="47.63682" lon="-2.77146">
        <ele>6</ele>
        <time>2020-06-06T12:58:23Z</time>
      </trkpt>
      <trkpt lat="47.6368" lon="-2.7715">
        <ele>6.1</ele>
        <time>2020-06-06T12:58:24Z</time>
      </trkpt>
      <trkpt lat="47.63676" lon="-2.77154">
        <ele>6.2</ele>
        <time>2020-06-06T12:58:25Z</time>
      </trkpt>
      <trkpt lat="47.63673" lon="-2.77159">
        <ele>6.4</ele>
        <time>2020-06-06T12:58:26Z</time>
      </trkpt>
      <trkpt lat="47.6367" lon="-2.77164">
        <ele>6.5</ele>
        <time>2020-06-06T12:58:27Z</time>
      </trkpt>
      <trkpt lat="47.63668" lon="-2.77169">
        <ele>6.6</ele>
        <time>2020-06-06T12:58:28Z</time>
      </trkpt>
      <trkpt lat="47.63666" lon="-2.77174">
        <ele>6.8</ele>
        <time>2020-06-06T12:58:29Z</time>
      </trkpt>
      <trkpt lat="47.63663" lon="-2.77178">
        <ele>6.9</ele>
        <time>2020-06-06T12:58:30Z</time>
      </trkpt>
      <trkpt lat="47.63661" lon="-2.77183">
        <ele>7</ele>
        <time>2020-06-06T12:58:31Z</time>
      </trkpt>
      <trkpt lat="47.63659" lon="-2.77187">
        <ele>7.2</ele>
        <time>2020-06-06T12:58:32Z</time>
      </trkpt>
      <trkpt lat="47.63657" lon="-2.77191">
        <ele>7.3</ele>
        <time>2020-06-06T12:58:33Z</time>
      </trkpt>
      <trkpt lat="47.63654" lon="-2.77197">
        <ele>7.5</ele>
        <time>2020-06-06T12:58:34Z</time>
      </trkpt>
      <trkpt lat="47.63652" lon="-2.77201">
        <ele>7.6</ele>
        <time>2020-06-06T12:58:35Z</time>
      </trkpt>
      <trkpt lat="47.6365" lon="-2.77206">
        <ele>7.7</ele>
        <time>2020-06-06T12:58:36Z</time>
      </trkpt>
      <trkpt lat="47.63648" lon="-2.7721">
        <ele>7.9</ele>
        <time>2020-06-06T12:58:37Z</time>
      </trkpt>
      <trkpt lat="47.63646" lon="-2.77214">
        <ele>8</ele>
        <time>2020-06-06T12:58:38Z</time>
      </trkpt>
      <trkpt lat="47.63643" lon="-2.77218">
        <ele>8.1</ele>
        <time>2020-06-06T12:58:39Z</time>
      </trkpt>
      <trkpt lat="47.63642" lon="-2.77221">
        <ele>8.1</ele>
        <time>2020-06-06T12:58:40Z</time>
      </trkpt>
      <trkpt lat="47.63638" lon="-2.77224">
        <ele>8.2</ele>
        <time>2020-06-06T12:58:41Z</time>
      </trkpt>
      <trkpt lat="47.63635" lon="-2.77227">
        <ele>8.4</ele>
        <time>2020-06-06T12:58:42Z</time>
      </trkpt>
      <trkpt lat="47.63632" lon="-2.77231">
        <ele>8.5</ele>
        <time>2020-06-06T12:58:43Z</time>
      </trkpt>
      <trkpt lat="47.6363" lon="-2.77234">
        <ele>8.6</ele>
        <time>2020-06-06T12:58:44Z</time>
      </trkpt>
      <trkpt lat="47.63627" lon="-2.77237">
        <ele>8.7</ele>
        <time>2020-06-06T12:58:45Z</time>
      </trkpt>
      <trkpt lat="47.63625" lon="-2.7724">
        <ele>8.8</ele>
        <time>2020-06-06T12:58:46Z</time>
      </trkpt>
      <trkpt lat="47.63622" lon="-2.77245">
        <ele>8.9</ele>
        <time>2020-06-06T12:58:47Z</time>
      </trkpt>
      <trkpt lat="47.6362" lon="-2.77248">
        <ele>9</ele>
        <time>2020-06-06T12:58:48Z</time>
      </trkpt>
      <trkpt lat="47.63618" lon="-2.77252">
        <ele>9.1</ele>
        <time>2020-06-06T12:58:49Z</time>
      </trkpt>
      <trkpt lat="47.63616" lon="-2.77256">
        <ele>9.2</ele>
        <time>2020-06-06T12:58:50Z</time>
      </trkpt>
      <trkpt lat="47.63614" lon="-2.7726">
        <ele>9.3</ele>
        <time>2020-06-06T12:58:51Z</time>
      </trkpt>
      <trkpt lat="47.63612" lon="-2.77265">
        <ele>9.4</ele>
        <time>2020-06-06T12:58:52Z</time>
      </trkpt>
      <trkpt lat="47.63611" lon="-2.7727">
        <ele>9.4</ele>
        <time>2020-06-06T12:58:53Z</time>
      </trkpt>
      <trkpt lat="47.63609" lon="-2.77275">
        <ele>9.5</ele>
        <time>2020-06-06T12:58:54Z</time>
      </trkpt>
      <trkpt lat="47.63608" lon="-2.77279">
        <ele>9.6</ele>
        <time>2020-06-06T12:58:55Z</time>
      </trkpt>
      <trkpt lat="47.63606" lon="-2.77283">
        <ele>9.7</ele>
        <time>2020-06-06T12:58:56Z</time>
      </trkpt>
      <trkpt lat="47.63603" lon="-2.77288">
        <ele>9.9</ele>
        <time>2020-06-06T12:58:57Z</time>
      </trkpt>
      <trkpt lat="47.63602" lon="-2.7729">
        <ele>10</ele>
        <time>2020-06-06T12:58:58Z</time>
      </trkpt>
      <trkpt lat="47.63599" lon="-2.77293">
        <ele>10.1</ele>
        <time>2020-06-06T12:58:59Z</time>
      </trkpt>
      <trkpt lat="47.63596" lon="-2.77296">
        <ele>10.2</ele>
        <time>2020-06-06T12:59:00Z</time>
      </trkpt>
      <trkpt lat="47.63595" lon="-2.77299">
        <ele>10.3</ele>
        <time>2020-06-06T12:59:01Z</time>
      </trkpt>
      <trkpt lat="47.63592" lon="-2.77304">
        <ele>10.5</ele>
        <time>2020-06-06T12:59:02Z</time>
      </trkpt>
      <trkpt lat="47.6359" lon="-2.77308">
        <ele>10.6</ele>
        <time>2020-06-06T12:59:03Z</time>
      </trkpt>
      <trkpt lat="47.63589" lon="-2.77313">
        <ele>10.8</ele>
        <time>2020-06-06T12:59:04Z</time>
      </trkpt>
      <trkpt lat="47.63586" lon="-2.77317">
        <ele>10.9</ele>
        <time>2020-06-06T12:59:05Z</time>
      </trkpt>
      <trkpt lat="47.63584" lon="-2.77321">
        <ele>11.2</ele>
        <time>2020-06-06T12:59:06Z</time>
      </trkpt>
      <trkpt lat="47.63583" lon="-2.77325">
        <ele>11.3</ele>
        <time>2020-06-06T12:59:07Z</time>
      </trkpt>
      <trkpt lat="47.6358" lon="-2.77329">
        <ele>11.4</ele>
        <time>2020-06-06T12:59:08Z</time>
      </trkpt>
      <trkpt lat="47.63577" lon="-2.77333">
        <ele>11.6</ele>
        <time>2020-06-06T12:59:09Z</time>
      </trkpt>
      <trkpt lat="47.63573" lon="-2.77338">
        <ele>11.7</ele>
        <time>2020-06-06T12:59:10Z</time>
      </trkpt>
      <trkpt lat="47.6357" lon="-2.77342">
        <ele>11.9</ele>
        <time>2020-06-06T12:59:11Z</time>
      </trkpt>
      <trkpt lat="47.63568" lon="-2.77346">
        <ele>12</ele>
        <time>2020-06-06T12:59:12Z</time>
      </trkpt>
      <trkpt lat="47.63567" lon="-2.77352">
        <ele>12.2</ele>
        <time>2020-06-06T12:59:13Z</time>
      </trkpt>
      <trkpt lat="47.63565" lon="-2.77356">
        <ele>12.3</ele>
        <time>2020-06-06T12:59:14Z</time>
      </trkpt>
      <trkpt lat="47.63562" lon="-2.77361">
        <ele>12.5</ele>
        <time>2020-06-06T12:59:15Z</time>
      </trkpt>
      <trkpt lat="47.63559" lon="-2.77365">
        <ele>12.6</ele>
        <time>2020-06-06T12:59:16Z</time>
      </trkpt>
      <trkpt lat="47.63557" lon="-2.7737">
        <ele>12.7</ele>
        <time>2020-06-06T12:59:17Z</time>
      </trkpt>
      <trkpt lat="47.63553" lon="-2.77372">
        <ele>12.9</ele>
        <time>2020-06-06T12:59:18Z</time>
      </trkpt>
      <trkpt lat="47.63552" lon="-2.77378">
        <ele>13</ele>
        <time>2020-06-06T12:59:19Z</time>
      </trkpt>
      <trkpt lat="47.63549" lon="-2.77383">
        <ele>13.1</ele>
        <time>2020-06-06T12:59:20Z</time>
      </trkpt>
      <trkpt lat="47.63546" lon="-2.77387">
        <ele>13.2</ele>
        <time>2020-06-06T12:59:21Z</time>
      </trkpt>
      <trkpt lat="47.63543" lon="-2.77392">
        <ele>13.3</ele>
        <time>2020-06-06T12:59:22Z</time>
      </trkpt>
      <trkpt lat="47.63541" lon="-2.77395">
        <ele>13.4</ele>
        <time>2020-06-06T12:59:23Z</time>
      </trkpt>
      <trkpt lat="47.63539" lon="-2.77399">
        <ele>13.5</ele>
        <time>2020-06-06T12:59:24Z</time>
      </trkpt>
      <trkpt lat="47.63539" lon="-2.77403">
        <ele>13.6</ele>
        <time>2020-06-06T12:59:25Z</time>
      </trkpt>
      <trkpt lat="47.63537" lon="-2.77407">
        <ele>13.7</ele>
        <time>2020-06-06T12:59:26Z</time>
      </trkpt>
      <trkpt lat="47.63534" lon="-2.77411">
        <ele>13.8</ele>
        <time>2020-06-06T12:59:27Z</time>
      </trkpt>
      <trkpt lat="47.63532" lon="-2.77415">
        <ele>13.8</ele>
        <time>2020-06-06T12:59:28Z</time>
      </trkpt>
      <trkpt lat="47.63529" lon="-2.77419">
        <ele>13.9</ele>
        <time>2020-06-06T12:59:29Z</time>
      </trkpt>
      <trkpt lat="47.63527" lon="-2.77423">
        <ele>14</ele>
        <time>2020-06-06T12:59:30Z</time>
      </trkpt>
      <trkpt lat="47.63526" lon="-2.7743">
        <ele>14</ele>
        <time>2020-06-06T12:59:31Z</time>
      </trkpt>
      <trkpt lat="47.63523" lon="-2.77435">
        <ele>14.1</ele>
        <time>2020-06-06T12:59:32Z</time>
      </trkpt>
      <trkpt lat="47.63519" lon="-2.7744">
        <ele>14.2</ele>
        <time>2020-06-06T12:59:33Z</time>
      </trkpt>
      <trkpt lat="47.63516" lon="-2.77445">
        <ele>14.2</ele>
        <time>2020-06-06T12:59:34Z</time>
      </trkpt>
      <trkpt lat="47.63513" lon="-2.77449">
        <ele>14.3</ele>
        <time>2020-06-06T12:59:35Z</time>
      </trkpt>
      <trkpt lat="47.63511" lon="-2.77453">
        <ele>14.4</ele>
        <time>2020-06-06T12:59:36Z</time>
      </trkpt>
      <trkpt lat="47.63508" lon="-2.77457">
        <ele>14.4</ele>
        <time>2020-06-06T12:59:37Z</time>
      </trkpt>
      <trkpt lat="47.63507" lon="-2.77461">
        <ele>14.4</ele>
        <time>2020-06-06T12:59:38Z</time>
      </trkpt>
      <trkpt lat="47.63506" lon="-2.77466">
        <ele>14.5</ele>
        <time>2020-06-06T12:59:39Z</time>
      </trkpt>
      <trkpt lat="47.63506" lon="-2.77467">
        <ele>14.5</ele>
        <time>2020-06-06T12:59:40Z</time>
      </trkpt>
      <trkpt lat="47.63503" lon="-2.77471">
        <ele>14.6</ele>
        <time>2020-06-06T12:59:41Z</time>
      </trkpt>
      <trkpt lat="47.63502" lon="-2.77472">
        <ele>14.6</ele>
        <time>2020-06-06T12:59:42Z</time>
      </trkpt>
      <trkpt lat="47.63498" lon="-2.77474">
        <ele>14.6</ele>
        <time>2020-06-06T12:59:43Z</time>
      </trkpt>
      <trkpt lat="47.63497" lon="-2.77474">
        <ele>14.6</ele>
        <time>2020-06-06T12:59:44Z</time>
      </trkpt>
      <trkpt lat="47.63495" lon="-2.77477">
        <ele>14.6</ele>
        <time>2020-06-06T12:59:45Z</time>
      </trkpt>
      <trkpt lat="47.63494" lon="-2.77478">
        <ele>14.6</ele>
        <time>2020-06-06T12:59:46Z</time>
      </trkpt>
      <trkpt lat="47.63493" lon="-2.7748">
        <ele>14.6</ele>
        <time>2020-06-06T12:59:47Z</time>
      </trkpt>
      <trkpt lat="47.63492" lon="-2.77481">
        <ele>14.6</ele>
        <time>2020-06-06T12:59:48Z</time>
      </trkpt>
      <trkpt lat="47.63492" lon="-2.77481">
        <ele>14.6</ele>
        <time>2020-06-06T12:59:49Z</time>
      </trkpt>
      <trkpt lat="47.63491" lon="-2.77484">
        <ele>14.6</ele>
        <time>2020-06-06T12:59:50Z</time>
      </trkpt>
      <trkpt lat="47.6349" lon="-2.77482">
        <ele>14.6</ele>
        <time>2020-06-06T12:59:51Z</time>
      </trkpt>
      <trkpt lat="47.6349" lon="-2.77482">
        <ele>14.6</ele>
        <time>2020-06-06T12:59:52Z</time>
      </trkpt>
      <trkpt lat="47.6349" lon="-2.77482">
        <ele>14.6</ele>
        <time>2020-06-06T12:59:53Z</time>
      </trkpt>
      <trkpt lat="47.6349" lon="-2.77483">
        <ele>14.6</ele>
        <time>2020-06-06T12:59:54Z</time>
      </trkpt>
      <trkpt lat="47.6349" lon="-2.77485">
        <ele>14.6</ele>
        <time>2020-06-06T12:59:55Z</time>
      </trkpt>
      <trkpt lat="47.6349" lon="-2.77485">
        <ele>14.7</ele>
        <time>2020-06-06T12:59:56Z</time>
      </trkpt>
      <trkpt lat="47.6349" lon="-2.77486">
        <ele>14.7</ele>
        <time>2020-06-06T12:59:57Z</time>
      </trkpt>
      <trkpt lat="47.6349" lon="-2.77487">
        <ele>14.7</ele>
        <time>2020-06-06T12:59:58Z</time>
      </trkpt>
      <trkpt lat="47.6349" lon="-2.77486">
        <ele>14.7</ele>
        <time>2020-06-06T12:59:59Z</time>
      </trkpt>
      <trkpt lat="47.63489" lon="-2.77486">
        <ele>14.7</ele>
        <time>2020-06-06T13:00:00Z</time>
      </trkpt>
      <trkpt lat="47.63489" lon="-2.77485">
        <ele>14.7</ele>
        <time>2020-06-06T13:00:01Z</time>
      </trkpt>
      <trkpt lat="47.63489" lon="-2.77484">
        <ele>14.7</ele>
        <time>2020-06-06T13:00:02Z</time>
      </trkpt>
      <trkpt lat="47.63488" lon="-2.77483">
        <ele>14.7</ele>
        <time>2020-06-06T13:00:03Z</time>
      </trkpt>
      <trkpt lat="47.63488" lon="-2.77483">
        <ele>14.7</ele>
        <time>2020-06-06T13:00:04Z</time>
      </trkpt>
      <trkpt lat="47.63488" lon="-2.77483">
        <ele>14.7</ele>
        <time>2020-06-06T13:00:05Z</time>
      </trkpt>
      <trkpt lat="47.63487" lon="-2.77483">
        <ele>14.7</ele>
        <time>2020-06-06T13:00:06Z</time>
      </trkpt>
      <trkpt lat="47.63487" lon="-2.77482">
        <ele>14.7</ele>
        <time>2020-06-06T13:00:07Z</time>
      </trkpt>
      <trkpt lat="47.63487" lon="-2.77483">
        <ele>14.7</ele>
        <time>2020-06-06T13:00:08Z</time>
      </trkpt>
      <trkpt lat="47.63488" lon="-2.77484">
        <ele>14.7</ele>
        <time>2020-06-06T13:00:09Z</time>
      </trkpt>
      <trkpt lat="47.63488" lon="-2.77485">
        <ele>14.7</ele>
        <time>2020-06-06T13:00:10Z</time>
      </trkpt>
      <trkpt lat="47.63487" lon="-2.77483">
        <ele>14.7</ele>
        <time>2020-06-06T13:00:11Z</time>
      </trkpt>
      <trkpt lat="47.63487" lon="-2.77483">
        <ele>14.7</ele>
        <time>2020-06-06T13:00:12Z</time>
      </trkpt>
      <trkpt lat="47.63486" lon="-2.77484">
        <ele>14.7</ele>
        <time>2020-06-06T13:00:13Z</time>
      </trkpt>
      <trkpt lat="47.63484" lon="-2.77485">
        <ele>14.7</ele>
        <time>2020-06-06T13:00:14Z</time>
      </trkpt>
      <trkpt lat="47.63484" lon="-2.77484">
        <ele>14.7</ele>
        <time>2020-06-06T13:00:15Z</time>
      </trkpt>
      <trkpt lat="47.63485" lon="-2.77482">
        <ele>14.8</ele>
        <time>2020-06-06T13:00:16Z</time>
      </trkpt>
      <trkpt lat="47.63486" lon="-2.7748">
        <ele>14.8</ele>
        <time>2020-06-06T13:00:17Z</time>
      </trkpt>
      <trkpt lat="47.6348" lon="-2.77484">
        <ele>14.8</ele>
        <time>2020-06-06T13:00:53Z</time>
      </trkpt>
      <trkpt lat="47.63478" lon="-2.77487">
        <ele>14.8</ele>
        <time>2020-06-06T13:00:54Z</time>
      </trkpt>
      <trkpt lat="47.63474" lon="-2.77491">
        <ele>14.9</ele>
        <time>2020-06-06T13:00:55Z</time>
      </trkpt>
      <trkpt lat="47.63471" lon="-2.77495">
        <ele>14.9</ele>
        <time>2020-06-06T13:00:56Z</time>
      </trkpt>
      <trkpt lat="47.63467" lon="-2.775">
        <ele>15</ele>
        <time>2020-06-06T13:00:57Z</time>
      </trkpt>
      <trkpt lat="47.63464" lon="-2.77504">
        <ele>15</ele>
        <time>2020-06-06T13:00:58Z</time>
      </trkpt>
      <trkpt lat="47.6346" lon="-2.77508">
        <ele>15</ele>
        <time>2020-06-06T13:00:59Z</time>
      </trkpt>
      <trkpt lat="47.63456" lon="-2.77512">
        <ele>15.1</ele>
        <time>2020-06-06T13:01:00Z</time>
      </trkpt>
      <trkpt lat="47.63452" lon="-2.77516">
        <ele>15.1</ele>
        <time>2020-06-06T13:01:01Z</time>
      </trkpt>
      <trkpt lat="47.63447" lon="-2.7752">
        <ele>15.1</ele>
        <time>2020-06-06T13:01:02Z</time>
      </trkpt>
      <trkpt lat="47.63444" lon="-2.77524">
        <ele>15.1</ele>
        <time>2020-06-06T13:01:03Z</time>
      </trkpt>
      <trkpt lat="47.63441" lon="-2.77528">
        <ele>15.2</ele>
        <time>2020-06-06T13:01:04Z</time>
      </trkpt>
      <trkpt lat="47.63438" lon="-2.77531">
        <ele>15.2</ele>
        <time>2020-06-06T13:01:05Z</time>
      </trkpt>
      <trkpt lat="47.63434" lon="-2.77535">
        <ele>15.3</ele>
        <time>2020-06-06T13:01:06Z</time>
      </trkpt>
      <trkpt lat="47.63432" lon="-2.77539">
        <ele>15.3</ele>
        <time>2020-06-06T13:01:07Z</time>
      </trkpt>
      <trkpt lat="47.63429" lon="-2.77542">
        <ele>15.3</ele>
        <time>2020-06-06T13:01:08Z</time>
      </trkpt>
      <trkpt lat="47.63426" lon="-2.77546">
        <ele>15.4</ele>
        <time>2020-06-06T13:01:09Z</time>
      </trkpt>
      <trkpt lat="47.63424" lon="-2.77549">
        <ele>15.4</ele>
        <time>2020-06-06T13:01:10Z</time>
      </trkpt>
      <trkpt lat="47.63422" lon="-2.77553">
        <ele>15.4</ele>
        <time>2020-06-06T13:01:11Z</time>
      </trkpt>
      <trkpt lat="47.63421" lon="-2.77556">
        <ele>15.5</ele>
        <time>2020-06-06T13:01:12Z</time>
      </trkpt>
      <trkpt lat="47.63419" lon="-2.77559">
        <ele>15.5</ele>
        <time>2020-06-06T13:01:13Z</time>
      </trkpt>
      <trkpt lat="47.63416" lon="-2.77564">
        <ele>15.5</ele>
        <time>2020-06-06T13:01:14Z</time>
      </trkpt>
      <trkpt lat="47.63414" lon="-2.77565">
        <ele>15.5</ele>
        <time>2020-06-06T13:01:15Z</time>
      </trkpt>
      <trkpt lat="47.63412" lon="-2.77569">
        <ele>15.5</ele>
        <time>2020-06-06T13:01:16Z</time>
      </trkpt>
      <trkpt lat="47.63411" lon="-2.77571">
        <ele>15.5</ele>
        <time>2020-06-06T13:01:17Z</time>
      </trkpt>
      <trkpt lat="47.63409" lon="-2.77574">
        <ele>15.5</ele>
        <time>2020-06-06T13:01:18Z</time>
      </trkpt>
      <trkpt lat="47.63406" lon="-2.77576">
        <ele>15.5</ele>
        <time>2020-06-06T13:01:19Z</time>
      </trkpt>
      <trkpt lat="47.63406" lon="-2.77578">
        <ele>15.5</ele>
        <time>2020-06-06T13:01:20Z</time>
      </trkpt>
      <trkpt lat="47.63404" lon="-2.77583">
        <ele>15.5</ele>
        <time>2020-06-06T13:01:21Z</time>
      </trkpt>
      <trkpt lat="47.63403" lon="-2.77584">
        <ele>15.5</ele>
        <time>2020-06-06T13:01:22Z</time>
      </trkpt>
      <trkpt lat="47.63401" lon="-2.77588">
        <ele>15.5</ele>
        <time>2020-06-06T13:01:23Z</time>
      </trkpt>
      <trkpt lat="47.63399" lon="-2.77593">
        <ele>15.4</ele>
        <time>2020-06-06T13:01:24Z</time>
      </trkpt>
      <trkpt lat="47.63399" lon="-2.77594">
        <ele>15.4</ele>
        <time>2020-06-06T13:01:25Z</time>
      </trkpt>
      <trkpt lat="47.63398" lon="-2.77598">
        <ele>15.3</ele>
        <time>2020-06-06T13:01:26Z</time>
      </trkpt>
      <trkpt lat="47.63395" lon="-2.77603">
        <ele>15.2</ele>
        <time>2020-06-06T13:01:27Z</time>
      </trkpt>
      <trkpt lat="47.63394" lon="-2.77605">
        <ele>15.2</ele>
        <time>2020-06-06T13:01:28Z</time>
      </trkpt>
      <trkpt lat="47.63393" lon="-2.77609">
        <ele>15.1</ele>
        <time>2020-06-06T13:01:29Z</time>
      </trkpt>
      <trkpt lat="47.6339" lon="-2.77612">
        <ele>15</ele>
        <time>2020-06-06T13:01:30Z</time>
      </trkpt>
      <trkpt lat="47.63387" lon="-2.77617">
        <ele>14.8</ele>
        <time>2020-06-06T13:01:31Z</time>
      </trkpt>
      <trkpt lat="47.63384" lon="-2.77621">
        <ele>14.6</ele>
        <time>2020-06-06T13:01:32Z</time>
      </trkpt>
      <trkpt lat="47.63381" lon="-2.77625">
        <ele>14.4</ele>
        <time>2020-06-06T13:01:33Z</time>
      </trkpt>
      <trkpt lat="47.63378" lon="-2.7763">
        <ele>14.2</ele>
        <time>2020-06-06T13:01:34Z</time>
      </trkpt>
      <trkpt lat="47.63374" lon="-2.77635">
        <ele>13.8</ele>
        <time>2020-06-06T13:01:35Z</time>
      </trkpt>
      <trkpt lat="47.63371" lon="-2.7764">
        <ele>13.5</ele>
        <time>2020-06-06T13:01:36Z</time>
      </trkpt>
      <trkpt lat="47.63368" lon="-2.77647">
        <ele>13.2</ele>
        <time>2020-06-06T13:01:37Z</time>
      </trkpt>
      <trkpt lat="47.63364" lon="-2.77654">
        <ele>12.7</ele>
        <time>2020-06-06T13:01:38Z</time>
      </trkpt>
      <trkpt lat="47.63361" lon="-2.77662">
        <ele>12.3</ele>
        <time>2020-06-06T13:01:39Z</time>
      </trkpt>
      <trkpt lat="47.63357" lon="-2.77671">
        <ele>11.8</ele>
        <time>2020-06-06T13:01:40Z</time>
      </trkpt>
      <trkpt lat="47.63352" lon="-2.77679">
        <ele>11.3</ele>
        <time>2020-06-06T13:01:41Z</time>
      </trkpt>
      <trkpt lat="47.63347" lon="-2.77688">
        <ele>10.8</ele>
        <time>2020-06-06T13:01:42Z</time>
      </trkpt>
      <trkpt lat="47.63342" lon="-2.77698">
        <ele>10.2</ele>
        <time>2020-06-06T13:01:43Z</time>
      </trkpt>
      <trkpt lat="47.63337" lon="-2.7771">
        <ele>9.5</ele>
        <time>2020-06-06T13:01:44Z</time>
      </trkpt>
      <trkpt lat="47.63334" lon="-2.77719">
        <ele>9</ele>
        <time>2020-06-06T13:01:45Z</time>
      </trkpt>
      <trkpt lat="47.63331" lon="-2.77729">
        <ele>8.5</ele>
        <time>2020-06-06T13:01:46Z</time>
      </trkpt>
      <trkpt lat="47.63329" lon="-2.7774">
        <ele>8</ele>
        <time>2020-06-06T13:01:47Z</time>
      </trkpt>
      <trkpt lat="47.63326" lon="-2.77752">
        <ele>7.5</ele>
        <time>2020-06-06T13:01:48Z</time>
      </trkpt>
      <trkpt lat="47.63324" lon="-2.77763">
        <ele>6.9</ele>
        <time>2020-06-06T13:01:49Z</time>
      </trkpt>
      <trkpt lat="47.63321" lon="-2.77775">
        <ele>6.4</ele>
        <time>2020-06-06T13:01:50Z</time>
      </trkpt>
      <trkpt lat="47.63318" lon="-2.77788">
        <ele>6</ele>
        <time>2020-06-06T13:01:51Z</time>
      </trkpt>
      <trkpt lat="47.63316" lon="-2.77801">
        <ele>5.5</ele>
        <time>2020-06-06T13:01:52Z</time>
      </trkpt>
      <trkpt lat="47.63315" lon="-2.77813">
        <ele>5.1</ele>
        <time>2020-06-06T13:01:53Z</time>
      </trkpt>
      <trkpt lat="47.63313" lon="-2.77825">
        <ele>4.7</ele>
        <time>2020-06-06T13:01:54Z</time>
      </trkpt>
      <trkpt lat="47.63311" lon="-2.77837">
        <ele>4.4</ele>
        <time>2020-06-06T13:01:55Z</time>
      </trkpt>
      <trkpt lat="47.6331" lon="-2.77849">
        <ele>4.1</ele>
        <time>2020-06-06T13:01:56Z</time>
      </trkpt>
      <trkpt lat="47.6331" lon="-2.77861">
        <ele>3.9</ele>
        <time>2020-06-06T13:01:57Z</time>
      </trkpt>
      <trkpt lat="47.63309" lon="-2.77873">
        <ele>3.7</ele>
        <time>2020-06-06T13:01:58Z</time>
      </trkpt>
      <trkpt lat="47.6331" lon="-2.77885">
        <ele>3.5</ele>
        <time>2020-06-06T13:01:59Z</time>
      </trkpt>
      <trkpt lat="47.63311" lon="-2.77896">
        <ele>3.4</ele>
        <time>2020-06-06T13:02:00Z</time>
      </trkpt>
      <trkpt lat="47.63311" lon="-2.77907">
        <ele>3.2</ele>
        <time>2020-06-06T13:02:01Z</time>
      </trkpt>
      <trkpt lat="47.63312" lon="-2.77919">
        <ele>3.1</ele>
        <time>2020-06-06T13:02:02Z</time>
      </trkpt>
      <trkpt lat="47.63313" lon="-2.77929">
        <ele>3</ele>
        <time>2020-06-06T13:02:03Z</time>
      </trkpt>
      <trkpt lat="47.63313" lon="-2.7794">
        <ele>2.9</ele>
        <time>2020-06-06T13:02:04Z</time>
      </trkpt>
      <trkpt lat="47.63313" lon="-2.7795">
        <ele>2.8</ele>
        <time>2020-06-06T13:02:05Z</time>
      </trkpt>
      <trkpt lat="47.63311" lon="-2.7796">
        <ele>2.8</ele>
        <time>2020-06-06T13:02:06Z</time>
      </trkpt>
      <trkpt lat="47.63309" lon="-2.77969">
        <ele>2.8</ele>
        <time>2020-06-06T13:02:07Z</time>
      </trkpt>
      <trkpt lat="47.63306" lon="-2.77977">
        <ele>2.8</ele>
        <time>2020-06-06T13:02:08Z</time>
      </trkpt>
      <trkpt lat="47.63303" lon="-2.77984">
        <ele>2.8</ele>
        <time>2020-06-06T13:02:09Z</time>
      </trkpt>
      <trkpt lat="47.633" lon="-2.77991">
        <ele>2.9</ele>
        <time>2020-06-06T13:02:10Z</time>
      </trkpt>
      <trkpt lat="47.63297" lon="-2.77997">
        <ele>2.9</ele>
        <time>2020-06-06T13:02:11Z</time>
      </trkpt>
      <trkpt lat="47.63293" lon="-2.78003">
        <ele>2.9</ele>
        <time>2020-06-06T13:02:12Z</time>
      </trkpt>
      <trkpt lat="47.63289" lon="-2.78009">
        <ele>2.9</ele>
        <time>2020-06-06T13:02:13Z</time>
      </trkpt>
      <trkpt lat="47.63285" lon="-2.78016">
        <ele>2.9</ele>
        <time>2020-06-06T13:02:14Z</time>
      </trkpt>
      <trkpt lat="47.63281" lon="-2.78022">
        <ele>2.9</ele>
        <time>2020-06-06T13:02:15Z</time>
      </trkpt>
      <trkpt lat="47.63277" lon="-2.78028">
        <ele>3</ele>
        <time>2020-06-06T13:02:16Z</time>
      </trkpt>
      <trkpt lat="47.63273" lon="-2.78034">
        <ele>3</ele>
        <time>2020-06-06T13:02:17Z</time>
      </trkpt>
      <trkpt lat="47.63269" lon="-2.7804">
        <ele>3.1</ele>
        <time>2020-06-06T13:02:18Z</time>
      </trkpt>
      <trkpt lat="47.63265" lon="-2.78046">
        <ele>3.1</ele>
        <time>2020-06-06T13:02:19Z</time>
      </trkpt>
      <trkpt lat="47.63262" lon="-2.78052">
        <ele>3.2</ele>
        <time>2020-06-06T13:02:20Z</time>
      </trkpt>
      <trkpt lat="47.63258" lon="-2.78057">
        <ele>3.2</ele>
        <time>2020-06-06T13:02:21Z</time>
      </trkpt>
      <trkpt lat="47.63255" lon="-2.78062">
        <ele>3.2</ele>
        <time>2020-06-06T13:02:22Z</time>
      </trkpt>
      <trkpt lat="47.63251" lon="-2.78066">
        <ele>3.2</ele>
        <time>2020-06-06T13:02:23Z</time>
      </trkpt>
      <trkpt lat="47.63246" lon="-2.7807">
        <ele>3.2</ele>
        <time>2020-06-06T13:02:24Z</time>
      </trkpt>
      <trkpt lat="47.63242" lon="-2.78073">
        <ele>3.2</ele>
        <time>2020-06-06T13:02:25Z</time>
      </trkpt>
      <trkpt lat="47.63238" lon="-2.78075">
        <ele>3.2</ele>
        <time>2020-06-06T13:02:26Z</time>
      </trkpt>
      <trkpt lat="47.63234" lon="-2.78077">
        <ele>3.2</ele>
        <time>2020-06-06T13:02:27Z</time>
      </trkpt>
      <trkpt lat="47.6323" lon="-2.78078">
        <ele>3.2</ele>
        <time>2020-06-06T13:02:28Z</time>
      </trkpt>
      <trkpt lat="47.63228" lon="-2.7808">
        <ele>3.2</ele>
        <time>2020-06-06T13:02:29Z</time>
      </trkpt>
      <trkpt lat="47.63226" lon="-2.78081">
        <ele>3.1</ele>
        <time>2020-06-06T13:02:30Z</time>
      </trkpt>
      <trkpt lat="47.63225" lon="-2.7808">
        <ele>3.1</ele>
        <time>2020-06-06T13:02:31Z</time>
      </trkpt>
      <trkpt lat="47.63226" lon="-2.7808">
        <ele>3.1</ele>
        <time>2020-06-06T13:02:32Z</time>
      </trkpt>
      <trkpt lat="47.63227" lon="-2.78081">
        <ele>3.1</ele>
        <time>2020-06-06T13:02:33Z</time>
      </trkpt>
      <trkpt lat="47.63227" lon="-2.78082">
        <ele>3.1</ele>
        <time>2020-06-06T13:02:34Z</time>
      </trkpt>
      <trkpt lat="47.63227" lon="-2.78082">
        <ele>3.1</ele>
        <time>2020-06-06T13:02:35Z</time>
      </trkpt>
      <trkpt lat="47.63227" lon="-2.78082">
        <ele>3.1</ele>
        <time>2020-06-06T13:02:36Z</time>
      </trkpt>
      <trkpt lat="47.63228" lon="-2.78083">
        <ele>3.1</ele>
        <time>2020-06-06T13:02:37Z</time>
      </trkpt>
      <trkpt lat="47.63228" lon="-2.78083">
        <ele>3.1</ele>
        <time>2020-06-06T13:02:38Z</time>
      </trkpt>
      <trkpt lat="47.63228" lon="-2.78083">
        <ele>3.1</ele>
        <time>2020-06-06T13:02:39Z</time>
      </trkpt>
      <trkpt lat="47.63227" lon="-2.78082">
        <ele>3.1</ele>
        <time>2020-06-06T13:02:40Z</time>
      </trkpt>
      <trkpt lat="47.63227" lon="-2.78083">
        <ele>3.1</ele>
        <time>2020-06-06T13:02:41Z</time>
      </trkpt>
      <trkpt lat="47.63235" lon="-2.78079">
        <ele>3.2</ele>
        <time>2020-06-06T13:03:12Z</time>
      </trkpt>
      <trkpt lat="47.63235" lon="-2.78079">
        <ele>3.2</ele>
        <time>2020-06-06T13:03:13Z</time>
      </trkpt>
      <trkpt lat="47.63236" lon="-2.78079">
        <ele>3.2</ele>
        <time>2020-06-06T13:03:14Z</time>
      </trkpt>
      <trkpt lat="47.63236" lon="-2.78079">
        <ele>3.2</ele>
        <time>2020-06-06T13:03:15Z</time>
      </trkpt>
      <trkpt lat="47.63236" lon="-2.7808">
        <ele>3.2</ele>
        <time>2020-06-06T13:03:16Z</time>
      </trkpt>
      <trkpt lat="47.63236" lon="-2.7808">
        <ele>3.2</ele>
        <time>2020-06-06T13:03:17Z</time>
      </trkpt>
      <trkpt lat="47.63237" lon="-2.78079">
        <ele>3.2</ele>
        <time>2020-06-06T13:03:18Z</time>
      </trkpt>
      <trkpt lat="47.63237" lon="-2.78078">
        <ele>3.2</ele>
        <time>2020-06-06T13:03:19Z</time>
      </trkpt>
      <trkpt lat="47.63237" lon="-2.78078">
        <ele>3.2</ele>
        <time>2020-06-06T13:03:20Z</time>
      </trkpt>
      <trkpt lat="47.63237" lon="-2.78078">
        <ele>3.2</ele>
        <time>2020-06-06T13:03:21Z</time>
      </trkpt>
      <trkpt lat="47.63237" lon="-2.78079">
        <ele>3.2</ele>
        <time>2020-06-06T13:03:22Z</time>
      </trkpt>
      <trkpt lat="47.63238" lon="-2.78078">
        <ele>3.2</ele>
        <time>2020-06-06T13:03:23Z</time>
      </trkpt>
      <trkpt lat="47.63238" lon="-2.78079">
        <ele>3.2</ele>
        <time>2020-06-06T13:03:24Z</time>
      </trkpt>
      <trkpt lat="47.63238" lon="-2.78079">
        <ele>3.2</ele>
        <time>2020-06-06T13:03:25Z</time>
      </trkpt>
      <trkpt lat="47.63238" lon="-2.78079">
        <ele>3.2</ele>
        <time>2020-06-06T13:03:26Z</time>
      </trkpt>
      <trkpt lat="47.63239" lon="-2.78079">
        <ele>3.2</ele>
        <time>2020-06-06T13:03:27Z</time>
      </trkpt>
      <trkpt lat="47.6324" lon="-2.78078">
        <ele>3.2</ele>
        <time>2020-06-06T13:03:28Z</time>
      </trkpt>
      <trkpt lat="47.6324" lon="-2.78079">
        <ele>3.2</ele>
        <time>2020-06-06T13:03:29Z</time>
      </trkpt>
      <trkpt lat="47.63241" lon="-2.78078">
        <ele>3.2</ele>
        <time>2020-06-06T13:03:30Z</time>
      </trkpt>
      <trkpt lat="47.63241" lon="-2.78078">
        <ele>3.2</ele>
        <time>2020-06-06T13:03:31Z</time>
      </trkpt>
      <trkpt lat="47.63241" lon="-2.78078">
        <ele>3.2</ele>
        <time>2020-06-06T13:08:48Z</time>
      </trkpt>
      <trkpt lat="47.63241" lon="-2.78078">
        <ele>3.2</ele>
        <time>2020-06-06T13:08:49Z</time>
      </trkpt>
      <trkpt lat="47.63241" lon="-2.78078">
        <ele>3.2</ele>
        <time>2020-06-06T13:08:50Z</time>
      </trkpt>
      <trkpt lat="47.63242" lon="-2.78078">
        <ele>3.2</ele>
        <time>2020-06-06T13:08:51Z</time>
      </trkpt>
      <trkpt lat="47.63242" lon="-2.78078">
        <ele>3.2</ele>
        <time>2020-06-06T13:08:52Z</time>
      </trkpt>
      <trkpt lat="47.63242" lon="-2.78078">
        <ele>3.2</ele>
        <time>2020-06-06T13:08:53Z</time>
      </trkpt>
      <trkpt lat="47.63242" lon="-2.78078">
        <ele>3.2</ele>
        <time>2020-06-06T13:08:54Z</time>
      </trkpt>
      <trkpt lat="47.63242" lon="-2.78078">
        <ele>3.2</ele>
        <time>2020-06-06T13:08:55Z</time>
      </trkpt>
      <trkpt lat="47.63242" lon="-2.78078">
        <ele>3.2</ele>
        <time>2020-06-06T13:08:56Z</time>
      </trkpt>
      <trkpt lat="47.63243" lon="-2.78078">
        <ele>3.2</ele>
        <time>2020-06-06T13:08:57Z</time>
      </trkpt>
      <trkpt lat="47.63243" lon="-2.78078">
        <ele>3.2</ele>
        <time>2020-06-06T13:08:58Z</time>
      </trkpt>
      <trkpt lat="47.63243" lon="-2.78078">
        <ele>3.2</ele>
        <time>2020-06-06T13:09:07Z</time>
      </trkpt>
      <trkpt lat="47.63243" lon="-2.78078">
        <ele>3.2</ele>
        <time>2020-06-06T13:09:08Z</time>
      </trkpt>
      <trkpt lat="47.63246" lon="-2.78073">
        <ele>3.2</ele>
        <time>2020-06-06T13:09:09Z</time>
      </trkpt>
      <trkpt lat="47.63246" lon="-2.78071">
        <ele>3.2</ele>
        <time>2020-06-06T13:09:10Z</time>
      </trkpt>
      <trkpt lat="47.63249" lon="-2.78068">
        <ele>3.2</ele>
        <time>2020-06-06T13:09:11Z</time>
      </trkpt>
      <trkpt lat="47.63252" lon="-2.78065">
        <ele>3.2</ele>
        <time>2020-06-06T13:09:12Z</time>
      </trkpt>
      <trkpt lat="47.63255" lon="-2.78062">
        <ele>3.2</ele>
        <time>2020-06-06T13:09:13Z</time>
      </trkpt>
      <trkpt lat="47.63258" lon="-2.78058">
        <ele>3.2</ele>
        <time>2020-06-06T13:09:14Z</time>
      </trkpt>
      <trkpt lat="47.6326" lon="-2.78052">
        <ele>3.2</ele>
        <time>2020-06-06T13:09:15Z</time>
      </trkpt>
      <trkpt lat="47.63263" lon="-2.78047">
        <ele>3.1</ele>
        <time>2020-06-06T13:09:16Z</time>
      </trkpt>
      <trkpt lat="47.63266" lon="-2.78043">
        <ele>3.1</ele>
        <time>2020-06-06T13:09:17Z</time>
      </trkpt>
      <trkpt lat="47.63269" lon="-2.78039">
        <ele>3.1</ele>
        <time>2020-06-06T13:09:18Z</time>
      </trkpt>
      <trkpt lat="47.63271" lon="-2.78034">
        <ele>3.1</ele>
        <time>2020-06-06T13:09:19Z</time>
      </trkpt>
      <trkpt lat="47.63274" lon="-2.7803">
        <ele>3</ele>
        <time>2020-06-06T13:09:20Z</time>
      </trkpt>
      <trkpt lat="47.63277" lon="-2.78026">
        <ele>3</ele>
        <time>2020-06-06T13:09:21Z</time>
      </trkpt>
      <trkpt lat="47.6328" lon="-2.78022">
        <ele>3</ele>
        <time>2020-06-06T13:09:22Z</time>
      </trkpt>
      <trkpt lat="47.63282" lon="-2.78017">
        <ele>2.9</ele>
        <time>2020-06-06T13:09:23Z</time>
      </trkpt>
      <trkpt lat="47.63285" lon="-2.78011">
        <ele>2.9</ele>
        <time>2020-06-06T13:09:24Z</time>
      </trkpt>
      <trkpt lat="47.63287" lon="-2.78006">
        <ele>2.9</ele>
        <time>2020-06-06T13:09:25Z</time>
      </trkpt>
      <trkpt lat="47.63288" lon="-2.78">
        <ele>2.9</ele>
        <time>2020-06-06T13:09:26Z</time>
      </trkpt>
      <trkpt lat="47.6329" lon="-2.77995">
        <ele>2.9</ele>
        <time>2020-06-06T13:09:27Z</time>
      </trkpt>
      <trkpt lat="47.63292" lon="-2.77989">
        <ele>2.9</ele>
        <time>2020-06-06T13:09:28Z</time>
      </trkpt>
      <trkpt lat="47.63295" lon="-2.77985">
        <ele>2.9</ele>
        <time>2020-06-06T13:09:29Z</time>
      </trkpt>
      <trkpt lat="47.63297" lon="-2.77979">
        <ele>2.8</ele>
        <time>2020-06-06T13:09:30Z</time>
      </trkpt>
      <trkpt lat="47.633" lon="-2.77974">
        <ele>2.8</ele>
        <time>2020-06-06T13:09:31Z</time>
      </trkpt>
      <trkpt lat="47.63302" lon="-2.77968">
        <ele>2.8</ele>
        <time>2020-06-06T13:09:32Z</time>
      </trkpt>
      <trkpt lat="47.63303" lon="-2.77962">
        <ele>2.8</ele>
        <time>2020-06-06T13:09:33Z</time>
      </trkpt>
      <trkpt lat="47.63305" lon="-2.77955">
        <ele>2.8</ele>
        <time>2020-06-06T13:09:34Z</time>
      </trkpt>
      <trkpt lat="47.63306" lon="-2.77949">
        <ele>2.8</ele>
        <time>2020-06-06T13:09:35Z</time>
      </trkpt>
      <trkpt lat="47.63307" lon="-2.77943">
        <ele>2.8</ele>
        <time>2020-06-06T13:09:36Z</time>
      </trkpt>
      <trkpt lat="47.63307" lon="-2.77936">
        <ele>2.9</ele>
        <time>2020-06-06T13:09:37Z</time>
      </trkpt>
      <trkpt lat="47.63306" lon="-2.77929">
        <ele>3</ele>
        <time>2020-06-06T13:09:38Z</time>
      </trkpt>
      <trkpt lat="47.63305" lon="-2.77922">
        <ele>3</ele>
        <time>2020-06-06T13:09:39Z</time>
      </trkpt>
      <trkpt lat="47.63305" lon="-2.77915">
        <ele>3.1</ele>
        <time>2020-06-06T13:09:40Z</time>
      </trkpt>
      <trkpt lat="47.63304" lon="-2.77908">
        <ele>3.2</ele>
        <time>2020-06-06T13:09:41Z</time>
      </trkpt>
      <trkpt lat="47.63303" lon="-2.77902">
        <ele>3.3</ele>
        <time>2020-06-06T13:09:42Z</time>
      </trkpt>
      <trkpt lat="47.63303" lon="-2.77896">
        <ele>3.4</ele>
        <time>2020-06-06T13:09:43Z</time>
      </trkpt>
      <trkpt lat="47.63302" lon="-2.77889">
        <ele>3.5</ele>
        <time>2020-06-06T13:09:44Z</time>
      </trkpt>
      <trkpt lat="47.63302" lon="-2.77883">
        <ele>3.6</ele>
        <time>2020-06-06T13:09:45Z</time>
      </trkpt>
      <trkpt lat="47.63303" lon="-2.77877">
        <ele>3.7</ele>
        <time>2020-06-06T13:09:46Z</time>
      </trkpt>
      <trkpt lat="47.63303" lon="-2.77872">
        <ele>3.8</ele>
        <time>2020-06-06T13:09:47Z</time>
      </trkpt>
      <trkpt lat="47.63302" lon="-2.77866">
        <ele>3.9</ele>
        <time>2020-06-06T13:09:48Z</time>
      </trkpt>
      <trkpt lat="47.63302" lon="-2.77859">
        <ele>4</ele>
        <time>2020-06-06T13:09:49Z</time>
      </trkpt>
      <trkpt lat="47.63302" lon="-2.77853">
        <ele>4.1</ele>
        <time>2020-06-06T13:09:50Z</time>
      </trkpt>
      <trkpt lat="47.63302" lon="-2.77847">
        <ele>4.2</ele>
        <time>2020-06-06T13:09:51Z</time>
      </trkpt>
      <trkpt lat="47.63302" lon="-2.77841">
        <ele>4.2</ele>
        <time>2020-06-06T13:09:52Z</time>
      </trkpt>
      <trkpt lat="47.63303" lon="-2.77836">
        <ele>4.4</ele>
        <time>2020-06-06T13:09:53Z</time>
      </trkpt>
      <trkpt lat="47.63303" lon="-2.77831">
        <ele>4.5</ele>
        <time>2020-06-06T13:09:54Z</time>
      </trkpt>
      <trkpt lat="47.63304" lon="-2.77825">
        <ele>4.6</ele>
        <time>2020-06-06T13:09:55Z</time>
      </trkpt>
      <trkpt lat="47.63305" lon="-2.7782">
        <ele>4.8</ele>
        <time>2020-06-06T13:09:56Z</time>
      </trkpt>
      <trkpt lat="47.63305" lon="-2.77816">
        <ele>4.9</ele>
        <time>2020-06-06T13:09:57Z</time>
      </trkpt>
      <trkpt lat="47.63305" lon="-2.77812">
        <ele>5.1</ele>
        <time>2020-06-06T13:09:58Z</time>
      </trkpt>
      <trkpt lat="47.63305" lon="-2.77807">
        <ele>5.2</ele>
        <time>2020-06-06T13:09:59Z</time>
      </trkpt>
      <trkpt lat="47.63305" lon="-2.77803">
        <ele>5.4</ele>
        <time>2020-06-06T13:10:00Z</time>
      </trkpt>
      <trkpt lat="47.63306" lon="-2.77799">
        <ele>5.5</ele>
        <time>2020-06-06T13:10:01Z</time>
      </trkpt>
      <trkpt lat="47.63307" lon="-2.77795">
        <ele>5.6</ele>
        <time>2020-06-06T13:10:02Z</time>
      </trkpt>
      <trkpt lat="47.63308" lon="-2.7779">
        <ele>5.8</ele>
        <time>2020-06-06T13:10:03Z</time>
      </trkpt>
      <trkpt lat="47.63308" lon="-2.77788">
        <ele>5.8</ele>
        <time>2020-06-06T13:10:04Z</time>
      </trkpt>
      <trkpt lat="47.63309" lon="-2.77784">
        <ele>6</ele>
        <time>2020-06-06T13:10:05Z</time>
      </trkpt>
      <trkpt lat="47.63309" lon="-2.77783">
        <ele>6</ele>
        <time>2020-06-06T13:10:06Z</time>
      </trkpt>
      <trkpt lat="47.6331" lon="-2.77778">
        <ele>6.2</ele>
        <time>2020-06-06T13:10:07Z</time>
      </trkpt>
      <trkpt lat="47.6331" lon="-2.77777">
        <ele>6.2</ele>
        <time>2020-06-06T13:10:08Z</time>
      </trkpt>
      <trkpt lat="47.6331" lon="-2.77772">
        <ele>6.4</ele>
        <time>2020-06-06T13:10:09Z</time>
      </trkpt>
      <trkpt lat="47.63311" lon="-2.77771">
        <ele>6.4</ele>
        <time>2020-06-06T13:10:10Z</time>
      </trkpt>
      <trkpt lat="47.63312" lon="-2.77765">
        <ele>6.7</ele>
        <time>2020-06-06T13:10:11Z</time>
      </trkpt>
      <trkpt lat="47.63312" lon="-2.77764">
        <ele>6.7</ele>
        <time>2020-06-06T13:10:12Z</time>
      </trkpt>
      <trkpt lat="47.63315" lon="-2.77758">
        <ele>7</ele>
        <time>2020-06-06T13:10:13Z</time>
      </trkpt>
      <trkpt lat="47.63315" lon="-2.77756">
        <ele>7.1</ele>
        <time>2020-06-06T13:10:14Z</time>
      </trkpt>
      <trkpt lat="47.63317" lon="-2.77752">
        <ele>7.3</ele>
        <time>2020-06-06T13:10:15Z</time>
      </trkpt>
      <trkpt lat="47.63319" lon="-2.77747">
        <ele>7.5</ele>
        <time>2020-06-06T13:10:16Z</time>
      </trkpt>
      <trkpt lat="47.6332" lon="-2.77741">
        <ele>7.8</ele>
        <time>2020-06-06T13:10:17Z</time>
      </trkpt>
      <trkpt lat="47.63321" lon="-2.77734">
        <ele>8.1</ele>
        <time>2020-06-06T13:10:18Z</time>
      </trkpt>
      <trkpt lat="47.63323" lon="-2.77727">
        <ele>8.4</ele>
        <time>2020-06-06T13:10:19Z</time>
      </trkpt>
      <trkpt lat="47.63325" lon="-2.7772">
        <ele>8.8</ele>
        <time>2020-06-06T13:10:20Z</time>
      </trkpt>
      <trkpt lat="47.63327" lon="-2.77713">
        <ele>9.2</ele>
        <time>2020-06-06T13:10:21Z</time>
      </trkpt>
      <trkpt lat="47.6333" lon="-2.77706">
        <ele>9.6</ele>
        <time>2020-06-06T13:10:22Z</time>
      </trkpt>
      <trkpt lat="47.63333" lon="-2.77699">
        <ele>10</ele>
        <time>2020-06-06T13:10:23Z</time>
      </trkpt>
      <trkpt lat="47.63336" lon="-2.77691">
        <ele>10.4</ele>
        <time>2020-06-06T13:10:24Z</time>
      </trkpt>
      <trkpt lat="47.63339" lon="-2.77685">
        <ele>10.7</ele>
        <time>2020-06-06T13:10:25Z</time>
      </trkpt>
      <trkpt lat="47.63343" lon="-2.77679">
        <ele>11.1</ele>
        <time>2020-06-06T13:10:26Z</time>
      </trkpt>
      <trkpt lat="47.63347" lon="-2.77673">
        <ele>11.5</ele>
        <time>2020-06-06T13:10:27Z</time>
      </trkpt>
      <trkpt lat="47.63351" lon="-2.77665">
        <ele>11.9</ele>
        <time>2020-06-06T13:10:28Z</time>
      </trkpt>
      <trkpt lat="47.63354" lon="-2.7766">
        <ele>12.3</ele>
        <time>2020-06-06T13:10:29Z</time>
      </trkpt>
      <trkpt lat="47.63357" lon="-2.77654">
        <ele>12.6</ele>
        <time>2020-06-06T13:10:30Z</time>
      </trkpt>
      <trkpt lat="47.6336" lon="-2.77648">
        <ele>13</ele>
        <time>2020-06-06T13:10:31Z</time>
      </trkpt>
      <trkpt lat="47.63362" lon="-2.77644">
        <ele>13.2</ele>
        <time>2020-06-06T13:10:32Z</time>
      </trkpt>
      <trkpt lat="47.63365" lon="-2.7764">
        <ele>13.5</ele>
        <time>2020-06-06T13:10:33Z</time>
      </trkpt>
      <trkpt lat="47.63368" lon="-2.77635">
        <ele>13.8</ele>
        <time>2020-06-06T13:10:34Z</time>
      </trkpt>
      <trkpt lat="47.6337" lon="-2.77631">
        <ele>14</ele>
        <time>2020-06-06T13:10:35Z</time>
      </trkpt>
      <trkpt lat="47.63372" lon="-2.77628">
        <ele>14.1</ele>
        <time>2020-06-06T13:10:36Z</time>
      </trkpt>
      <trkpt lat="47.63374" lon="-2.77622">
        <ele>14.4</ele>
        <time>2020-06-06T13:10:37Z</time>
      </trkpt>
      <trkpt lat="47.63375" lon="-2.7762">
        <ele>14.5</ele>
        <time>2020-06-06T13:10:38Z</time>
      </trkpt>
      <trkpt lat="47.63378" lon="-2.77615">
        <ele>14.7</ele>
        <time>2020-06-06T13:10:39Z</time>
      </trkpt>
      <trkpt lat="47.6338" lon="-2.77614">
        <ele>14.8</ele>
        <time>2020-06-06T13:10:40Z</time>
      </trkpt>
      <trkpt lat="47.63382" lon="-2.77609">
        <ele>14.9</ele>
        <time>2020-06-06T13:10:41Z</time>
      </trkpt>
      <trkpt lat="47.63385" lon="-2.77605">
        <ele>15.1</ele>
        <time>2020-06-06T13:10:42Z</time>
      </trkpt>
      <trkpt lat="47.63386" lon="-2.77604">
        <ele>15.1</ele>
        <time>2020-06-06T13:10:43Z</time>
      </trkpt>
      <trkpt lat="47.63389" lon="-2.77599">
        <ele>15.3</ele>
        <time>2020-06-06T13:10:44Z</time>
      </trkpt>
      <trkpt lat="47.6339" lon="-2.77596">
        <ele>15.3</ele>
        <time>2020-06-06T13:10:45Z</time>
      </trkpt>
      <trkpt lat="47.63392" lon="-2.77591">
        <ele>15.4</ele>
        <time>2020-06-06T13:10:46Z</time>
      </trkpt>
      <trkpt lat="47.63394" lon="-2.77586">
        <ele>15.4</ele>
        <time>2020-06-06T13:10:47Z</time>
      </trkpt>
      <trkpt lat="47.63395" lon="-2.77583">
        <ele>15.5</ele>
        <time>2020-06-06T13:10:48Z</time>
      </trkpt>
      <trkpt lat="47.63396" lon="-2.77582">
        <ele>15.5</ele>
        <time>2020-06-06T13:10:49Z</time>
      </trkpt>
      <trkpt lat="47.63399" lon="-2.77578">
        <ele>15.5</ele>
        <time>2020-06-06T13:10:50Z</time>
      </trkpt>
      <trkpt lat="47.63402" lon="-2.77575">
        <ele>15.5</ele>
        <time>2020-06-06T13:10:51Z</time>
      </trkpt>
      <trkpt lat="47.63407" lon="-2.7757">
        <ele>15.5</ele>
        <time>2020-06-06T13:10:52Z</time>
      </trkpt>
      <trkpt lat="47.63409" lon="-2.77564">
        <ele>15.5</ele>
        <time>2020-06-06T13:10:53Z</time>
      </trkpt>
      <trkpt lat="47.63412" lon="-2.77558">
        <ele>15.5</ele>
        <time>2020-06-06T13:10:54Z</time>
      </trkpt>
      <trkpt lat="47.63416" lon="-2.77553">
        <ele>15.5</ele>
        <time>2020-06-06T13:10:55Z</time>
      </trkpt>
      <trkpt lat="47.6342" lon="-2.77548">
        <ele>15.4</ele>
        <time>2020-06-06T13:10:56Z</time>
      </trkpt>
      <trkpt lat="47.63424" lon="-2.77542">
        <ele>15.4</ele>
        <time>2020-06-06T13:10:57Z</time>
      </trkpt>
      <trkpt lat="47.63426" lon="-2.77537">
        <ele>15.3</ele>
        <time>2020-06-06T13:10:58Z</time>
      </trkpt>
      <trkpt lat="47.6343" lon="-2.77533">
        <ele>15.3</ele>
        <time>2020-06-06T13:10:59Z</time>
      </trkpt>
      <trkpt lat="47.63434" lon="-2.77527">
        <ele>15.2</ele>
        <time>2020-06-06T13:11:00Z</time>
      </trkpt>
      <trkpt lat="47.63438" lon="-2.77522">
        <ele>15.2</ele>
        <time>2020-06-06T13:11:01Z</time>
      </trkpt>
      <trkpt lat="47.63441" lon="-2.77519">
        <ele>15.2</ele>
        <time>2020-06-06T13:11:02Z</time>
      </trkpt>
      <trkpt lat="47.63445" lon="-2.77516">
        <ele>15.1</ele>
        <time>2020-06-06T13:11:03Z</time>
      </trkpt>
      <trkpt lat="47.6345" lon="-2.77511">
        <ele>15.1</ele>
        <time>2020-06-06T13:11:04Z</time>
      </trkpt>
      <trkpt lat="47.63455" lon="-2.77507">
        <ele>15</ele>
        <time>2020-06-06T13:11:05Z</time>
      </trkpt>
      <trkpt lat="47.63459" lon="-2.77504">
        <ele>15</ele>
        <time>2020-06-06T13:11:06Z</time>
      </trkpt>
      <trkpt lat="47.63464" lon="-2.77501">
        <ele>14.9</ele>
        <time>2020-06-06T13:11:07Z</time>
      </trkpt>
      <trkpt lat="47.63469" lon="-2.77498">
        <ele>14.9</ele>
        <time>2020-06-06T13:11:08Z</time>
      </trkpt>
      <trkpt lat="47.63473" lon="-2.77493">
        <ele>14.8</ele>
        <time>2020-06-06T13:11:09Z</time>
      </trkpt>
      <trkpt lat="47.63478" lon="-2.77488">
        <ele>14.7</ele>
        <time>2020-06-06T13:11:10Z</time>
      </trkpt>
      <trkpt lat="47.63482" lon="-2.77483">
        <ele>14.7</ele>
        <time>2020-06-06T13:11:11Z</time>
      </trkpt>
      <trkpt lat="47.63485" lon="-2.7748">
        <ele>14.7</ele>
        <time>2020-06-06T13:11:12Z</time>
      </trkpt>
      <trkpt lat="47.63491" lon="-2.77476">
        <ele>14.6</ele>
        <time>2020-06-06T13:11:13Z</time>
      </trkpt>
      <trkpt lat="47.63495" lon="-2.77471">
        <ele>14.6</ele>
        <time>2020-06-06T13:11:14Z</time>
      </trkpt>
      <trkpt lat="47.63499" lon="-2.77466">
        <ele>14.6</ele>
        <time>2020-06-06T13:11:15Z</time>
      </trkpt>
      <trkpt lat="47.63504" lon="-2.77463">
        <ele>14.6</ele>
        <time>2020-06-06T13:11:16Z</time>
      </trkpt>
      <trkpt lat="47.63509" lon="-2.77462">
        <ele>14.7</ele>
        <time>2020-06-06T13:11:17Z</time>
      </trkpt>
      <trkpt lat="47.63513" lon="-2.77463">
        <ele>14.7</ele>
        <time>2020-06-06T13:11:18Z</time>
      </trkpt>
      <trkpt lat="47.63517" lon="-2.77464">
        <ele>14.8</ele>
        <time>2020-06-06T13:11:19Z</time>
      </trkpt>
      <trkpt lat="47.63521" lon="-2.77464">
        <ele>14.9</ele>
        <time>2020-06-06T13:11:20Z</time>
      </trkpt>
      <trkpt lat="47.63525" lon="-2.77466">
        <ele>14.9</ele>
        <time>2020-06-06T13:11:21Z</time>
      </trkpt>
      <trkpt lat="47.63529" lon="-2.77467">
        <ele>15</ele>
        <time>2020-06-06T13:11:22Z</time>
      </trkpt>
      <trkpt lat="47.63533" lon="-2.77468">
        <ele>15</ele>
        <time>2020-06-06T13:11:23Z</time>
      </trkpt>
      <trkpt lat="47.63535" lon="-2.77468">
        <ele>15</ele>
        <time>2020-06-06T13:11:24Z</time>
      </trkpt>
      <trkpt lat="47.63538" lon="-2.77468">
        <ele>15.1</ele>
        <time>2020-06-06T13:11:25Z</time>
      </trkpt>
      <trkpt lat="47.63539" lon="-2.77468">
        <ele>15.1</ele>
        <time>2020-06-06T13:11:26Z</time>
      </trkpt>
      <trkpt lat="47.6354" lon="-2.77469">
        <ele>15.1</ele>
        <time>2020-06-06T13:11:27Z</time>
      </trkpt>
      <trkpt lat="47.63542" lon="-2.7747">
        <ele>15.1</ele>
        <time>2020-06-06T13:11:28Z</time>
      </trkpt>
      <trkpt lat="47.63545" lon="-2.77471">
        <ele>15.1</ele>
        <time>2020-06-06T13:11:29Z</time>
      </trkpt>
      <trkpt lat="47.63546" lon="-2.77471">
        <ele>15.1</ele>
        <time>2020-06-06T13:11:30Z</time>
      </trkpt>
      <trkpt lat="47.63548" lon="-2.77471">
        <ele>15.1</ele>
        <time>2020-06-06T13:11:31Z</time>
      </trkpt>
      <trkpt lat="47.63549" lon="-2.77471">
        <ele>15.1</ele>
        <time>2020-06-06T13:11:32Z</time>
      </trkpt>
      <trkpt lat="47.63551" lon="-2.7747">
        <ele>15.1</ele>
        <time>2020-06-06T13:11:33Z</time>
      </trkpt>
      <trkpt lat="47.63553" lon="-2.7747">
        <ele>15.1</ele>
        <time>2020-06-06T13:11:34Z</time>
      </trkpt>
      <trkpt lat="47.63555" lon="-2.77471">
        <ele>15.1</ele>
        <time>2020-06-06T13:11:35Z</time>
      </trkpt>
      <trkpt lat="47.63556" lon="-2.77472">
        <ele>15.1</ele>
        <time>2020-06-06T13:11:36Z</time>
      </trkpt>
      <trkpt lat="47.63556" lon="-2.77473">
        <ele>15.1</ele>
        <time>2020-06-06T13:11:37Z</time>
      </trkpt>
      <trkpt lat="47.63557" lon="-2.77473">
        <ele>15.1</ele>
        <time>2020-06-06T13:11:38Z</time>
      </trkpt>
      <trkpt lat="47.63558" lon="-2.77474">
        <ele>15.1</ele>
        <time>2020-06-06T13:11:39Z</time>
      </trkpt>
      <trkpt lat="47.63561" lon="-2.77474">
        <ele>15.1</ele>
        <time>2020-06-06T13:11:40Z</time>
      </trkpt>
      <trkpt lat="47.63562" lon="-2.77474">
        <ele>15.1</ele>
        <time>2020-06-06T13:11:41Z</time>
      </trkpt>
      <trkpt lat="47.63566" lon="-2.77474">
        <ele>15.2</ele>
        <time>2020-06-06T13:11:42Z</time>
      </trkpt>
      <trkpt lat="47.63567" lon="-2.77473">
        <ele>15.2</ele>
        <time>2020-06-06T13:11:43Z</time>
      </trkpt>
      <trkpt lat="47.6357" lon="-2.77472">
        <ele>15.2</ele>
        <time>2020-06-06T13:11:44Z</time>
      </trkpt>
      <trkpt lat="47.63573" lon="-2.77472">
        <ele>15.2</ele>
        <time>2020-06-06T13:11:45Z</time>
      </trkpt>
      <trkpt lat="47.63575" lon="-2.77475">
        <ele>15.2</ele>
        <time>2020-06-06T13:11:46Z</time>
      </trkpt>
      <trkpt lat="47.63579" lon="-2.77477">
        <ele>15.2</ele>
        <time>2020-06-06T13:11:47Z</time>
      </trkpt>
      <trkpt lat="47.6358" lon="-2.77477">
        <ele>15.3</ele>
        <time>2020-06-06T13:11:48Z</time>
      </trkpt>
      <trkpt lat="47.63583" lon="-2.77478">
        <ele>15.3</ele>
        <time>2020-06-06T13:11:49Z</time>
      </trkpt>
      <trkpt lat="47.63587" lon="-2.77478">
        <ele>15.3</ele>
        <time>2020-06-06T13:11:50Z</time>
      </trkpt>
      <trkpt lat="47.6359" lon="-2.77478">
        <ele>15.3</ele>
        <time>2020-06-06T13:11:51Z</time>
      </trkpt>
      <trkpt lat="47.63594" lon="-2.77479">
        <ele>15.4</ele>
        <time>2020-06-06T13:11:52Z</time>
      </trkpt>
      <trkpt lat="47.63595" lon="-2.7748">
        <ele>15.4</ele>
        <time>2020-06-06T13:11:53Z</time>
      </trkpt>
      <trkpt lat="47.63599" lon="-2.77478">
        <ele>15.4</ele>
        <time>2020-06-06T13:11:54Z</time>
      </trkpt>
      <trkpt lat="47.63602" lon="-2.77479">
        <ele>15.5</ele>
        <time>2020-06-06T13:11:55Z</time>
      </trkpt>
      <trkpt lat="47.63606" lon="-2.77481">
        <ele>15.5</ele>
        <time>2020-06-06T13:11:56Z</time>
      </trkpt>
      <trkpt lat="47.6361" lon="-2.77482">
        <ele>15.6</ele>
        <time>2020-06-06T13:11:57Z</time>
      </trkpt>
      <trkpt lat="47.63614" lon="-2.77483">
        <ele>15.6</ele>
        <time>2020-06-06T13:11:58Z</time>
      </trkpt>
      <trkpt lat="47.63618" lon="-2.77483">
        <ele>15.7</ele>
        <time>2020-06-06T13:11:59Z</time>
      </trkpt>
      <trkpt lat="47.63621" lon="-2.77484">
        <ele>15.7</ele>
        <time>2020-06-06T13:12:00Z</time>
      </trkpt>
      <trkpt lat="47.63625" lon="-2.77485">
        <ele>15.8</ele>
        <time>2020-06-06T13:12:01Z</time>
      </trkpt>
      <trkpt lat="47.63629" lon="-2.77485">
        <ele>15.9</ele>
        <time>2020-06-06T13:12:02Z</time>
      </trkpt>
      <trkpt lat="47.63633" lon="-2.77483">
        <ele>16</ele>
        <time>2020-06-06T13:12:03Z</time>
      </trkpt>
      <trkpt lat="47.63636" lon="-2.77481">
        <ele>16</ele>
        <time>2020-06-06T13:12:04Z</time>
      </trkpt>
      <trkpt lat="47.6364" lon="-2.77478">
        <ele>16.2</ele>
        <time>2020-06-06T13:12:05Z</time>
      </trkpt>
      <trkpt lat="47.63644" lon="-2.77477">
        <ele>16.2</ele>
        <time>2020-06-06T13:12:06Z</time>
      </trkpt>
      <trkpt lat="47.63648" lon="-2.77475">
        <ele>16.1</ele>
        <time>2020-06-06T13:12:07Z</time>
      </trkpt>
      <trkpt lat="47.63652" lon="-2.77475">
        <ele>15.9</ele>
        <time>2020-06-06T13:12:08Z</time>
      </trkpt>
      <trkpt lat="47.63656" lon="-2.77474">
        <ele>15.9</ele>
        <time>2020-06-06T13:12:09Z</time>
      </trkpt>
      <trkpt lat="47.63659" lon="-2.77475">
        <ele>15.9</ele>
        <time>2020-06-06T13:12:10Z</time>
      </trkpt>
      <trkpt lat="47.63663" lon="-2.77474">
        <ele>15.8</ele>
        <time>2020-06-06T13:12:11Z</time>
      </trkpt>
      <trkpt lat="47.63667" lon="-2.77475">
        <ele>15.8</ele>
        <time>2020-06-06T13:12:12Z</time>
      </trkpt>
      <trkpt lat="47.63673" lon="-2.77474">
        <ele>15.7</ele>
        <time>2020-06-06T13:12:13Z</time>
      </trkpt>
      <trkpt lat="47.63678" lon="-2.77474">
        <ele>15.7</ele>
        <time>2020-06-06T13:12:14Z</time>
      </trkpt>
      <trkpt lat="47.63684" lon="-2.77474">
        <ele>15.4</ele>
        <time>2020-06-06T13:12:15Z</time>
      </trkpt>
      <trkpt lat="47.63689" lon="-2.77474">
        <ele>15.4</ele>
        <time>2020-06-06T13:12:16Z</time>
      </trkpt>
      <trkpt lat="47.63694" lon="-2.77475">
        <ele>15.3</ele>
        <time>2020-06-06T13:12:17Z</time>
      </trkpt>
      <trkpt lat="47.63699" lon="-2.77476">
        <ele>15.2</ele>
        <time>2020-06-06T13:12:18Z</time>
      </trkpt>
      <trkpt lat="47.63703" lon="-2.77478">
        <ele>15.1</ele>
        <time>2020-06-06T13:12:19Z</time>
      </trkpt>
      <trkpt lat="47.63708" lon="-2.77483">
        <ele>15.1</ele>
        <time>2020-06-06T13:12:20Z</time>
      </trkpt>
      <trkpt lat="47.63713" lon="-2.77488">
        <ele>15.1</ele>
        <time>2020-06-06T13:12:21Z</time>
      </trkpt>
      <trkpt lat="47.63716" lon="-2.77494">
        <ele>15.1</ele>
        <time>2020-06-06T13:12:22Z</time>
      </trkpt>
      <trkpt lat="47.63718" lon="-2.77499">
        <ele>15.1</ele>
        <time>2020-06-06T13:12:23Z</time>
      </trkpt>
      <trkpt lat="47.63721" lon="-2.77505">
        <ele>15.2</ele>
        <time>2020-06-06T13:12:24Z</time>
      </trkpt>
      <trkpt lat="47.63724" lon="-2.7751">
        <ele>15.3</ele>
        <time>2020-06-06T13:12:25Z</time>
      </trkpt>
      <trkpt lat="47.63727" lon="-2.77515">
        <ele>15.4</ele>
        <time>2020-06-06T13:12:26Z</time>
      </trkpt>
      <trkpt lat="47.6373" lon="-2.7752">
        <ele>15.6</ele>
        <time>2020-06-06T13:12:27Z</time>
      </trkpt>
      <trkpt lat="47.63734" lon="-2.77524">
        <ele>15.7</ele>
        <time>2020-06-06T13:12:28Z</time>
      </trkpt>
      <trkpt lat="47.63737" lon="-2.77528">
        <ele>15.8</ele>
        <time>2020-06-06T13:12:29Z</time>
      </trkpt>
      <trkpt lat="47.63741" lon="-2.7753">
        <ele>16</ele>
        <time>2020-06-06T13:12:30Z</time>
      </trkpt>
      <trkpt lat="47.63745" lon="-2.77532">
        <ele>16.2</ele>
        <time>2020-06-06T13:12:31Z</time>
      </trkpt>
      <trkpt lat="47.63749" lon="-2.77534">
        <ele>16.4</ele>
        <time>2020-06-06T13:12:32Z</time>
      </trkpt>
      <trkpt lat="47.63752" lon="-2.77536">
        <ele>16.6</ele>
        <time>2020-06-06T13:12:33Z</time>
      </trkpt>
      <trkpt lat="47.63756" lon="-2.77536">
        <ele>16.8</ele>
        <time>2020-06-06T13:12:34Z</time>
      </trkpt>
      <trkpt lat="47.63761" lon="-2.77537">
        <ele>17</ele>
        <time>2020-06-06T13:12:35Z</time>
      </trkpt>
      <trkpt lat="47.63766" lon="-2.77536">
        <ele>17.3</ele>
        <time>2020-06-06T13:12:36Z</time>
      </trkpt>
      <trkpt lat="47.63772" lon="-2.77535">
        <ele>17.6</ele>
        <time>2020-06-06T13:12:37Z</time>
      </trkpt>
      <trkpt lat="47.63777" lon="-2.77535">
        <ele>17.8</ele>
        <time>2020-06-06T13:12:38Z</time>
      </trkpt>
      <trkpt lat="47.63782" lon="-2.77535">
        <ele>18</ele>
        <time>2020-06-06T13:12:39Z</time>
      </trkpt>
      <trkpt lat="47.63786" lon="-2.77534">
        <ele>18.2</ele>
        <time>2020-06-06T13:12:40Z</time>
      </trkpt>
      <trkpt lat="47.6379" lon="-2.77535">
        <ele>18.4</ele>
        <time>2020-06-06T13:12:41Z</time>
      </trkpt>
      <trkpt lat="47.63793" lon="-2.77536">
        <ele>18.6</ele>
        <time>2020-06-06T13:12:42Z</time>
      </trkpt>
      <trkpt lat="47.63796" lon="-2.77537">
        <ele>18.8</ele>
        <time>2020-06-06T13:12:43Z</time>
      </trkpt>
      <trkpt lat="47.63799" lon="-2.77539">
        <ele>18.9</ele>
        <time>2020-06-06T13:12:44Z</time>
      </trkpt>
      <trkpt lat="47.63802" lon="-2.77542">
        <ele>19</ele>
        <time>2020-06-06T13:12:45Z</time>
      </trkpt>
      <trkpt lat="47.63804" lon="-2.77546">
        <ele>19.1</ele>
        <time>2020-06-06T13:12:46Z</time>
      </trkpt>
      <trkpt lat="47.63807" lon="-2.7755">
        <ele>19.1</ele>
        <time>2020-06-06T13:12:47Z</time>
      </trkpt>
      <trkpt lat="47.63808" lon="-2.77555">
        <ele>19.1</ele>
        <time>2020-06-06T13:12:48Z</time>
      </trkpt>
      <trkpt lat="47.6381" lon="-2.77559">
        <ele>19.2</ele>
        <time>2020-06-06T13:12:49Z</time>
      </trkpt>
      <trkpt lat="47.63811" lon="-2.77563">
        <ele>19.2</ele>
        <time>2020-06-06T13:12:50Z</time>
      </trkpt>
      <trkpt lat="47.63813" lon="-2.77567">
        <ele>19.3</ele>
        <time>2020-06-06T13:12:51Z</time>
      </trkpt>
      <trkpt lat="47.63816" lon="-2.77572">
        <ele>19.3</ele>
        <time>2020-06-06T13:12:52Z</time>
      </trkpt>
      <trkpt lat="47.63818" lon="-2.77576">
        <ele>19.4</ele>
        <time>2020-06-06T13:12:53Z</time>
      </trkpt>
      <trkpt lat="47.6382" lon="-2.7758">
        <ele>19.5</ele>
        <time>2020-06-06T13:12:54Z</time>
      </trkpt>
      <trkpt lat="47.63823" lon="-2.77584">
        <ele>19.6</ele>
        <time>2020-06-06T13:12:55Z</time>
      </trkpt>
      <trkpt lat="47.63827" lon="-2.77587">
        <ele>19.6</ele>
        <time>2020-06-06T13:12:56Z</time>
      </trkpt>
      <trkpt lat="47.63829" lon="-2.77592">
        <ele>19.7</ele>
        <time>2020-06-06T13:12:57Z</time>
      </trkpt>
      <trkpt lat="47.63832" lon="-2.77596">
        <ele>19.8</ele>
        <time>2020-06-06T13:12:58Z</time>
      </trkpt>
      <trkpt lat="47.63834" lon="-2.77601">
        <ele>19.9</ele>
        <time>2020-06-06T13:12:59Z</time>
      </trkpt>
      <trkpt lat="47.63836" lon="-2.77604">
        <ele>19.9</ele>
        <time>2020-06-06T13:13:00Z</time>
      </trkpt>
      <trkpt lat="47.63838" lon="-2.77609">
        <ele>20</ele>
        <time>2020-06-06T13:13:01Z</time>
      </trkpt>
      <trkpt lat="47.63838" lon="-2.77615">
        <ele>20.1</ele>
        <time>2020-06-06T13:13:02Z</time>
      </trkpt>
      <trkpt lat="47.63839" lon="-2.77622">
        <ele>20.3</ele>
        <time>2020-06-06T13:13:03Z</time>
      </trkpt>
      <trkpt lat="47.6384" lon="-2.7763">
        <ele>20.4</ele>
        <time>2020-06-06T13:13:04Z</time>
      </trkpt>
      <trkpt lat="47.63841" lon="-2.77637">
        <ele>20.6</ele>
        <time>2020-06-06T13:13:05Z</time>
      </trkpt>
      <trkpt lat="47.63842" lon="-2.77644">
        <ele>20.7</ele>
        <time>2020-06-06T13:13:06Z</time>
      </trkpt>
      <trkpt lat="47.63843" lon="-2.77652">
        <ele>20.8</ele>
        <time>2020-06-06T13:13:07Z</time>
      </trkpt>
      <trkpt lat="47.63843" lon="-2.77658">
        <ele>20.9</ele>
        <time>2020-06-06T13:13:08Z</time>
      </trkpt>
      <trkpt lat="47.63845" lon="-2.77666">
        <ele>21.1</ele>
        <time>2020-06-06T13:13:09Z</time>
      </trkpt>
      <trkpt lat="47.63846" lon="-2.77672">
        <ele>21.2</ele>
        <time>2020-06-06T13:13:10Z</time>
      </trkpt>
      <trkpt lat="47.63847" lon="-2.77679">
        <ele>21.3</ele>
        <time>2020-06-06T13:13:11Z</time>
      </trkpt>
      <trkpt lat="47.63849" lon="-2.77685">
        <ele>21.4</ele>
        <time>2020-06-06T13:13:12Z</time>
      </trkpt>
      <trkpt lat="47.6385" lon="-2.77689">
        <ele>21.5</ele>
        <time>2020-06-06T13:13:13Z</time>
      </trkpt>
      <trkpt lat="47.63851" lon="-2.77694">
        <ele>21.7</ele>
        <time>2020-06-06T13:13:14Z</time>
      </trkpt>
      <trkpt lat="47.63851" lon="-2.77696">
        <ele>21.7</ele>
        <time>2020-06-06T13:13:15Z</time>
      </trkpt>
      <trkpt lat="47.63852" lon="-2.77701">
        <ele>21.8</ele>
        <time>2020-06-06T13:13:16Z</time>
      </trkpt>
      <trkpt lat="47.63852" lon="-2.77706">
        <ele>21.9</ele>
        <time>2020-06-06T13:13:17Z</time>
      </trkpt>
      <trkpt lat="47.63853" lon="-2.77711">
        <ele>21.9</ele>
        <time>2020-06-06T13:13:18Z</time>
      </trkpt>
      <trkpt lat="47.63853" lon="-2.77716">
        <ele>21.8</ele>
        <time>2020-06-06T13:13:19Z</time>
      </trkpt>
      <trkpt lat="47.63854" lon="-2.77722">
        <ele>21.8</ele>
        <time>2020-06-06T13:13:20Z</time>
      </trkpt>
      <trkpt lat="47.63854" lon="-2.77727">
        <ele>21.8</ele>
        <time>2020-06-06T13:13:21Z</time>
      </trkpt>
      <trkpt lat="47.63856" lon="-2.77732">
        <ele>21.8</ele>
        <time>2020-06-06T13:13:22Z</time>
      </trkpt>
      <trkpt lat="47.63859" lon="-2.77733">
        <ele>21.8</ele>
        <time>2020-06-06T13:13:23Z</time>
      </trkpt>
      <trkpt lat="47.63861" lon="-2.77732">
        <ele>21.8</ele>
        <time>2020-06-06T13:13:24Z</time>
      </trkpt>
      <trkpt lat="47.63864" lon="-2.77731">
        <ele>21.9</ele>
        <time>2020-06-06T13:13:25Z</time>
      </trkpt>
      <trkpt lat="47.63867" lon="-2.7773">
        <ele>21.9</ele>
        <time>2020-06-06T13:13:26Z</time>
      </trkpt>
      <trkpt lat="47.63871" lon="-2.77729">
        <ele>21.9</ele>
        <time>2020-06-06T13:13:27Z</time>
      </trkpt>
      <trkpt lat="47.63875" lon="-2.77729">
        <ele>22</ele>
        <time>2020-06-06T13:13:28Z</time>
      </trkpt>
      <trkpt lat="47.63879" lon="-2.77729">
        <ele>22</ele>
        <time>2020-06-06T13:13:29Z</time>
      </trkpt>
      <trkpt lat="47.63883" lon="-2.77727">
        <ele>22.1</ele>
        <time>2020-06-06T13:13:30Z</time>
      </trkpt>
      <trkpt lat="47.63887" lon="-2.77727">
        <ele>22.2</ele>
        <time>2020-06-06T13:13:31Z</time>
      </trkpt>
      <trkpt lat="47.6389" lon="-2.77725">
        <ele>22.2</ele>
        <time>2020-06-06T13:13:32Z</time>
      </trkpt>
      <trkpt lat="47.63895" lon="-2.77725">
        <ele>22.4</ele>
        <time>2020-06-06T13:13:33Z</time>
      </trkpt>
      <trkpt lat="47.63899" lon="-2.77725">
        <ele>22.5</ele>
        <time>2020-06-06T13:13:34Z</time>
      </trkpt>
      <trkpt lat="47.63903" lon="-2.77726">
        <ele>22.6</ele>
        <time>2020-06-06T13:13:35Z</time>
      </trkpt>
      <trkpt lat="47.63906" lon="-2.77725">
        <ele>22.6</ele>
        <time>2020-06-06T13:13:36Z</time>
      </trkpt>
      <trkpt lat="47.6391" lon="-2.77726">
        <ele>22.7</ele>
        <time>2020-06-06T13:13:37Z</time>
      </trkpt>
      <trkpt lat="47.63915" lon="-2.77726">
        <ele>22.8</ele>
        <time>2020-06-06T13:13:38Z</time>
      </trkpt>
      <trkpt lat="47.63918" lon="-2.77726">
        <ele>22.9</ele>
        <time>2020-06-06T13:13:39Z</time>
      </trkpt>
      <trkpt lat="47.63922" lon="-2.77725">
        <ele>23</ele>
        <time>2020-06-06T13:13:40Z</time>
      </trkpt>
      <trkpt lat="47.63926" lon="-2.77727">
        <ele>23.1</ele>
        <time>2020-06-06T13:13:41Z</time>
      </trkpt>
      <trkpt lat="47.63929" lon="-2.77727">
        <ele>23.3</ele>
        <time>2020-06-06T13:13:42Z</time>
      </trkpt>
      <trkpt lat="47.63935" lon="-2.77727">
        <ele>23.4</ele>
        <time>2020-06-06T13:13:43Z</time>
      </trkpt>
      <trkpt lat="47.63939" lon="-2.77729">
        <ele>23.4</ele>
        <time>2020-06-06T13:13:44Z</time>
      </trkpt>
      <trkpt lat="47.63942" lon="-2.7773">
        <ele>23.5</ele>
        <time>2020-06-06T13:13:45Z</time>
      </trkpt>
      <trkpt lat="47.63946" lon="-2.7773">
        <ele>23.5</ele>
        <time>2020-06-06T13:13:46Z</time>
      </trkpt>
      <trkpt lat="47.63949" lon="-2.7773">
        <ele>23.6</ele>
        <time>2020-06-06T13:13:47Z</time>
      </trkpt>
      <trkpt lat="47.63953" lon="-2.7773">
        <ele>23.7</ele>
        <time>2020-06-06T13:13:48Z</time>
      </trkpt>
      <trkpt lat="47.63957" lon="-2.77728">
        <ele>23.2</ele>
        <time>2020-06-06T13:13:49Z</time>
      </trkpt>
      <trkpt lat="47.6396" lon="-2.77725">
        <ele>23.3</ele>
        <time>2020-06-06T13:13:50Z</time>
      </trkpt>
      <trkpt lat="47.6396" lon="-2.77718">
        <ele>23.3</ele>
        <time>2020-06-06T13:13:51Z</time>
      </trkpt>
      <trkpt lat="47.63959" lon="-2.77712">
        <ele>23.4</ele>
        <time>2020-06-06T13:13:52Z</time>
      </trkpt>
      <trkpt lat="47.6396" lon="-2.77706">
        <ele>23.5</ele>
        <time>2020-06-06T13:13:53Z</time>
      </trkpt>
      <trkpt lat="47.6396" lon="-2.777">
        <ele>23.6</ele>
        <time>2020-06-06T13:13:54Z</time>
      </trkpt>
      <trkpt lat="47.6396" lon="-2.77694">
        <ele>23.7</ele>
        <time>2020-06-06T13:13:55Z</time>
      </trkpt>
      <trkpt lat="47.6396" lon="-2.77687">
        <ele>23.8</ele>
        <time>2020-06-06T13:13:56Z</time>
      </trkpt>
      <trkpt lat="47.6396" lon="-2.77681">
        <ele>23.9</ele>
        <time>2020-06-06T13:13:57Z</time>
      </trkpt>
      <trkpt lat="47.6396" lon="-2.77675">
        <ele>24</ele>
        <time>2020-06-06T13:13:58Z</time>
      </trkpt>
      <trkpt lat="47.6396" lon="-2.77669">
        <ele>24.1</ele>
        <time>2020-06-06T13:13:59Z</time>
      </trkpt>
      <trkpt lat="47.6396" lon="-2.77665">
        <ele>24.1</ele>
        <time>2020-06-06T13:14:00Z</time>
      </trkpt>
      <trkpt lat="47.63961" lon="-2.77661">
        <ele>24.3</ele>
        <time>2020-06-06T13:14:01Z</time>
      </trkpt>
      <trkpt lat="47.63961" lon="-2.77657">
        <ele>24.6</ele>
        <time>2020-06-06T13:14:02Z</time>
      </trkpt>
      <trkpt lat="47.63961" lon="-2.77652">
        <ele>24.6</ele>
        <time>2020-06-06T13:14:03Z</time>
      </trkpt>
      <trkpt lat="47.63962" lon="-2.77647">
        <ele>24.6</ele>
        <time>2020-06-06T13:14:04Z</time>
      </trkpt>
      <trkpt lat="47.63963" lon="-2.77642">
        <ele>24.7</ele>
        <time>2020-06-06T13:14:05Z</time>
      </trkpt>
      <trkpt lat="47.63966" lon="-2.77637">
        <ele>24.6</ele>
        <time>2020-06-06T13:14:06Z</time>
      </trkpt>
      <trkpt lat="47.6397" lon="-2.77633">
        <ele>24.6</ele>
        <time>2020-06-06T13:14:07Z</time>
      </trkpt>
      <trkpt lat="47.63974" lon="-2.77632">
        <ele>24.6</ele>
        <time>2020-06-06T13:14:08Z</time>
      </trkpt>
      <trkpt lat="47.63978" lon="-2.77633">
        <ele>24.7</ele>
        <time>2020-06-06T13:14:09Z</time>
      </trkpt>
      <trkpt lat="47.63982" lon="-2.77634">
        <ele>24.7</ele>
        <time>2020-06-06T13:14:10Z</time>
      </trkpt>
      <trkpt lat="47.63988" lon="-2.77634">
        <ele>24.7</ele>
        <time>2020-06-06T13:14:11Z</time>
      </trkpt>
      <trkpt lat="47.63993" lon="-2.77635">
        <ele>24.8</ele>
        <time>2020-06-06T13:14:12Z</time>
      </trkpt>
      <trkpt lat="47.63999" lon="-2.77637">
        <ele>24.8</ele>
        <time>2020-06-06T13:14:13Z</time>
      </trkpt>
      <trkpt lat="47.64004" lon="-2.77638">
        <ele>24.9</ele>
        <time>2020-06-06T13:14:14Z</time>
      </trkpt>
      <trkpt lat="47.64009" lon="-2.77639">
        <ele>25</ele>
        <time>2020-06-06T13:14:15Z</time>
      </trkpt>
      <trkpt lat="47.64014" lon="-2.7764">
        <ele>25</ele>
        <time>2020-06-06T13:14:16Z</time>
      </trkpt>
      <trkpt lat="47.64017" lon="-2.77639">
        <ele>25</ele>
        <time>2020-06-06T13:14:17Z</time>
      </trkpt>
      <trkpt lat="47.64023" lon="-2.77638">
        <ele>25.1</ele>
        <time>2020-06-06T13:14:18Z</time>
      </trkpt>
      <trkpt lat="47.64027" lon="-2.77638">
        <ele>25.2</ele>
        <time>2020-06-06T13:14:19Z</time>
      </trkpt>
      <trkpt lat="47.64032" lon="-2.77637">
        <ele>25.2</ele>
        <time>2020-06-06T13:14:20Z</time>
      </trkpt>
      <trkpt lat="47.64037" lon="-2.77636">
        <ele>25.3</ele>
        <time>2020-06-06T13:14:21Z</time>
      </trkpt>
      <trkpt lat="47.64042" lon="-2.77635">
        <ele>25.3</ele>
        <time>2020-06-06T13:14:22Z</time>
      </trkpt>
      <trkpt lat="47.64048" lon="-2.77635">
        <ele>25.4</ele>
        <time>2020-06-06T13:14:23Z</time>
      </trkpt>
      <trkpt lat="47.64053" lon="-2.77636">
        <ele>25.5</ele>
        <time>2020-06-06T13:14:24Z</time>
      </trkpt>
      <trkpt lat="47.64059" lon="-2.77636">
        <ele>25.5</ele>
        <time>2020-06-06T13:14:25Z</time>
      </trkpt>
      <trkpt lat="47.64065" lon="-2.77637">
        <ele>25.6</ele>
        <time>2020-06-06T13:14:26Z</time>
      </trkpt>
      <trkpt lat="47.64071" lon="-2.77636">
        <ele>25.6</ele>
        <time>2020-06-06T13:14:27Z</time>
      </trkpt>
      <trkpt lat="47.64076" lon="-2.77635">
        <ele>25.7</ele>
        <time>2020-06-06T13:14:28Z</time>
      </trkpt>
      <trkpt lat="47.64081" lon="-2.77635">
        <ele>25.9</ele>
        <time>2020-06-06T13:14:29Z</time>
      </trkpt>
      <trkpt lat="47.64087" lon="-2.77635">
        <ele>25.9</ele>
        <time>2020-06-06T13:14:30Z</time>
      </trkpt>
      <trkpt lat="47.64092" lon="-2.77635">
        <ele>25.8</ele>
        <time>2020-06-06T13:14:31Z</time>
      </trkpt>
      <trkpt lat="47.64096" lon="-2.77635">
        <ele>25.8</ele>
        <time>2020-06-06T13:14:32Z</time>
      </trkpt>
      <trkpt lat="47.64101" lon="-2.77634">
        <ele>25.8</ele>
        <time>2020-06-06T13:14:33Z</time>
      </trkpt>
      <trkpt lat="47.64106" lon="-2.77634">
        <ele>25.8</ele>
        <time>2020-06-06T13:14:34Z</time>
      </trkpt>
      <trkpt lat="47.64112" lon="-2.77632">
        <ele>25.7</ele>
        <time>2020-06-06T13:14:35Z</time>
      </trkpt>
      <trkpt lat="47.64118" lon="-2.77631">
        <ele>25.7</ele>
        <time>2020-06-06T13:14:36Z</time>
      </trkpt>
      <trkpt lat="47.64123" lon="-2.77629">
        <ele>25.7</ele>
        <time>2020-06-06T13:14:37Z</time>
      </trkpt>
      <trkpt lat="47.6413" lon="-2.77628">
        <ele>25.7</ele>
        <time>2020-06-06T13:14:38Z</time>
      </trkpt>
      <trkpt lat="47.64135" lon="-2.77625">
        <ele>25.7</ele>
        <time>2020-06-06T13:14:39Z</time>
      </trkpt>
      <trkpt lat="47.64141" lon="-2.77623">
        <ele>25.7</ele>
        <time>2020-06-06T13:14:40Z</time>
      </trkpt>
      <trkpt lat="47.64146" lon="-2.77621">
        <ele>25.7</ele>
        <time>2020-06-06T13:14:41Z</time>
      </trkpt>
      <trkpt lat="47.6415" lon="-2.77619">
        <ele>25.7</ele>
        <time>2020-06-06T13:14:42Z</time>
      </trkpt>
      <trkpt lat="47.64155" lon="-2.77614">
        <ele>25.6</ele>
        <time>2020-06-06T13:14:43Z</time>
      </trkpt>
      <trkpt lat="47.64159" lon="-2.77611">
        <ele>25.6</ele>
        <time>2020-06-06T13:14:44Z</time>
      </trkpt>
      <trkpt lat="47.64165" lon="-2.77606">
        <ele>25.7</ele>
        <time>2020-06-06T13:14:45Z</time>
      </trkpt>
      <trkpt lat="47.6417" lon="-2.77602">
        <ele>25.8</ele>
        <time>2020-06-06T13:14:46Z</time>
      </trkpt>
      <trkpt lat="47.64174" lon="-2.77599">
        <ele>25.9</ele>
        <time>2020-06-06T13:14:47Z</time>
      </trkpt>
      <trkpt lat="47.64179" lon="-2.77596">
        <ele>25.8</ele>
        <time>2020-06-06T13:14:48Z</time>
      </trkpt>
      <trkpt lat="47.64183" lon="-2.77592">
        <ele>25.8</ele>
        <time>2020-06-06T13:14:49Z</time>
      </trkpt>
      <trkpt lat="47.64187" lon="-2.77588">
        <ele>25.7</ele>
        <time>2020-06-06T13:14:50Z</time>
      </trkpt>
      <trkpt lat="47.64191" lon="-2.77583">
        <ele>25.7</ele>
        <time>2020-06-06T13:14:51Z</time>
      </trkpt>
      <trkpt lat="47.64196" lon="-2.77575">
        <ele>25.6</ele>
        <time>2020-06-06T13:14:52Z</time>
      </trkpt>
      <trkpt lat="47.642" lon="-2.77569">
        <ele>25.5</ele>
        <time>2020-06-06T13:14:53Z</time>
      </trkpt>
      <trkpt lat="47.64204" lon="-2.77564">
        <ele>25.3</ele>
        <time>2020-06-06T13:14:54Z</time>
      </trkpt>
      <trkpt lat="47.64207" lon="-2.77559">
        <ele>25.5</ele>
        <time>2020-06-06T13:14:55Z</time>
      </trkpt>
      <trkpt lat="47.64213" lon="-2.77559">
        <ele>25.6</ele>
        <time>2020-06-06T13:14:56Z</time>
      </trkpt>
      <trkpt lat="47.64218" lon="-2.77561">
        <ele>25.7</ele>
        <time>2020-06-06T13:14:57Z</time>
      </trkpt>
      <trkpt lat="47.64222" lon="-2.7757">
        <ele>25.6</ele>
        <time>2020-06-06T13:14:58Z</time>
      </trkpt>
      <trkpt lat="47.64226" lon="-2.77578">
        <ele>25.3</ele>
        <time>2020-06-06T13:14:59Z</time>
      </trkpt>
      <trkpt lat="47.64229" lon="-2.77584">
        <ele>25.1</ele>
        <time>2020-06-06T13:15:00Z</time>
      </trkpt>
      <trkpt lat="47.64233" lon="-2.7759">
        <ele>24.9</ele>
        <time>2020-06-06T13:15:01Z</time>
      </trkpt>
      <trkpt lat="47.64238" lon="-2.77598">
        <ele>24.7</ele>
        <time>2020-06-06T13:15:02Z</time>
      </trkpt>
      <trkpt lat="47.64241" lon="-2.77607">
        <ele>24.5</ele>
        <time>2020-06-06T13:15:03Z</time>
      </trkpt>
      <trkpt lat="47.64246" lon="-2.77614">
        <ele>24.3</ele>
        <time>2020-06-06T13:15:04Z</time>
      </trkpt>
      <trkpt lat="47.64251" lon="-2.77621">
        <ele>24</ele>
        <time>2020-06-06T13:15:05Z</time>
      </trkpt>
      <trkpt lat="47.64257" lon="-2.77627">
        <ele>23.8</ele>
        <time>2020-06-06T13:15:06Z</time>
      </trkpt>
      <trkpt lat="47.64262" lon="-2.77634">
        <ele>23.6</ele>
        <time>2020-06-06T13:15:07Z</time>
      </trkpt>
      <trkpt lat="47.64269" lon="-2.77642">
        <ele>23.3</ele>
        <time>2020-06-06T13:15:08Z</time>
      </trkpt>
      <trkpt lat="47.64274" lon="-2.77649">
        <ele>23</ele>
        <time>2020-06-06T13:15:09Z</time>
      </trkpt>
      <trkpt lat="47.6428" lon="-2.77655">
        <ele>22.8</ele>
        <time>2020-06-06T13:15:10Z</time>
      </trkpt>
      <trkpt lat="47.64286" lon="-2.77662">
        <ele>22.5</ele>
        <time>2020-06-06T13:15:11Z</time>
      </trkpt>
      <trkpt lat="47.64293" lon="-2.77669">
        <ele>22.2</ele>
        <time>2020-06-06T13:15:12Z</time>
      </trkpt>
      <trkpt lat="47.64299" lon="-2.77677">
        <ele>21.9</ele>
        <time>2020-06-06T13:15:13Z</time>
      </trkpt>
      <trkpt lat="47.64306" lon="-2.77684">
        <ele>21.7</ele>
        <time>2020-06-06T13:15:14Z</time>
      </trkpt>
      <trkpt lat="47.64317" lon="-2.77694">
        <ele>21.3</ele>
        <time>2020-06-06T13:15:15Z</time>
      </trkpt>
      <trkpt lat="47.64325" lon="-2.77702">
        <ele>21.1</ele>
        <time>2020-06-06T13:15:16Z</time>
      </trkpt>
      <trkpt lat="47.64333" lon="-2.77711">
        <ele>21</ele>
        <time>2020-06-06T13:15:17Z</time>
      </trkpt>
      <trkpt lat="47.64341" lon="-2.7772">
        <ele>20.8</ele>
        <time>2020-06-06T13:15:18Z</time>
      </trkpt>
      <trkpt lat="47.64349" lon="-2.77728">
        <ele>20.6</ele>
        <time>2020-06-06T13:15:19Z</time>
      </trkpt>
      <trkpt lat="47.64358" lon="-2.77737">
        <ele>20.5</ele>
        <time>2020-06-06T13:15:20Z</time>
      </trkpt>
      <trkpt lat="47.64367" lon="-2.77746">
        <ele>20.4</ele>
        <time>2020-06-06T13:15:21Z</time>
      </trkpt>
      <trkpt lat="47.64375" lon="-2.77755">
        <ele>20.3</ele>
        <time>2020-06-06T13:15:22Z</time>
      </trkpt>
      <trkpt lat="47.64382" lon="-2.77763">
        <ele>20.2</ele>
        <time>2020-06-06T13:15:23Z</time>
      </trkpt>
      <trkpt lat="47.64389" lon="-2.77771">
        <ele>20.1</ele>
        <time>2020-06-06T13:15:24Z</time>
      </trkpt>
      <trkpt lat="47.64397" lon="-2.7778">
        <ele>20</ele>
        <time>2020-06-06T13:15:25Z</time>
      </trkpt>
      <trkpt lat="47.64403" lon="-2.77788">
        <ele>19.9</ele>
        <time>2020-06-06T13:15:26Z</time>
      </trkpt>
      <trkpt lat="47.6441" lon="-2.77797">
        <ele>19.8</ele>
        <time>2020-06-06T13:15:27Z</time>
      </trkpt>
      <trkpt lat="47.64416" lon="-2.77805">
        <ele>19.8</ele>
        <time>2020-06-06T13:15:28Z</time>
      </trkpt>
      <trkpt lat="47.64422" lon="-2.77813">
        <ele>19.8</ele>
        <time>2020-06-06T13:15:29Z</time>
      </trkpt>
      <trkpt lat="47.64429" lon="-2.7782">
        <ele>19.8</ele>
        <time>2020-06-06T13:15:30Z</time>
      </trkpt>
      <trkpt lat="47.64435" lon="-2.77827">
        <ele>19.7</ele>
        <time>2020-06-06T13:15:31Z</time>
      </trkpt>
      <trkpt lat="47.64443" lon="-2.77833">
        <ele>19.6</ele>
        <time>2020-06-06T13:15:32Z</time>
      </trkpt>
      <trkpt lat="47.6445" lon="-2.77838">
        <ele>19.1</ele>
        <time>2020-06-06T13:15:33Z</time>
      </trkpt>
      <trkpt lat="47.64458" lon="-2.77841">
        <ele>19.1</ele>
        <time>2020-06-06T13:15:34Z</time>
      </trkpt>
      <trkpt lat="47.64465" lon="-2.77846">
        <ele>19.1</ele>
        <time>2020-06-06T13:15:35Z</time>
      </trkpt>
      <trkpt lat="47.64472" lon="-2.77852">
        <ele>19.1</ele>
        <time>2020-06-06T13:15:36Z</time>
      </trkpt>
      <trkpt lat="47.64479" lon="-2.77857">
        <ele>19.1</ele>
        <time>2020-06-06T13:15:37Z</time>
      </trkpt>
      <trkpt lat="47.64486" lon="-2.77863">
        <ele>19</ele>
        <time>2020-06-06T13:15:38Z</time>
      </trkpt>
      <trkpt lat="47.64493" lon="-2.77868">
        <ele>18.9</ele>
        <time>2020-06-06T13:15:39Z</time>
      </trkpt>
      <trkpt lat="47.645" lon="-2.77874">
        <ele>18.8</ele>
        <time>2020-06-06T13:15:40Z</time>
      </trkpt>
      <trkpt lat="47.64507" lon="-2.77879">
        <ele>18.7</ele>
        <time>2020-06-06T13:15:41Z</time>
      </trkpt>
      <trkpt lat="47.64513" lon="-2.77885">
        <ele>18.6</ele>
        <time>2020-06-06T13:15:42Z</time>
      </trkpt>
      <trkpt lat="47.64519" lon="-2.77891">
        <ele>18.5</ele>
        <time>2020-06-06T13:15:43Z</time>
      </trkpt>
      <trkpt lat="47.64524" lon="-2.77896">
        <ele>18.4</ele>
        <time>2020-06-06T13:15:44Z</time>
      </trkpt>
      <trkpt lat="47.6453" lon="-2.77902">
        <ele>18.2</ele>
        <time>2020-06-06T13:15:45Z</time>
      </trkpt>
      <trkpt lat="47.64535" lon="-2.77908">
        <ele>18.1</ele>
        <time>2020-06-06T13:15:46Z</time>
      </trkpt>
      <trkpt lat="47.6454" lon="-2.77914">
        <ele>17.9</ele>
        <time>2020-06-06T13:15:47Z</time>
      </trkpt>
      <trkpt lat="47.64544" lon="-2.77919">
        <ele>17.8</ele>
        <time>2020-06-06T13:15:48Z</time>
      </trkpt>
      <trkpt lat="47.64549" lon="-2.77925">
        <ele>17.6</ele>
        <time>2020-06-06T13:15:49Z</time>
      </trkpt>
      <trkpt lat="47.64553" lon="-2.7793">
        <ele>17.5</ele>
        <time>2020-06-06T13:15:50Z</time>
      </trkpt>
      <trkpt lat="47.64558" lon="-2.77935">
        <ele>17.3</ele>
        <time>2020-06-06T13:15:51Z</time>
      </trkpt>
      <trkpt lat="47.64562" lon="-2.7794">
        <ele>17.1</ele>
        <time>2020-06-06T13:15:52Z</time>
      </trkpt>
      <trkpt lat="47.64567" lon="-2.77944">
        <ele>16.9</ele>
        <time>2020-06-06T13:15:53Z</time>
      </trkpt>
      <trkpt lat="47.64572" lon="-2.77948">
        <ele>16.7</ele>
        <time>2020-06-06T13:15:54Z</time>
      </trkpt>
      <trkpt lat="47.64577" lon="-2.77953">
        <ele>16.5</ele>
        <time>2020-06-06T13:15:55Z</time>
      </trkpt>
      <trkpt lat="47.64582" lon="-2.77958">
        <ele>16.3</ele>
        <time>2020-06-06T13:15:56Z</time>
      </trkpt>
      <trkpt lat="47.64586" lon="-2.77964">
        <ele>16</ele>
        <time>2020-06-06T13:15:57Z</time>
      </trkpt>
      <trkpt lat="47.6459" lon="-2.77969">
        <ele>15.8</ele>
        <time>2020-06-06T13:15:58Z</time>
      </trkpt>
      <trkpt lat="47.64595" lon="-2.77974">
        <ele>15.6</ele>
        <time>2020-06-06T13:15:59Z</time>
      </trkpt>
      <trkpt lat="47.64598" lon="-2.7798">
        <ele>15.3</ele>
        <time>2020-06-06T13:16:00Z</time>
      </trkpt>
      <trkpt lat="47.64602" lon="-2.77986">
        <ele>15</ele>
        <time>2020-06-06T13:16:01Z</time>
      </trkpt>
      <trkpt lat="47.64606" lon="-2.77991">
        <ele>14.7</ele>
        <time>2020-06-06T13:16:02Z</time>
      </trkpt>
      <trkpt lat="47.6461" lon="-2.77995">
        <ele>14.5</ele>
        <time>2020-06-06T13:16:03Z</time>
      </trkpt>
      <trkpt lat="47.64612" lon="-2.77998">
        <ele>14.2</ele>
        <time>2020-06-06T13:16:04Z</time>
      </trkpt>
      <trkpt lat="47.64615" lon="-2.78001">
        <ele>14.1</ele>
        <time>2020-06-06T13:16:05Z</time>
      </trkpt>
      <trkpt lat="47.64617" lon="-2.78003">
        <ele>13.9</ele>
        <time>2020-06-06T13:16:06Z</time>
      </trkpt>
      <trkpt lat="47.64618" lon="-2.78004">
        <ele>13.9</ele>
        <time>2020-06-06T13:16:07Z</time>
      </trkpt>
      <trkpt lat="47.6462" lon="-2.78006">
        <ele>13.8</ele>
        <time>2020-06-06T13:16:08Z</time>
      </trkpt>
      <trkpt lat="47.6462" lon="-2.78008">
        <ele>13.7</ele>
        <time>2020-06-06T13:16:09Z</time>
      </trkpt>
      <trkpt lat="47.64621" lon="-2.78009">
        <ele>13.6</ele>
        <time>2020-06-06T13:16:10Z</time>
      </trkpt>
      <trkpt lat="47.64623" lon="-2.78012">
        <ele>13.4</ele>
        <time>2020-06-06T13:16:11Z</time>
      </trkpt>
      <trkpt lat="47.64626" lon="-2.78014">
        <ele>13.5</ele>
        <time>2020-06-06T13:16:12Z</time>
      </trkpt>
      <trkpt lat="47.64628" lon="-2.78017">
        <ele>13.5</ele>
        <time>2020-06-06T13:16:13Z</time>
      </trkpt>
      <trkpt lat="47.6463" lon="-2.78019">
        <ele>13.6</ele>
        <time>2020-06-06T13:16:14Z</time>
      </trkpt>
      <trkpt lat="47.64633" lon="-2.78022">
        <ele>13.4</ele>
        <time>2020-06-06T13:16:15Z</time>
      </trkpt>
      <trkpt lat="47.64636" lon="-2.78025">
        <ele>13.3</ele>
        <time>2020-06-06T13:16:16Z</time>
      </trkpt>
      <trkpt lat="47.64639" lon="-2.78028">
        <ele>13.1</ele>
        <time>2020-06-06T13:16:17Z</time>
      </trkpt>
      <trkpt lat="47.64644" lon="-2.78032">
        <ele>12.8</ele>
        <time>2020-06-06T13:16:18Z</time>
      </trkpt>
      <trkpt lat="47.64649" lon="-2.78035">
        <ele>12.5</ele>
        <time>2020-06-06T13:16:19Z</time>
      </trkpt>
      <trkpt lat="47.64653" lon="-2.78039">
        <ele>12.2</ele>
        <time>2020-06-06T13:16:20Z</time>
      </trkpt>
      <trkpt lat="47.64656" lon="-2.78043">
        <ele>11.9</ele>
        <time>2020-06-06T13:16:21Z</time>
      </trkpt>
      <trkpt lat="47.64657" lon="-2.78048">
        <ele>11.4</ele>
        <time>2020-06-06T13:16:22Z</time>
      </trkpt>
      <trkpt lat="47.64658" lon="-2.78054">
        <ele>11.2</ele>
        <time>2020-06-06T13:16:23Z</time>
      </trkpt>
      <trkpt lat="47.6466" lon="-2.78058">
        <ele>11.1</ele>
        <time>2020-06-06T13:16:24Z</time>
      </trkpt>
      <trkpt lat="47.64662" lon="-2.78063">
        <ele>11</ele>
        <time>2020-06-06T13:16:25Z</time>
      </trkpt>
      <trkpt lat="47.64666" lon="-2.78067">
        <ele>10.9</ele>
        <time>2020-06-06T13:16:26Z</time>
      </trkpt>
      <trkpt lat="47.64669" lon="-2.78071">
        <ele>10.8</ele>
        <time>2020-06-06T13:16:27Z</time>
      </trkpt>
      <trkpt lat="47.64672" lon="-2.78075">
        <ele>10.7</ele>
        <time>2020-06-06T13:16:28Z</time>
      </trkpt>
      <trkpt lat="47.64676" lon="-2.78078">
        <ele>10.6</ele>
        <time>2020-06-06T13:16:29Z</time>
      </trkpt>
      <trkpt lat="47.64679" lon="-2.78083">
        <ele>10.5</ele>
        <time>2020-06-06T13:16:30Z</time>
      </trkpt>
      <trkpt lat="47.64682" lon="-2.78087">
        <ele>10.5</ele>
        <time>2020-06-06T13:16:31Z</time>
      </trkpt>
      <trkpt lat="47.64686" lon="-2.78092">
        <ele>10.5</ele>
        <time>2020-06-06T13:16:32Z</time>
      </trkpt>
      <trkpt lat="47.64689" lon="-2.78097">
        <ele>10.6</ele>
        <time>2020-06-06T13:16:33Z</time>
      </trkpt>
      <trkpt lat="47.64693" lon="-2.78102">
        <ele>10.6</ele>
        <time>2020-06-06T13:16:34Z</time>
      </trkpt>
      <trkpt lat="47.64697" lon="-2.78106">
        <ele>10.7</ele>
        <time>2020-06-06T13:16:35Z</time>
      </trkpt>
      <trkpt lat="47.64701" lon="-2.7811">
        <ele>10.8</ele>
        <time>2020-06-06T13:16:36Z</time>
      </trkpt>
      <trkpt lat="47.64705" lon="-2.78113">
        <ele>10.9</ele>
        <time>2020-06-06T13:16:37Z</time>
      </trkpt>
      <trkpt lat="47.64709" lon="-2.78116">
        <ele>11</ele>
        <time>2020-06-06T13:16:38Z</time>
      </trkpt>
      <trkpt lat="47.64713" lon="-2.78119">
        <ele>11.1</ele>
        <time>2020-06-06T13:16:39Z</time>
      </trkpt>
      <trkpt lat="47.64716" lon="-2.78122">
        <ele>11.2</ele>
        <time>2020-06-06T13:16:40Z</time>
      </trkpt>
      <trkpt lat="47.64719" lon="-2.78124">
        <ele>11.3</ele>
        <time>2020-06-06T13:16:41Z</time>
      </trkpt>
      <trkpt lat="47.64723" lon="-2.78126">
        <ele>11.4</ele>
        <time>2020-06-06T13:16:42Z</time>
      </trkpt>
      <trkpt lat="47.64727" lon="-2.78128">
        <ele>11.5</ele>
        <time>2020-06-06T13:16:43Z</time>
      </trkpt>
      <trkpt lat="47.64731" lon="-2.78129">
        <ele>11.6</ele>
        <time>2020-06-06T13:16:44Z</time>
      </trkpt>
      <trkpt lat="47.64734" lon="-2.78132">
        <ele>11.7</ele>
        <time>2020-06-06T13:16:45Z</time>
      </trkpt>
      <trkpt lat="47.64738" lon="-2.78134">
        <ele>11.8</ele>
        <time>2020-06-06T13:16:46Z</time>
      </trkpt>
      <trkpt lat="47.64742" lon="-2.78137">
        <ele>11.9</ele>
        <time>2020-06-06T13:16:47Z</time>
      </trkpt>
      <trkpt lat="47.64745" lon="-2.78142">
        <ele>12.1</ele>
        <time>2020-06-06T13:16:48Z</time>
      </trkpt>
      <trkpt lat="47.64749" lon="-2.78145">
        <ele>12.2</ele>
        <time>2020-06-06T13:16:49Z</time>
      </trkpt>
      <trkpt lat="47.64752" lon="-2.78148">
        <ele>12.3</ele>
        <time>2020-06-06T13:16:50Z</time>
      </trkpt>
      <trkpt lat="47.64756" lon="-2.78151">
        <ele>12.4</ele>
        <time>2020-06-06T13:16:51Z</time>
      </trkpt>
      <trkpt lat="47.6476" lon="-2.78154">
        <ele>12.5</ele>
        <time>2020-06-06T13:16:52Z</time>
      </trkpt>
      <trkpt lat="47.64763" lon="-2.78156">
        <ele>12.6</ele>
        <time>2020-06-06T13:16:53Z</time>
      </trkpt>
      <trkpt lat="47.64766" lon="-2.78156">
        <ele>12.7</ele>
        <time>2020-06-06T13:16:54Z</time>
      </trkpt>
      <trkpt lat="47.64769" lon="-2.78158">
        <ele>12.8</ele>
        <time>2020-06-06T13:16:55Z</time>
      </trkpt>
      <trkpt lat="47.64772" lon="-2.78158">
        <ele>12.8</ele>
        <time>2020-06-06T13:16:56Z</time>
      </trkpt>
      <trkpt lat="47.64775" lon="-2.7816">
        <ele>12.9</ele>
        <time>2020-06-06T13:16:57Z</time>
      </trkpt>
      <trkpt lat="47.64779" lon="-2.78163">
        <ele>13</ele>
        <time>2020-06-06T13:16:58Z</time>
      </trkpt>
      <trkpt lat="47.64783" lon="-2.78166">
        <ele>13.1</ele>
        <time>2020-06-06T13:16:59Z</time>
      </trkpt>
      <trkpt lat="47.64787" lon="-2.78169">
        <ele>13.2</ele>
        <time>2020-06-06T13:17:00Z</time>
      </trkpt>
      <trkpt lat="47.6479" lon="-2.7817">
        <ele>13.3</ele>
        <time>2020-06-06T13:17:01Z</time>
      </trkpt>
      <trkpt lat="47.64792" lon="-2.78172">
        <ele>13.4</ele>
        <time>2020-06-06T13:17:02Z</time>
      </trkpt>
      <trkpt lat="47.64796" lon="-2.78175">
        <ele>13.5</ele>
        <time>2020-06-06T13:17:03Z</time>
      </trkpt>
      <trkpt lat="47.648" lon="-2.78178">
        <ele>13.7</ele>
        <time>2020-06-06T13:17:04Z</time>
      </trkpt>
      <trkpt lat="47.64805" lon="-2.78181">
        <ele>13.9</ele>
        <time>2020-06-06T13:17:05Z</time>
      </trkpt>
      <trkpt lat="47.6481" lon="-2.78184">
        <ele>14.1</ele>
        <time>2020-06-06T13:17:06Z</time>
      </trkpt>
      <trkpt lat="47.64816" lon="-2.78188">
        <ele>14.3</ele>
        <time>2020-06-06T13:17:07Z</time>
      </trkpt>
      <trkpt lat="47.6482" lon="-2.78191">
        <ele>14.5</ele>
        <time>2020-06-06T13:17:08Z</time>
      </trkpt>
      <trkpt lat="47.64824" lon="-2.78194">
        <ele>14.6</ele>
        <time>2020-06-06T13:17:09Z</time>
      </trkpt>
      <trkpt lat="47.64828" lon="-2.78197">
        <ele>14.8</ele>
        <time>2020-06-06T13:17:10Z</time>
      </trkpt>
      <trkpt lat="47.64833" lon="-2.78198">
        <ele>14.9</ele>
        <time>2020-06-06T13:17:11Z</time>
      </trkpt>
      <trkpt lat="47.64837" lon="-2.782">
        <ele>15.1</ele>
        <time>2020-06-06T13:17:12Z</time>
      </trkpt>
      <trkpt lat="47.64842" lon="-2.78202">
        <ele>15.2</ele>
        <time>2020-06-06T13:17:13Z</time>
      </trkpt>
      <trkpt lat="47.64846" lon="-2.78204">
        <ele>15.4</ele>
        <time>2020-06-06T13:17:14Z</time>
      </trkpt>
      <trkpt lat="47.6485" lon="-2.78204">
        <ele>15.5</ele>
        <time>2020-06-06T13:17:15Z</time>
      </trkpt>
      <trkpt lat="47.64855" lon="-2.78206">
        <ele>15.7</ele>
        <time>2020-06-06T13:17:16Z</time>
      </trkpt>
      <trkpt lat="47.64858" lon="-2.78209">
        <ele>15.8</ele>
        <time>2020-06-06T13:17:17Z</time>
      </trkpt>
      <trkpt lat="47.64861" lon="-2.78211">
        <ele>16</ele>
        <time>2020-06-06T13:17:18Z</time>
      </trkpt>
      <trkpt lat="47.64864" lon="-2.78212">
        <ele>16.1</ele>
        <time>2020-06-06T13:17:19Z</time>
      </trkpt>
      <trkpt lat="47.64867" lon="-2.78213">
        <ele>16.2</ele>
        <time>2020-06-06T13:17:20Z</time>
      </trkpt>
      <trkpt lat="47.64871" lon="-2.78216">
        <ele>16.4</ele>
        <time>2020-06-06T13:17:21Z</time>
      </trkpt>
      <trkpt lat="47.64873" lon="-2.78218">
        <ele>16.5</ele>
        <time>2020-06-06T13:17:22Z</time>
      </trkpt>
      <trkpt lat="47.64876" lon="-2.78219">
        <ele>16.7</ele>
        <time>2020-06-06T13:17:23Z</time>
      </trkpt>
      <trkpt lat="47.64879" lon="-2.78222">
        <ele>16.8</ele>
        <time>2020-06-06T13:17:24Z</time>
      </trkpt>
      <trkpt lat="47.64882" lon="-2.78223">
        <ele>16.9</ele>
        <time>2020-06-06T13:17:25Z</time>
      </trkpt>
      <trkpt lat="47.64886" lon="-2.78225">
        <ele>17.1</ele>
        <time>2020-06-06T13:17:26Z</time>
      </trkpt>
      <trkpt lat="47.64889" lon="-2.78227">
        <ele>17.2</ele>
        <time>2020-06-06T13:17:27Z</time>
      </trkpt>
      <trkpt lat="47.64893" lon="-2.78229">
        <ele>17.3</ele>
        <time>2020-06-06T13:17:28Z</time>
      </trkpt>
      <trkpt lat="47.64896" lon="-2.78231">
        <ele>17.5</ele>
        <time>2020-06-06T13:17:29Z</time>
      </trkpt>
      <trkpt lat="47.64899" lon="-2.78231">
        <ele>17.6</ele>
        <time>2020-06-06T13:17:30Z</time>
      </trkpt>
      <trkpt lat="47.64903" lon="-2.78233">
        <ele>17.7</ele>
        <time>2020-06-06T13:17:31Z</time>
      </trkpt>
      <trkpt lat="47.64908" lon="-2.78236">
        <ele>17.9</ele>
        <time>2020-06-06T13:17:32Z</time>
      </trkpt>
      <trkpt lat="47.64911" lon="-2.78237">
        <ele>18</ele>
        <time>2020-06-06T13:17:33Z</time>
      </trkpt>
      <trkpt lat="47.64914" lon="-2.78239">
        <ele>18.1</ele>
        <time>2020-06-06T13:17:34Z</time>
      </trkpt>
      <trkpt lat="47.64917" lon="-2.7824">
        <ele>18.3</ele>
        <time>2020-06-06T13:17:35Z</time>
      </trkpt>
      <trkpt lat="47.64921" lon="-2.78243">
        <ele>18.4</ele>
        <time>2020-06-06T13:17:36Z</time>
      </trkpt>
      <trkpt lat="47.64923" lon="-2.78244">
        <ele>18.5</ele>
        <time>2020-06-06T13:17:37Z</time>
      </trkpt>
      <trkpt lat="47.64927" lon="-2.78246">
        <ele>18.7</ele>
        <time>2020-06-06T13:17:38Z</time>
      </trkpt>
      <trkpt lat="47.6493" lon="-2.78249">
        <ele>18.8</ele>
        <time>2020-06-06T13:17:39Z</time>
      </trkpt>
      <trkpt lat="47.64934" lon="-2.7825">
        <ele>18.9</ele>
        <time>2020-06-06T13:17:40Z</time>
      </trkpt>
      <trkpt lat="47.64938" lon="-2.78251">
        <ele>19.1</ele>
        <time>2020-06-06T13:17:41Z</time>
      </trkpt>
      <trkpt lat="47.64942" lon="-2.78252">
        <ele>19.2</ele>
        <time>2020-06-06T13:17:42Z</time>
      </trkpt>
      <trkpt lat="47.64945" lon="-2.78252">
        <ele>19.3</ele>
        <time>2020-06-06T13:17:43Z</time>
      </trkpt>
      <trkpt lat="47.64949" lon="-2.78253">
        <ele>19.4</ele>
        <time>2020-06-06T13:17:44Z</time>
      </trkpt>
      <trkpt lat="47.64952" lon="-2.78253">
        <ele>19.5</ele>
        <time>2020-06-06T13:17:45Z</time>
      </trkpt>
      <trkpt lat="47.64956" lon="-2.78254">
        <ele>19.7</ele>
        <time>2020-06-06T13:17:46Z</time>
      </trkpt>
      <trkpt lat="47.64959" lon="-2.78255">
        <ele>19.8</ele>
        <time>2020-06-06T13:17:47Z</time>
      </trkpt>
      <trkpt lat="47.64963" lon="-2.78257">
        <ele>19.9</ele>
        <time>2020-06-06T13:17:48Z</time>
      </trkpt>
      <trkpt lat="47.64966" lon="-2.78259">
        <ele>20</ele>
        <time>2020-06-06T13:17:49Z</time>
      </trkpt>
      <trkpt lat="47.6497" lon="-2.78261">
        <ele>20.1</ele>
        <time>2020-06-06T13:17:50Z</time>
      </trkpt>
      <trkpt lat="47.64974" lon="-2.78262">
        <ele>20.2</ele>
        <time>2020-06-06T13:17:51Z</time>
      </trkpt>
      <trkpt lat="47.64978" lon="-2.78263">
        <ele>20.4</ele>
        <time>2020-06-06T13:17:52Z</time>
      </trkpt>
      <trkpt lat="47.64982" lon="-2.78263">
        <ele>20.5</ele>
        <time>2020-06-06T13:17:53Z</time>
      </trkpt>
      <trkpt lat="47.64986" lon="-2.78264">
        <ele>20.7</ele>
        <time>2020-06-06T13:17:54Z</time>
      </trkpt>
      <trkpt lat="47.6499" lon="-2.78265">
        <ele>20.8</ele>
        <time>2020-06-06T13:17:55Z</time>
      </trkpt>
      <trkpt lat="47.64993" lon="-2.78265">
        <ele>20.9</ele>
        <time>2020-06-06T13:17:56Z</time>
      </trkpt>
      <trkpt lat="47.64996" lon="-2.78266">
        <ele>21.1</ele>
        <time>2020-06-06T13:17:57Z</time>
      </trkpt>
      <trkpt lat="47.64999" lon="-2.78268">
        <ele>21.2</ele>
        <time>2020-06-06T13:17:58Z</time>
      </trkpt>
      <trkpt lat="47.65003" lon="-2.78269">
        <ele>21.3</ele>
        <time>2020-06-06T13:17:59Z</time>
      </trkpt>
      <trkpt lat="47.65006" lon="-2.78271">
        <ele>21.4</ele>
        <time>2020-06-06T13:18:00Z</time>
      </trkpt>
      <trkpt lat="47.6501" lon="-2.78271">
        <ele>21.6</ele>
        <time>2020-06-06T13:18:01Z</time>
      </trkpt>
      <trkpt lat="47.65013" lon="-2.78274">
        <ele>21.7</ele>
        <time>2020-06-06T13:18:02Z</time>
      </trkpt>
      <trkpt lat="47.65017" lon="-2.78277">
        <ele>21.8</ele>
        <time>2020-06-06T13:18:03Z</time>
      </trkpt>
      <trkpt lat="47.65022" lon="-2.78278">
        <ele>21.9</ele>
        <time>2020-06-06T13:18:04Z</time>
      </trkpt>
      <trkpt lat="47.65026" lon="-2.78279">
        <ele>22</ele>
        <time>2020-06-06T13:18:05Z</time>
      </trkpt>
      <trkpt lat="47.65029" lon="-2.78281">
        <ele>22.2</ele>
        <time>2020-06-06T13:18:06Z</time>
      </trkpt>
      <trkpt lat="47.65033" lon="-2.78283">
        <ele>22.3</ele>
        <time>2020-06-06T13:18:07Z</time>
      </trkpt>
      <trkpt lat="47.65037" lon="-2.78284">
        <ele>22.4</ele>
        <time>2020-06-06T13:18:09Z</time>
      </trkpt>
      <trkpt lat="47.6504" lon="-2.78285">
        <ele>22.5</ele>
        <time>2020-06-06T13:18:10Z</time>
      </trkpt>
      <trkpt lat="47.65044" lon="-2.78286">
        <ele>22.6</ele>
        <time>2020-06-06T13:18:11Z</time>
      </trkpt>
      <trkpt lat="47.65048" lon="-2.78287">
        <ele>22.7</ele>
        <time>2020-06-06T13:18:12Z</time>
      </trkpt>
      <trkpt lat="47.65052" lon="-2.78287">
        <ele>22.8</ele>
        <time>2020-06-06T13:18:13Z</time>
      </trkpt>
      <trkpt lat="47.65055" lon="-2.78287">
        <ele>22.9</ele>
        <time>2020-06-06T13:18:14Z</time>
      </trkpt>
      <trkpt lat="47.65059" lon="-2.78288">
        <ele>23</ele>
        <time>2020-06-06T13:18:15Z</time>
      </trkpt>
      <trkpt lat="47.65063" lon="-2.78289">
        <ele>23.1</ele>
        <time>2020-06-06T13:18:16Z</time>
      </trkpt>
      <trkpt lat="47.65067" lon="-2.7829">
        <ele>23.2</ele>
        <time>2020-06-06T13:18:17Z</time>
      </trkpt>
      <trkpt lat="47.65069" lon="-2.78292">
        <ele>23.2</ele>
        <time>2020-06-06T13:18:18Z</time>
      </trkpt>
      <trkpt lat="47.65072" lon="-2.78293">
        <ele>23.4</ele>
        <time>2020-06-06T13:18:19Z</time>
      </trkpt>
      <trkpt lat="47.65077" lon="-2.78295">
        <ele>23.4</ele>
        <time>2020-06-06T13:18:20Z</time>
      </trkpt>
      <trkpt lat="47.6508" lon="-2.78296">
        <ele>23.5</ele>
        <time>2020-06-06T13:18:21Z</time>
      </trkpt>
      <trkpt lat="47.65083" lon="-2.78297">
        <ele>23.5</ele>
        <time>2020-06-06T13:18:22Z</time>
      </trkpt>
      <trkpt lat="47.65087" lon="-2.78298">
        <ele>23.6</ele>
        <time>2020-06-06T13:18:23Z</time>
      </trkpt>
      <trkpt lat="47.65091" lon="-2.78299">
        <ele>23.6</ele>
        <time>2020-06-06T13:18:24Z</time>
      </trkpt>
      <trkpt lat="47.65095" lon="-2.783">
        <ele>23.7</ele>
        <time>2020-06-06T13:18:25Z</time>
      </trkpt>
      <trkpt lat="47.651" lon="-2.78301">
        <ele>23.7</ele>
        <time>2020-06-06T13:18:26Z</time>
      </trkpt>
      <trkpt lat="47.65104" lon="-2.78303">
        <ele>23.7</ele>
        <time>2020-06-06T13:18:27Z</time>
      </trkpt>
      <trkpt lat="47.65108" lon="-2.78303">
        <ele>23.7</ele>
        <time>2020-06-06T13:18:28Z</time>
      </trkpt>
      <trkpt lat="47.65112" lon="-2.78304">
        <ele>23.7</ele>
        <time>2020-06-06T13:18:29Z</time>
      </trkpt>
      <trkpt lat="47.65115" lon="-2.78304">
        <ele>23.7</ele>
        <time>2020-06-06T13:18:30Z</time>
      </trkpt>
      <trkpt lat="47.65119" lon="-2.78305">
        <ele>23.7</ele>
        <time>2020-06-06T13:18:31Z</time>
      </trkpt>
      <trkpt lat="47.65123" lon="-2.78306">
        <ele>23.7</ele>
        <time>2020-06-06T13:18:32Z</time>
      </trkpt>
      <trkpt lat="47.65127" lon="-2.78306">
        <ele>23.7</ele>
        <time>2020-06-06T13:18:33Z</time>
      </trkpt>
      <trkpt lat="47.65132" lon="-2.78308">
        <ele>23.8</ele>
        <time>2020-06-06T13:18:34Z</time>
      </trkpt>
      <trkpt lat="47.65137" lon="-2.78309">
        <ele>23.8</ele>
        <time>2020-06-06T13:18:35Z</time>
      </trkpt>
      <trkpt lat="47.65141" lon="-2.7831">
        <ele>23.8</ele>
        <time>2020-06-06T13:18:36Z</time>
      </trkpt>
      <trkpt lat="47.65146" lon="-2.7831">
        <ele>23.9</ele>
        <time>2020-06-06T13:18:37Z</time>
      </trkpt>
      <trkpt lat="47.6515" lon="-2.78312">
        <ele>24</ele>
        <time>2020-06-06T13:18:38Z</time>
      </trkpt>
      <trkpt lat="47.65155" lon="-2.78314">
        <ele>24.1</ele>
        <time>2020-06-06T13:18:39Z</time>
      </trkpt>
      <trkpt lat="47.65159" lon="-2.78314">
        <ele>24.1</ele>
        <time>2020-06-06T13:18:40Z</time>
      </trkpt>
      <trkpt lat="47.65163" lon="-2.78315">
        <ele>24.2</ele>
        <time>2020-06-06T13:18:41Z</time>
      </trkpt>
      <trkpt lat="47.65167" lon="-2.78316">
        <ele>24.2</ele>
        <time>2020-06-06T13:18:42Z</time>
      </trkpt>
      <trkpt lat="47.6517" lon="-2.78316">
        <ele>24.2</ele>
        <time>2020-06-06T13:18:43Z</time>
      </trkpt>
      <trkpt lat="47.65174" lon="-2.78317">
        <ele>24.3</ele>
        <time>2020-06-06T13:18:44Z</time>
      </trkpt>
      <trkpt lat="47.65178" lon="-2.78319">
        <ele>24.3</ele>
        <time>2020-06-06T13:18:45Z</time>
      </trkpt>
      <trkpt lat="47.65183" lon="-2.78321">
        <ele>24.3</ele>
        <time>2020-06-06T13:18:46Z</time>
      </trkpt>
      <trkpt lat="47.65187" lon="-2.78322">
        <ele>24.4</ele>
        <time>2020-06-06T13:18:47Z</time>
      </trkpt>
      <trkpt lat="47.6519" lon="-2.78322">
        <ele>24.4</ele>
        <time>2020-06-06T13:18:48Z</time>
      </trkpt>
      <trkpt lat="47.65194" lon="-2.78323">
        <ele>24.5</ele>
        <time>2020-06-06T13:18:49Z</time>
      </trkpt>
      <trkpt lat="47.65198" lon="-2.78324">
        <ele>24.6</ele>
        <time>2020-06-06T13:18:50Z</time>
      </trkpt>
      <trkpt lat="47.65202" lon="-2.78324">
        <ele>24.6</ele>
        <time>2020-06-06T13:18:51Z</time>
      </trkpt>
      <trkpt lat="47.65206" lon="-2.78324">
        <ele>24.7</ele>
        <time>2020-06-06T13:18:52Z</time>
      </trkpt>
      <trkpt lat="47.65211" lon="-2.78324">
        <ele>24.7</ele>
        <time>2020-06-06T13:18:53Z</time>
      </trkpt>
      <trkpt lat="47.65214" lon="-2.78325">
        <ele>24.7</ele>
        <time>2020-06-06T13:18:54Z</time>
      </trkpt>
      <trkpt lat="47.65218" lon="-2.78325">
        <ele>24.7</ele>
        <time>2020-06-06T13:18:55Z</time>
      </trkpt>
      <trkpt lat="47.65222" lon="-2.78325">
        <ele>24.7</ele>
        <time>2020-06-06T13:18:56Z</time>
      </trkpt>
      <trkpt lat="47.65223" lon="-2.78325">
        <ele>24.7</ele>
        <time>2020-06-06T13:18:57Z</time>
      </trkpt>
      <trkpt lat="47.65226" lon="-2.78324">
        <ele>24.7</ele>
        <time>2020-06-06T13:18:58Z</time>
      </trkpt>
      <trkpt lat="47.6523" lon="-2.78324">
        <ele>24.8</ele>
        <time>2020-06-06T13:18:59Z</time>
      </trkpt>
      <trkpt lat="47.65234" lon="-2.78324">
        <ele>24.8</ele>
        <time>2020-06-06T13:19:00Z</time>
      </trkpt>
      <trkpt lat="47.65237" lon="-2.78323">
        <ele>24.9</ele>
        <time>2020-06-06T13:19:01Z</time>
      </trkpt>
      <trkpt lat="47.65241" lon="-2.78324">
        <ele>24.9</ele>
        <time>2020-06-06T13:19:02Z</time>
      </trkpt>
      <trkpt lat="47.65245" lon="-2.78325">
        <ele>25</ele>
        <time>2020-06-06T13:19:03Z</time>
      </trkpt>
      <trkpt lat="47.6525" lon="-2.78326">
        <ele>25.1</ele>
        <time>2020-06-06T13:19:04Z</time>
      </trkpt>
      <trkpt lat="47.65254" lon="-2.78327">
        <ele>25.2</ele>
        <time>2020-06-06T13:19:05Z</time>
      </trkpt>
      <trkpt lat="47.65259" lon="-2.78327">
        <ele>25.3</ele>
        <time>2020-06-06T13:19:06Z</time>
      </trkpt>
      <trkpt lat="47.65264" lon="-2.78328">
        <ele>25.4</ele>
        <time>2020-06-06T13:19:07Z</time>
      </trkpt>
      <trkpt lat="47.65268" lon="-2.78328">
        <ele>25.5</ele>
        <time>2020-06-06T13:19:08Z</time>
      </trkpt>
      <trkpt lat="47.65272" lon="-2.78328">
        <ele>25.6</ele>
        <time>2020-06-06T13:19:09Z</time>
      </trkpt>
      <trkpt lat="47.65277" lon="-2.78329">
        <ele>25.6</ele>
        <time>2020-06-06T13:19:10Z</time>
      </trkpt>
      <trkpt lat="47.65281" lon="-2.78328">
        <ele>25.7</ele>
        <time>2020-06-06T13:19:11Z</time>
      </trkpt>
      <trkpt lat="47.65285" lon="-2.78327">
        <ele>25.8</ele>
        <time>2020-06-06T13:19:12Z</time>
      </trkpt>
      <trkpt lat="47.65289" lon="-2.78327">
        <ele>25.8</ele>
        <time>2020-06-06T13:19:13Z</time>
      </trkpt>
      <trkpt lat="47.65292" lon="-2.78327">
        <ele>25.8</ele>
        <time>2020-06-06T13:19:14Z</time>
      </trkpt>
      <trkpt lat="47.65296" lon="-2.78327">
        <ele>25.8</ele>
        <time>2020-06-06T13:19:15Z</time>
      </trkpt>
      <trkpt lat="47.65299" lon="-2.78326">
        <ele>25.8</ele>
        <time>2020-06-06T13:19:16Z</time>
      </trkpt>
      <trkpt lat="47.65302" lon="-2.78326">
        <ele>25.9</ele>
        <time>2020-06-06T13:19:17Z</time>
      </trkpt>
      <trkpt lat="47.65305" lon="-2.78326">
        <ele>25.9</ele>
        <time>2020-06-06T13:19:18Z</time>
      </trkpt>
      <trkpt lat="47.6531" lon="-2.78327">
        <ele>25.9</ele>
        <time>2020-06-06T13:19:19Z</time>
      </trkpt>
      <trkpt lat="47.65313" lon="-2.78327">
        <ele>25.9</ele>
        <time>2020-06-06T13:19:20Z</time>
      </trkpt>
      <trkpt lat="47.65316" lon="-2.78328">
        <ele>26</ele>
        <time>2020-06-06T13:19:21Z</time>
      </trkpt>
      <trkpt lat="47.65319" lon="-2.7833">
        <ele>26</ele>
        <time>2020-06-06T13:19:22Z</time>
      </trkpt>
      <trkpt lat="47.65322" lon="-2.78332">
        <ele>26</ele>
        <time>2020-06-06T13:19:23Z</time>
      </trkpt>
      <trkpt lat="47.65325" lon="-2.78333">
        <ele>26</ele>
        <time>2020-06-06T13:19:24Z</time>
      </trkpt>
      <trkpt lat="47.65328" lon="-2.78334">
        <ele>26.1</ele>
        <time>2020-06-06T13:19:25Z</time>
      </trkpt>
      <trkpt lat="47.65331" lon="-2.78334">
        <ele>26.1</ele>
        <time>2020-06-06T13:19:26Z</time>
      </trkpt>
      <trkpt lat="47.65336" lon="-2.78336">
        <ele>26.1</ele>
        <time>2020-06-06T13:19:27Z</time>
      </trkpt>
      <trkpt lat="47.65337" lon="-2.78337">
        <ele>26.1</ele>
        <time>2020-06-06T13:19:28Z</time>
      </trkpt>
      <trkpt lat="47.6534" lon="-2.78342">
        <ele>26.2</ele>
        <time>2020-06-06T13:19:29Z</time>
      </trkpt>
      <trkpt lat="47.6534" lon="-2.78344">
        <ele>26.2</ele>
        <time>2020-06-06T13:19:30Z</time>
      </trkpt>
      <trkpt lat="47.65342" lon="-2.78348">
        <ele>26.2</ele>
        <time>2020-06-06T13:19:31Z</time>
      </trkpt>
      <trkpt lat="47.65343" lon="-2.78352">
        <ele>26.2</ele>
        <time>2020-06-06T13:19:32Z</time>
      </trkpt>
      <trkpt lat="47.65344" lon="-2.78357">
        <ele>26.2</ele>
        <time>2020-06-06T13:19:33Z</time>
      </trkpt>
      <trkpt lat="47.65345" lon="-2.78361">
        <ele>26.3</ele>
        <time>2020-06-06T13:19:34Z</time>
      </trkpt>
      <trkpt lat="47.65346" lon="-2.78366">
        <ele>26.3</ele>
        <time>2020-06-06T13:19:35Z</time>
      </trkpt>
      <trkpt lat="47.65347" lon="-2.78369">
        <ele>26.3</ele>
        <time>2020-06-06T13:19:36Z</time>
      </trkpt>
      <trkpt lat="47.65351" lon="-2.7837">
        <ele>26.3</ele>
        <time>2020-06-06T13:19:37Z</time>
      </trkpt>
      <trkpt lat="47.65353" lon="-2.78369">
        <ele>26.3</ele>
        <time>2020-06-06T13:19:38Z</time>
      </trkpt>
      <trkpt lat="47.65356" lon="-2.78369">
        <ele>26.3</ele>
        <time>2020-06-06T13:19:39Z</time>
      </trkpt>
      <trkpt lat="47.65359" lon="-2.78368">
        <ele>26.4</ele>
        <time>2020-06-06T13:19:40Z</time>
      </trkpt>
      <trkpt lat="47.65363" lon="-2.78367">
        <ele>26.4</ele>
        <time>2020-06-06T13:19:41Z</time>
      </trkpt>
      <trkpt lat="47.65367" lon="-2.78367">
        <ele>26.5</ele>
        <time>2020-06-06T13:19:42Z</time>
      </trkpt>
      <trkpt lat="47.65371" lon="-2.78367">
        <ele>26.5</ele>
        <time>2020-06-06T13:19:43Z</time>
      </trkpt>
      <trkpt lat="47.65375" lon="-2.78366">
        <ele>26.6</ele>
        <time>2020-06-06T13:19:44Z</time>
      </trkpt>
      <trkpt lat="47.6538" lon="-2.78365">
        <ele>26.6</ele>
        <time>2020-06-06T13:19:45Z</time>
      </trkpt>
      <trkpt lat="47.65384" lon="-2.78364">
        <ele>26.6</ele>
        <time>2020-06-06T13:19:46Z</time>
      </trkpt>
      <trkpt lat="47.65388" lon="-2.78364">
        <ele>26.7</ele>
        <time>2020-06-06T13:19:47Z</time>
      </trkpt>
      <trkpt lat="47.65397" lon="-2.78363">
        <ele>26.7</ele>
        <time>2020-06-06T13:19:48Z</time>
      </trkpt>
      <trkpt lat="47.65401" lon="-2.78362">
        <ele>26.8</ele>
        <time>2020-06-06T13:19:49Z</time>
      </trkpt>
      <trkpt lat="47.65404" lon="-2.78359">
        <ele>26.8</ele>
        <time>2020-06-06T13:19:50Z</time>
      </trkpt>
      <trkpt lat="47.65408" lon="-2.78356">
        <ele>26.8</ele>
        <time>2020-06-06T13:19:51Z</time>
      </trkpt>
      <trkpt lat="47.65412" lon="-2.78353">
        <ele>26.9</ele>
        <time>2020-06-06T13:19:52Z</time>
      </trkpt>
      <trkpt lat="47.65416" lon="-2.78352">
        <ele>26.9</ele>
        <time>2020-06-06T13:19:53Z</time>
      </trkpt>
      <trkpt lat="47.65419" lon="-2.78351">
        <ele>27</ele>
        <time>2020-06-06T13:19:54Z</time>
      </trkpt>
      <trkpt lat="47.65422" lon="-2.78351">
        <ele>27</ele>
        <time>2020-06-06T13:19:55Z</time>
      </trkpt>
      <trkpt lat="47.65426" lon="-2.78353">
        <ele>26.9</ele>
        <time>2020-06-06T13:19:56Z</time>
      </trkpt>
      <trkpt lat="47.65427" lon="-2.78359">
        <ele>26.8</ele>
        <time>2020-06-06T13:19:57Z</time>
      </trkpt>
      <trkpt lat="47.65428" lon="-2.78362">
        <ele>26.7</ele>
        <time>2020-06-06T13:19:58Z</time>
      </trkpt>
      <trkpt lat="47.65429" lon="-2.78368">
        <ele>26.6</ele>
        <time>2020-06-06T13:19:59Z</time>
      </trkpt>
      <trkpt lat="47.6543" lon="-2.78375">
        <ele>26.4</ele>
        <time>2020-06-06T13:20:00Z</time>
      </trkpt>
      <trkpt lat="47.65431" lon="-2.78382">
        <ele>26.3</ele>
        <time>2020-06-06T13:20:01Z</time>
      </trkpt>
      <trkpt lat="47.65432" lon="-2.78388">
        <ele>26.1</ele>
        <time>2020-06-06T13:20:02Z</time>
      </trkpt>
      <trkpt lat="47.65433" lon="-2.78393">
        <ele>26.1</ele>
        <time>2020-06-06T13:20:03Z</time>
      </trkpt>
      <trkpt lat="47.65434" lon="-2.78399">
        <ele>26.1</ele>
        <time>2020-06-06T13:20:04Z</time>
      </trkpt>
      <trkpt lat="47.65436" lon="-2.78405">
        <ele>26.1</ele>
        <time>2020-06-06T13:20:05Z</time>
      </trkpt>
      <trkpt lat="47.65437" lon="-2.78411">
        <ele>26.2</ele>
        <time>2020-06-06T13:20:06Z</time>
      </trkpt>
      <trkpt lat="47.65437" lon="-2.78416">
        <ele>26.2</ele>
        <time>2020-06-06T13:20:07Z</time>
      </trkpt>
      <trkpt lat="47.65436" lon="-2.78422">
        <ele>26.5</ele>
        <time>2020-06-06T13:20:08Z</time>
      </trkpt>
      <trkpt lat="47.65436" lon="-2.78428">
        <ele>26.9</ele>
        <time>2020-06-06T13:20:09Z</time>
      </trkpt>
      <trkpt lat="47.65436" lon="-2.78434">
        <ele>27.4</ele>
        <time>2020-06-06T13:20:10Z</time>
      </trkpt>
      <trkpt lat="47.65436" lon="-2.78439">
        <ele>27.5</ele>
        <time>2020-06-06T13:20:11Z</time>
      </trkpt>
      <trkpt lat="47.65435" lon="-2.78444">
        <ele>27.6</ele>
        <time>2020-06-06T13:20:12Z</time>
      </trkpt>
      <trkpt lat="47.65436" lon="-2.78449">
        <ele>27.6</ele>
        <time>2020-06-06T13:20:13Z</time>
      </trkpt>
      <trkpt lat="47.65435" lon="-2.78455">
        <ele>27.6</ele>
        <time>2020-06-06T13:20:14Z</time>
      </trkpt>
      <trkpt lat="47.65436" lon="-2.78461">
        <ele>27.5</ele>
        <time>2020-06-06T13:20:15Z</time>
      </trkpt>
      <trkpt lat="47.65436" lon="-2.78466">
        <ele>27.5</ele>
        <time>2020-06-06T13:20:16Z</time>
      </trkpt>
      <trkpt lat="47.65436" lon="-2.78471">
        <ele>27.4</ele>
        <time>2020-06-06T13:20:17Z</time>
      </trkpt>
      <trkpt lat="47.65435" lon="-2.78476">
        <ele>27.4</ele>
        <time>2020-06-06T13:20:18Z</time>
      </trkpt>
      <trkpt lat="47.65435" lon="-2.7848">
        <ele>27.3</ele>
        <time>2020-06-06T13:20:19Z</time>
      </trkpt>
      <trkpt lat="47.65435" lon="-2.78482">
        <ele>27.3</ele>
        <time>2020-06-06T13:20:20Z</time>
      </trkpt>
      <trkpt lat="47.65435" lon="-2.78483">
        <ele>27.3</ele>
        <time>2020-06-06T13:20:21Z</time>
      </trkpt>
      <trkpt lat="47.65435" lon="-2.78482">
        <ele>27.3</ele>
        <time>2020-06-06T13:20:22Z</time>
      </trkpt>
      <trkpt lat="47.65436" lon="-2.78481">
        <ele>27.3</ele>
        <time>2020-06-06T13:20:23Z</time>
      </trkpt>
      <trkpt lat="47.65436" lon="-2.7848">
        <ele>27.3</ele>
        <time>2020-06-06T13:20:24Z</time>
      </trkpt>
      <trkpt lat="47.65437" lon="-2.78481">
        <ele>27.3</ele>
        <time>2020-06-06T13:20:25Z</time>
      </trkpt>
      <trkpt lat="47.65436" lon="-2.78483">
        <ele>27.3</ele>
        <time>2020-06-06T13:20:26Z</time>
      </trkpt>
      <trkpt lat="47.65436" lon="-2.78486">
        <ele>27.2</ele>
        <time>2020-06-06T13:20:27Z</time>
      </trkpt>
      <trkpt lat="47.65436" lon="-2.78488">
        <ele>27.2</ele>
        <time>2020-06-06T13:20:28Z</time>
      </trkpt>
      <trkpt lat="47.65436" lon="-2.7849">
        <ele>27.2</ele>
        <time>2020-06-06T13:20:29Z</time>
      </trkpt>
      <trkpt lat="47.65435" lon="-2.78494">
        <ele>27.2</ele>
        <time>2020-06-06T13:20:30Z</time>
      </trkpt>
      <trkpt lat="47.65435" lon="-2.78495">
        <ele>27.2</ele>
        <time>2020-06-06T13:20:31Z</time>
      </trkpt>
      <trkpt lat="47.65435" lon="-2.78499">
        <ele>27.2</ele>
        <time>2020-06-06T13:20:32Z</time>
      </trkpt>
      <trkpt lat="47.65435" lon="-2.78504">
        <ele>27.2</ele>
        <time>2020-06-06T13:20:33Z</time>
      </trkpt>
      <trkpt lat="47.65434" lon="-2.78508">
        <ele>27.2</ele>
        <time>2020-06-06T13:20:34Z</time>
      </trkpt>
      <trkpt lat="47.65435" lon="-2.78513">
        <ele>27.1</ele>
        <time>2020-06-06T13:20:35Z</time>
      </trkpt>
      <trkpt lat="47.65435" lon="-2.78514">
        <ele>27.1</ele>
        <time>2020-06-06T13:20:36Z</time>
      </trkpt>
      <trkpt lat="47.65435" lon="-2.7852">
        <ele>27.1</ele>
        <time>2020-06-06T13:20:37Z</time>
      </trkpt>
      <trkpt lat="47.65435" lon="-2.78522">
        <ele>27.1</ele>
        <time>2020-06-06T13:20:38Z</time>
      </trkpt>
      <trkpt lat="47.65437" lon="-2.78527">
        <ele>27</ele>
        <time>2020-06-06T13:20:39Z</time>
      </trkpt>
      <trkpt lat="47.65437" lon="-2.78529">
        <ele>27</ele>
        <time>2020-06-06T13:20:40Z</time>
      </trkpt>
      <trkpt lat="47.65438" lon="-2.78534">
        <ele>26.9</ele>
        <time>2020-06-06T13:20:41Z</time>
      </trkpt>
      <trkpt lat="47.65438" lon="-2.78535">
        <ele>26.9</ele>
        <time>2020-06-06T13:20:42Z</time>
      </trkpt>
      <trkpt lat="47.65439" lon="-2.78539">
        <ele>26.9</ele>
        <time>2020-06-06T13:20:43Z</time>
      </trkpt>
      <trkpt lat="47.65439" lon="-2.78541">
        <ele>26.9</ele>
        <time>2020-06-06T13:20:44Z</time>
      </trkpt>
      <trkpt lat="47.6544" lon="-2.78543">
        <ele>26.8</ele>
        <time>2020-06-06T13:20:45Z</time>
      </trkpt>
      <trkpt lat="47.6544" lon="-2.78546">
        <ele>26.8</ele>
        <time>2020-06-06T13:20:46Z</time>
      </trkpt>
      <trkpt lat="47.65441" lon="-2.7855">
        <ele>26.7</ele>
        <time>2020-06-06T13:20:47Z</time>
      </trkpt>
      <trkpt lat="47.6544" lon="-2.78554">
        <ele>26.7</ele>
        <time>2020-06-06T13:20:48Z</time>
      </trkpt>
      <trkpt lat="47.6544" lon="-2.78559">
        <ele>26.6</ele>
        <time>2020-06-06T13:20:49Z</time>
      </trkpt>
      <trkpt lat="47.65439" lon="-2.78564">
        <ele>26.5</ele>
        <time>2020-06-06T13:20:50Z</time>
      </trkpt>
      <trkpt lat="47.65439" lon="-2.78569">
        <ele>26.4</ele>
        <time>2020-06-06T13:20:51Z</time>
      </trkpt>
      <trkpt lat="47.65439" lon="-2.78575">
        <ele>26.3</ele>
        <time>2020-06-06T13:20:52Z</time>
      </trkpt>
      <trkpt lat="47.65439" lon="-2.78581">
        <ele>26.2</ele>
        <time>2020-06-06T13:20:53Z</time>
      </trkpt>
      <trkpt lat="47.65439" lon="-2.78586">
        <ele>26.1</ele>
        <time>2020-06-06T13:20:54Z</time>
      </trkpt>
      <trkpt lat="47.65439" lon="-2.78594">
        <ele>26</ele>
        <time>2020-06-06T13:20:55Z</time>
      </trkpt>
      <trkpt lat="47.65439" lon="-2.786">
        <ele>26</ele>
        <time>2020-06-06T13:20:56Z</time>
      </trkpt>
      <trkpt lat="47.65439" lon="-2.78607">
        <ele>25.9</ele>
        <time>2020-06-06T13:20:57Z</time>
      </trkpt>
      <trkpt lat="47.65438" lon="-2.78614">
        <ele>25.8</ele>
        <time>2020-06-06T13:20:58Z</time>
      </trkpt>
      <trkpt lat="47.65436" lon="-2.7862">
        <ele>25.7</ele>
        <time>2020-06-06T13:20:59Z</time>
      </trkpt>
      <trkpt lat="47.65436" lon="-2.78627">
        <ele>25.6</ele>
        <time>2020-06-06T13:21:00Z</time>
      </trkpt>
      <trkpt lat="47.65436" lon="-2.78634">
        <ele>25.5</ele>
        <time>2020-06-06T13:21:01Z</time>
      </trkpt>
      <trkpt lat="47.65436" lon="-2.78642">
        <ele>25.4</ele>
        <time>2020-06-06T13:21:02Z</time>
      </trkpt>
      <trkpt lat="47.65437" lon="-2.7865">
        <ele>25.3</ele>
        <time>2020-06-06T13:21:03Z</time>
      </trkpt>
      <trkpt lat="47.65438" lon="-2.78657">
        <ele>25.3</ele>
        <time>2020-06-06T13:21:04Z</time>
      </trkpt>
      <trkpt lat="47.65439" lon="-2.78665">
        <ele>25.2</ele>
        <time>2020-06-06T13:21:05Z</time>
      </trkpt>
      <trkpt lat="47.65438" lon="-2.7867">
        <ele>25.2</ele>
        <time>2020-06-06T13:21:06Z</time>
      </trkpt>
      <trkpt lat="47.65439" lon="-2.78678">
        <ele>25.2</ele>
        <time>2020-06-06T13:21:07Z</time>
      </trkpt>
      <trkpt lat="47.6544" lon="-2.78687">
        <ele>25.1</ele>
        <time>2020-06-06T13:21:08Z</time>
      </trkpt>
      <trkpt lat="47.65441" lon="-2.78694">
        <ele>25</ele>
        <time>2020-06-06T13:21:09Z</time>
      </trkpt>
      <trkpt lat="47.65442" lon="-2.78701">
        <ele>25</ele>
        <time>2020-06-06T13:21:10Z</time>
      </trkpt>
      <trkpt lat="47.65443" lon="-2.7871">
        <ele>24.8</ele>
        <time>2020-06-06T13:21:11Z</time>
      </trkpt>
      <trkpt lat="47.65444" lon="-2.78718">
        <ele>24.6</ele>
        <time>2020-06-06T13:21:12Z</time>
      </trkpt>
      <trkpt lat="47.65444" lon="-2.78724">
        <ele>24.5</ele>
        <time>2020-06-06T13:21:13Z</time>
      </trkpt>
      <trkpt lat="47.65445" lon="-2.78731">
        <ele>24.3</ele>
        <time>2020-06-06T13:21:14Z</time>
      </trkpt>
      <trkpt lat="47.65446" lon="-2.78738">
        <ele>24.2</ele>
        <time>2020-06-06T13:21:15Z</time>
      </trkpt>
      <trkpt lat="47.65447" lon="-2.78745">
        <ele>24.1</ele>
        <time>2020-06-06T13:21:16Z</time>
      </trkpt>
      <trkpt lat="47.65449" lon="-2.78751">
        <ele>23.8</ele>
        <time>2020-06-06T13:21:17Z</time>
      </trkpt>
      <trkpt lat="47.65451" lon="-2.78759">
        <ele>23.8</ele>
        <time>2020-06-06T13:21:18Z</time>
      </trkpt>
      <trkpt lat="47.65452" lon="-2.78766">
        <ele>23.8</ele>
        <time>2020-06-06T13:21:19Z</time>
      </trkpt>
      <trkpt lat="47.65452" lon="-2.78773">
        <ele>23.8</ele>
        <time>2020-06-06T13:21:20Z</time>
      </trkpt>
      <trkpt lat="47.65452" lon="-2.7878">
        <ele>23.8</ele>
        <time>2020-06-06T13:21:21Z</time>
      </trkpt>
      <trkpt lat="47.65453" lon="-2.78787">
        <ele>23.9</ele>
        <time>2020-06-06T13:21:22Z</time>
      </trkpt>
      <trkpt lat="47.65454" lon="-2.78793">
        <ele>23.9</ele>
        <time>2020-06-06T13:21:23Z</time>
      </trkpt>
      <trkpt lat="47.65455" lon="-2.788">
        <ele>23.9</ele>
        <time>2020-06-06T13:21:24Z</time>
      </trkpt>
      <trkpt lat="47.65455" lon="-2.78806">
        <ele>23.9</ele>
        <time>2020-06-06T13:21:25Z</time>
      </trkpt>
      <trkpt lat="47.65455" lon="-2.7881">
        <ele>24</ele>
        <time>2020-06-06T13:21:26Z</time>
      </trkpt>
      <trkpt lat="47.65457" lon="-2.78814">
        <ele>24</ele>
        <time>2020-06-06T13:21:27Z</time>
      </trkpt>
      <trkpt lat="47.65458" lon="-2.78815">
        <ele>24</ele>
        <time>2020-06-06T13:21:28Z</time>
      </trkpt>
      <trkpt lat="47.6546" lon="-2.78818">
        <ele>24.1</ele>
        <time>2020-06-06T13:21:29Z</time>
      </trkpt>
      <trkpt lat="47.65461" lon="-2.7882">
        <ele>24.1</ele>
        <time>2020-06-06T13:21:30Z</time>
      </trkpt>
      <trkpt lat="47.65463" lon="-2.78822">
        <ele>24.1</ele>
        <time>2020-06-06T13:21:31Z</time>
      </trkpt>
      <trkpt lat="47.65466" lon="-2.78825">
        <ele>24.2</ele>
        <time>2020-06-06T13:21:32Z</time>
      </trkpt>
      <trkpt lat="47.65468" lon="-2.78829">
        <ele>24.3</ele>
        <time>2020-06-06T13:21:33Z</time>
      </trkpt>
      <trkpt lat="47.65469" lon="-2.78833">
        <ele>24.3</ele>
        <time>2020-06-06T13:21:34Z</time>
      </trkpt>
      <trkpt lat="47.6547" lon="-2.78837">
        <ele>24.3</ele>
        <time>2020-06-06T13:21:35Z</time>
      </trkpt>
      <trkpt lat="47.65471" lon="-2.78842">
        <ele>24.3</ele>
        <time>2020-06-06T13:21:36Z</time>
      </trkpt>
      <trkpt lat="47.65472" lon="-2.78845">
        <ele>24.3</ele>
        <time>2020-06-06T13:21:37Z</time>
      </trkpt>
      <trkpt lat="47.6547" lon="-2.78851">
        <ele>24.3</ele>
        <time>2020-06-06T13:21:38Z</time>
      </trkpt>
      <trkpt lat="47.6547" lon="-2.78853">
        <ele>24.3</ele>
        <time>2020-06-06T13:21:39Z</time>
      </trkpt>
      <trkpt lat="47.65468" lon="-2.78858">
        <ele>24.3</ele>
        <time>2020-06-06T13:21:40Z</time>
      </trkpt>
      <trkpt lat="47.65468" lon="-2.78859">
        <ele>24.3</ele>
        <time>2020-06-06T13:21:41Z</time>
      </trkpt>
      <trkpt lat="47.65467" lon="-2.78864">
        <ele>24.2</ele>
        <time>2020-06-06T13:21:42Z</time>
      </trkpt>
      <trkpt lat="47.65468" lon="-2.78869">
        <ele>24.2</ele>
        <time>2020-06-06T13:21:43Z</time>
      </trkpt>
      <trkpt lat="47.65468" lon="-2.7887">
        <ele>24.2</ele>
        <time>2020-06-06T13:21:44Z</time>
      </trkpt>
      <trkpt lat="47.65469" lon="-2.78876">
        <ele>24.2</ele>
        <time>2020-06-06T13:21:45Z</time>
      </trkpt>
      <trkpt lat="47.65469" lon="-2.78878">
        <ele>24.2</ele>
        <time>2020-06-06T13:21:46Z</time>
      </trkpt>
      <trkpt lat="47.6547" lon="-2.78883">
        <ele>24.2</ele>
        <time>2020-06-06T13:21:47Z</time>
      </trkpt>
      <trkpt lat="47.65471" lon="-2.78887">
        <ele>24.2</ele>
        <time>2020-06-06T13:21:48Z</time>
      </trkpt>
      <trkpt lat="47.65472" lon="-2.78891">
        <ele>24.2</ele>
        <time>2020-06-06T13:21:49Z</time>
      </trkpt>
      <trkpt lat="47.65474" lon="-2.78896">
        <ele>24.2</ele>
        <time>2020-06-06T13:21:50Z</time>
      </trkpt>
      <trkpt lat="47.65475" lon="-2.78901">
        <ele>24.3</ele>
        <time>2020-06-06T13:21:51Z</time>
      </trkpt>
      <trkpt lat="47.65477" lon="-2.78906">
        <ele>24.3</ele>
        <time>2020-06-06T13:21:52Z</time>
      </trkpt>
      <trkpt lat="47.65479" lon="-2.78911">
        <ele>24.3</ele>
        <time>2020-06-06T13:21:53Z</time>
      </trkpt>
      <trkpt lat="47.65482" lon="-2.78917">
        <ele>24.3</ele>
        <time>2020-06-06T13:21:54Z</time>
      </trkpt>
      <trkpt lat="47.65484" lon="-2.78922">
        <ele>24.3</ele>
        <time>2020-06-06T13:21:55Z</time>
      </trkpt>
      <trkpt lat="47.65485" lon="-2.78929">
        <ele>24.3</ele>
        <time>2020-06-06T13:21:56Z</time>
      </trkpt>
      <trkpt lat="47.65487" lon="-2.78936">
        <ele>24.4</ele>
        <time>2020-06-06T13:21:57Z</time>
      </trkpt>
      <trkpt lat="47.6549" lon="-2.78941">
        <ele>24.4</ele>
        <time>2020-06-06T13:21:58Z</time>
      </trkpt>
      <trkpt lat="47.65492" lon="-2.78947">
        <ele>24.4</ele>
        <time>2020-06-06T13:21:59Z</time>
      </trkpt>
      <trkpt lat="47.65495" lon="-2.78952">
        <ele>24.4</ele>
        <time>2020-06-06T13:22:00Z</time>
      </trkpt>
      <trkpt lat="47.65497" lon="-2.78959">
        <ele>24.4</ele>
        <time>2020-06-06T13:22:01Z</time>
      </trkpt>
      <trkpt lat="47.65499" lon="-2.78966">
        <ele>24.5</ele>
        <time>2020-06-06T13:22:02Z</time>
      </trkpt>
      <trkpt lat="47.65501" lon="-2.78972">
        <ele>24.5</ele>
        <time>2020-06-06T13:22:03Z</time>
      </trkpt>
      <trkpt lat="47.65503" lon="-2.78978">
        <ele>24.5</ele>
        <time>2020-06-06T13:22:04Z</time>
      </trkpt>
      <trkpt lat="47.65506" lon="-2.78983">
        <ele>24.6</ele>
        <time>2020-06-06T13:22:05Z</time>
      </trkpt>
      <trkpt lat="47.65509" lon="-2.78988">
        <ele>24.6</ele>
        <time>2020-06-06T13:22:06Z</time>
      </trkpt>
      <trkpt lat="47.65512" lon="-2.78993">
        <ele>24.6</ele>
        <time>2020-06-06T13:22:07Z</time>
      </trkpt>
      <trkpt lat="47.65514" lon="-2.78999">
        <ele>24.7</ele>
        <time>2020-06-06T13:22:08Z</time>
      </trkpt>
      <trkpt lat="47.65517" lon="-2.79006">
        <ele>24.8</ele>
        <time>2020-06-06T13:22:09Z</time>
      </trkpt>
      <trkpt lat="47.6552" lon="-2.79011">
        <ele>25</ele>
        <time>2020-06-06T13:22:10Z</time>
      </trkpt>
      <trkpt lat="47.65522" lon="-2.79017">
        <ele>25.1</ele>
        <time>2020-06-06T13:22:11Z</time>
      </trkpt>
      <trkpt lat="47.65526" lon="-2.79021">
        <ele>25.2</ele>
        <time>2020-06-06T13:22:12Z</time>
      </trkpt>
      <trkpt lat="47.65529" lon="-2.79026">
        <ele>25.3</ele>
        <time>2020-06-06T13:22:13Z</time>
      </trkpt>
      <trkpt lat="47.65532" lon="-2.7903">
        <ele>25.3</ele>
        <time>2020-06-06T13:22:14Z</time>
      </trkpt>
      <trkpt lat="47.65534" lon="-2.79035">
        <ele>25.3</ele>
        <time>2020-06-06T13:22:15Z</time>
      </trkpt>
      <trkpt lat="47.65538" lon="-2.79038">
        <ele>25.3</ele>
        <time>2020-06-06T13:22:16Z</time>
      </trkpt>
      <trkpt lat="47.65541" lon="-2.79042">
        <ele>25.3</ele>
        <time>2020-06-06T13:22:17Z</time>
      </trkpt>
      <trkpt lat="47.65544" lon="-2.79046">
        <ele>25.4</ele>
        <time>2020-06-06T13:22:18Z</time>
      </trkpt>
      <trkpt lat="47.65546" lon="-2.7905">
        <ele>25.4</ele>
        <time>2020-06-06T13:22:19Z</time>
      </trkpt>
      <trkpt lat="47.65549" lon="-2.79053">
        <ele>25.4</ele>
        <time>2020-06-06T13:22:20Z</time>
      </trkpt>
      <trkpt lat="47.65552" lon="-2.79055">
        <ele>25.4</ele>
        <time>2020-06-06T13:22:21Z</time>
      </trkpt>
      <trkpt lat="47.65554" lon="-2.79058">
        <ele>25.5</ele>
        <time>2020-06-06T13:22:22Z</time>
      </trkpt>
      <trkpt lat="47.65556" lon="-2.79062">
        <ele>25.5</ele>
        <time>2020-06-06T13:22:23Z</time>
      </trkpt>
      <trkpt lat="47.65559" lon="-2.79064">
        <ele>25.5</ele>
        <time>2020-06-06T13:22:24Z</time>
      </trkpt>
      <trkpt lat="47.65561" lon="-2.79068">
        <ele>25.5</ele>
        <time>2020-06-06T13:22:25Z</time>
      </trkpt>
      <trkpt lat="47.65563" lon="-2.7907">
        <ele>25.5</ele>
        <time>2020-06-06T13:22:26Z</time>
      </trkpt>
      <trkpt lat="47.65565" lon="-2.79074">
        <ele>25.5</ele>
        <time>2020-06-06T13:22:27Z</time>
      </trkpt>
      <trkpt lat="47.65568" lon="-2.79077">
        <ele>25.5</ele>
        <time>2020-06-06T13:22:28Z</time>
      </trkpt>
      <trkpt lat="47.65572" lon="-2.79081">
        <ele>25.5</ele>
        <time>2020-06-06T13:22:29Z</time>
      </trkpt>
      <trkpt lat="47.65574" lon="-2.79085">
        <ele>25.5</ele>
        <time>2020-06-06T13:22:30Z</time>
      </trkpt>
      <trkpt lat="47.65577" lon="-2.79089">
        <ele>25.5</ele>
        <time>2020-06-06T13:22:31Z</time>
      </trkpt>
      <trkpt lat="47.65581" lon="-2.79094">
        <ele>25.5</ele>
        <time>2020-06-06T13:22:32Z</time>
      </trkpt>
      <trkpt lat="47.65584" lon="-2.79098">
        <ele>25.4</ele>
        <time>2020-06-06T13:22:33Z</time>
      </trkpt>
      <trkpt lat="47.65588" lon="-2.79102">
        <ele>25.4</ele>
        <time>2020-06-06T13:22:34Z</time>
      </trkpt>
      <trkpt lat="47.65591" lon="-2.79106">
        <ele>25.3</ele>
        <time>2020-06-06T13:22:35Z</time>
      </trkpt>
      <trkpt lat="47.65595" lon="-2.7911">
        <ele>25.3</ele>
        <time>2020-06-06T13:22:36Z</time>
      </trkpt>
      <trkpt lat="47.65598" lon="-2.79111">
        <ele>25.3</ele>
        <time>2020-06-06T13:22:37Z</time>
      </trkpt>
      <trkpt lat="47.65602" lon="-2.7911">
        <ele>25.4</ele>
        <time>2020-06-06T13:22:38Z</time>
      </trkpt>
      <trkpt lat="47.65607" lon="-2.79109">
        <ele>25.4</ele>
        <time>2020-06-06T13:22:39Z</time>
      </trkpt>
      <trkpt lat="47.65611" lon="-2.79109">
        <ele>25.5</ele>
        <time>2020-06-06T13:22:40Z</time>
      </trkpt>
      <trkpt lat="47.65614" lon="-2.79109">
        <ele>25.6</ele>
        <time>2020-06-06T13:22:41Z</time>
      </trkpt>
      <trkpt lat="47.65619" lon="-2.79109">
        <ele>25.6</ele>
        <time>2020-06-06T13:22:42Z</time>
      </trkpt>
      <trkpt lat="47.65622" lon="-2.7911">
        <ele>25.7</ele>
        <time>2020-06-06T13:22:43Z</time>
      </trkpt>
      <trkpt lat="47.65625" lon="-2.79111">
        <ele>25.7</ele>
        <time>2020-06-06T13:22:44Z</time>
      </trkpt>
      <trkpt lat="47.65628" lon="-2.79112">
        <ele>25.7</ele>
        <time>2020-06-06T13:22:45Z</time>
      </trkpt>
      <trkpt lat="47.65632" lon="-2.79112">
        <ele>25.8</ele>
        <time>2020-06-06T13:22:46Z</time>
      </trkpt>
      <trkpt lat="47.65633" lon="-2.79111">
        <ele>25.8</ele>
        <time>2020-06-06T13:22:47Z</time>
      </trkpt>
      <trkpt lat="47.65635" lon="-2.79107">
        <ele>25.8</ele>
        <time>2020-06-06T13:22:48Z</time>
      </trkpt>
      <trkpt lat="47.65636" lon="-2.79106">
        <ele>25.8</ele>
        <time>2020-06-06T13:22:49Z</time>
      </trkpt>
      <trkpt lat="47.65638" lon="-2.79104">
        <ele>26</ele>
        <time>2020-06-06T13:22:50Z</time>
      </trkpt>
      <trkpt lat="47.6564" lon="-2.791">
        <ele>26</ele>
        <time>2020-06-06T13:22:51Z</time>
      </trkpt>
      <trkpt lat="47.65641" lon="-2.79098">
        <ele>26</ele>
        <time>2020-06-06T13:22:52Z</time>
      </trkpt>
      <trkpt lat="47.65642" lon="-2.79098">
        <ele>26</ele>
        <time>2020-06-06T13:22:53Z</time>
      </trkpt>
      <trkpt lat="47.65643" lon="-2.79099">
        <ele>26</ele>
        <time>2020-06-06T13:22:54Z</time>
      </trkpt>
      <trkpt lat="47.65643" lon="-2.79102">
        <ele>26</ele>
        <time>2020-06-06T13:22:55Z</time>
      </trkpt>
      <trkpt lat="47.6564" lon="-2.79107">
        <ele>26</ele>
        <time>2020-06-06T13:22:56Z</time>
      </trkpt>
      <trkpt lat="47.65639" lon="-2.79108">
        <ele>25.9</ele>
        <time>2020-06-06T13:22:57Z</time>
      </trkpt>
      <trkpt lat="47.65635" lon="-2.79113">
        <ele>25.9</ele>
        <time>2020-06-06T13:22:58Z</time>
      </trkpt>
      <trkpt lat="47.65632" lon="-2.79118">
        <ele>25.8</ele>
        <time>2020-06-06T13:22:59Z</time>
      </trkpt>
      <trkpt lat="47.65629" lon="-2.79122">
        <ele>25.6</ele>
        <time>2020-06-06T13:23:00Z</time>
      </trkpt>
      <trkpt lat="47.65626" lon="-2.79126">
        <ele>25.4</ele>
        <time>2020-06-06T13:23:01Z</time>
      </trkpt>
      <trkpt lat="47.65623" lon="-2.79131">
        <ele>25.3</ele>
        <time>2020-06-06T13:23:02Z</time>
      </trkpt>
      <trkpt lat="47.65621" lon="-2.79135">
        <ele>25.1</ele>
        <time>2020-06-06T13:23:03Z</time>
      </trkpt>
      <trkpt lat="47.65621" lon="-2.7914">
        <ele>25.1</ele>
        <time>2020-06-06T13:23:04Z</time>
      </trkpt>
      <trkpt lat="47.65621" lon="-2.79142">
        <ele>25</ele>
        <time>2020-06-06T13:23:05Z</time>
      </trkpt>
      <trkpt lat="47.65623" lon="-2.79146">
        <ele>25</ele>
        <time>2020-06-06T13:23:06Z</time>
      </trkpt>
      <trkpt lat="47.65626" lon="-2.7915">
        <ele>24.9</ele>
        <time>2020-06-06T13:23:07Z</time>
      </trkpt>
      <trkpt lat="47.6563" lon="-2.79154">
        <ele>24.8</ele>
        <time>2020-06-06T13:23:08Z</time>
      </trkpt>
      <trkpt lat="47.65635" lon="-2.79157">
        <ele>24.7</ele>
        <time>2020-06-06T13:23:09Z</time>
      </trkpt>
      <trkpt lat="47.65641" lon="-2.7916">
        <ele>24.7</ele>
        <time>2020-06-06T13:23:10Z</time>
      </trkpt>
      <trkpt lat="47.65647" lon="-2.79164">
        <ele>24.7</ele>
        <time>2020-06-06T13:23:11Z</time>
      </trkpt>
      <trkpt lat="47.65652" lon="-2.79167">
        <ele>24.7</ele>
        <time>2020-06-06T13:23:12Z</time>
      </trkpt>
      <trkpt lat="47.65657" lon="-2.79172">
        <ele>24.8</ele>
        <time>2020-06-06T13:23:13Z</time>
      </trkpt>
      <trkpt lat="47.65662" lon="-2.79176">
        <ele>24.8</ele>
        <time>2020-06-06T13:23:14Z</time>
      </trkpt>
      <trkpt lat="47.65667" lon="-2.7918">
        <ele>24.9</ele>
        <time>2020-06-06T13:23:15Z</time>
      </trkpt>
      <trkpt lat="47.65672" lon="-2.79185">
        <ele>24.9</ele>
        <time>2020-06-06T13:23:16Z</time>
      </trkpt>
      <trkpt lat="47.65677" lon="-2.79189">
        <ele>25</ele>
        <time>2020-06-06T13:23:17Z</time>
      </trkpt>
      <trkpt lat="47.65682" lon="-2.79192">
        <ele>25</ele>
        <time>2020-06-06T13:23:18Z</time>
      </trkpt>
      <trkpt lat="47.65686" lon="-2.79196">
        <ele>25</ele>
        <time>2020-06-06T13:23:19Z</time>
      </trkpt>
      <trkpt lat="47.65691" lon="-2.79199">
        <ele>25</ele>
        <time>2020-06-06T13:23:20Z</time>
      </trkpt>
      <trkpt lat="47.65697" lon="-2.792">
        <ele>25</ele>
        <time>2020-06-06T13:23:21Z</time>
      </trkpt>
      <trkpt lat="47.65702" lon="-2.79203">
        <ele>25</ele>
        <time>2020-06-06T13:23:22Z</time>
      </trkpt>
      <trkpt lat="47.65706" lon="-2.79206">
        <ele>25.1</ele>
        <time>2020-06-06T13:23:23Z</time>
      </trkpt>
      <trkpt lat="47.65711" lon="-2.7921">
        <ele>25.1</ele>
        <time>2020-06-06T13:23:24Z</time>
      </trkpt>
      <trkpt lat="47.65715" lon="-2.79215">
        <ele>25.3</ele>
        <time>2020-06-06T13:23:25Z</time>
      </trkpt>
      <trkpt lat="47.65719" lon="-2.79219">
        <ele>25.4</ele>
        <time>2020-06-06T13:23:26Z</time>
      </trkpt>
      <trkpt lat="47.65723" lon="-2.79221">
        <ele>25.5</ele>
        <time>2020-06-06T13:23:27Z</time>
      </trkpt>
      <trkpt lat="47.65726" lon="-2.79224">
        <ele>25.7</ele>
        <time>2020-06-06T13:23:28Z</time>
      </trkpt>
      <trkpt lat="47.65731" lon="-2.79228">
        <ele>25.7</ele>
        <time>2020-06-06T13:23:29Z</time>
      </trkpt>
      <trkpt lat="47.65734" lon="-2.79232">
        <ele>25.8</ele>
        <time>2020-06-06T13:23:30Z</time>
      </trkpt>
      <trkpt lat="47.65738" lon="-2.79236">
        <ele>25.8</ele>
        <time>2020-06-06T13:23:31Z</time>
      </trkpt>
      <trkpt lat="47.65742" lon="-2.7924">
        <ele>25.8</ele>
        <time>2020-06-06T13:23:32Z</time>
      </trkpt>
      <trkpt lat="47.65746" lon="-2.79244">
        <ele>25.8</ele>
        <time>2020-06-06T13:23:33Z</time>
      </trkpt>
      <trkpt lat="47.65751" lon="-2.79248">
        <ele>25.9</ele>
        <time>2020-06-06T13:23:34Z</time>
      </trkpt>
      <trkpt lat="47.65756" lon="-2.79252">
        <ele>25.9</ele>
        <time>2020-06-06T13:23:35Z</time>
      </trkpt>
      <trkpt lat="47.65761" lon="-2.79256">
        <ele>25.9</ele>
        <time>2020-06-06T13:23:36Z</time>
      </trkpt>
      <trkpt lat="47.65766" lon="-2.79259">
        <ele>26</ele>
        <time>2020-06-06T13:23:37Z</time>
      </trkpt>
      <trkpt lat="47.65771" lon="-2.79263">
        <ele>26.1</ele>
        <time>2020-06-06T13:23:38Z</time>
      </trkpt>
      <trkpt lat="47.65775" lon="-2.79266">
        <ele>26.2</ele>
        <time>2020-06-06T13:23:39Z</time>
      </trkpt>
      <trkpt lat="47.65779" lon="-2.7927">
        <ele>26.2</ele>
        <time>2020-06-06T13:23:40Z</time>
      </trkpt>
      <trkpt lat="47.65783" lon="-2.79274">
        <ele>26.3</ele>
        <time>2020-06-06T13:23:41Z</time>
      </trkpt>
      <trkpt lat="47.65787" lon="-2.79278">
        <ele>26.4</ele>
        <time>2020-06-06T13:23:42Z</time>
      </trkpt>
      <trkpt lat="47.65791" lon="-2.79283">
        <ele>26.4</ele>
        <time>2020-06-06T13:23:43Z</time>
      </trkpt>
      <trkpt lat="47.65795" lon="-2.79286">
        <ele>26.5</ele>
        <time>2020-06-06T13:23:44Z</time>
      </trkpt>
      <trkpt lat="47.65799" lon="-2.79289">
        <ele>26.6</ele>
        <time>2020-06-06T13:23:45Z</time>
      </trkpt>
      <trkpt lat="47.65803" lon="-2.79292">
        <ele>26.7</ele>
        <time>2020-06-06T13:23:46Z</time>
      </trkpt>
      <trkpt lat="47.65806" lon="-2.79294">
        <ele>26.8</ele>
        <time>2020-06-06T13:23:47Z</time>
      </trkpt>
      <trkpt lat="47.65809" lon="-2.79296">
        <ele>27</ele>
        <time>2020-06-06T13:23:48Z</time>
      </trkpt>
      <trkpt lat="47.65813" lon="-2.79298">
        <ele>27.1</ele>
        <time>2020-06-06T13:23:49Z</time>
      </trkpt>
      <trkpt lat="47.65816" lon="-2.793">
        <ele>27.2</ele>
        <time>2020-06-06T13:23:50Z</time>
      </trkpt>
      <trkpt lat="47.65819" lon="-2.79303">
        <ele>27.4</ele>
        <time>2020-06-06T13:23:51Z</time>
      </trkpt>
      <trkpt lat="47.65822" lon="-2.79307">
        <ele>27.6</ele>
        <time>2020-06-06T13:23:52Z</time>
      </trkpt>
      <trkpt lat="47.65826" lon="-2.7931">
        <ele>27.8</ele>
        <time>2020-06-06T13:23:53Z</time>
      </trkpt>
      <trkpt lat="47.65829" lon="-2.79314">
        <ele>28</ele>
        <time>2020-06-06T13:23:54Z</time>
      </trkpt>
      <trkpt lat="47.65833" lon="-2.79317">
        <ele>28.2</ele>
        <time>2020-06-06T13:23:55Z</time>
      </trkpt>
      <trkpt lat="47.65836" lon="-2.7932">
        <ele>28.4</ele>
        <time>2020-06-06T13:23:56Z</time>
      </trkpt>
      <trkpt lat="47.65839" lon="-2.79322">
        <ele>28.6</ele>
        <time>2020-06-06T13:23:57Z</time>
      </trkpt>
      <trkpt lat="47.65842" lon="-2.79324">
        <ele>28.8</ele>
        <time>2020-06-06T13:23:58Z</time>
      </trkpt>
      <trkpt lat="47.65846" lon="-2.79326">
        <ele>29</ele>
        <time>2020-06-06T13:23:59Z</time>
      </trkpt>
      <trkpt lat="47.65849" lon="-2.79329">
        <ele>29.2</ele>
        <time>2020-06-06T13:24:00Z</time>
      </trkpt>
      <trkpt lat="47.65852" lon="-2.7933">
        <ele>29.4</ele>
        <time>2020-06-06T13:24:01Z</time>
      </trkpt>
      <trkpt lat="47.65856" lon="-2.79334">
        <ele>29.6</ele>
        <time>2020-06-06T13:24:02Z</time>
      </trkpt>
      <trkpt lat="47.65858" lon="-2.79337">
        <ele>29.8</ele>
        <time>2020-06-06T13:24:03Z</time>
      </trkpt>
      <trkpt lat="47.65861" lon="-2.79339">
        <ele>30</ele>
        <time>2020-06-06T13:24:04Z</time>
      </trkpt>
      <trkpt lat="47.65864" lon="-2.79342">
        <ele>30.2</ele>
        <time>2020-06-06T13:24:05Z</time>
      </trkpt>
      <trkpt lat="47.65867" lon="-2.79345">
        <ele>30.9</ele>
        <time>2020-06-06T13:24:06Z</time>
      </trkpt>
      <trkpt lat="47.65871" lon="-2.79348">
        <ele>31.2</ele>
        <time>2020-06-06T13:24:07Z</time>
      </trkpt>
      <trkpt lat="47.65874" lon="-2.79349">
        <ele>31.4</ele>
        <time>2020-06-06T13:24:08Z</time>
      </trkpt>
      <trkpt lat="47.65877" lon="-2.79351">
        <ele>31.6</ele>
        <time>2020-06-06T13:24:09Z</time>
      </trkpt>
      <trkpt lat="47.6588" lon="-2.79352">
        <ele>31.8</ele>
        <time>2020-06-06T13:24:10Z</time>
      </trkpt>
      <trkpt lat="47.65884" lon="-2.79354">
        <ele>32.1</ele>
        <time>2020-06-06T13:24:11Z</time>
      </trkpt>
      <trkpt lat="47.65887" lon="-2.79357">
        <ele>32.4</ele>
        <time>2020-06-06T13:24:12Z</time>
      </trkpt>
      <trkpt lat="47.6589" lon="-2.79359">
        <ele>32.6</ele>
        <time>2020-06-06T13:24:13Z</time>
      </trkpt>
      <trkpt lat="47.65892" lon="-2.79363">
        <ele>32.9</ele>
        <time>2020-06-06T13:24:14Z</time>
      </trkpt>
      <trkpt lat="47.65895" lon="-2.79366">
        <ele>33.1</ele>
        <time>2020-06-06T13:24:15Z</time>
      </trkpt>
      <trkpt lat="47.65898" lon="-2.79368">
        <ele>33.4</ele>
        <time>2020-06-06T13:24:16Z</time>
      </trkpt>
      <trkpt lat="47.65901" lon="-2.79371">
        <ele>33.6</ele>
        <time>2020-06-06T13:24:17Z</time>
      </trkpt>
      <trkpt lat="47.65903" lon="-2.79374">
        <ele>33.9</ele>
        <time>2020-06-06T13:24:18Z</time>
      </trkpt>
      <trkpt lat="47.65907" lon="-2.79376">
        <ele>34.2</ele>
        <time>2020-06-06T13:24:19Z</time>
      </trkpt>
      <trkpt lat="47.6591" lon="-2.79379">
        <ele>34.4</ele>
        <time>2020-06-06T13:24:20Z</time>
      </trkpt>
      <trkpt lat="47.65912" lon="-2.79381">
        <ele>34.7</ele>
        <time>2020-06-06T13:24:21Z</time>
      </trkpt>
      <trkpt lat="47.65915" lon="-2.79383">
        <ele>34.9</ele>
        <time>2020-06-06T13:24:22Z</time>
      </trkpt>
      <trkpt lat="47.65919" lon="-2.79386">
        <ele>35.2</ele>
        <time>2020-06-06T13:24:23Z</time>
      </trkpt>
      <trkpt lat="47.6592" lon="-2.79388">
        <ele>35.3</ele>
        <time>2020-06-06T13:24:24Z</time>
      </trkpt>
      <trkpt lat="47.65922" lon="-2.79391">
        <ele>35.6</ele>
        <time>2020-06-06T13:24:25Z</time>
      </trkpt>
      <trkpt lat="47.65924" lon="-2.79394">
        <ele>35.8</ele>
        <time>2020-06-06T13:24:26Z</time>
      </trkpt>
      <trkpt lat="47.65925" lon="-2.79398">
        <ele>36</ele>
        <time>2020-06-06T13:24:27Z</time>
      </trkpt>
      <trkpt lat="47.65928" lon="-2.79402">
        <ele>36.3</ele>
        <time>2020-06-06T13:24:28Z</time>
      </trkpt>
      <trkpt lat="47.65929" lon="-2.79404">
        <ele>36.4</ele>
        <time>2020-06-06T13:24:29Z</time>
      </trkpt>
      <trkpt lat="47.6593" lon="-2.79407">
        <ele>36.6</ele>
        <time>2020-06-06T13:24:30Z</time>
      </trkpt>
      <trkpt lat="47.65932" lon="-2.7941">
        <ele>36.8</ele>
        <time>2020-06-06T13:24:31Z</time>
      </trkpt>
      <trkpt lat="47.65933" lon="-2.79411">
        <ele>36.9</ele>
        <time>2020-06-06T13:24:32Z</time>
      </trkpt>
      <trkpt lat="47.65934" lon="-2.79412">
        <ele>37.3</ele>
        <time>2020-06-06T13:24:33Z</time>
      </trkpt>
      <trkpt lat="47.65936" lon="-2.79413">
        <ele>37.3</ele>
        <time>2020-06-06T13:24:34Z</time>
      </trkpt>
      <trkpt lat="47.65937" lon="-2.79414">
        <ele>37.4</ele>
        <time>2020-06-06T13:24:35Z</time>
      </trkpt>
      <trkpt lat="47.65938" lon="-2.79414">
        <ele>37.4</ele>
        <time>2020-06-06T13:24:36Z</time>
      </trkpt>
      <trkpt lat="47.6594" lon="-2.79414">
        <ele>37.5</ele>
        <time>2020-06-06T13:24:37Z</time>
      </trkpt>
      <trkpt lat="47.65942" lon="-2.79414">
        <ele>37.5</ele>
        <time>2020-06-06T13:24:38Z</time>
      </trkpt>
      <trkpt lat="47.65943" lon="-2.79414">
        <ele>37.6</ele>
        <time>2020-06-06T13:24:39Z</time>
      </trkpt>
      <trkpt lat="47.65946" lon="-2.79414">
        <ele>37.7</ele>
        <time>2020-06-06T13:24:40Z</time>
      </trkpt>
      <trkpt lat="47.65947" lon="-2.79413">
        <ele>37.7</ele>
        <time>2020-06-06T13:24:41Z</time>
      </trkpt>
      <trkpt lat="47.6595" lon="-2.79414">
        <ele>37.8</ele>
        <time>2020-06-06T13:24:42Z</time>
      </trkpt>
      <trkpt lat="47.65952" lon="-2.79413">
        <ele>37.8</ele>
        <time>2020-06-06T13:24:43Z</time>
      </trkpt>
      <trkpt lat="47.65953" lon="-2.79414">
        <ele>38.3</ele>
        <time>2020-06-06T13:24:44Z</time>
      </trkpt>
      <trkpt lat="47.65954" lon="-2.79414">
        <ele>38.3</ele>
        <time>2020-06-06T13:24:45Z</time>
      </trkpt>
      <trkpt lat="47.65955" lon="-2.79414">
        <ele>38.4</ele>
        <time>2020-06-06T13:24:46Z</time>
      </trkpt>
      <trkpt lat="47.65956" lon="-2.79415">
        <ele>38.4</ele>
        <time>2020-06-06T13:24:47Z</time>
      </trkpt>
      <trkpt lat="47.65957" lon="-2.79415">
        <ele>38.5</ele>
        <time>2020-06-06T13:24:48Z</time>
      </trkpt>
      <trkpt lat="47.65958" lon="-2.79416">
        <ele>38.5</ele>
        <time>2020-06-06T13:24:49Z</time>
      </trkpt>
      <trkpt lat="47.65959" lon="-2.79417">
        <ele>38.6</ele>
        <time>2020-06-06T13:24:50Z</time>
      </trkpt>
      <trkpt lat="47.6596" lon="-2.79418">
        <ele>38.6</ele>
        <time>2020-06-06T13:24:51Z</time>
      </trkpt>
      <trkpt lat="47.65961" lon="-2.7942">
        <ele>38.7</ele>
        <time>2020-06-06T13:24:52Z</time>
      </trkpt>
      <trkpt lat="47.65963" lon="-2.79423">
        <ele>38.7</ele>
        <time>2020-06-06T13:24:53Z</time>
      </trkpt>
      <trkpt lat="47.65964" lon="-2.79424">
        <ele>38.8</ele>
        <time>2020-06-06T13:24:54Z</time>
      </trkpt>
      <trkpt lat="47.65966" lon="-2.79424">
        <ele>38.8</ele>
        <time>2020-06-06T13:24:55Z</time>
      </trkpt>
      <trkpt lat="47.65967" lon="-2.79424">
        <ele>38.9</ele>
        <time>2020-06-06T13:24:56Z</time>
      </trkpt>
      <trkpt lat="47.65968" lon="-2.79423">
        <ele>39</ele>
        <time>2020-06-06T13:24:57Z</time>
      </trkpt>
      <trkpt lat="47.6597" lon="-2.79424">
        <ele>39</ele>
        <time>2020-06-06T13:24:58Z</time>
      </trkpt>
      <trkpt lat="47.65973" lon="-2.79424">
        <ele>39.1</ele>
        <time>2020-06-06T13:24:59Z</time>
      </trkpt>
      <trkpt lat="47.65976" lon="-2.79425">
        <ele>39.3</ele>
        <time>2020-06-06T13:25:00Z</time>
      </trkpt>
      <trkpt lat="47.65977" lon="-2.79426">
        <ele>39.3</ele>
        <time>2020-06-06T13:25:01Z</time>
      </trkpt>
      <trkpt lat="47.6598" lon="-2.79425">
        <ele>39.4</ele>
        <time>2020-06-06T13:25:02Z</time>
      </trkpt>
      <trkpt lat="47.65984" lon="-2.79425">
        <ele>39.6</ele>
        <time>2020-06-06T13:25:03Z</time>
      </trkpt>
      <trkpt lat="47.65987" lon="-2.79424">
        <ele>39.7</ele>
        <time>2020-06-06T13:25:04Z</time>
      </trkpt>
      <trkpt lat="47.6599" lon="-2.79423">
        <ele>39.9</ele>
        <time>2020-06-06T13:25:05Z</time>
      </trkpt>
      <trkpt lat="47.65994" lon="-2.79422">
        <ele>40.2</ele>
        <time>2020-06-06T13:25:06Z</time>
      </trkpt>
      <trkpt lat="47.65997" lon="-2.79421">
        <ele>40.4</ele>
        <time>2020-06-06T13:25:07Z</time>
      </trkpt>
      <trkpt lat="47.66" lon="-2.7942">
        <ele>40.6</ele>
        <time>2020-06-06T13:25:08Z</time>
      </trkpt>
      <trkpt lat="47.66003" lon="-2.7942">
        <ele>40.8</ele>
        <time>2020-06-06T13:25:09Z</time>
      </trkpt>
      <trkpt lat="47.66007" lon="-2.7942">
        <ele>41</ele>
        <time>2020-06-06T13:25:10Z</time>
      </trkpt>
      <trkpt lat="47.6601" lon="-2.79419">
        <ele>41.2</ele>
        <time>2020-06-06T13:25:11Z</time>
      </trkpt>
      <trkpt lat="47.66013" lon="-2.79418">
        <ele>41.4</ele>
        <time>2020-06-06T13:25:12Z</time>
      </trkpt>
      <trkpt lat="47.66017" lon="-2.79418">
        <ele>41.7</ele>
        <time>2020-06-06T13:25:13Z</time>
      </trkpt>
      <trkpt lat="47.6602" lon="-2.79416">
        <ele>41.8</ele>
        <time>2020-06-06T13:25:14Z</time>
      </trkpt>
      <trkpt lat="47.66024" lon="-2.79414">
        <ele>42.1</ele>
        <time>2020-06-06T13:25:15Z</time>
      </trkpt>
      <trkpt lat="47.66027" lon="-2.79413">
        <ele>42.2</ele>
        <time>2020-06-06T13:25:16Z</time>
      </trkpt>
      <trkpt lat="47.66031" lon="-2.79413">
        <ele>42.3</ele>
        <time>2020-06-06T13:25:17Z</time>
      </trkpt>
      <trkpt lat="47.66035" lon="-2.79411">
        <ele>42.5</ele>
        <time>2020-06-06T13:25:18Z</time>
      </trkpt>
      <trkpt lat="47.6604" lon="-2.79411">
        <ele>42.6</ele>
        <time>2020-06-06T13:25:19Z</time>
      </trkpt>
      <trkpt lat="47.66045" lon="-2.7941">
        <ele>42.7</ele>
        <time>2020-06-06T13:25:20Z</time>
      </trkpt>
      <trkpt lat="47.66048" lon="-2.79409">
        <ele>42.8</ele>
        <time>2020-06-06T13:25:21Z</time>
      </trkpt>
      <trkpt lat="47.66052" lon="-2.79408">
        <ele>42.9</ele>
        <time>2020-06-06T13:25:22Z</time>
      </trkpt>
      <trkpt lat="47.66053" lon="-2.79408">
        <ele>42.9</ele>
        <time>2020-06-06T13:25:23Z</time>
      </trkpt>
      <trkpt lat="47.66056" lon="-2.79407">
        <ele>42.9</ele>
        <time>2020-06-06T13:25:24Z</time>
      </trkpt>
      <trkpt lat="47.66059" lon="-2.79407">
        <ele>43</ele>
        <time>2020-06-06T13:25:25Z</time>
      </trkpt>
      <trkpt lat="47.66063" lon="-2.79406">
        <ele>43</ele>
        <time>2020-06-06T13:25:26Z</time>
      </trkpt>
      <trkpt lat="47.66065" lon="-2.79406">
        <ele>43.1</ele>
        <time>2020-06-06T13:25:27Z</time>
      </trkpt>
      <trkpt lat="47.66069" lon="-2.79406">
        <ele>43.1</ele>
        <time>2020-06-06T13:25:28Z</time>
      </trkpt>
      <trkpt lat="47.66073" lon="-2.79403">
        <ele>43.2</ele>
        <time>2020-06-06T13:25:29Z</time>
      </trkpt>
      <trkpt lat="47.66077" lon="-2.79401">
        <ele>43.2</ele>
        <time>2020-06-06T13:25:30Z</time>
      </trkpt>
      <trkpt lat="47.6608" lon="-2.794">
        <ele>43.4</ele>
        <time>2020-06-06T13:25:31Z</time>
      </trkpt>
      <trkpt lat="47.66083" lon="-2.79399">
        <ele>43.5</ele>
        <time>2020-06-06T13:25:32Z</time>
      </trkpt>
      <trkpt lat="47.66086" lon="-2.79398">
        <ele>43.7</ele>
        <time>2020-06-06T13:25:33Z</time>
      </trkpt>
      <trkpt lat="47.66089" lon="-2.79397">
        <ele>43.7</ele>
        <time>2020-06-06T13:25:34Z</time>
      </trkpt>
      <trkpt lat="47.66092" lon="-2.79397">
        <ele>43.7</ele>
        <time>2020-06-06T13:25:35Z</time>
      </trkpt>
      <trkpt lat="47.66097" lon="-2.79396">
        <ele>43.8</ele>
        <time>2020-06-06T13:25:36Z</time>
      </trkpt>
      <trkpt lat="47.66098" lon="-2.79397">
        <ele>43.8</ele>
        <time>2020-06-06T13:25:37Z</time>
      </trkpt>
      <trkpt lat="47.66102" lon="-2.79398">
        <ele>43.8</ele>
        <time>2020-06-06T13:25:38Z</time>
      </trkpt>
      <trkpt lat="47.66105" lon="-2.79399">
        <ele>43.8</ele>
        <time>2020-06-06T13:25:39Z</time>
      </trkpt>
      <trkpt lat="47.66109" lon="-2.794">
        <ele>43.9</ele>
        <time>2020-06-06T13:25:40Z</time>
      </trkpt>
      <trkpt lat="47.66113" lon="-2.79401">
        <ele>43.9</ele>
        <time>2020-06-06T13:25:41Z</time>
      </trkpt>
      <trkpt lat="47.66116" lon="-2.79403">
        <ele>43.9</ele>
        <time>2020-06-06T13:25:42Z</time>
      </trkpt>
      <trkpt lat="47.66118" lon="-2.79404">
        <ele>43.9</ele>
        <time>2020-06-06T13:25:43Z</time>
      </trkpt>
      <trkpt lat="47.66122" lon="-2.79404">
        <ele>43.9</ele>
        <time>2020-06-06T13:25:44Z</time>
      </trkpt>
      <trkpt lat="47.66126" lon="-2.79403">
        <ele>43.9</ele>
        <time>2020-06-06T13:25:45Z</time>
      </trkpt>
      <trkpt lat="47.66128" lon="-2.79403">
        <ele>43.9</ele>
        <time>2020-06-06T13:25:46Z</time>
      </trkpt>
      <trkpt lat="47.66131" lon="-2.79401">
        <ele>43.9</ele>
        <time>2020-06-06T13:25:47Z</time>
      </trkpt>
      <trkpt lat="47.66135" lon="-2.79396">
        <ele>43.9</ele>
        <time>2020-06-06T13:25:48Z</time>
      </trkpt>
      <trkpt lat="47.66138" lon="-2.79392">
        <ele>43.9</ele>
        <time>2020-06-06T13:25:49Z</time>
      </trkpt>
      <trkpt lat="47.66142" lon="-2.79386">
        <ele>43.9</ele>
        <time>2020-06-06T13:25:50Z</time>
      </trkpt>
      <trkpt lat="47.66146" lon="-2.79383">
        <ele>43.9</ele>
        <time>2020-06-06T13:25:51Z</time>
      </trkpt>
      <trkpt lat="47.6615" lon="-2.7938">
        <ele>43.8</ele>
        <time>2020-06-06T13:25:52Z</time>
      </trkpt>
      <trkpt lat="47.66155" lon="-2.79377">
        <ele>43.6</ele>
        <time>2020-06-06T13:25:53Z</time>
      </trkpt>
      <trkpt lat="47.6616" lon="-2.79376">
        <ele>43.4</ele>
        <time>2020-06-06T13:25:54Z</time>
      </trkpt>
      <trkpt lat="47.66166" lon="-2.79375">
        <ele>43.2</ele>
        <time>2020-06-06T13:25:55Z</time>
      </trkpt>
      <trkpt lat="47.66172" lon="-2.79376">
        <ele>43</ele>
        <time>2020-06-06T13:25:56Z</time>
      </trkpt>
      <trkpt lat="47.66177" lon="-2.79378">
        <ele>42.8</ele>
        <time>2020-06-06T13:25:57Z</time>
      </trkpt>
      <trkpt lat="47.66183" lon="-2.7938">
        <ele>42.5</ele>
        <time>2020-06-06T13:25:58Z</time>
      </trkpt>
      <trkpt lat="47.66189" lon="-2.79384">
        <ele>42.3</ele>
        <time>2020-06-06T13:25:59Z</time>
      </trkpt>
      <trkpt lat="47.66195" lon="-2.79389">
        <ele>42</ele>
        <time>2020-06-06T13:26:00Z</time>
      </trkpt>
      <trkpt lat="47.662" lon="-2.79395">
        <ele>41.9</ele>
        <time>2020-06-06T13:26:01Z</time>
      </trkpt>
      <trkpt lat="47.66204" lon="-2.794">
        <ele>41.7</ele>
        <time>2020-06-06T13:26:02Z</time>
      </trkpt>
      <trkpt lat="47.66208" lon="-2.79406">
        <ele>41.5</ele>
        <time>2020-06-06T13:26:03Z</time>
      </trkpt>
      <trkpt lat="47.66211" lon="-2.79415">
        <ele>41.3</ele>
        <time>2020-06-06T13:26:04Z</time>
      </trkpt>
      <trkpt lat="47.66213" lon="-2.79423">
        <ele>41.2</ele>
        <time>2020-06-06T13:26:05Z</time>
      </trkpt>
      <trkpt lat="47.66216" lon="-2.79431">
        <ele>41.2</ele>
        <time>2020-06-06T13:26:06Z</time>
      </trkpt>
      <trkpt lat="47.66217" lon="-2.79438">
        <ele>41.2</ele>
        <time>2020-06-06T13:26:07Z</time>
      </trkpt>
      <trkpt lat="47.6622" lon="-2.79446">
        <ele>41.2</ele>
        <time>2020-06-06T13:26:08Z</time>
      </trkpt>
      <trkpt lat="47.66221" lon="-2.79453">
        <ele>41.3</ele>
        <time>2020-06-06T13:26:09Z</time>
      </trkpt>
      <trkpt lat="47.66221" lon="-2.79461">
        <ele>41.3</ele>
        <time>2020-06-06T13:26:10Z</time>
      </trkpt>
      <trkpt lat="47.6622" lon="-2.79467">
        <ele>41.3</ele>
        <time>2020-06-06T13:26:11Z</time>
      </trkpt>
      <trkpt lat="47.66219" lon="-2.79475">
        <ele>41.3</ele>
        <time>2020-06-06T13:26:12Z</time>
      </trkpt>
      <trkpt lat="47.66218" lon="-2.79483">
        <ele>41.2</ele>
        <time>2020-06-06T13:26:13Z</time>
      </trkpt>
      <trkpt lat="47.66216" lon="-2.7949">
        <ele>41.1</ele>
        <time>2020-06-06T13:26:14Z</time>
      </trkpt>
      <trkpt lat="47.66214" lon="-2.79497">
        <ele>40.7</ele>
        <time>2020-06-06T13:26:15Z</time>
      </trkpt>
      <trkpt lat="47.66213" lon="-2.79504">
        <ele>40.4</ele>
        <time>2020-06-06T13:26:16Z</time>
      </trkpt>
      <trkpt lat="47.66212" lon="-2.79512">
        <ele>40.2</ele>
        <time>2020-06-06T13:26:17Z</time>
      </trkpt>
      <trkpt lat="47.66213" lon="-2.79519">
        <ele>40</ele>
        <time>2020-06-06T13:26:18Z</time>
      </trkpt>
      <trkpt lat="47.66214" lon="-2.79528">
        <ele>39.7</ele>
        <time>2020-06-06T13:26:19Z</time>
      </trkpt>
      <trkpt lat="47.66215" lon="-2.79536">
        <ele>39.3</ele>
        <time>2020-06-06T13:26:20Z</time>
      </trkpt>
      <trkpt lat="47.66216" lon="-2.79543">
        <ele>39.2</ele>
        <time>2020-06-06T13:26:21Z</time>
      </trkpt>
      <trkpt lat="47.66217" lon="-2.79549">
        <ele>39.2</ele>
        <time>2020-06-06T13:26:22Z</time>
      </trkpt>
      <trkpt lat="47.66218" lon="-2.79557">
        <ele>39.1</ele>
        <time>2020-06-06T13:26:23Z</time>
      </trkpt>
      <trkpt lat="47.66218" lon="-2.79564">
        <ele>39.1</ele>
        <time>2020-06-06T13:26:24Z</time>
      </trkpt>
      <trkpt lat="47.66218" lon="-2.79572">
        <ele>39</ele>
        <time>2020-06-06T13:26:25Z</time>
      </trkpt>
      <trkpt lat="47.66217" lon="-2.7958">
        <ele>38.9</ele>
        <time>2020-06-06T13:26:26Z</time>
      </trkpt>
      <trkpt lat="47.66216" lon="-2.79587">
        <ele>38.9</ele>
        <time>2020-06-06T13:26:27Z</time>
      </trkpt>
      <trkpt lat="47.66215" lon="-2.79593">
        <ele>38.9</ele>
        <time>2020-06-06T13:26:28Z</time>
      </trkpt>
      <trkpt lat="47.66214" lon="-2.796">
        <ele>38.9</ele>
        <time>2020-06-06T13:26:29Z</time>
      </trkpt>
      <trkpt lat="47.66213" lon="-2.79608">
        <ele>38.9</ele>
        <time>2020-06-06T13:26:30Z</time>
      </trkpt>
      <trkpt lat="47.6621" lon="-2.79614">
        <ele>38.9</ele>
        <time>2020-06-06T13:26:31Z</time>
      </trkpt>
      <trkpt lat="47.66209" lon="-2.79623">
        <ele>39</ele>
        <time>2020-06-06T13:26:32Z</time>
      </trkpt>
      <trkpt lat="47.66207" lon="-2.79635">
        <ele>39</ele>
        <time>2020-06-06T13:26:33Z</time>
      </trkpt>
      <trkpt lat="47.66206" lon="-2.79644">
        <ele>38.8</ele>
        <time>2020-06-06T13:26:34Z</time>
      </trkpt>
      <trkpt lat="47.66205" lon="-2.79653">
        <ele>38.7</ele>
        <time>2020-06-06T13:26:35Z</time>
      </trkpt>
      <trkpt lat="47.66204" lon="-2.79662">
        <ele>38.5</ele>
        <time>2020-06-06T13:26:36Z</time>
      </trkpt>
      <trkpt lat="47.66203" lon="-2.7967">
        <ele>38.4</ele>
        <time>2020-06-06T13:26:37Z</time>
      </trkpt>
      <trkpt lat="47.66203" lon="-2.79678">
        <ele>38.3</ele>
        <time>2020-06-06T13:26:38Z</time>
      </trkpt>
      <trkpt lat="47.66202" lon="-2.79685">
        <ele>38.3</ele>
        <time>2020-06-06T13:26:39Z</time>
      </trkpt>
      <trkpt lat="47.66202" lon="-2.79694">
        <ele>38.3</ele>
        <time>2020-06-06T13:26:40Z</time>
      </trkpt>
      <trkpt lat="47.66201" lon="-2.79703">
        <ele>38.2</ele>
        <time>2020-06-06T13:26:41Z</time>
      </trkpt>
      <trkpt lat="47.662" lon="-2.7971">
        <ele>38.1</ele>
        <time>2020-06-06T13:26:42Z</time>
      </trkpt>
      <trkpt lat="47.662" lon="-2.79719">
        <ele>38</ele>
        <time>2020-06-06T13:26:43Z</time>
      </trkpt>
      <trkpt lat="47.66199" lon="-2.79727">
        <ele>38</ele>
        <time>2020-06-06T13:26:44Z</time>
      </trkpt>
      <trkpt lat="47.66199" lon="-2.79735">
        <ele>37.9</ele>
        <time>2020-06-06T13:26:45Z</time>
      </trkpt>
      <trkpt lat="47.66199" lon="-2.79745">
        <ele>37.8</ele>
        <time>2020-06-06T13:26:46Z</time>
      </trkpt>
      <trkpt lat="47.66199" lon="-2.79755">
        <ele>37.7</ele>
        <time>2020-06-06T13:26:47Z</time>
      </trkpt>
      <trkpt lat="47.66198" lon="-2.79762">
        <ele>37.7</ele>
        <time>2020-06-06T13:26:48Z</time>
      </trkpt>
      <trkpt lat="47.66197" lon="-2.79772">
        <ele>37.6</ele>
        <time>2020-06-06T13:26:49Z</time>
      </trkpt>
      <trkpt lat="47.66196" lon="-2.7978">
        <ele>37.6</ele>
        <time>2020-06-06T13:26:50Z</time>
      </trkpt>
      <trkpt lat="47.66195" lon="-2.79789">
        <ele>37.5</ele>
        <time>2020-06-06T13:26:51Z</time>
      </trkpt>
      <trkpt lat="47.66195" lon="-2.79798">
        <ele>37.4</ele>
        <time>2020-06-06T13:26:52Z</time>
      </trkpt>
      <trkpt lat="47.66193" lon="-2.79807">
        <ele>37.4</ele>
        <time>2020-06-06T13:26:53Z</time>
      </trkpt>
      <trkpt lat="47.66193" lon="-2.79817">
        <ele>37.3</ele>
        <time>2020-06-06T13:26:54Z</time>
      </trkpt>
      <trkpt lat="47.66191" lon="-2.79823">
        <ele>37.3</ele>
        <time>2020-06-06T13:26:55Z</time>
      </trkpt>
      <trkpt lat="47.66191" lon="-2.79831">
        <ele>37.2</ele>
        <time>2020-06-06T13:26:56Z</time>
      </trkpt>
      <trkpt lat="47.66189" lon="-2.79839">
        <ele>37.2</ele>
        <time>2020-06-06T13:26:57Z</time>
      </trkpt>
      <trkpt lat="47.66188" lon="-2.79847">
        <ele>37.1</ele>
        <time>2020-06-06T13:26:58Z</time>
      </trkpt>
      <trkpt lat="47.66188" lon="-2.79856">
        <ele>37</ele>
        <time>2020-06-06T13:26:59Z</time>
      </trkpt>
      <trkpt lat="47.66187" lon="-2.79864">
        <ele>36.9</ele>
        <time>2020-06-06T13:27:00Z</time>
      </trkpt>
      <trkpt lat="47.66186" lon="-2.79872">
        <ele>36.8</ele>
        <time>2020-06-06T13:27:01Z</time>
      </trkpt>
      <trkpt lat="47.66185" lon="-2.79882">
        <ele>36.7</ele>
        <time>2020-06-06T13:27:02Z</time>
      </trkpt>
      <trkpt lat="47.66186" lon="-2.7989">
        <ele>36.7</ele>
        <time>2020-06-06T13:27:03Z</time>
      </trkpt>
      <trkpt lat="47.66185" lon="-2.79898">
        <ele>36.6</ele>
        <time>2020-06-06T13:27:04Z</time>
      </trkpt>
      <trkpt lat="47.66185" lon="-2.79906">
        <ele>36.5</ele>
        <time>2020-06-06T13:27:05Z</time>
      </trkpt>
      <trkpt lat="47.66183" lon="-2.79915">
        <ele>36.3</ele>
        <time>2020-06-06T13:27:06Z</time>
      </trkpt>
      <trkpt lat="47.66182" lon="-2.79924">
        <ele>36.2</ele>
        <time>2020-06-06T13:27:07Z</time>
      </trkpt>
      <trkpt lat="47.66181" lon="-2.79933">
        <ele>36</ele>
        <time>2020-06-06T13:27:08Z</time>
      </trkpt>
      <trkpt lat="47.66181" lon="-2.79943">
        <ele>35.9</ele>
        <time>2020-06-06T13:27:09Z</time>
      </trkpt>
      <trkpt lat="47.66181" lon="-2.79954">
        <ele>35.9</ele>
        <time>2020-06-06T13:27:10Z</time>
      </trkpt>
      <trkpt lat="47.66179" lon="-2.79961">
        <ele>35.8</ele>
        <time>2020-06-06T13:27:11Z</time>
      </trkpt>
      <trkpt lat="47.66179" lon="-2.79969">
        <ele>35.8</ele>
        <time>2020-06-06T13:27:12Z</time>
      </trkpt>
      <trkpt lat="47.66179" lon="-2.79977">
        <ele>35.7</ele>
        <time>2020-06-06T13:27:13Z</time>
      </trkpt>
      <trkpt lat="47.66178" lon="-2.79983">
        <ele>35.7</ele>
        <time>2020-06-06T13:27:14Z</time>
      </trkpt>
      <trkpt lat="47.66178" lon="-2.79992">
        <ele>35.6</ele>
        <time>2020-06-06T13:27:15Z</time>
      </trkpt>
      <trkpt lat="47.66177" lon="-2.79998">
        <ele>35.6</ele>
        <time>2020-06-06T13:27:16Z</time>
      </trkpt>
      <trkpt lat="47.66177" lon="-2.80006">
        <ele>35.5</ele>
        <time>2020-06-06T13:27:17Z</time>
      </trkpt>
      <trkpt lat="47.66176" lon="-2.80014">
        <ele>35.4</ele>
        <time>2020-06-06T13:27:18Z</time>
      </trkpt>
      <trkpt lat="47.66176" lon="-2.80023">
        <ele>35.3</ele>
        <time>2020-06-06T13:27:19Z</time>
      </trkpt>
      <trkpt lat="47.66175" lon="-2.80032">
        <ele>35.2</ele>
        <time>2020-06-06T13:27:20Z</time>
      </trkpt>
      <trkpt lat="47.66174" lon="-2.8004">
        <ele>35.1</ele>
        <time>2020-06-06T13:27:21Z</time>
      </trkpt>
      <trkpt lat="47.66174" lon="-2.80051">
        <ele>35</ele>
        <time>2020-06-06T13:27:22Z</time>
      </trkpt>
      <trkpt lat="47.66172" lon="-2.80058">
        <ele>35</ele>
        <time>2020-06-06T13:27:23Z</time>
      </trkpt>
      <trkpt lat="47.66172" lon="-2.80067">
        <ele>34.9</ele>
        <time>2020-06-06T13:27:24Z</time>
      </trkpt>
      <trkpt lat="47.66171" lon="-2.80077">
        <ele>34.9</ele>
        <time>2020-06-06T13:27:25Z</time>
      </trkpt>
      <trkpt lat="47.6617" lon="-2.80086">
        <ele>34.8</ele>
        <time>2020-06-06T13:27:26Z</time>
      </trkpt>
      <trkpt lat="47.6617" lon="-2.80095">
        <ele>34.8</ele>
        <time>2020-06-06T13:27:27Z</time>
      </trkpt>
      <trkpt lat="47.66169" lon="-2.80105">
        <ele>34.7</ele>
        <time>2020-06-06T13:27:28Z</time>
      </trkpt>
      <trkpt lat="47.66168" lon="-2.80114">
        <ele>34.7</ele>
        <time>2020-06-06T13:27:29Z</time>
      </trkpt>
      <trkpt lat="47.66167" lon="-2.80124">
        <ele>34.6</ele>
        <time>2020-06-06T13:27:30Z</time>
      </trkpt>
      <trkpt lat="47.66166" lon="-2.80134">
        <ele>34.5</ele>
        <time>2020-06-06T13:27:31Z</time>
      </trkpt>
      <trkpt lat="47.66164" lon="-2.80143">
        <ele>34.4</ele>
        <time>2020-06-06T13:27:32Z</time>
      </trkpt>
      <trkpt lat="47.66163" lon="-2.80151">
        <ele>34.4</ele>
        <time>2020-06-06T13:27:33Z</time>
      </trkpt>
      <trkpt lat="47.66163" lon="-2.80159">
        <ele>34.3</ele>
        <time>2020-06-06T13:27:34Z</time>
      </trkpt>
      <trkpt lat="47.66161" lon="-2.8017">
        <ele>34.2</ele>
        <time>2020-06-06T13:27:35Z</time>
      </trkpt>
      <trkpt lat="47.6616" lon="-2.80182">
        <ele>34.1</ele>
        <time>2020-06-06T13:27:36Z</time>
      </trkpt>
      <trkpt lat="47.66158" lon="-2.80192">
        <ele>34.1</ele>
        <time>2020-06-06T13:27:37Z</time>
      </trkpt>
      <trkpt lat="47.66158" lon="-2.80201">
        <ele>34</ele>
        <time>2020-06-06T13:27:38Z</time>
      </trkpt>
      <trkpt lat="47.66158" lon="-2.80211">
        <ele>34</ele>
        <time>2020-06-06T13:27:39Z</time>
      </trkpt>
      <trkpt lat="47.66157" lon="-2.80218">
        <ele>33.9</ele>
        <time>2020-06-06T13:27:40Z</time>
      </trkpt>
      <trkpt lat="47.66157" lon="-2.80229">
        <ele>33.9</ele>
        <time>2020-06-06T13:27:41Z</time>
      </trkpt>
      <trkpt lat="47.66157" lon="-2.80237">
        <ele>33.9</ele>
        <time>2020-06-06T13:27:42Z</time>
      </trkpt>
      <trkpt lat="47.66156" lon="-2.80245">
        <ele>33.8</ele>
        <time>2020-06-06T13:27:43Z</time>
      </trkpt>
      <trkpt lat="47.66155" lon="-2.80253">
        <ele>33.8</ele>
        <time>2020-06-06T13:27:44Z</time>
      </trkpt>
      <trkpt lat="47.66155" lon="-2.80262">
        <ele>33.8</ele>
        <time>2020-06-06T13:27:45Z</time>
      </trkpt>
      <trkpt lat="47.66154" lon="-2.80269">
        <ele>33.8</ele>
        <time>2020-06-06T13:27:46Z</time>
      </trkpt>
      <trkpt lat="47.66153" lon="-2.80277">
        <ele>33.8</ele>
        <time>2020-06-06T13:27:47Z</time>
      </trkpt>
      <trkpt lat="47.66152" lon="-2.80286">
        <ele>33.8</ele>
        <time>2020-06-06T13:27:48Z</time>
      </trkpt>
      <trkpt lat="47.66151" lon="-2.80292">
        <ele>33.8</ele>
        <time>2020-06-06T13:27:49Z</time>
      </trkpt>
      <trkpt lat="47.6615" lon="-2.80301">
        <ele>33.9</ele>
        <time>2020-06-06T13:27:50Z</time>
      </trkpt>
      <trkpt lat="47.66149" lon="-2.80308">
        <ele>33.9</ele>
        <time>2020-06-06T13:27:51Z</time>
      </trkpt>
      <trkpt lat="47.66148" lon="-2.80317">
        <ele>33.9</ele>
        <time>2020-06-06T13:27:52Z</time>
      </trkpt>
      <trkpt lat="47.66147" lon="-2.80326">
        <ele>34</ele>
        <time>2020-06-06T13:27:53Z</time>
      </trkpt>
      <trkpt lat="47.66146" lon="-2.80335">
        <ele>34.1</ele>
        <time>2020-06-06T13:27:54Z</time>
      </trkpt>
      <trkpt lat="47.66146" lon="-2.80342">
        <ele>34.1</ele>
        <time>2020-06-06T13:27:55Z</time>
      </trkpt>
      <trkpt lat="47.66145" lon="-2.80351">
        <ele>34</ele>
        <time>2020-06-06T13:27:56Z</time>
      </trkpt>
      <trkpt lat="47.66144" lon="-2.80359">
        <ele>33.8</ele>
        <time>2020-06-06T13:27:57Z</time>
      </trkpt>
      <trkpt lat="47.66144" lon="-2.80368">
        <ele>33.7</ele>
        <time>2020-06-06T13:27:58Z</time>
      </trkpt>
      <trkpt lat="47.66143" lon="-2.80377">
        <ele>33.5</ele>
        <time>2020-06-06T13:27:59Z</time>
      </trkpt>
      <trkpt lat="47.66142" lon="-2.80386">
        <ele>33.5</ele>
        <time>2020-06-06T13:28:00Z</time>
      </trkpt>
      <trkpt lat="47.66142" lon="-2.80395">
        <ele>33.4</ele>
        <time>2020-06-06T13:28:01Z</time>
      </trkpt>
      <trkpt lat="47.66141" lon="-2.80402">
        <ele>33.4</ele>
        <time>2020-06-06T13:28:02Z</time>
      </trkpt>
      <trkpt lat="47.66141" lon="-2.8041">
        <ele>33.4</ele>
        <time>2020-06-06T13:28:03Z</time>
      </trkpt>
      <trkpt lat="47.66141" lon="-2.80419">
        <ele>33.4</ele>
        <time>2020-06-06T13:28:04Z</time>
      </trkpt>
      <trkpt lat="47.6614" lon="-2.8043">
        <ele>33.4</ele>
        <time>2020-06-06T13:28:05Z</time>
      </trkpt>
      <trkpt lat="47.66138" lon="-2.80438">
        <ele>33.5</ele>
        <time>2020-06-06T13:28:06Z</time>
      </trkpt>
      <trkpt lat="47.66137" lon="-2.80446">
        <ele>33.5</ele>
        <time>2020-06-06T13:28:07Z</time>
      </trkpt>
      <trkpt lat="47.66136" lon="-2.80456">
        <ele>33.5</ele>
        <time>2020-06-06T13:28:08Z</time>
      </trkpt>
      <trkpt lat="47.66134" lon="-2.80463">
        <ele>33.5</ele>
        <time>2020-06-06T13:28:09Z</time>
      </trkpt>
      <trkpt lat="47.66133" lon="-2.80472">
        <ele>33.6</ele>
        <time>2020-06-06T13:28:10Z</time>
      </trkpt>
      <trkpt lat="47.66133" lon="-2.8048">
        <ele>33.6</ele>
        <time>2020-06-06T13:28:11Z</time>
      </trkpt>
      <trkpt lat="47.66133" lon="-2.80488">
        <ele>33.7</ele>
        <time>2020-06-06T13:28:12Z</time>
      </trkpt>
      <trkpt lat="47.66132" lon="-2.80494">
        <ele>33.7</ele>
        <time>2020-06-06T13:28:13Z</time>
      </trkpt>
      <trkpt lat="47.66133" lon="-2.80502">
        <ele>33.8</ele>
        <time>2020-06-06T13:28:14Z</time>
      </trkpt>
      <trkpt lat="47.66133" lon="-2.80511">
        <ele>33.8</ele>
        <time>2020-06-06T13:28:15Z</time>
      </trkpt>
      <trkpt lat="47.66133" lon="-2.80517">
        <ele>33.9</ele>
        <time>2020-06-06T13:28:16Z</time>
      </trkpt>
      <trkpt lat="47.66133" lon="-2.80524">
        <ele>33.8</ele>
        <time>2020-06-06T13:28:17Z</time>
      </trkpt>
      <trkpt lat="47.6613" lon="-2.80531">
        <ele>33.7</ele>
        <time>2020-06-06T13:28:18Z</time>
      </trkpt>
      <trkpt lat="47.66126" lon="-2.80536">
        <ele>33.6</ele>
        <time>2020-06-06T13:28:19Z</time>
      </trkpt>
      <trkpt lat="47.66122" lon="-2.80541">
        <ele>33.5</ele>
        <time>2020-06-06T13:28:20Z</time>
      </trkpt>
      <trkpt lat="47.66119" lon="-2.80548">
        <ele>33.5</ele>
        <time>2020-06-06T13:28:21Z</time>
      </trkpt>
      <trkpt lat="47.66116" lon="-2.80555">
        <ele>33.5</ele>
        <time>2020-06-06T13:28:22Z</time>
      </trkpt>
      <trkpt lat="47.66114" lon="-2.80561">
        <ele>33.5</ele>
        <time>2020-06-06T13:28:23Z</time>
      </trkpt>
      <trkpt lat="47.66111" lon="-2.80566">
        <ele>33.5</ele>
        <time>2020-06-06T13:28:24Z</time>
      </trkpt>
      <trkpt lat="47.66109" lon="-2.80571">
        <ele>33.6</ele>
        <time>2020-06-06T13:28:25Z</time>
      </trkpt>
      <trkpt lat="47.66106" lon="-2.80577">
        <ele>33.6</ele>
        <time>2020-06-06T13:28:26Z</time>
      </trkpt>
      <trkpt lat="47.66104" lon="-2.80584">
        <ele>33.7</ele>
        <time>2020-06-06T13:28:27Z</time>
      </trkpt>
      <trkpt lat="47.66101" lon="-2.80591">
        <ele>33.7</ele>
        <time>2020-06-06T13:28:28Z</time>
      </trkpt>
      <trkpt lat="47.66098" lon="-2.80598">
        <ele>33.7</ele>
        <time>2020-06-06T13:28:29Z</time>
      </trkpt>
      <trkpt lat="47.66095" lon="-2.80606">
        <ele>33.8</ele>
        <time>2020-06-06T13:28:30Z</time>
      </trkpt>
      <trkpt lat="47.66092" lon="-2.80613">
        <ele>33.8</ele>
        <time>2020-06-06T13:28:31Z</time>
      </trkpt>
      <trkpt lat="47.6609" lon="-2.80621">
        <ele>33.7</ele>
        <time>2020-06-06T13:28:32Z</time>
      </trkpt>
      <trkpt lat="47.66088" lon="-2.80629">
        <ele>33.6</ele>
        <time>2020-06-06T13:28:33Z</time>
      </trkpt>
      <trkpt lat="47.66086" lon="-2.80637">
        <ele>33.6</ele>
        <time>2020-06-06T13:28:34Z</time>
      </trkpt>
      <trkpt lat="47.66085" lon="-2.80644">
        <ele>33.7</ele>
        <time>2020-06-06T13:28:35Z</time>
      </trkpt>
      <trkpt lat="47.66084" lon="-2.80652">
        <ele>33.7</ele>
        <time>2020-06-06T13:28:36Z</time>
      </trkpt>
      <trkpt lat="47.66084" lon="-2.8066">
        <ele>33.8</ele>
        <time>2020-06-06T13:28:37Z</time>
      </trkpt>
      <trkpt lat="47.66084" lon="-2.80667">
        <ele>33.9</ele>
        <time>2020-06-06T13:28:38Z</time>
      </trkpt>
      <trkpt lat="47.66084" lon="-2.80673">
        <ele>34</ele>
        <time>2020-06-06T13:28:39Z</time>
      </trkpt>
      <trkpt lat="47.66085" lon="-2.8068">
        <ele>34.1</ele>
        <time>2020-06-06T13:28:40Z</time>
      </trkpt>
      <trkpt lat="47.66085" lon="-2.80686">
        <ele>34.1</ele>
        <time>2020-06-06T13:28:41Z</time>
      </trkpt>
      <trkpt lat="47.66085" lon="-2.80693">
        <ele>34.1</ele>
        <time>2020-06-06T13:28:42Z</time>
      </trkpt>
      <trkpt lat="47.66085" lon="-2.80701">
        <ele>34.1</ele>
        <time>2020-06-06T13:28:43Z</time>
      </trkpt>
      <trkpt lat="47.66085" lon="-2.80708">
        <ele>34.2</ele>
        <time>2020-06-06T13:28:44Z</time>
      </trkpt>
      <trkpt lat="47.66085" lon="-2.80714">
        <ele>34.2</ele>
        <time>2020-06-06T13:28:45Z</time>
      </trkpt>
      <trkpt lat="47.66086" lon="-2.8072">
        <ele>34.2</ele>
        <time>2020-06-06T13:28:46Z</time>
      </trkpt>
      <trkpt lat="47.66085" lon="-2.80727">
        <ele>34.3</ele>
        <time>2020-06-06T13:28:47Z</time>
      </trkpt>
      <trkpt lat="47.66085" lon="-2.80735">
        <ele>34.3</ele>
        <time>2020-06-06T13:28:48Z</time>
      </trkpt>
      <trkpt lat="47.66084" lon="-2.80742">
        <ele>34.4</ele>
        <time>2020-06-06T13:28:49Z</time>
      </trkpt>
      <trkpt lat="47.66084" lon="-2.8075">
        <ele>34.4</ele>
        <time>2020-06-06T13:28:50Z</time>
      </trkpt>
      <trkpt lat="47.66083" lon="-2.80757">
        <ele>34.4</ele>
        <time>2020-06-06T13:28:51Z</time>
      </trkpt>
      <trkpt lat="47.66083" lon="-2.80764">
        <ele>34.4</ele>
        <time>2020-06-06T13:28:52Z</time>
      </trkpt>
      <trkpt lat="47.66083" lon="-2.80771">
        <ele>34.5</ele>
        <time>2020-06-06T13:28:53Z</time>
      </trkpt>
      <trkpt lat="47.66084" lon="-2.80778">
        <ele>34.5</ele>
        <time>2020-06-06T13:28:54Z</time>
      </trkpt>
      <trkpt lat="47.66084" lon="-2.80785">
        <ele>34.5</ele>
        <time>2020-06-06T13:28:55Z</time>
      </trkpt>
      <trkpt lat="47.66084" lon="-2.80793">
        <ele>34.5</ele>
        <time>2020-06-06T13:28:56Z</time>
      </trkpt>
      <trkpt lat="47.66084" lon="-2.80803">
        <ele>34.5</ele>
        <time>2020-06-06T13:28:57Z</time>
      </trkpt>
      <trkpt lat="47.66084" lon="-2.8081">
        <ele>34.5</ele>
        <time>2020-06-06T13:28:58Z</time>
      </trkpt>
      <trkpt lat="47.66084" lon="-2.8082">
        <ele>34.6</ele>
        <time>2020-06-06T13:28:59Z</time>
      </trkpt>
      <trkpt lat="47.66084" lon="-2.80829">
        <ele>34.6</ele>
        <time>2020-06-06T13:29:00Z</time>
      </trkpt>
      <trkpt lat="47.66084" lon="-2.80836">
        <ele>34.6</ele>
        <time>2020-06-06T13:29:01Z</time>
      </trkpt>
      <trkpt lat="47.66084" lon="-2.80843">
        <ele>34.6</ele>
        <time>2020-06-06T13:29:02Z</time>
      </trkpt>
      <trkpt lat="47.66084" lon="-2.80852">
        <ele>34.7</ele>
        <time>2020-06-06T13:29:03Z</time>
      </trkpt>
      <trkpt lat="47.66084" lon="-2.80859">
        <ele>34.7</ele>
        <time>2020-06-06T13:29:04Z</time>
      </trkpt>
      <trkpt lat="47.66083" lon="-2.80868">
        <ele>34.8</ele>
        <time>2020-06-06T13:29:05Z</time>
      </trkpt>
      <trkpt lat="47.66083" lon="-2.80876">
        <ele>34.9</ele>
        <time>2020-06-06T13:29:06Z</time>
      </trkpt>
      <trkpt lat="47.66083" lon="-2.80884">
        <ele>34.9</ele>
        <time>2020-06-06T13:29:07Z</time>
      </trkpt>
      <trkpt lat="47.66083" lon="-2.80892">
        <ele>35</ele>
        <time>2020-06-06T13:29:08Z</time>
      </trkpt>
      <trkpt lat="47.66084" lon="-2.80899">
        <ele>35.1</ele>
        <time>2020-06-06T13:29:09Z</time>
      </trkpt>
      <trkpt lat="47.66085" lon="-2.80908">
        <ele>35.2</ele>
        <time>2020-06-06T13:29:10Z</time>
      </trkpt>
      <trkpt lat="47.66085" lon="-2.80914">
        <ele>35.3</ele>
        <time>2020-06-06T13:29:11Z</time>
      </trkpt>
      <trkpt lat="47.66086" lon="-2.80923">
        <ele>35.4</ele>
        <time>2020-06-06T13:29:12Z</time>
      </trkpt>
      <trkpt lat="47.66086" lon="-2.80931">
        <ele>35.6</ele>
        <time>2020-06-06T13:29:13Z</time>
      </trkpt>
      <trkpt lat="47.66086" lon="-2.80936">
        <ele>35.7</ele>
        <time>2020-06-06T13:29:14Z</time>
      </trkpt>
      <trkpt lat="47.66086" lon="-2.80943">
        <ele>35.8</ele>
        <time>2020-06-06T13:29:15Z</time>
      </trkpt>
      <trkpt lat="47.66087" lon="-2.8095">
        <ele>36</ele>
        <time>2020-06-06T13:29:16Z</time>
      </trkpt>
      <trkpt lat="47.66087" lon="-2.80958">
        <ele>36.2</ele>
        <time>2020-06-06T13:29:17Z</time>
      </trkpt>
      <trkpt lat="47.66087" lon="-2.80965">
        <ele>36.4</ele>
        <time>2020-06-06T13:29:18Z</time>
      </trkpt>
      <trkpt lat="47.66087" lon="-2.80972">
        <ele>36.5</ele>
        <time>2020-06-06T13:29:19Z</time>
      </trkpt>
      <trkpt lat="47.66087" lon="-2.80978">
        <ele>36.7</ele>
        <time>2020-06-06T13:29:20Z</time>
      </trkpt>
      <trkpt lat="47.66088" lon="-2.80984">
        <ele>36.8</ele>
        <time>2020-06-06T13:29:21Z</time>
      </trkpt>
      <trkpt lat="47.66089" lon="-2.8099">
        <ele>36.9</ele>
        <time>2020-06-06T13:29:22Z</time>
      </trkpt>
      <trkpt lat="47.66089" lon="-2.80997">
        <ele>37</ele>
        <time>2020-06-06T13:29:23Z</time>
      </trkpt>
      <trkpt lat="47.6609" lon="-2.81004">
        <ele>37.1</ele>
        <time>2020-06-06T13:29:24Z</time>
      </trkpt>
      <trkpt lat="47.6609" lon="-2.81008">
        <ele>37.2</ele>
        <time>2020-06-06T13:29:25Z</time>
      </trkpt>
      <trkpt lat="47.6609" lon="-2.81014">
        <ele>37.2</ele>
        <time>2020-06-06T13:29:26Z</time>
      </trkpt>
      <trkpt lat="47.6609" lon="-2.81019">
        <ele>37.3</ele>
        <time>2020-06-06T13:29:27Z</time>
      </trkpt>
      <trkpt lat="47.6609" lon="-2.81025">
        <ele>37.3</ele>
        <time>2020-06-06T13:29:28Z</time>
      </trkpt>
      <trkpt lat="47.66089" lon="-2.81033">
        <ele>37.4</ele>
        <time>2020-06-06T13:29:29Z</time>
      </trkpt>
      <trkpt lat="47.66089" lon="-2.81041">
        <ele>37.4</ele>
        <time>2020-06-06T13:29:30Z</time>
      </trkpt>
      <trkpt lat="47.66087" lon="-2.81046">
        <ele>37.4</ele>
        <time>2020-06-06T13:29:31Z</time>
      </trkpt>
      <trkpt lat="47.66083" lon="-2.81048">
        <ele>37.4</ele>
        <time>2020-06-06T13:29:32Z</time>
      </trkpt>
      <trkpt lat="47.66079" lon="-2.81046">
        <ele>37.4</ele>
        <time>2020-06-06T13:29:33Z</time>
      </trkpt>
      <trkpt lat="47.66074" lon="-2.81047">
        <ele>37.3</ele>
        <time>2020-06-06T13:29:34Z</time>
      </trkpt>
      <trkpt lat="47.66068" lon="-2.81046">
        <ele>37.3</ele>
        <time>2020-06-06T13:29:35Z</time>
      </trkpt>
      <trkpt lat="47.66063" lon="-2.81045">
        <ele>37.3</ele>
        <time>2020-06-06T13:29:36Z</time>
      </trkpt>
      <trkpt lat="47.66059" lon="-2.81045">
        <ele>37.3</ele>
        <time>2020-06-06T13:29:37Z</time>
      </trkpt>
      <trkpt lat="47.66054" lon="-2.81045">
        <ele>37.3</ele>
        <time>2020-06-06T13:29:38Z</time>
      </trkpt>
      <trkpt lat="47.66048" lon="-2.81045">
        <ele>37.2</ele>
        <time>2020-06-06T13:29:39Z</time>
      </trkpt>
      <trkpt lat="47.66041" lon="-2.81044">
        <ele>37.1</ele>
        <time>2020-06-06T13:29:40Z</time>
      </trkpt>
      <trkpt lat="47.66036" lon="-2.81044">
        <ele>37</ele>
        <time>2020-06-06T13:29:41Z</time>
      </trkpt>
      <trkpt lat="47.66032" lon="-2.81047">
        <ele>37</ele>
        <time>2020-06-06T13:29:42Z</time>
      </trkpt>
      <trkpt lat="47.66028" lon="-2.8105">
        <ele>36.5</ele>
        <time>2020-06-06T13:29:43Z</time>
      </trkpt>
      <trkpt lat="47.66028" lon="-2.81058">
        <ele>36.3</ele>
        <time>2020-06-06T13:29:44Z</time>
      </trkpt>
      <trkpt lat="47.66028" lon="-2.81065">
        <ele>36</ele>
        <time>2020-06-06T13:29:45Z</time>
      </trkpt>
      <trkpt lat="47.66027" lon="-2.81073">
        <ele>35.7</ele>
        <time>2020-06-06T13:29:46Z</time>
      </trkpt>
      <trkpt lat="47.66026" lon="-2.81081">
        <ele>35.4</ele>
        <time>2020-06-06T13:29:47Z</time>
      </trkpt>
      <trkpt lat="47.66026" lon="-2.81092">
        <ele>34.9</ele>
        <time>2020-06-06T13:29:48Z</time>
      </trkpt>
      <trkpt lat="47.66025" lon="-2.81102">
        <ele>34.4</ele>
        <time>2020-06-06T13:29:49Z</time>
      </trkpt>
      <trkpt lat="47.66024" lon="-2.81113">
        <ele>33.9</ele>
        <time>2020-06-06T13:29:50Z</time>
      </trkpt>
      <trkpt lat="47.66022" lon="-2.81124">
        <ele>33.3</ele>
        <time>2020-06-06T13:29:51Z</time>
      </trkpt>
      <trkpt lat="47.66023" lon="-2.81139">
        <ele>32.5</ele>
        <time>2020-06-06T13:29:52Z</time>
      </trkpt>
      <trkpt lat="47.66023" lon="-2.81152">
        <ele>31.8</ele>
        <time>2020-06-06T13:29:53Z</time>
      </trkpt>
      <trkpt lat="47.66022" lon="-2.81167">
        <ele>30.7</ele>
        <time>2020-06-06T13:29:54Z</time>
      </trkpt>
      <trkpt lat="47.66021" lon="-2.81181">
        <ele>29.7</ele>
        <time>2020-06-06T13:29:55Z</time>
      </trkpt>
      <trkpt lat="47.6602" lon="-2.81197">
        <ele>28.6</ele>
        <time>2020-06-06T13:29:56Z</time>
      </trkpt>
      <trkpt lat="47.66019" lon="-2.81212">
        <ele>27.5</ele>
        <time>2020-06-06T13:29:57Z</time>
      </trkpt>
      <trkpt lat="47.66016" lon="-2.81228">
        <ele>26.3</ele>
        <time>2020-06-06T13:29:58Z</time>
      </trkpt>
      <trkpt lat="47.66013" lon="-2.81246">
        <ele>25.1</ele>
        <time>2020-06-06T13:29:59Z</time>
      </trkpt>
      <trkpt lat="47.66009" lon="-2.81264">
        <ele>23.8</ele>
        <time>2020-06-06T13:30:00Z</time>
      </trkpt>
      <trkpt lat="47.66004" lon="-2.81282">
        <ele>22.5</ele>
        <time>2020-06-06T13:30:01Z</time>
      </trkpt>
      <trkpt lat="47.65997" lon="-2.81298">
        <ele>21.3</ele>
        <time>2020-06-06T13:30:02Z</time>
      </trkpt>
      <trkpt lat="47.65989" lon="-2.81314">
        <ele>20.5</ele>
        <time>2020-06-06T13:30:03Z</time>
      </trkpt>
      <trkpt lat="47.65979" lon="-2.81326">
        <ele>19.7</ele>
        <time>2020-06-06T13:30:04Z</time>
      </trkpt>
      <trkpt lat="47.65969" lon="-2.81338">
        <ele>18.9</ele>
        <time>2020-06-06T13:30:05Z</time>
      </trkpt>
      <trkpt lat="47.65958" lon="-2.81348">
        <ele>18.1</ele>
        <time>2020-06-06T13:30:06Z</time>
      </trkpt>
      <trkpt lat="47.65947" lon="-2.81358">
        <ele>17.3</ele>
        <time>2020-06-06T13:30:07Z</time>
      </trkpt>
      <trkpt lat="47.65936" lon="-2.81369">
        <ele>16.4</ele>
        <time>2020-06-06T13:30:08Z</time>
      </trkpt>
      <trkpt lat="47.65925" lon="-2.81379">
        <ele>15.6</ele>
        <time>2020-06-06T13:30:09Z</time>
      </trkpt>
      <trkpt lat="47.65914" lon="-2.8139">
        <ele>14.8</ele>
        <time>2020-06-06T13:30:10Z</time>
      </trkpt>
      <trkpt lat="47.65902" lon="-2.814">
        <ele>14.1</ele>
        <time>2020-06-06T13:30:11Z</time>
      </trkpt>
      <trkpt lat="47.65891" lon="-2.8141">
        <ele>13.5</ele>
        <time>2020-06-06T13:30:12Z</time>
      </trkpt>
      <trkpt lat="47.6588" lon="-2.81422">
        <ele>12.9</ele>
        <time>2020-06-06T13:30:13Z</time>
      </trkpt>
      <trkpt lat="47.6587" lon="-2.81434">
        <ele>12.4</ele>
        <time>2020-06-06T13:30:14Z</time>
      </trkpt>
      <trkpt lat="47.6586" lon="-2.81447">
        <ele>12</ele>
        <time>2020-06-06T13:30:15Z</time>
      </trkpt>
      <trkpt lat="47.65851" lon="-2.81461">
        <ele>11.7</ele>
        <time>2020-06-06T13:30:16Z</time>
      </trkpt>
      <trkpt lat="47.65842" lon="-2.81475">
        <ele>11.5</ele>
        <time>2020-06-06T13:30:17Z</time>
      </trkpt>
      <trkpt lat="47.65836" lon="-2.8149">
        <ele>11.5</ele>
        <time>2020-06-06T13:30:18Z</time>
      </trkpt>
      <trkpt lat="47.6583" lon="-2.81506">
        <ele>11.5</ele>
        <time>2020-06-06T13:30:19Z</time>
      </trkpt>
      <trkpt lat="47.65824" lon="-2.81521">
        <ele>11.6</ele>
        <time>2020-06-06T13:30:20Z</time>
      </trkpt>
      <trkpt lat="47.65821" lon="-2.81537">
        <ele>11.9</ele>
        <time>2020-06-06T13:30:21Z</time>
      </trkpt>
      <trkpt lat="47.65817" lon="-2.81553">
        <ele>12.2</ele>
        <time>2020-06-06T13:30:22Z</time>
      </trkpt>
      <trkpt lat="47.65815" lon="-2.81568">
        <ele>12.6</ele>
        <time>2020-06-06T13:30:23Z</time>
      </trkpt>
      <trkpt lat="47.65813" lon="-2.81583">
        <ele>12.9</ele>
        <time>2020-06-06T13:30:24Z</time>
      </trkpt>
      <trkpt lat="47.65812" lon="-2.81596">
        <ele>13.3</ele>
        <time>2020-06-06T13:30:25Z</time>
      </trkpt>
      <trkpt lat="47.65811" lon="-2.81609">
        <ele>13.6</ele>
        <time>2020-06-06T13:30:26Z</time>
      </trkpt>
      <trkpt lat="47.6581" lon="-2.81621">
        <ele>13.9</ele>
        <time>2020-06-06T13:30:27Z</time>
      </trkpt>
      <trkpt lat="47.6581" lon="-2.81633">
        <ele>14.3</ele>
        <time>2020-06-06T13:30:28Z</time>
      </trkpt>
      <trkpt lat="47.6581" lon="-2.81644">
        <ele>14.7</ele>
        <time>2020-06-06T13:30:29Z</time>
      </trkpt>
      <trkpt lat="47.6581" lon="-2.81655">
        <ele>15.1</ele>
        <time>2020-06-06T13:30:30Z</time>
      </trkpt>
      <trkpt lat="47.65812" lon="-2.81663">
        <ele>15.4</ele>
        <time>2020-06-06T13:30:31Z</time>
      </trkpt>
      <trkpt lat="47.65814" lon="-2.81672">
        <ele>15.8</ele>
        <time>2020-06-06T13:30:32Z</time>
      </trkpt>
      <trkpt lat="47.65816" lon="-2.8168">
        <ele>16.1</ele>
        <time>2020-06-06T13:30:33Z</time>
      </trkpt>
      <trkpt lat="47.65817" lon="-2.81688">
        <ele>16.4</ele>
        <time>2020-06-06T13:30:34Z</time>
      </trkpt>
      <trkpt lat="47.65819" lon="-2.81695">
        <ele>16.8</ele>
        <time>2020-06-06T13:30:35Z</time>
      </trkpt>
      <trkpt lat="47.6582" lon="-2.81702">
        <ele>17</ele>
        <time>2020-06-06T13:30:36Z</time>
      </trkpt>
      <trkpt lat="47.65822" lon="-2.81708">
        <ele>17.3</ele>
        <time>2020-06-06T13:30:37Z</time>
      </trkpt>
      <trkpt lat="47.65823" lon="-2.81713">
        <ele>17.5</ele>
        <time>2020-06-06T13:30:38Z</time>
      </trkpt>
      <trkpt lat="47.65824" lon="-2.81718">
        <ele>17.7</ele>
        <time>2020-06-06T13:30:39Z</time>
      </trkpt>
      <trkpt lat="47.65825" lon="-2.81723">
        <ele>18</ele>
        <time>2020-06-06T13:30:40Z</time>
      </trkpt>
      <trkpt lat="47.65825" lon="-2.81729">
        <ele>18.2</ele>
        <time>2020-06-06T13:30:41Z</time>
      </trkpt>
      <trkpt lat="47.65826" lon="-2.81734">
        <ele>18.5</ele>
        <time>2020-06-06T13:30:42Z</time>
      </trkpt>
      <trkpt lat="47.65827" lon="-2.8174">
        <ele>18.7</ele>
        <time>2020-06-06T13:30:43Z</time>
      </trkpt>
      <trkpt lat="47.65828" lon="-2.81745">
        <ele>18.9</ele>
        <time>2020-06-06T13:30:44Z</time>
      </trkpt>
      <trkpt lat="47.65829" lon="-2.8175">
        <ele>19.1</ele>
        <time>2020-06-06T13:30:45Z</time>
      </trkpt>
      <trkpt lat="47.6583" lon="-2.81755">
        <ele>19.3</ele>
        <time>2020-06-06T13:30:46Z</time>
      </trkpt>
      <trkpt lat="47.65831" lon="-2.81761">
        <ele>19.6</ele>
        <time>2020-06-06T13:30:47Z</time>
      </trkpt>
      <trkpt lat="47.65831" lon="-2.81767">
        <ele>19.8</ele>
        <time>2020-06-06T13:30:48Z</time>
      </trkpt>
      <trkpt lat="47.65833" lon="-2.81772">
        <ele>20.1</ele>
        <time>2020-06-06T13:30:49Z</time>
      </trkpt>
      <trkpt lat="47.65834" lon="-2.81777">
        <ele>20.3</ele>
        <time>2020-06-06T13:30:50Z</time>
      </trkpt>
      <trkpt lat="47.65834" lon="-2.81783">
        <ele>20.5</ele>
        <time>2020-06-06T13:30:51Z</time>
      </trkpt>
      <trkpt lat="47.65835" lon="-2.81789">
        <ele>20.7</ele>
        <time>2020-06-06T13:30:52Z</time>
      </trkpt>
      <trkpt lat="47.65836" lon="-2.81794">
        <ele>20.9</ele>
        <time>2020-06-06T13:30:53Z</time>
      </trkpt>
      <trkpt lat="47.65838" lon="-2.81799">
        <ele>21.1</ele>
        <time>2020-06-06T13:30:54Z</time>
      </trkpt>
      <trkpt lat="47.65839" lon="-2.81805">
        <ele>21.3</ele>
        <time>2020-06-06T13:30:55Z</time>
      </trkpt>
      <trkpt lat="47.6584" lon="-2.81811">
        <ele>21.5</ele>
        <time>2020-06-06T13:30:56Z</time>
      </trkpt>
      <trkpt lat="47.65842" lon="-2.81817">
        <ele>21.7</ele>
        <time>2020-06-06T13:30:57Z</time>
      </trkpt>
      <trkpt lat="47.65843" lon="-2.81823">
        <ele>21.9</ele>
        <time>2020-06-06T13:30:58Z</time>
      </trkpt>
      <trkpt lat="47.65844" lon="-2.81828">
        <ele>22.2</ele>
        <time>2020-06-06T13:30:59Z</time>
      </trkpt>
      <trkpt lat="47.65844" lon="-2.81832">
        <ele>22.4</ele>
        <time>2020-06-06T13:31:00Z</time>
      </trkpt>
      <trkpt lat="47.65845" lon="-2.81837">
        <ele>22.6</ele>
        <time>2020-06-06T13:31:01Z</time>
      </trkpt>
      <trkpt lat="47.65845" lon="-2.81839">
        <ele>22.7</ele>
        <time>2020-06-06T13:31:02Z</time>
      </trkpt>
      <trkpt lat="47.65846" lon="-2.81844">
        <ele>22.9</ele>
        <time>2020-06-06T13:31:03Z</time>
      </trkpt>
      <trkpt lat="47.65847" lon="-2.81851">
        <ele>23.2</ele>
        <time>2020-06-06T13:31:04Z</time>
      </trkpt>
      <trkpt lat="47.65849" lon="-2.81856">
        <ele>23.3</ele>
        <time>2020-06-06T13:31:05Z</time>
      </trkpt>
      <trkpt lat="47.65849" lon="-2.81861">
        <ele>23.5</ele>
        <time>2020-06-06T13:31:06Z</time>
      </trkpt>
      <trkpt lat="47.65851" lon="-2.81867">
        <ele>23.7</ele>
        <time>2020-06-06T13:31:07Z</time>
      </trkpt>
      <trkpt lat="47.65852" lon="-2.81872">
        <ele>23.9</ele>
        <time>2020-06-06T13:31:08Z</time>
      </trkpt>
      <trkpt lat="47.65853" lon="-2.81877">
        <ele>24.1</ele>
        <time>2020-06-06T13:31:09Z</time>
      </trkpt>
      <trkpt lat="47.65854" lon="-2.81881">
        <ele>24.2</ele>
        <time>2020-06-06T13:31:10Z</time>
      </trkpt>
      <trkpt lat="47.65855" lon="-2.81886">
        <ele>24.4</ele>
        <time>2020-06-06T13:31:11Z</time>
      </trkpt>
      <trkpt lat="47.65856" lon="-2.81891">
        <ele>24.5</ele>
        <time>2020-06-06T13:31:12Z</time>
      </trkpt>
      <trkpt lat="47.65856" lon="-2.81893">
        <ele>24.6</ele>
        <time>2020-06-06T13:31:13Z</time>
      </trkpt>
      <trkpt lat="47.65858" lon="-2.81899">
        <ele>24.8</ele>
        <time>2020-06-06T13:31:14Z</time>
      </trkpt>
      <trkpt lat="47.65859" lon="-2.81904">
        <ele>25</ele>
        <time>2020-06-06T13:31:15Z</time>
      </trkpt>
      <trkpt lat="47.6586" lon="-2.81909">
        <ele>25.2</ele>
        <time>2020-06-06T13:31:16Z</time>
      </trkpt>
      <trkpt lat="47.65862" lon="-2.81914">
        <ele>25.4</ele>
        <time>2020-06-06T13:31:17Z</time>
      </trkpt>
      <trkpt lat="47.65863" lon="-2.81918">
        <ele>25.5</ele>
        <time>2020-06-06T13:31:18Z</time>
      </trkpt>
      <trkpt lat="47.65864" lon="-2.81922">
        <ele>25.7</ele>
        <time>2020-06-06T13:31:19Z</time>
      </trkpt>
      <trkpt lat="47.65866" lon="-2.81926">
        <ele>25.8</ele>
        <time>2020-06-06T13:31:20Z</time>
      </trkpt>
      <trkpt lat="47.65867" lon="-2.81931">
        <ele>26</ele>
        <time>2020-06-06T13:31:21Z</time>
      </trkpt>
      <trkpt lat="47.65868" lon="-2.81935">
        <ele>26.1</ele>
        <time>2020-06-06T13:31:22Z</time>
      </trkpt>
      <trkpt lat="47.6587" lon="-2.8194">
        <ele>26.3</ele>
        <time>2020-06-06T13:31:23Z</time>
      </trkpt>
      <trkpt lat="47.65872" lon="-2.81944">
        <ele>26.4</ele>
        <time>2020-06-06T13:31:24Z</time>
      </trkpt>
      <trkpt lat="47.65873" lon="-2.81948">
        <ele>26.6</ele>
        <time>2020-06-06T13:31:25Z</time>
      </trkpt>
      <trkpt lat="47.65874" lon="-2.81953">
        <ele>26.7</ele>
        <time>2020-06-06T13:31:26Z</time>
      </trkpt>
      <trkpt lat="47.65876" lon="-2.81959">
        <ele>26.9</ele>
        <time>2020-06-06T13:31:27Z</time>
      </trkpt>
      <trkpt lat="47.65878" lon="-2.81964">
        <ele>27.1</ele>
        <time>2020-06-06T13:31:28Z</time>
      </trkpt>
      <trkpt lat="47.6588" lon="-2.81968">
        <ele>27.3</ele>
        <time>2020-06-06T13:31:29Z</time>
      </trkpt>
      <trkpt lat="47.65882" lon="-2.81972">
        <ele>27.4</ele>
        <time>2020-06-06T13:31:30Z</time>
      </trkpt>
      <trkpt lat="47.65884" lon="-2.81977">
        <ele>27.6</ele>
        <time>2020-06-06T13:31:31Z</time>
      </trkpt>
      <trkpt lat="47.65886" lon="-2.81982">
        <ele>27.7</ele>
        <time>2020-06-06T13:31:32Z</time>
      </trkpt>
      <trkpt lat="47.65889" lon="-2.81986">
        <ele>27.9</ele>
        <time>2020-06-06T13:31:33Z</time>
      </trkpt>
      <trkpt lat="47.6589" lon="-2.81988">
        <ele>27.9</ele>
        <time>2020-06-06T13:31:34Z</time>
      </trkpt>
      <trkpt lat="47.65892" lon="-2.81991">
        <ele>28</ele>
        <time>2020-06-06T13:31:35Z</time>
      </trkpt>
      <trkpt lat="47.65894" lon="-2.81994">
        <ele>28.1</ele>
        <time>2020-06-06T13:31:36Z</time>
      </trkpt>
      <trkpt lat="47.65896" lon="-2.81998">
        <ele>28.2</ele>
        <time>2020-06-06T13:31:37Z</time>
      </trkpt>
      <trkpt lat="47.65899" lon="-2.82002">
        <ele>28.3</ele>
        <time>2020-06-06T13:31:38Z</time>
      </trkpt>
      <trkpt lat="47.65902" lon="-2.82003">
        <ele>28.4</ele>
        <time>2020-06-06T13:31:39Z</time>
      </trkpt>
      <trkpt lat="47.65905" lon="-2.82007">
        <ele>28.4</ele>
        <time>2020-06-06T13:31:40Z</time>
      </trkpt>
      <trkpt lat="47.65906" lon="-2.82009">
        <ele>28.4</ele>
        <time>2020-06-06T13:31:41Z</time>
      </trkpt>
      <trkpt lat="47.65909" lon="-2.82012">
        <ele>28.4</ele>
        <time>2020-06-06T13:31:42Z</time>
      </trkpt>
      <trkpt lat="47.65912" lon="-2.82015">
        <ele>28.4</ele>
        <time>2020-06-06T13:31:43Z</time>
      </trkpt>
      <trkpt lat="47.65914" lon="-2.82017">
        <ele>28.4</ele>
        <time>2020-06-06T13:31:44Z</time>
      </trkpt>
      <trkpt lat="47.65918" lon="-2.8202">
        <ele>28.3</ele>
        <time>2020-06-06T13:31:45Z</time>
      </trkpt>
      <trkpt lat="47.65922" lon="-2.82022">
        <ele>28.2</ele>
        <time>2020-06-06T13:31:46Z</time>
      </trkpt>
      <trkpt lat="47.65926" lon="-2.82025">
        <ele>28.1</ele>
        <time>2020-06-06T13:31:47Z</time>
      </trkpt>
      <trkpt lat="47.65931" lon="-2.82029">
        <ele>27.9</ele>
        <time>2020-06-06T13:31:48Z</time>
      </trkpt>
      <trkpt lat="47.65935" lon="-2.82033">
        <ele>27.7</ele>
        <time>2020-06-06T13:31:49Z</time>
      </trkpt>
      <trkpt lat="47.65939" lon="-2.82036">
        <ele>27.5</ele>
        <time>2020-06-06T13:31:50Z</time>
      </trkpt>
      <trkpt lat="47.65942" lon="-2.8204">
        <ele>27.4</ele>
        <time>2020-06-06T13:31:51Z</time>
      </trkpt>
      <trkpt lat="47.65946" lon="-2.82045">
        <ele>27.2</ele>
        <time>2020-06-06T13:31:52Z</time>
      </trkpt>
      <trkpt lat="47.6595" lon="-2.82049">
        <ele>27</ele>
        <time>2020-06-06T13:31:53Z</time>
      </trkpt>
      <trkpt lat="47.65953" lon="-2.82051">
        <ele>26.8</ele>
        <time>2020-06-06T13:31:54Z</time>
      </trkpt>
      <trkpt lat="47.65956" lon="-2.82054">
        <ele>26.7</ele>
        <time>2020-06-06T13:31:55Z</time>
      </trkpt>
      <trkpt lat="47.6596" lon="-2.82058">
        <ele>26.4</ele>
        <time>2020-06-06T13:31:56Z</time>
      </trkpt>
      <trkpt lat="47.65963" lon="-2.82063">
        <ele>26.2</ele>
        <time>2020-06-06T13:31:57Z</time>
      </trkpt>
      <trkpt lat="47.65966" lon="-2.82068">
        <ele>26</ele>
        <time>2020-06-06T13:31:58Z</time>
      </trkpt>
      <trkpt lat="47.6597" lon="-2.82072">
        <ele>25.7</ele>
        <time>2020-06-06T13:31:59Z</time>
      </trkpt>
      <trkpt lat="47.65973" lon="-2.82078">
        <ele>25.4</ele>
        <time>2020-06-06T13:32:00Z</time>
      </trkpt>
      <trkpt lat="47.65976" lon="-2.82085">
        <ele>25</ele>
        <time>2020-06-06T13:32:01Z</time>
      </trkpt>
      <trkpt lat="47.6598" lon="-2.82092">
        <ele>24.7</ele>
        <time>2020-06-06T13:32:02Z</time>
      </trkpt>
      <trkpt lat="47.65982" lon="-2.82097">
        <ele>24.5</ele>
        <time>2020-06-06T13:32:03Z</time>
      </trkpt>
      <trkpt lat="47.65984" lon="-2.82104">
        <ele>24.2</ele>
        <time>2020-06-06T13:32:04Z</time>
      </trkpt>
      <trkpt lat="47.65986" lon="-2.82112">
        <ele>24</ele>
        <time>2020-06-06T13:32:05Z</time>
      </trkpt>
      <trkpt lat="47.65988" lon="-2.8212">
        <ele>23.7</ele>
        <time>2020-06-06T13:32:06Z</time>
      </trkpt>
      <trkpt lat="47.6599" lon="-2.82129">
        <ele>23.6</ele>
        <time>2020-06-06T13:32:07Z</time>
      </trkpt>
      <trkpt lat="47.65993" lon="-2.82139">
        <ele>23.4</ele>
        <time>2020-06-06T13:32:08Z</time>
      </trkpt>
      <trkpt lat="47.65994" lon="-2.82147">
        <ele>23.2</ele>
        <time>2020-06-06T13:32:09Z</time>
      </trkpt>
      <trkpt lat="47.65996" lon="-2.82156">
        <ele>23.1</ele>
        <time>2020-06-06T13:32:10Z</time>
      </trkpt>
      <trkpt lat="47.65998" lon="-2.82165">
        <ele>23.1</ele>
        <time>2020-06-06T13:32:11Z</time>
      </trkpt>
      <trkpt lat="47.65999" lon="-2.82174">
        <ele>23.1</ele>
        <time>2020-06-06T13:32:12Z</time>
      </trkpt>
      <trkpt lat="47.66002" lon="-2.82182">
        <ele>23.1</ele>
        <time>2020-06-06T13:32:13Z</time>
      </trkpt>
      <trkpt lat="47.66005" lon="-2.8219">
        <ele>23.2</ele>
        <time>2020-06-06T13:32:14Z</time>
      </trkpt>
      <trkpt lat="47.66006" lon="-2.82198">
        <ele>23.4</ele>
        <time>2020-06-06T13:32:15Z</time>
      </trkpt>
      <trkpt lat="47.66008" lon="-2.82206">
        <ele>23.6</ele>
        <time>2020-06-06T13:32:16Z</time>
      </trkpt>
      <trkpt lat="47.66009" lon="-2.82211">
        <ele>23.8</ele>
        <time>2020-06-06T13:32:17Z</time>
      </trkpt>
      <trkpt lat="47.6601" lon="-2.82219">
        <ele>24</ele>
        <time>2020-06-06T13:32:18Z</time>
      </trkpt>
      <trkpt lat="47.6601" lon="-2.82224">
        <ele>24.2</ele>
        <time>2020-06-06T13:32:19Z</time>
      </trkpt>
      <trkpt lat="47.66011" lon="-2.8223">
        <ele>24.4</ele>
        <time>2020-06-06T13:32:20Z</time>
      </trkpt>
      <trkpt lat="47.66012" lon="-2.82234">
        <ele>24.6</ele>
        <time>2020-06-06T13:32:21Z</time>
      </trkpt>
      <trkpt lat="47.66013" lon="-2.82238">
        <ele>24.8</ele>
        <time>2020-06-06T13:32:22Z</time>
      </trkpt>
      <trkpt lat="47.66015" lon="-2.82244">
        <ele>25</ele>
        <time>2020-06-06T13:32:23Z</time>
      </trkpt>
      <trkpt lat="47.66017" lon="-2.82249">
        <ele>25.3</ele>
        <time>2020-06-06T13:32:24Z</time>
      </trkpt>
      <trkpt lat="47.66018" lon="-2.82254">
        <ele>25.6</ele>
        <time>2020-06-06T13:32:25Z</time>
      </trkpt>
      <trkpt lat="47.66019" lon="-2.8226">
        <ele>25.8</ele>
        <time>2020-06-06T13:32:26Z</time>
      </trkpt>
      <trkpt lat="47.6602" lon="-2.82266">
        <ele>26.1</ele>
        <time>2020-06-06T13:32:27Z</time>
      </trkpt>
      <trkpt lat="47.66021" lon="-2.8227">
        <ele>26.3</ele>
        <time>2020-06-06T13:32:28Z</time>
      </trkpt>
      <trkpt lat="47.66022" lon="-2.82275">
        <ele>26.6</ele>
        <time>2020-06-06T13:32:29Z</time>
      </trkpt>
      <trkpt lat="47.66023" lon="-2.82281">
        <ele>26.8</ele>
        <time>2020-06-06T13:32:30Z</time>
      </trkpt>
      <trkpt lat="47.66023" lon="-2.82285">
        <ele>27</ele>
        <time>2020-06-06T13:32:31Z</time>
      </trkpt>
      <trkpt lat="47.66025" lon="-2.82289">
        <ele>27.2</ele>
        <time>2020-06-06T13:32:32Z</time>
      </trkpt>
      <trkpt lat="47.66025" lon="-2.82294">
        <ele>27.4</ele>
        <time>2020-06-06T13:32:33Z</time>
      </trkpt>
      <trkpt lat="47.66026" lon="-2.82298">
        <ele>27.5</ele>
        <time>2020-06-06T13:32:34Z</time>
      </trkpt>
      <trkpt lat="47.66027" lon="-2.82303">
        <ele>27.7</ele>
        <time>2020-06-06T13:32:35Z</time>
      </trkpt>
      <trkpt lat="47.66028" lon="-2.82309">
        <ele>27.9</ele>
        <time>2020-06-06T13:32:36Z</time>
      </trkpt>
      <trkpt lat="47.66029" lon="-2.82315">
        <ele>28.1</ele>
        <time>2020-06-06T13:32:37Z</time>
      </trkpt>
      <trkpt lat="47.66029" lon="-2.82321">
        <ele>28.3</ele>
        <time>2020-06-06T13:32:38Z</time>
      </trkpt>
      <trkpt lat="47.6603" lon="-2.82328">
        <ele>28.5</ele>
        <time>2020-06-06T13:32:39Z</time>
      </trkpt>
      <trkpt lat="47.66031" lon="-2.82335">
        <ele>28.6</ele>
        <time>2020-06-06T13:32:40Z</time>
      </trkpt>
      <trkpt lat="47.66032" lon="-2.8234">
        <ele>28.8</ele>
        <time>2020-06-06T13:32:41Z</time>
      </trkpt>
      <trkpt lat="47.66033" lon="-2.82345">
        <ele>28.9</ele>
        <time>2020-06-06T13:32:42Z</time>
      </trkpt>
      <trkpt lat="47.66034" lon="-2.8235">
        <ele>29</ele>
        <time>2020-06-06T13:32:43Z</time>
      </trkpt>
      <trkpt lat="47.66035" lon="-2.82354">
        <ele>29.2</ele>
        <time>2020-06-06T13:32:44Z</time>
      </trkpt>
      <trkpt lat="47.66036" lon="-2.82359">
        <ele>29.3</ele>
        <time>2020-06-06T13:32:45Z</time>
      </trkpt>
      <trkpt lat="47.66037" lon="-2.82364">
        <ele>29.5</ele>
        <time>2020-06-06T13:32:46Z</time>
      </trkpt>
      <trkpt lat="47.66038" lon="-2.82371">
        <ele>29.7</ele>
        <time>2020-06-06T13:32:47Z</time>
      </trkpt>
      <trkpt lat="47.66039" lon="-2.82375">
        <ele>29.8</ele>
        <time>2020-06-06T13:32:48Z</time>
      </trkpt>
      <trkpt lat="47.66041" lon="-2.82381">
        <ele>30</ele>
        <time>2020-06-06T13:32:49Z</time>
      </trkpt>
      <trkpt lat="47.66042" lon="-2.82386">
        <ele>30.2</ele>
        <time>2020-06-06T13:32:50Z</time>
      </trkpt>
      <trkpt lat="47.66043" lon="-2.82391">
        <ele>30.4</ele>
        <time>2020-06-06T13:32:51Z</time>
      </trkpt>
      <trkpt lat="47.66044" lon="-2.82395">
        <ele>30.6</ele>
        <time>2020-06-06T13:32:52Z</time>
      </trkpt>
      <trkpt lat="47.66045" lon="-2.82399">
        <ele>30.7</ele>
        <time>2020-06-06T13:32:53Z</time>
      </trkpt>
      <trkpt lat="47.66046" lon="-2.82404">
        <ele>30.9</ele>
        <time>2020-06-06T13:32:54Z</time>
      </trkpt>
      <trkpt lat="47.66048" lon="-2.82411">
        <ele>31.2</ele>
        <time>2020-06-06T13:32:55Z</time>
      </trkpt>
      <trkpt lat="47.66048" lon="-2.82418">
        <ele>31.4</ele>
        <time>2020-06-06T13:32:56Z</time>
      </trkpt>
      <trkpt lat="47.66049" lon="-2.82423">
        <ele>31.6</ele>
        <time>2020-06-06T13:32:57Z</time>
      </trkpt>
      <trkpt lat="47.6605" lon="-2.82428">
        <ele>31.8</ele>
        <time>2020-06-06T13:32:58Z</time>
      </trkpt>
      <trkpt lat="47.66051" lon="-2.8243">
        <ele>31.9</ele>
        <time>2020-06-06T13:32:59Z</time>
      </trkpt>
      <trkpt lat="47.66052" lon="-2.82437">
        <ele>32.2</ele>
        <time>2020-06-06T13:33:00Z</time>
      </trkpt>
      <trkpt lat="47.66053" lon="-2.82441">
        <ele>32.3</ele>
        <time>2020-06-06T13:33:01Z</time>
      </trkpt>
      <trkpt lat="47.66054" lon="-2.82446">
        <ele>32.5</ele>
        <time>2020-06-06T13:33:02Z</time>
      </trkpt>
      <trkpt lat="47.66054" lon="-2.82451">
        <ele>32.7</ele>
        <time>2020-06-06T13:33:03Z</time>
      </trkpt>
      <trkpt lat="47.66055" lon="-2.82455">
        <ele>32.8</ele>
        <time>2020-06-06T13:33:04Z</time>
      </trkpt>
      <trkpt lat="47.66055" lon="-2.8246">
        <ele>33</ele>
        <time>2020-06-06T13:33:05Z</time>
      </trkpt>
      <trkpt lat="47.66055" lon="-2.82462">
        <ele>33</ele>
        <time>2020-06-06T13:33:06Z</time>
      </trkpt>
      <trkpt lat="47.66056" lon="-2.82468">
        <ele>33.2</ele>
        <time>2020-06-06T13:33:07Z</time>
      </trkpt>
      <trkpt lat="47.66057" lon="-2.82471">
        <ele>33.3</ele>
        <time>2020-06-06T13:33:08Z</time>
      </trkpt>
      <trkpt lat="47.66058" lon="-2.82476">
        <ele>33.4</ele>
        <time>2020-06-06T13:33:09Z</time>
      </trkpt>
      <trkpt lat="47.66059" lon="-2.8248">
        <ele>33.5</ele>
        <time>2020-06-06T13:33:10Z</time>
      </trkpt>
      <trkpt lat="47.66061" lon="-2.82485">
        <ele>33.6</ele>
        <time>2020-06-06T13:33:11Z</time>
      </trkpt>
      <trkpt lat="47.66062" lon="-2.8249">
        <ele>33.7</ele>
        <time>2020-06-06T13:33:12Z</time>
      </trkpt>
      <trkpt lat="47.66063" lon="-2.82496">
        <ele>33.9</ele>
        <time>2020-06-06T13:33:13Z</time>
      </trkpt>
      <trkpt lat="47.66064" lon="-2.82502">
        <ele>34</ele>
        <time>2020-06-06T13:33:14Z</time>
      </trkpt>
      <trkpt lat="47.66065" lon="-2.82507">
        <ele>34.1</ele>
        <time>2020-06-06T13:33:15Z</time>
      </trkpt>
      <trkpt lat="47.66067" lon="-2.82513">
        <ele>34.2</ele>
        <time>2020-06-06T13:33:16Z</time>
      </trkpt>
      <trkpt lat="47.66068" lon="-2.82519">
        <ele>34.3</ele>
        <time>2020-06-06T13:33:17Z</time>
      </trkpt>
      <trkpt lat="47.66069" lon="-2.82523">
        <ele>34.4</ele>
        <time>2020-06-06T13:33:18Z</time>
      </trkpt>
      <trkpt lat="47.6607" lon="-2.82528">
        <ele>34.4</ele>
        <time>2020-06-06T13:33:19Z</time>
      </trkpt>
      <trkpt lat="47.66071" lon="-2.82533">
        <ele>34.5</ele>
        <time>2020-06-06T13:33:20Z</time>
      </trkpt>
      <trkpt lat="47.66073" lon="-2.82538">
        <ele>34.6</ele>
        <time>2020-06-06T13:33:21Z</time>
      </trkpt>
      <trkpt lat="47.66074" lon="-2.82543">
        <ele>34.7</ele>
        <time>2020-06-06T13:33:22Z</time>
      </trkpt>
      <trkpt lat="47.66075" lon="-2.82548">
        <ele>34.8</ele>
        <time>2020-06-06T13:33:23Z</time>
      </trkpt>
      <trkpt lat="47.66076" lon="-2.82553">
        <ele>34.9</ele>
        <time>2020-06-06T13:33:24Z</time>
      </trkpt>
      <trkpt lat="47.66077" lon="-2.82558">
        <ele>35</ele>
        <time>2020-06-06T13:33:25Z</time>
      </trkpt>
      <trkpt lat="47.66078" lon="-2.82563">
        <ele>35.1</ele>
        <time>2020-06-06T13:33:26Z</time>
      </trkpt>
      <trkpt lat="47.66079" lon="-2.82568">
        <ele>35.2</ele>
        <time>2020-06-06T13:33:27Z</time>
      </trkpt>
      <trkpt lat="47.6608" lon="-2.82574">
        <ele>35.3</ele>
        <time>2020-06-06T13:33:28Z</time>
      </trkpt>
      <trkpt lat="47.6608" lon="-2.8258">
        <ele>35.4</ele>
        <time>2020-06-06T13:33:29Z</time>
      </trkpt>
      <trkpt lat="47.66082" lon="-2.82586">
        <ele>35.6</ele>
        <time>2020-06-06T13:33:30Z</time>
      </trkpt>
      <trkpt lat="47.66083" lon="-2.82591">
        <ele>35.7</ele>
        <time>2020-06-06T13:33:31Z</time>
      </trkpt>
      <trkpt lat="47.66085" lon="-2.82595">
        <ele>35.7</ele>
        <time>2020-06-06T13:33:32Z</time>
      </trkpt>
      <trkpt lat="47.66085" lon="-2.82601">
        <ele>35.9</ele>
        <time>2020-06-06T13:33:33Z</time>
      </trkpt>
      <trkpt lat="47.66086" lon="-2.82606">
        <ele>36</ele>
        <time>2020-06-06T13:33:34Z</time>
      </trkpt>
      <trkpt lat="47.66087" lon="-2.82611">
        <ele>36</ele>
        <time>2020-06-06T13:33:35Z</time>
      </trkpt>
      <trkpt lat="47.66088" lon="-2.82616">
        <ele>36.1</ele>
        <time>2020-06-06T13:33:36Z</time>
      </trkpt>
      <trkpt lat="47.66089" lon="-2.82622">
        <ele>36.2</ele>
        <time>2020-06-06T13:33:37Z</time>
      </trkpt>
      <trkpt lat="47.66089" lon="-2.82624">
        <ele>36.2</ele>
        <time>2020-06-06T13:33:38Z</time>
      </trkpt>
      <trkpt lat="47.6609" lon="-2.82627">
        <ele>36.3</ele>
        <time>2020-06-06T13:33:39Z</time>
      </trkpt>
      <trkpt lat="47.6609" lon="-2.82633">
        <ele>36.4</ele>
        <time>2020-06-06T13:33:40Z</time>
      </trkpt>
      <trkpt lat="47.66091" lon="-2.82638">
        <ele>36.4</ele>
        <time>2020-06-06T13:33:41Z</time>
      </trkpt>
      <trkpt lat="47.66092" lon="-2.82642">
        <ele>36.5</ele>
        <time>2020-06-06T13:33:42Z</time>
      </trkpt>
      <trkpt lat="47.66093" lon="-2.82648">
        <ele>36.5</ele>
        <time>2020-06-06T13:33:43Z</time>
      </trkpt>
      <trkpt lat="47.66094" lon="-2.82653">
        <ele>36.6</ele>
        <time>2020-06-06T13:33:44Z</time>
      </trkpt>
      <trkpt lat="47.66094" lon="-2.82658">
        <ele>36.6</ele>
        <time>2020-06-06T13:33:45Z</time>
      </trkpt>
      <trkpt lat="47.66094" lon="-2.82664">
        <ele>36.6</ele>
        <time>2020-06-06T13:33:46Z</time>
      </trkpt>
      <trkpt lat="47.66094" lon="-2.82668">
        <ele>36.6</ele>
        <time>2020-06-06T13:33:47Z</time>
      </trkpt>
      <trkpt lat="47.66095" lon="-2.82672">
        <ele>36.7</ele>
        <time>2020-06-06T13:33:48Z</time>
      </trkpt>
      <trkpt lat="47.66095" lon="-2.82674">
        <ele>36.7</ele>
        <time>2020-06-06T13:33:49Z</time>
      </trkpt>
      <trkpt lat="47.66095" lon="-2.82679">
        <ele>36.6</ele>
        <time>2020-06-06T13:33:50Z</time>
      </trkpt>
      <trkpt lat="47.66096" lon="-2.82681">
        <ele>36.6</ele>
        <time>2020-06-06T13:33:51Z</time>
      </trkpt>
      <trkpt lat="47.66096" lon="-2.82683">
        <ele>36.6</ele>
        <time>2020-06-06T13:33:52Z</time>
      </trkpt>
      <trkpt lat="47.66095" lon="-2.82682">
        <ele>36.6</ele>
        <time>2020-06-06T13:33:53Z</time>
      </trkpt>
      <trkpt lat="47.66095" lon="-2.82683">
        <ele>36.6</ele>
        <time>2020-06-06T13:33:54Z</time>
      </trkpt>
      <trkpt lat="47.66095" lon="-2.82681">
        <ele>36.6</ele>
        <time>2020-06-06T13:33:55Z</time>
      </trkpt>
      <trkpt lat="47.66095" lon="-2.8268">
        <ele>36.6</ele>
        <time>2020-06-06T13:33:56Z</time>
      </trkpt>
      <trkpt lat="47.66095" lon="-2.8268">
        <ele>36.6</ele>
        <time>2020-06-06T13:33:57Z</time>
      </trkpt>
      <trkpt lat="47.66095" lon="-2.8268">
        <ele>36.6</ele>
        <time>2020-06-06T13:33:58Z</time>
      </trkpt>
      <trkpt lat="47.66096" lon="-2.8268">
        <ele>36.6</ele>
        <time>2020-06-06T13:33:59Z</time>
      </trkpt>
      <trkpt lat="47.66096" lon="-2.82679">
        <ele>36.6</ele>
        <time>2020-06-06T13:34:00Z</time>
      </trkpt>
      <trkpt lat="47.66096" lon="-2.82679">
        <ele>36.6</ele>
        <time>2020-06-06T13:34:01Z</time>
      </trkpt>
      <trkpt lat="47.66096" lon="-2.82679">
        <ele>36.6</ele>
        <time>2020-06-06T13:34:02Z</time>
      </trkpt>
      <trkpt lat="47.66096" lon="-2.82679">
        <ele>36.6</ele>
        <time>2020-06-06T13:34:03Z</time>
      </trkpt>
      <trkpt lat="47.66096" lon="-2.82679">
        <ele>36.6</ele>
        <time>2020-06-06T13:34:04Z</time>
      </trkpt>
      <trkpt lat="47.66096" lon="-2.82678">
        <ele>36.6</ele>
        <time>2020-06-06T13:34:05Z</time>
      </trkpt>
      <trkpt lat="47.66091" lon="-2.82685">
        <ele>36.5</ele>
        <time>2020-06-06T13:35:11Z</time>
      </trkpt>
      <trkpt lat="47.66091" lon="-2.82689">
        <ele>36.5</ele>
        <time>2020-06-06T13:35:12Z</time>
      </trkpt>
      <trkpt lat="47.66092" lon="-2.82695">
        <ele>36.4</ele>
        <time>2020-06-06T13:35:13Z</time>
      </trkpt>
      <trkpt lat="47.66092" lon="-2.82697">
        <ele>36.4</ele>
        <time>2020-06-06T13:35:14Z</time>
      </trkpt>
      <trkpt lat="47.66094" lon="-2.82703">
        <ele>36.3</ele>
        <time>2020-06-06T13:35:15Z</time>
      </trkpt>
      <trkpt lat="47.66094" lon="-2.82707">
        <ele>36.2</ele>
        <time>2020-06-06T13:35:16Z</time>
      </trkpt>
      <trkpt lat="47.66094" lon="-2.82712">
        <ele>36.1</ele>
        <time>2020-06-06T13:35:17Z</time>
      </trkpt>
      <trkpt lat="47.66094" lon="-2.82714">
        <ele>36.1</ele>
        <time>2020-06-06T13:35:18Z</time>
      </trkpt>
      <trkpt lat="47.66095" lon="-2.8272">
        <ele>36</ele>
        <time>2020-06-06T13:35:19Z</time>
      </trkpt>
      <trkpt lat="47.66095" lon="-2.82725">
        <ele>35.9</ele>
        <time>2020-06-06T13:35:20Z</time>
      </trkpt>
      <trkpt lat="47.66095" lon="-2.82729">
        <ele>35.8</ele>
        <time>2020-06-06T13:35:21Z</time>
      </trkpt>
      <trkpt lat="47.66095" lon="-2.82733">
        <ele>35.7</ele>
        <time>2020-06-06T13:35:22Z</time>
      </trkpt>
      <trkpt lat="47.66095" lon="-2.82738">
        <ele>35.6</ele>
        <time>2020-06-06T13:35:23Z</time>
      </trkpt>
      <trkpt lat="47.66096" lon="-2.82744">
        <ele>35.4</ele>
        <time>2020-06-06T13:35:24Z</time>
      </trkpt>
      <trkpt lat="47.66096" lon="-2.8275">
        <ele>35.2</ele>
        <time>2020-06-06T13:35:25Z</time>
      </trkpt>
      <trkpt lat="47.66096" lon="-2.82755">
        <ele>35</ele>
        <time>2020-06-06T13:35:26Z</time>
      </trkpt>
      <trkpt lat="47.66095" lon="-2.82762">
        <ele>34.7</ele>
        <time>2020-06-06T13:35:27Z</time>
      </trkpt>
      <trkpt lat="47.66095" lon="-2.82768">
        <ele>34.5</ele>
        <time>2020-06-06T13:35:28Z</time>
      </trkpt>
      <trkpt lat="47.66095" lon="-2.82773">
        <ele>34.3</ele>
        <time>2020-06-06T13:35:29Z</time>
      </trkpt>
      <trkpt lat="47.66096" lon="-2.82778">
        <ele>34</ele>
        <time>2020-06-06T13:35:30Z</time>
      </trkpt>
      <trkpt lat="47.66096" lon="-2.82786">
        <ele>33.6</ele>
        <time>2020-06-06T13:35:31Z</time>
      </trkpt>
      <trkpt lat="47.66095" lon="-2.82793">
        <ele>33.3</ele>
        <time>2020-06-06T13:35:32Z</time>
      </trkpt>
      <trkpt lat="47.66095" lon="-2.82799">
        <ele>32.9</ele>
        <time>2020-06-06T13:35:33Z</time>
      </trkpt>
      <trkpt lat="47.66095" lon="-2.82807">
        <ele>32.4</ele>
        <time>2020-06-06T13:35:34Z</time>
      </trkpt>
      <trkpt lat="47.66095" lon="-2.82814">
        <ele>32</ele>
        <time>2020-06-06T13:35:35Z</time>
      </trkpt>
      <trkpt lat="47.66095" lon="-2.82822">
        <ele>31.5</ele>
        <time>2020-06-06T13:35:36Z</time>
      </trkpt>
      <trkpt lat="47.66094" lon="-2.82831">
        <ele>31</ele>
        <time>2020-06-06T13:35:37Z</time>
      </trkpt>
      <trkpt lat="47.66094" lon="-2.8284">
        <ele>30.5</ele>
        <time>2020-06-06T13:35:38Z</time>
      </trkpt>
      <trkpt lat="47.66094" lon="-2.82852">
        <ele>30</ele>
        <time>2020-06-06T13:35:39Z</time>
      </trkpt>
      <trkpt lat="47.66094" lon="-2.82861">
        <ele>29.6</ele>
        <time>2020-06-06T13:35:40Z</time>
      </trkpt>
      <trkpt lat="47.66094" lon="-2.82871">
        <ele>29.2</ele>
        <time>2020-06-06T13:35:41Z</time>
      </trkpt>
      <trkpt lat="47.66094" lon="-2.8288">
        <ele>28.8</ele>
        <time>2020-06-06T13:35:42Z</time>
      </trkpt>
      <trkpt lat="47.66093" lon="-2.82891">
        <ele>28.4</ele>
        <time>2020-06-06T13:35:43Z</time>
      </trkpt>
      <trkpt lat="47.66093" lon="-2.82902">
        <ele>28</ele>
        <time>2020-06-06T13:35:44Z</time>
      </trkpt>
      <trkpt lat="47.66093" lon="-2.82914">
        <ele>27.8</ele>
        <time>2020-06-06T13:35:45Z</time>
      </trkpt>
      <trkpt lat="47.66094" lon="-2.82925">
        <ele>27.6</ele>
        <time>2020-06-06T13:35:46Z</time>
      </trkpt>
      <trkpt lat="47.66096" lon="-2.82936">
        <ele>27.4</ele>
        <time>2020-06-06T13:35:47Z</time>
      </trkpt>
      <trkpt lat="47.66097" lon="-2.82947">
        <ele>27.2</ele>
        <time>2020-06-06T13:35:48Z</time>
      </trkpt>
      <trkpt lat="47.66097" lon="-2.82957">
        <ele>27.1</ele>
        <time>2020-06-06T13:35:49Z</time>
      </trkpt>
      <trkpt lat="47.66098" lon="-2.82967">
        <ele>27.1</ele>
        <time>2020-06-06T13:35:50Z</time>
      </trkpt>
      <trkpt lat="47.66098" lon="-2.82977">
        <ele>27.1</ele>
        <time>2020-06-06T13:35:51Z</time>
      </trkpt>
      <trkpt lat="47.66098" lon="-2.82987">
        <ele>27.1</ele>
        <time>2020-06-06T13:35:52Z</time>
      </trkpt>
      <trkpt lat="47.66098" lon="-2.82997">
        <ele>27.2</ele>
        <time>2020-06-06T13:35:53Z</time>
      </trkpt>
      <trkpt lat="47.66098" lon="-2.83007">
        <ele>27.4</ele>
        <time>2020-06-06T13:35:54Z</time>
      </trkpt>
      <trkpt lat="47.66099" lon="-2.83016">
        <ele>27.6</ele>
        <time>2020-06-06T13:35:55Z</time>
      </trkpt>
      <trkpt lat="47.66099" lon="-2.83026">
        <ele>27.8</ele>
        <time>2020-06-06T13:35:56Z</time>
      </trkpt>
      <trkpt lat="47.66099" lon="-2.83035">
        <ele>28</ele>
        <time>2020-06-06T13:35:57Z</time>
      </trkpt>
      <trkpt lat="47.66098" lon="-2.83044">
        <ele>28.2</ele>
        <time>2020-06-06T13:35:58Z</time>
      </trkpt>
      <trkpt lat="47.66098" lon="-2.83052">
        <ele>28.4</ele>
        <time>2020-06-06T13:35:59Z</time>
      </trkpt>
      <trkpt lat="47.66098" lon="-2.83061">
        <ele>28.7</ele>
        <time>2020-06-06T13:36:00Z</time>
      </trkpt>
      <trkpt lat="47.66097" lon="-2.83069">
        <ele>28.9</ele>
        <time>2020-06-06T13:36:01Z</time>
      </trkpt>
      <trkpt lat="47.66097" lon="-2.83077">
        <ele>29.2</ele>
        <time>2020-06-06T13:36:02Z</time>
      </trkpt>
      <trkpt lat="47.66096" lon="-2.83084">
        <ele>29.5</ele>
        <time>2020-06-06T13:36:03Z</time>
      </trkpt>
      <trkpt lat="47.66096" lon="-2.83091">
        <ele>29.8</ele>
        <time>2020-06-06T13:36:04Z</time>
      </trkpt>
      <trkpt lat="47.66097" lon="-2.83099">
        <ele>30</ele>
        <time>2020-06-06T13:36:05Z</time>
      </trkpt>
      <trkpt lat="47.66097" lon="-2.83105">
        <ele>30.3</ele>
        <time>2020-06-06T13:36:06Z</time>
      </trkpt>
      <trkpt lat="47.66097" lon="-2.83112">
        <ele>30.5</ele>
        <time>2020-06-06T13:36:07Z</time>
      </trkpt>
      <trkpt lat="47.66097" lon="-2.83119">
        <ele>30.8</ele>
        <time>2020-06-06T13:36:08Z</time>
      </trkpt>
      <trkpt lat="47.66097" lon="-2.83126">
        <ele>31</ele>
        <time>2020-06-06T13:36:09Z</time>
      </trkpt>
      <trkpt lat="47.66097" lon="-2.83133">
        <ele>31.3</ele>
        <time>2020-06-06T13:36:10Z</time>
      </trkpt>
      <trkpt lat="47.66097" lon="-2.8314">
        <ele>31.5</ele>
        <time>2020-06-06T13:36:11Z</time>
      </trkpt>
      <trkpt lat="47.66097" lon="-2.83147">
        <ele>31.7</ele>
        <time>2020-06-06T13:36:12Z</time>
      </trkpt>
      <trkpt lat="47.66097" lon="-2.83154">
        <ele>31.9</ele>
        <time>2020-06-06T13:36:13Z</time>
      </trkpt>
      <trkpt lat="47.66097" lon="-2.8316">
        <ele>32.1</ele>
        <time>2020-06-06T13:36:14Z</time>
      </trkpt>
      <trkpt lat="47.66097" lon="-2.83166">
        <ele>32.3</ele>
        <time>2020-06-06T13:36:15Z</time>
      </trkpt>
      <trkpt lat="47.66097" lon="-2.83173">
        <ele>32.5</ele>
        <time>2020-06-06T13:36:16Z</time>
      </trkpt>
      <trkpt lat="47.66097" lon="-2.83179">
        <ele>32.6</ele>
        <time>2020-06-06T13:36:17Z</time>
      </trkpt>
      <trkpt lat="47.66097" lon="-2.83184">
        <ele>32.8</ele>
        <time>2020-06-06T13:36:18Z</time>
      </trkpt>
      <trkpt lat="47.66097" lon="-2.8319">
        <ele>32.9</ele>
        <time>2020-06-06T13:36:19Z</time>
      </trkpt>
      <trkpt lat="47.66096" lon="-2.83196">
        <ele>33.1</ele>
        <time>2020-06-06T13:36:20Z</time>
      </trkpt>
      <trkpt lat="47.66096" lon="-2.83202">
        <ele>33.2</ele>
        <time>2020-06-06T13:36:21Z</time>
      </trkpt>
      <trkpt lat="47.66096" lon="-2.83209">
        <ele>33.4</ele>
        <time>2020-06-06T13:36:22Z</time>
      </trkpt>
      <trkpt lat="47.66095" lon="-2.83215">
        <ele>33.5</ele>
        <time>2020-06-06T13:36:23Z</time>
      </trkpt>
      <trkpt lat="47.66095" lon="-2.8322">
        <ele>33.7</ele>
        <time>2020-06-06T13:36:24Z</time>
      </trkpt>
      <trkpt lat="47.66095" lon="-2.83226">
        <ele>33.8</ele>
        <time>2020-06-06T13:36:25Z</time>
      </trkpt>
      <trkpt lat="47.66095" lon="-2.83232">
        <ele>34</ele>
        <time>2020-06-06T13:36:26Z</time>
      </trkpt>
      <trkpt lat="47.66094" lon="-2.83236">
        <ele>34.1</ele>
        <time>2020-06-06T13:36:27Z</time>
      </trkpt>
      <trkpt lat="47.66095" lon="-2.8324">
        <ele>34.2</ele>
        <time>2020-06-06T13:36:28Z</time>
      </trkpt>
      <trkpt lat="47.66096" lon="-2.83246">
        <ele>34.3</ele>
        <time>2020-06-06T13:36:29Z</time>
      </trkpt>
      <trkpt lat="47.66096" lon="-2.8325">
        <ele>34.4</ele>
        <time>2020-06-06T13:36:30Z</time>
      </trkpt>
      <trkpt lat="47.66097" lon="-2.83255">
        <ele>34.6</ele>
        <time>2020-06-06T13:36:31Z</time>
      </trkpt>
      <trkpt lat="47.66097" lon="-2.83261">
        <ele>34.7</ele>
        <time>2020-06-06T13:36:32Z</time>
      </trkpt>
      <trkpt lat="47.66097" lon="-2.83267">
        <ele>34.9</ele>
        <time>2020-06-06T13:36:33Z</time>
      </trkpt>
      <trkpt lat="47.66096" lon="-2.83272">
        <ele>35</ele>
        <time>2020-06-06T13:36:34Z</time>
      </trkpt>
      <trkpt lat="47.66097" lon="-2.83277">
        <ele>35.1</ele>
        <time>2020-06-06T13:36:35Z</time>
      </trkpt>
      <trkpt lat="47.66097" lon="-2.83283">
        <ele>35.3</ele>
        <time>2020-06-06T13:36:36Z</time>
      </trkpt>
      <trkpt lat="47.66097" lon="-2.83288">
        <ele>35.4</ele>
        <time>2020-06-06T13:36:37Z</time>
      </trkpt>
      <trkpt lat="47.66098" lon="-2.83293">
        <ele>35.5</ele>
        <time>2020-06-06T13:36:38Z</time>
      </trkpt>
      <trkpt lat="47.66098" lon="-2.83298">
        <ele>35.6</ele>
        <time>2020-06-06T13:36:39Z</time>
      </trkpt>
      <trkpt lat="47.66098" lon="-2.83302">
        <ele>35.7</ele>
        <time>2020-06-06T13:36:40Z</time>
      </trkpt>
      <trkpt lat="47.66097" lon="-2.83307">
        <ele>35.7</ele>
        <time>2020-06-06T13:36:41Z</time>
      </trkpt>
      <trkpt lat="47.66098" lon="-2.83312">
        <ele>35.8</ele>
        <time>2020-06-06T13:36:42Z</time>
      </trkpt>
      <trkpt lat="47.66097" lon="-2.83318">
        <ele>35.9</ele>
        <time>2020-06-06T13:36:43Z</time>
      </trkpt>
      <trkpt lat="47.66097" lon="-2.83325">
        <ele>36</ele>
        <time>2020-06-06T13:36:44Z</time>
      </trkpt>
      <trkpt lat="47.66097" lon="-2.83331">
        <ele>36.1</ele>
        <time>2020-06-06T13:36:45Z</time>
      </trkpt>
      <trkpt lat="47.66097" lon="-2.83338">
        <ele>36.2</ele>
        <time>2020-06-06T13:36:46Z</time>
      </trkpt>
      <trkpt lat="47.66097" lon="-2.83343">
        <ele>36.3</ele>
        <time>2020-06-06T13:36:47Z</time>
      </trkpt>
      <trkpt lat="47.66097" lon="-2.83349">
        <ele>36.5</ele>
        <time>2020-06-06T13:36:48Z</time>
      </trkpt>
      <trkpt lat="47.66097" lon="-2.83355">
        <ele>36.6</ele>
        <time>2020-06-06T13:36:49Z</time>
      </trkpt>
      <trkpt lat="47.66097" lon="-2.83359">
        <ele>36.7</ele>
        <time>2020-06-06T13:36:50Z</time>
      </trkpt>
      <trkpt lat="47.66097" lon="-2.83364">
        <ele>36.7</ele>
        <time>2020-06-06T13:36:51Z</time>
      </trkpt>
      <trkpt lat="47.66097" lon="-2.83368">
        <ele>36.8</ele>
        <time>2020-06-06T13:36:52Z</time>
      </trkpt>
      <trkpt lat="47.66098" lon="-2.83373">
        <ele>36.9</ele>
        <time>2020-06-06T13:36:53Z</time>
      </trkpt>
      <trkpt lat="47.66098" lon="-2.83379">
        <ele>37</ele>
        <time>2020-06-06T13:36:54Z</time>
      </trkpt>
      <trkpt lat="47.66097" lon="-2.83384">
        <ele>37.1</ele>
        <time>2020-06-06T13:36:55Z</time>
      </trkpt>
      <trkpt lat="47.66097" lon="-2.8339">
        <ele>37.2</ele>
        <time>2020-06-06T13:36:56Z</time>
      </trkpt>
      <trkpt lat="47.66097" lon="-2.83395">
        <ele>37.3</ele>
        <time>2020-06-06T13:36:57Z</time>
      </trkpt>
      <trkpt lat="47.66098" lon="-2.834">
        <ele>37.3</ele>
        <time>2020-06-06T13:36:58Z</time>
      </trkpt>
      <trkpt lat="47.66098" lon="-2.83405">
        <ele>37.4</ele>
        <time>2020-06-06T13:36:59Z</time>
      </trkpt>
      <trkpt lat="47.66098" lon="-2.83411">
        <ele>37.4</ele>
        <time>2020-06-06T13:37:00Z</time>
      </trkpt>
      <trkpt lat="47.66098" lon="-2.83417">
        <ele>37.5</ele>
        <time>2020-06-06T13:37:01Z</time>
      </trkpt>
      <trkpt lat="47.66098" lon="-2.83423">
        <ele>37.6</ele>
        <time>2020-06-06T13:37:02Z</time>
      </trkpt>
      <trkpt lat="47.66098" lon="-2.83428">
        <ele>37.6</ele>
        <time>2020-06-06T13:37:03Z</time>
      </trkpt>
      <trkpt lat="47.66097" lon="-2.83434">
        <ele>37.7</ele>
        <time>2020-06-06T13:37:04Z</time>
      </trkpt>
      <trkpt lat="47.66097" lon="-2.83441">
        <ele>37.7</ele>
        <time>2020-06-06T13:37:05Z</time>
      </trkpt>
      <trkpt lat="47.66097" lon="-2.83445">
        <ele>37.8</ele>
        <time>2020-06-06T13:37:06Z</time>
      </trkpt>
      <trkpt lat="47.66096" lon="-2.8345">
        <ele>37.8</ele>
        <time>2020-06-06T13:37:07Z</time>
      </trkpt>
      <trkpt lat="47.66095" lon="-2.83455">
        <ele>37.9</ele>
        <time>2020-06-06T13:37:08Z</time>
      </trkpt>
      <trkpt lat="47.66095" lon="-2.83461">
        <ele>37.9</ele>
        <time>2020-06-06T13:37:09Z</time>
      </trkpt>
      <trkpt lat="47.66094" lon="-2.83465">
        <ele>37.9</ele>
        <time>2020-06-06T13:37:10Z</time>
      </trkpt>
      <trkpt lat="47.66094" lon="-2.83473">
        <ele>38</ele>
        <time>2020-06-06T13:37:11Z</time>
      </trkpt>
      <trkpt lat="47.66094" lon="-2.83479">
        <ele>38</ele>
        <time>2020-06-06T13:37:12Z</time>
      </trkpt>
      <trkpt lat="47.66093" lon="-2.83484">
        <ele>38.1</ele>
        <time>2020-06-06T13:37:13Z</time>
      </trkpt>
      <trkpt lat="47.66093" lon="-2.83489">
        <ele>38.1</ele>
        <time>2020-06-06T13:37:14Z</time>
      </trkpt>
      <trkpt lat="47.66093" lon="-2.83493">
        <ele>38.1</ele>
        <time>2020-06-06T13:37:15Z</time>
      </trkpt>
      <trkpt lat="47.66093" lon="-2.83499">
        <ele>38.2</ele>
        <time>2020-06-06T13:37:16Z</time>
      </trkpt>
      <trkpt lat="47.66093" lon="-2.83504">
        <ele>38.2</ele>
        <time>2020-06-06T13:37:17Z</time>
      </trkpt>
      <trkpt lat="47.66094" lon="-2.8351">
        <ele>38.3</ele>
        <time>2020-06-06T13:37:18Z</time>
      </trkpt>
      <trkpt lat="47.66093" lon="-2.83515">
        <ele>38.3</ele>
        <time>2020-06-06T13:37:19Z</time>
      </trkpt>
      <trkpt lat="47.66093" lon="-2.83521">
        <ele>38.3</ele>
        <time>2020-06-06T13:37:20Z</time>
      </trkpt>
      <trkpt lat="47.66093" lon="-2.83525">
        <ele>38.3</ele>
        <time>2020-06-06T13:37:21Z</time>
      </trkpt>
      <trkpt lat="47.66093" lon="-2.83532">
        <ele>38.4</ele>
        <time>2020-06-06T13:37:22Z</time>
      </trkpt>
      <trkpt lat="47.66093" lon="-2.83538">
        <ele>38.3</ele>
        <time>2020-06-06T13:37:23Z</time>
      </trkpt>
      <trkpt lat="47.66093" lon="-2.83546">
        <ele>38.3</ele>
        <time>2020-06-06T13:37:24Z</time>
      </trkpt>
      <trkpt lat="47.66093" lon="-2.83553">
        <ele>38.3</ele>
        <time>2020-06-06T13:37:25Z</time>
      </trkpt>
      <trkpt lat="47.66092" lon="-2.83555">
        <ele>38.3</ele>
        <time>2020-06-06T13:37:26Z</time>
      </trkpt>
      <trkpt lat="47.66093" lon="-2.83561">
        <ele>38.3</ele>
        <time>2020-06-06T13:37:27Z</time>
      </trkpt>
      <trkpt lat="47.66093" lon="-2.83567">
        <ele>38.3</ele>
        <time>2020-06-06T13:37:28Z</time>
      </trkpt>
      <trkpt lat="47.66093" lon="-2.83575">
        <ele>38.3</ele>
        <time>2020-06-06T13:37:29Z</time>
      </trkpt>
      <trkpt lat="47.66093" lon="-2.83581">
        <ele>38.3</ele>
        <time>2020-06-06T13:37:30Z</time>
      </trkpt>
      <trkpt lat="47.66093" lon="-2.83588">
        <ele>38.3</ele>
        <time>2020-06-06T13:37:31Z</time>
      </trkpt>
      <trkpt lat="47.66092" lon="-2.83593">
        <ele>38.3</ele>
        <time>2020-06-06T13:37:32Z</time>
      </trkpt>
      <trkpt lat="47.66092" lon="-2.836">
        <ele>38.3</ele>
        <time>2020-06-06T13:37:33Z</time>
      </trkpt>
      <trkpt lat="47.66091" lon="-2.83606">
        <ele>38.3</ele>
        <time>2020-06-06T13:37:34Z</time>
      </trkpt>
      <trkpt lat="47.66091" lon="-2.83613">
        <ele>38.3</ele>
        <time>2020-06-06T13:37:35Z</time>
      </trkpt>
      <trkpt lat="47.66091" lon="-2.8362">
        <ele>38.3</ele>
        <time>2020-06-06T13:37:36Z</time>
      </trkpt>
      <trkpt lat="47.6609" lon="-2.83626">
        <ele>38.3</ele>
        <time>2020-06-06T13:37:37Z</time>
      </trkpt>
      <trkpt lat="47.6609" lon="-2.83632">
        <ele>38.3</ele>
        <time>2020-06-06T13:37:38Z</time>
      </trkpt>
      <trkpt lat="47.6609" lon="-2.83638">
        <ele>38.3</ele>
        <time>2020-06-06T13:37:39Z</time>
      </trkpt>
      <trkpt lat="47.6609" lon="-2.83644">
        <ele>38.2</ele>
        <time>2020-06-06T13:37:40Z</time>
      </trkpt>
      <trkpt lat="47.6609" lon="-2.83651">
        <ele>38.2</ele>
        <time>2020-06-06T13:37:41Z</time>
      </trkpt>
      <trkpt lat="47.6609" lon="-2.83658">
        <ele>38.2</ele>
        <time>2020-06-06T13:37:42Z</time>
      </trkpt>
      <trkpt lat="47.66089" lon="-2.83665">
        <ele>38.2</ele>
        <time>2020-06-06T13:37:43Z</time>
      </trkpt>
      <trkpt lat="47.66089" lon="-2.83673">
        <ele>38.1</ele>
        <time>2020-06-06T13:37:44Z</time>
      </trkpt>
      <trkpt lat="47.66089" lon="-2.83681">
        <ele>38.1</ele>
        <time>2020-06-06T13:37:45Z</time>
      </trkpt>
      <trkpt lat="47.66089" lon="-2.83688">
        <ele>38.1</ele>
        <time>2020-06-06T13:37:46Z</time>
      </trkpt>
      <trkpt lat="47.66089" lon="-2.83694">
        <ele>38.1</ele>
        <time>2020-06-06T13:37:47Z</time>
      </trkpt>
      <trkpt lat="47.66089" lon="-2.83701">
        <ele>38.1</ele>
        <time>2020-06-06T13:37:48Z</time>
      </trkpt>
      <trkpt lat="47.66089" lon="-2.83709">
        <ele>38.1</ele>
        <time>2020-06-06T13:37:49Z</time>
      </trkpt>
      <trkpt lat="47.66089" lon="-2.83716">
        <ele>38.1</ele>
        <time>2020-06-06T13:37:50Z</time>
      </trkpt>
      <trkpt lat="47.66089" lon="-2.83723">
        <ele>38</ele>
        <time>2020-06-06T13:37:51Z</time>
      </trkpt>
      <trkpt lat="47.66088" lon="-2.83728">
        <ele>38</ele>
        <time>2020-06-06T13:37:52Z</time>
      </trkpt>
      <trkpt lat="47.66088" lon="-2.83734">
        <ele>38</ele>
        <time>2020-06-06T13:37:53Z</time>
      </trkpt>
      <trkpt lat="47.66087" lon="-2.83738">
        <ele>38</ele>
        <time>2020-06-06T13:37:54Z</time>
      </trkpt>
      <trkpt lat="47.66087" lon="-2.83745">
        <ele>37.9</ele>
        <time>2020-06-06T13:37:55Z</time>
      </trkpt>
      <trkpt lat="47.66087" lon="-2.83752">
        <ele>37.9</ele>
        <time>2020-06-06T13:37:56Z</time>
      </trkpt>
      <trkpt lat="47.66087" lon="-2.83758">
        <ele>37.9</ele>
        <time>2020-06-06T13:37:57Z</time>
      </trkpt>
      <trkpt lat="47.66088" lon="-2.83764">
        <ele>37.8</ele>
        <time>2020-06-06T13:37:58Z</time>
      </trkpt>
      <trkpt lat="47.66089" lon="-2.83769">
        <ele>37.8</ele>
        <time>2020-06-06T13:37:59Z</time>
      </trkpt>
      <trkpt lat="47.66088" lon="-2.83776">
        <ele>37.8</ele>
        <time>2020-06-06T13:38:00Z</time>
      </trkpt>
      <trkpt lat="47.66089" lon="-2.83782">
        <ele>37.8</ele>
        <time>2020-06-06T13:38:01Z</time>
      </trkpt>
      <trkpt lat="47.66089" lon="-2.83788">
        <ele>37.7</ele>
        <time>2020-06-06T13:38:02Z</time>
      </trkpt>
      <trkpt lat="47.66088" lon="-2.83795">
        <ele>37.7</ele>
        <time>2020-06-06T13:38:03Z</time>
      </trkpt>
      <trkpt lat="47.66089" lon="-2.83802">
        <ele>37.7</ele>
        <time>2020-06-06T13:38:04Z</time>
      </trkpt>
      <trkpt lat="47.66089" lon="-2.83809">
        <ele>37.7</ele>
        <time>2020-06-06T13:38:05Z</time>
      </trkpt>
      <trkpt lat="47.66089" lon="-2.83816">
        <ele>37.6</ele>
        <time>2020-06-06T13:38:06Z</time>
      </trkpt>
      <trkpt lat="47.66089" lon="-2.83822">
        <ele>37.6</ele>
        <time>2020-06-06T13:38:07Z</time>
      </trkpt>
      <trkpt lat="47.66089" lon="-2.83829">
        <ele>37.6</ele>
        <time>2020-06-06T13:38:08Z</time>
      </trkpt>
      <trkpt lat="47.66089" lon="-2.83833">
        <ele>37.6</ele>
        <time>2020-06-06T13:38:09Z</time>
      </trkpt>
      <trkpt lat="47.66089" lon="-2.83838">
        <ele>37.6</ele>
        <time>2020-06-06T13:38:10Z</time>
      </trkpt>
      <trkpt lat="47.66089" lon="-2.83844">
        <ele>37.6</ele>
        <time>2020-06-06T13:38:11Z</time>
      </trkpt>
      <trkpt lat="47.66089" lon="-2.8385">
        <ele>37.5</ele>
        <time>2020-06-06T13:38:12Z</time>
      </trkpt>
      <trkpt lat="47.66089" lon="-2.83856">
        <ele>37.5</ele>
        <time>2020-06-06T13:38:13Z</time>
      </trkpt>
      <trkpt lat="47.66089" lon="-2.83865">
        <ele>37.5</ele>
        <time>2020-06-06T13:38:14Z</time>
      </trkpt>
      <trkpt lat="47.66089" lon="-2.83871">
        <ele>37.4</ele>
        <time>2020-06-06T13:38:15Z</time>
      </trkpt>
      <trkpt lat="47.66089" lon="-2.83877">
        <ele>37.4</ele>
        <time>2020-06-06T13:38:16Z</time>
      </trkpt>
      <trkpt lat="47.66089" lon="-2.83884">
        <ele>37.4</ele>
        <time>2020-06-06T13:38:17Z</time>
      </trkpt>
      <trkpt lat="47.66089" lon="-2.8389">
        <ele>37.4</ele>
        <time>2020-06-06T13:38:18Z</time>
      </trkpt>
      <trkpt lat="47.66089" lon="-2.83897">
        <ele>37.4</ele>
        <time>2020-06-06T13:38:19Z</time>
      </trkpt>
      <trkpt lat="47.6609" lon="-2.83904">
        <ele>37.3</ele>
        <time>2020-06-06T13:38:20Z</time>
      </trkpt>
      <trkpt lat="47.6609" lon="-2.83911">
        <ele>37.3</ele>
        <time>2020-06-06T13:38:21Z</time>
      </trkpt>
      <trkpt lat="47.6609" lon="-2.83918">
        <ele>37.3</ele>
        <time>2020-06-06T13:38:22Z</time>
      </trkpt>
      <trkpt lat="47.6609" lon="-2.83926">
        <ele>37.2</ele>
        <time>2020-06-06T13:38:23Z</time>
      </trkpt>
      <trkpt lat="47.6609" lon="-2.83933">
        <ele>37.2</ele>
        <time>2020-06-06T13:38:24Z</time>
      </trkpt>
      <trkpt lat="47.6609" lon="-2.83939">
        <ele>37.2</ele>
        <time>2020-06-06T13:38:25Z</time>
      </trkpt>
      <trkpt lat="47.66089" lon="-2.83946">
        <ele>37.2</ele>
        <time>2020-06-06T13:38:26Z</time>
      </trkpt>
      <trkpt lat="47.66087" lon="-2.83951">
        <ele>37.2</ele>
        <time>2020-06-06T13:38:27Z</time>
      </trkpt>
      <trkpt lat="47.66087" lon="-2.83959">
        <ele>37.2</ele>
        <time>2020-06-06T13:38:28Z</time>
      </trkpt>
      <trkpt lat="47.66087" lon="-2.83966">
        <ele>37.1</ele>
        <time>2020-06-06T13:38:29Z</time>
      </trkpt>
      <trkpt lat="47.66087" lon="-2.83975">
        <ele>37.1</ele>
        <time>2020-06-06T13:38:30Z</time>
      </trkpt>
      <trkpt lat="47.66087" lon="-2.83982">
        <ele>37</ele>
        <time>2020-06-06T13:38:31Z</time>
      </trkpt>
      <trkpt lat="47.66087" lon="-2.83989">
        <ele>37</ele>
        <time>2020-06-06T13:38:32Z</time>
      </trkpt>
      <trkpt lat="47.66086" lon="-2.83996">
        <ele>37</ele>
        <time>2020-06-06T13:38:33Z</time>
      </trkpt>
      <trkpt lat="47.66086" lon="-2.84004">
        <ele>37</ele>
        <time>2020-06-06T13:38:34Z</time>
      </trkpt>
      <trkpt lat="47.66086" lon="-2.84012">
        <ele>36.9</ele>
        <time>2020-06-06T13:38:35Z</time>
      </trkpt>
      <trkpt lat="47.66086" lon="-2.84019">
        <ele>36.9</ele>
        <time>2020-06-06T13:38:36Z</time>
      </trkpt>
      <trkpt lat="47.66087" lon="-2.84026">
        <ele>36.9</ele>
        <time>2020-06-06T13:38:37Z</time>
      </trkpt>
      <trkpt lat="47.66087" lon="-2.84032">
        <ele>36.9</ele>
        <time>2020-06-06T13:38:38Z</time>
      </trkpt>
      <trkpt lat="47.66087" lon="-2.8404">
        <ele>36.9</ele>
        <time>2020-06-06T13:38:39Z</time>
      </trkpt>
      <trkpt lat="47.66087" lon="-2.84048">
        <ele>36.9</ele>
        <time>2020-06-06T13:38:40Z</time>
      </trkpt>
      <trkpt lat="47.66087" lon="-2.84056">
        <ele>36.9</ele>
        <time>2020-06-06T13:38:41Z</time>
      </trkpt>
      <trkpt lat="47.66087" lon="-2.84062">
        <ele>36.9</ele>
        <time>2020-06-06T13:38:42Z</time>
      </trkpt>
      <trkpt lat="47.66087" lon="-2.84069">
        <ele>36.9</ele>
        <time>2020-06-06T13:38:43Z</time>
      </trkpt>
      <trkpt lat="47.66086" lon="-2.84076">
        <ele>36.9</ele>
        <time>2020-06-06T13:38:44Z</time>
      </trkpt>
      <trkpt lat="47.66086" lon="-2.84084">
        <ele>36.9</ele>
        <time>2020-06-06T13:38:45Z</time>
      </trkpt>
      <trkpt lat="47.66086" lon="-2.8409">
        <ele>36.9</ele>
        <time>2020-06-06T13:38:46Z</time>
      </trkpt>
      <trkpt lat="47.66086" lon="-2.84097">
        <ele>36.8</ele>
        <time>2020-06-06T13:38:47Z</time>
      </trkpt>
      <trkpt lat="47.66086" lon="-2.84105">
        <ele>36.8</ele>
        <time>2020-06-06T13:38:48Z</time>
      </trkpt>
      <trkpt lat="47.66085" lon="-2.84112">
        <ele>36.8</ele>
        <time>2020-06-06T13:38:49Z</time>
      </trkpt>
      <trkpt lat="47.66085" lon="-2.84118">
        <ele>36.8</ele>
        <time>2020-06-06T13:38:50Z</time>
      </trkpt>
      <trkpt lat="47.66084" lon="-2.84125">
        <ele>36.8</ele>
        <time>2020-06-06T13:38:51Z</time>
      </trkpt>
      <trkpt lat="47.66083" lon="-2.84131">
        <ele>36.8</ele>
        <time>2020-06-06T13:38:52Z</time>
      </trkpt>
      <trkpt lat="47.66083" lon="-2.84137">
        <ele>36.8</ele>
        <time>2020-06-06T13:38:53Z</time>
      </trkpt>
      <trkpt lat="47.66082" lon="-2.84143">
        <ele>36.8</ele>
        <time>2020-06-06T13:38:54Z</time>
      </trkpt>
      <trkpt lat="47.66082" lon="-2.84149">
        <ele>36.8</ele>
        <time>2020-06-06T13:38:55Z</time>
      </trkpt>
      <trkpt lat="47.66082" lon="-2.84156">
        <ele>36.8</ele>
        <time>2020-06-06T13:38:56Z</time>
      </trkpt>
      <trkpt lat="47.66082" lon="-2.84165">
        <ele>36.8</ele>
        <time>2020-06-06T13:38:57Z</time>
      </trkpt>
      <trkpt lat="47.66081" lon="-2.84173">
        <ele>36.8</ele>
        <time>2020-06-06T13:38:58Z</time>
      </trkpt>
      <trkpt lat="47.6608" lon="-2.8418">
        <ele>36.9</ele>
        <time>2020-06-06T13:38:59Z</time>
      </trkpt>
      <trkpt lat="47.66081" lon="-2.8419">
        <ele>36.9</ele>
        <time>2020-06-06T13:39:00Z</time>
      </trkpt>
      <trkpt lat="47.66081" lon="-2.842">
        <ele>36.9</ele>
        <time>2020-06-06T13:39:01Z</time>
      </trkpt>
      <trkpt lat="47.66082" lon="-2.84207">
        <ele>36.9</ele>
        <time>2020-06-06T13:39:02Z</time>
      </trkpt>
      <trkpt lat="47.66081" lon="-2.84215">
        <ele>36.9</ele>
        <time>2020-06-06T13:39:03Z</time>
      </trkpt>
      <trkpt lat="47.66081" lon="-2.84221">
        <ele>37</ele>
        <time>2020-06-06T13:39:04Z</time>
      </trkpt>
      <trkpt lat="47.66081" lon="-2.84226">
        <ele>37</ele>
        <time>2020-06-06T13:39:05Z</time>
      </trkpt>
      <trkpt lat="47.66081" lon="-2.84233">
        <ele>37</ele>
        <time>2020-06-06T13:39:06Z</time>
      </trkpt>
      <trkpt lat="47.66081" lon="-2.8424">
        <ele>37</ele>
        <time>2020-06-06T13:39:07Z</time>
      </trkpt>
      <trkpt lat="47.66081" lon="-2.84245">
        <ele>37</ele>
        <time>2020-06-06T13:39:08Z</time>
      </trkpt>
      <trkpt lat="47.66081" lon="-2.8425">
        <ele>37.1</ele>
        <time>2020-06-06T13:39:09Z</time>
      </trkpt>
      <trkpt lat="47.6608" lon="-2.84255">
        <ele>37.1</ele>
        <time>2020-06-06T13:39:10Z</time>
      </trkpt>
      <trkpt lat="47.6608" lon="-2.8426">
        <ele>37.1</ele>
        <time>2020-06-06T13:39:11Z</time>
      </trkpt>
      <trkpt lat="47.6608" lon="-2.84266">
        <ele>37.1</ele>
        <time>2020-06-06T13:39:12Z</time>
      </trkpt>
      <trkpt lat="47.6608" lon="-2.84273">
        <ele>37.2</ele>
        <time>2020-06-06T13:39:13Z</time>
      </trkpt>
      <trkpt lat="47.66079" lon="-2.84281">
        <ele>37.2</ele>
        <time>2020-06-06T13:39:14Z</time>
      </trkpt>
      <trkpt lat="47.66078" lon="-2.84287">
        <ele>37.3</ele>
        <time>2020-06-06T13:39:15Z</time>
      </trkpt>
      <trkpt lat="47.66077" lon="-2.84293">
        <ele>37.3</ele>
        <time>2020-06-06T13:39:16Z</time>
      </trkpt>
      <trkpt lat="47.66077" lon="-2.84301">
        <ele>37.3</ele>
        <time>2020-06-06T13:39:17Z</time>
      </trkpt>
      <trkpt lat="47.66077" lon="-2.84308">
        <ele>37.3</ele>
        <time>2020-06-06T13:39:18Z</time>
      </trkpt>
      <trkpt lat="47.66077" lon="-2.84314">
        <ele>37.2</ele>
        <time>2020-06-06T13:39:19Z</time>
      </trkpt>
      <trkpt lat="47.66077" lon="-2.84321">
        <ele>37.2</ele>
        <time>2020-06-06T13:39:20Z</time>
      </trkpt>
      <trkpt lat="47.66076" lon="-2.84327">
        <ele>37.2</ele>
        <time>2020-06-06T13:39:21Z</time>
      </trkpt>
      <trkpt lat="47.66077" lon="-2.84334">
        <ele>37.2</ele>
        <time>2020-06-06T13:39:22Z</time>
      </trkpt>
      <trkpt lat="47.66077" lon="-2.8434">
        <ele>37.2</ele>
        <time>2020-06-06T13:39:23Z</time>
      </trkpt>
      <trkpt lat="47.66077" lon="-2.84347">
        <ele>37.2</ele>
        <time>2020-06-06T13:39:24Z</time>
      </trkpt>
      <trkpt lat="47.66077" lon="-2.84354">
        <ele>37.2</ele>
        <time>2020-06-06T13:39:25Z</time>
      </trkpt>
      <trkpt lat="47.66077" lon="-2.8436">
        <ele>37.2</ele>
        <time>2020-06-06T13:39:26Z</time>
      </trkpt>
      <trkpt lat="47.66077" lon="-2.84365">
        <ele>37.2</ele>
        <time>2020-06-06T13:39:27Z</time>
      </trkpt>
      <trkpt lat="47.66077" lon="-2.84372">
        <ele>37.3</ele>
        <time>2020-06-06T13:39:28Z</time>
      </trkpt>
      <trkpt lat="47.66076" lon="-2.84377">
        <ele>37.3</ele>
        <time>2020-06-06T13:39:29Z</time>
      </trkpt>
      <trkpt lat="47.66076" lon="-2.84384">
        <ele>37.3</ele>
        <time>2020-06-06T13:39:30Z</time>
      </trkpt>
      <trkpt lat="47.66076" lon="-2.84389">
        <ele>37.3</ele>
        <time>2020-06-06T13:39:31Z</time>
      </trkpt>
      <trkpt lat="47.66076" lon="-2.84395">
        <ele>37.4</ele>
        <time>2020-06-06T13:39:32Z</time>
      </trkpt>
      <trkpt lat="47.66076" lon="-2.844">
        <ele>37.4</ele>
        <time>2020-06-06T13:39:33Z</time>
      </trkpt>
      <trkpt lat="47.66076" lon="-2.84409">
        <ele>37.4</ele>
        <time>2020-06-06T13:39:34Z</time>
      </trkpt>
      <trkpt lat="47.66076" lon="-2.84415">
        <ele>37.5</ele>
        <time>2020-06-06T13:39:35Z</time>
      </trkpt>
      <trkpt lat="47.66076" lon="-2.84422">
        <ele>37.5</ele>
        <time>2020-06-06T13:39:36Z</time>
      </trkpt>
      <trkpt lat="47.66076" lon="-2.84429">
        <ele>37.6</ele>
        <time>2020-06-06T13:39:37Z</time>
      </trkpt>
      <trkpt lat="47.66075" lon="-2.84436">
        <ele>37.6</ele>
        <time>2020-06-06T13:39:38Z</time>
      </trkpt>
      <trkpt lat="47.66075" lon="-2.84443">
        <ele>37.6</ele>
        <time>2020-06-06T13:39:39Z</time>
      </trkpt>
      <trkpt lat="47.66075" lon="-2.84448">
        <ele>37.7</ele>
        <time>2020-06-06T13:39:40Z</time>
      </trkpt>
      <trkpt lat="47.66075" lon="-2.84454">
        <ele>37.7</ele>
        <time>2020-06-06T13:39:41Z</time>
      </trkpt>
      <trkpt lat="47.66075" lon="-2.84461">
        <ele>37.7</ele>
        <time>2020-06-06T13:39:42Z</time>
      </trkpt>
      <trkpt lat="47.66074" lon="-2.84468">
        <ele>37.8</ele>
        <time>2020-06-06T13:39:43Z</time>
      </trkpt>
      <trkpt lat="47.66074" lon="-2.84475">
        <ele>37.9</ele>
        <time>2020-06-06T13:39:44Z</time>
      </trkpt>
      <trkpt lat="47.66074" lon="-2.84482">
        <ele>37.9</ele>
        <time>2020-06-06T13:39:45Z</time>
      </trkpt>
      <trkpt lat="47.66074" lon="-2.84487">
        <ele>38</ele>
        <time>2020-06-06T13:39:46Z</time>
      </trkpt>
      <trkpt lat="47.66075" lon="-2.84494">
        <ele>38</ele>
        <time>2020-06-06T13:39:47Z</time>
      </trkpt>
      <trkpt lat="47.66075" lon="-2.845">
        <ele>38.1</ele>
        <time>2020-06-06T13:39:48Z</time>
      </trkpt>
      <trkpt lat="47.66076" lon="-2.84506">
        <ele>38.2</ele>
        <time>2020-06-06T13:39:49Z</time>
      </trkpt>
      <trkpt lat="47.66076" lon="-2.84512">
        <ele>38.2</ele>
        <time>2020-06-06T13:39:50Z</time>
      </trkpt>
      <trkpt lat="47.66076" lon="-2.84517">
        <ele>38.3</ele>
        <time>2020-06-06T13:39:51Z</time>
      </trkpt>
      <trkpt lat="47.66076" lon="-2.84523">
        <ele>38.3</ele>
        <time>2020-06-06T13:39:52Z</time>
      </trkpt>
      <trkpt lat="47.66076" lon="-2.8453">
        <ele>38.4</ele>
        <time>2020-06-06T13:39:53Z</time>
      </trkpt>
      <trkpt lat="47.66076" lon="-2.84535">
        <ele>38.4</ele>
        <time>2020-06-06T13:39:54Z</time>
      </trkpt>
      <trkpt lat="47.66076" lon="-2.8454">
        <ele>38.5</ele>
        <time>2020-06-06T13:39:55Z</time>
      </trkpt>
      <trkpt lat="47.66076" lon="-2.84546">
        <ele>38.5</ele>
        <time>2020-06-06T13:39:56Z</time>
      </trkpt>
      <trkpt lat="47.66076" lon="-2.84551">
        <ele>38.6</ele>
        <time>2020-06-06T13:39:57Z</time>
      </trkpt>
      <trkpt lat="47.66076" lon="-2.84558">
        <ele>38.7</ele>
        <time>2020-06-06T13:39:58Z</time>
      </trkpt>
      <trkpt lat="47.66076" lon="-2.84564">
        <ele>38.7</ele>
        <time>2020-06-06T13:39:59Z</time>
      </trkpt>
      <trkpt lat="47.66076" lon="-2.84571">
        <ele>38.8</ele>
        <time>2020-06-06T13:40:00Z</time>
      </trkpt>
      <trkpt lat="47.66075" lon="-2.84574">
        <ele>38.8</ele>
        <time>2020-06-06T13:40:01Z</time>
      </trkpt>
      <trkpt lat="47.66075" lon="-2.84581">
        <ele>38.9</ele>
        <time>2020-06-06T13:40:02Z</time>
      </trkpt>
      <trkpt lat="47.66075" lon="-2.84587">
        <ele>39</ele>
        <time>2020-06-06T13:40:03Z</time>
      </trkpt>
      <trkpt lat="47.66075" lon="-2.84594">
        <ele>39.1</ele>
        <time>2020-06-06T13:40:04Z</time>
      </trkpt>
      <trkpt lat="47.66074" lon="-2.84599">
        <ele>39.1</ele>
        <time>2020-06-06T13:40:05Z</time>
      </trkpt>
      <trkpt lat="47.66074" lon="-2.84604">
        <ele>39.2</ele>
        <time>2020-06-06T13:40:06Z</time>
      </trkpt>
      <trkpt lat="47.66073" lon="-2.84609">
        <ele>39.2</ele>
        <time>2020-06-06T13:40:07Z</time>
      </trkpt>
      <trkpt lat="47.66073" lon="-2.84615">
        <ele>39.3</ele>
        <time>2020-06-06T13:40:08Z</time>
      </trkpt>
      <trkpt lat="47.66073" lon="-2.84621">
        <ele>39.3</ele>
        <time>2020-06-06T13:40:09Z</time>
      </trkpt>
      <trkpt lat="47.66073" lon="-2.84627">
        <ele>39.4</ele>
        <time>2020-06-06T13:40:10Z</time>
      </trkpt>
      <trkpt lat="47.66072" lon="-2.84632">
        <ele>39.5</ele>
        <time>2020-06-06T13:40:11Z</time>
      </trkpt>
      <trkpt lat="47.66072" lon="-2.84638">
        <ele>39.5</ele>
        <time>2020-06-06T13:40:12Z</time>
      </trkpt>
      <trkpt lat="47.66072" lon="-2.84643">
        <ele>39.6</ele>
        <time>2020-06-06T13:40:13Z</time>
      </trkpt>
      <trkpt lat="47.66073" lon="-2.8465">
        <ele>39.7</ele>
        <time>2020-06-06T13:40:14Z</time>
      </trkpt>
      <trkpt lat="47.66073" lon="-2.84656">
        <ele>39.8</ele>
        <time>2020-06-06T13:40:15Z</time>
      </trkpt>
      <trkpt lat="47.66073" lon="-2.84662">
        <ele>39.9</ele>
        <time>2020-06-06T13:40:16Z</time>
      </trkpt>
      <trkpt lat="47.66073" lon="-2.84667">
        <ele>40</ele>
        <time>2020-06-06T13:40:17Z</time>
      </trkpt>
      <trkpt lat="47.66073" lon="-2.84672">
        <ele>40</ele>
        <time>2020-06-06T13:40:18Z</time>
      </trkpt>
      <trkpt lat="47.66072" lon="-2.84676">
        <ele>40.1</ele>
        <time>2020-06-06T13:40:19Z</time>
      </trkpt>
      <trkpt lat="47.66072" lon="-2.84681">
        <ele>40.1</ele>
        <time>2020-06-06T13:40:20Z</time>
      </trkpt>
      <trkpt lat="47.66072" lon="-2.84686">
        <ele>40.2</ele>
        <time>2020-06-06T13:40:21Z</time>
      </trkpt>
      <trkpt lat="47.66072" lon="-2.84692">
        <ele>40.3</ele>
        <time>2020-06-06T13:40:22Z</time>
      </trkpt>
      <trkpt lat="47.66072" lon="-2.84698">
        <ele>40.3</ele>
        <time>2020-06-06T13:40:23Z</time>
      </trkpt>
      <trkpt lat="47.66072" lon="-2.84703">
        <ele>40.4</ele>
        <time>2020-06-06T13:40:24Z</time>
      </trkpt>
      <trkpt lat="47.66071" lon="-2.84708">
        <ele>40.4</ele>
        <time>2020-06-06T13:40:25Z</time>
      </trkpt>
      <trkpt lat="47.66071" lon="-2.84713">
        <ele>40.5</ele>
        <time>2020-06-06T13:40:26Z</time>
      </trkpt>
      <trkpt lat="47.6607" lon="-2.84719">
        <ele>40.5</ele>
        <time>2020-06-06T13:40:27Z</time>
      </trkpt>
      <trkpt lat="47.6607" lon="-2.84726">
        <ele>40.6</ele>
        <time>2020-06-06T13:40:28Z</time>
      </trkpt>
      <trkpt lat="47.66069" lon="-2.84732">
        <ele>40.7</ele>
        <time>2020-06-06T13:40:29Z</time>
      </trkpt>
      <trkpt lat="47.66069" lon="-2.84735">
        <ele>40.7</ele>
        <time>2020-06-06T13:40:30Z</time>
      </trkpt>
      <trkpt lat="47.66069" lon="-2.84741">
        <ele>40.8</ele>
        <time>2020-06-06T13:40:31Z</time>
      </trkpt>
      <trkpt lat="47.66068" lon="-2.84747">
        <ele>40.9</ele>
        <time>2020-06-06T13:40:32Z</time>
      </trkpt>
      <trkpt lat="47.66068" lon="-2.84751">
        <ele>41</ele>
        <time>2020-06-06T13:40:33Z</time>
      </trkpt>
      <trkpt lat="47.66068" lon="-2.84757">
        <ele>41.1</ele>
        <time>2020-06-06T13:40:34Z</time>
      </trkpt>
      <trkpt lat="47.66067" lon="-2.84763">
        <ele>41.2</ele>
        <time>2020-06-06T13:40:35Z</time>
      </trkpt>
      <trkpt lat="47.66067" lon="-2.84771">
        <ele>41.3</ele>
        <time>2020-06-06T13:40:36Z</time>
      </trkpt>
      <trkpt lat="47.66067" lon="-2.84779">
        <ele>41.5</ele>
        <time>2020-06-06T13:40:37Z</time>
      </trkpt>
      <trkpt lat="47.66067" lon="-2.84784">
        <ele>41.5</ele>
        <time>2020-06-06T13:40:38Z</time>
      </trkpt>
      <trkpt lat="47.66067" lon="-2.8479">
        <ele>41.7</ele>
        <time>2020-06-06T13:40:39Z</time>
      </trkpt>
      <trkpt lat="47.66067" lon="-2.84793">
        <ele>41.7</ele>
        <time>2020-06-06T13:40:40Z</time>
      </trkpt>
      <trkpt lat="47.66067" lon="-2.84799">
        <ele>41.8</ele>
        <time>2020-06-06T13:40:41Z</time>
      </trkpt>
      <trkpt lat="47.66067" lon="-2.84805">
        <ele>41.9</ele>
        <time>2020-06-06T13:40:42Z</time>
      </trkpt>
      <trkpt lat="47.66067" lon="-2.84811">
        <ele>42</ele>
        <time>2020-06-06T13:40:43Z</time>
      </trkpt>
      <trkpt lat="47.66067" lon="-2.84818">
        <ele>42</ele>
        <time>2020-06-06T13:40:44Z</time>
      </trkpt>
      <trkpt lat="47.66068" lon="-2.84823">
        <ele>42.1</ele>
        <time>2020-06-06T13:40:45Z</time>
      </trkpt>
      <trkpt lat="47.66068" lon="-2.8483">
        <ele>42.2</ele>
        <time>2020-06-06T13:40:46Z</time>
      </trkpt>
      <trkpt lat="47.66069" lon="-2.84837">
        <ele>42.2</ele>
        <time>2020-06-06T13:40:47Z</time>
      </trkpt>
      <trkpt lat="47.66069" lon="-2.84843">
        <ele>42.3</ele>
        <time>2020-06-06T13:40:48Z</time>
      </trkpt>
      <trkpt lat="47.66069" lon="-2.84849">
        <ele>42.4</ele>
        <time>2020-06-06T13:40:49Z</time>
      </trkpt>
      <trkpt lat="47.66069" lon="-2.84855">
        <ele>42.4</ele>
        <time>2020-06-06T13:40:50Z</time>
      </trkpt>
      <trkpt lat="47.66069" lon="-2.84862">
        <ele>42.5</ele>
        <time>2020-06-06T13:40:51Z</time>
      </trkpt>
      <trkpt lat="47.66069" lon="-2.84867">
        <ele>42.6</ele>
        <time>2020-06-06T13:40:52Z</time>
      </trkpt>
      <trkpt lat="47.66068" lon="-2.84873">
        <ele>42.7</ele>
        <time>2020-06-06T13:40:53Z</time>
      </trkpt>
      <trkpt lat="47.66069" lon="-2.84879">
        <ele>42.8</ele>
        <time>2020-06-06T13:40:54Z</time>
      </trkpt>
      <trkpt lat="47.66068" lon="-2.84886">
        <ele>42.9</ele>
        <time>2020-06-06T13:40:55Z</time>
      </trkpt>
      <trkpt lat="47.66068" lon="-2.84893">
        <ele>43.1</ele>
        <time>2020-06-06T13:40:56Z</time>
      </trkpt>
      <trkpt lat="47.66068" lon="-2.849">
        <ele>43.2</ele>
        <time>2020-06-06T13:40:57Z</time>
      </trkpt>
      <trkpt lat="47.66068" lon="-2.84906">
        <ele>43.4</ele>
        <time>2020-06-06T13:40:58Z</time>
      </trkpt>
      <trkpt lat="47.66068" lon="-2.84913">
        <ele>43.5</ele>
        <time>2020-06-06T13:40:59Z</time>
      </trkpt>
      <trkpt lat="47.66067" lon="-2.84918">
        <ele>43.6</ele>
        <time>2020-06-06T13:41:00Z</time>
      </trkpt>
      <trkpt lat="47.66067" lon="-2.84925">
        <ele>43.7</ele>
        <time>2020-06-06T13:41:01Z</time>
      </trkpt>
      <trkpt lat="47.66066" lon="-2.84933">
        <ele>43.9</ele>
        <time>2020-06-06T13:41:02Z</time>
      </trkpt>
      <trkpt lat="47.66066" lon="-2.8494">
        <ele>44.1</ele>
        <time>2020-06-06T13:41:03Z</time>
      </trkpt>
      <trkpt lat="47.66065" lon="-2.84947">
        <ele>44.2</ele>
        <time>2020-06-06T13:41:04Z</time>
      </trkpt>
      <trkpt lat="47.66065" lon="-2.84955">
        <ele>44.4</ele>
        <time>2020-06-06T13:41:05Z</time>
      </trkpt>
      <trkpt lat="47.66066" lon="-2.84962">
        <ele>44.5</ele>
        <time>2020-06-06T13:41:06Z</time>
      </trkpt>
      <trkpt lat="47.66066" lon="-2.84968">
        <ele>44.6</ele>
        <time>2020-06-06T13:41:07Z</time>
      </trkpt>
      <trkpt lat="47.66065" lon="-2.84974">
        <ele>44.8</ele>
        <time>2020-06-06T13:41:08Z</time>
      </trkpt>
      <trkpt lat="47.66065" lon="-2.84981">
        <ele>44.9</ele>
        <time>2020-06-06T13:41:09Z</time>
      </trkpt>
      <trkpt lat="47.66065" lon="-2.84987">
        <ele>45</ele>
        <time>2020-06-06T13:41:10Z</time>
      </trkpt>
      <trkpt lat="47.66065" lon="-2.84993">
        <ele>45.1</ele>
        <time>2020-06-06T13:41:11Z</time>
      </trkpt>
      <trkpt lat="47.66066" lon="-2.84999">
        <ele>45.3</ele>
        <time>2020-06-06T13:41:12Z</time>
      </trkpt>
      <trkpt lat="47.66066" lon="-2.85005">
        <ele>45.4</ele>
        <time>2020-06-06T13:41:13Z</time>
      </trkpt>
      <trkpt lat="47.66066" lon="-2.85011">
        <ele>45.6</ele>
        <time>2020-06-06T13:41:14Z</time>
      </trkpt>
      <trkpt lat="47.66066" lon="-2.85018">
        <ele>45.8</ele>
        <time>2020-06-06T13:41:15Z</time>
      </trkpt>
      <trkpt lat="47.66066" lon="-2.85024">
        <ele>45.9</ele>
        <time>2020-06-06T13:41:16Z</time>
      </trkpt>
      <trkpt lat="47.66066" lon="-2.85032">
        <ele>46.1</ele>
        <time>2020-06-06T13:41:17Z</time>
      </trkpt>
      <trkpt lat="47.66066" lon="-2.8504">
        <ele>46.2</ele>
        <time>2020-06-06T13:41:18Z</time>
      </trkpt>
      <trkpt lat="47.66067" lon="-2.85046">
        <ele>46.4</ele>
        <time>2020-06-06T13:41:19Z</time>
      </trkpt>
      <trkpt lat="47.66067" lon="-2.85052">
        <ele>46.5</ele>
        <time>2020-06-06T13:41:20Z</time>
      </trkpt>
      <trkpt lat="47.66068" lon="-2.85058">
        <ele>46.6</ele>
        <time>2020-06-06T13:41:21Z</time>
      </trkpt>
      <trkpt lat="47.66068" lon="-2.85064">
        <ele>46.7</ele>
        <time>2020-06-06T13:41:22Z</time>
      </trkpt>
      <trkpt lat="47.66068" lon="-2.85071">
        <ele>46.8</ele>
        <time>2020-06-06T13:41:23Z</time>
      </trkpt>
      <trkpt lat="47.66068" lon="-2.85078">
        <ele>46.9</ele>
        <time>2020-06-06T13:41:24Z</time>
      </trkpt>
      <trkpt lat="47.66069" lon="-2.85085">
        <ele>47</ele>
        <time>2020-06-06T13:41:25Z</time>
      </trkpt>
      <trkpt lat="47.66069" lon="-2.85092">
        <ele>47.1</ele>
        <time>2020-06-06T13:41:26Z</time>
      </trkpt>
      <trkpt lat="47.6607" lon="-2.85099">
        <ele>47.2</ele>
        <time>2020-06-06T13:41:27Z</time>
      </trkpt>
      <trkpt lat="47.6607" lon="-2.85107">
        <ele>47.3</ele>
        <time>2020-06-06T13:41:28Z</time>
      </trkpt>
      <trkpt lat="47.66071" lon="-2.85113">
        <ele>47.4</ele>
        <time>2020-06-06T13:41:29Z</time>
      </trkpt>
      <trkpt lat="47.66071" lon="-2.8512">
        <ele>47.5</ele>
        <time>2020-06-06T13:41:30Z</time>
      </trkpt>
      <trkpt lat="47.6607" lon="-2.85127">
        <ele>47.6</ele>
        <time>2020-06-06T13:41:31Z</time>
      </trkpt>
      <trkpt lat="47.66071" lon="-2.85135">
        <ele>47.8</ele>
        <time>2020-06-06T13:41:32Z</time>
      </trkpt>
      <trkpt lat="47.6607" lon="-2.85141">
        <ele>47.9</ele>
        <time>2020-06-06T13:41:33Z</time>
      </trkpt>
      <trkpt lat="47.6607" lon="-2.85147">
        <ele>48</ele>
        <time>2020-06-06T13:41:34Z</time>
      </trkpt>
      <trkpt lat="47.6607" lon="-2.85153">
        <ele>48.1</ele>
        <time>2020-06-06T13:41:35Z</time>
      </trkpt>
      <trkpt lat="47.66071" lon="-2.8516">
        <ele>48.2</ele>
        <time>2020-06-06T13:41:36Z</time>
      </trkpt>
      <trkpt lat="47.66071" lon="-2.85167">
        <ele>48.3</ele>
        <time>2020-06-06T13:41:37Z</time>
      </trkpt>
      <trkpt lat="47.66071" lon="-2.85174">
        <ele>48.3</ele>
        <time>2020-06-06T13:41:38Z</time>
      </trkpt>
      <trkpt lat="47.6607" lon="-2.85182">
        <ele>48.4</ele>
        <time>2020-06-06T13:41:39Z</time>
      </trkpt>
      <trkpt lat="47.66071" lon="-2.85189">
        <ele>48.4</ele>
        <time>2020-06-06T13:41:40Z</time>
      </trkpt>
      <trkpt lat="47.66069" lon="-2.85196">
        <ele>48.5</ele>
        <time>2020-06-06T13:41:41Z</time>
      </trkpt>
      <trkpt lat="47.66069" lon="-2.85203">
        <ele>48.5</ele>
        <time>2020-06-06T13:41:42Z</time>
      </trkpt>
      <trkpt lat="47.66069" lon="-2.8521">
        <ele>48.5</ele>
        <time>2020-06-06T13:41:43Z</time>
      </trkpt>
      <trkpt lat="47.66069" lon="-2.85216">
        <ele>48.5</ele>
        <time>2020-06-06T13:41:44Z</time>
      </trkpt>
      <trkpt lat="47.66068" lon="-2.85222">
        <ele>48.5</ele>
        <time>2020-06-06T13:41:45Z</time>
      </trkpt>
      <trkpt lat="47.66068" lon="-2.85229">
        <ele>48.5</ele>
        <time>2020-06-06T13:41:46Z</time>
      </trkpt>
      <trkpt lat="47.66067" lon="-2.85236">
        <ele>48.4</ele>
        <time>2020-06-06T13:41:47Z</time>
      </trkpt>
      <trkpt lat="47.66068" lon="-2.85243">
        <ele>48.3</ele>
        <time>2020-06-06T13:41:48Z</time>
      </trkpt>
      <trkpt lat="47.66068" lon="-2.8525">
        <ele>48.2</ele>
        <time>2020-06-06T13:41:49Z</time>
      </trkpt>
      <trkpt lat="47.66067" lon="-2.85257">
        <ele>48.1</ele>
        <time>2020-06-06T13:41:50Z</time>
      </trkpt>
      <trkpt lat="47.66066" lon="-2.85264">
        <ele>48</ele>
        <time>2020-06-06T13:41:51Z</time>
      </trkpt>
      <trkpt lat="47.66065" lon="-2.8527">
        <ele>47.8</ele>
        <time>2020-06-06T13:41:52Z</time>
      </trkpt>
      <trkpt lat="47.66065" lon="-2.85276">
        <ele>47.6</ele>
        <time>2020-06-06T13:41:53Z</time>
      </trkpt>
      <trkpt lat="47.66064" lon="-2.85284">
        <ele>47.4</ele>
        <time>2020-06-06T13:41:54Z</time>
      </trkpt>
      <trkpt lat="47.66063" lon="-2.85293">
        <ele>47.1</ele>
        <time>2020-06-06T13:41:55Z</time>
      </trkpt>
      <trkpt lat="47.66062" lon="-2.85302">
        <ele>46.9</ele>
        <time>2020-06-06T13:41:56Z</time>
      </trkpt>
      <trkpt lat="47.66061" lon="-2.85312">
        <ele>46.6</ele>
        <time>2020-06-06T13:41:57Z</time>
      </trkpt>
      <trkpt lat="47.6606" lon="-2.85322">
        <ele>46.5</ele>
        <time>2020-06-06T13:41:58Z</time>
      </trkpt>
      <trkpt lat="47.66061" lon="-2.85332">
        <ele>46.4</ele>
        <time>2020-06-06T13:41:59Z</time>
      </trkpt>
      <trkpt lat="47.66061" lon="-2.85344">
        <ele>46.5</ele>
        <time>2020-06-06T13:42:00Z</time>
      </trkpt>
      <trkpt lat="47.66061" lon="-2.85353">
        <ele>46.5</ele>
        <time>2020-06-06T13:42:01Z</time>
      </trkpt>
      <trkpt lat="47.6606" lon="-2.85362">
        <ele>46.6</ele>
        <time>2020-06-06T13:42:02Z</time>
      </trkpt>
      <trkpt lat="47.66057" lon="-2.85368">
        <ele>46.8</ele>
        <time>2020-06-06T13:42:03Z</time>
      </trkpt>
      <trkpt lat="47.66054" lon="-2.85373">
        <ele>46.9</ele>
        <time>2020-06-06T13:42:04Z</time>
      </trkpt>
      <trkpt lat="47.6605" lon="-2.85378">
        <ele>47.1</ele>
        <time>2020-06-06T13:42:05Z</time>
      </trkpt>
      <trkpt lat="47.66048" lon="-2.85383">
        <ele>47.3</ele>
        <time>2020-06-06T13:42:06Z</time>
      </trkpt>
      <trkpt lat="47.66044" lon="-2.85388">
        <ele>47.4</ele>
        <time>2020-06-06T13:42:07Z</time>
      </trkpt>
      <trkpt lat="47.66041" lon="-2.85392">
        <ele>47.6</ele>
        <time>2020-06-06T13:42:08Z</time>
      </trkpt>
      <trkpt lat="47.66038" lon="-2.854">
        <ele>47.7</ele>
        <time>2020-06-06T13:42:09Z</time>
      </trkpt>
      <trkpt lat="47.66034" lon="-2.85405">
        <ele>47.7</ele>
        <time>2020-06-06T13:42:10Z</time>
      </trkpt>
      <trkpt lat="47.66031" lon="-2.85411">
        <ele>47.8</ele>
        <time>2020-06-06T13:42:11Z</time>
      </trkpt>
      <trkpt lat="47.66028" lon="-2.85417">
        <ele>47.8</ele>
        <time>2020-06-06T13:42:12Z</time>
      </trkpt>
      <trkpt lat="47.66026" lon="-2.85422">
        <ele>47.8</ele>
        <time>2020-06-06T13:42:13Z</time>
      </trkpt>
      <trkpt lat="47.66023" lon="-2.85428">
        <ele>47.8</ele>
        <time>2020-06-06T13:42:14Z</time>
      </trkpt>
      <trkpt lat="47.66021" lon="-2.85433">
        <ele>47.8</ele>
        <time>2020-06-06T13:42:15Z</time>
      </trkpt>
      <trkpt lat="47.66018" lon="-2.85439">
        <ele>47.8</ele>
        <time>2020-06-06T13:42:16Z</time>
      </trkpt>
      <trkpt lat="47.66015" lon="-2.85445">
        <ele>47.8</ele>
        <time>2020-06-06T13:42:17Z</time>
      </trkpt>
      <trkpt lat="47.66011" lon="-2.85452">
        <ele>47.8</ele>
        <time>2020-06-06T13:42:18Z</time>
      </trkpt>
      <trkpt lat="47.66008" lon="-2.85459">
        <ele>47.8</ele>
        <time>2020-06-06T13:42:19Z</time>
      </trkpt>
      <trkpt lat="47.66005" lon="-2.85465">
        <ele>47.9</ele>
        <time>2020-06-06T13:42:20Z</time>
      </trkpt>
      <trkpt lat="47.66001" lon="-2.85472">
        <ele>47.9</ele>
        <time>2020-06-06T13:42:21Z</time>
      </trkpt>
      <trkpt lat="47.65998" lon="-2.85479">
        <ele>47.9</ele>
        <time>2020-06-06T13:42:22Z</time>
      </trkpt>
      <trkpt lat="47.65995" lon="-2.85485">
        <ele>47.9</ele>
        <time>2020-06-06T13:42:23Z</time>
      </trkpt>
      <trkpt lat="47.65991" lon="-2.85491">
        <ele>47.9</ele>
        <time>2020-06-06T13:42:24Z</time>
      </trkpt>
      <trkpt lat="47.65988" lon="-2.85499">
        <ele>47.9</ele>
        <time>2020-06-06T13:42:25Z</time>
      </trkpt>
      <trkpt lat="47.65985" lon="-2.85506">
        <ele>47.9</ele>
        <time>2020-06-06T13:42:26Z</time>
      </trkpt>
      <trkpt lat="47.65981" lon="-2.85513">
        <ele>48</ele>
        <time>2020-06-06T13:42:27Z</time>
      </trkpt>
      <trkpt lat="47.65978" lon="-2.85519">
        <ele>48</ele>
        <time>2020-06-06T13:42:28Z</time>
      </trkpt>
      <trkpt lat="47.65976" lon="-2.85525">
        <ele>48</ele>
        <time>2020-06-06T13:42:29Z</time>
      </trkpt>
      <trkpt lat="47.65973" lon="-2.85531">
        <ele>48</ele>
        <time>2020-06-06T13:42:30Z</time>
      </trkpt>
      <trkpt lat="47.65971" lon="-2.85536">
        <ele>48.1</ele>
        <time>2020-06-06T13:42:31Z</time>
      </trkpt>
      <trkpt lat="47.65968" lon="-2.85541">
        <ele>48.1</ele>
        <time>2020-06-06T13:42:32Z</time>
      </trkpt>
      <trkpt lat="47.65963" lon="-2.85547">
        <ele>48.2</ele>
        <time>2020-06-06T13:42:33Z</time>
      </trkpt>
      <trkpt lat="47.6596" lon="-2.85553">
        <ele>48.3</ele>
        <time>2020-06-06T13:42:34Z</time>
      </trkpt>
      <trkpt lat="47.65956" lon="-2.8556">
        <ele>48.4</ele>
        <time>2020-06-06T13:42:35Z</time>
      </trkpt>
      <trkpt lat="47.65952" lon="-2.85566">
        <ele>48.5</ele>
        <time>2020-06-06T13:42:36Z</time>
      </trkpt>
      <trkpt lat="47.65949" lon="-2.85572">
        <ele>48.5</ele>
        <time>2020-06-06T13:42:37Z</time>
      </trkpt>
      <trkpt lat="47.65945" lon="-2.85579">
        <ele>48.6</ele>
        <time>2020-06-06T13:42:38Z</time>
      </trkpt>
      <trkpt lat="47.65942" lon="-2.85585">
        <ele>48.6</ele>
        <time>2020-06-06T13:42:39Z</time>
      </trkpt>
      <trkpt lat="47.65939" lon="-2.8559">
        <ele>48.6</ele>
        <time>2020-06-06T13:42:40Z</time>
      </trkpt>
      <trkpt lat="47.65935" lon="-2.85596">
        <ele>48.7</ele>
        <time>2020-06-06T13:42:41Z</time>
      </trkpt>
      <trkpt lat="47.65932" lon="-2.85602">
        <ele>48.7</ele>
        <time>2020-06-06T13:42:42Z</time>
      </trkpt>
      <trkpt lat="47.65928" lon="-2.85608">
        <ele>48.8</ele>
        <time>2020-06-06T13:42:43Z</time>
      </trkpt>
      <trkpt lat="47.65925" lon="-2.85615">
        <ele>48.9</ele>
        <time>2020-06-06T13:42:44Z</time>
      </trkpt>
      <trkpt lat="47.65922" lon="-2.8562">
        <ele>48.9</ele>
        <time>2020-06-06T13:42:45Z</time>
      </trkpt>
      <trkpt lat="47.65919" lon="-2.85626">
        <ele>49</ele>
        <time>2020-06-06T13:42:46Z</time>
      </trkpt>
      <trkpt lat="47.65917" lon="-2.85629">
        <ele>49</ele>
        <time>2020-06-06T13:42:47Z</time>
      </trkpt>
      <trkpt lat="47.65914" lon="-2.85636">
        <ele>49.1</ele>
        <time>2020-06-06T13:42:48Z</time>
      </trkpt>
      <trkpt lat="47.65911" lon="-2.85642">
        <ele>49.3</ele>
        <time>2020-06-06T13:42:49Z</time>
      </trkpt>
      <trkpt lat="47.65908" lon="-2.85648">
        <ele>49.5</ele>
        <time>2020-06-06T13:42:50Z</time>
      </trkpt>
      <trkpt lat="47.65905" lon="-2.85655">
        <ele>49.7</ele>
        <time>2020-06-06T13:42:51Z</time>
      </trkpt>
      <trkpt lat="47.65903" lon="-2.85662">
        <ele>50</ele>
        <time>2020-06-06T13:42:52Z</time>
      </trkpt>
      <trkpt lat="47.65901" lon="-2.85668">
        <ele>50.2</ele>
        <time>2020-06-06T13:42:53Z</time>
      </trkpt>
      <trkpt lat="47.65899" lon="-2.85675">
        <ele>50.4</ele>
        <time>2020-06-06T13:42:54Z</time>
      </trkpt>
      <trkpt lat="47.65898" lon="-2.8568">
        <ele>50.5</ele>
        <time>2020-06-06T13:42:55Z</time>
      </trkpt>
      <trkpt lat="47.65899" lon="-2.85684">
        <ele>50.5</ele>
        <time>2020-06-06T13:42:56Z</time>
      </trkpt>
      <trkpt lat="47.659" lon="-2.85688">
        <ele>50.5</ele>
        <time>2020-06-06T13:42:57Z</time>
      </trkpt>
      <trkpt lat="47.659" lon="-2.85693">
        <ele>50.5</ele>
        <time>2020-06-06T13:42:58Z</time>
      </trkpt>
      <trkpt lat="47.65901" lon="-2.857">
        <ele>50.5</ele>
        <time>2020-06-06T13:42:59Z</time>
      </trkpt>
      <trkpt lat="47.65902" lon="-2.85705">
        <ele>50.4</ele>
        <time>2020-06-06T13:43:00Z</time>
      </trkpt>
      <trkpt lat="47.65904" lon="-2.85711">
        <ele>50.3</ele>
        <time>2020-06-06T13:43:01Z</time>
      </trkpt>
      <trkpt lat="47.65905" lon="-2.85716">
        <ele>50.3</ele>
        <time>2020-06-06T13:43:02Z</time>
      </trkpt>
      <trkpt lat="47.65909" lon="-2.85723">
        <ele>50.2</ele>
        <time>2020-06-06T13:43:03Z</time>
      </trkpt>
      <trkpt lat="47.65913" lon="-2.85729">
        <ele>50.1</ele>
        <time>2020-06-06T13:43:04Z</time>
      </trkpt>
      <trkpt lat="47.65916" lon="-2.85735">
        <ele>50.1</ele>
        <time>2020-06-06T13:43:05Z</time>
      </trkpt>
      <trkpt lat="47.65918" lon="-2.8574">
        <ele>50</ele>
        <time>2020-06-06T13:43:06Z</time>
      </trkpt>
      <trkpt lat="47.65921" lon="-2.85746">
        <ele>50</ele>
        <time>2020-06-06T13:43:07Z</time>
      </trkpt>
      <trkpt lat="47.65923" lon="-2.85753">
        <ele>50</ele>
        <time>2020-06-06T13:43:08Z</time>
      </trkpt>
      <trkpt lat="47.65926" lon="-2.85758">
        <ele>49.9</ele>
        <time>2020-06-06T13:43:09Z</time>
      </trkpt>
      <trkpt lat="47.65928" lon="-2.85765">
        <ele>49.9</ele>
        <time>2020-06-06T13:43:10Z</time>
      </trkpt>
      <trkpt lat="47.6593" lon="-2.85771">
        <ele>49.9</ele>
        <time>2020-06-06T13:43:11Z</time>
      </trkpt>
      <trkpt lat="47.65932" lon="-2.85778">
        <ele>49.8</ele>
        <time>2020-06-06T13:43:12Z</time>
      </trkpt>
      <trkpt lat="47.65934" lon="-2.85785">
        <ele>49.8</ele>
        <time>2020-06-06T13:43:13Z</time>
      </trkpt>
      <trkpt lat="47.65937" lon="-2.85792">
        <ele>49.7</ele>
        <time>2020-06-06T13:43:14Z</time>
      </trkpt>
      <trkpt lat="47.6594" lon="-2.85801">
        <ele>49.7</ele>
        <time>2020-06-06T13:43:15Z</time>
      </trkpt>
      <trkpt lat="47.65942" lon="-2.85808">
        <ele>49.6</ele>
        <time>2020-06-06T13:43:16Z</time>
      </trkpt>
      <trkpt lat="47.65945" lon="-2.85816">
        <ele>49.6</ele>
        <time>2020-06-06T13:43:17Z</time>
      </trkpt>
      <trkpt lat="47.65946" lon="-2.85821">
        <ele>49.6</ele>
        <time>2020-06-06T13:43:18Z</time>
      </trkpt>
      <trkpt lat="47.65948" lon="-2.85827">
        <ele>49.6</ele>
        <time>2020-06-06T13:43:19Z</time>
      </trkpt>
      <trkpt lat="47.65949" lon="-2.85835">
        <ele>49.7</ele>
        <time>2020-06-06T13:43:20Z</time>
      </trkpt>
      <trkpt lat="47.6595" lon="-2.85844">
        <ele>49.7</ele>
        <time>2020-06-06T13:43:21Z</time>
      </trkpt>
      <trkpt lat="47.65952" lon="-2.85851">
        <ele>49.7</ele>
        <time>2020-06-06T13:43:22Z</time>
      </trkpt>
      <trkpt lat="47.65953" lon="-2.85858">
        <ele>49.7</ele>
        <time>2020-06-06T13:43:23Z</time>
      </trkpt>
      <trkpt lat="47.65955" lon="-2.85865">
        <ele>49.7</ele>
        <time>2020-06-06T13:43:24Z</time>
      </trkpt>
      <trkpt lat="47.65958" lon="-2.85872">
        <ele>49.8</ele>
        <time>2020-06-06T13:43:25Z</time>
      </trkpt>
      <trkpt lat="47.65961" lon="-2.85878">
        <ele>49.8</ele>
        <time>2020-06-06T13:43:26Z</time>
      </trkpt>
      <trkpt lat="47.65965" lon="-2.85883">
        <ele>49.9</ele>
        <time>2020-06-06T13:43:27Z</time>
      </trkpt>
      <trkpt lat="47.65969" lon="-2.85884">
        <ele>51.1</ele>
        <time>2020-06-06T13:43:28Z</time>
      </trkpt>
      <trkpt lat="47.65972" lon="-2.85887">
        <ele>51</ele>
        <time>2020-06-06T13:43:29Z</time>
      </trkpt>
      <trkpt lat="47.65975" lon="-2.85891">
        <ele>51</ele>
        <time>2020-06-06T13:43:30Z</time>
      </trkpt>
      <trkpt lat="47.65978" lon="-2.85896">
        <ele>50.9</ele>
        <time>2020-06-06T13:43:31Z</time>
      </trkpt>
      <trkpt lat="47.6598" lon="-2.85902">
        <ele>50.8</ele>
        <time>2020-06-06T13:43:32Z</time>
      </trkpt>
      <trkpt lat="47.65982" lon="-2.85908">
        <ele>50.8</ele>
        <time>2020-06-06T13:43:33Z</time>
      </trkpt>
      <trkpt lat="47.65983" lon="-2.85913">
        <ele>50.7</ele>
        <time>2020-06-06T13:43:34Z</time>
      </trkpt>
      <trkpt lat="47.65983" lon="-2.85919">
        <ele>50.8</ele>
        <time>2020-06-06T13:43:35Z</time>
      </trkpt>
      <trkpt lat="47.65983" lon="-2.85925">
        <ele>51</ele>
        <time>2020-06-06T13:43:36Z</time>
      </trkpt>
      <trkpt lat="47.65982" lon="-2.85931">
        <ele>51.1</ele>
        <time>2020-06-06T13:43:37Z</time>
      </trkpt>
      <trkpt lat="47.65982" lon="-2.85938">
        <ele>51.1</ele>
        <time>2020-06-06T13:43:38Z</time>
      </trkpt>
      <trkpt lat="47.65981" lon="-2.85944">
        <ele>51.2</ele>
        <time>2020-06-06T13:43:39Z</time>
      </trkpt>
      <trkpt lat="47.65982" lon="-2.8595">
        <ele>51.3</ele>
        <time>2020-06-06T13:43:40Z</time>
      </trkpt>
      <trkpt lat="47.65983" lon="-2.85955">
        <ele>51.3</ele>
        <time>2020-06-06T13:43:41Z</time>
      </trkpt>
      <trkpt lat="47.65985" lon="-2.8596">
        <ele>51.4</ele>
        <time>2020-06-06T13:43:42Z</time>
      </trkpt>
      <trkpt lat="47.65988" lon="-2.85965">
        <ele>51.5</ele>
        <time>2020-06-06T13:43:43Z</time>
      </trkpt>
      <trkpt lat="47.65991" lon="-2.8597">
        <ele>51.6</ele>
        <time>2020-06-06T13:43:44Z</time>
      </trkpt>
      <trkpt lat="47.65993" lon="-2.85975">
        <ele>51.8</ele>
        <time>2020-06-06T13:43:45Z</time>
      </trkpt>
      <trkpt lat="47.65995" lon="-2.85979">
        <ele>51.9</ele>
        <time>2020-06-06T13:43:46Z</time>
      </trkpt>
      <trkpt lat="47.65998" lon="-2.85985">
        <ele>52</ele>
        <time>2020-06-06T13:43:47Z</time>
      </trkpt>
      <trkpt lat="47.66001" lon="-2.85989">
        <ele>52.2</ele>
        <time>2020-06-06T13:43:48Z</time>
      </trkpt>
      <trkpt lat="47.66004" lon="-2.85993">
        <ele>52.3</ele>
        <time>2020-06-06T13:43:49Z</time>
      </trkpt>
      <trkpt lat="47.66008" lon="-2.85997">
        <ele>52.4</ele>
        <time>2020-06-06T13:43:50Z</time>
      </trkpt>
      <trkpt lat="47.66012" lon="-2.86">
        <ele>52.5</ele>
        <time>2020-06-06T13:43:51Z</time>
      </trkpt>
      <trkpt lat="47.66016" lon="-2.86002">
        <ele>52.6</ele>
        <time>2020-06-06T13:43:52Z</time>
      </trkpt>
      <trkpt lat="47.6602" lon="-2.86005">
        <ele>52.7</ele>
        <time>2020-06-06T13:43:53Z</time>
      </trkpt>
      <trkpt lat="47.66023" lon="-2.86008">
        <ele>52.9</ele>
        <time>2020-06-06T13:43:54Z</time>
      </trkpt>
      <trkpt lat="47.66027" lon="-2.86011">
        <ele>53</ele>
        <time>2020-06-06T13:43:55Z</time>
      </trkpt>
      <trkpt lat="47.66031" lon="-2.86013">
        <ele>53.1</ele>
        <time>2020-06-06T13:43:56Z</time>
      </trkpt>
      <trkpt lat="47.66035" lon="-2.86015">
        <ele>53.2</ele>
        <time>2020-06-06T13:43:57Z</time>
      </trkpt>
      <trkpt lat="47.66039" lon="-2.86017">
        <ele>53.2</ele>
        <time>2020-06-06T13:43:58Z</time>
      </trkpt>
      <trkpt lat="47.66043" lon="-2.86018">
        <ele>53.3</ele>
        <time>2020-06-06T13:43:59Z</time>
      </trkpt>
      <trkpt lat="47.66046" lon="-2.86017">
        <ele>53.4</ele>
        <time>2020-06-06T13:44:00Z</time>
      </trkpt>
      <trkpt lat="47.6605" lon="-2.86017">
        <ele>53.4</ele>
        <time>2020-06-06T13:44:01Z</time>
      </trkpt>
      <trkpt lat="47.66053" lon="-2.86016">
        <ele>53.5</ele>
        <time>2020-06-06T13:44:02Z</time>
      </trkpt>
      <trkpt lat="47.66057" lon="-2.86016">
        <ele>53.5</ele>
        <time>2020-06-06T13:44:03Z</time>
      </trkpt>
      <trkpt lat="47.66061" lon="-2.86017">
        <ele>53.5</ele>
        <time>2020-06-06T13:44:04Z</time>
      </trkpt>
      <trkpt lat="47.66064" lon="-2.86017">
        <ele>53.5</ele>
        <time>2020-06-06T13:44:05Z</time>
      </trkpt>
      <trkpt lat="47.66069" lon="-2.86017">
        <ele>53.5</ele>
        <time>2020-06-06T13:44:06Z</time>
      </trkpt>
      <trkpt lat="47.66073" lon="-2.86017">
        <ele>53.5</ele>
        <time>2020-06-06T13:44:07Z</time>
      </trkpt>
      <trkpt lat="47.66078" lon="-2.86018">
        <ele>53.5</ele>
        <time>2020-06-06T13:44:08Z</time>
      </trkpt>
      <trkpt lat="47.66082" lon="-2.86018">
        <ele>53.5</ele>
        <time>2020-06-06T13:44:09Z</time>
      </trkpt>
      <trkpt lat="47.66085" lon="-2.86017">
        <ele>53.4</ele>
        <time>2020-06-06T13:44:10Z</time>
      </trkpt>
      <trkpt lat="47.66089" lon="-2.86017">
        <ele>53.4</ele>
        <time>2020-06-06T13:44:11Z</time>
      </trkpt>
      <trkpt lat="47.66095" lon="-2.86016">
        <ele>53.3</ele>
        <time>2020-06-06T13:44:12Z</time>
      </trkpt>
      <trkpt lat="47.66099" lon="-2.86016">
        <ele>53.3</ele>
        <time>2020-06-06T13:44:13Z</time>
      </trkpt>
      <trkpt lat="47.66104" lon="-2.86015">
        <ele>53.2</ele>
        <time>2020-06-06T13:44:14Z</time>
      </trkpt>
      <trkpt lat="47.66109" lon="-2.86015">
        <ele>53.1</ele>
        <time>2020-06-06T13:44:15Z</time>
      </trkpt>
      <trkpt lat="47.66113" lon="-2.86015">
        <ele>53</ele>
        <time>2020-06-06T13:44:16Z</time>
      </trkpt>
      <trkpt lat="47.66117" lon="-2.86014">
        <ele>52.9</ele>
        <time>2020-06-06T13:44:17Z</time>
      </trkpt>
      <trkpt lat="47.66123" lon="-2.86012">
        <ele>52.7</ele>
        <time>2020-06-06T13:44:18Z</time>
      </trkpt>
      <trkpt lat="47.66129" lon="-2.86008">
        <ele>52.5</ele>
        <time>2020-06-06T13:44:19Z</time>
      </trkpt>
      <trkpt lat="47.66134" lon="-2.86004">
        <ele>52.5</ele>
        <time>2020-06-06T13:44:20Z</time>
      </trkpt>
      <trkpt lat="47.66139" lon="-2.86">
        <ele>52.5</ele>
        <time>2020-06-06T13:44:21Z</time>
      </trkpt>
      <trkpt lat="47.66144" lon="-2.85997">
        <ele>52.4</ele>
        <time>2020-06-06T13:44:22Z</time>
      </trkpt>
      <trkpt lat="47.66149" lon="-2.85993">
        <ele>52.4</ele>
        <time>2020-06-06T13:44:23Z</time>
      </trkpt>
      <trkpt lat="47.66153" lon="-2.8599">
        <ele>52.3</ele>
        <time>2020-06-06T13:44:24Z</time>
      </trkpt>
      <trkpt lat="47.66158" lon="-2.85987">
        <ele>52.1</ele>
        <time>2020-06-06T13:44:25Z</time>
      </trkpt>
      <trkpt lat="47.66164" lon="-2.85987">
        <ele>52</ele>
        <time>2020-06-06T13:44:26Z</time>
      </trkpt>
      <trkpt lat="47.6617" lon="-2.85994">
        <ele>51.7</ele>
        <time>2020-06-06T13:44:27Z</time>
      </trkpt>
      <trkpt lat="47.66174" lon="-2.86002">
        <ele>51.5</ele>
        <time>2020-06-06T13:44:28Z</time>
      </trkpt>
      <trkpt lat="47.66176" lon="-2.86012">
        <ele>51.4</ele>
        <time>2020-06-06T13:44:29Z</time>
      </trkpt>
      <trkpt lat="47.66177" lon="-2.86022">
        <ele>51.3</ele>
        <time>2020-06-06T13:44:30Z</time>
      </trkpt>
      <trkpt lat="47.66177" lon="-2.8603">
        <ele>51.3</ele>
        <time>2020-06-06T13:44:31Z</time>
      </trkpt>
      <trkpt lat="47.66175" lon="-2.86038">
        <ele>51.3</ele>
        <time>2020-06-06T13:44:32Z</time>
      </trkpt>
      <trkpt lat="47.66173" lon="-2.86045">
        <ele>51.2</ele>
        <time>2020-06-06T13:44:33Z</time>
      </trkpt>
      <trkpt lat="47.66171" lon="-2.86052">
        <ele>51.2</ele>
        <time>2020-06-06T13:44:34Z</time>
      </trkpt>
      <trkpt lat="47.6617" lon="-2.86059">
        <ele>51.1</ele>
        <time>2020-06-06T13:44:35Z</time>
      </trkpt>
      <trkpt lat="47.66168" lon="-2.86065">
        <ele>51</ele>
        <time>2020-06-06T13:44:36Z</time>
      </trkpt>
      <trkpt lat="47.66168" lon="-2.86073">
        <ele>50.8</ele>
        <time>2020-06-06T13:44:37Z</time>
      </trkpt>
      <trkpt lat="47.66167" lon="-2.86081">
        <ele>50.6</ele>
        <time>2020-06-06T13:44:38Z</time>
      </trkpt>
      <trkpt lat="47.66167" lon="-2.86089">
        <ele>50.5</ele>
        <time>2020-06-06T13:44:39Z</time>
      </trkpt>
      <trkpt lat="47.66167" lon="-2.86096">
        <ele>50.3</ele>
        <time>2020-06-06T13:44:40Z</time>
      </trkpt>
      <trkpt lat="47.66166" lon="-2.86102">
        <ele>50.2</ele>
        <time>2020-06-06T13:44:41Z</time>
      </trkpt>
      <trkpt lat="47.66165" lon="-2.8611">
        <ele>50</ele>
        <time>2020-06-06T13:44:42Z</time>
      </trkpt>
      <trkpt lat="47.66163" lon="-2.86118">
        <ele>49.8</ele>
        <time>2020-06-06T13:44:43Z</time>
      </trkpt>
      <trkpt lat="47.66161" lon="-2.86127">
        <ele>49.6</ele>
        <time>2020-06-06T13:44:44Z</time>
      </trkpt>
      <trkpt lat="47.66157" lon="-2.86136">
        <ele>49.4</ele>
        <time>2020-06-06T13:44:45Z</time>
      </trkpt>
      <trkpt lat="47.66152" lon="-2.86144">
        <ele>49.2</ele>
        <time>2020-06-06T13:44:46Z</time>
      </trkpt>
      <trkpt lat="47.66148" lon="-2.86152">
        <ele>49</ele>
        <time>2020-06-06T13:44:47Z</time>
      </trkpt>
      <trkpt lat="47.66143" lon="-2.8616">
        <ele>48.8</ele>
        <time>2020-06-06T13:44:48Z</time>
      </trkpt>
      <trkpt lat="47.66138" lon="-2.86167">
        <ele>48.7</ele>
        <time>2020-06-06T13:44:49Z</time>
      </trkpt>
      <trkpt lat="47.66133" lon="-2.86174">
        <ele>48.5</ele>
        <time>2020-06-06T13:44:50Z</time>
      </trkpt>
      <trkpt lat="47.66128" lon="-2.86181">
        <ele>48.4</ele>
        <time>2020-06-06T13:44:51Z</time>
      </trkpt>
      <trkpt lat="47.66122" lon="-2.8619">
        <ele>48.3</ele>
        <time>2020-06-06T13:44:52Z</time>
      </trkpt>
      <trkpt lat="47.66116" lon="-2.86196">
        <ele>48.3</ele>
        <time>2020-06-06T13:44:53Z</time>
      </trkpt>
      <trkpt lat="47.66111" lon="-2.86201">
        <ele>48.2</ele>
        <time>2020-06-06T13:44:54Z</time>
      </trkpt>
      <trkpt lat="47.66106" lon="-2.86206">
        <ele>48.2</ele>
        <time>2020-06-06T13:44:55Z</time>
      </trkpt>
      <trkpt lat="47.66102" lon="-2.86212">
        <ele>48.3</ele>
        <time>2020-06-06T13:44:56Z</time>
      </trkpt>
      <trkpt lat="47.66097" lon="-2.86218">
        <ele>48.3</ele>
        <time>2020-06-06T13:44:57Z</time>
      </trkpt>
      <trkpt lat="47.66093" lon="-2.86226">
        <ele>48.3</ele>
        <time>2020-06-06T13:44:58Z</time>
      </trkpt>
      <trkpt lat="47.66091" lon="-2.86233">
        <ele>48.4</ele>
        <time>2020-06-06T13:44:59Z</time>
      </trkpt>
      <trkpt lat="47.6609" lon="-2.86241">
        <ele>48.4</ele>
        <time>2020-06-06T13:45:00Z</time>
      </trkpt>
      <trkpt lat="47.66089" lon="-2.8625">
        <ele>48.5</ele>
        <time>2020-06-06T13:45:01Z</time>
      </trkpt>
      <trkpt lat="47.66088" lon="-2.86258">
        <ele>48.6</ele>
        <time>2020-06-06T13:45:02Z</time>
      </trkpt>
      <trkpt lat="47.66088" lon="-2.86265">
        <ele>48.6</ele>
        <time>2020-06-06T13:45:03Z</time>
      </trkpt>
      <trkpt lat="47.66089" lon="-2.86273">
        <ele>48.7</ele>
        <time>2020-06-06T13:45:04Z</time>
      </trkpt>
      <trkpt lat="47.66089" lon="-2.86281">
        <ele>48.8</ele>
        <time>2020-06-06T13:45:05Z</time>
      </trkpt>
      <trkpt lat="47.66089" lon="-2.86289">
        <ele>48.8</ele>
        <time>2020-06-06T13:45:06Z</time>
      </trkpt>
      <trkpt lat="47.66088" lon="-2.86297">
        <ele>48.9</ele>
        <time>2020-06-06T13:45:07Z</time>
      </trkpt>
      <trkpt lat="47.66088" lon="-2.86305">
        <ele>49</ele>
        <time>2020-06-06T13:45:08Z</time>
      </trkpt>
      <trkpt lat="47.66088" lon="-2.86314">
        <ele>49.1</ele>
        <time>2020-06-06T13:45:09Z</time>
      </trkpt>
      <trkpt lat="47.66087" lon="-2.86323">
        <ele>49.1</ele>
        <time>2020-06-06T13:45:10Z</time>
      </trkpt>
      <trkpt lat="47.66087" lon="-2.86331">
        <ele>49.2</ele>
        <time>2020-06-06T13:45:11Z</time>
      </trkpt>
      <trkpt lat="47.66086" lon="-2.8634">
        <ele>49.2</ele>
        <time>2020-06-06T13:45:12Z</time>
      </trkpt>
      <trkpt lat="47.66086" lon="-2.86348">
        <ele>49.3</ele>
        <time>2020-06-06T13:45:13Z</time>
      </trkpt>
      <trkpt lat="47.66086" lon="-2.86356">
        <ele>49.3</ele>
        <time>2020-06-06T13:45:14Z</time>
      </trkpt>
      <trkpt lat="47.66086" lon="-2.86366">
        <ele>49.4</ele>
        <time>2020-06-06T13:45:15Z</time>
      </trkpt>
      <trkpt lat="47.66085" lon="-2.86374">
        <ele>49.4</ele>
        <time>2020-06-06T13:45:16Z</time>
      </trkpt>
      <trkpt lat="47.66085" lon="-2.86382">
        <ele>49.4</ele>
        <time>2020-06-06T13:45:17Z</time>
      </trkpt>
      <trkpt lat="47.66085" lon="-2.86391">
        <ele>49.4</ele>
        <time>2020-06-06T13:45:18Z</time>
      </trkpt>
      <trkpt lat="47.66085" lon="-2.864">
        <ele>49.5</ele>
        <time>2020-06-06T13:45:19Z</time>
      </trkpt>
      <trkpt lat="47.66085" lon="-2.86405">
        <ele>49.5</ele>
        <time>2020-06-06T13:45:20Z</time>
      </trkpt>
      <trkpt lat="47.66085" lon="-2.86411">
        <ele>49.6</ele>
        <time>2020-06-06T13:45:21Z</time>
      </trkpt>
      <trkpt lat="47.66085" lon="-2.86417">
        <ele>49.6</ele>
        <time>2020-06-06T13:45:22Z</time>
      </trkpt>
      <trkpt lat="47.66084" lon="-2.86422">
        <ele>49.7</ele>
        <time>2020-06-06T13:45:23Z</time>
      </trkpt>
      <trkpt lat="47.66084" lon="-2.86429">
        <ele>49.7</ele>
        <time>2020-06-06T13:45:24Z</time>
      </trkpt>
      <trkpt lat="47.66084" lon="-2.86437">
        <ele>49.8</ele>
        <time>2020-06-06T13:45:25Z</time>
      </trkpt>
      <trkpt lat="47.66084" lon="-2.86445">
        <ele>49.9</ele>
        <time>2020-06-06T13:45:26Z</time>
      </trkpt>
      <trkpt lat="47.66083" lon="-2.86452">
        <ele>50</ele>
        <time>2020-06-06T13:45:27Z</time>
      </trkpt>
      <trkpt lat="47.66083" lon="-2.86462">
        <ele>50.1</ele>
        <time>2020-06-06T13:45:28Z</time>
      </trkpt>
      <trkpt lat="47.66082" lon="-2.8647">
        <ele>50.2</ele>
        <time>2020-06-06T13:45:29Z</time>
      </trkpt>
      <trkpt lat="47.66082" lon="-2.86477">
        <ele>50.2</ele>
        <time>2020-06-06T13:45:30Z</time>
      </trkpt>
      <trkpt lat="47.66083" lon="-2.86485">
        <ele>50.3</ele>
        <time>2020-06-06T13:45:31Z</time>
      </trkpt>
      <trkpt lat="47.66082" lon="-2.8649">
        <ele>50.4</ele>
        <time>2020-06-06T13:45:32Z</time>
      </trkpt>
      <trkpt lat="47.66082" lon="-2.86495">
        <ele>50.4</ele>
        <time>2020-06-06T13:45:33Z</time>
      </trkpt>
      <trkpt lat="47.66082" lon="-2.86501">
        <ele>50.5</ele>
        <time>2020-06-06T13:45:34Z</time>
      </trkpt>
      <trkpt lat="47.66083" lon="-2.8651">
        <ele>50.5</ele>
        <time>2020-06-06T13:45:35Z</time>
      </trkpt>
      <trkpt lat="47.66083" lon="-2.86517">
        <ele>50.5</ele>
        <time>2020-06-06T13:45:36Z</time>
      </trkpt>
      <trkpt lat="47.66083" lon="-2.86524">
        <ele>50.5</ele>
        <time>2020-06-06T13:45:37Z</time>
      </trkpt>
      <trkpt lat="47.66083" lon="-2.86532">
        <ele>50.5</ele>
        <time>2020-06-06T13:45:38Z</time>
      </trkpt>
      <trkpt lat="47.66083" lon="-2.86539">
        <ele>50.6</ele>
        <time>2020-06-06T13:45:39Z</time>
      </trkpt>
      <trkpt lat="47.66083" lon="-2.86545">
        <ele>50.6</ele>
        <time>2020-06-06T13:45:40Z</time>
      </trkpt>
      <trkpt lat="47.66084" lon="-2.86552">
        <ele>50.6</ele>
        <time>2020-06-06T13:45:41Z</time>
      </trkpt>
      <trkpt lat="47.66084" lon="-2.86559">
        <ele>50.7</ele>
        <time>2020-06-06T13:45:42Z</time>
      </trkpt>
      <trkpt lat="47.66085" lon="-2.86566">
        <ele>50.7</ele>
        <time>2020-06-06T13:45:43Z</time>
      </trkpt>
      <trkpt lat="47.66085" lon="-2.86574">
        <ele>50.8</ele>
        <time>2020-06-06T13:45:44Z</time>
      </trkpt>
      <trkpt lat="47.66086" lon="-2.86581">
        <ele>50.9</ele>
        <time>2020-06-06T13:45:45Z</time>
      </trkpt>
      <trkpt lat="47.66086" lon="-2.86588">
        <ele>50.9</ele>
        <time>2020-06-06T13:45:46Z</time>
      </trkpt>
      <trkpt lat="47.66087" lon="-2.86595">
        <ele>51</ele>
        <time>2020-06-06T13:45:47Z</time>
      </trkpt>
      <trkpt lat="47.66087" lon="-2.86602">
        <ele>51</ele>
        <time>2020-06-06T13:45:48Z</time>
      </trkpt>
      <trkpt lat="47.66087" lon="-2.86608">
        <ele>51.1</ele>
        <time>2020-06-06T13:45:49Z</time>
      </trkpt>
      <trkpt lat="47.66087" lon="-2.86616">
        <ele>51.1</ele>
        <time>2020-06-06T13:45:50Z</time>
      </trkpt>
      <trkpt lat="47.66088" lon="-2.86622">
        <ele>51.1</ele>
        <time>2020-06-06T13:45:51Z</time>
      </trkpt>
      <trkpt lat="47.66089" lon="-2.86629">
        <ele>51.2</ele>
        <time>2020-06-06T13:45:52Z</time>
      </trkpt>
      <trkpt lat="47.66089" lon="-2.86637">
        <ele>51.2</ele>
        <time>2020-06-06T13:45:53Z</time>
      </trkpt>
      <trkpt lat="47.6609" lon="-2.86645">
        <ele>51.2</ele>
        <time>2020-06-06T13:45:54Z</time>
      </trkpt>
      <trkpt lat="47.6609" lon="-2.86651">
        <ele>51.3</ele>
        <time>2020-06-06T13:45:55Z</time>
      </trkpt>
      <trkpt lat="47.6609" lon="-2.86657">
        <ele>51.3</ele>
        <time>2020-06-06T13:45:56Z</time>
      </trkpt>
      <trkpt lat="47.6609" lon="-2.86664">
        <ele>51.4</ele>
        <time>2020-06-06T13:45:57Z</time>
      </trkpt>
      <trkpt lat="47.66091" lon="-2.86672">
        <ele>51.4</ele>
        <time>2020-06-06T13:45:58Z</time>
      </trkpt>
      <trkpt lat="47.66091" lon="-2.86679">
        <ele>51.5</ele>
        <time>2020-06-06T13:45:59Z</time>
      </trkpt>
      <trkpt lat="47.66091" lon="-2.86685">
        <ele>51.5</ele>
        <time>2020-06-06T13:46:00Z</time>
      </trkpt>
      <trkpt lat="47.66091" lon="-2.86692">
        <ele>51.6</ele>
        <time>2020-06-06T13:46:01Z</time>
      </trkpt>
      <trkpt lat="47.66092" lon="-2.86699">
        <ele>51.6</ele>
        <time>2020-06-06T13:46:02Z</time>
      </trkpt>
      <trkpt lat="47.66093" lon="-2.86705">
        <ele>51.6</ele>
        <time>2020-06-06T13:46:03Z</time>
      </trkpt>
      <trkpt lat="47.66094" lon="-2.86712">
        <ele>51.6</ele>
        <time>2020-06-06T13:46:04Z</time>
      </trkpt>
      <trkpt lat="47.66095" lon="-2.86718">
        <ele>51.7</ele>
        <time>2020-06-06T13:46:05Z</time>
      </trkpt>
      <trkpt lat="47.66095" lon="-2.86723">
        <ele>51.7</ele>
        <time>2020-06-06T13:46:06Z</time>
      </trkpt>
      <trkpt lat="47.66096" lon="-2.8673">
        <ele>51.7</ele>
        <time>2020-06-06T13:46:07Z</time>
      </trkpt>
      <trkpt lat="47.66097" lon="-2.86737">
        <ele>51.8</ele>
        <time>2020-06-06T13:46:08Z</time>
      </trkpt>
      <trkpt lat="47.66098" lon="-2.86746">
        <ele>51.8</ele>
        <time>2020-06-06T13:46:09Z</time>
      </trkpt>
      <trkpt lat="47.66099" lon="-2.86752">
        <ele>51.8</ele>
        <time>2020-06-06T13:46:10Z</time>
      </trkpt>
      <trkpt lat="47.661" lon="-2.86761">
        <ele>51.9</ele>
        <time>2020-06-06T13:46:11Z</time>
      </trkpt>
      <trkpt lat="47.66101" lon="-2.86768">
        <ele>51.9</ele>
        <time>2020-06-06T13:46:12Z</time>
      </trkpt>
      <trkpt lat="47.66101" lon="-2.86775">
        <ele>52</ele>
        <time>2020-06-06T13:46:13Z</time>
      </trkpt>
      <trkpt lat="47.66102" lon="-2.86783">
        <ele>52</ele>
        <time>2020-06-06T13:46:14Z</time>
      </trkpt>
      <trkpt lat="47.66103" lon="-2.86789">
        <ele>52.1</ele>
        <time>2020-06-06T13:46:15Z</time>
      </trkpt>
      <trkpt lat="47.66103" lon="-2.86794">
        <ele>52.1</ele>
        <time>2020-06-06T13:46:16Z</time>
      </trkpt>
      <trkpt lat="47.66105" lon="-2.86804">
        <ele>52.2</ele>
        <time>2020-06-06T13:46:17Z</time>
      </trkpt>
      <trkpt lat="47.66106" lon="-2.86811">
        <ele>52.2</ele>
        <time>2020-06-06T13:46:18Z</time>
      </trkpt>
      <trkpt lat="47.66108" lon="-2.86816">
        <ele>52.3</ele>
        <time>2020-06-06T13:46:19Z</time>
      </trkpt>
      <trkpt lat="47.6611" lon="-2.86824">
        <ele>52.3</ele>
        <time>2020-06-06T13:46:20Z</time>
      </trkpt>
      <trkpt lat="47.66111" lon="-2.86831">
        <ele>52.4</ele>
        <time>2020-06-06T13:46:21Z</time>
      </trkpt>
      <trkpt lat="47.66112" lon="-2.86838">
        <ele>52.4</ele>
        <time>2020-06-06T13:46:22Z</time>
      </trkpt>
      <trkpt lat="47.66113" lon="-2.86846">
        <ele>52.4</ele>
        <time>2020-06-06T13:46:23Z</time>
      </trkpt>
      <trkpt lat="47.66114" lon="-2.86853">
        <ele>52.4</ele>
        <time>2020-06-06T13:46:24Z</time>
      </trkpt>
      <trkpt lat="47.66115" lon="-2.86861">
        <ele>52.4</ele>
        <time>2020-06-06T13:46:25Z</time>
      </trkpt>
      <trkpt lat="47.66116" lon="-2.86869">
        <ele>52.4</ele>
        <time>2020-06-06T13:46:26Z</time>
      </trkpt>
      <trkpt lat="47.66118" lon="-2.86875">
        <ele>52.4</ele>
        <time>2020-06-06T13:46:27Z</time>
      </trkpt>
      <trkpt lat="47.66119" lon="-2.86883">
        <ele>52.3</ele>
        <time>2020-06-06T13:46:28Z</time>
      </trkpt>
      <trkpt lat="47.6612" lon="-2.86889">
        <ele>52.3</ele>
        <time>2020-06-06T13:46:29Z</time>
      </trkpt>
      <trkpt lat="47.66122" lon="-2.86896">
        <ele>52.3</ele>
        <time>2020-06-06T13:46:30Z</time>
      </trkpt>
      <trkpt lat="47.66123" lon="-2.86903">
        <ele>52.3</ele>
        <time>2020-06-06T13:46:31Z</time>
      </trkpt>
      <trkpt lat="47.66124" lon="-2.8691">
        <ele>52.3</ele>
        <time>2020-06-06T13:46:32Z</time>
      </trkpt>
      <trkpt lat="47.66125" lon="-2.86919">
        <ele>52.2</ele>
        <time>2020-06-06T13:46:33Z</time>
      </trkpt>
      <trkpt lat="47.66126" lon="-2.86927">
        <ele>52.2</ele>
        <time>2020-06-06T13:46:34Z</time>
      </trkpt>
      <trkpt lat="47.66127" lon="-2.86936">
        <ele>52.1</ele>
        <time>2020-06-06T13:46:35Z</time>
      </trkpt>
      <trkpt lat="47.66128" lon="-2.86944">
        <ele>52.1</ele>
        <time>2020-06-06T13:46:36Z</time>
      </trkpt>
      <trkpt lat="47.66129" lon="-2.86952">
        <ele>52</ele>
        <time>2020-06-06T13:46:37Z</time>
      </trkpt>
      <trkpt lat="47.6613" lon="-2.8696">
        <ele>51.9</ele>
        <time>2020-06-06T13:46:38Z</time>
      </trkpt>
      <trkpt lat="47.66132" lon="-2.86968">
        <ele>51.8</ele>
        <time>2020-06-06T13:46:39Z</time>
      </trkpt>
      <trkpt lat="47.66133" lon="-2.86977">
        <ele>51.7</ele>
        <time>2020-06-06T13:46:40Z</time>
      </trkpt>
      <trkpt lat="47.66134" lon="-2.86986">
        <ele>51.6</ele>
        <time>2020-06-06T13:46:41Z</time>
      </trkpt>
      <trkpt lat="47.66136" lon="-2.86997">
        <ele>51.5</ele>
        <time>2020-06-06T13:46:42Z</time>
      </trkpt>
      <trkpt lat="47.66138" lon="-2.87007">
        <ele>51.4</ele>
        <time>2020-06-06T13:46:43Z</time>
      </trkpt>
      <trkpt lat="47.66139" lon="-2.87015">
        <ele>51.3</ele>
        <time>2020-06-06T13:46:44Z</time>
      </trkpt>
      <trkpt lat="47.66139" lon="-2.87023">
        <ele>51.2</ele>
        <time>2020-06-06T13:46:45Z</time>
      </trkpt>
      <trkpt lat="47.6614" lon="-2.87032">
        <ele>51</ele>
        <time>2020-06-06T13:46:46Z</time>
      </trkpt>
      <trkpt lat="47.66141" lon="-2.87041">
        <ele>50.9</ele>
        <time>2020-06-06T13:46:47Z</time>
      </trkpt>
      <trkpt lat="47.66142" lon="-2.87051">
        <ele>50.7</ele>
        <time>2020-06-06T13:46:48Z</time>
      </trkpt>
      <trkpt lat="47.66143" lon="-2.87061">
        <ele>50.5</ele>
        <time>2020-06-06T13:46:49Z</time>
      </trkpt>
      <trkpt lat="47.66144" lon="-2.87071">
        <ele>50.4</ele>
        <time>2020-06-06T13:46:50Z</time>
      </trkpt>
      <trkpt lat="47.66145" lon="-2.87081">
        <ele>50.2</ele>
        <time>2020-06-06T13:46:51Z</time>
      </trkpt>
      <trkpt lat="47.66146" lon="-2.87091">
        <ele>50.1</ele>
        <time>2020-06-06T13:46:52Z</time>
      </trkpt>
      <trkpt lat="47.66147" lon="-2.87101">
        <ele>49.9</ele>
        <time>2020-06-06T13:46:53Z</time>
      </trkpt>
      <trkpt lat="47.66148" lon="-2.87111">
        <ele>49.8</ele>
        <time>2020-06-06T13:46:54Z</time>
      </trkpt>
      <trkpt lat="47.66149" lon="-2.87121">
        <ele>49.7</ele>
        <time>2020-06-06T13:46:55Z</time>
      </trkpt>
      <trkpt lat="47.6615" lon="-2.87131">
        <ele>49.5</ele>
        <time>2020-06-06T13:46:56Z</time>
      </trkpt>
      <trkpt lat="47.66152" lon="-2.87142">
        <ele>49.3</ele>
        <time>2020-06-06T13:46:57Z</time>
      </trkpt>
      <trkpt lat="47.66153" lon="-2.87152">
        <ele>49.1</ele>
        <time>2020-06-06T13:46:58Z</time>
      </trkpt>
      <trkpt lat="47.66154" lon="-2.87162">
        <ele>49</ele>
        <time>2020-06-06T13:46:59Z</time>
      </trkpt>
      <trkpt lat="47.66156" lon="-2.87172">
        <ele>48.8</ele>
        <time>2020-06-06T13:47:00Z</time>
      </trkpt>
      <trkpt lat="47.66157" lon="-2.87182">
        <ele>48.7</ele>
        <time>2020-06-06T13:47:01Z</time>
      </trkpt>
      <trkpt lat="47.66158" lon="-2.87192">
        <ele>48.5</ele>
        <time>2020-06-06T13:47:02Z</time>
      </trkpt>
      <trkpt lat="47.6616" lon="-2.87203">
        <ele>48.4</ele>
        <time>2020-06-06T13:47:03Z</time>
      </trkpt>
      <trkpt lat="47.66161" lon="-2.87213">
        <ele>48.2</ele>
        <time>2020-06-06T13:47:04Z</time>
      </trkpt>
      <trkpt lat="47.66163" lon="-2.87224">
        <ele>48.1</ele>
        <time>2020-06-06T13:47:05Z</time>
      </trkpt>
      <trkpt lat="47.66164" lon="-2.87234">
        <ele>47.9</ele>
        <time>2020-06-06T13:47:06Z</time>
      </trkpt>
      <trkpt lat="47.66165" lon="-2.87245">
        <ele>47.8</ele>
        <time>2020-06-06T13:47:07Z</time>
      </trkpt>
      <trkpt lat="47.66167" lon="-2.87255">
        <ele>47.8</ele>
        <time>2020-06-06T13:47:08Z</time>
      </trkpt>
      <trkpt lat="47.66168" lon="-2.87265">
        <ele>47.7</ele>
        <time>2020-06-06T13:47:09Z</time>
      </trkpt>
      <trkpt lat="47.6617" lon="-2.87275">
        <ele>47.7</ele>
        <time>2020-06-06T13:47:10Z</time>
      </trkpt>
      <trkpt lat="47.66171" lon="-2.87286">
        <ele>47.6</ele>
        <time>2020-06-06T13:47:11Z</time>
      </trkpt>
      <trkpt lat="47.66172" lon="-2.87297">
        <ele>47.6</ele>
        <time>2020-06-06T13:47:12Z</time>
      </trkpt>
      <trkpt lat="47.66174" lon="-2.87307">
        <ele>47.5</ele>
        <time>2020-06-06T13:47:13Z</time>
      </trkpt>
      <trkpt lat="47.66176" lon="-2.87317">
        <ele>47.5</ele>
        <time>2020-06-06T13:47:14Z</time>
      </trkpt>
      <trkpt lat="47.66178" lon="-2.87328">
        <ele>47.5</ele>
        <time>2020-06-06T13:47:15Z</time>
      </trkpt>
      <trkpt lat="47.66179" lon="-2.87338">
        <ele>47.5</ele>
        <time>2020-06-06T13:47:16Z</time>
      </trkpt>
      <trkpt lat="47.66181" lon="-2.87348">
        <ele>47.5</ele>
        <time>2020-06-06T13:47:17Z</time>
      </trkpt>
      <trkpt lat="47.66182" lon="-2.87358">
        <ele>47.6</ele>
        <time>2020-06-06T13:47:18Z</time>
      </trkpt>
      <trkpt lat="47.66183" lon="-2.87368">
        <ele>47.6</ele>
        <time>2020-06-06T13:47:19Z</time>
      </trkpt>
      <trkpt lat="47.66185" lon="-2.87377">
        <ele>47.7</ele>
        <time>2020-06-06T13:47:20Z</time>
      </trkpt>
      <trkpt lat="47.66186" lon="-2.87387">
        <ele>47.7</ele>
        <time>2020-06-06T13:47:21Z</time>
      </trkpt>
      <trkpt lat="47.66187" lon="-2.87396">
        <ele>47.7</ele>
        <time>2020-06-06T13:47:22Z</time>
      </trkpt>
      <trkpt lat="47.66188" lon="-2.87404">
        <ele>47.8</ele>
        <time>2020-06-06T13:47:23Z</time>
      </trkpt>
      <trkpt lat="47.6619" lon="-2.87413">
        <ele>47.8</ele>
        <time>2020-06-06T13:47:24Z</time>
      </trkpt>
      <trkpt lat="47.66191" lon="-2.87422">
        <ele>47.8</ele>
        <time>2020-06-06T13:47:25Z</time>
      </trkpt>
      <trkpt lat="47.66192" lon="-2.87431">
        <ele>47.9</ele>
        <time>2020-06-06T13:47:26Z</time>
      </trkpt>
      <trkpt lat="47.66193" lon="-2.8744">
        <ele>47.9</ele>
        <time>2020-06-06T13:47:27Z</time>
      </trkpt>
      <trkpt lat="47.66193" lon="-2.8745">
        <ele>48</ele>
        <time>2020-06-06T13:47:28Z</time>
      </trkpt>
      <trkpt lat="47.66194" lon="-2.8746">
        <ele>48</ele>
        <time>2020-06-06T13:47:29Z</time>
      </trkpt>
      <trkpt lat="47.66196" lon="-2.8747">
        <ele>48.1</ele>
        <time>2020-06-06T13:47:30Z</time>
      </trkpt>
      <trkpt lat="47.66197" lon="-2.87479">
        <ele>48.1</ele>
        <time>2020-06-06T13:47:31Z</time>
      </trkpt>
      <trkpt lat="47.66197" lon="-2.87489">
        <ele>48.2</ele>
        <time>2020-06-06T13:47:32Z</time>
      </trkpt>
      <trkpt lat="47.66199" lon="-2.87498">
        <ele>48.3</ele>
        <time>2020-06-06T13:47:33Z</time>
      </trkpt>
      <trkpt lat="47.662" lon="-2.87508">
        <ele>48.3</ele>
        <time>2020-06-06T13:47:34Z</time>
      </trkpt>
      <trkpt lat="47.66202" lon="-2.87518">
        <ele>48.3</ele>
        <time>2020-06-06T13:47:35Z</time>
      </trkpt>
      <trkpt lat="47.66203" lon="-2.87527">
        <ele>48.3</ele>
        <time>2020-06-06T13:47:36Z</time>
      </trkpt>
      <trkpt lat="47.66205" lon="-2.87537">
        <ele>48.4</ele>
        <time>2020-06-06T13:47:37Z</time>
      </trkpt>
      <trkpt lat="47.66206" lon="-2.87546">
        <ele>48.4</ele>
        <time>2020-06-06T13:47:38Z</time>
      </trkpt>
      <trkpt lat="47.66207" lon="-2.87555">
        <ele>48.4</ele>
        <time>2020-06-06T13:47:39Z</time>
      </trkpt>
      <trkpt lat="47.66208" lon="-2.87563">
        <ele>48.5</ele>
        <time>2020-06-06T13:47:40Z</time>
      </trkpt>
      <trkpt lat="47.6621" lon="-2.87572">
        <ele>48.5</ele>
        <time>2020-06-06T13:47:41Z</time>
      </trkpt>
      <trkpt lat="47.66211" lon="-2.87581">
        <ele>48.5</ele>
        <time>2020-06-06T13:47:42Z</time>
      </trkpt>
      <trkpt lat="47.66212" lon="-2.8759">
        <ele>48.6</ele>
        <time>2020-06-06T13:47:43Z</time>
      </trkpt>
      <trkpt lat="47.66214" lon="-2.87598">
        <ele>48.6</ele>
        <time>2020-06-06T13:47:44Z</time>
      </trkpt>
      <trkpt lat="47.66215" lon="-2.87607">
        <ele>48.6</ele>
        <time>2020-06-06T13:47:45Z</time>
      </trkpt>
      <trkpt lat="47.66216" lon="-2.87616">
        <ele>48.6</ele>
        <time>2020-06-06T13:47:46Z</time>
      </trkpt>
      <trkpt lat="47.66217" lon="-2.87624">
        <ele>48.7</ele>
        <time>2020-06-06T13:47:47Z</time>
      </trkpt>
      <trkpt lat="47.66218" lon="-2.87632">
        <ele>48.7</ele>
        <time>2020-06-06T13:47:48Z</time>
      </trkpt>
      <trkpt lat="47.6622" lon="-2.8764">
        <ele>48.7</ele>
        <time>2020-06-06T13:47:49Z</time>
      </trkpt>
      <trkpt lat="47.66221" lon="-2.87648">
        <ele>48.7</ele>
        <time>2020-06-06T13:47:50Z</time>
      </trkpt>
      <trkpt lat="47.66222" lon="-2.87656">
        <ele>48.7</ele>
        <time>2020-06-06T13:47:51Z</time>
      </trkpt>
      <trkpt lat="47.66223" lon="-2.87663">
        <ele>48.7</ele>
        <time>2020-06-06T13:47:52Z</time>
      </trkpt>
      <trkpt lat="47.66223" lon="-2.87671">
        <ele>48.8</ele>
        <time>2020-06-06T13:47:53Z</time>
      </trkpt>
      <trkpt lat="47.66223" lon="-2.87677">
        <ele>48.8</ele>
        <time>2020-06-06T13:47:54Z</time>
      </trkpt>
      <trkpt lat="47.66225" lon="-2.87684">
        <ele>48.8</ele>
        <time>2020-06-06T13:47:55Z</time>
      </trkpt>
      <trkpt lat="47.66226" lon="-2.87692">
        <ele>48.9</ele>
        <time>2020-06-06T13:47:56Z</time>
      </trkpt>
      <trkpt lat="47.66227" lon="-2.87698">
        <ele>48.9</ele>
        <time>2020-06-06T13:47:57Z</time>
      </trkpt>
      <trkpt lat="47.66227" lon="-2.87704">
        <ele>48.9</ele>
        <time>2020-06-06T13:47:58Z</time>
      </trkpt>
      <trkpt lat="47.66228" lon="-2.8771">
        <ele>48.9</ele>
        <time>2020-06-06T13:47:59Z</time>
      </trkpt>
      <trkpt lat="47.6623" lon="-2.87718">
        <ele>48.9</ele>
        <time>2020-06-06T13:48:00Z</time>
      </trkpt>
      <trkpt lat="47.6623" lon="-2.87724">
        <ele>49</ele>
        <time>2020-06-06T13:48:01Z</time>
      </trkpt>
      <trkpt lat="47.66232" lon="-2.87731">
        <ele>49</ele>
        <time>2020-06-06T13:48:02Z</time>
      </trkpt>
      <trkpt lat="47.66232" lon="-2.87737">
        <ele>49</ele>
        <time>2020-06-06T13:48:03Z</time>
      </trkpt>
      <trkpt lat="47.66234" lon="-2.87744">
        <ele>49.1</ele>
        <time>2020-06-06T13:48:04Z</time>
      </trkpt>
      <trkpt lat="47.66235" lon="-2.87752">
        <ele>49.1</ele>
        <time>2020-06-06T13:48:05Z</time>
      </trkpt>
      <trkpt lat="47.66236" lon="-2.87759">
        <ele>49.1</ele>
        <time>2020-06-06T13:48:06Z</time>
      </trkpt>
      <trkpt lat="47.66237" lon="-2.87766">
        <ele>49.1</ele>
        <time>2020-06-06T13:48:07Z</time>
      </trkpt>
      <trkpt lat="47.66237" lon="-2.87774">
        <ele>49.2</ele>
        <time>2020-06-06T13:48:08Z</time>
      </trkpt>
      <trkpt lat="47.66238" lon="-2.87781">
        <ele>49.2</ele>
        <time>2020-06-06T13:48:09Z</time>
      </trkpt>
      <trkpt lat="47.66239" lon="-2.87789">
        <ele>49.2</ele>
        <time>2020-06-06T13:48:10Z</time>
      </trkpt>
      <trkpt lat="47.6624" lon="-2.87798">
        <ele>49.2</ele>
        <time>2020-06-06T13:48:11Z</time>
      </trkpt>
      <trkpt lat="47.66242" lon="-2.87806">
        <ele>49.2</ele>
        <time>2020-06-06T13:48:12Z</time>
      </trkpt>
      <trkpt lat="47.66243" lon="-2.87813">
        <ele>49.2</ele>
        <time>2020-06-06T13:48:13Z</time>
      </trkpt>
      <trkpt lat="47.66244" lon="-2.87822">
        <ele>49.2</ele>
        <time>2020-06-06T13:48:14Z</time>
      </trkpt>
      <trkpt lat="47.66245" lon="-2.8783">
        <ele>49.3</ele>
        <time>2020-06-06T13:48:15Z</time>
      </trkpt>
      <trkpt lat="47.66246" lon="-2.87838">
        <ele>49.3</ele>
        <time>2020-06-06T13:48:16Z</time>
      </trkpt>
      <trkpt lat="47.66247" lon="-2.87846">
        <ele>49.3</ele>
        <time>2020-06-06T13:48:17Z</time>
      </trkpt>
      <trkpt lat="47.66247" lon="-2.87853">
        <ele>49.4</ele>
        <time>2020-06-06T13:48:18Z</time>
      </trkpt>
      <trkpt lat="47.66248" lon="-2.8786">
        <ele>49.4</ele>
        <time>2020-06-06T13:48:19Z</time>
      </trkpt>
      <trkpt lat="47.66248" lon="-2.87867">
        <ele>49.4</ele>
        <time>2020-06-06T13:48:20Z</time>
      </trkpt>
      <trkpt lat="47.6625" lon="-2.87874">
        <ele>49.5</ele>
        <time>2020-06-06T13:48:21Z</time>
      </trkpt>
      <trkpt lat="47.66251" lon="-2.87881">
        <ele>49.5</ele>
        <time>2020-06-06T13:48:22Z</time>
      </trkpt>
      <trkpt lat="47.66252" lon="-2.87888">
        <ele>49.5</ele>
        <time>2020-06-06T13:48:23Z</time>
      </trkpt>
      <trkpt lat="47.66253" lon="-2.87894">
        <ele>49.6</ele>
        <time>2020-06-06T13:48:24Z</time>
      </trkpt>
      <trkpt lat="47.66254" lon="-2.87903">
        <ele>49.6</ele>
        <time>2020-06-06T13:48:25Z</time>
      </trkpt>
      <trkpt lat="47.66254" lon="-2.87911">
        <ele>49.7</ele>
        <time>2020-06-06T13:48:26Z</time>
      </trkpt>
      <trkpt lat="47.66255" lon="-2.87919">
        <ele>49.7</ele>
        <time>2020-06-06T13:48:27Z</time>
      </trkpt>
      <trkpt lat="47.66256" lon="-2.87926">
        <ele>49.7</ele>
        <time>2020-06-06T13:48:28Z</time>
      </trkpt>
      <trkpt lat="47.66258" lon="-2.87935">
        <ele>49.8</ele>
        <time>2020-06-06T13:48:29Z</time>
      </trkpt>
      <trkpt lat="47.66258" lon="-2.87943">
        <ele>49.8</ele>
        <time>2020-06-06T13:48:30Z</time>
      </trkpt>
      <trkpt lat="47.66258" lon="-2.8795">
        <ele>49.9</ele>
        <time>2020-06-06T13:48:31Z</time>
      </trkpt>
      <trkpt lat="47.66259" lon="-2.87957">
        <ele>49.9</ele>
        <time>2020-06-06T13:48:32Z</time>
      </trkpt>
      <trkpt lat="47.6626" lon="-2.87964">
        <ele>49.9</ele>
        <time>2020-06-06T13:48:33Z</time>
      </trkpt>
      <trkpt lat="47.66261" lon="-2.87971">
        <ele>50</ele>
        <time>2020-06-06T13:48:34Z</time>
      </trkpt>
      <trkpt lat="47.66261" lon="-2.87978">
        <ele>50</ele>
        <time>2020-06-06T13:48:35Z</time>
      </trkpt>
      <trkpt lat="47.66262" lon="-2.87985">
        <ele>50</ele>
        <time>2020-06-06T13:48:36Z</time>
      </trkpt>
      <trkpt lat="47.66263" lon="-2.87992">
        <ele>50</ele>
        <time>2020-06-06T13:48:37Z</time>
      </trkpt>
      <trkpt lat="47.66264" lon="-2.88001">
        <ele>50</ele>
        <time>2020-06-06T13:48:38Z</time>
      </trkpt>
      <trkpt lat="47.66265" lon="-2.8801">
        <ele>50.1</ele>
        <time>2020-06-06T13:48:39Z</time>
      </trkpt>
      <trkpt lat="47.66265" lon="-2.88017">
        <ele>50.1</ele>
        <time>2020-06-06T13:48:40Z</time>
      </trkpt>
      <trkpt lat="47.66266" lon="-2.88024">
        <ele>50.1</ele>
        <time>2020-06-06T13:48:41Z</time>
      </trkpt>
      <trkpt lat="47.66267" lon="-2.88032">
        <ele>50.1</ele>
        <time>2020-06-06T13:48:42Z</time>
      </trkpt>
      <trkpt lat="47.66268" lon="-2.8804">
        <ele>50.2</ele>
        <time>2020-06-06T13:48:43Z</time>
      </trkpt>
      <trkpt lat="47.66268" lon="-2.88047">
        <ele>50.2</ele>
        <time>2020-06-06T13:48:44Z</time>
      </trkpt>
      <trkpt lat="47.66269" lon="-2.88054">
        <ele>50.3</ele>
        <time>2020-06-06T13:48:45Z</time>
      </trkpt>
      <trkpt lat="47.6627" lon="-2.88061">
        <ele>50.3</ele>
        <time>2020-06-06T13:48:46Z</time>
      </trkpt>
      <trkpt lat="47.66271" lon="-2.88068">
        <ele>50.4</ele>
        <time>2020-06-06T13:48:47Z</time>
      </trkpt>
      <trkpt lat="47.66273" lon="-2.88076">
        <ele>50.4</ele>
        <time>2020-06-06T13:48:48Z</time>
      </trkpt>
      <trkpt lat="47.66274" lon="-2.88084">
        <ele>50.4</ele>
        <time>2020-06-06T13:48:49Z</time>
      </trkpt>
      <trkpt lat="47.66275" lon="-2.88091">
        <ele>50.5</ele>
        <time>2020-06-06T13:48:50Z</time>
      </trkpt>
      <trkpt lat="47.66277" lon="-2.881">
        <ele>50.6</ele>
        <time>2020-06-06T13:48:51Z</time>
      </trkpt>
      <trkpt lat="47.66278" lon="-2.88107">
        <ele>50.6</ele>
        <time>2020-06-06T13:48:52Z</time>
      </trkpt>
      <trkpt lat="47.66279" lon="-2.88115">
        <ele>50.6</ele>
        <time>2020-06-06T13:48:53Z</time>
      </trkpt>
      <trkpt lat="47.6628" lon="-2.88124">
        <ele>50.7</ele>
        <time>2020-06-06T13:48:54Z</time>
      </trkpt>
      <trkpt lat="47.66282" lon="-2.88133">
        <ele>50.7</ele>
        <time>2020-06-06T13:48:55Z</time>
      </trkpt>
      <trkpt lat="47.66283" lon="-2.88142">
        <ele>50.7</ele>
        <time>2020-06-06T13:48:56Z</time>
      </trkpt>
      <trkpt lat="47.66285" lon="-2.8815">
        <ele>50.7</ele>
        <time>2020-06-06T13:48:57Z</time>
      </trkpt>
      <trkpt lat="47.66286" lon="-2.88158">
        <ele>50.8</ele>
        <time>2020-06-06T13:48:58Z</time>
      </trkpt>
      <trkpt lat="47.66288" lon="-2.88165">
        <ele>50.8</ele>
        <time>2020-06-06T13:48:59Z</time>
      </trkpt>
      <trkpt lat="47.6629" lon="-2.88173">
        <ele>50.8</ele>
        <time>2020-06-06T13:49:00Z</time>
      </trkpt>
      <trkpt lat="47.66291" lon="-2.88181">
        <ele>50.8</ele>
        <time>2020-06-06T13:49:01Z</time>
      </trkpt>
      <trkpt lat="47.66292" lon="-2.8819">
        <ele>50.9</ele>
        <time>2020-06-06T13:49:02Z</time>
      </trkpt>
      <trkpt lat="47.66293" lon="-2.88197">
        <ele>50.9</ele>
        <time>2020-06-06T13:49:03Z</time>
      </trkpt>
      <trkpt lat="47.66295" lon="-2.88206">
        <ele>51</ele>
        <time>2020-06-06T13:49:04Z</time>
      </trkpt>
      <trkpt lat="47.66296" lon="-2.88214">
        <ele>51.1</ele>
        <time>2020-06-06T13:49:05Z</time>
      </trkpt>
      <trkpt lat="47.66298" lon="-2.88221">
        <ele>51.1</ele>
        <time>2020-06-06T13:49:06Z</time>
      </trkpt>
      <trkpt lat="47.66298" lon="-2.88228">
        <ele>51.1</ele>
        <time>2020-06-06T13:49:07Z</time>
      </trkpt>
      <trkpt lat="47.66299" lon="-2.88235">
        <ele>51.1</ele>
        <time>2020-06-06T13:49:08Z</time>
      </trkpt>
      <trkpt lat="47.663" lon="-2.8824">
        <ele>51.1</ele>
        <time>2020-06-06T13:49:09Z</time>
      </trkpt>
      <trkpt lat="47.66301" lon="-2.88247">
        <ele>51.1</ele>
        <time>2020-06-06T13:49:10Z</time>
      </trkpt>
      <trkpt lat="47.66302" lon="-2.88254">
        <ele>51.1</ele>
        <time>2020-06-06T13:49:11Z</time>
      </trkpt>
      <trkpt lat="47.66304" lon="-2.88263">
        <ele>51.1</ele>
        <time>2020-06-06T13:49:12Z</time>
      </trkpt>
      <trkpt lat="47.66305" lon="-2.88271">
        <ele>51.1</ele>
        <time>2020-06-06T13:49:13Z</time>
      </trkpt>
      <trkpt lat="47.66306" lon="-2.88278">
        <ele>51.1</ele>
        <time>2020-06-06T13:49:14Z</time>
      </trkpt>
      <trkpt lat="47.66307" lon="-2.88286">
        <ele>51.1</ele>
        <time>2020-06-06T13:49:15Z</time>
      </trkpt>
      <trkpt lat="47.66308" lon="-2.88295">
        <ele>51.1</ele>
        <time>2020-06-06T13:49:16Z</time>
      </trkpt>
      <trkpt lat="47.66309" lon="-2.88302">
        <ele>51.1</ele>
        <time>2020-06-06T13:49:17Z</time>
      </trkpt>
      <trkpt lat="47.66309" lon="-2.88309">
        <ele>51.1</ele>
        <time>2020-06-06T13:49:18Z</time>
      </trkpt>
      <trkpt lat="47.6631" lon="-2.88316">
        <ele>51.1</ele>
        <time>2020-06-06T13:49:19Z</time>
      </trkpt>
      <trkpt lat="47.66311" lon="-2.88324">
        <ele>51.1</ele>
        <time>2020-06-06T13:49:20Z</time>
      </trkpt>
      <trkpt lat="47.66312" lon="-2.88332">
        <ele>51.1</ele>
        <time>2020-06-06T13:49:21Z</time>
      </trkpt>
      <trkpt lat="47.66313" lon="-2.8834">
        <ele>51.2</ele>
        <time>2020-06-06T13:49:22Z</time>
      </trkpt>
      <trkpt lat="47.66314" lon="-2.88347">
        <ele>51.2</ele>
        <time>2020-06-06T13:49:23Z</time>
      </trkpt>
      <trkpt lat="47.66315" lon="-2.88355">
        <ele>51.2</ele>
        <time>2020-06-06T13:49:24Z</time>
      </trkpt>
      <trkpt lat="47.66316" lon="-2.88362">
        <ele>51.2</ele>
        <time>2020-06-06T13:49:25Z</time>
      </trkpt>
      <trkpt lat="47.66318" lon="-2.8837">
        <ele>51.3</ele>
        <time>2020-06-06T13:49:26Z</time>
      </trkpt>
      <trkpt lat="47.66319" lon="-2.88379">
        <ele>51.3</ele>
        <time>2020-06-06T13:49:27Z</time>
      </trkpt>
      <trkpt lat="47.6632" lon="-2.88388">
        <ele>51.4</ele>
        <time>2020-06-06T13:49:28Z</time>
      </trkpt>
      <trkpt lat="47.66321" lon="-2.88397">
        <ele>51.4</ele>
        <time>2020-06-06T13:49:29Z</time>
      </trkpt>
      <trkpt lat="47.66322" lon="-2.88407">
        <ele>51.4</ele>
        <time>2020-06-06T13:49:30Z</time>
      </trkpt>
      <trkpt lat="47.66323" lon="-2.88416">
        <ele>51.4</ele>
        <time>2020-06-06T13:49:31Z</time>
      </trkpt>
      <trkpt lat="47.66324" lon="-2.88424">
        <ele>51.4</ele>
        <time>2020-06-06T13:49:32Z</time>
      </trkpt>
      <trkpt lat="47.66325" lon="-2.88433">
        <ele>51.4</ele>
        <time>2020-06-06T13:49:33Z</time>
      </trkpt>
      <trkpt lat="47.66326" lon="-2.8844">
        <ele>51.4</ele>
        <time>2020-06-06T13:49:34Z</time>
      </trkpt>
      <trkpt lat="47.66328" lon="-2.88448">
        <ele>51.4</ele>
        <time>2020-06-06T13:49:35Z</time>
      </trkpt>
      <trkpt lat="47.6633" lon="-2.88454">
        <ele>51.4</ele>
        <time>2020-06-06T13:49:36Z</time>
      </trkpt>
      <trkpt lat="47.6633" lon="-2.88462">
        <ele>51.5</ele>
        <time>2020-06-06T13:49:37Z</time>
      </trkpt>
      <trkpt lat="47.66331" lon="-2.88468">
        <ele>51.5</ele>
        <time>2020-06-06T13:49:38Z</time>
      </trkpt>
      <trkpt lat="47.66331" lon="-2.88476">
        <ele>51.5</ele>
        <time>2020-06-06T13:49:39Z</time>
      </trkpt>
      <trkpt lat="47.66332" lon="-2.88483">
        <ele>51.5</ele>
        <time>2020-06-06T13:49:40Z</time>
      </trkpt>
      <trkpt lat="47.66332" lon="-2.88491">
        <ele>51.6</ele>
        <time>2020-06-06T13:49:41Z</time>
      </trkpt>
      <trkpt lat="47.66334" lon="-2.88499">
        <ele>51.6</ele>
        <time>2020-06-06T13:49:42Z</time>
      </trkpt>
      <trkpt lat="47.66335" lon="-2.88507">
        <ele>51.6</ele>
        <time>2020-06-06T13:49:43Z</time>
      </trkpt>
      <trkpt lat="47.66335" lon="-2.88514">
        <ele>51.6</ele>
        <time>2020-06-06T13:49:44Z</time>
      </trkpt>
      <trkpt lat="47.66336" lon="-2.88521">
        <ele>51.6</ele>
        <time>2020-06-06T13:49:45Z</time>
      </trkpt>
      <trkpt lat="47.66338" lon="-2.8853">
        <ele>51.6</ele>
        <time>2020-06-06T13:49:46Z</time>
      </trkpt>
      <trkpt lat="47.66339" lon="-2.8854">
        <ele>51.6</ele>
        <time>2020-06-06T13:49:47Z</time>
      </trkpt>
      <trkpt lat="47.6634" lon="-2.88549">
        <ele>51.6</ele>
        <time>2020-06-06T13:49:48Z</time>
      </trkpt>
      <trkpt lat="47.6634" lon="-2.88559">
        <ele>51.6</ele>
        <time>2020-06-06T13:49:49Z</time>
      </trkpt>
      <trkpt lat="47.66341" lon="-2.88568">
        <ele>51.6</ele>
        <time>2020-06-06T13:49:50Z</time>
      </trkpt>
      <trkpt lat="47.66342" lon="-2.88576">
        <ele>51.6</ele>
        <time>2020-06-06T13:49:51Z</time>
      </trkpt>
      <trkpt lat="47.66343" lon="-2.88584">
        <ele>51.6</ele>
        <time>2020-06-06T13:49:52Z</time>
      </trkpt>
      <trkpt lat="47.66344" lon="-2.88591">
        <ele>51.6</ele>
        <time>2020-06-06T13:49:53Z</time>
      </trkpt>
      <trkpt lat="47.66345" lon="-2.88598">
        <ele>51.5</ele>
        <time>2020-06-06T13:49:54Z</time>
      </trkpt>
      <trkpt lat="47.66345" lon="-2.88607">
        <ele>51.5</ele>
        <time>2020-06-06T13:49:55Z</time>
      </trkpt>
      <trkpt lat="47.66347" lon="-2.88617">
        <ele>51.5</ele>
        <time>2020-06-06T13:49:56Z</time>
      </trkpt>
      <trkpt lat="47.66348" lon="-2.88624">
        <ele>51.5</ele>
        <time>2020-06-06T13:49:57Z</time>
      </trkpt>
      <trkpt lat="47.66349" lon="-2.88633">
        <ele>51.5</ele>
        <time>2020-06-06T13:49:58Z</time>
      </trkpt>
      <trkpt lat="47.6635" lon="-2.8864">
        <ele>51.5</ele>
        <time>2020-06-06T13:49:59Z</time>
      </trkpt>
      <trkpt lat="47.66351" lon="-2.88649">
        <ele>51.5</ele>
        <time>2020-06-06T13:50:00Z</time>
      </trkpt>
      <trkpt lat="47.66353" lon="-2.88657">
        <ele>51.5</ele>
        <time>2020-06-06T13:50:01Z</time>
      </trkpt>
      <trkpt lat="47.66354" lon="-2.88665">
        <ele>51.5</ele>
        <time>2020-06-06T13:50:02Z</time>
      </trkpt>
      <trkpt lat="47.66355" lon="-2.88673">
        <ele>51.5</ele>
        <time>2020-06-06T13:50:03Z</time>
      </trkpt>
      <trkpt lat="47.66356" lon="-2.88679">
        <ele>51.5</ele>
        <time>2020-06-06T13:50:04Z</time>
      </trkpt>
      <trkpt lat="47.66357" lon="-2.88687">
        <ele>51.5</ele>
        <time>2020-06-06T13:50:05Z</time>
      </trkpt>
      <trkpt lat="47.66357" lon="-2.88696">
        <ele>51.5</ele>
        <time>2020-06-06T13:50:06Z</time>
      </trkpt>
      <trkpt lat="47.66359" lon="-2.88704">
        <ele>51.5</ele>
        <time>2020-06-06T13:50:07Z</time>
      </trkpt>
      <trkpt lat="47.66361" lon="-2.88713">
        <ele>51.4</ele>
        <time>2020-06-06T13:50:08Z</time>
      </trkpt>
      <trkpt lat="47.66363" lon="-2.88724">
        <ele>51.4</ele>
        <time>2020-06-06T13:50:09Z</time>
      </trkpt>
      <trkpt lat="47.66365" lon="-2.88735">
        <ele>51.4</ele>
        <time>2020-06-06T13:50:10Z</time>
      </trkpt>
      <trkpt lat="47.66367" lon="-2.88743">
        <ele>51.3</ele>
        <time>2020-06-06T13:50:11Z</time>
      </trkpt>
      <trkpt lat="47.66368" lon="-2.88752">
        <ele>51.3</ele>
        <time>2020-06-06T13:50:12Z</time>
      </trkpt>
      <trkpt lat="47.66369" lon="-2.88761">
        <ele>51.2</ele>
        <time>2020-06-06T13:50:13Z</time>
      </trkpt>
      <trkpt lat="47.6637" lon="-2.88768">
        <ele>51.2</ele>
        <time>2020-06-06T13:50:14Z</time>
      </trkpt>
      <trkpt lat="47.66371" lon="-2.88777">
        <ele>51.2</ele>
        <time>2020-06-06T13:50:15Z</time>
      </trkpt>
      <trkpt lat="47.66373" lon="-2.88786">
        <ele>51.2</ele>
        <time>2020-06-06T13:50:16Z</time>
      </trkpt>
      <trkpt lat="47.66375" lon="-2.88796">
        <ele>51.1</ele>
        <time>2020-06-06T13:50:17Z</time>
      </trkpt>
      <trkpt lat="47.66376" lon="-2.88806">
        <ele>51.1</ele>
        <time>2020-06-06T13:50:18Z</time>
      </trkpt>
      <trkpt lat="47.66378" lon="-2.88816">
        <ele>51.1</ele>
        <time>2020-06-06T13:50:19Z</time>
      </trkpt>
      <trkpt lat="47.66378" lon="-2.88825">
        <ele>51.1</ele>
        <time>2020-06-06T13:50:20Z</time>
      </trkpt>
      <trkpt lat="47.66379" lon="-2.88836">
        <ele>51</ele>
        <time>2020-06-06T13:50:21Z</time>
      </trkpt>
      <trkpt lat="47.66379" lon="-2.88846">
        <ele>51</ele>
        <time>2020-06-06T13:50:22Z</time>
      </trkpt>
      <trkpt lat="47.66381" lon="-2.88855">
        <ele>50.9</ele>
        <time>2020-06-06T13:50:23Z</time>
      </trkpt>
      <trkpt lat="47.66382" lon="-2.88863">
        <ele>50.9</ele>
        <time>2020-06-06T13:50:24Z</time>
      </trkpt>
      <trkpt lat="47.66383" lon="-2.88872">
        <ele>50.8</ele>
        <time>2020-06-06T13:50:25Z</time>
      </trkpt>
      <trkpt lat="47.66385" lon="-2.88881">
        <ele>50.8</ele>
        <time>2020-06-06T13:50:26Z</time>
      </trkpt>
      <trkpt lat="47.66386" lon="-2.8889">
        <ele>50.7</ele>
        <time>2020-06-06T13:50:27Z</time>
      </trkpt>
      <trkpt lat="47.66387" lon="-2.889">
        <ele>50.7</ele>
        <time>2020-06-06T13:50:28Z</time>
      </trkpt>
      <trkpt lat="47.66388" lon="-2.8891">
        <ele>50.7</ele>
        <time>2020-06-06T13:50:29Z</time>
      </trkpt>
      <trkpt lat="47.66389" lon="-2.88919">
        <ele>50.6</ele>
        <time>2020-06-06T13:50:30Z</time>
      </trkpt>
      <trkpt lat="47.6639" lon="-2.88928">
        <ele>50.6</ele>
        <time>2020-06-06T13:50:31Z</time>
      </trkpt>
      <trkpt lat="47.66391" lon="-2.88937">
        <ele>50.6</ele>
        <time>2020-06-06T13:50:32Z</time>
      </trkpt>
      <trkpt lat="47.66393" lon="-2.88947">
        <ele>50.5</ele>
        <time>2020-06-06T13:50:33Z</time>
      </trkpt>
      <trkpt lat="47.66394" lon="-2.88956">
        <ele>50.5</ele>
        <time>2020-06-06T13:50:34Z</time>
      </trkpt>
      <trkpt lat="47.66395" lon="-2.88964">
        <ele>50.5</ele>
        <time>2020-06-06T13:50:35Z</time>
      </trkpt>
      <trkpt lat="47.66396" lon="-2.88972">
        <ele>50.5</ele>
        <time>2020-06-06T13:50:36Z</time>
      </trkpt>
      <trkpt lat="47.66397" lon="-2.88981">
        <ele>50.4</ele>
        <time>2020-06-06T13:50:37Z</time>
      </trkpt>
      <trkpt lat="47.66398" lon="-2.88991">
        <ele>50.4</ele>
        <time>2020-06-06T13:50:38Z</time>
      </trkpt>
      <trkpt lat="47.664" lon="-2.89001">
        <ele>50.3</ele>
        <time>2020-06-06T13:50:39Z</time>
      </trkpt>
      <trkpt lat="47.66402" lon="-2.89011">
        <ele>50.2</ele>
        <time>2020-06-06T13:50:40Z</time>
      </trkpt>
      <trkpt lat="47.66402" lon="-2.8902">
        <ele>50.2</ele>
        <time>2020-06-06T13:50:41Z</time>
      </trkpt>
      <trkpt lat="47.66404" lon="-2.8903">
        <ele>50.2</ele>
        <time>2020-06-06T13:50:42Z</time>
      </trkpt>
      <trkpt lat="47.66406" lon="-2.89041">
        <ele>50.1</ele>
        <time>2020-06-06T13:50:43Z</time>
      </trkpt>
      <trkpt lat="47.66407" lon="-2.89049">
        <ele>50.1</ele>
        <time>2020-06-06T13:50:44Z</time>
      </trkpt>
      <trkpt lat="47.66408" lon="-2.89058">
        <ele>50.1</ele>
        <time>2020-06-06T13:50:45Z</time>
      </trkpt>
      <trkpt lat="47.6641" lon="-2.89067">
        <ele>50</ele>
        <time>2020-06-06T13:50:46Z</time>
      </trkpt>
      <trkpt lat="47.6641" lon="-2.89076">
        <ele>49.9</ele>
        <time>2020-06-06T13:50:47Z</time>
      </trkpt>
      <trkpt lat="47.66411" lon="-2.89086">
        <ele>49.8</ele>
        <time>2020-06-06T13:50:48Z</time>
      </trkpt>
      <trkpt lat="47.66412" lon="-2.89095">
        <ele>49.7</ele>
        <time>2020-06-06T13:50:49Z</time>
      </trkpt>
      <trkpt lat="47.66413" lon="-2.89104">
        <ele>49.7</ele>
        <time>2020-06-06T13:50:50Z</time>
      </trkpt>
      <trkpt lat="47.66414" lon="-2.89115">
        <ele>49.6</ele>
        <time>2020-06-06T13:50:51Z</time>
      </trkpt>
      <trkpt lat="47.66415" lon="-2.89125">
        <ele>49.6</ele>
        <time>2020-06-06T13:50:52Z</time>
      </trkpt>
      <trkpt lat="47.66417" lon="-2.89134">
        <ele>49.5</ele>
        <time>2020-06-06T13:50:53Z</time>
      </trkpt>
      <trkpt lat="47.66418" lon="-2.89143">
        <ele>49.5</ele>
        <time>2020-06-06T13:50:54Z</time>
      </trkpt>
      <trkpt lat="47.6642" lon="-2.89152">
        <ele>49.4</ele>
        <time>2020-06-06T13:50:55Z</time>
      </trkpt>
      <trkpt lat="47.66422" lon="-2.8916">
        <ele>49.3</ele>
        <time>2020-06-06T13:50:56Z</time>
      </trkpt>
      <trkpt lat="47.66423" lon="-2.89169">
        <ele>49.3</ele>
        <time>2020-06-06T13:50:57Z</time>
      </trkpt>
      <trkpt lat="47.66425" lon="-2.89178">
        <ele>49.2</ele>
        <time>2020-06-06T13:50:58Z</time>
      </trkpt>
      <trkpt lat="47.66427" lon="-2.89186">
        <ele>49.1</ele>
        <time>2020-06-06T13:50:59Z</time>
      </trkpt>
      <trkpt lat="47.66429" lon="-2.89194">
        <ele>49.1</ele>
        <time>2020-06-06T13:51:00Z</time>
      </trkpt>
      <trkpt lat="47.66431" lon="-2.89202">
        <ele>49</ele>
        <time>2020-06-06T13:51:01Z</time>
      </trkpt>
      <trkpt lat="47.66433" lon="-2.89211">
        <ele>49</ele>
        <time>2020-06-06T13:51:02Z</time>
      </trkpt>
      <trkpt lat="47.66435" lon="-2.89221">
        <ele>48.9</ele>
        <time>2020-06-06T13:51:03Z</time>
      </trkpt>
      <trkpt lat="47.66437" lon="-2.8923">
        <ele>48.8</ele>
        <time>2020-06-06T13:51:04Z</time>
      </trkpt>
      <trkpt lat="47.66439" lon="-2.89238">
        <ele>48.8</ele>
        <time>2020-06-06T13:51:05Z</time>
      </trkpt>
      <trkpt lat="47.66441" lon="-2.89246">
        <ele>48.8</ele>
        <time>2020-06-06T13:51:06Z</time>
      </trkpt>
      <trkpt lat="47.66443" lon="-2.89254">
        <ele>48.7</ele>
        <time>2020-06-06T13:51:07Z</time>
      </trkpt>
      <trkpt lat="47.66446" lon="-2.89264">
        <ele>48.7</ele>
        <time>2020-06-06T13:51:08Z</time>
      </trkpt>
      <trkpt lat="47.66449" lon="-2.89273">
        <ele>48.7</ele>
        <time>2020-06-06T13:51:09Z</time>
      </trkpt>
      <trkpt lat="47.66451" lon="-2.89282">
        <ele>48.7</ele>
        <time>2020-06-06T13:51:10Z</time>
      </trkpt>
      <trkpt lat="47.66454" lon="-2.8929">
        <ele>48.8</ele>
        <time>2020-06-06T13:51:11Z</time>
      </trkpt>
      <trkpt lat="47.66456" lon="-2.893">
        <ele>48.9</ele>
        <time>2020-06-06T13:51:12Z</time>
      </trkpt>
      <trkpt lat="47.66459" lon="-2.8931">
        <ele>49</ele>
        <time>2020-06-06T13:51:13Z</time>
      </trkpt>
      <trkpt lat="47.66462" lon="-2.89319">
        <ele>49.1</ele>
        <time>2020-06-06T13:51:14Z</time>
      </trkpt>
      <trkpt lat="47.66465" lon="-2.89329">
        <ele>49.2</ele>
        <time>2020-06-06T13:51:15Z</time>
      </trkpt>
      <trkpt lat="47.66468" lon="-2.89339">
        <ele>49.3</ele>
        <time>2020-06-06T13:51:16Z</time>
      </trkpt>
      <trkpt lat="47.66471" lon="-2.89349">
        <ele>49.5</ele>
        <time>2020-06-06T13:51:17Z</time>
      </trkpt>
      <trkpt lat="47.66474" lon="-2.89359">
        <ele>49.8</ele>
        <time>2020-06-06T13:51:18Z</time>
      </trkpt>
      <trkpt lat="47.66478" lon="-2.89369">
        <ele>50</ele>
        <time>2020-06-06T13:51:19Z</time>
      </trkpt>
      <trkpt lat="47.66481" lon="-2.89379">
        <ele>50.2</ele>
        <time>2020-06-06T13:51:20Z</time>
      </trkpt>
      <trkpt lat="47.66484" lon="-2.89388">
        <ele>50.4</ele>
        <time>2020-06-06T13:51:21Z</time>
      </trkpt>
      <trkpt lat="47.66487" lon="-2.89397">
        <ele>50.7</ele>
        <time>2020-06-06T13:51:22Z</time>
      </trkpt>
      <trkpt lat="47.6649" lon="-2.89406">
        <ele>50.9</ele>
        <time>2020-06-06T13:51:23Z</time>
      </trkpt>
      <trkpt lat="47.66493" lon="-2.89414">
        <ele>51.2</ele>
        <time>2020-06-06T13:51:24Z</time>
      </trkpt>
      <trkpt lat="47.66496" lon="-2.89422">
        <ele>51.3</ele>
        <time>2020-06-06T13:51:25Z</time>
      </trkpt>
      <trkpt lat="47.66499" lon="-2.8943">
        <ele>51.4</ele>
        <time>2020-06-06T13:51:26Z</time>
      </trkpt>
      <trkpt lat="47.66503" lon="-2.89438">
        <ele>51.6</ele>
        <time>2020-06-06T13:51:27Z</time>
      </trkpt>
      <trkpt lat="47.66505" lon="-2.89446">
        <ele>51.7</ele>
        <time>2020-06-06T13:51:28Z</time>
      </trkpt>
      <trkpt lat="47.66508" lon="-2.89455">
        <ele>51.9</ele>
        <time>2020-06-06T13:51:29Z</time>
      </trkpt>
      <trkpt lat="47.6651" lon="-2.89464">
        <ele>52</ele>
        <time>2020-06-06T13:51:30Z</time>
      </trkpt>
      <trkpt lat="47.66513" lon="-2.89472">
        <ele>52.1</ele>
        <time>2020-06-06T13:51:31Z</time>
      </trkpt>
      <trkpt lat="47.66515" lon="-2.89481">
        <ele>52.3</ele>
        <time>2020-06-06T13:51:32Z</time>
      </trkpt>
      <trkpt lat="47.66518" lon="-2.89489">
        <ele>52.4</ele>
        <time>2020-06-06T13:51:33Z</time>
      </trkpt>
      <trkpt lat="47.66521" lon="-2.89497">
        <ele>52.5</ele>
        <time>2020-06-06T13:51:34Z</time>
      </trkpt>
      <trkpt lat="47.66524" lon="-2.89505">
        <ele>52.6</ele>
        <time>2020-06-06T13:51:35Z</time>
      </trkpt>
      <trkpt lat="47.66527" lon="-2.89512">
        <ele>52.7</ele>
        <time>2020-06-06T13:51:36Z</time>
      </trkpt>
      <trkpt lat="47.6653" lon="-2.89519">
        <ele>52.9</ele>
        <time>2020-06-06T13:51:37Z</time>
      </trkpt>
      <trkpt lat="47.66533" lon="-2.89526">
        <ele>53</ele>
        <time>2020-06-06T13:51:38Z</time>
      </trkpt>
      <trkpt lat="47.66535" lon="-2.89532">
        <ele>53.2</ele>
        <time>2020-06-06T13:51:39Z</time>
      </trkpt>
      <trkpt lat="47.66538" lon="-2.89539">
        <ele>53.3</ele>
        <time>2020-06-06T13:51:40Z</time>
      </trkpt>
      <trkpt lat="47.66541" lon="-2.89545">
        <ele>53.4</ele>
        <time>2020-06-06T13:51:41Z</time>
      </trkpt>
      <trkpt lat="47.66544" lon="-2.89552">
        <ele>53.5</ele>
        <time>2020-06-06T13:51:42Z</time>
      </trkpt>
      <trkpt lat="47.66546" lon="-2.89557">
        <ele>53.6</ele>
        <time>2020-06-06T13:51:43Z</time>
      </trkpt>
      <trkpt lat="47.66548" lon="-2.89562">
        <ele>53.7</ele>
        <time>2020-06-06T13:51:44Z</time>
      </trkpt>
      <trkpt lat="47.66552" lon="-2.89564">
        <ele>53.9</ele>
        <time>2020-06-06T13:51:45Z</time>
      </trkpt>
      <trkpt lat="47.66555" lon="-2.89563">
        <ele>54</ele>
        <time>2020-06-06T13:51:46Z</time>
      </trkpt>
      <trkpt lat="47.66558" lon="-2.89564">
        <ele>54.1</ele>
        <time>2020-06-06T13:51:47Z</time>
      </trkpt>
      <trkpt lat="47.66561" lon="-2.89566">
        <ele>54.2</ele>
        <time>2020-06-06T13:51:48Z</time>
      </trkpt>
      <trkpt lat="47.66564" lon="-2.8957">
        <ele>54.2</ele>
        <time>2020-06-06T13:51:49Z</time>
      </trkpt>
      <trkpt lat="47.66566" lon="-2.89575">
        <ele>54.3</ele>
        <time>2020-06-06T13:51:50Z</time>
      </trkpt>
      <trkpt lat="47.66569" lon="-2.89581">
        <ele>54.3</ele>
        <time>2020-06-06T13:51:51Z</time>
      </trkpt>
      <trkpt lat="47.66571" lon="-2.89586">
        <ele>54.4</ele>
        <time>2020-06-06T13:51:52Z</time>
      </trkpt>
      <trkpt lat="47.66573" lon="-2.89591">
        <ele>54.5</ele>
        <time>2020-06-06T13:51:53Z</time>
      </trkpt>
      <trkpt lat="47.66573" lon="-2.89593">
        <ele>54.5</ele>
        <time>2020-06-06T13:51:54Z</time>
      </trkpt>
      <trkpt lat="47.66573" lon="-2.89599">
        <ele>54.5</ele>
        <time>2020-06-06T13:51:55Z</time>
      </trkpt>
      <trkpt lat="47.66574" lon="-2.89601">
        <ele>54.5</ele>
        <time>2020-06-06T13:51:56Z</time>
      </trkpt>
      <trkpt lat="47.66574" lon="-2.89605">
        <ele>54.6</ele>
        <time>2020-06-06T13:51:57Z</time>
      </trkpt>
      <trkpt lat="47.66574" lon="-2.8961">
        <ele>54.5</ele>
        <time>2020-06-06T13:51:58Z</time>
      </trkpt>
      <trkpt lat="47.66572" lon="-2.89615">
        <ele>54.5</ele>
        <time>2020-06-06T13:51:59Z</time>
      </trkpt>
      <trkpt lat="47.66571" lon="-2.89616">
        <ele>54.5</ele>
        <time>2020-06-06T13:52:00Z</time>
      </trkpt>
      <trkpt lat="47.66569" lon="-2.89619">
        <ele>54.6</ele>
        <time>2020-06-06T13:52:01Z</time>
      </trkpt>
      <trkpt lat="47.66567" lon="-2.89623">
        <ele>54.5</ele>
        <time>2020-06-06T13:52:02Z</time>
      </trkpt>
      <trkpt lat="47.66567" lon="-2.89624">
        <ele>54.5</ele>
        <time>2020-06-06T13:52:03Z</time>
      </trkpt>
      <trkpt lat="47.66568" lon="-2.89629">
        <ele>54.5</ele>
        <time>2020-06-06T13:52:04Z</time>
      </trkpt>
      <trkpt lat="47.66569" lon="-2.89631">
        <ele>54.5</ele>
        <time>2020-06-06T13:52:05Z</time>
      </trkpt>
      <trkpt lat="47.66573" lon="-2.89632">
        <ele>54.5</ele>
        <time>2020-06-06T13:52:06Z</time>
      </trkpt>
      <trkpt lat="47.66577" lon="-2.89634">
        <ele>54.4</ele>
        <time>2020-06-06T13:52:07Z</time>
      </trkpt>
      <trkpt lat="47.66581" lon="-2.89637">
        <ele>54.3</ele>
        <time>2020-06-06T13:52:08Z</time>
      </trkpt>
      <trkpt lat="47.66584" lon="-2.89641">
        <ele>54.3</ele>
        <time>2020-06-06T13:52:09Z</time>
      </trkpt>
      <trkpt lat="47.66588" lon="-2.89644">
        <ele>54.3</ele>
        <time>2020-06-06T13:52:10Z</time>
      </trkpt>
      <trkpt lat="47.66592" lon="-2.89648">
        <ele>54.2</ele>
        <time>2020-06-06T13:52:11Z</time>
      </trkpt>
      <trkpt lat="47.66596" lon="-2.89653">
        <ele>54.1</ele>
        <time>2020-06-06T13:52:12Z</time>
      </trkpt>
      <trkpt lat="47.666" lon="-2.89656">
        <ele>54.1</ele>
        <time>2020-06-06T13:52:13Z</time>
      </trkpt>
      <trkpt lat="47.66605" lon="-2.89659">
        <ele>54.1</ele>
        <time>2020-06-06T13:52:14Z</time>
      </trkpt>
      <trkpt lat="47.66609" lon="-2.89663">
        <ele>54.1</ele>
        <time>2020-06-06T13:52:15Z</time>
      </trkpt>
      <trkpt lat="47.66612" lon="-2.89667">
        <ele>54.1</ele>
        <time>2020-06-06T13:52:16Z</time>
      </trkpt>
      <trkpt lat="47.66615" lon="-2.89671">
        <ele>54.2</ele>
        <time>2020-06-06T13:52:17Z</time>
      </trkpt>
      <trkpt lat="47.66618" lon="-2.89678">
        <ele>54.2</ele>
        <time>2020-06-06T13:52:18Z</time>
      </trkpt>
      <trkpt lat="47.66621" lon="-2.89683">
        <ele>54.2</ele>
        <time>2020-06-06T13:52:19Z</time>
      </trkpt>
      <trkpt lat="47.66623" lon="-2.89687">
        <ele>54.2</ele>
        <time>2020-06-06T13:52:20Z</time>
      </trkpt>
      <trkpt lat="47.66626" lon="-2.89692">
        <ele>54.2</ele>
        <time>2020-06-06T13:52:21Z</time>
      </trkpt>
      <trkpt lat="47.66629" lon="-2.89697">
        <ele>54.1</ele>
        <time>2020-06-06T13:52:22Z</time>
      </trkpt>
      <trkpt lat="47.66631" lon="-2.89702">
        <ele>54.1</ele>
        <time>2020-06-06T13:52:23Z</time>
      </trkpt>
      <trkpt lat="47.66634" lon="-2.89707">
        <ele>54</ele>
        <time>2020-06-06T13:52:24Z</time>
      </trkpt>
      <trkpt lat="47.66636" lon="-2.89711">
        <ele>53.9</ele>
        <time>2020-06-06T13:52:25Z</time>
      </trkpt>
      <trkpt lat="47.66637" lon="-2.89715">
        <ele>53.9</ele>
        <time>2020-06-06T13:52:26Z</time>
      </trkpt>
      <trkpt lat="47.66639" lon="-2.8972">
        <ele>53.8</ele>
        <time>2020-06-06T13:52:27Z</time>
      </trkpt>
      <trkpt lat="47.66641" lon="-2.89725">
        <ele>53.8</ele>
        <time>2020-06-06T13:52:28Z</time>
      </trkpt>
      <trkpt lat="47.66643" lon="-2.8973">
        <ele>53.7</ele>
        <time>2020-06-06T13:52:29Z</time>
      </trkpt>
      <trkpt lat="47.66645" lon="-2.89734">
        <ele>53.7</ele>
        <time>2020-06-06T13:52:30Z</time>
      </trkpt>
      <trkpt lat="47.66647" lon="-2.89737">
        <ele>53.7</ele>
        <time>2020-06-06T13:52:31Z</time>
      </trkpt>
      <trkpt lat="47.66649" lon="-2.89743">
        <ele>53.7</ele>
        <time>2020-06-06T13:52:32Z</time>
      </trkpt>
      <trkpt lat="47.6665" lon="-2.89745">
        <ele>53.7</ele>
        <time>2020-06-06T13:52:33Z</time>
      </trkpt>
      <trkpt lat="47.66653" lon="-2.89749">
        <ele>53.6</ele>
        <time>2020-06-06T13:52:34Z</time>
      </trkpt>
      <trkpt lat="47.66655" lon="-2.89754">
        <ele>53.6</ele>
        <time>2020-06-06T13:52:35Z</time>
      </trkpt>
      <trkpt lat="47.66658" lon="-2.8976">
        <ele>53.6</ele>
        <time>2020-06-06T13:52:36Z</time>
      </trkpt>
      <trkpt lat="47.6666" lon="-2.89766">
        <ele>53.6</ele>
        <time>2020-06-06T13:52:37Z</time>
      </trkpt>
      <trkpt lat="47.66662" lon="-2.89772">
        <ele>53.6</ele>
        <time>2020-06-06T13:52:38Z</time>
      </trkpt>
      <trkpt lat="47.66664" lon="-2.89778">
        <ele>53.6</ele>
        <time>2020-06-06T13:52:39Z</time>
      </trkpt>
      <trkpt lat="47.66668" lon="-2.89786">
        <ele>53.6</ele>
        <time>2020-06-06T13:52:40Z</time>
      </trkpt>
      <trkpt lat="47.6667" lon="-2.89793">
        <ele>53.6</ele>
        <time>2020-06-06T13:52:41Z</time>
      </trkpt>
      <trkpt lat="47.66673" lon="-2.89801">
        <ele>53.6</ele>
        <time>2020-06-06T13:52:42Z</time>
      </trkpt>
      <trkpt lat="47.66674" lon="-2.89809">
        <ele>53.6</ele>
        <time>2020-06-06T13:52:43Z</time>
      </trkpt>
      <trkpt lat="47.66676" lon="-2.89819">
        <ele>53.7</ele>
        <time>2020-06-06T13:52:44Z</time>
      </trkpt>
      <trkpt lat="47.66677" lon="-2.89826">
        <ele>53.7</ele>
        <time>2020-06-06T13:52:45Z</time>
      </trkpt>
      <trkpt lat="47.66678" lon="-2.89832">
        <ele>53.8</ele>
        <time>2020-06-06T13:52:46Z</time>
      </trkpt>
      <trkpt lat="47.66678" lon="-2.89839">
        <ele>53.9</ele>
        <time>2020-06-06T13:52:47Z</time>
      </trkpt>
      <trkpt lat="47.66679" lon="-2.89845">
        <ele>54</ele>
        <time>2020-06-06T13:52:48Z</time>
      </trkpt>
      <trkpt lat="47.6668" lon="-2.8985">
        <ele>54</ele>
        <time>2020-06-06T13:52:49Z</time>
      </trkpt>
      <trkpt lat="47.6668" lon="-2.89852">
        <ele>54.1</ele>
        <time>2020-06-06T13:52:50Z</time>
      </trkpt>
      <trkpt lat="47.66681" lon="-2.89858">
        <ele>54.1</ele>
        <time>2020-06-06T13:52:51Z</time>
      </trkpt>
      <trkpt lat="47.66682" lon="-2.89863">
        <ele>54.2</ele>
        <time>2020-06-06T13:52:52Z</time>
      </trkpt>
      <trkpt lat="47.66682" lon="-2.89868">
        <ele>54.3</ele>
        <time>2020-06-06T13:52:53Z</time>
      </trkpt>
      <trkpt lat="47.66684" lon="-2.89874">
        <ele>54.2</ele>
        <time>2020-06-06T13:52:54Z</time>
      </trkpt>
      <trkpt lat="47.66685" lon="-2.89879">
        <ele>54.1</ele>
        <time>2020-06-06T13:52:55Z</time>
      </trkpt>
      <trkpt lat="47.66686" lon="-2.89884">
        <ele>54</ele>
        <time>2020-06-06T13:52:56Z</time>
      </trkpt>
      <trkpt lat="47.66686" lon="-2.89892">
        <ele>53.8</ele>
        <time>2020-06-06T13:52:57Z</time>
      </trkpt>
      <trkpt lat="47.66687" lon="-2.89898">
        <ele>53.7</ele>
        <time>2020-06-06T13:52:58Z</time>
      </trkpt>
      <trkpt lat="47.66688" lon="-2.89904">
        <ele>53.5</ele>
        <time>2020-06-06T13:52:59Z</time>
      </trkpt>
      <trkpt lat="47.66688" lon="-2.8991">
        <ele>53.4</ele>
        <time>2020-06-06T13:53:00Z</time>
      </trkpt>
      <trkpt lat="47.66689" lon="-2.89917">
        <ele>53.2</ele>
        <time>2020-06-06T13:53:01Z</time>
      </trkpt>
      <trkpt lat="47.6669" lon="-2.89923">
        <ele>53</ele>
        <time>2020-06-06T13:53:02Z</time>
      </trkpt>
      <trkpt lat="47.66691" lon="-2.89931">
        <ele>52.8</ele>
        <time>2020-06-06T13:53:03Z</time>
      </trkpt>
      <trkpt lat="47.66691" lon="-2.89938">
        <ele>52.7</ele>
        <time>2020-06-06T13:53:04Z</time>
      </trkpt>
      <trkpt lat="47.66692" lon="-2.89946">
        <ele>52.5</ele>
        <time>2020-06-06T13:53:05Z</time>
      </trkpt>
      <trkpt lat="47.66694" lon="-2.89955">
        <ele>52.3</ele>
        <time>2020-06-06T13:53:06Z</time>
      </trkpt>
      <trkpt lat="47.66695" lon="-2.89963">
        <ele>52.1</ele>
        <time>2020-06-06T13:53:07Z</time>
      </trkpt>
      <trkpt lat="47.66696" lon="-2.89972">
        <ele>51.9</ele>
        <time>2020-06-06T13:53:08Z</time>
      </trkpt>
      <trkpt lat="47.66697" lon="-2.8998">
        <ele>51.7</ele>
        <time>2020-06-06T13:53:09Z</time>
      </trkpt>
      <trkpt lat="47.66698" lon="-2.89989">
        <ele>51.5</ele>
        <time>2020-06-06T13:53:10Z</time>
      </trkpt>
      <trkpt lat="47.66699" lon="-2.89998">
        <ele>51.3</ele>
        <time>2020-06-06T13:53:11Z</time>
      </trkpt>
      <trkpt lat="47.66701" lon="-2.90008">
        <ele>51.1</ele>
        <time>2020-06-06T13:53:12Z</time>
      </trkpt>
      <trkpt lat="47.66702" lon="-2.90018">
        <ele>50.8</ele>
        <time>2020-06-06T13:53:13Z</time>
      </trkpt>
      <trkpt lat="47.66703" lon="-2.90027">
        <ele>50.6</ele>
        <time>2020-06-06T13:53:14Z</time>
      </trkpt>
      <trkpt lat="47.66705" lon="-2.90037">
        <ele>50.4</ele>
        <time>2020-06-06T13:53:15Z</time>
      </trkpt>
      <trkpt lat="47.66706" lon="-2.90047">
        <ele>50.2</ele>
        <time>2020-06-06T13:53:16Z</time>
      </trkpt>
      <trkpt lat="47.66707" lon="-2.90057">
        <ele>50</ele>
        <time>2020-06-06T13:53:17Z</time>
      </trkpt>
      <trkpt lat="47.66709" lon="-2.90067">
        <ele>49.8</ele>
        <time>2020-06-06T13:53:18Z</time>
      </trkpt>
      <trkpt lat="47.6671" lon="-2.90077">
        <ele>49.6</ele>
        <time>2020-06-06T13:53:19Z</time>
      </trkpt>
      <trkpt lat="47.66712" lon="-2.90087">
        <ele>49.4</ele>
        <time>2020-06-06T13:53:20Z</time>
      </trkpt>
      <trkpt lat="47.66713" lon="-2.90097">
        <ele>49.3</ele>
        <time>2020-06-06T13:53:21Z</time>
      </trkpt>
      <trkpt lat="47.66715" lon="-2.90107">
        <ele>49.1</ele>
        <time>2020-06-06T13:53:22Z</time>
      </trkpt>
      <trkpt lat="47.66716" lon="-2.90118">
        <ele>49</ele>
        <time>2020-06-06T13:53:23Z</time>
      </trkpt>
      <trkpt lat="47.66717" lon="-2.90128">
        <ele>48.9</ele>
        <time>2020-06-06T13:53:24Z</time>
      </trkpt>
      <trkpt lat="47.66719" lon="-2.90138">
        <ele>48.8</ele>
        <time>2020-06-06T13:53:25Z</time>
      </trkpt>
      <trkpt lat="47.6672" lon="-2.90147">
        <ele>48.8</ele>
        <time>2020-06-06T13:53:26Z</time>
      </trkpt>
      <trkpt lat="47.6672" lon="-2.90157">
        <ele>48.7</ele>
        <time>2020-06-06T13:53:27Z</time>
      </trkpt>
      <trkpt lat="47.66719" lon="-2.90166">
        <ele>48.7</ele>
        <time>2020-06-06T13:53:28Z</time>
      </trkpt>
      <trkpt lat="47.66718" lon="-2.90175">
        <ele>48.6</ele>
        <time>2020-06-06T13:53:29Z</time>
      </trkpt>
      <trkpt lat="47.66716" lon="-2.90183">
        <ele>48.6</ele>
        <time>2020-06-06T13:53:30Z</time>
      </trkpt>
      <trkpt lat="47.66714" lon="-2.90191">
        <ele>48.6</ele>
        <time>2020-06-06T13:53:31Z</time>
      </trkpt>
      <trkpt lat="47.6671" lon="-2.90198">
        <ele>48.5</ele>
        <time>2020-06-06T13:53:32Z</time>
      </trkpt>
      <trkpt lat="47.66707" lon="-2.90205">
        <ele>48.5</ele>
        <time>2020-06-06T13:53:33Z</time>
      </trkpt>
      <trkpt lat="47.66704" lon="-2.90212">
        <ele>48.5</ele>
        <time>2020-06-06T13:53:34Z</time>
      </trkpt>
      <trkpt lat="47.667" lon="-2.90219">
        <ele>48.5</ele>
        <time>2020-06-06T13:53:35Z</time>
      </trkpt>
      <trkpt lat="47.66697" lon="-2.90226">
        <ele>48.5</ele>
        <time>2020-06-06T13:53:36Z</time>
      </trkpt>
      <trkpt lat="47.66694" lon="-2.90232">
        <ele>48.5</ele>
        <time>2020-06-06T13:53:38Z</time>
      </trkpt>
      <trkpt lat="47.66692" lon="-2.90239">
        <ele>48.5</ele>
        <time>2020-06-06T13:53:39Z</time>
      </trkpt>
      <trkpt lat="47.6669" lon="-2.90246">
        <ele>48.5</ele>
        <time>2020-06-06T13:53:40Z</time>
      </trkpt>
      <trkpt lat="47.66691" lon="-2.90254">
        <ele>48.4</ele>
        <time>2020-06-06T13:53:41Z</time>
      </trkpt>
      <trkpt lat="47.66692" lon="-2.90262">
        <ele>48.4</ele>
        <time>2020-06-06T13:53:42Z</time>
      </trkpt>
      <trkpt lat="47.66694" lon="-2.90269">
        <ele>48.4</ele>
        <time>2020-06-06T13:53:43Z</time>
      </trkpt>
      <trkpt lat="47.66695" lon="-2.90277">
        <ele>48.3</ele>
        <time>2020-06-06T13:53:44Z</time>
      </trkpt>
      <trkpt lat="47.66696" lon="-2.90286">
        <ele>48.3</ele>
        <time>2020-06-06T13:53:45Z</time>
      </trkpt>
      <trkpt lat="47.66697" lon="-2.90294">
        <ele>48.3</ele>
        <time>2020-06-06T13:53:46Z</time>
      </trkpt>
      <trkpt lat="47.66698" lon="-2.90303">
        <ele>48.3</ele>
        <time>2020-06-06T13:53:47Z</time>
      </trkpt>
      <trkpt lat="47.66699" lon="-2.90311">
        <ele>48.3</ele>
        <time>2020-06-06T13:53:48Z</time>
      </trkpt>
      <trkpt lat="47.66699" lon="-2.9032">
        <ele>48.3</ele>
        <time>2020-06-06T13:53:49Z</time>
      </trkpt>
      <trkpt lat="47.667" lon="-2.90328">
        <ele>48.3</ele>
        <time>2020-06-06T13:53:50Z</time>
      </trkpt>
      <trkpt lat="47.66701" lon="-2.90336">
        <ele>48.3</ele>
        <time>2020-06-06T13:53:51Z</time>
      </trkpt>
      <trkpt lat="47.66702" lon="-2.90344">
        <ele>48.3</ele>
        <time>2020-06-06T13:53:52Z</time>
      </trkpt>
      <trkpt lat="47.66703" lon="-2.90351">
        <ele>48.3</ele>
        <time>2020-06-06T13:53:53Z</time>
      </trkpt>
      <trkpt lat="47.66705" lon="-2.90358">
        <ele>48.2</ele>
        <time>2020-06-06T13:53:54Z</time>
      </trkpt>
      <trkpt lat="47.66706" lon="-2.90365">
        <ele>48.2</ele>
        <time>2020-06-06T13:53:55Z</time>
      </trkpt>
      <trkpt lat="47.66708" lon="-2.90373">
        <ele>48.2</ele>
        <time>2020-06-06T13:53:56Z</time>
      </trkpt>
      <trkpt lat="47.66709" lon="-2.90381">
        <ele>48.2</ele>
        <time>2020-06-06T13:53:57Z</time>
      </trkpt>
      <trkpt lat="47.66709" lon="-2.90389">
        <ele>48.2</ele>
        <time>2020-06-06T13:53:58Z</time>
      </trkpt>
      <trkpt lat="47.6671" lon="-2.90398">
        <ele>48.1</ele>
        <time>2020-06-06T13:53:59Z</time>
      </trkpt>
      <trkpt lat="47.6671" lon="-2.90407">
        <ele>48.1</ele>
        <time>2020-06-06T13:54:00Z</time>
      </trkpt>
      <trkpt lat="47.66713" lon="-2.90415">
        <ele>48.1</ele>
        <time>2020-06-06T13:54:01Z</time>
      </trkpt>
      <trkpt lat="47.66713" lon="-2.90423">
        <ele>48.1</ele>
        <time>2020-06-06T13:54:02Z</time>
      </trkpt>
      <trkpt lat="47.66715" lon="-2.90432">
        <ele>48.1</ele>
        <time>2020-06-06T13:54:03Z</time>
      </trkpt>
      <trkpt lat="47.66715" lon="-2.9044">
        <ele>48</ele>
        <time>2020-06-06T13:54:04Z</time>
      </trkpt>
      <trkpt lat="47.66715" lon="-2.90449">
        <ele>48</ele>
        <time>2020-06-06T13:54:05Z</time>
      </trkpt>
      <trkpt lat="47.66716" lon="-2.90457">
        <ele>48</ele>
        <time>2020-06-06T13:54:06Z</time>
      </trkpt>
      <trkpt lat="47.66717" lon="-2.90465">
        <ele>48</ele>
        <time>2020-06-06T13:54:07Z</time>
      </trkpt>
      <trkpt lat="47.66718" lon="-2.90473">
        <ele>48</ele>
        <time>2020-06-06T13:54:08Z</time>
      </trkpt>
      <trkpt lat="47.66719" lon="-2.90481">
        <ele>48</ele>
        <time>2020-06-06T13:54:09Z</time>
      </trkpt>
      <trkpt lat="47.6672" lon="-2.9049">
        <ele>48</ele>
        <time>2020-06-06T13:54:10Z</time>
      </trkpt>
      <trkpt lat="47.66722" lon="-2.90498">
        <ele>48</ele>
        <time>2020-06-06T13:54:11Z</time>
      </trkpt>
      <trkpt lat="47.66724" lon="-2.90506">
        <ele>48</ele>
        <time>2020-06-06T13:54:12Z</time>
      </trkpt>
      <trkpt lat="47.66725" lon="-2.90514">
        <ele>47.9</ele>
        <time>2020-06-06T13:54:13Z</time>
      </trkpt>
      <trkpt lat="47.66726" lon="-2.90523">
        <ele>47.9</ele>
        <time>2020-06-06T13:54:14Z</time>
      </trkpt>
      <trkpt lat="47.66727" lon="-2.90531">
        <ele>47.9</ele>
        <time>2020-06-06T13:54:15Z</time>
      </trkpt>
      <trkpt lat="47.66728" lon="-2.9054">
        <ele>47.9</ele>
        <time>2020-06-06T13:54:16Z</time>
      </trkpt>
      <trkpt lat="47.6673" lon="-2.90548">
        <ele>47.9</ele>
        <time>2020-06-06T13:54:17Z</time>
      </trkpt>
      <trkpt lat="47.66732" lon="-2.90556">
        <ele>47.8</ele>
        <time>2020-06-06T13:54:18Z</time>
      </trkpt>
      <trkpt lat="47.66734" lon="-2.90565">
        <ele>47.8</ele>
        <time>2020-06-06T13:54:19Z</time>
      </trkpt>
      <trkpt lat="47.66735" lon="-2.90573">
        <ele>47.8</ele>
        <time>2020-06-06T13:54:20Z</time>
      </trkpt>
      <trkpt lat="47.66736" lon="-2.90582">
        <ele>47.8</ele>
        <time>2020-06-06T13:54:21Z</time>
      </trkpt>
      <trkpt lat="47.66738" lon="-2.9059">
        <ele>47.8</ele>
        <time>2020-06-06T13:54:22Z</time>
      </trkpt>
      <trkpt lat="47.66738" lon="-2.90599">
        <ele>47.8</ele>
        <time>2020-06-06T13:54:23Z</time>
      </trkpt>
      <trkpt lat="47.66738" lon="-2.90608">
        <ele>47.7</ele>
        <time>2020-06-06T13:54:24Z</time>
      </trkpt>
      <trkpt lat="47.66737" lon="-2.90616">
        <ele>47.6</ele>
        <time>2020-06-06T13:54:25Z</time>
      </trkpt>
      <trkpt lat="47.66737" lon="-2.90625">
        <ele>47.6</ele>
        <time>2020-06-06T13:54:26Z</time>
      </trkpt>
      <trkpt lat="47.66737" lon="-2.90633">
        <ele>47.5</ele>
        <time>2020-06-06T13:54:27Z</time>
      </trkpt>
      <trkpt lat="47.66736" lon="-2.90641">
        <ele>47.4</ele>
        <time>2020-06-06T13:54:28Z</time>
      </trkpt>
      <trkpt lat="47.66735" lon="-2.90649">
        <ele>47.2</ele>
        <time>2020-06-06T13:54:29Z</time>
      </trkpt>
      <trkpt lat="47.66733" lon="-2.90657">
        <ele>47.1</ele>
        <time>2020-06-06T13:54:30Z</time>
      </trkpt>
      <trkpt lat="47.6673" lon="-2.90664">
        <ele>46.9</ele>
        <time>2020-06-06T13:54:31Z</time>
      </trkpt>
      <trkpt lat="47.66726" lon="-2.90671">
        <ele>46.8</ele>
        <time>2020-06-06T13:54:32Z</time>
      </trkpt>
      <trkpt lat="47.66723" lon="-2.90678">
        <ele>46.6</ele>
        <time>2020-06-06T13:54:33Z</time>
      </trkpt>
      <trkpt lat="47.6672" lon="-2.90685">
        <ele>46.4</ele>
        <time>2020-06-06T13:54:34Z</time>
      </trkpt>
      <trkpt lat="47.66716" lon="-2.90692">
        <ele>46.2</ele>
        <time>2020-06-06T13:54:35Z</time>
      </trkpt>
      <trkpt lat="47.66712" lon="-2.90699">
        <ele>46</ele>
        <time>2020-06-06T13:54:36Z</time>
      </trkpt>
      <trkpt lat="47.66707" lon="-2.90705">
        <ele>45.8</ele>
        <time>2020-06-06T13:54:37Z</time>
      </trkpt>
      <trkpt lat="47.66703" lon="-2.90712">
        <ele>45.6</ele>
        <time>2020-06-06T13:54:38Z</time>
      </trkpt>
      <trkpt lat="47.667" lon="-2.90719">
        <ele>45.3</ele>
        <time>2020-06-06T13:54:39Z</time>
      </trkpt>
      <trkpt lat="47.66696" lon="-2.90726">
        <ele>45.1</ele>
        <time>2020-06-06T13:54:40Z</time>
      </trkpt>
      <trkpt lat="47.66692" lon="-2.90734">
        <ele>44.9</ele>
        <time>2020-06-06T13:54:41Z</time>
      </trkpt>
      <trkpt lat="47.66688" lon="-2.90741">
        <ele>44.6</ele>
        <time>2020-06-06T13:54:42Z</time>
      </trkpt>
      <trkpt lat="47.66684" lon="-2.90749">
        <ele>44.3</ele>
        <time>2020-06-06T13:54:43Z</time>
      </trkpt>
      <trkpt lat="47.6668" lon="-2.90758">
        <ele>44</ele>
        <time>2020-06-06T13:54:44Z</time>
      </trkpt>
      <trkpt lat="47.66675" lon="-2.90767">
        <ele>43.7</ele>
        <time>2020-06-06T13:54:45Z</time>
      </trkpt>
      <trkpt lat="47.6667" lon="-2.90775">
        <ele>43.4</ele>
        <time>2020-06-06T13:54:46Z</time>
      </trkpt>
      <trkpt lat="47.66665" lon="-2.90783">
        <ele>43.1</ele>
        <time>2020-06-06T13:54:47Z</time>
      </trkpt>
      <trkpt lat="47.66662" lon="-2.90792">
        <ele>42.8</ele>
        <time>2020-06-06T13:54:48Z</time>
      </trkpt>
      <trkpt lat="47.66658" lon="-2.90801">
        <ele>42.5</ele>
        <time>2020-06-06T13:54:49Z</time>
      </trkpt>
      <trkpt lat="47.66654" lon="-2.9081">
        <ele>42.2</ele>
        <time>2020-06-06T13:54:50Z</time>
      </trkpt>
      <trkpt lat="47.66651" lon="-2.90819">
        <ele>42</ele>
        <time>2020-06-06T13:54:51Z</time>
      </trkpt>
      <trkpt lat="47.66648" lon="-2.90828">
        <ele>41.7</ele>
        <time>2020-06-06T13:54:52Z</time>
      </trkpt>
      <trkpt lat="47.66646" lon="-2.90838">
        <ele>41.5</ele>
        <time>2020-06-06T13:54:53Z</time>
      </trkpt>
      <trkpt lat="47.66644" lon="-2.90848">
        <ele>41.3</ele>
        <time>2020-06-06T13:54:54Z</time>
      </trkpt>
      <trkpt lat="47.66642" lon="-2.90858">
        <ele>41.1</ele>
        <time>2020-06-06T13:54:55Z</time>
      </trkpt>
      <trkpt lat="47.6664" lon="-2.90868">
        <ele>40.9</ele>
        <time>2020-06-06T13:54:56Z</time>
      </trkpt>
      <trkpt lat="47.66639" lon="-2.90879">
        <ele>40.8</ele>
        <time>2020-06-06T13:54:57Z</time>
      </trkpt>
      <trkpt lat="47.66639" lon="-2.9089">
        <ele>40.6</ele>
        <time>2020-06-06T13:54:58Z</time>
      </trkpt>
      <trkpt lat="47.66638" lon="-2.909">
        <ele>40.6</ele>
        <time>2020-06-06T13:54:59Z</time>
      </trkpt>
      <trkpt lat="47.66638" lon="-2.90911">
        <ele>40.5</ele>
        <time>2020-06-06T13:55:00Z</time>
      </trkpt>
      <trkpt lat="47.66638" lon="-2.90922">
        <ele>40.4</ele>
        <time>2020-06-06T13:55:01Z</time>
      </trkpt>
      <trkpt lat="47.66638" lon="-2.90932">
        <ele>40.3</ele>
        <time>2020-06-06T13:55:02Z</time>
      </trkpt>
      <trkpt lat="47.66638" lon="-2.90942">
        <ele>40.2</ele>
        <time>2020-06-06T13:55:03Z</time>
      </trkpt>
      <trkpt lat="47.66637" lon="-2.90952">
        <ele>40.1</ele>
        <time>2020-06-06T13:55:04Z</time>
      </trkpt>
      <trkpt lat="47.66637" lon="-2.90962">
        <ele>40</ele>
        <time>2020-06-06T13:55:05Z</time>
      </trkpt>
      <trkpt lat="47.66637" lon="-2.90972">
        <ele>39.9</ele>
        <time>2020-06-06T13:55:06Z</time>
      </trkpt>
      <trkpt lat="47.66637" lon="-2.90982">
        <ele>39.8</ele>
        <time>2020-06-06T13:55:07Z</time>
      </trkpt>
      <trkpt lat="47.66637" lon="-2.90992">
        <ele>39.7</ele>
        <time>2020-06-06T13:55:08Z</time>
      </trkpt>
      <trkpt lat="47.66637" lon="-2.91002">
        <ele>39.6</ele>
        <time>2020-06-06T13:55:09Z</time>
      </trkpt>
      <trkpt lat="47.66636" lon="-2.91011">
        <ele>39.6</ele>
        <time>2020-06-06T13:55:10Z</time>
      </trkpt>
      <trkpt lat="47.66635" lon="-2.9102">
        <ele>39.5</ele>
        <time>2020-06-06T13:55:11Z</time>
      </trkpt>
      <trkpt lat="47.66634" lon="-2.9103">
        <ele>39.4</ele>
        <time>2020-06-06T13:55:12Z</time>
      </trkpt>
      <trkpt lat="47.66634" lon="-2.91039">
        <ele>39.2</ele>
        <time>2020-06-06T13:55:13Z</time>
      </trkpt>
      <trkpt lat="47.66634" lon="-2.91049">
        <ele>39.1</ele>
        <time>2020-06-06T13:55:14Z</time>
      </trkpt>
      <trkpt lat="47.66634" lon="-2.91058">
        <ele>39</ele>
        <time>2020-06-06T13:55:15Z</time>
      </trkpt>
      <trkpt lat="47.66633" lon="-2.91067">
        <ele>38.8</ele>
        <time>2020-06-06T13:55:16Z</time>
      </trkpt>
      <trkpt lat="47.66633" lon="-2.91076">
        <ele>38.7</ele>
        <time>2020-06-06T13:55:17Z</time>
      </trkpt>
      <trkpt lat="47.66633" lon="-2.91094">
        <ele>38.5</ele>
        <time>2020-06-06T13:55:18Z</time>
      </trkpt>
      <trkpt lat="47.66631" lon="-2.91102">
        <ele>38.4</ele>
        <time>2020-06-06T13:55:19Z</time>
      </trkpt>
      <trkpt lat="47.6663" lon="-2.91111">
        <ele>38.2</ele>
        <time>2020-06-06T13:55:20Z</time>
      </trkpt>
      <trkpt lat="47.66631" lon="-2.91119">
        <ele>38.1</ele>
        <time>2020-06-06T13:55:21Z</time>
      </trkpt>
      <trkpt lat="47.66631" lon="-2.91127">
        <ele>38</ele>
        <time>2020-06-06T13:55:22Z</time>
      </trkpt>
      <trkpt lat="47.66632" lon="-2.91135">
        <ele>37.9</ele>
        <time>2020-06-06T13:55:23Z</time>
      </trkpt>
      <trkpt lat="47.66632" lon="-2.91143">
        <ele>37.8</ele>
        <time>2020-06-06T13:55:24Z</time>
      </trkpt>
      <trkpt lat="47.66632" lon="-2.9115">
        <ele>37.7</ele>
        <time>2020-06-06T13:55:25Z</time>
      </trkpt>
      <trkpt lat="47.66632" lon="-2.91158">
        <ele>37.6</ele>
        <time>2020-06-06T13:55:26Z</time>
      </trkpt>
      <trkpt lat="47.6663" lon="-2.91166">
        <ele>37.5</ele>
        <time>2020-06-06T13:55:27Z</time>
      </trkpt>
      <trkpt lat="47.6663" lon="-2.91174">
        <ele>37.4</ele>
        <time>2020-06-06T13:55:28Z</time>
      </trkpt>
      <trkpt lat="47.66631" lon="-2.91182">
        <ele>37.2</ele>
        <time>2020-06-06T13:55:29Z</time>
      </trkpt>
      <trkpt lat="47.66631" lon="-2.91191">
        <ele>37.1</ele>
        <time>2020-06-06T13:55:30Z</time>
      </trkpt>
      <trkpt lat="47.66632" lon="-2.91199">
        <ele>36.9</ele>
        <time>2020-06-06T13:55:31Z</time>
      </trkpt>
      <trkpt lat="47.66632" lon="-2.91207">
        <ele>36.8</ele>
        <time>2020-06-06T13:55:32Z</time>
      </trkpt>
      <trkpt lat="47.66633" lon="-2.91216">
        <ele>36.6</ele>
        <time>2020-06-06T13:55:33Z</time>
      </trkpt>
      <trkpt lat="47.66634" lon="-2.91225">
        <ele>36.5</ele>
        <time>2020-06-06T13:55:34Z</time>
      </trkpt>
      <trkpt lat="47.66634" lon="-2.91234">
        <ele>36.4</ele>
        <time>2020-06-06T13:55:35Z</time>
      </trkpt>
      <trkpt lat="47.66634" lon="-2.91243">
        <ele>36.2</ele>
        <time>2020-06-06T13:55:36Z</time>
      </trkpt>
      <trkpt lat="47.66634" lon="-2.91253">
        <ele>36.1</ele>
        <time>2020-06-06T13:55:37Z</time>
      </trkpt>
      <trkpt lat="47.66635" lon="-2.91263">
        <ele>35.9</ele>
        <time>2020-06-06T13:55:38Z</time>
      </trkpt>
      <trkpt lat="47.66635" lon="-2.91273">
        <ele>35.7</ele>
        <time>2020-06-06T13:55:39Z</time>
      </trkpt>
      <trkpt lat="47.66636" lon="-2.91282">
        <ele>35.5</ele>
        <time>2020-06-06T13:55:40Z</time>
      </trkpt>
      <trkpt lat="47.66636" lon="-2.91292">
        <ele>35.3</ele>
        <time>2020-06-06T13:55:41Z</time>
      </trkpt>
      <trkpt lat="47.66637" lon="-2.91302">
        <ele>35.2</ele>
        <time>2020-06-06T13:55:42Z</time>
      </trkpt>
      <trkpt lat="47.66638" lon="-2.91311">
        <ele>35</ele>
        <time>2020-06-06T13:55:43Z</time>
      </trkpt>
      <trkpt lat="47.66639" lon="-2.9132">
        <ele>34.8</ele>
        <time>2020-06-06T13:55:44Z</time>
      </trkpt>
      <trkpt lat="47.6664" lon="-2.9133">
        <ele>34.6</ele>
        <time>2020-06-06T13:55:45Z</time>
      </trkpt>
      <trkpt lat="47.66641" lon="-2.91339">
        <ele>34.4</ele>
        <time>2020-06-06T13:55:46Z</time>
      </trkpt>
      <trkpt lat="47.66642" lon="-2.91349">
        <ele>34.2</ele>
        <time>2020-06-06T13:55:47Z</time>
      </trkpt>
      <trkpt lat="47.66644" lon="-2.91359">
        <ele>34.1</ele>
        <time>2020-06-06T13:55:48Z</time>
      </trkpt>
      <trkpt lat="47.66645" lon="-2.91369">
        <ele>33.9</ele>
        <time>2020-06-06T13:55:49Z</time>
      </trkpt>
      <trkpt lat="47.66646" lon="-2.91379">
        <ele>33.6</ele>
        <time>2020-06-06T13:55:50Z</time>
      </trkpt>
      <trkpt lat="47.66648" lon="-2.91389">
        <ele>33.4</ele>
        <time>2020-06-06T13:55:51Z</time>
      </trkpt>
      <trkpt lat="47.6665" lon="-2.914">
        <ele>33.2</ele>
        <time>2020-06-06T13:55:52Z</time>
      </trkpt>
      <trkpt lat="47.66652" lon="-2.9141">
        <ele>32.9</ele>
        <time>2020-06-06T13:55:53Z</time>
      </trkpt>
      <trkpt lat="47.66654" lon="-2.9142">
        <ele>32.6</ele>
        <time>2020-06-06T13:55:54Z</time>
      </trkpt>
      <trkpt lat="47.66656" lon="-2.91431">
        <ele>32.4</ele>
        <time>2020-06-06T13:55:55Z</time>
      </trkpt>
      <trkpt lat="47.66658" lon="-2.91441">
        <ele>32.1</ele>
        <time>2020-06-06T13:55:56Z</time>
      </trkpt>
      <trkpt lat="47.6666" lon="-2.91452">
        <ele>31.8</ele>
        <time>2020-06-06T13:55:57Z</time>
      </trkpt>
      <trkpt lat="47.66662" lon="-2.91462">
        <ele>31.5</ele>
        <time>2020-06-06T13:55:58Z</time>
      </trkpt>
      <trkpt lat="47.66664" lon="-2.91472">
        <ele>31.2</ele>
        <time>2020-06-06T13:55:59Z</time>
      </trkpt>
      <trkpt lat="47.66666" lon="-2.91482">
        <ele>30.9</ele>
        <time>2020-06-06T13:56:00Z</time>
      </trkpt>
      <trkpt lat="47.66668" lon="-2.91492">
        <ele>30.5</ele>
        <time>2020-06-06T13:56:01Z</time>
      </trkpt>
      <trkpt lat="47.66671" lon="-2.91503">
        <ele>30.1</ele>
        <time>2020-06-06T13:56:02Z</time>
      </trkpt>
      <trkpt lat="47.66673" lon="-2.91513">
        <ele>29.7</ele>
        <time>2020-06-06T13:56:03Z</time>
      </trkpt>
      <trkpt lat="47.66675" lon="-2.91524">
        <ele>29.3</ele>
        <time>2020-06-06T13:56:04Z</time>
      </trkpt>
      <trkpt lat="47.66678" lon="-2.91534">
        <ele>28.9</ele>
        <time>2020-06-06T13:56:05Z</time>
      </trkpt>
      <trkpt lat="47.66681" lon="-2.91545">
        <ele>28.5</ele>
        <time>2020-06-06T13:56:06Z</time>
      </trkpt>
      <trkpt lat="47.66685" lon="-2.91556">
        <ele>28</ele>
        <time>2020-06-06T13:56:07Z</time>
      </trkpt>
      <trkpt lat="47.66689" lon="-2.91566">
        <ele>27.5</ele>
        <time>2020-06-06T13:56:08Z</time>
      </trkpt>
      <trkpt lat="47.66693" lon="-2.91577">
        <ele>26.9</ele>
        <time>2020-06-06T13:56:09Z</time>
      </trkpt>
      <trkpt lat="47.66697" lon="-2.91588">
        <ele>26.4</ele>
        <time>2020-06-06T13:56:10Z</time>
      </trkpt>
      <trkpt lat="47.66701" lon="-2.916">
        <ele>25.8</ele>
        <time>2020-06-06T13:56:11Z</time>
      </trkpt>
      <trkpt lat="47.66705" lon="-2.91611">
        <ele>25.1</ele>
        <time>2020-06-06T13:56:12Z</time>
      </trkpt>
      <trkpt lat="47.66709" lon="-2.91623">
        <ele>24.5</ele>
        <time>2020-06-06T13:56:13Z</time>
      </trkpt>
      <trkpt lat="47.66714" lon="-2.91634">
        <ele>23.8</ele>
        <time>2020-06-06T13:56:14Z</time>
      </trkpt>
      <trkpt lat="47.66718" lon="-2.91645">
        <ele>23.2</ele>
        <time>2020-06-06T13:56:15Z</time>
      </trkpt>
      <trkpt lat="47.66723" lon="-2.91657">
        <ele>22.6</ele>
        <time>2020-06-06T13:56:16Z</time>
      </trkpt>
      <trkpt lat="47.66728" lon="-2.91669">
        <ele>21.9</ele>
        <time>2020-06-06T13:56:17Z</time>
      </trkpt>
      <trkpt lat="47.66733" lon="-2.91681">
        <ele>21.2</ele>
        <time>2020-06-06T13:56:18Z</time>
      </trkpt>
      <trkpt lat="47.66738" lon="-2.91693">
        <ele>20.6</ele>
        <time>2020-06-06T13:56:19Z</time>
      </trkpt>
      <trkpt lat="47.66743" lon="-2.91705">
        <ele>20.2</ele>
        <time>2020-06-06T13:56:20Z</time>
      </trkpt>
      <trkpt lat="47.66748" lon="-2.91717">
        <ele>19.7</ele>
        <time>2020-06-06T13:56:21Z</time>
      </trkpt>
      <trkpt lat="47.66753" lon="-2.91729">
        <ele>19.1</ele>
        <time>2020-06-06T13:56:22Z</time>
      </trkpt>
      <trkpt lat="47.66759" lon="-2.91742">
        <ele>18.5</ele>
        <time>2020-06-06T13:56:23Z</time>
      </trkpt>
      <trkpt lat="47.66764" lon="-2.91754">
        <ele>18.1</ele>
        <time>2020-06-06T13:56:24Z</time>
      </trkpt>
      <trkpt lat="47.66769" lon="-2.91765">
        <ele>17.7</ele>
        <time>2020-06-06T13:56:25Z</time>
      </trkpt>
      <trkpt lat="47.66774" lon="-2.91777">
        <ele>17.3</ele>
        <time>2020-06-06T13:56:26Z</time>
      </trkpt>
      <trkpt lat="47.66779" lon="-2.91787">
        <ele>16.9</ele>
        <time>2020-06-06T13:56:27Z</time>
      </trkpt>
      <trkpt lat="47.66785" lon="-2.91798">
        <ele>16.6</ele>
        <time>2020-06-06T13:56:28Z</time>
      </trkpt>
      <trkpt lat="47.6679" lon="-2.91808">
        <ele>16.2</ele>
        <time>2020-06-06T13:56:29Z</time>
      </trkpt>
      <trkpt lat="47.66795" lon="-2.91819">
        <ele>15.9</ele>
        <time>2020-06-06T13:56:30Z</time>
      </trkpt>
      <trkpt lat="47.668" lon="-2.91828">
        <ele>15.7</ele>
        <time>2020-06-06T13:56:31Z</time>
      </trkpt>
      <trkpt lat="47.66805" lon="-2.91838">
        <ele>15.5</ele>
        <time>2020-06-06T13:56:32Z</time>
      </trkpt>
      <trkpt lat="47.6681" lon="-2.91848">
        <ele>15.3</ele>
        <time>2020-06-06T13:56:33Z</time>
      </trkpt>
      <trkpt lat="47.66815" lon="-2.91857">
        <ele>15.1</ele>
        <time>2020-06-06T13:56:34Z</time>
      </trkpt>
      <trkpt lat="47.66819" lon="-2.91867">
        <ele>15.1</ele>
        <time>2020-06-06T13:56:35Z</time>
      </trkpt>
      <trkpt lat="47.66824" lon="-2.91877">
        <ele>15.1</ele>
        <time>2020-06-06T13:56:36Z</time>
      </trkpt>
      <trkpt lat="47.66829" lon="-2.91886">
        <ele>15.1</ele>
        <time>2020-06-06T13:56:37Z</time>
      </trkpt>
      <trkpt lat="47.66834" lon="-2.91896">
        <ele>15.1</ele>
        <time>2020-06-06T13:56:38Z</time>
      </trkpt>
      <trkpt lat="47.66838" lon="-2.91906">
        <ele>15.1</ele>
        <time>2020-06-06T13:56:39Z</time>
      </trkpt>
      <trkpt lat="47.66842" lon="-2.91915">
        <ele>15.2</ele>
        <time>2020-06-06T13:56:40Z</time>
      </trkpt>
      <trkpt lat="47.66847" lon="-2.91924">
        <ele>15.2</ele>
        <time>2020-06-06T13:56:41Z</time>
      </trkpt>
      <trkpt lat="47.66851" lon="-2.91933">
        <ele>15.3</ele>
        <time>2020-06-06T13:56:42Z</time>
      </trkpt>
      <trkpt lat="47.66856" lon="-2.91941">
        <ele>15.4</ele>
        <time>2020-06-06T13:56:43Z</time>
      </trkpt>
      <trkpt lat="47.6686" lon="-2.91949">
        <ele>15.5</ele>
        <time>2020-06-06T13:56:44Z</time>
      </trkpt>
      <trkpt lat="47.66864" lon="-2.91958">
        <ele>15.7</ele>
        <time>2020-06-06T13:56:45Z</time>
      </trkpt>
      <trkpt lat="47.66868" lon="-2.91967">
        <ele>15.9</ele>
        <time>2020-06-06T13:56:46Z</time>
      </trkpt>
      <trkpt lat="47.66872" lon="-2.91976">
        <ele>16.2</ele>
        <time>2020-06-06T13:56:47Z</time>
      </trkpt>
      <trkpt lat="47.66876" lon="-2.91984">
        <ele>16.4</ele>
        <time>2020-06-06T13:56:48Z</time>
      </trkpt>
      <trkpt lat="47.6688" lon="-2.91992">
        <ele>16.5</ele>
        <time>2020-06-06T13:56:49Z</time>
      </trkpt>
      <trkpt lat="47.66884" lon="-2.92">
        <ele>16.7</ele>
        <time>2020-06-06T13:56:50Z</time>
      </trkpt>
      <trkpt lat="47.66888" lon="-2.92008">
        <ele>16.9</ele>
        <time>2020-06-06T13:56:51Z</time>
      </trkpt>
      <trkpt lat="47.66892" lon="-2.92015">
        <ele>17.2</ele>
        <time>2020-06-06T13:56:52Z</time>
      </trkpt>
      <trkpt lat="47.66895" lon="-2.92022">
        <ele>17.4</ele>
        <time>2020-06-06T13:56:53Z</time>
      </trkpt>
      <trkpt lat="47.66899" lon="-2.92029">
        <ele>17.6</ele>
        <time>2020-06-06T13:56:54Z</time>
      </trkpt>
      <trkpt lat="47.66903" lon="-2.92036">
        <ele>17.8</ele>
        <time>2020-06-06T13:56:55Z</time>
      </trkpt>
      <trkpt lat="47.66906" lon="-2.92043">
        <ele>17.9</ele>
        <time>2020-06-06T13:56:56Z</time>
      </trkpt>
      <trkpt lat="47.6691" lon="-2.92049">
        <ele>18.1</ele>
        <time>2020-06-06T13:56:57Z</time>
      </trkpt>
      <trkpt lat="47.66913" lon="-2.92056">
        <ele>18.3</ele>
        <time>2020-06-06T13:56:58Z</time>
      </trkpt>
      <trkpt lat="47.66916" lon="-2.92062">
        <ele>18.5</ele>
        <time>2020-06-06T13:56:59Z</time>
      </trkpt>
      <trkpt lat="47.6692" lon="-2.9207">
        <ele>18.8</ele>
        <time>2020-06-06T13:57:00Z</time>
      </trkpt>
      <trkpt lat="47.66924" lon="-2.92076">
        <ele>19</ele>
        <time>2020-06-06T13:57:01Z</time>
      </trkpt>
      <trkpt lat="47.66928" lon="-2.92083">
        <ele>19.3</ele>
        <time>2020-06-06T13:57:02Z</time>
      </trkpt>
      <trkpt lat="47.66933" lon="-2.92089">
        <ele>19.7</ele>
        <time>2020-06-06T13:57:03Z</time>
      </trkpt>
      <trkpt lat="47.66936" lon="-2.92096">
        <ele>19.8</ele>
        <time>2020-06-06T13:57:04Z</time>
      </trkpt>
      <trkpt lat="47.6694" lon="-2.92103">
        <ele>19.9</ele>
        <time>2020-06-06T13:57:05Z</time>
      </trkpt>
      <trkpt lat="47.66943" lon="-2.9211">
        <ele>20.1</ele>
        <time>2020-06-06T13:57:06Z</time>
      </trkpt>
      <trkpt lat="47.66947" lon="-2.92116">
        <ele>20.2</ele>
        <time>2020-06-06T13:57:07Z</time>
      </trkpt>
      <trkpt lat="47.6695" lon="-2.92122">
        <ele>20.4</ele>
        <time>2020-06-06T13:57:08Z</time>
      </trkpt>
      <trkpt lat="47.66953" lon="-2.92129">
        <ele>20.5</ele>
        <time>2020-06-06T13:57:09Z</time>
      </trkpt>
      <trkpt lat="47.66957" lon="-2.92135">
        <ele>20.7</ele>
        <time>2020-06-06T13:57:10Z</time>
      </trkpt>
      <trkpt lat="47.6696" lon="-2.92142">
        <ele>20.9</ele>
        <time>2020-06-06T13:57:11Z</time>
      </trkpt>
      <trkpt lat="47.66963" lon="-2.92148">
        <ele>21.1</ele>
        <time>2020-06-06T13:57:12Z</time>
      </trkpt>
      <trkpt lat="47.66967" lon="-2.92154">
        <ele>21.3</ele>
        <time>2020-06-06T13:57:13Z</time>
      </trkpt>
      <trkpt lat="47.6697" lon="-2.92159">
        <ele>21.4</ele>
        <time>2020-06-06T13:57:14Z</time>
      </trkpt>
      <trkpt lat="47.66974" lon="-2.92165">
        <ele>21.6</ele>
        <time>2020-06-06T13:57:15Z</time>
      </trkpt>
      <trkpt lat="47.66976" lon="-2.9217">
        <ele>21.7</ele>
        <time>2020-06-06T13:57:16Z</time>
      </trkpt>
      <trkpt lat="47.6698" lon="-2.92177">
        <ele>22</ele>
        <time>2020-06-06T13:57:17Z</time>
      </trkpt>
      <trkpt lat="47.66984" lon="-2.92184">
        <ele>22.2</ele>
        <time>2020-06-06T13:57:18Z</time>
      </trkpt>
      <trkpt lat="47.66987" lon="-2.9219">
        <ele>22.3</ele>
        <time>2020-06-06T13:57:19Z</time>
      </trkpt>
      <trkpt lat="47.66991" lon="-2.92197">
        <ele>22.5</ele>
        <time>2020-06-06T13:57:20Z</time>
      </trkpt>
      <trkpt lat="47.66994" lon="-2.92203">
        <ele>22.7</ele>
        <time>2020-06-06T13:57:21Z</time>
      </trkpt>
      <trkpt lat="47.66997" lon="-2.9221">
        <ele>22.8</ele>
        <time>2020-06-06T13:57:22Z</time>
      </trkpt>
      <trkpt lat="47.67" lon="-2.92217">
        <ele>23</ele>
        <time>2020-06-06T13:57:23Z</time>
      </trkpt>
      <trkpt lat="47.67003" lon="-2.92224">
        <ele>23.2</ele>
        <time>2020-06-06T13:57:24Z</time>
      </trkpt>
      <trkpt lat="47.67006" lon="-2.9223">
        <ele>23.3</ele>
        <time>2020-06-06T13:57:25Z</time>
      </trkpt>
      <trkpt lat="47.6701" lon="-2.92236">
        <ele>23.5</ele>
        <time>2020-06-06T13:57:26Z</time>
      </trkpt>
      <trkpt lat="47.67013" lon="-2.92242">
        <ele>23.7</ele>
        <time>2020-06-06T13:57:27Z</time>
      </trkpt>
      <trkpt lat="47.67016" lon="-2.92248">
        <ele>23.8</ele>
        <time>2020-06-06T13:57:28Z</time>
      </trkpt>
      <trkpt lat="47.67019" lon="-2.92254">
        <ele>24</ele>
        <time>2020-06-06T13:57:29Z</time>
      </trkpt>
      <trkpt lat="47.67022" lon="-2.9226">
        <ele>24.1</ele>
        <time>2020-06-06T13:57:30Z</time>
      </trkpt>
      <trkpt lat="47.67026" lon="-2.92267">
        <ele>24.3</ele>
        <time>2020-06-06T13:57:31Z</time>
      </trkpt>
      <trkpt lat="47.6703" lon="-2.92272">
        <ele>24.5</ele>
        <time>2020-06-06T13:57:32Z</time>
      </trkpt>
      <trkpt lat="47.67033" lon="-2.92279">
        <ele>24.7</ele>
        <time>2020-06-06T13:57:33Z</time>
      </trkpt>
      <trkpt lat="47.67036" lon="-2.92284">
        <ele>24.8</ele>
        <time>2020-06-06T13:57:34Z</time>
      </trkpt>
      <trkpt lat="47.67038" lon="-2.92289">
        <ele>24.9</ele>
        <time>2020-06-06T13:57:35Z</time>
      </trkpt>
      <trkpt lat="47.67041" lon="-2.92295">
        <ele>25.1</ele>
        <time>2020-06-06T13:57:36Z</time>
      </trkpt>
      <trkpt lat="47.67044" lon="-2.923">
        <ele>25.2</ele>
        <time>2020-06-06T13:57:37Z</time>
      </trkpt>
      <trkpt lat="47.67046" lon="-2.92307">
        <ele>25.3</ele>
        <time>2020-06-06T13:57:38Z</time>
      </trkpt>
      <trkpt lat="47.67049" lon="-2.92313">
        <ele>25.5</ele>
        <time>2020-06-06T13:57:39Z</time>
      </trkpt>
      <trkpt lat="47.67052" lon="-2.9232">
        <ele>25.6</ele>
        <time>2020-06-06T13:57:40Z</time>
      </trkpt>
      <trkpt lat="47.67056" lon="-2.92326">
        <ele>25.8</ele>
        <time>2020-06-06T13:57:41Z</time>
      </trkpt>
      <trkpt lat="47.67058" lon="-2.92332">
        <ele>25.9</ele>
        <time>2020-06-06T13:57:42Z</time>
      </trkpt>
      <trkpt lat="47.67061" lon="-2.92338">
        <ele>26.1</ele>
        <time>2020-06-06T13:57:43Z</time>
      </trkpt>
      <trkpt lat="47.67065" lon="-2.92344">
        <ele>26.2</ele>
        <time>2020-06-06T13:57:44Z</time>
      </trkpt>
      <trkpt lat="47.67066" lon="-2.92349">
        <ele>26.3</ele>
        <time>2020-06-06T13:57:45Z</time>
      </trkpt>
      <trkpt lat="47.6707" lon="-2.92354">
        <ele>26.5</ele>
        <time>2020-06-06T13:57:46Z</time>
      </trkpt>
      <trkpt lat="47.67072" lon="-2.9236">
        <ele>26.6</ele>
        <time>2020-06-06T13:57:47Z</time>
      </trkpt>
      <trkpt lat="47.67075" lon="-2.92366">
        <ele>26.8</ele>
        <time>2020-06-06T13:57:48Z</time>
      </trkpt>
      <trkpt lat="47.67078" lon="-2.92372">
        <ele>26.9</ele>
        <time>2020-06-06T13:57:49Z</time>
      </trkpt>
      <trkpt lat="47.67081" lon="-2.92379">
        <ele>27.1</ele>
        <time>2020-06-06T13:57:50Z</time>
      </trkpt>
      <trkpt lat="47.67084" lon="-2.92385">
        <ele>27.3</ele>
        <time>2020-06-06T13:57:51Z</time>
      </trkpt>
      <trkpt lat="47.67087" lon="-2.92391">
        <ele>27.4</ele>
        <time>2020-06-06T13:57:52Z</time>
      </trkpt>
      <trkpt lat="47.6709" lon="-2.92396">
        <ele>27.6</ele>
        <time>2020-06-06T13:57:53Z</time>
      </trkpt>
      <trkpt lat="47.67092" lon="-2.92401">
        <ele>27.7</ele>
        <time>2020-06-06T13:57:54Z</time>
      </trkpt>
      <trkpt lat="47.67096" lon="-2.92408">
        <ele>27.9</ele>
        <time>2020-06-06T13:57:55Z</time>
      </trkpt>
      <trkpt lat="47.67098" lon="-2.92414">
        <ele>28.1</ele>
        <time>2020-06-06T13:57:56Z</time>
      </trkpt>
      <trkpt lat="47.67101" lon="-2.92419">
        <ele>28.2</ele>
        <time>2020-06-06T13:57:57Z</time>
      </trkpt>
      <trkpt lat="47.67103" lon="-2.92426">
        <ele>28.5</ele>
        <time>2020-06-06T13:57:58Z</time>
      </trkpt>
      <trkpt lat="47.67106" lon="-2.92432">
        <ele>28.7</ele>
        <time>2020-06-06T13:57:59Z</time>
      </trkpt>
      <trkpt lat="47.67109" lon="-2.92438">
        <ele>28.9</ele>
        <time>2020-06-06T13:58:00Z</time>
      </trkpt>
      <trkpt lat="47.67112" lon="-2.92443">
        <ele>29.2</ele>
        <time>2020-06-06T13:58:01Z</time>
      </trkpt>
      <trkpt lat="47.67115" lon="-2.92448">
        <ele>29.4</ele>
        <time>2020-06-06T13:58:02Z</time>
      </trkpt>
      <trkpt lat="47.67118" lon="-2.92455">
        <ele>29.7</ele>
        <time>2020-06-06T13:58:03Z</time>
      </trkpt>
      <trkpt lat="47.6712" lon="-2.92459">
        <ele>29.8</ele>
        <time>2020-06-06T13:58:04Z</time>
      </trkpt>
      <trkpt lat="47.67123" lon="-2.92464">
        <ele>30</ele>
        <time>2020-06-06T13:58:05Z</time>
      </trkpt>
      <trkpt lat="47.67125" lon="-2.9247">
        <ele>30.2</ele>
        <time>2020-06-06T13:58:06Z</time>
      </trkpt>
      <trkpt lat="47.67127" lon="-2.92474">
        <ele>30.4</ele>
        <time>2020-06-06T13:58:07Z</time>
      </trkpt>
      <trkpt lat="47.67131" lon="-2.92481">
        <ele>30.7</ele>
        <time>2020-06-06T13:58:08Z</time>
      </trkpt>
      <trkpt lat="47.67133" lon="-2.92486">
        <ele>30.9</ele>
        <time>2020-06-06T13:58:09Z</time>
      </trkpt>
      <trkpt lat="47.67135" lon="-2.92491">
        <ele>31.2</ele>
        <time>2020-06-06T13:58:10Z</time>
      </trkpt>
      <trkpt lat="47.67138" lon="-2.92495">
        <ele>31.4</ele>
        <time>2020-06-06T13:58:11Z</time>
      </trkpt>
      <trkpt lat="47.6714" lon="-2.925">
        <ele>31.6</ele>
        <time>2020-06-06T13:58:12Z</time>
      </trkpt>
      <trkpt lat="47.67143" lon="-2.92504">
        <ele>31.8</ele>
        <time>2020-06-06T13:58:13Z</time>
      </trkpt>
      <trkpt lat="47.67145" lon="-2.92509">
        <ele>32.1</ele>
        <time>2020-06-06T13:58:14Z</time>
      </trkpt>
      <trkpt lat="47.67148" lon="-2.92514">
        <ele>32.3</ele>
        <time>2020-06-06T13:58:15Z</time>
      </trkpt>
      <trkpt lat="47.67151" lon="-2.92519">
        <ele>32.6</ele>
        <time>2020-06-06T13:58:16Z</time>
      </trkpt>
      <trkpt lat="47.67154" lon="-2.92525">
        <ele>32.9</ele>
        <time>2020-06-06T13:58:17Z</time>
      </trkpt>
      <trkpt lat="47.67157" lon="-2.9253">
        <ele>33.2</ele>
        <time>2020-06-06T13:58:18Z</time>
      </trkpt>
      <trkpt lat="47.6716" lon="-2.92536">
        <ele>33.5</ele>
        <time>2020-06-06T13:58:19Z</time>
      </trkpt>
      <trkpt lat="47.67162" lon="-2.9254">
        <ele>33.7</ele>
        <time>2020-06-06T13:58:20Z</time>
      </trkpt>
      <trkpt lat="47.67165" lon="-2.92545">
        <ele>33.9</ele>
        <time>2020-06-06T13:58:21Z</time>
      </trkpt>
      <trkpt lat="47.67167" lon="-2.92552">
        <ele>34.2</ele>
        <time>2020-06-06T13:58:22Z</time>
      </trkpt>
      <trkpt lat="47.67169" lon="-2.92558">
        <ele>34.5</ele>
        <time>2020-06-06T13:58:23Z</time>
      </trkpt>
      <trkpt lat="47.67171" lon="-2.92563">
        <ele>34.7</ele>
        <time>2020-06-06T13:58:24Z</time>
      </trkpt>
      <trkpt lat="47.67174" lon="-2.9257">
        <ele>35</ele>
        <time>2020-06-06T13:58:25Z</time>
      </trkpt>
      <trkpt lat="47.67176" lon="-2.92576">
        <ele>35.3</ele>
        <time>2020-06-06T13:58:26Z</time>
      </trkpt>
      <trkpt lat="47.67179" lon="-2.9258">
        <ele>35.5</ele>
        <time>2020-06-06T13:58:27Z</time>
      </trkpt>
      <trkpt lat="47.67182" lon="-2.92586">
        <ele>35.8</ele>
        <time>2020-06-06T13:58:28Z</time>
      </trkpt>
      <trkpt lat="47.67185" lon="-2.92592">
        <ele>36</ele>
        <time>2020-06-06T13:58:29Z</time>
      </trkpt>
      <trkpt lat="47.67187" lon="-2.92598">
        <ele>36.2</ele>
        <time>2020-06-06T13:58:30Z</time>
      </trkpt>
      <trkpt lat="47.67189" lon="-2.92604">
        <ele>36.4</ele>
        <time>2020-06-06T13:58:31Z</time>
      </trkpt>
      <trkpt lat="47.6719" lon="-2.92608">
        <ele>36.6</ele>
        <time>2020-06-06T13:58:32Z</time>
      </trkpt>
      <trkpt lat="47.67192" lon="-2.92614">
        <ele>36.8</ele>
        <time>2020-06-06T13:58:33Z</time>
      </trkpt>
      <trkpt lat="47.67195" lon="-2.9262">
        <ele>36.9</ele>
        <time>2020-06-06T13:58:34Z</time>
      </trkpt>
      <trkpt lat="47.67196" lon="-2.92625">
        <ele>37.1</ele>
        <time>2020-06-06T13:58:35Z</time>
      </trkpt>
      <trkpt lat="47.67198" lon="-2.92632">
        <ele>37.3</ele>
        <time>2020-06-06T13:58:36Z</time>
      </trkpt>
      <trkpt lat="47.67201" lon="-2.92638">
        <ele>37.4</ele>
        <time>2020-06-06T13:58:37Z</time>
      </trkpt>
      <trkpt lat="47.67201" lon="-2.92643">
        <ele>37.5</ele>
        <time>2020-06-06T13:58:38Z</time>
      </trkpt>
      <trkpt lat="47.67205" lon="-2.92649">
        <ele>37.7</ele>
        <time>2020-06-06T13:58:39Z</time>
      </trkpt>
      <trkpt lat="47.67206" lon="-2.92656">
        <ele>37.8</ele>
        <time>2020-06-06T13:58:40Z</time>
      </trkpt>
      <trkpt lat="47.67207" lon="-2.92659">
        <ele>37.9</ele>
        <time>2020-06-06T13:58:41Z</time>
      </trkpt>
      <trkpt lat="47.67209" lon="-2.92664">
        <ele>38</ele>
        <time>2020-06-06T13:58:42Z</time>
      </trkpt>
      <trkpt lat="47.67211" lon="-2.92669">
        <ele>38.1</ele>
        <time>2020-06-06T13:58:43Z</time>
      </trkpt>
      <trkpt lat="47.67212" lon="-2.92675">
        <ele>38.1</ele>
        <time>2020-06-06T13:58:44Z</time>
      </trkpt>
      <trkpt lat="47.67214" lon="-2.92681">
        <ele>38.2</ele>
        <time>2020-06-06T13:58:45Z</time>
      </trkpt>
      <trkpt lat="47.67215" lon="-2.92686">
        <ele>38.2</ele>
        <time>2020-06-06T13:58:46Z</time>
      </trkpt>
      <trkpt lat="47.67217" lon="-2.92691">
        <ele>38.3</ele>
        <time>2020-06-06T13:58:47Z</time>
      </trkpt>
      <trkpt lat="47.67218" lon="-2.92696">
        <ele>38.3</ele>
        <time>2020-06-06T13:58:48Z</time>
      </trkpt>
      <trkpt lat="47.67219" lon="-2.92702">
        <ele>38.3</ele>
        <time>2020-06-06T13:58:49Z</time>
      </trkpt>
      <trkpt lat="47.6722" lon="-2.92708">
        <ele>38.4</ele>
        <time>2020-06-06T13:58:50Z</time>
      </trkpt>
      <trkpt lat="47.67221" lon="-2.92713">
        <ele>38.4</ele>
        <time>2020-06-06T13:58:51Z</time>
      </trkpt>
      <trkpt lat="47.67222" lon="-2.92719">
        <ele>38.4</ele>
        <time>2020-06-06T13:58:52Z</time>
      </trkpt>
      <trkpt lat="47.67222" lon="-2.92721">
        <ele>38.4</ele>
        <time>2020-06-06T13:58:53Z</time>
      </trkpt>
      <trkpt lat="47.67224" lon="-2.92726">
        <ele>38.4</ele>
        <time>2020-06-06T13:58:54Z</time>
      </trkpt>
      <trkpt lat="47.67225" lon="-2.9273">
        <ele>38.4</ele>
        <time>2020-06-06T13:58:55Z</time>
      </trkpt>
      <trkpt lat="47.67227" lon="-2.92735">
        <ele>38.3</ele>
        <time>2020-06-06T13:58:56Z</time>
      </trkpt>
      <trkpt lat="47.67227" lon="-2.9274">
        <ele>38.3</ele>
        <time>2020-06-06T13:58:57Z</time>
      </trkpt>
      <trkpt lat="47.67228" lon="-2.92744">
        <ele>38.3</ele>
        <time>2020-06-06T13:58:58Z</time>
      </trkpt>
      <trkpt lat="47.67229" lon="-2.92749">
        <ele>38.2</ele>
        <time>2020-06-06T13:58:59Z</time>
      </trkpt>
      <trkpt lat="47.6723" lon="-2.92753">
        <ele>38.2</ele>
        <time>2020-06-06T13:59:00Z</time>
      </trkpt>
      <trkpt lat="47.67232" lon="-2.92758">
        <ele>38.1</ele>
        <time>2020-06-06T13:59:01Z</time>
      </trkpt>
      <trkpt lat="47.67232" lon="-2.92759">
        <ele>38.1</ele>
        <time>2020-06-06T13:59:02Z</time>
      </trkpt>
      <trkpt lat="47.67234" lon="-2.92763">
        <ele>38.1</ele>
        <time>2020-06-06T13:59:03Z</time>
      </trkpt>
      <trkpt lat="47.67235" lon="-2.92767">
        <ele>38</ele>
        <time>2020-06-06T13:59:04Z</time>
      </trkpt>
      <trkpt lat="47.67237" lon="-2.92771">
        <ele>38</ele>
        <time>2020-06-06T13:59:05Z</time>
      </trkpt>
      <trkpt lat="47.67238" lon="-2.92777">
        <ele>37.9</ele>
        <time>2020-06-06T13:59:06Z</time>
      </trkpt>
      <trkpt lat="47.67239" lon="-2.92779">
        <ele>37.8</ele>
        <time>2020-06-06T13:59:07Z</time>
      </trkpt>
      <trkpt lat="47.6724" lon="-2.92783">
        <ele>37.8</ele>
        <time>2020-06-06T13:59:08Z</time>
      </trkpt>
      <trkpt lat="47.67241" lon="-2.92788">
        <ele>37.7</ele>
        <time>2020-06-06T13:59:09Z</time>
      </trkpt>
      <trkpt lat="47.67242" lon="-2.92793">
        <ele>37.5</ele>
        <time>2020-06-06T13:59:10Z</time>
      </trkpt>
      <trkpt lat="47.67243" lon="-2.92799">
        <ele>37.4</ele>
        <time>2020-06-06T13:59:11Z</time>
      </trkpt>
      <trkpt lat="47.67245" lon="-2.92804">
        <ele>37.3</ele>
        <time>2020-06-06T13:59:12Z</time>
      </trkpt>
      <trkpt lat="47.67246" lon="-2.92808">
        <ele>37.1</ele>
        <time>2020-06-06T13:59:13Z</time>
      </trkpt>
      <trkpt lat="47.67247" lon="-2.92813">
        <ele>37</ele>
        <time>2020-06-06T13:59:14Z</time>
      </trkpt>
      <trkpt lat="47.67248" lon="-2.92817">
        <ele>36.9</ele>
        <time>2020-06-06T13:59:15Z</time>
      </trkpt>
      <trkpt lat="47.67247" lon="-2.92823">
        <ele>36.7</ele>
        <time>2020-06-06T13:59:16Z</time>
      </trkpt>
      <trkpt lat="47.67247" lon="-2.92829">
        <ele>36.5</ele>
        <time>2020-06-06T13:59:17Z</time>
      </trkpt>
      <trkpt lat="47.67248" lon="-2.92835">
        <ele>36.3</ele>
        <time>2020-06-06T13:59:18Z</time>
      </trkpt>
      <trkpt lat="47.67248" lon="-2.92842">
        <ele>36.1</ele>
        <time>2020-06-06T13:59:19Z</time>
      </trkpt>
      <trkpt lat="47.67249" lon="-2.92847">
        <ele>35.9</ele>
        <time>2020-06-06T13:59:20Z</time>
      </trkpt>
      <trkpt lat="47.6725" lon="-2.92853">
        <ele>35.6</ele>
        <time>2020-06-06T13:59:21Z</time>
      </trkpt>
      <trkpt lat="47.67252" lon="-2.92859">
        <ele>35.4</ele>
        <time>2020-06-06T13:59:22Z</time>
      </trkpt>
      <trkpt lat="47.67253" lon="-2.92866">
        <ele>35.2</ele>
        <time>2020-06-06T13:59:23Z</time>
      </trkpt>
      <trkpt lat="47.67254" lon="-2.92874">
        <ele>34.9</ele>
        <time>2020-06-06T13:59:24Z</time>
      </trkpt>
      <trkpt lat="47.67256" lon="-2.92881">
        <ele>34.7</ele>
        <time>2020-06-06T13:59:25Z</time>
      </trkpt>
      <trkpt lat="47.67257" lon="-2.92889">
        <ele>34.4</ele>
        <time>2020-06-06T13:59:26Z</time>
      </trkpt>
      <trkpt lat="47.67258" lon="-2.92898">
        <ele>34.1</ele>
        <time>2020-06-06T13:59:27Z</time>
      </trkpt>
      <trkpt lat="47.67258" lon="-2.92908">
        <ele>33.7</ele>
        <time>2020-06-06T13:59:28Z</time>
      </trkpt>
      <trkpt lat="47.67258" lon="-2.92918">
        <ele>33.4</ele>
        <time>2020-06-06T13:59:29Z</time>
      </trkpt>
      <trkpt lat="47.67259" lon="-2.92928">
        <ele>33.1</ele>
        <time>2020-06-06T13:59:30Z</time>
      </trkpt>
      <trkpt lat="47.6726" lon="-2.92938">
        <ele>32.7</ele>
        <time>2020-06-06T13:59:31Z</time>
      </trkpt>
      <trkpt lat="47.67262" lon="-2.92947">
        <ele>32.4</ele>
        <time>2020-06-06T13:59:32Z</time>
      </trkpt>
      <trkpt lat="47.67263" lon="-2.92958">
        <ele>32</ele>
        <time>2020-06-06T13:59:33Z</time>
      </trkpt>
      <trkpt lat="47.67264" lon="-2.92968">
        <ele>31.6</ele>
        <time>2020-06-06T13:59:34Z</time>
      </trkpt>
      <trkpt lat="47.67265" lon="-2.92979">
        <ele>31.3</ele>
        <time>2020-06-06T13:59:35Z</time>
      </trkpt>
      <trkpt lat="47.67265" lon="-2.9299">
        <ele>30.9</ele>
        <time>2020-06-06T13:59:36Z</time>
      </trkpt>
      <trkpt lat="47.67266" lon="-2.93">
        <ele>30.7</ele>
        <time>2020-06-06T13:59:37Z</time>
      </trkpt>
      <trkpt lat="47.67267" lon="-2.93011">
        <ele>30.4</ele>
        <time>2020-06-06T13:59:38Z</time>
      </trkpt>
      <trkpt lat="47.67268" lon="-2.93022">
        <ele>30.2</ele>
        <time>2020-06-06T13:59:39Z</time>
      </trkpt>
      <trkpt lat="47.67269" lon="-2.93032">
        <ele>30.1</ele>
        <time>2020-06-06T13:59:40Z</time>
      </trkpt>
      <trkpt lat="47.6727" lon="-2.93043">
        <ele>30</ele>
        <time>2020-06-06T13:59:41Z</time>
      </trkpt>
      <trkpt lat="47.6727" lon="-2.93053">
        <ele>29.7</ele>
        <time>2020-06-06T13:59:42Z</time>
      </trkpt>
      <trkpt lat="47.67271" lon="-2.93064">
        <ele>29.6</ele>
        <time>2020-06-06T13:59:43Z</time>
      </trkpt>
      <trkpt lat="47.67271" lon="-2.93074">
        <ele>29.5</ele>
        <time>2020-06-06T13:59:44Z</time>
      </trkpt>
      <trkpt lat="47.67272" lon="-2.93083">
        <ele>29.5</ele>
        <time>2020-06-06T13:59:45Z</time>
      </trkpt>
      <trkpt lat="47.67273" lon="-2.93094">
        <ele>29.5</ele>
        <time>2020-06-06T13:59:46Z</time>
      </trkpt>
      <trkpt lat="47.67273" lon="-2.93104">
        <ele>29.5</ele>
        <time>2020-06-06T13:59:47Z</time>
      </trkpt>
      <trkpt lat="47.67273" lon="-2.93113">
        <ele>29.6</ele>
        <time>2020-06-06T13:59:48Z</time>
      </trkpt>
      <trkpt lat="47.67273" lon="-2.93123">
        <ele>29.7</ele>
        <time>2020-06-06T13:59:49Z</time>
      </trkpt>
      <trkpt lat="47.67273" lon="-2.93132">
        <ele>29.7</ele>
        <time>2020-06-06T13:59:50Z</time>
      </trkpt>
      <trkpt lat="47.67274" lon="-2.93141">
        <ele>29.8</ele>
        <time>2020-06-06T13:59:51Z</time>
      </trkpt>
      <trkpt lat="47.67274" lon="-2.9315">
        <ele>29.9</ele>
        <time>2020-06-06T13:59:52Z</time>
      </trkpt>
      <trkpt lat="47.67275" lon="-2.93159">
        <ele>29.9</ele>
        <time>2020-06-06T13:59:53Z</time>
      </trkpt>
      <trkpt lat="47.67275" lon="-2.93167">
        <ele>30</ele>
        <time>2020-06-06T13:59:54Z</time>
      </trkpt>
      <trkpt lat="47.67276" lon="-2.93174">
        <ele>30.1</ele>
        <time>2020-06-06T13:59:55Z</time>
      </trkpt>
      <trkpt lat="47.67276" lon="-2.93182">
        <ele>30.2</ele>
        <time>2020-06-06T13:59:56Z</time>
      </trkpt>
      <trkpt lat="47.67276" lon="-2.9319">
        <ele>30.3</ele>
        <time>2020-06-06T13:59:57Z</time>
      </trkpt>
      <trkpt lat="47.67276" lon="-2.93197">
        <ele>30.4</ele>
        <time>2020-06-06T13:59:58Z</time>
      </trkpt>
      <trkpt lat="47.67276" lon="-2.93204">
        <ele>30.5</ele>
        <time>2020-06-06T13:59:59Z</time>
      </trkpt>
      <trkpt lat="47.67276" lon="-2.93212">
        <ele>30.6</ele>
        <time>2020-06-06T14:00:00Z</time>
      </trkpt>
      <trkpt lat="47.67277" lon="-2.93219">
        <ele>30.7</ele>
        <time>2020-06-06T14:00:01Z</time>
      </trkpt>
      <trkpt lat="47.67278" lon="-2.93226">
        <ele>30.8</ele>
        <time>2020-06-06T14:00:02Z</time>
      </trkpt>
      <trkpt lat="47.67278" lon="-2.93234">
        <ele>30.9</ele>
        <time>2020-06-06T14:00:03Z</time>
      </trkpt>
      <trkpt lat="47.67277" lon="-2.93241">
        <ele>31</ele>
        <time>2020-06-06T14:00:04Z</time>
      </trkpt>
      <trkpt lat="47.67278" lon="-2.93249">
        <ele>31.1</ele>
        <time>2020-06-06T14:00:05Z</time>
      </trkpt>
      <trkpt lat="47.67278" lon="-2.93258">
        <ele>31.2</ele>
        <time>2020-06-06T14:00:06Z</time>
      </trkpt>
      <trkpt lat="47.67277" lon="-2.93266">
        <ele>31.3</ele>
        <time>2020-06-06T14:00:07Z</time>
      </trkpt>
      <trkpt lat="47.67277" lon="-2.93274">
        <ele>31.5</ele>
        <time>2020-06-06T14:00:08Z</time>
      </trkpt>
      <trkpt lat="47.67277" lon="-2.93282">
        <ele>31.6</ele>
        <time>2020-06-06T14:00:09Z</time>
      </trkpt>
      <trkpt lat="47.67277" lon="-2.9329">
        <ele>31.7</ele>
        <time>2020-06-06T14:00:10Z</time>
      </trkpt>
      <trkpt lat="47.67277" lon="-2.93297">
        <ele>31.8</ele>
        <time>2020-06-06T14:00:11Z</time>
      </trkpt>
      <trkpt lat="47.67277" lon="-2.93305">
        <ele>31.9</ele>
        <time>2020-06-06T14:00:12Z</time>
      </trkpt>
      <trkpt lat="47.67277" lon="-2.93312">
        <ele>32</ele>
        <time>2020-06-06T14:00:13Z</time>
      </trkpt>
      <trkpt lat="47.67278" lon="-2.9332">
        <ele>32.2</ele>
        <time>2020-06-06T14:00:14Z</time>
      </trkpt>
      <trkpt lat="47.67278" lon="-2.93328">
        <ele>32.3</ele>
        <time>2020-06-06T14:00:15Z</time>
      </trkpt>
      <trkpt lat="47.67279" lon="-2.93336">
        <ele>32.5</ele>
        <time>2020-06-06T14:00:16Z</time>
      </trkpt>
      <trkpt lat="47.67278" lon="-2.93343">
        <ele>32.6</ele>
        <time>2020-06-06T14:00:17Z</time>
      </trkpt>
      <trkpt lat="47.67277" lon="-2.9335">
        <ele>32.8</ele>
        <time>2020-06-06T14:00:18Z</time>
      </trkpt>
      <trkpt lat="47.67276" lon="-2.93358">
        <ele>33</ele>
        <time>2020-06-06T14:00:19Z</time>
      </trkpt>
      <trkpt lat="47.67276" lon="-2.93367">
        <ele>33</ele>
        <time>2020-06-06T14:00:20Z</time>
      </trkpt>
      <trkpt lat="47.67276" lon="-2.93375">
        <ele>33.1</ele>
        <time>2020-06-06T14:00:21Z</time>
      </trkpt>
      <trkpt lat="47.67275" lon="-2.93384">
        <ele>33.2</ele>
        <time>2020-06-06T14:00:22Z</time>
      </trkpt>
      <trkpt lat="47.67274" lon="-2.93394">
        <ele>33.4</ele>
        <time>2020-06-06T14:00:23Z</time>
      </trkpt>
      <trkpt lat="47.67274" lon="-2.93401">
        <ele>33.5</ele>
        <time>2020-06-06T14:00:24Z</time>
      </trkpt>
      <trkpt lat="47.67273" lon="-2.93409">
        <ele>33.6</ele>
        <time>2020-06-06T14:00:25Z</time>
      </trkpt>
      <trkpt lat="47.67272" lon="-2.93418">
        <ele>33.7</ele>
        <time>2020-06-06T14:00:26Z</time>
      </trkpt>
      <trkpt lat="47.67272" lon="-2.93425">
        <ele>33.8</ele>
        <time>2020-06-06T14:00:27Z</time>
      </trkpt>
      <trkpt lat="47.67271" lon="-2.93431">
        <ele>33.8</ele>
        <time>2020-06-06T14:00:28Z</time>
      </trkpt>
      <trkpt lat="47.6727" lon="-2.93438">
        <ele>33.9</ele>
        <time>2020-06-06T14:00:29Z</time>
      </trkpt>
      <trkpt lat="47.67269" lon="-2.93448">
        <ele>34</ele>
        <time>2020-06-06T14:00:30Z</time>
      </trkpt>
      <trkpt lat="47.67268" lon="-2.93457">
        <ele>34.1</ele>
        <time>2020-06-06T14:00:31Z</time>
      </trkpt>
      <trkpt lat="47.67267" lon="-2.93465">
        <ele>34.2</ele>
        <time>2020-06-06T14:00:32Z</time>
      </trkpt>
      <trkpt lat="47.67266" lon="-2.93473">
        <ele>34.3</ele>
        <time>2020-06-06T14:00:33Z</time>
      </trkpt>
      <trkpt lat="47.67265" lon="-2.93483">
        <ele>34.4</ele>
        <time>2020-06-06T14:00:34Z</time>
      </trkpt>
      <trkpt lat="47.67264" lon="-2.9349">
        <ele>34.5</ele>
        <time>2020-06-06T14:00:35Z</time>
      </trkpt>
      <trkpt lat="47.67263" lon="-2.93498">
        <ele>34.6</ele>
        <time>2020-06-06T14:00:36Z</time>
      </trkpt>
      <trkpt lat="47.67262" lon="-2.93505">
        <ele>34.7</ele>
        <time>2020-06-06T14:00:37Z</time>
      </trkpt>
      <trkpt lat="47.67262" lon="-2.93512">
        <ele>34.8</ele>
        <time>2020-06-06T14:00:38Z</time>
      </trkpt>
      <trkpt lat="47.67261" lon="-2.93519">
        <ele>34.9</ele>
        <time>2020-06-06T14:00:39Z</time>
      </trkpt>
      <trkpt lat="47.6726" lon="-2.93526">
        <ele>35</ele>
        <time>2020-06-06T14:00:40Z</time>
      </trkpt>
      <trkpt lat="47.67259" lon="-2.93533">
        <ele>35.1</ele>
        <time>2020-06-06T14:00:41Z</time>
      </trkpt>
      <trkpt lat="47.67258" lon="-2.93543">
        <ele>35.2</ele>
        <time>2020-06-06T14:00:42Z</time>
      </trkpt>
      <trkpt lat="47.67257" lon="-2.93549">
        <ele>35.2</ele>
        <time>2020-06-06T14:00:43Z</time>
      </trkpt>
      <trkpt lat="47.67256" lon="-2.93556">
        <ele>35.3</ele>
        <time>2020-06-06T14:00:44Z</time>
      </trkpt>
      <trkpt lat="47.67255" lon="-2.93563">
        <ele>35.3</ele>
        <time>2020-06-06T14:00:45Z</time>
      </trkpt>
      <trkpt lat="47.67254" lon="-2.93569">
        <ele>35.3</ele>
        <time>2020-06-06T14:00:46Z</time>
      </trkpt>
      <trkpt lat="47.67252" lon="-2.93577">
        <ele>35.4</ele>
        <time>2020-06-06T14:00:47Z</time>
      </trkpt>
      <trkpt lat="47.67251" lon="-2.93585">
        <ele>35.4</ele>
        <time>2020-06-06T14:00:48Z</time>
      </trkpt>
      <trkpt lat="47.6725" lon="-2.93592">
        <ele>35.4</ele>
        <time>2020-06-06T14:00:49Z</time>
      </trkpt>
      <trkpt lat="47.67249" lon="-2.93601">
        <ele>35.4</ele>
        <time>2020-06-06T14:00:50Z</time>
      </trkpt>
      <trkpt lat="47.67248" lon="-2.93609">
        <ele>35.4</ele>
        <time>2020-06-06T14:00:51Z</time>
      </trkpt>
      <trkpt lat="47.67246" lon="-2.93617">
        <ele>35.5</ele>
        <time>2020-06-06T14:00:52Z</time>
      </trkpt>
      <trkpt lat="47.67245" lon="-2.93625">
        <ele>35.5</ele>
        <time>2020-06-06T14:00:53Z</time>
      </trkpt>
      <trkpt lat="47.67243" lon="-2.93635">
        <ele>35.5</ele>
        <time>2020-06-06T14:00:54Z</time>
      </trkpt>
      <trkpt lat="47.67242" lon="-2.93642">
        <ele>35.5</ele>
        <time>2020-06-06T14:00:55Z</time>
      </trkpt>
      <trkpt lat="47.67242" lon="-2.93649">
        <ele>35.5</ele>
        <time>2020-06-06T14:00:56Z</time>
      </trkpt>
      <trkpt lat="47.6724" lon="-2.93657">
        <ele>35.5</ele>
        <time>2020-06-06T14:00:57Z</time>
      </trkpt>
      <trkpt lat="47.67238" lon="-2.93665">
        <ele>35.5</ele>
        <time>2020-06-06T14:00:58Z</time>
      </trkpt>
      <trkpt lat="47.67237" lon="-2.93674">
        <ele>35.5</ele>
        <time>2020-06-06T14:00:59Z</time>
      </trkpt>
      <trkpt lat="47.67235" lon="-2.93681">
        <ele>35.5</ele>
        <time>2020-06-06T14:01:00Z</time>
      </trkpt>
      <trkpt lat="47.67233" lon="-2.93689">
        <ele>35.4</ele>
        <time>2020-06-06T14:01:01Z</time>
      </trkpt>
      <trkpt lat="47.67231" lon="-2.93697">
        <ele>35.4</ele>
        <time>2020-06-06T14:01:02Z</time>
      </trkpt>
      <trkpt lat="47.67229" lon="-2.93705">
        <ele>35.3</ele>
        <time>2020-06-06T14:01:03Z</time>
      </trkpt>
      <trkpt lat="47.67227" lon="-2.93713">
        <ele>35.3</ele>
        <time>2020-06-06T14:01:04Z</time>
      </trkpt>
      <trkpt lat="47.67226" lon="-2.9372">
        <ele>35.2</ele>
        <time>2020-06-06T14:01:05Z</time>
      </trkpt>
      <trkpt lat="47.67223" lon="-2.93729">
        <ele>35.2</ele>
        <time>2020-06-06T14:01:06Z</time>
      </trkpt>
      <trkpt lat="47.67221" lon="-2.93739">
        <ele>35.1</ele>
        <time>2020-06-06T14:01:07Z</time>
      </trkpt>
      <trkpt lat="47.67218" lon="-2.93748">
        <ele>35.1</ele>
        <time>2020-06-06T14:01:08Z</time>
      </trkpt>
      <trkpt lat="47.67215" lon="-2.93756">
        <ele>35</ele>
        <time>2020-06-06T14:01:09Z</time>
      </trkpt>
      <trkpt lat="47.67214" lon="-2.93765">
        <ele>34.9</ele>
        <time>2020-06-06T14:01:10Z</time>
      </trkpt>
      <trkpt lat="47.67212" lon="-2.93773">
        <ele>34.7</ele>
        <time>2020-06-06T14:01:11Z</time>
      </trkpt>
      <trkpt lat="47.67209" lon="-2.93782">
        <ele>34.6</ele>
        <time>2020-06-06T14:01:12Z</time>
      </trkpt>
      <trkpt lat="47.67207" lon="-2.9379">
        <ele>34.5</ele>
        <time>2020-06-06T14:01:13Z</time>
      </trkpt>
      <trkpt lat="47.67204" lon="-2.938">
        <ele>34.3</ele>
        <time>2020-06-06T14:01:14Z</time>
      </trkpt>
      <trkpt lat="47.67202" lon="-2.93809">
        <ele>34.2</ele>
        <time>2020-06-06T14:01:15Z</time>
      </trkpt>
      <trkpt lat="47.67201" lon="-2.93819">
        <ele>34</ele>
        <time>2020-06-06T14:01:16Z</time>
      </trkpt>
      <trkpt lat="47.67199" lon="-2.93828">
        <ele>33.8</ele>
        <time>2020-06-06T14:01:17Z</time>
      </trkpt>
      <trkpt lat="47.67196" lon="-2.93838">
        <ele>33.5</ele>
        <time>2020-06-06T14:01:18Z</time>
      </trkpt>
      <trkpt lat="47.67194" lon="-2.93848">
        <ele>33.2</ele>
        <time>2020-06-06T14:01:19Z</time>
      </trkpt>
      <trkpt lat="47.67192" lon="-2.93857">
        <ele>32.9</ele>
        <time>2020-06-06T14:01:20Z</time>
      </trkpt>
      <trkpt lat="47.67189" lon="-2.93867">
        <ele>32.8</ele>
        <time>2020-06-06T14:01:21Z</time>
      </trkpt>
      <trkpt lat="47.67187" lon="-2.93876">
        <ele>32.6</ele>
        <time>2020-06-06T14:01:22Z</time>
      </trkpt>
      <trkpt lat="47.67185" lon="-2.93886">
        <ele>32.5</ele>
        <time>2020-06-06T14:01:23Z</time>
      </trkpt>
      <trkpt lat="47.67184" lon="-2.93895">
        <ele>32.2</ele>
        <time>2020-06-06T14:01:24Z</time>
      </trkpt>
      <trkpt lat="47.67181" lon="-2.93905">
        <ele>32</ele>
        <time>2020-06-06T14:01:25Z</time>
      </trkpt>
      <trkpt lat="47.67179" lon="-2.93915">
        <ele>31.7</ele>
        <time>2020-06-06T14:01:26Z</time>
      </trkpt>
      <trkpt lat="47.67177" lon="-2.93925">
        <ele>31.4</ele>
        <time>2020-06-06T14:01:27Z</time>
      </trkpt>
      <trkpt lat="47.67175" lon="-2.93936">
        <ele>31.1</ele>
        <time>2020-06-06T14:01:28Z</time>
      </trkpt>
      <trkpt lat="47.67173" lon="-2.93946">
        <ele>30.8</ele>
        <time>2020-06-06T14:01:29Z</time>
      </trkpt>
      <trkpt lat="47.67171" lon="-2.93957">
        <ele>30.4</ele>
        <time>2020-06-06T14:01:30Z</time>
      </trkpt>
      <trkpt lat="47.67169" lon="-2.93967">
        <ele>30</ele>
        <time>2020-06-06T14:01:31Z</time>
      </trkpt>
      <trkpt lat="47.67166" lon="-2.93977">
        <ele>29.6</ele>
        <time>2020-06-06T14:01:32Z</time>
      </trkpt>
      <trkpt lat="47.67164" lon="-2.93988">
        <ele>29.1</ele>
        <time>2020-06-06T14:01:33Z</time>
      </trkpt>
      <trkpt lat="47.67161" lon="-2.93999">
        <ele>28.7</ele>
        <time>2020-06-06T14:01:34Z</time>
      </trkpt>
      <trkpt lat="47.67158" lon="-2.9401">
        <ele>28.3</ele>
        <time>2020-06-06T14:01:35Z</time>
      </trkpt>
      <trkpt lat="47.67155" lon="-2.94021">
        <ele>27.9</ele>
        <time>2020-06-06T14:01:36Z</time>
      </trkpt>
      <trkpt lat="47.67153" lon="-2.94032">
        <ele>27.4</ele>
        <time>2020-06-06T14:01:37Z</time>
      </trkpt>
      <trkpt lat="47.67151" lon="-2.94043">
        <ele>26.9</ele>
        <time>2020-06-06T14:01:38Z</time>
      </trkpt>
      <trkpt lat="47.67148" lon="-2.94054">
        <ele>26.4</ele>
        <time>2020-06-06T14:01:39Z</time>
      </trkpt>
      <trkpt lat="47.67146" lon="-2.94065">
        <ele>26</ele>
        <time>2020-06-06T14:01:40Z</time>
      </trkpt>
      <trkpt lat="47.67144" lon="-2.94077">
        <ele>25.5</ele>
        <time>2020-06-06T14:01:41Z</time>
      </trkpt>
      <trkpt lat="47.67141" lon="-2.94089">
        <ele>25</ele>
        <time>2020-06-06T14:01:42Z</time>
      </trkpt>
      <trkpt lat="47.67138" lon="-2.94101">
        <ele>24.4</ele>
        <time>2020-06-06T14:01:43Z</time>
      </trkpt>
      <trkpt lat="47.67135" lon="-2.94114">
        <ele>23.8</ele>
        <time>2020-06-06T14:01:44Z</time>
      </trkpt>
      <trkpt lat="47.67133" lon="-2.94126">
        <ele>23.2</ele>
        <time>2020-06-06T14:01:45Z</time>
      </trkpt>
      <trkpt lat="47.6713" lon="-2.94139">
        <ele>22.7</ele>
        <time>2020-06-06T14:01:46Z</time>
      </trkpt>
      <trkpt lat="47.67127" lon="-2.94152">
        <ele>22.2</ele>
        <time>2020-06-06T14:01:47Z</time>
      </trkpt>
      <trkpt lat="47.67124" lon="-2.94165">
        <ele>21.9</ele>
        <time>2020-06-06T14:01:48Z</time>
      </trkpt>
      <trkpt lat="47.67121" lon="-2.94178">
        <ele>21.5</ele>
        <time>2020-06-06T14:01:49Z</time>
      </trkpt>
      <trkpt lat="47.67118" lon="-2.94191">
        <ele>21.4</ele>
        <time>2020-06-06T14:01:50Z</time>
      </trkpt>
      <trkpt lat="47.67115" lon="-2.94203">
        <ele>21.3</ele>
        <time>2020-06-06T14:01:51Z</time>
      </trkpt>
      <trkpt lat="47.67112" lon="-2.94216">
        <ele>21.1</ele>
        <time>2020-06-06T14:01:52Z</time>
      </trkpt>
      <trkpt lat="47.6711" lon="-2.94229">
        <ele>21</ele>
        <time>2020-06-06T14:01:53Z</time>
      </trkpt>
      <trkpt lat="47.67107" lon="-2.94241">
        <ele>21</ele>
        <time>2020-06-06T14:01:54Z</time>
      </trkpt>
      <trkpt lat="47.67104" lon="-2.94253">
        <ele>21</ele>
        <time>2020-06-06T14:01:55Z</time>
      </trkpt>
      <trkpt lat="47.67102" lon="-2.94264">
        <ele>21.1</ele>
        <time>2020-06-06T14:01:56Z</time>
      </trkpt>
      <trkpt lat="47.67099" lon="-2.94275">
        <ele>21.2</ele>
        <time>2020-06-06T14:01:57Z</time>
      </trkpt>
      <trkpt lat="47.67097" lon="-2.94285">
        <ele>21.3</ele>
        <time>2020-06-06T14:01:58Z</time>
      </trkpt>
      <trkpt lat="47.67094" lon="-2.94295">
        <ele>21.4</ele>
        <time>2020-06-06T14:01:59Z</time>
      </trkpt>
      <trkpt lat="47.67092" lon="-2.94305">
        <ele>21.5</ele>
        <time>2020-06-06T14:02:00Z</time>
      </trkpt>
      <trkpt lat="47.6709" lon="-2.94315">
        <ele>21.6</ele>
        <time>2020-06-06T14:02:01Z</time>
      </trkpt>
      <trkpt lat="47.67088" lon="-2.94324">
        <ele>21.7</ele>
        <time>2020-06-06T14:02:02Z</time>
      </trkpt>
      <trkpt lat="47.67086" lon="-2.94334">
        <ele>21.8</ele>
        <time>2020-06-06T14:02:03Z</time>
      </trkpt>
      <trkpt lat="47.67084" lon="-2.94343">
        <ele>21.9</ele>
        <time>2020-06-06T14:02:04Z</time>
      </trkpt>
      <trkpt lat="47.67082" lon="-2.94353">
        <ele>21.9</ele>
        <time>2020-06-06T14:02:05Z</time>
      </trkpt>
      <trkpt lat="47.6708" lon="-2.94362">
        <ele>22</ele>
        <time>2020-06-06T14:02:06Z</time>
      </trkpt>
      <trkpt lat="47.67079" lon="-2.94371">
        <ele>22.1</ele>
        <time>2020-06-06T14:02:07Z</time>
      </trkpt>
      <trkpt lat="47.67076" lon="-2.94379">
        <ele>22.2</ele>
        <time>2020-06-06T14:02:08Z</time>
      </trkpt>
      <trkpt lat="47.67074" lon="-2.94388">
        <ele>22.3</ele>
        <time>2020-06-06T14:02:09Z</time>
      </trkpt>
      <trkpt lat="47.67072" lon="-2.94397">
        <ele>22.4</ele>
        <time>2020-06-06T14:02:10Z</time>
      </trkpt>
      <trkpt lat="47.6707" lon="-2.94406">
        <ele>22.5</ele>
        <time>2020-06-06T14:02:11Z</time>
      </trkpt>
      <trkpt lat="47.67068" lon="-2.94415">
        <ele>22.5</ele>
        <time>2020-06-06T14:02:12Z</time>
      </trkpt>
      <trkpt lat="47.67065" lon="-2.94425">
        <ele>22.6</ele>
        <time>2020-06-06T14:02:13Z</time>
      </trkpt>
      <trkpt lat="47.67063" lon="-2.94434">
        <ele>22.7</ele>
        <time>2020-06-06T14:02:14Z</time>
      </trkpt>
      <trkpt lat="47.67061" lon="-2.94443">
        <ele>22.8</ele>
        <time>2020-06-06T14:02:15Z</time>
      </trkpt>
      <trkpt lat="47.67059" lon="-2.94452">
        <ele>22.8</ele>
        <time>2020-06-06T14:02:16Z</time>
      </trkpt>
      <trkpt lat="47.67057" lon="-2.9446">
        <ele>22.8</ele>
        <time>2020-06-06T14:02:17Z</time>
      </trkpt>
      <trkpt lat="47.67055" lon="-2.94469">
        <ele>22.8</ele>
        <time>2020-06-06T14:02:18Z</time>
      </trkpt>
      <trkpt lat="47.67053" lon="-2.94478">
        <ele>22.8</ele>
        <time>2020-06-06T14:02:19Z</time>
      </trkpt>
      <trkpt lat="47.67051" lon="-2.94487">
        <ele>22.9</ele>
        <time>2020-06-06T14:02:20Z</time>
      </trkpt>
      <trkpt lat="47.67049" lon="-2.94496">
        <ele>22.9</ele>
        <time>2020-06-06T14:02:21Z</time>
      </trkpt>
      <trkpt lat="47.67047" lon="-2.94504">
        <ele>23</ele>
        <time>2020-06-06T14:02:22Z</time>
      </trkpt>
      <trkpt lat="47.67045" lon="-2.94512">
        <ele>23</ele>
        <time>2020-06-06T14:02:23Z</time>
      </trkpt>
      <trkpt lat="47.67042" lon="-2.94521">
        <ele>23</ele>
        <time>2020-06-06T14:02:24Z</time>
      </trkpt>
      <trkpt lat="47.6704" lon="-2.94529">
        <ele>23.1</ele>
        <time>2020-06-06T14:02:25Z</time>
      </trkpt>
      <trkpt lat="47.67038" lon="-2.94537">
        <ele>23.1</ele>
        <time>2020-06-06T14:02:26Z</time>
      </trkpt>
      <trkpt lat="47.67036" lon="-2.94545">
        <ele>23</ele>
        <time>2020-06-06T14:02:27Z</time>
      </trkpt>
      <trkpt lat="47.67034" lon="-2.94553">
        <ele>23</ele>
        <time>2020-06-06T14:02:28Z</time>
      </trkpt>
      <trkpt lat="47.67032" lon="-2.94561">
        <ele>22.9</ele>
        <time>2020-06-06T14:02:29Z</time>
      </trkpt>
      <trkpt lat="47.6703" lon="-2.94569">
        <ele>22.9</ele>
        <time>2020-06-06T14:02:30Z</time>
      </trkpt>
      <trkpt lat="47.67029" lon="-2.94578">
        <ele>22.8</ele>
        <time>2020-06-06T14:02:31Z</time>
      </trkpt>
      <trkpt lat="47.67027" lon="-2.94586">
        <ele>22.7</ele>
        <time>2020-06-06T14:02:32Z</time>
      </trkpt>
      <trkpt lat="47.67025" lon="-2.94593">
        <ele>22.7</ele>
        <time>2020-06-06T14:02:33Z</time>
      </trkpt>
      <trkpt lat="47.67024" lon="-2.94601">
        <ele>22.6</ele>
        <time>2020-06-06T14:02:34Z</time>
      </trkpt>
      <trkpt lat="47.67022" lon="-2.94609">
        <ele>22.6</ele>
        <time>2020-06-06T14:02:35Z</time>
      </trkpt>
      <trkpt lat="47.67021" lon="-2.94617">
        <ele>22.5</ele>
        <time>2020-06-06T14:02:36Z</time>
      </trkpt>
      <trkpt lat="47.67019" lon="-2.94625">
        <ele>22.4</ele>
        <time>2020-06-06T14:02:37Z</time>
      </trkpt>
      <trkpt lat="47.67017" lon="-2.94633">
        <ele>22.3</ele>
        <time>2020-06-06T14:02:38Z</time>
      </trkpt>
      <trkpt lat="47.67014" lon="-2.94641">
        <ele>22.1</ele>
        <time>2020-06-06T14:02:39Z</time>
      </trkpt>
      <trkpt lat="47.67012" lon="-2.94648">
        <ele>22</ele>
        <time>2020-06-06T14:02:40Z</time>
      </trkpt>
      <trkpt lat="47.6701" lon="-2.94657">
        <ele>21.9</ele>
        <time>2020-06-06T14:02:41Z</time>
      </trkpt>
      <trkpt lat="47.67007" lon="-2.94666">
        <ele>21.7</ele>
        <time>2020-06-06T14:02:42Z</time>
      </trkpt>
      <trkpt lat="47.67004" lon="-2.94675">
        <ele>21.6</ele>
        <time>2020-06-06T14:02:43Z</time>
      </trkpt>
      <trkpt lat="47.67001" lon="-2.94683">
        <ele>21.4</ele>
        <time>2020-06-06T14:02:44Z</time>
      </trkpt>
      <trkpt lat="47.66999" lon="-2.94692">
        <ele>21.2</ele>
        <time>2020-06-06T14:02:45Z</time>
      </trkpt>
      <trkpt lat="47.66997" lon="-2.947">
        <ele>21.1</ele>
        <time>2020-06-06T14:02:46Z</time>
      </trkpt>
      <trkpt lat="47.66996" lon="-2.94708">
        <ele>20.9</ele>
        <time>2020-06-06T14:02:47Z</time>
      </trkpt>
      <trkpt lat="47.66994" lon="-2.94717">
        <ele>20.7</ele>
        <time>2020-06-06T14:02:48Z</time>
      </trkpt>
      <trkpt lat="47.66993" lon="-2.94725">
        <ele>20.6</ele>
        <time>2020-06-06T14:02:49Z</time>
      </trkpt>
      <trkpt lat="47.66991" lon="-2.94733">
        <ele>20.4</ele>
        <time>2020-06-06T14:02:50Z</time>
      </trkpt>
      <trkpt lat="47.66989" lon="-2.94742">
        <ele>20.3</ele>
        <time>2020-06-06T14:02:51Z</time>
      </trkpt>
      <trkpt lat="47.66986" lon="-2.9475">
        <ele>20.1</ele>
        <time>2020-06-06T14:02:52Z</time>
      </trkpt>
      <trkpt lat="47.66984" lon="-2.94758">
        <ele>19.9</ele>
        <time>2020-06-06T14:02:53Z</time>
      </trkpt>
      <trkpt lat="47.66982" lon="-2.94766">
        <ele>19.7</ele>
        <time>2020-06-06T14:02:54Z</time>
      </trkpt>
      <trkpt lat="47.6698" lon="-2.94773">
        <ele>19.5</ele>
        <time>2020-06-06T14:02:55Z</time>
      </trkpt>
      <trkpt lat="47.66979" lon="-2.94781">
        <ele>19.4</ele>
        <time>2020-06-06T14:02:56Z</time>
      </trkpt>
      <trkpt lat="47.66977" lon="-2.94789">
        <ele>19.2</ele>
        <time>2020-06-06T14:02:57Z</time>
      </trkpt>
      <trkpt lat="47.66976" lon="-2.94796">
        <ele>19</ele>
        <time>2020-06-06T14:02:58Z</time>
      </trkpt>
      <trkpt lat="47.66974" lon="-2.94804">
        <ele>18.8</ele>
        <time>2020-06-06T14:02:59Z</time>
      </trkpt>
      <trkpt lat="47.66973" lon="-2.94811">
        <ele>18.7</ele>
        <time>2020-06-06T14:03:00Z</time>
      </trkpt>
      <trkpt lat="47.66972" lon="-2.94819">
        <ele>18.5</ele>
        <time>2020-06-06T14:03:01Z</time>
      </trkpt>
      <trkpt lat="47.66972" lon="-2.94827">
        <ele>18.4</ele>
        <time>2020-06-06T14:03:02Z</time>
      </trkpt>
      <trkpt lat="47.66972" lon="-2.94835">
        <ele>18.2</ele>
        <time>2020-06-06T14:03:03Z</time>
      </trkpt>
      <trkpt lat="47.66974" lon="-2.94843">
        <ele>18</ele>
        <time>2020-06-06T14:03:04Z</time>
      </trkpt>
      <trkpt lat="47.66977" lon="-2.94851">
        <ele>17.9</ele>
        <time>2020-06-06T14:03:05Z</time>
      </trkpt>
      <trkpt lat="47.66981" lon="-2.94857">
        <ele>17.7</ele>
        <time>2020-06-06T14:03:06Z</time>
      </trkpt>
      <trkpt lat="47.66985" lon="-2.94862">
        <ele>17.6</ele>
        <time>2020-06-06T14:03:07Z</time>
      </trkpt>
      <trkpt lat="47.66989" lon="-2.94867">
        <ele>17.4</ele>
        <time>2020-06-06T14:03:08Z</time>
      </trkpt>
      <trkpt lat="47.66993" lon="-2.9487">
        <ele>17.3</ele>
        <time>2020-06-06T14:03:09Z</time>
      </trkpt>
      <trkpt lat="47.66998" lon="-2.94872">
        <ele>17.2</ele>
        <time>2020-06-06T14:03:10Z</time>
      </trkpt>
      <trkpt lat="47.67002" lon="-2.94872">
        <ele>17.2</ele>
        <time>2020-06-06T14:03:11Z</time>
      </trkpt>
      <trkpt lat="47.67007" lon="-2.94872">
        <ele>17.1</ele>
        <time>2020-06-06T14:03:12Z</time>
      </trkpt>
      <trkpt lat="47.67012" lon="-2.94872">
        <ele>17</ele>
        <time>2020-06-06T14:03:13Z</time>
      </trkpt>
      <trkpt lat="47.67017" lon="-2.94873">
        <ele>17</ele>
        <time>2020-06-06T14:03:14Z</time>
      </trkpt>
      <trkpt lat="47.67023" lon="-2.94873">
        <ele>16.9</ele>
        <time>2020-06-06T14:03:15Z</time>
      </trkpt>
      <trkpt lat="47.67027" lon="-2.94877">
        <ele>16.9</ele>
        <time>2020-06-06T14:03:16Z</time>
      </trkpt>
      <trkpt lat="47.67029" lon="-2.94883">
        <ele>16.9</ele>
        <time>2020-06-06T14:03:17Z</time>
      </trkpt>
      <trkpt lat="47.67031" lon="-2.94891">
        <ele>16.9</ele>
        <time>2020-06-06T14:03:18Z</time>
      </trkpt>
      <trkpt lat="47.6703" lon="-2.94899">
        <ele>16.8</ele>
        <time>2020-06-06T14:03:19Z</time>
      </trkpt>
      <trkpt lat="47.67029" lon="-2.94906">
        <ele>16.7</ele>
        <time>2020-06-06T14:03:20Z</time>
      </trkpt>
      <trkpt lat="47.67026" lon="-2.94912">
        <ele>16.7</ele>
        <time>2020-06-06T14:03:21Z</time>
      </trkpt>
      <trkpt lat="47.67022" lon="-2.94917">
        <ele>16.6</ele>
        <time>2020-06-06T14:03:22Z</time>
      </trkpt>
      <trkpt lat="47.67017" lon="-2.94923">
        <ele>16.5</ele>
        <time>2020-06-06T14:03:23Z</time>
      </trkpt>
      <trkpt lat="47.67012" lon="-2.94926">
        <ele>16.5</ele>
        <time>2020-06-06T14:03:24Z</time>
      </trkpt>
      <trkpt lat="47.67007" lon="-2.94928">
        <ele>16.4</ele>
        <time>2020-06-06T14:03:25Z</time>
      </trkpt>
      <trkpt lat="47.67001" lon="-2.94929">
        <ele>16.4</ele>
        <time>2020-06-06T14:03:26Z</time>
      </trkpt>
      <trkpt lat="47.66996" lon="-2.94933">
        <ele>16.4</ele>
        <time>2020-06-06T14:03:27Z</time>
      </trkpt>
      <trkpt lat="47.66991" lon="-2.94937">
        <ele>16.4</ele>
        <time>2020-06-06T14:03:28Z</time>
      </trkpt>
      <trkpt lat="47.66987" lon="-2.94942">
        <ele>16.4</ele>
        <time>2020-06-06T14:03:29Z</time>
      </trkpt>
      <trkpt lat="47.66983" lon="-2.94947">
        <ele>16.4</ele>
        <time>2020-06-06T14:03:30Z</time>
      </trkpt>
      <trkpt lat="47.66979" lon="-2.94952">
        <ele>16.5</ele>
        <time>2020-06-06T14:03:31Z</time>
      </trkpt>
      <trkpt lat="47.66974" lon="-2.94957">
        <ele>16.5</ele>
        <time>2020-06-06T14:03:32Z</time>
      </trkpt>
      <trkpt lat="47.6697" lon="-2.94962">
        <ele>16.5</ele>
        <time>2020-06-06T14:03:33Z</time>
      </trkpt>
      <trkpt lat="47.66966" lon="-2.94967">
        <ele>16.6</ele>
        <time>2020-06-06T14:03:34Z</time>
      </trkpt>
      <trkpt lat="47.66961" lon="-2.94972">
        <ele>16.6</ele>
        <time>2020-06-06T14:03:35Z</time>
      </trkpt>
      <trkpt lat="47.66958" lon="-2.94978">
        <ele>16.7</ele>
        <time>2020-06-06T14:03:36Z</time>
      </trkpt>
      <trkpt lat="47.66954" lon="-2.94983">
        <ele>16.8</ele>
        <time>2020-06-06T14:03:37Z</time>
      </trkpt>
      <trkpt lat="47.6695" lon="-2.94987">
        <ele>16.9</ele>
        <time>2020-06-06T14:03:38Z</time>
      </trkpt>
      <trkpt lat="47.66946" lon="-2.94992">
        <ele>17</ele>
        <time>2020-06-06T14:03:39Z</time>
      </trkpt>
      <trkpt lat="47.66942" lon="-2.94996">
        <ele>17.1</ele>
        <time>2020-06-06T14:03:40Z</time>
      </trkpt>
      <trkpt lat="47.66938" lon="-2.95001">
        <ele>17.3</ele>
        <time>2020-06-06T14:03:41Z</time>
      </trkpt>
      <trkpt lat="47.66934" lon="-2.95006">
        <ele>17.4</ele>
        <time>2020-06-06T14:03:42Z</time>
      </trkpt>
      <trkpt lat="47.6693" lon="-2.95011">
        <ele>17.5</ele>
        <time>2020-06-06T14:03:43Z</time>
      </trkpt>
      <trkpt lat="47.66926" lon="-2.95015">
        <ele>17.7</ele>
        <time>2020-06-06T14:03:44Z</time>
      </trkpt>
      <trkpt lat="47.66922" lon="-2.9502">
        <ele>17.8</ele>
        <time>2020-06-06T14:03:45Z</time>
      </trkpt>
      <trkpt lat="47.66919" lon="-2.95025">
        <ele>18</ele>
        <time>2020-06-06T14:03:46Z</time>
      </trkpt>
      <trkpt lat="47.66915" lon="-2.9503">
        <ele>18.1</ele>
        <time>2020-06-06T14:03:47Z</time>
      </trkpt>
      <trkpt lat="47.66911" lon="-2.95035">
        <ele>18.3</ele>
        <time>2020-06-06T14:03:48Z</time>
      </trkpt>
      <trkpt lat="47.66908" lon="-2.9504">
        <ele>18.4</ele>
        <time>2020-06-06T14:03:49Z</time>
      </trkpt>
      <trkpt lat="47.66905" lon="-2.95046">
        <ele>18.6</ele>
        <time>2020-06-06T14:03:50Z</time>
      </trkpt>
      <trkpt lat="47.66901" lon="-2.95052">
        <ele>18.8</ele>
        <time>2020-06-06T14:03:51Z</time>
      </trkpt>
      <trkpt lat="47.66899" lon="-2.95058">
        <ele>18.9</ele>
        <time>2020-06-06T14:03:52Z</time>
      </trkpt>
      <trkpt lat="47.66895" lon="-2.95063">
        <ele>19.1</ele>
        <time>2020-06-06T14:03:53Z</time>
      </trkpt>
      <trkpt lat="47.66893" lon="-2.95069">
        <ele>19.2</ele>
        <time>2020-06-06T14:03:54Z</time>
      </trkpt>
      <trkpt lat="47.66891" lon="-2.95075">
        <ele>19.4</ele>
        <time>2020-06-06T14:03:55Z</time>
      </trkpt>
      <trkpt lat="47.66889" lon="-2.95082">
        <ele>19.5</ele>
        <time>2020-06-06T14:03:56Z</time>
      </trkpt>
      <trkpt lat="47.66887" lon="-2.95088">
        <ele>19.7</ele>
        <time>2020-06-06T14:03:57Z</time>
      </trkpt>
      <trkpt lat="47.66885" lon="-2.95094">
        <ele>19.9</ele>
        <time>2020-06-06T14:03:58Z</time>
      </trkpt>
      <trkpt lat="47.66883" lon="-2.951">
        <ele>20.1</ele>
        <time>2020-06-06T14:03:59Z</time>
      </trkpt>
      <trkpt lat="47.6688" lon="-2.95106">
        <ele>20.4</ele>
        <time>2020-06-06T14:04:00Z</time>
      </trkpt>
      <trkpt lat="47.66878" lon="-2.95111">
        <ele>20.6</ele>
        <time>2020-06-06T14:04:01Z</time>
      </trkpt>
      <trkpt lat="47.66876" lon="-2.95116">
        <ele>20.8</ele>
        <time>2020-06-06T14:04:02Z</time>
      </trkpt>
      <trkpt lat="47.66874" lon="-2.95122">
        <ele>21</ele>
        <time>2020-06-06T14:04:03Z</time>
      </trkpt>
      <trkpt lat="47.66872" lon="-2.95128">
        <ele>21.3</ele>
        <time>2020-06-06T14:04:04Z</time>
      </trkpt>
      <trkpt lat="47.66871" lon="-2.95133">
        <ele>21.5</ele>
        <time>2020-06-06T14:04:05Z</time>
      </trkpt>
      <trkpt lat="47.66869" lon="-2.95139">
        <ele>21.7</ele>
        <time>2020-06-06T14:04:06Z</time>
      </trkpt>
      <trkpt lat="47.66868" lon="-2.95143">
        <ele>21.9</ele>
        <time>2020-06-06T14:04:07Z</time>
      </trkpt>
      <trkpt lat="47.66867" lon="-2.95148">
        <ele>22</ele>
        <time>2020-06-06T14:04:08Z</time>
      </trkpt>
      <trkpt lat="47.66866" lon="-2.95152">
        <ele>22.2</ele>
        <time>2020-06-06T14:04:09Z</time>
      </trkpt>
      <trkpt lat="47.66865" lon="-2.95157">
        <ele>22.3</ele>
        <time>2020-06-06T14:04:10Z</time>
      </trkpt>
      <trkpt lat="47.66864" lon="-2.95163">
        <ele>22.5</ele>
        <time>2020-06-06T14:04:11Z</time>
      </trkpt>
      <trkpt lat="47.66863" lon="-2.95168">
        <ele>22.7</ele>
        <time>2020-06-06T14:04:12Z</time>
      </trkpt>
      <trkpt lat="47.66861" lon="-2.95175">
        <ele>22.9</ele>
        <time>2020-06-06T14:04:13Z</time>
      </trkpt>
      <trkpt lat="47.66859" lon="-2.95182">
        <ele>23.2</ele>
        <time>2020-06-06T14:04:14Z</time>
      </trkpt>
      <trkpt lat="47.66857" lon="-2.95189">
        <ele>23.4</ele>
        <time>2020-06-06T14:04:15Z</time>
      </trkpt>
      <trkpt lat="47.66856" lon="-2.95197">
        <ele>23.7</ele>
        <time>2020-06-06T14:04:16Z</time>
      </trkpt>
      <trkpt lat="47.66855" lon="-2.95204">
        <ele>23.9</ele>
        <time>2020-06-06T14:04:17Z</time>
      </trkpt>
      <trkpt lat="47.66854" lon="-2.95211">
        <ele>24.2</ele>
        <time>2020-06-06T14:04:18Z</time>
      </trkpt>
      <trkpt lat="47.66853" lon="-2.95217">
        <ele>24.4</ele>
        <time>2020-06-06T14:04:19Z</time>
      </trkpt>
      <trkpt lat="47.66852" lon="-2.95223">
        <ele>24.6</ele>
        <time>2020-06-06T14:04:20Z</time>
      </trkpt>
      <trkpt lat="47.66852" lon="-2.95229">
        <ele>24.7</ele>
        <time>2020-06-06T14:04:21Z</time>
      </trkpt>
      <trkpt lat="47.66851" lon="-2.95235">
        <ele>24.9</ele>
        <time>2020-06-06T14:04:22Z</time>
      </trkpt>
      <trkpt lat="47.6685" lon="-2.95242">
        <ele>25.1</ele>
        <time>2020-06-06T14:04:23Z</time>
      </trkpt>
      <trkpt lat="47.66849" lon="-2.95248">
        <ele>25.3</ele>
        <time>2020-06-06T14:04:24Z</time>
      </trkpt>
      <trkpt lat="47.66849" lon="-2.95254">
        <ele>25.4</ele>
        <time>2020-06-06T14:04:25Z</time>
      </trkpt>
      <trkpt lat="47.66848" lon="-2.95259">
        <ele>25.5</ele>
        <time>2020-06-06T14:04:26Z</time>
      </trkpt>
      <trkpt lat="47.66848" lon="-2.95265">
        <ele>25.8</ele>
        <time>2020-06-06T14:04:27Z</time>
      </trkpt>
      <trkpt lat="47.66848" lon="-2.9527">
        <ele>25.9</ele>
        <time>2020-06-06T14:04:28Z</time>
      </trkpt>
      <trkpt lat="47.66847" lon="-2.95275">
        <ele>26</ele>
        <time>2020-06-06T14:04:29Z</time>
      </trkpt>
      <trkpt lat="47.66847" lon="-2.95282">
        <ele>26.2</ele>
        <time>2020-06-06T14:04:30Z</time>
      </trkpt>
      <trkpt lat="47.66847" lon="-2.95289">
        <ele>26.3</ele>
        <time>2020-06-06T14:04:31Z</time>
      </trkpt>
      <trkpt lat="47.66847" lon="-2.95295">
        <ele>26.5</ele>
        <time>2020-06-06T14:04:32Z</time>
      </trkpt>
      <trkpt lat="47.66848" lon="-2.95303">
        <ele>26.7</ele>
        <time>2020-06-06T14:04:33Z</time>
      </trkpt>
      <trkpt lat="47.66848" lon="-2.95309">
        <ele>26.9</ele>
        <time>2020-06-06T14:04:34Z</time>
      </trkpt>
      <trkpt lat="47.66848" lon="-2.95315">
        <ele>27</ele>
        <time>2020-06-06T14:04:35Z</time>
      </trkpt>
      <trkpt lat="47.66849" lon="-2.95319">
        <ele>27.1</ele>
        <time>2020-06-06T14:04:36Z</time>
      </trkpt>
      <trkpt lat="47.66851" lon="-2.95326">
        <ele>27.2</ele>
        <time>2020-06-06T14:04:37Z</time>
      </trkpt>
      <trkpt lat="47.66851" lon="-2.9533">
        <ele>27.3</ele>
        <time>2020-06-06T14:04:38Z</time>
      </trkpt>
      <trkpt lat="47.66852" lon="-2.95337">
        <ele>27.5</ele>
        <time>2020-06-06T14:04:39Z</time>
      </trkpt>
      <trkpt lat="47.66852" lon="-2.95341">
        <ele>27.6</ele>
        <time>2020-06-06T14:04:40Z</time>
      </trkpt>
      <trkpt lat="47.66853" lon="-2.95349">
        <ele>27.7</ele>
        <time>2020-06-06T14:04:41Z</time>
      </trkpt>
      <trkpt lat="47.66853" lon="-2.95355">
        <ele>27.8</ele>
        <time>2020-06-06T14:04:42Z</time>
      </trkpt>
      <trkpt lat="47.66853" lon="-2.95361">
        <ele>27.9</ele>
        <time>2020-06-06T14:04:43Z</time>
      </trkpt>
      <trkpt lat="47.66853" lon="-2.95369">
        <ele>28</ele>
        <time>2020-06-06T14:04:44Z</time>
      </trkpt>
      <trkpt lat="47.66854" lon="-2.95375">
        <ele>28.1</ele>
        <time>2020-06-06T14:04:45Z</time>
      </trkpt>
      <trkpt lat="47.66855" lon="-2.95382">
        <ele>28.2</ele>
        <time>2020-06-06T14:04:46Z</time>
      </trkpt>
      <trkpt lat="47.66856" lon="-2.95388">
        <ele>28.3</ele>
        <time>2020-06-06T14:04:47Z</time>
      </trkpt>
      <trkpt lat="47.66857" lon="-2.95394">
        <ele>28.4</ele>
        <time>2020-06-06T14:04:48Z</time>
      </trkpt>
      <trkpt lat="47.66857" lon="-2.95396">
        <ele>28.5</ele>
        <time>2020-06-06T14:04:49Z</time>
      </trkpt>
      <trkpt lat="47.66858" lon="-2.95402">
        <ele>28.5</ele>
        <time>2020-06-06T14:04:50Z</time>
      </trkpt>
      <trkpt lat="47.66857" lon="-2.95408">
        <ele>28.6</ele>
        <time>2020-06-06T14:04:51Z</time>
      </trkpt>
      <trkpt lat="47.66855" lon="-2.95415">
        <ele>28.7</ele>
        <time>2020-06-06T14:04:52Z</time>
      </trkpt>
      <trkpt lat="47.66853" lon="-2.95421">
        <ele>28.8</ele>
        <time>2020-06-06T14:04:53Z</time>
      </trkpt>
      <trkpt lat="47.66851" lon="-2.95425">
        <ele>28.9</ele>
        <time>2020-06-06T14:04:54Z</time>
      </trkpt>
      <trkpt lat="47.66849" lon="-2.95429">
        <ele>29</ele>
        <time>2020-06-06T14:04:55Z</time>
      </trkpt>
      <trkpt lat="47.66846" lon="-2.95433">
        <ele>29.1</ele>
        <time>2020-06-06T14:04:56Z</time>
      </trkpt>
      <trkpt lat="47.66844" lon="-2.95438">
        <ele>29.2</ele>
        <time>2020-06-06T14:04:57Z</time>
      </trkpt>
      <trkpt lat="47.66841" lon="-2.95443">
        <ele>29.2</ele>
        <time>2020-06-06T14:04:58Z</time>
      </trkpt>
      <trkpt lat="47.66838" lon="-2.95447">
        <ele>29.3</ele>
        <time>2020-06-06T14:04:59Z</time>
      </trkpt>
      <trkpt lat="47.66834" lon="-2.95451">
        <ele>29.4</ele>
        <time>2020-06-06T14:05:00Z</time>
      </trkpt>
      <trkpt lat="47.66831" lon="-2.95454">
        <ele>29.5</ele>
        <time>2020-06-06T14:05:01Z</time>
      </trkpt>
      <trkpt lat="47.66827" lon="-2.9546">
        <ele>29.5</ele>
        <time>2020-06-06T14:05:02Z</time>
      </trkpt>
      <trkpt lat="47.66823" lon="-2.95462">
        <ele>29.6</ele>
        <time>2020-06-06T14:05:03Z</time>
      </trkpt>
      <trkpt lat="47.6682" lon="-2.95465">
        <ele>29.6</ele>
        <time>2020-06-06T14:05:04Z</time>
      </trkpt>
      <trkpt lat="47.66815" lon="-2.95469">
        <ele>29.7</ele>
        <time>2020-06-06T14:05:05Z</time>
      </trkpt>
      <trkpt lat="47.66812" lon="-2.9547">
        <ele>29.7</ele>
        <time>2020-06-06T14:05:06Z</time>
      </trkpt>
      <trkpt lat="47.66808" lon="-2.95472">
        <ele>29.9</ele>
        <time>2020-06-06T14:05:07Z</time>
      </trkpt>
      <trkpt lat="47.66805" lon="-2.95474">
        <ele>30</ele>
        <time>2020-06-06T14:05:08Z</time>
      </trkpt>
      <trkpt lat="47.668" lon="-2.95476">
        <ele>30.1</ele>
        <time>2020-06-06T14:05:09Z</time>
      </trkpt>
      <trkpt lat="47.66796" lon="-2.95479">
        <ele>30.1</ele>
        <time>2020-06-06T14:05:10Z</time>
      </trkpt>
      <trkpt lat="47.66793" lon="-2.95481">
        <ele>30</ele>
        <time>2020-06-06T14:05:11Z</time>
      </trkpt>
      <trkpt lat="47.66791" lon="-2.95486">
        <ele>30</ele>
        <time>2020-06-06T14:05:12Z</time>
      </trkpt>
      <trkpt lat="47.6679" lon="-2.95492">
        <ele>29.9</ele>
        <time>2020-06-06T14:05:13Z</time>
      </trkpt>
      <trkpt lat="47.6679" lon="-2.95494">
        <ele>29.9</ele>
        <time>2020-06-06T14:05:14Z</time>
      </trkpt>
      <trkpt lat="47.6679" lon="-2.95498">
        <ele>29.9</ele>
        <time>2020-06-06T14:05:15Z</time>
      </trkpt>
      <trkpt lat="47.66789" lon="-2.95503">
        <ele>29.8</ele>
        <time>2020-06-06T14:05:16Z</time>
      </trkpt>
      <trkpt lat="47.66788" lon="-2.95507">
        <ele>29.8</ele>
        <time>2020-06-06T14:05:17Z</time>
      </trkpt>
      <trkpt lat="47.66786" lon="-2.95512">
        <ele>29.7</ele>
        <time>2020-06-06T14:05:18Z</time>
      </trkpt>
      <trkpt lat="47.66786" lon="-2.95519">
        <ele>29.7</ele>
        <time>2020-06-06T14:05:19Z</time>
      </trkpt>
      <trkpt lat="47.66785" lon="-2.95525">
        <ele>29.6</ele>
        <time>2020-06-06T14:05:20Z</time>
      </trkpt>
      <trkpt lat="47.66785" lon="-2.95531">
        <ele>29.6</ele>
        <time>2020-06-06T14:05:21Z</time>
      </trkpt>
      <trkpt lat="47.66785" lon="-2.95536">
        <ele>29.5</ele>
        <time>2020-06-06T14:05:22Z</time>
      </trkpt>
      <trkpt lat="47.66786" lon="-2.95543">
        <ele>29.5</ele>
        <time>2020-06-06T14:05:23Z</time>
      </trkpt>
      <trkpt lat="47.66787" lon="-2.95549">
        <ele>29.5</ele>
        <time>2020-06-06T14:05:24Z</time>
      </trkpt>
      <trkpt lat="47.66788" lon="-2.95557">
        <ele>29.4</ele>
        <time>2020-06-06T14:05:25Z</time>
      </trkpt>
      <trkpt lat="47.66789" lon="-2.95562">
        <ele>29.4</ele>
        <time>2020-06-06T14:05:26Z</time>
      </trkpt>
      <trkpt lat="47.66789" lon="-2.95568">
        <ele>29.5</ele>
        <time>2020-06-06T14:05:27Z</time>
      </trkpt>
      <trkpt lat="47.66791" lon="-2.95575">
        <ele>29.5</ele>
        <time>2020-06-06T14:05:28Z</time>
      </trkpt>
      <trkpt lat="47.66792" lon="-2.9558">
        <ele>29.5</ele>
        <time>2020-06-06T14:05:29Z</time>
      </trkpt>
      <trkpt lat="47.66794" lon="-2.95585">
        <ele>29.5</ele>
        <time>2020-06-06T14:05:30Z</time>
      </trkpt>
      <trkpt lat="47.66796" lon="-2.9559">
        <ele>29.5</ele>
        <time>2020-06-06T14:05:31Z</time>
      </trkpt>
      <trkpt lat="47.66798" lon="-2.95596">
        <ele>29.6</ele>
        <time>2020-06-06T14:05:32Z</time>
      </trkpt>
      <trkpt lat="47.66799" lon="-2.95603">
        <ele>29.6</ele>
        <time>2020-06-06T14:05:33Z</time>
      </trkpt>
      <trkpt lat="47.66801" lon="-2.9561">
        <ele>29.6</ele>
        <time>2020-06-06T14:05:34Z</time>
      </trkpt>
      <trkpt lat="47.66803" lon="-2.95615">
        <ele>29.7</ele>
        <time>2020-06-06T14:05:35Z</time>
      </trkpt>
      <trkpt lat="47.66803" lon="-2.95619">
        <ele>29.7</ele>
        <time>2020-06-06T14:05:36Z</time>
      </trkpt>
      <trkpt lat="47.66804" lon="-2.95624">
        <ele>29.7</ele>
        <time>2020-06-06T14:05:37Z</time>
      </trkpt>
      <trkpt lat="47.66804" lon="-2.95629">
        <ele>29.7</ele>
        <time>2020-06-06T14:05:38Z</time>
      </trkpt>
      <trkpt lat="47.66805" lon="-2.95635">
        <ele>29.7</ele>
        <time>2020-06-06T14:05:39Z</time>
      </trkpt>
      <trkpt lat="47.66806" lon="-2.9564">
        <ele>29.7</ele>
        <time>2020-06-06T14:05:40Z</time>
      </trkpt>
      <trkpt lat="47.66806" lon="-2.95645">
        <ele>29.7</ele>
        <time>2020-06-06T14:05:41Z</time>
      </trkpt>
      <trkpt lat="47.66807" lon="-2.95651">
        <ele>29.7</ele>
        <time>2020-06-06T14:05:42Z</time>
      </trkpt>
      <trkpt lat="47.66807" lon="-2.95653">
        <ele>29.6</ele>
        <time>2020-06-06T14:05:43Z</time>
      </trkpt>
      <trkpt lat="47.66808" lon="-2.95658">
        <ele>29.6</ele>
        <time>2020-06-06T14:05:44Z</time>
      </trkpt>
      <trkpt lat="47.66809" lon="-2.95663">
        <ele>29.6</ele>
        <time>2020-06-06T14:05:45Z</time>
      </trkpt>
      <trkpt lat="47.66808" lon="-2.95668">
        <ele>29.6</ele>
        <time>2020-06-06T14:05:46Z</time>
      </trkpt>
      <trkpt lat="47.66808" lon="-2.95673">
        <ele>29.6</ele>
        <time>2020-06-06T14:05:47Z</time>
      </trkpt>
      <trkpt lat="47.66808" lon="-2.95675">
        <ele>29.6</ele>
        <time>2020-06-06T14:05:48Z</time>
      </trkpt>
      <trkpt lat="47.66807" lon="-2.95679">
        <ele>29.5</ele>
        <time>2020-06-06T14:05:49Z</time>
      </trkpt>
      <trkpt lat="47.66808" lon="-2.95685">
        <ele>29.5</ele>
        <time>2020-06-06T14:05:50Z</time>
      </trkpt>
      <trkpt lat="47.66808" lon="-2.9569">
        <ele>29.5</ele>
        <time>2020-06-06T14:05:51Z</time>
      </trkpt>
      <trkpt lat="47.66809" lon="-2.95693">
        <ele>29.5</ele>
        <time>2020-06-06T14:05:52Z</time>
      </trkpt>
      <trkpt lat="47.66808" lon="-2.95698">
        <ele>29.5</ele>
        <time>2020-06-06T14:05:53Z</time>
      </trkpt>
      <trkpt lat="47.66807" lon="-2.95704">
        <ele>29.3</ele>
        <time>2020-06-06T14:05:54Z</time>
      </trkpt>
      <trkpt lat="47.66805" lon="-2.9571">
        <ele>29.2</ele>
        <time>2020-06-06T14:05:55Z</time>
      </trkpt>
      <trkpt lat="47.66804" lon="-2.95715">
        <ele>29.1</ele>
        <time>2020-06-06T14:05:56Z</time>
      </trkpt>
      <trkpt lat="47.66803" lon="-2.95721">
        <ele>28.9</ele>
        <time>2020-06-06T14:05:57Z</time>
      </trkpt>
      <trkpt lat="47.66802" lon="-2.95728">
        <ele>28.8</ele>
        <time>2020-06-06T14:05:58Z</time>
      </trkpt>
      <trkpt lat="47.66801" lon="-2.95734">
        <ele>28.7</ele>
        <time>2020-06-06T14:05:59Z</time>
      </trkpt>
      <trkpt lat="47.668" lon="-2.9574">
        <ele>28.5</ele>
        <time>2020-06-06T14:06:00Z</time>
      </trkpt>
      <trkpt lat="47.668" lon="-2.95745">
        <ele>28.4</ele>
        <time>2020-06-06T14:06:01Z</time>
      </trkpt>
      <trkpt lat="47.66799" lon="-2.9575">
        <ele>28.3</ele>
        <time>2020-06-06T14:06:02Z</time>
      </trkpt>
      <trkpt lat="47.66799" lon="-2.95755">
        <ele>28.2</ele>
        <time>2020-06-06T14:06:03Z</time>
      </trkpt>
      <trkpt lat="47.66798" lon="-2.95763">
        <ele>28.1</ele>
        <time>2020-06-06T14:06:04Z</time>
      </trkpt>
      <trkpt lat="47.66798" lon="-2.95769">
        <ele>28</ele>
        <time>2020-06-06T14:06:05Z</time>
      </trkpt>
      <trkpt lat="47.66798" lon="-2.95774">
        <ele>27.8</ele>
        <time>2020-06-06T14:06:06Z</time>
      </trkpt>
      <trkpt lat="47.66797" lon="-2.9578">
        <ele>27.7</ele>
        <time>2020-06-06T14:06:07Z</time>
      </trkpt>
      <trkpt lat="47.66796" lon="-2.95787">
        <ele>27.6</ele>
        <time>2020-06-06T14:06:08Z</time>
      </trkpt>
      <trkpt lat="47.66796" lon="-2.95793">
        <ele>27.4</ele>
        <time>2020-06-06T14:06:09Z</time>
      </trkpt>
      <trkpt lat="47.66795" lon="-2.95799">
        <ele>27.3</ele>
        <time>2020-06-06T14:06:10Z</time>
      </trkpt>
      <trkpt lat="47.66794" lon="-2.95807">
        <ele>27.1</ele>
        <time>2020-06-06T14:06:11Z</time>
      </trkpt>
      <trkpt lat="47.66794" lon="-2.95814">
        <ele>26.9</ele>
        <time>2020-06-06T14:06:12Z</time>
      </trkpt>
      <trkpt lat="47.66794" lon="-2.95821">
        <ele>26.8</ele>
        <time>2020-06-06T14:06:13Z</time>
      </trkpt>
      <trkpt lat="47.66793" lon="-2.95828">
        <ele>26.6</ele>
        <time>2020-06-06T14:06:14Z</time>
      </trkpt>
      <trkpt lat="47.66792" lon="-2.95834">
        <ele>26.4</ele>
        <time>2020-06-06T14:06:15Z</time>
      </trkpt>
      <trkpt lat="47.66791" lon="-2.95841">
        <ele>26.2</ele>
        <time>2020-06-06T14:06:16Z</time>
      </trkpt>
      <trkpt lat="47.6679" lon="-2.95848">
        <ele>26</ele>
        <time>2020-06-06T14:06:17Z</time>
      </trkpt>
      <trkpt lat="47.66789" lon="-2.95856">
        <ele>25.8</ele>
        <time>2020-06-06T14:06:18Z</time>
      </trkpt>
      <trkpt lat="47.66789" lon="-2.95863">
        <ele>25.6</ele>
        <time>2020-06-06T14:06:19Z</time>
      </trkpt>
      <trkpt lat="47.66788" lon="-2.9587">
        <ele>25.4</ele>
        <time>2020-06-06T14:06:20Z</time>
      </trkpt>
      <trkpt lat="47.66787" lon="-2.95877">
        <ele>25.2</ele>
        <time>2020-06-06T14:06:21Z</time>
      </trkpt>
      <trkpt lat="47.66786" lon="-2.95883">
        <ele>25</ele>
        <time>2020-06-06T14:06:22Z</time>
      </trkpt>
      <trkpt lat="47.66785" lon="-2.9589">
        <ele>24.9</ele>
        <time>2020-06-06T14:06:23Z</time>
      </trkpt>
      <trkpt lat="47.66785" lon="-2.95896">
        <ele>24.7</ele>
        <time>2020-06-06T14:06:24Z</time>
      </trkpt>
      <trkpt lat="47.66784" lon="-2.95903">
        <ele>24.5</ele>
        <time>2020-06-06T14:06:25Z</time>
      </trkpt>
      <trkpt lat="47.66783" lon="-2.95911">
        <ele>24.2</ele>
        <time>2020-06-06T14:06:26Z</time>
      </trkpt>
      <trkpt lat="47.66782" lon="-2.95919">
        <ele>24</ele>
        <time>2020-06-06T14:06:27Z</time>
      </trkpt>
      <trkpt lat="47.66781" lon="-2.95927">
        <ele>23.8</ele>
        <time>2020-06-06T14:06:28Z</time>
      </trkpt>
      <trkpt lat="47.66781" lon="-2.95934">
        <ele>23.6</ele>
        <time>2020-06-06T14:06:29Z</time>
      </trkpt>
      <trkpt lat="47.6678" lon="-2.9594">
        <ele>23.4</ele>
        <time>2020-06-06T14:06:30Z</time>
      </trkpt>
      <trkpt lat="47.6678" lon="-2.95947">
        <ele>23.2</ele>
        <time>2020-06-06T14:06:31Z</time>
      </trkpt>
      <trkpt lat="47.66779" lon="-2.95954">
        <ele>23</ele>
        <time>2020-06-06T14:06:32Z</time>
      </trkpt>
      <trkpt lat="47.66779" lon="-2.95962">
        <ele>22.8</ele>
        <time>2020-06-06T14:06:33Z</time>
      </trkpt>
      <trkpt lat="47.66778" lon="-2.95968">
        <ele>22.5</ele>
        <time>2020-06-06T14:06:34Z</time>
      </trkpt>
      <trkpt lat="47.66777" lon="-2.95975">
        <ele>22.4</ele>
        <time>2020-06-06T14:06:35Z</time>
      </trkpt>
      <trkpt lat="47.66776" lon="-2.95981">
        <ele>22.2</ele>
        <time>2020-06-06T14:06:36Z</time>
      </trkpt>
      <trkpt lat="47.66775" lon="-2.95989">
        <ele>22</ele>
        <time>2020-06-06T14:06:37Z</time>
      </trkpt>
      <trkpt lat="47.66775" lon="-2.95996">
        <ele>21.8</ele>
        <time>2020-06-06T14:06:38Z</time>
      </trkpt>
      <trkpt lat="47.66774" lon="-2.96004">
        <ele>21.6</ele>
        <time>2020-06-06T14:06:39Z</time>
      </trkpt>
      <trkpt lat="47.66774" lon="-2.96011">
        <ele>21.4</ele>
        <time>2020-06-06T14:06:40Z</time>
      </trkpt>
      <trkpt lat="47.66773" lon="-2.96018">
        <ele>21.2</ele>
        <time>2020-06-06T14:06:41Z</time>
      </trkpt>
      <trkpt lat="47.66773" lon="-2.96026">
        <ele>21</ele>
        <time>2020-06-06T14:06:42Z</time>
      </trkpt>
      <trkpt lat="47.66773" lon="-2.96034">
        <ele>20.8</ele>
        <time>2020-06-06T14:06:43Z</time>
      </trkpt>
      <trkpt lat="47.66774" lon="-2.96043">
        <ele>20.6</ele>
        <time>2020-06-06T14:06:44Z</time>
      </trkpt>
      <trkpt lat="47.66774" lon="-2.96052">
        <ele>20.4</ele>
        <time>2020-06-06T14:06:45Z</time>
      </trkpt>
      <trkpt lat="47.66773" lon="-2.96061">
        <ele>20.2</ele>
        <time>2020-06-06T14:06:46Z</time>
      </trkpt>
      <trkpt lat="47.66772" lon="-2.9607">
        <ele>19.9</ele>
        <time>2020-06-06T14:06:47Z</time>
      </trkpt>
      <trkpt lat="47.66771" lon="-2.96079">
        <ele>19.7</ele>
        <time>2020-06-06T14:06:48Z</time>
      </trkpt>
      <trkpt lat="47.66771" lon="-2.96089">
        <ele>19.6</ele>
        <time>2020-06-06T14:06:49Z</time>
      </trkpt>
      <trkpt lat="47.6677" lon="-2.96098">
        <ele>19.4</ele>
        <time>2020-06-06T14:06:50Z</time>
      </trkpt>
      <trkpt lat="47.6677" lon="-2.96106">
        <ele>19.3</ele>
        <time>2020-06-06T14:06:51Z</time>
      </trkpt>
      <trkpt lat="47.6677" lon="-2.96114">
        <ele>19.2</ele>
        <time>2020-06-06T14:06:52Z</time>
      </trkpt>
      <trkpt lat="47.6677" lon="-2.96121">
        <ele>19.1</ele>
        <time>2020-06-06T14:06:53Z</time>
      </trkpt>
      <trkpt lat="47.6677" lon="-2.96128">
        <ele>19</ele>
        <time>2020-06-06T14:06:54Z</time>
      </trkpt>
      <trkpt lat="47.6677" lon="-2.96136">
        <ele>18.9</ele>
        <time>2020-06-06T14:06:55Z</time>
      </trkpt>
      <trkpt lat="47.6677" lon="-2.96144">
        <ele>18.6</ele>
        <time>2020-06-06T14:06:56Z</time>
      </trkpt>
      <trkpt lat="47.66769" lon="-2.96152">
        <ele>18.4</ele>
        <time>2020-06-06T14:06:57Z</time>
      </trkpt>
      <trkpt lat="47.66769" lon="-2.96162">
        <ele>18.3</ele>
        <time>2020-06-06T14:06:58Z</time>
      </trkpt>
      <trkpt lat="47.66768" lon="-2.96172">
        <ele>18.1</ele>
        <time>2020-06-06T14:06:59Z</time>
      </trkpt>
      <trkpt lat="47.66767" lon="-2.96181">
        <ele>18</ele>
        <time>2020-06-06T14:07:00Z</time>
      </trkpt>
      <trkpt lat="47.66767" lon="-2.96189">
        <ele>18</ele>
        <time>2020-06-06T14:07:01Z</time>
      </trkpt>
      <trkpt lat="47.66766" lon="-2.96197">
        <ele>18</ele>
        <time>2020-06-06T14:07:02Z</time>
      </trkpt>
      <trkpt lat="47.66765" lon="-2.96205">
        <ele>18</ele>
        <time>2020-06-06T14:07:03Z</time>
      </trkpt>
      <trkpt lat="47.66764" lon="-2.96214">
        <ele>18</ele>
        <time>2020-06-06T14:07:04Z</time>
      </trkpt>
      <trkpt lat="47.66763" lon="-2.96221">
        <ele>18</ele>
        <time>2020-06-06T14:07:05Z</time>
      </trkpt>
      <trkpt lat="47.66762" lon="-2.96228">
        <ele>18</ele>
        <time>2020-06-06T14:07:06Z</time>
      </trkpt>
      <trkpt lat="47.6676" lon="-2.96235">
        <ele>18</ele>
        <time>2020-06-06T14:07:07Z</time>
      </trkpt>
      <trkpt lat="47.66759" lon="-2.96243">
        <ele>18.1</ele>
        <time>2020-06-06T14:07:08Z</time>
      </trkpt>
      <trkpt lat="47.66758" lon="-2.9625">
        <ele>18.1</ele>
        <time>2020-06-06T14:07:09Z</time>
      </trkpt>
      <trkpt lat="47.66757" lon="-2.96257">
        <ele>18.2</ele>
        <time>2020-06-06T14:07:10Z</time>
      </trkpt>
      <trkpt lat="47.66756" lon="-2.96263">
        <ele>18.2</ele>
        <time>2020-06-06T14:07:11Z</time>
      </trkpt>
      <trkpt lat="47.66756" lon="-2.96268">
        <ele>18.3</ele>
        <time>2020-06-06T14:07:12Z</time>
      </trkpt>
      <trkpt lat="47.66755" lon="-2.96276">
        <ele>18.3</ele>
        <time>2020-06-06T14:07:13Z</time>
      </trkpt>
      <trkpt lat="47.66754" lon="-2.96284">
        <ele>18.3</ele>
        <time>2020-06-06T14:07:14Z</time>
      </trkpt>
      <trkpt lat="47.66753" lon="-2.96291">
        <ele>18.4</ele>
        <time>2020-06-06T14:07:15Z</time>
      </trkpt>
      <trkpt lat="47.66752" lon="-2.96298">
        <ele>18.4</ele>
        <time>2020-06-06T14:07:16Z</time>
      </trkpt>
      <trkpt lat="47.66752" lon="-2.96306">
        <ele>18.5</ele>
        <time>2020-06-06T14:07:17Z</time>
      </trkpt>
      <trkpt lat="47.66751" lon="-2.96312">
        <ele>18.5</ele>
        <time>2020-06-06T14:07:18Z</time>
      </trkpt>
      <trkpt lat="47.6675" lon="-2.9632">
        <ele>18.6</ele>
        <time>2020-06-06T14:07:19Z</time>
      </trkpt>
      <trkpt lat="47.6675" lon="-2.96326">
        <ele>18.6</ele>
        <time>2020-06-06T14:07:20Z</time>
      </trkpt>
      <trkpt lat="47.66749" lon="-2.96332">
        <ele>18.6</ele>
        <time>2020-06-06T14:07:21Z</time>
      </trkpt>
      <trkpt lat="47.66748" lon="-2.96339">
        <ele>18.7</ele>
        <time>2020-06-06T14:07:22Z</time>
      </trkpt>
      <trkpt lat="47.66747" lon="-2.96347">
        <ele>18.7</ele>
        <time>2020-06-06T14:07:23Z</time>
      </trkpt>
      <trkpt lat="47.66747" lon="-2.96354">
        <ele>18.7</ele>
        <time>2020-06-06T14:07:24Z</time>
      </trkpt>
      <trkpt lat="47.66747" lon="-2.96363">
        <ele>18.7</ele>
        <time>2020-06-06T14:07:25Z</time>
      </trkpt>
      <trkpt lat="47.66748" lon="-2.96372">
        <ele>18.7</ele>
        <time>2020-06-06T14:07:26Z</time>
      </trkpt>
      <trkpt lat="47.66748" lon="-2.96381">
        <ele>18.6</ele>
        <time>2020-06-06T14:07:27Z</time>
      </trkpt>
      <trkpt lat="47.66749" lon="-2.9639">
        <ele>18.5</ele>
        <time>2020-06-06T14:07:28Z</time>
      </trkpt>
      <trkpt lat="47.6675" lon="-2.96399">
        <ele>18.5</ele>
        <time>2020-06-06T14:07:29Z</time>
      </trkpt>
      <trkpt lat="47.6675" lon="-2.96407">
        <ele>18.4</ele>
        <time>2020-06-06T14:07:30Z</time>
      </trkpt>
      <trkpt lat="47.66751" lon="-2.96415">
        <ele>18.4</ele>
        <time>2020-06-06T14:07:31Z</time>
      </trkpt>
      <trkpt lat="47.66751" lon="-2.96423">
        <ele>18.4</ele>
        <time>2020-06-06T14:07:32Z</time>
      </trkpt>
      <trkpt lat="47.6675" lon="-2.96429">
        <ele>18.4</ele>
        <time>2020-06-06T14:07:33Z</time>
      </trkpt>
      <trkpt lat="47.6675" lon="-2.96434">
        <ele>18.5</ele>
        <time>2020-06-06T14:07:34Z</time>
      </trkpt>
      <trkpt lat="47.66749" lon="-2.96439">
        <ele>18.5</ele>
        <time>2020-06-06T14:07:35Z</time>
      </trkpt>
      <trkpt lat="47.66747" lon="-2.96443">
        <ele>18.5</ele>
        <time>2020-06-06T14:07:36Z</time>
      </trkpt>
      <trkpt lat="47.66746" lon="-2.96443">
        <ele>18.5</ele>
        <time>2020-06-06T14:07:37Z</time>
      </trkpt>
      <trkpt lat="47.66745" lon="-2.96445">
        <ele>18.6</ele>
        <time>2020-06-06T14:07:38Z</time>
      </trkpt>
      <trkpt lat="47.66743" lon="-2.96446">
        <ele>18.6</ele>
        <time>2020-06-06T14:07:39Z</time>
      </trkpt>
      <trkpt lat="47.66741" lon="-2.9645">
        <ele>18.6</ele>
        <time>2020-06-06T14:07:40Z</time>
      </trkpt>
      <trkpt lat="47.6674" lon="-2.96452">
        <ele>18.6</ele>
        <time>2020-06-06T14:07:41Z</time>
      </trkpt>
      <trkpt lat="47.6674" lon="-2.96458">
        <ele>18.6</ele>
        <time>2020-06-06T14:07:42Z</time>
      </trkpt>
      <trkpt lat="47.66741" lon="-2.96461">
        <ele>18.6</ele>
        <time>2020-06-06T14:07:43Z</time>
      </trkpt>
      <trkpt lat="47.6674" lon="-2.96467">
        <ele>18.6</ele>
        <time>2020-06-06T14:07:44Z</time>
      </trkpt>
      <trkpt lat="47.66739" lon="-2.96472">
        <ele>18.6</ele>
        <time>2020-06-06T14:07:45Z</time>
      </trkpt>
      <trkpt lat="47.66737" lon="-2.96477">
        <ele>18.6</ele>
        <time>2020-06-06T14:07:46Z</time>
      </trkpt>
      <trkpt lat="47.66732" lon="-2.96483">
        <ele>18.6</ele>
        <time>2020-06-06T14:07:47Z</time>
      </trkpt>
      <trkpt lat="47.66728" lon="-2.96487">
        <ele>18.6</ele>
        <time>2020-06-06T14:07:48Z</time>
      </trkpt>
      <trkpt lat="47.66723" lon="-2.96492">
        <ele>18.6</ele>
        <time>2020-06-06T14:07:49Z</time>
      </trkpt>
      <trkpt lat="47.6672" lon="-2.96497">
        <ele>18.5</ele>
        <time>2020-06-06T14:07:50Z</time>
      </trkpt>
      <trkpt lat="47.66716" lon="-2.96501">
        <ele>18.4</ele>
        <time>2020-06-06T14:07:51Z</time>
      </trkpt>
      <trkpt lat="47.66713" lon="-2.96506">
        <ele>18.2</ele>
        <time>2020-06-06T14:07:52Z</time>
      </trkpt>
      <trkpt lat="47.66709" lon="-2.96513">
        <ele>18.1</ele>
        <time>2020-06-06T14:07:53Z</time>
      </trkpt>
      <trkpt lat="47.66707" lon="-2.9652">
        <ele>17.9</ele>
        <time>2020-06-06T14:07:54Z</time>
      </trkpt>
      <trkpt lat="47.66705" lon="-2.96528">
        <ele>17.7</ele>
        <time>2020-06-06T14:07:55Z</time>
      </trkpt>
      <trkpt lat="47.66704" lon="-2.96536">
        <ele>17.4</ele>
        <time>2020-06-06T14:07:56Z</time>
      </trkpt>
      <trkpt lat="47.66704" lon="-2.96543">
        <ele>17.3</ele>
        <time>2020-06-06T14:07:57Z</time>
      </trkpt>
      <trkpt lat="47.66704" lon="-2.96552">
        <ele>17.1</ele>
        <time>2020-06-06T14:07:58Z</time>
      </trkpt>
      <trkpt lat="47.66704" lon="-2.96561">
        <ele>16.8</ele>
        <time>2020-06-06T14:07:59Z</time>
      </trkpt>
      <trkpt lat="47.66704" lon="-2.96571">
        <ele>16.6</ele>
        <time>2020-06-06T14:08:00Z</time>
      </trkpt>
      <trkpt lat="47.66704" lon="-2.9658">
        <ele>16.4</ele>
        <time>2020-06-06T14:08:01Z</time>
      </trkpt>
      <trkpt lat="47.66703" lon="-2.96588">
        <ele>16.2</ele>
        <time>2020-06-06T14:08:02Z</time>
      </trkpt>
      <trkpt lat="47.66704" lon="-2.96595">
        <ele>16.1</ele>
        <time>2020-06-06T14:08:03Z</time>
      </trkpt>
      <trkpt lat="47.66702" lon="-2.96604">
        <ele>15.9</ele>
        <time>2020-06-06T14:08:04Z</time>
      </trkpt>
      <trkpt lat="47.66702" lon="-2.96614">
        <ele>15.7</ele>
        <time>2020-06-06T14:08:05Z</time>
      </trkpt>
      <trkpt lat="47.66702" lon="-2.96625">
        <ele>15.4</ele>
        <time>2020-06-06T14:08:06Z</time>
      </trkpt>
      <trkpt lat="47.66702" lon="-2.96633">
        <ele>15.3</ele>
        <time>2020-06-06T14:08:07Z</time>
      </trkpt>
      <trkpt lat="47.66702" lon="-2.96641">
        <ele>15.1</ele>
        <time>2020-06-06T14:08:08Z</time>
      </trkpt>
      <trkpt lat="47.66702" lon="-2.9665">
        <ele>14.9</ele>
        <time>2020-06-06T14:08:09Z</time>
      </trkpt>
      <trkpt lat="47.66703" lon="-2.96661">
        <ele>14.7</ele>
        <time>2020-06-06T14:08:10Z</time>
      </trkpt>
      <trkpt lat="47.66703" lon="-2.9667">
        <ele>14.5</ele>
        <time>2020-06-06T14:08:11Z</time>
      </trkpt>
      <trkpt lat="47.66704" lon="-2.9668">
        <ele>14.3</ele>
        <time>2020-06-06T14:08:12Z</time>
      </trkpt>
      <trkpt lat="47.66704" lon="-2.96689">
        <ele>14.1</ele>
        <time>2020-06-06T14:08:13Z</time>
      </trkpt>
      <trkpt lat="47.66704" lon="-2.96699">
        <ele>13.9</ele>
        <time>2020-06-06T14:08:14Z</time>
      </trkpt>
      <trkpt lat="47.66704" lon="-2.96708">
        <ele>13.7</ele>
        <time>2020-06-06T14:08:15Z</time>
      </trkpt>
      <trkpt lat="47.66705" lon="-2.96717">
        <ele>13.5</ele>
        <time>2020-06-06T14:08:16Z</time>
      </trkpt>
      <trkpt lat="47.66706" lon="-2.96725">
        <ele>13.4</ele>
        <time>2020-06-06T14:08:17Z</time>
      </trkpt>
      <trkpt lat="47.66707" lon="-2.96733">
        <ele>13.2</ele>
        <time>2020-06-06T14:08:18Z</time>
      </trkpt>
      <trkpt lat="47.66708" lon="-2.96743">
        <ele>13</ele>
        <time>2020-06-06T14:08:19Z</time>
      </trkpt>
      <trkpt lat="47.6671" lon="-2.96754">
        <ele>12.9</ele>
        <time>2020-06-06T14:08:20Z</time>
      </trkpt>
      <trkpt lat="47.6671" lon="-2.96765">
        <ele>12.7</ele>
        <time>2020-06-06T14:08:21Z</time>
      </trkpt>
      <trkpt lat="47.66711" lon="-2.96776">
        <ele>12.5</ele>
        <time>2020-06-06T14:08:22Z</time>
      </trkpt>
      <trkpt lat="47.66712" lon="-2.96786">
        <ele>12.3</ele>
        <time>2020-06-06T14:08:23Z</time>
      </trkpt>
      <trkpt lat="47.66712" lon="-2.96795">
        <ele>12.2</ele>
        <time>2020-06-06T14:08:24Z</time>
      </trkpt>
      <trkpt lat="47.66713" lon="-2.96804">
        <ele>12</ele>
        <time>2020-06-06T14:08:25Z</time>
      </trkpt>
      <trkpt lat="47.66714" lon="-2.96815">
        <ele>11.8</ele>
        <time>2020-06-06T14:08:26Z</time>
      </trkpt>
      <trkpt lat="47.66714" lon="-2.96823">
        <ele>11.6</ele>
        <time>2020-06-06T14:08:27Z</time>
      </trkpt>
      <trkpt lat="47.66715" lon="-2.96832">
        <ele>11.4</ele>
        <time>2020-06-06T14:08:28Z</time>
      </trkpt>
      <trkpt lat="47.66715" lon="-2.96841">
        <ele>11.3</ele>
        <time>2020-06-06T14:08:29Z</time>
      </trkpt>
      <trkpt lat="47.66716" lon="-2.96851">
        <ele>11.1</ele>
        <time>2020-06-06T14:08:30Z</time>
      </trkpt>
      <trkpt lat="47.66717" lon="-2.96862">
        <ele>10.9</ele>
        <time>2020-06-06T14:08:31Z</time>
      </trkpt>
      <trkpt lat="47.66718" lon="-2.96872">
        <ele>10.8</ele>
        <time>2020-06-06T14:08:32Z</time>
      </trkpt>
      <trkpt lat="47.66718" lon="-2.9688">
        <ele>10.6</ele>
        <time>2020-06-06T14:08:33Z</time>
      </trkpt>
      <trkpt lat="47.66718" lon="-2.9689">
        <ele>10.5</ele>
        <time>2020-06-06T14:08:34Z</time>
      </trkpt>
      <trkpt lat="47.66719" lon="-2.969">
        <ele>10.3</ele>
        <time>2020-06-06T14:08:35Z</time>
      </trkpt>
      <trkpt lat="47.6672" lon="-2.9691">
        <ele>10.2</ele>
        <time>2020-06-06T14:08:36Z</time>
      </trkpt>
      <trkpt lat="47.66721" lon="-2.96919">
        <ele>10.1</ele>
        <time>2020-06-06T14:08:37Z</time>
      </trkpt>
      <trkpt lat="47.66722" lon="-2.96928">
        <ele>10</ele>
        <time>2020-06-06T14:08:38Z</time>
      </trkpt>
      <trkpt lat="47.66724" lon="-2.96937">
        <ele>9.9</ele>
        <time>2020-06-06T14:08:39Z</time>
      </trkpt>
      <trkpt lat="47.66726" lon="-2.96946">
        <ele>9.7</ele>
        <time>2020-06-06T14:08:40Z</time>
      </trkpt>
      <trkpt lat="47.66727" lon="-2.96955">
        <ele>9.6</ele>
        <time>2020-06-06T14:08:41Z</time>
      </trkpt>
      <trkpt lat="47.66729" lon="-2.96964">
        <ele>9.5</ele>
        <time>2020-06-06T14:08:42Z</time>
      </trkpt>
      <trkpt lat="47.66731" lon="-2.96974">
        <ele>9.3</ele>
        <time>2020-06-06T14:08:43Z</time>
      </trkpt>
      <trkpt lat="47.66733" lon="-2.96984">
        <ele>9.1</ele>
        <time>2020-06-06T14:08:44Z</time>
      </trkpt>
      <trkpt lat="47.66735" lon="-2.96993">
        <ele>8.9</ele>
        <time>2020-06-06T14:08:45Z</time>
      </trkpt>
      <trkpt lat="47.66736" lon="-2.97003">
        <ele>8.7</ele>
        <time>2020-06-06T14:08:46Z</time>
      </trkpt>
      <trkpt lat="47.66738" lon="-2.97014">
        <ele>8.5</ele>
        <time>2020-06-06T14:08:47Z</time>
      </trkpt>
      <trkpt lat="47.6674" lon="-2.97023">
        <ele>8.4</ele>
        <time>2020-06-06T14:08:48Z</time>
      </trkpt>
      <trkpt lat="47.66742" lon="-2.97032">
        <ele>8.2</ele>
        <time>2020-06-06T14:08:49Z</time>
      </trkpt>
      <trkpt lat="47.66745" lon="-2.97041">
        <ele>8.1</ele>
        <time>2020-06-06T14:08:50Z</time>
      </trkpt>
      <trkpt lat="47.66747" lon="-2.9705">
        <ele>7.9</ele>
        <time>2020-06-06T14:08:51Z</time>
      </trkpt>
      <trkpt lat="47.66749" lon="-2.9706">
        <ele>7.8</ele>
        <time>2020-06-06T14:08:52Z</time>
      </trkpt>
      <trkpt lat="47.6675" lon="-2.97069">
        <ele>7.6</ele>
        <time>2020-06-06T14:08:53Z</time>
      </trkpt>
      <trkpt lat="47.66753" lon="-2.97079">
        <ele>7.3</ele>
        <time>2020-06-06T14:08:54Z</time>
      </trkpt>
      <trkpt lat="47.66755" lon="-2.97088">
        <ele>7.2</ele>
        <time>2020-06-06T14:08:55Z</time>
      </trkpt>
      <trkpt lat="47.66758" lon="-2.97097">
        <ele>7.1</ele>
        <time>2020-06-06T14:08:56Z</time>
      </trkpt>
      <trkpt lat="47.6676" lon="-2.97106">
        <ele>6.9</ele>
        <time>2020-06-06T14:08:57Z</time>
      </trkpt>
      <trkpt lat="47.66763" lon="-2.97115">
        <ele>6.7</ele>
        <time>2020-06-06T14:08:58Z</time>
      </trkpt>
      <trkpt lat="47.66767" lon="-2.97124">
        <ele>6.4</ele>
        <time>2020-06-06T14:08:59Z</time>
      </trkpt>
      <trkpt lat="47.6677" lon="-2.97132">
        <ele>6.3</ele>
        <time>2020-06-06T14:09:00Z</time>
      </trkpt>
      <trkpt lat="47.66773" lon="-2.97141">
        <ele>6.1</ele>
        <time>2020-06-06T14:09:01Z</time>
      </trkpt>
      <trkpt lat="47.66777" lon="-2.97149">
        <ele>6</ele>
        <time>2020-06-06T14:09:02Z</time>
      </trkpt>
      <trkpt lat="47.6678" lon="-2.97158">
        <ele>6</ele>
        <time>2020-06-06T14:09:03Z</time>
      </trkpt>
      <trkpt lat="47.66784" lon="-2.97166">
        <ele>5.9</ele>
        <time>2020-06-06T14:09:04Z</time>
      </trkpt>
      <trkpt lat="47.66787" lon="-2.97174">
        <ele>5.9</ele>
        <time>2020-06-06T14:09:05Z</time>
      </trkpt>
      <trkpt lat="47.6679" lon="-2.97183">
        <ele>5.9</ele>
        <time>2020-06-06T14:09:06Z</time>
      </trkpt>
      <trkpt lat="47.66794" lon="-2.9719">
        <ele>5.9</ele>
        <time>2020-06-06T14:09:07Z</time>
      </trkpt>
      <trkpt lat="47.66797" lon="-2.97198">
        <ele>5.9</ele>
        <time>2020-06-06T14:09:08Z</time>
      </trkpt>
      <trkpt lat="47.66801" lon="-2.97205">
        <ele>5.9</ele>
        <time>2020-06-06T14:09:09Z</time>
      </trkpt>
      <trkpt lat="47.66804" lon="-2.97213">
        <ele>5.9</ele>
        <time>2020-06-06T14:09:10Z</time>
      </trkpt>
      <trkpt lat="47.66807" lon="-2.9722">
        <ele>5.9</ele>
        <time>2020-06-06T14:09:11Z</time>
      </trkpt>
      <trkpt lat="47.66811" lon="-2.97227">
        <ele>5.9</ele>
        <time>2020-06-06T14:09:12Z</time>
      </trkpt>
      <trkpt lat="47.66814" lon="-2.97234">
        <ele>5.9</ele>
        <time>2020-06-06T14:09:13Z</time>
      </trkpt>
      <trkpt lat="47.66817" lon="-2.97241">
        <ele>5.9</ele>
        <time>2020-06-06T14:09:14Z</time>
      </trkpt>
      <trkpt lat="47.66821" lon="-2.97248">
        <ele>5.9</ele>
        <time>2020-06-06T14:09:15Z</time>
      </trkpt>
      <trkpt lat="47.66824" lon="-2.97255">
        <ele>5.8</ele>
        <time>2020-06-06T14:09:16Z</time>
      </trkpt>
      <trkpt lat="47.66828" lon="-2.97261">
        <ele>5.8</ele>
        <time>2020-06-06T14:09:17Z</time>
      </trkpt>
      <trkpt lat="47.66831" lon="-2.97268">
        <ele>5.8</ele>
        <time>2020-06-06T14:09:18Z</time>
      </trkpt>
      <trkpt lat="47.66835" lon="-2.97275">
        <ele>5.8</ele>
        <time>2020-06-06T14:09:19Z</time>
      </trkpt>
      <trkpt lat="47.66837" lon="-2.97283">
        <ele>5.8</ele>
        <time>2020-06-06T14:09:20Z</time>
      </trkpt>
      <trkpt lat="47.6684" lon="-2.9729">
        <ele>5.8</ele>
        <time>2020-06-06T14:09:21Z</time>
      </trkpt>
      <trkpt lat="47.66844" lon="-2.97297">
        <ele>5.8</ele>
        <time>2020-06-06T14:09:22Z</time>
      </trkpt>
      <trkpt lat="47.66847" lon="-2.97304">
        <ele>5.8</ele>
        <time>2020-06-06T14:09:23Z</time>
      </trkpt>
      <trkpt lat="47.6685" lon="-2.97312">
        <ele>5.8</ele>
        <time>2020-06-06T14:09:24Z</time>
      </trkpt>
      <trkpt lat="47.66853" lon="-2.97319">
        <ele>5.8</ele>
        <time>2020-06-06T14:09:25Z</time>
      </trkpt>
      <trkpt lat="47.66856" lon="-2.97327">
        <ele>5.7</ele>
        <time>2020-06-06T14:09:26Z</time>
      </trkpt>
      <trkpt lat="47.66859" lon="-2.97335">
        <ele>5.8</ele>
        <time>2020-06-06T14:09:27Z</time>
      </trkpt>
      <trkpt lat="47.66862" lon="-2.97343">
        <ele>5.8</ele>
        <time>2020-06-06T14:09:28Z</time>
      </trkpt>
      <trkpt lat="47.66865" lon="-2.97351">
        <ele>5.9</ele>
        <time>2020-06-06T14:09:29Z</time>
      </trkpt>
      <trkpt lat="47.66867" lon="-2.97359">
        <ele>5.9</ele>
        <time>2020-06-06T14:09:30Z</time>
      </trkpt>
      <trkpt lat="47.6687" lon="-2.97367">
        <ele>6</ele>
        <time>2020-06-06T14:09:31Z</time>
      </trkpt>
      <trkpt lat="47.66874" lon="-2.97374">
        <ele>6.1</ele>
        <time>2020-06-06T14:09:32Z</time>
      </trkpt>
      <trkpt lat="47.66877" lon="-2.97381">
        <ele>6.2</ele>
        <time>2020-06-06T14:09:33Z</time>
      </trkpt>
      <trkpt lat="47.66879" lon="-2.97388">
        <ele>6.3</ele>
        <time>2020-06-06T14:09:34Z</time>
      </trkpt>
      <trkpt lat="47.66882" lon="-2.97396">
        <ele>6.3</ele>
        <time>2020-06-06T14:09:35Z</time>
      </trkpt>
      <trkpt lat="47.66885" lon="-2.97402">
        <ele>6.5</ele>
        <time>2020-06-06T14:09:36Z</time>
      </trkpt>
      <trkpt lat="47.66886" lon="-2.9741">
        <ele>6.6</ele>
        <time>2020-06-06T14:09:37Z</time>
      </trkpt>
      <trkpt lat="47.66888" lon="-2.97417">
        <ele>6.8</ele>
        <time>2020-06-06T14:09:38Z</time>
      </trkpt>
      <trkpt lat="47.6689" lon="-2.97424">
        <ele>7</ele>
        <time>2020-06-06T14:09:39Z</time>
      </trkpt>
      <trkpt lat="47.66892" lon="-2.9743">
        <ele>7.1</ele>
        <time>2020-06-06T14:09:40Z</time>
      </trkpt>
      <trkpt lat="47.66894" lon="-2.97437">
        <ele>7.2</ele>
        <time>2020-06-06T14:09:41Z</time>
      </trkpt>
      <trkpt lat="47.66896" lon="-2.97442">
        <ele>7.3</ele>
        <time>2020-06-06T14:09:42Z</time>
      </trkpt>
      <trkpt lat="47.66897" lon="-2.97448">
        <ele>7.4</ele>
        <time>2020-06-06T14:09:43Z</time>
      </trkpt>
      <trkpt lat="47.669" lon="-2.97452">
        <ele>7.5</ele>
        <time>2020-06-06T14:09:44Z</time>
      </trkpt>
      <trkpt lat="47.66902" lon="-2.97456">
        <ele>7.5</ele>
        <time>2020-06-06T14:09:45Z</time>
      </trkpt>
      <trkpt lat="47.66904" lon="-2.97459">
        <ele>7.6</ele>
        <time>2020-06-06T14:09:46Z</time>
      </trkpt>
      <trkpt lat="47.66906" lon="-2.97463">
        <ele>7.6</ele>
        <time>2020-06-06T14:09:47Z</time>
      </trkpt>
      <trkpt lat="47.66906" lon="-2.97467">
        <ele>7.7</ele>
        <time>2020-06-06T14:09:48Z</time>
      </trkpt>
      <trkpt lat="47.66908" lon="-2.97472">
        <ele>7.8</ele>
        <time>2020-06-06T14:09:49Z</time>
      </trkpt>
      <trkpt lat="47.66908" lon="-2.97474">
        <ele>7.9</ele>
        <time>2020-06-06T14:09:50Z</time>
      </trkpt>
      <trkpt lat="47.66909" lon="-2.97479">
        <ele>8</ele>
        <time>2020-06-06T14:09:51Z</time>
      </trkpt>
      <trkpt lat="47.6691" lon="-2.97481">
        <ele>8</ele>
        <time>2020-06-06T14:09:52Z</time>
      </trkpt>
      <trkpt lat="47.66911" lon="-2.97486">
        <ele>8.1</ele>
        <time>2020-06-06T14:09:53Z</time>
      </trkpt>
      <trkpt lat="47.66912" lon="-2.97487">
        <ele>8.3</ele>
        <time>2020-06-06T14:09:54Z</time>
      </trkpt>
      <trkpt lat="47.66914" lon="-2.97492">
        <ele>8.4</ele>
        <time>2020-06-06T14:09:55Z</time>
      </trkpt>
      <trkpt lat="47.66914" lon="-2.97494">
        <ele>8.5</ele>
        <time>2020-06-06T14:09:56Z</time>
      </trkpt>
      <trkpt lat="47.66916" lon="-2.97498">
        <ele>8.6</ele>
        <time>2020-06-06T14:09:57Z</time>
      </trkpt>
      <trkpt lat="47.66917" lon="-2.97503">
        <ele>8.8</ele>
        <time>2020-06-06T14:09:58Z</time>
      </trkpt>
      <trkpt lat="47.66919" lon="-2.97507">
        <ele>8.9</ele>
        <time>2020-06-06T14:09:59Z</time>
      </trkpt>
      <trkpt lat="47.66919" lon="-2.97512">
        <ele>9.1</ele>
        <time>2020-06-06T14:10:00Z</time>
      </trkpt>
      <trkpt lat="47.66921" lon="-2.97517">
        <ele>9.3</ele>
        <time>2020-06-06T14:10:01Z</time>
      </trkpt>
      <trkpt lat="47.66923" lon="-2.97522">
        <ele>9.4</ele>
        <time>2020-06-06T14:10:02Z</time>
      </trkpt>
      <trkpt lat="47.66924" lon="-2.97526">
        <ele>9.6</ele>
        <time>2020-06-06T14:10:03Z</time>
      </trkpt>
      <trkpt lat="47.66925" lon="-2.97531">
        <ele>9.7</ele>
        <time>2020-06-06T14:10:04Z</time>
      </trkpt>
      <trkpt lat="47.66927" lon="-2.97535">
        <ele>9.9</ele>
        <time>2020-06-06T14:10:05Z</time>
      </trkpt>
      <trkpt lat="47.66928" lon="-2.9754">
        <ele>10.1</ele>
        <time>2020-06-06T14:10:06Z</time>
      </trkpt>
      <trkpt lat="47.66929" lon="-2.97544">
        <ele>10.2</ele>
        <time>2020-06-06T14:10:07Z</time>
      </trkpt>
      <trkpt lat="47.6693" lon="-2.97549">
        <ele>10.4</ele>
        <time>2020-06-06T14:10:08Z</time>
      </trkpt>
      <trkpt lat="47.66932" lon="-2.97554">
        <ele>10.5</ele>
        <time>2020-06-06T14:10:09Z</time>
      </trkpt>
      <trkpt lat="47.66933" lon="-2.97559">
        <ele>10.7</ele>
        <time>2020-06-06T14:10:10Z</time>
      </trkpt>
      <trkpt lat="47.66934" lon="-2.97564">
        <ele>10.8</ele>
        <time>2020-06-06T14:10:11Z</time>
      </trkpt>
      <trkpt lat="47.66936" lon="-2.97568">
        <ele>11</ele>
        <time>2020-06-06T14:10:12Z</time>
      </trkpt>
      <trkpt lat="47.66937" lon="-2.97573">
        <ele>11.2</ele>
        <time>2020-06-06T14:10:13Z</time>
      </trkpt>
      <trkpt lat="47.66938" lon="-2.97578">
        <ele>11.3</ele>
        <time>2020-06-06T14:10:14Z</time>
      </trkpt>
      <trkpt lat="47.6694" lon="-2.97583">
        <ele>11.5</ele>
        <time>2020-06-06T14:10:15Z</time>
      </trkpt>
      <trkpt lat="47.66941" lon="-2.97587">
        <ele>11.6</ele>
        <time>2020-06-06T14:10:16Z</time>
      </trkpt>
      <trkpt lat="47.66943" lon="-2.97591">
        <ele>11.8</ele>
        <time>2020-06-06T14:10:17Z</time>
      </trkpt>
      <trkpt lat="47.66944" lon="-2.97595">
        <ele>11.9</ele>
        <time>2020-06-06T14:10:18Z</time>
      </trkpt>
      <trkpt lat="47.66945" lon="-2.97599">
        <ele>12.1</ele>
        <time>2020-06-06T14:10:19Z</time>
      </trkpt>
      <trkpt lat="47.66946" lon="-2.97603">
        <ele>12.2</ele>
        <time>2020-06-06T14:10:20Z</time>
      </trkpt>
      <trkpt lat="47.66948" lon="-2.97608">
        <ele>12.4</ele>
        <time>2020-06-06T14:10:21Z</time>
      </trkpt>
      <trkpt lat="47.66949" lon="-2.97613">
        <ele>12.5</ele>
        <time>2020-06-06T14:10:22Z</time>
      </trkpt>
      <trkpt lat="47.66951" lon="-2.97617">
        <ele>12.7</ele>
        <time>2020-06-06T14:10:23Z</time>
      </trkpt>
      <trkpt lat="47.66952" lon="-2.97622">
        <ele>12.9</ele>
        <time>2020-06-06T14:10:24Z</time>
      </trkpt>
      <trkpt lat="47.66953" lon="-2.97626">
        <ele>13</ele>
        <time>2020-06-06T14:10:25Z</time>
      </trkpt>
      <trkpt lat="47.66954" lon="-2.97631">
        <ele>13.2</ele>
        <time>2020-06-06T14:10:26Z</time>
      </trkpt>
      <trkpt lat="47.66955" lon="-2.97636">
        <ele>13.4</ele>
        <time>2020-06-06T14:10:27Z</time>
      </trkpt>
      <trkpt lat="47.66957" lon="-2.9764">
        <ele>13.7</ele>
        <time>2020-06-06T14:10:28Z</time>
      </trkpt>
      <trkpt lat="47.66958" lon="-2.97645">
        <ele>13.9</ele>
        <time>2020-06-06T14:10:29Z</time>
      </trkpt>
      <trkpt lat="47.6696" lon="-2.97649">
        <ele>14.1</ele>
        <time>2020-06-06T14:10:30Z</time>
      </trkpt>
      <trkpt lat="47.66961" lon="-2.97653">
        <ele>14.3</ele>
        <time>2020-06-06T14:10:31Z</time>
      </trkpt>
      <trkpt lat="47.66962" lon="-2.97657">
        <ele>14.4</ele>
        <time>2020-06-06T14:10:32Z</time>
      </trkpt>
      <trkpt lat="47.66963" lon="-2.97661">
        <ele>14.6</ele>
        <time>2020-06-06T14:10:33Z</time>
      </trkpt>
      <trkpt lat="47.66965" lon="-2.97665">
        <ele>14.9</ele>
        <time>2020-06-06T14:10:34Z</time>
      </trkpt>
      <trkpt lat="47.66967" lon="-2.97669">
        <ele>15.1</ele>
        <time>2020-06-06T14:10:35Z</time>
      </trkpt>
      <trkpt lat="47.66967" lon="-2.97676">
        <ele>15.3</ele>
        <time>2020-06-06T14:10:36Z</time>
      </trkpt>
      <trkpt lat="47.66968" lon="-2.9768">
        <ele>15.5</ele>
        <time>2020-06-06T14:10:37Z</time>
      </trkpt>
      <trkpt lat="47.6697" lon="-2.97684">
        <ele>15.7</ele>
        <time>2020-06-06T14:10:38Z</time>
      </trkpt>
      <trkpt lat="47.6697" lon="-2.97688">
        <ele>15.9</ele>
        <time>2020-06-06T14:10:39Z</time>
      </trkpt>
      <trkpt lat="47.66972" lon="-2.97692">
        <ele>16.1</ele>
        <time>2020-06-06T14:10:40Z</time>
      </trkpt>
      <trkpt lat="47.66973" lon="-2.97698">
        <ele>16.3</ele>
        <time>2020-06-06T14:10:41Z</time>
      </trkpt>
      <trkpt lat="47.66974" lon="-2.97704">
        <ele>16.6</ele>
        <time>2020-06-06T14:10:42Z</time>
      </trkpt>
      <trkpt lat="47.66975" lon="-2.97708">
        <ele>16.7</ele>
        <time>2020-06-06T14:10:43Z</time>
      </trkpt>
      <trkpt lat="47.66976" lon="-2.97713">
        <ele>16.9</ele>
        <time>2020-06-06T14:10:44Z</time>
      </trkpt>
      <trkpt lat="47.66978" lon="-2.97719">
        <ele>17.2</ele>
        <time>2020-06-06T14:10:45Z</time>
      </trkpt>
      <trkpt lat="47.6698" lon="-2.97725">
        <ele>17.4</ele>
        <time>2020-06-06T14:10:46Z</time>
      </trkpt>
      <trkpt lat="47.66981" lon="-2.97731">
        <ele>17.6</ele>
        <time>2020-06-06T14:10:47Z</time>
      </trkpt>
      <trkpt lat="47.66983" lon="-2.97736">
        <ele>17.8</ele>
        <time>2020-06-06T14:10:48Z</time>
      </trkpt>
      <trkpt lat="47.66984" lon="-2.9774">
        <ele>17.9</ele>
        <time>2020-06-06T14:10:49Z</time>
      </trkpt>
      <trkpt lat="47.66985" lon="-2.97745">
        <ele>18.2</ele>
        <time>2020-06-06T14:10:50Z</time>
      </trkpt>
      <trkpt lat="47.66986" lon="-2.9775">
        <ele>18.4</ele>
        <time>2020-06-06T14:10:51Z</time>
      </trkpt>
      <trkpt lat="47.66987" lon="-2.97754">
        <ele>18.5</ele>
        <time>2020-06-06T14:10:52Z</time>
      </trkpt>
      <trkpt lat="47.66988" lon="-2.9776">
        <ele>18.8</ele>
        <time>2020-06-06T14:10:53Z</time>
      </trkpt>
      <trkpt lat="47.66989" lon="-2.97764">
        <ele>18.9</ele>
        <time>2020-06-06T14:10:54Z</time>
      </trkpt>
      <trkpt lat="47.6699" lon="-2.97768">
        <ele>19.1</ele>
        <time>2020-06-06T14:10:55Z</time>
      </trkpt>
      <trkpt lat="47.66992" lon="-2.97772">
        <ele>19.2</ele>
        <time>2020-06-06T14:10:56Z</time>
      </trkpt>
      <trkpt lat="47.66993" lon="-2.97776">
        <ele>19.4</ele>
        <time>2020-06-06T14:10:57Z</time>
      </trkpt>
      <trkpt lat="47.66993" lon="-2.9778">
        <ele>19.5</ele>
        <time>2020-06-06T14:10:58Z</time>
      </trkpt>
      <trkpt lat="47.66994" lon="-2.97784">
        <ele>19.7</ele>
        <time>2020-06-06T14:10:59Z</time>
      </trkpt>
      <trkpt lat="47.66995" lon="-2.97789">
        <ele>19.9</ele>
        <time>2020-06-06T14:11:00Z</time>
      </trkpt>
      <trkpt lat="47.66997" lon="-2.97792">
        <ele>19.9</ele>
        <time>2020-06-06T14:11:01Z</time>
      </trkpt>
      <trkpt lat="47.66998" lon="-2.97796">
        <ele>20.1</ele>
        <time>2020-06-06T14:11:02Z</time>
      </trkpt>
      <trkpt lat="47.66999" lon="-2.978">
        <ele>20.2</ele>
        <time>2020-06-06T14:11:03Z</time>
      </trkpt>
      <trkpt lat="47.67" lon="-2.97805">
        <ele>20.4</ele>
        <time>2020-06-06T14:11:04Z</time>
      </trkpt>
      <trkpt lat="47.67" lon="-2.9781">
        <ele>20.6</ele>
        <time>2020-06-06T14:11:05Z</time>
      </trkpt>
      <trkpt lat="47.67001" lon="-2.97814">
        <ele>20.7</ele>
        <time>2020-06-06T14:11:06Z</time>
      </trkpt>
      <trkpt lat="47.67003" lon="-2.9782">
        <ele>20.9</ele>
        <time>2020-06-06T14:11:07Z</time>
      </trkpt>
      <trkpt lat="47.67004" lon="-2.97825">
        <ele>21.1</ele>
        <time>2020-06-06T14:11:08Z</time>
      </trkpt>
      <trkpt lat="47.67005" lon="-2.97831">
        <ele>21.3</ele>
        <time>2020-06-06T14:11:09Z</time>
      </trkpt>
      <trkpt lat="47.67006" lon="-2.97835">
        <ele>21.4</ele>
        <time>2020-06-06T14:11:10Z</time>
      </trkpt>
      <trkpt lat="47.67007" lon="-2.9784">
        <ele>21.6</ele>
        <time>2020-06-06T14:11:11Z</time>
      </trkpt>
      <trkpt lat="47.67008" lon="-2.97844">
        <ele>21.7</ele>
        <time>2020-06-06T14:11:12Z</time>
      </trkpt>
      <trkpt lat="47.6701" lon="-2.97851">
        <ele>22</ele>
        <time>2020-06-06T14:11:13Z</time>
      </trkpt>
      <trkpt lat="47.67011" lon="-2.97855">
        <ele>22.1</ele>
        <time>2020-06-06T14:11:14Z</time>
      </trkpt>
      <trkpt lat="47.67013" lon="-2.9786">
        <ele>22.3</ele>
        <time>2020-06-06T14:11:15Z</time>
      </trkpt>
      <trkpt lat="47.67014" lon="-2.97865">
        <ele>22.4</ele>
        <time>2020-06-06T14:11:16Z</time>
      </trkpt>
      <trkpt lat="47.67015" lon="-2.97869">
        <ele>22.6</ele>
        <time>2020-06-06T14:11:17Z</time>
      </trkpt>
      <trkpt lat="47.67016" lon="-2.97874">
        <ele>22.7</ele>
        <time>2020-06-06T14:11:18Z</time>
      </trkpt>
      <trkpt lat="47.67018" lon="-2.9788">
        <ele>22.9</ele>
        <time>2020-06-06T14:11:19Z</time>
      </trkpt>
      <trkpt lat="47.67019" lon="-2.97883">
        <ele>23</ele>
        <time>2020-06-06T14:11:20Z</time>
      </trkpt>
      <trkpt lat="47.6702" lon="-2.97887">
        <ele>23.2</ele>
        <time>2020-06-06T14:11:21Z</time>
      </trkpt>
      <trkpt lat="47.67021" lon="-2.97892">
        <ele>23.3</ele>
        <time>2020-06-06T14:11:22Z</time>
      </trkpt>
      <trkpt lat="47.67023" lon="-2.97896">
        <ele>23.4</ele>
        <time>2020-06-06T14:11:23Z</time>
      </trkpt>
      <trkpt lat="47.67024" lon="-2.97901">
        <ele>23.6</ele>
        <time>2020-06-06T14:11:24Z</time>
      </trkpt>
      <trkpt lat="47.67025" lon="-2.97905">
        <ele>23.7</ele>
        <time>2020-06-06T14:11:25Z</time>
      </trkpt>
      <trkpt lat="47.67027" lon="-2.97911">
        <ele>23.9</ele>
        <time>2020-06-06T14:11:26Z</time>
      </trkpt>
      <trkpt lat="47.6703" lon="-2.97916">
        <ele>24</ele>
        <time>2020-06-06T14:11:27Z</time>
      </trkpt>
      <trkpt lat="47.6703" lon="-2.9792">
        <ele>24.1</ele>
        <time>2020-06-06T14:11:28Z</time>
      </trkpt>
      <trkpt lat="47.67031" lon="-2.97925">
        <ele>24.2</ele>
        <time>2020-06-06T14:11:29Z</time>
      </trkpt>
      <trkpt lat="47.67032" lon="-2.9793">
        <ele>24.4</ele>
        <time>2020-06-06T14:11:30Z</time>
      </trkpt>
      <trkpt lat="47.67033" lon="-2.97934">
        <ele>24.5</ele>
        <time>2020-06-06T14:11:31Z</time>
      </trkpt>
      <trkpt lat="47.67034" lon="-2.9794">
        <ele>24.6</ele>
        <time>2020-06-06T14:11:32Z</time>
      </trkpt>
      <trkpt lat="47.67035" lon="-2.97944">
        <ele>24.8</ele>
        <time>2020-06-06T14:11:33Z</time>
      </trkpt>
      <trkpt lat="47.67037" lon="-2.9795">
        <ele>25</ele>
        <time>2020-06-06T14:11:34Z</time>
      </trkpt>
      <trkpt lat="47.67038" lon="-2.97954">
        <ele>25.1</ele>
        <time>2020-06-06T14:11:35Z</time>
      </trkpt>
      <trkpt lat="47.6704" lon="-2.9796">
        <ele>25.3</ele>
        <time>2020-06-06T14:11:36Z</time>
      </trkpt>
      <trkpt lat="47.67041" lon="-2.97965">
        <ele>25.4</ele>
        <time>2020-06-06T14:11:37Z</time>
      </trkpt>
      <trkpt lat="47.67042" lon="-2.97971">
        <ele>25.6</ele>
        <time>2020-06-06T14:11:38Z</time>
      </trkpt>
      <trkpt lat="47.67044" lon="-2.97976">
        <ele>25.7</ele>
        <time>2020-06-06T14:11:39Z</time>
      </trkpt>
      <trkpt lat="47.67045" lon="-2.97981">
        <ele>25.9</ele>
        <time>2020-06-06T14:11:40Z</time>
      </trkpt>
      <trkpt lat="47.67046" lon="-2.97986">
        <ele>26</ele>
        <time>2020-06-06T14:11:41Z</time>
      </trkpt>
      <trkpt lat="47.67047" lon="-2.9799">
        <ele>26.1</ele>
        <time>2020-06-06T14:11:42Z</time>
      </trkpt>
      <trkpt lat="47.6705" lon="-2.97995">
        <ele>26.2</ele>
        <time>2020-06-06T14:11:43Z</time>
      </trkpt>
      <trkpt lat="47.67053" lon="-2.98001">
        <ele>26.4</ele>
        <time>2020-06-06T14:11:44Z</time>
      </trkpt>
      <trkpt lat="47.67053" lon="-2.98006">
        <ele>26.5</ele>
        <time>2020-06-06T14:11:45Z</time>
      </trkpt>
      <trkpt lat="47.67054" lon="-2.98008">
        <ele>26.6</ele>
        <time>2020-06-06T14:11:46Z</time>
      </trkpt>
      <trkpt lat="47.67056" lon="-2.98014">
        <ele>26.7</ele>
        <time>2020-06-06T14:11:47Z</time>
      </trkpt>
      <trkpt lat="47.67059" lon="-2.98019">
        <ele>26.8</ele>
        <time>2020-06-06T14:11:48Z</time>
      </trkpt>
      <trkpt lat="47.6706" lon="-2.98025">
        <ele>26.9</ele>
        <time>2020-06-06T14:11:49Z</time>
      </trkpt>
      <trkpt lat="47.67061" lon="-2.98029">
        <ele>27</ele>
        <time>2020-06-06T14:11:50Z</time>
      </trkpt>
      <trkpt lat="47.67063" lon="-2.98035">
        <ele>27.1</ele>
        <time>2020-06-06T14:11:51Z</time>
      </trkpt>
      <trkpt lat="47.67064" lon="-2.9804">
        <ele>27.2</ele>
        <time>2020-06-06T14:11:52Z</time>
      </trkpt>
      <trkpt lat="47.67066" lon="-2.98046">
        <ele>27.4</ele>
        <time>2020-06-06T14:11:53Z</time>
      </trkpt>
      <trkpt lat="47.67068" lon="-2.98051">
        <ele>27.5</ele>
        <time>2020-06-06T14:11:54Z</time>
      </trkpt>
      <trkpt lat="47.67069" lon="-2.98056">
        <ele>27.7</ele>
        <time>2020-06-06T14:11:55Z</time>
      </trkpt>
      <trkpt lat="47.67071" lon="-2.98061">
        <ele>27.8</ele>
        <time>2020-06-06T14:11:56Z</time>
      </trkpt>
      <trkpt lat="47.67072" lon="-2.98066">
        <ele>27.9</ele>
        <time>2020-06-06T14:11:57Z</time>
      </trkpt>
      <trkpt lat="47.67073" lon="-2.9807">
        <ele>28</ele>
        <time>2020-06-06T14:11:58Z</time>
      </trkpt>
      <trkpt lat="47.67076" lon="-2.98075">
        <ele>28.1</ele>
        <time>2020-06-06T14:11:59Z</time>
      </trkpt>
      <trkpt lat="47.67076" lon="-2.98079">
        <ele>28.1</ele>
        <time>2020-06-06T14:12:00Z</time>
      </trkpt>
      <trkpt lat="47.67077" lon="-2.98084">
        <ele>28.1</ele>
        <time>2020-06-06T14:12:01Z</time>
      </trkpt>
      <trkpt lat="47.67077" lon="-2.98089">
        <ele>28.2</ele>
        <time>2020-06-06T14:12:02Z</time>
      </trkpt>
      <trkpt lat="47.67078" lon="-2.98091">
        <ele>28.2</ele>
        <time>2020-06-06T14:12:03Z</time>
      </trkpt>
      <trkpt lat="47.67079" lon="-2.98097">
        <ele>28.2</ele>
        <time>2020-06-06T14:12:04Z</time>
      </trkpt>
      <trkpt lat="47.6708" lon="-2.98101">
        <ele>28.3</ele>
        <time>2020-06-06T14:12:05Z</time>
      </trkpt>
      <trkpt lat="47.67083" lon="-2.98105">
        <ele>28.3</ele>
        <time>2020-06-06T14:12:06Z</time>
      </trkpt>
      <trkpt lat="47.67085" lon="-2.98109">
        <ele>28.3</ele>
        <time>2020-06-06T14:12:07Z</time>
      </trkpt>
      <trkpt lat="47.67086" lon="-2.98113">
        <ele>28.4</ele>
        <time>2020-06-06T14:12:08Z</time>
      </trkpt>
      <trkpt lat="47.67087" lon="-2.98115">
        <ele>28.4</ele>
        <time>2020-06-06T14:12:09Z</time>
      </trkpt>
      <trkpt lat="47.67088" lon="-2.98118">
        <ele>28.4</ele>
        <time>2020-06-06T14:12:10Z</time>
      </trkpt>
      <trkpt lat="47.6709" lon="-2.98124">
        <ele>28.4</ele>
        <time>2020-06-06T14:12:11Z</time>
      </trkpt>
      <trkpt lat="47.67092" lon="-2.98127">
        <ele>28.5</ele>
        <time>2020-06-06T14:12:12Z</time>
      </trkpt>
      <trkpt lat="47.67096" lon="-2.9813">
        <ele>28.5</ele>
        <time>2020-06-06T14:12:13Z</time>
      </trkpt>
      <trkpt lat="47.67099" lon="-2.98133">
        <ele>28.6</ele>
        <time>2020-06-06T14:12:14Z</time>
      </trkpt>
      <trkpt lat="47.67101" lon="-2.98134">
        <ele>28.6</ele>
        <time>2020-06-06T14:12:15Z</time>
      </trkpt>
      <trkpt lat="47.67102" lon="-2.98136">
        <ele>28.6</ele>
        <time>2020-06-06T14:12:16Z</time>
      </trkpt>
      <trkpt lat="47.67101" lon="-2.98139">
        <ele>28.6</ele>
        <time>2020-06-06T14:12:17Z</time>
      </trkpt>
      <trkpt lat="47.671" lon="-2.9814">
        <ele>28.6</ele>
        <time>2020-06-06T14:12:18Z</time>
      </trkpt>
      <trkpt lat="47.67097" lon="-2.98144">
        <ele>28.7</ele>
        <time>2020-06-06T14:12:19Z</time>
      </trkpt>
      <trkpt lat="47.67092" lon="-2.98147">
        <ele>28.8</ele>
        <time>2020-06-06T14:12:20Z</time>
      </trkpt>
      <trkpt lat="47.67089" lon="-2.98148">
        <ele>28.9</ele>
        <time>2020-06-06T14:12:21Z</time>
      </trkpt>
      <trkpt lat="47.67086" lon="-2.9815">
        <ele>29</ele>
        <time>2020-06-06T14:12:22Z</time>
      </trkpt>
      <trkpt lat="47.67083" lon="-2.98153">
        <ele>29.2</ele>
        <time>2020-06-06T14:12:23Z</time>
      </trkpt>
      <trkpt lat="47.67081" lon="-2.98157">
        <ele>29.3</ele>
        <time>2020-06-06T14:12:24Z</time>
      </trkpt>
      <trkpt lat="47.6708" lon="-2.98158">
        <ele>29.4</ele>
        <time>2020-06-06T14:12:25Z</time>
      </trkpt>
      <trkpt lat="47.67078" lon="-2.98162">
        <ele>29.6</ele>
        <time>2020-06-06T14:12:26Z</time>
      </trkpt>
      <trkpt lat="47.67078" lon="-2.98163">
        <ele>29.6</ele>
        <time>2020-06-06T14:12:27Z</time>
      </trkpt>
      <trkpt lat="47.67077" lon="-2.98167">
        <ele>29.6</ele>
        <time>2020-06-06T14:12:28Z</time>
      </trkpt>
      <trkpt lat="47.67078" lon="-2.98169">
        <ele>29.6</ele>
        <time>2020-06-06T14:12:29Z</time>
      </trkpt>
      <trkpt lat="47.67079" lon="-2.98172">
        <ele>29.6</ele>
        <time>2020-06-06T14:12:30Z</time>
      </trkpt>
      <trkpt lat="47.67081" lon="-2.98175">
        <ele>29.6</ele>
        <time>2020-06-06T14:12:31Z</time>
      </trkpt>
      <trkpt lat="47.67082" lon="-2.98178">
        <ele>29.7</ele>
        <time>2020-06-06T14:12:32Z</time>
      </trkpt>
      <trkpt lat="47.67084" lon="-2.98183">
        <ele>29.7</ele>
        <time>2020-06-06T14:12:33Z</time>
      </trkpt>
      <trkpt lat="47.67084" lon="-2.98185">
        <ele>29.7</ele>
        <time>2020-06-06T14:12:34Z</time>
      </trkpt>
      <trkpt lat="47.67086" lon="-2.98189">
        <ele>29.8</ele>
        <time>2020-06-06T14:12:35Z</time>
      </trkpt>
      <trkpt lat="47.67086" lon="-2.98193">
        <ele>29.8</ele>
        <time>2020-06-06T14:12:36Z</time>
      </trkpt>
      <trkpt lat="47.67087" lon="-2.98198">
        <ele>29.9</ele>
        <time>2020-06-06T14:12:37Z</time>
      </trkpt>
      <trkpt lat="47.67089" lon="-2.98205">
        <ele>30</ele>
        <time>2020-06-06T14:12:38Z</time>
      </trkpt>
      <trkpt lat="47.6709" lon="-2.98207">
        <ele>30</ele>
        <time>2020-06-06T14:12:39Z</time>
      </trkpt>
      <trkpt lat="47.67091" lon="-2.98213">
        <ele>30.1</ele>
        <time>2020-06-06T14:12:40Z</time>
      </trkpt>
      <trkpt lat="47.67092" lon="-2.98219">
        <ele>30.1</ele>
        <time>2020-06-06T14:12:41Z</time>
      </trkpt>
      <trkpt lat="47.67093" lon="-2.98224">
        <ele>30.2</ele>
        <time>2020-06-06T14:12:42Z</time>
      </trkpt>
      <trkpt lat="47.67094" lon="-2.98229">
        <ele>30.2</ele>
        <time>2020-06-06T14:12:43Z</time>
      </trkpt>
      <trkpt lat="47.67095" lon="-2.98234">
        <ele>30.3</ele>
        <time>2020-06-06T14:12:44Z</time>
      </trkpt>
      <trkpt lat="47.67096" lon="-2.9824">
        <ele>30.3</ele>
        <time>2020-06-06T14:12:45Z</time>
      </trkpt>
      <trkpt lat="47.67097" lon="-2.98246">
        <ele>30.3</ele>
        <time>2020-06-06T14:12:46Z</time>
      </trkpt>
      <trkpt lat="47.67098" lon="-2.98251">
        <ele>30.4</ele>
        <time>2020-06-06T14:12:47Z</time>
      </trkpt>
      <trkpt lat="47.67098" lon="-2.98256">
        <ele>30.4</ele>
        <time>2020-06-06T14:12:48Z</time>
      </trkpt>
      <trkpt lat="47.67099" lon="-2.98262">
        <ele>30.4</ele>
        <time>2020-06-06T14:12:49Z</time>
      </trkpt>
      <trkpt lat="47.67101" lon="-2.98267">
        <ele>30.5</ele>
        <time>2020-06-06T14:12:50Z</time>
      </trkpt>
      <trkpt lat="47.67101" lon="-2.98273">
        <ele>30.5</ele>
        <time>2020-06-06T14:12:51Z</time>
      </trkpt>
      <trkpt lat="47.67101" lon="-2.98278">
        <ele>30.5</ele>
        <time>2020-06-06T14:12:52Z</time>
      </trkpt>
      <trkpt lat="47.67102" lon="-2.98285">
        <ele>30.6</ele>
        <time>2020-06-06T14:12:53Z</time>
      </trkpt>
      <trkpt lat="47.67103" lon="-2.98291">
        <ele>30.6</ele>
        <time>2020-06-06T14:12:54Z</time>
      </trkpt>
      <trkpt lat="47.67104" lon="-2.98297">
        <ele>30.6</ele>
        <time>2020-06-06T14:12:55Z</time>
      </trkpt>
      <trkpt lat="47.67106" lon="-2.98303">
        <ele>30.7</ele>
        <time>2020-06-06T14:12:56Z</time>
      </trkpt>
      <trkpt lat="47.67107" lon="-2.98309">
        <ele>30.7</ele>
        <time>2020-06-06T14:12:57Z</time>
      </trkpt>
      <trkpt lat="47.67107" lon="-2.98316">
        <ele>30.8</ele>
        <time>2020-06-06T14:12:58Z</time>
      </trkpt>
      <trkpt lat="47.67107" lon="-2.98322">
        <ele>30.8</ele>
        <time>2020-06-06T14:12:59Z</time>
      </trkpt>
      <trkpt lat="47.67106" lon="-2.98329">
        <ele>30.9</ele>
        <time>2020-06-06T14:13:00Z</time>
      </trkpt>
      <trkpt lat="47.67107" lon="-2.98335">
        <ele>31</ele>
        <time>2020-06-06T14:13:01Z</time>
      </trkpt>
      <trkpt lat="47.67107" lon="-2.98341">
        <ele>31</ele>
        <time>2020-06-06T14:13:02Z</time>
      </trkpt>
      <trkpt lat="47.67106" lon="-2.98348">
        <ele>31.1</ele>
        <time>2020-06-06T14:13:03Z</time>
      </trkpt>
      <trkpt lat="47.67106" lon="-2.98354">
        <ele>31.2</ele>
        <time>2020-06-06T14:13:04Z</time>
      </trkpt>
      <trkpt lat="47.67106" lon="-2.98361">
        <ele>31.2</ele>
        <time>2020-06-06T14:13:05Z</time>
      </trkpt>
      <trkpt lat="47.67106" lon="-2.98367">
        <ele>31.3</ele>
        <time>2020-06-06T14:13:06Z</time>
      </trkpt>
      <trkpt lat="47.67106" lon="-2.98373">
        <ele>31.3</ele>
        <time>2020-06-06T14:13:07Z</time>
      </trkpt>
      <trkpt lat="47.67106" lon="-2.98378">
        <ele>31.4</ele>
        <time>2020-06-06T14:13:08Z</time>
      </trkpt>
      <trkpt lat="47.67106" lon="-2.98385">
        <ele>31.4</ele>
        <time>2020-06-06T14:13:09Z</time>
      </trkpt>
      <trkpt lat="47.67107" lon="-2.9839">
        <ele>31.5</ele>
        <time>2020-06-06T14:13:10Z</time>
      </trkpt>
      <trkpt lat="47.67107" lon="-2.98396">
        <ele>31.5</ele>
        <time>2020-06-06T14:13:11Z</time>
      </trkpt>
      <trkpt lat="47.67108" lon="-2.98402">
        <ele>31.6</ele>
        <time>2020-06-06T14:13:12Z</time>
      </trkpt>
      <trkpt lat="47.67108" lon="-2.98407">
        <ele>31.6</ele>
        <time>2020-06-06T14:13:13Z</time>
      </trkpt>
      <trkpt lat="47.67109" lon="-2.98412">
        <ele>31.7</ele>
        <time>2020-06-06T14:13:14Z</time>
      </trkpt>
      <trkpt lat="47.6711" lon="-2.98417">
        <ele>31.8</ele>
        <time>2020-06-06T14:13:15Z</time>
      </trkpt>
      <trkpt lat="47.6711" lon="-2.98419">
        <ele>31.8</ele>
        <time>2020-06-06T14:13:16Z</time>
      </trkpt>
      <trkpt lat="47.6711" lon="-2.98424">
        <ele>31.8</ele>
        <time>2020-06-06T14:13:17Z</time>
      </trkpt>
      <trkpt lat="47.67109" lon="-2.98426">
        <ele>31.8</ele>
        <time>2020-06-06T14:13:18Z</time>
      </trkpt>
      <trkpt lat="47.67109" lon="-2.98431">
        <ele>31.9</ele>
        <time>2020-06-06T14:13:19Z</time>
      </trkpt>
      <trkpt lat="47.67109" lon="-2.98432">
        <ele>31.9</ele>
        <time>2020-06-06T14:13:20Z</time>
      </trkpt>
      <trkpt lat="47.67108" lon="-2.98433">
        <ele>31.9</ele>
        <time>2020-06-06T14:13:21Z</time>
      </trkpt>
      <trkpt lat="47.67108" lon="-2.98434">
        <ele>31.9</ele>
        <time>2020-06-06T14:13:22Z</time>
      </trkpt>
      <trkpt lat="47.67108" lon="-2.98435">
        <ele>31.9</ele>
        <time>2020-06-06T14:13:23Z</time>
      </trkpt>
      <trkpt lat="47.67108" lon="-2.98436">
        <ele>31.9</ele>
        <time>2020-06-06T14:13:24Z</time>
      </trkpt>
      <trkpt lat="47.67108" lon="-2.98437">
        <ele>31.9</ele>
        <time>2020-06-06T14:13:25Z</time>
      </trkpt>
      <trkpt lat="47.67108" lon="-2.98438">
        <ele>31.9</ele>
        <time>2020-06-06T14:13:26Z</time>
      </trkpt>
      <trkpt lat="47.67108" lon="-2.98439">
        <ele>31.9</ele>
        <time>2020-06-06T14:13:27Z</time>
      </trkpt>
      <trkpt lat="47.67108" lon="-2.98439">
        <ele>31.9</ele>
        <time>2020-06-06T14:13:28Z</time>
      </trkpt>
      <trkpt lat="47.67108" lon="-2.9844">
        <ele>31.9</ele>
        <time>2020-06-06T14:13:29Z</time>
      </trkpt>
      <trkpt lat="47.67108" lon="-2.98441">
        <ele>31.9</ele>
        <time>2020-06-06T14:13:30Z</time>
      </trkpt>
      <trkpt lat="47.67108" lon="-2.98442">
        <ele>31.9</ele>
        <time>2020-06-06T14:13:31Z</time>
      </trkpt>
      <trkpt lat="47.67108" lon="-2.98443">
        <ele>32</ele>
        <time>2020-06-06T14:13:32Z</time>
      </trkpt>
      <trkpt lat="47.67108" lon="-2.98444">
        <ele>32</ele>
        <time>2020-06-06T14:13:50Z</time>
      </trkpt>
      <trkpt lat="47.67108" lon="-2.98445">
        <ele>32</ele>
        <time>2020-06-06T14:13:51Z</time>
      </trkpt>
      <trkpt lat="47.67107" lon="-2.9845">
        <ele>32</ele>
        <time>2020-06-06T14:13:52Z</time>
      </trkpt>
      <trkpt lat="47.67107" lon="-2.98452">
        <ele>32</ele>
        <time>2020-06-06T14:13:53Z</time>
      </trkpt>
      <trkpt lat="47.67106" lon="-2.98457">
        <ele>32.1</ele>
        <time>2020-06-06T14:13:54Z</time>
      </trkpt>
      <trkpt lat="47.67106" lon="-2.98459">
        <ele>32.1</ele>
        <time>2020-06-06T14:13:55Z</time>
      </trkpt>
      <trkpt lat="47.67105" lon="-2.98465">
        <ele>32.2</ele>
        <time>2020-06-06T14:13:56Z</time>
      </trkpt>
      <trkpt lat="47.67105" lon="-2.98466">
        <ele>32.2</ele>
        <time>2020-06-06T14:13:57Z</time>
      </trkpt>
      <trkpt lat="47.67104" lon="-2.98472">
        <ele>32.3</ele>
        <time>2020-06-06T14:13:58Z</time>
      </trkpt>
      <trkpt lat="47.67103" lon="-2.98474">
        <ele>32.3</ele>
        <time>2020-06-06T14:13:59Z</time>
      </trkpt>
      <trkpt lat="47.67103" lon="-2.98479">
        <ele>32.3</ele>
        <time>2020-06-06T14:14:00Z</time>
      </trkpt>
      <trkpt lat="47.67104" lon="-2.98484">
        <ele>32.4</ele>
        <time>2020-06-06T14:14:01Z</time>
      </trkpt>
      <trkpt lat="47.67105" lon="-2.98488">
        <ele>32.4</ele>
        <time>2020-06-06T14:14:02Z</time>
      </trkpt>
      <trkpt lat="47.67105" lon="-2.98493">
        <ele>32.4</ele>
        <time>2020-06-06T14:14:03Z</time>
      </trkpt>
      <trkpt lat="47.67106" lon="-2.98497">
        <ele>32.5</ele>
        <time>2020-06-06T14:14:04Z</time>
      </trkpt>
      <trkpt lat="47.67106" lon="-2.98502">
        <ele>32.5</ele>
        <time>2020-06-06T14:14:05Z</time>
      </trkpt>
      <trkpt lat="47.67106" lon="-2.98508">
        <ele>32.6</ele>
        <time>2020-06-06T14:14:06Z</time>
      </trkpt>
      <trkpt lat="47.67107" lon="-2.98513">
        <ele>32.6</ele>
        <time>2020-06-06T14:14:07Z</time>
      </trkpt>
      <trkpt lat="47.67107" lon="-2.98518">
        <ele>32.7</ele>
        <time>2020-06-06T14:14:08Z</time>
      </trkpt>
      <trkpt lat="47.67106" lon="-2.98525">
        <ele>32.8</ele>
        <time>2020-06-06T14:14:09Z</time>
      </trkpt>
      <trkpt lat="47.67106" lon="-2.9853">
        <ele>32.9</ele>
        <time>2020-06-06T14:14:10Z</time>
      </trkpt>
      <trkpt lat="47.67107" lon="-2.98536">
        <ele>33</ele>
        <time>2020-06-06T14:14:11Z</time>
      </trkpt>
      <trkpt lat="47.67108" lon="-2.98541">
        <ele>33</ele>
        <time>2020-06-06T14:14:12Z</time>
      </trkpt>
      <trkpt lat="47.67107" lon="-2.98546">
        <ele>33.1</ele>
        <time>2020-06-06T14:14:13Z</time>
      </trkpt>
      <trkpt lat="47.67107" lon="-2.98552">
        <ele>33.1</ele>
        <time>2020-06-06T14:14:14Z</time>
      </trkpt>
      <trkpt lat="47.67105" lon="-2.98558">
        <ele>33.2</ele>
        <time>2020-06-06T14:14:15Z</time>
      </trkpt>
      <trkpt lat="47.67104" lon="-2.98563">
        <ele>33.3</ele>
        <time>2020-06-06T14:14:16Z</time>
      </trkpt>
      <trkpt lat="47.67103" lon="-2.98568">
        <ele>33.3</ele>
        <time>2020-06-06T14:14:17Z</time>
      </trkpt>
      <trkpt lat="47.67103" lon="-2.98573">
        <ele>33.4</ele>
        <time>2020-06-06T14:14:18Z</time>
      </trkpt>
      <trkpt lat="47.67103" lon="-2.98579">
        <ele>33.5</ele>
        <time>2020-06-06T14:14:19Z</time>
      </trkpt>
      <trkpt lat="47.67103" lon="-2.98585">
        <ele>33.5</ele>
        <time>2020-06-06T14:14:20Z</time>
      </trkpt>
      <trkpt lat="47.67103" lon="-2.98591">
        <ele>33.6</ele>
        <time>2020-06-06T14:14:21Z</time>
      </trkpt>
      <trkpt lat="47.67102" lon="-2.98597">
        <ele>33.7</ele>
        <time>2020-06-06T14:14:22Z</time>
      </trkpt>
      <trkpt lat="47.67102" lon="-2.98602">
        <ele>33.8</ele>
        <time>2020-06-06T14:14:23Z</time>
      </trkpt>
      <trkpt lat="47.67101" lon="-2.98607">
        <ele>33.9</ele>
        <time>2020-06-06T14:14:24Z</time>
      </trkpt>
      <trkpt lat="47.671" lon="-2.98612">
        <ele>34</ele>
        <time>2020-06-06T14:14:25Z</time>
      </trkpt>
      <trkpt lat="47.671" lon="-2.98617">
        <ele>34.2</ele>
        <time>2020-06-06T14:14:26Z</time>
      </trkpt>
      <trkpt lat="47.67098" lon="-2.98624">
        <ele>34.4</ele>
        <time>2020-06-06T14:14:27Z</time>
      </trkpt>
      <trkpt lat="47.67098" lon="-2.98629">
        <ele>34.6</ele>
        <time>2020-06-06T14:14:28Z</time>
      </trkpt>
      <trkpt lat="47.67097" lon="-2.98635">
        <ele>34.8</ele>
        <time>2020-06-06T14:14:29Z</time>
      </trkpt>
      <trkpt lat="47.67096" lon="-2.98639">
        <ele>35</ele>
        <time>2020-06-06T14:14:30Z</time>
      </trkpt>
      <trkpt lat="47.67095" lon="-2.98645">
        <ele>35.1</ele>
        <time>2020-06-06T14:14:31Z</time>
      </trkpt>
      <trkpt lat="47.67094" lon="-2.9865">
        <ele>35.3</ele>
        <time>2020-06-06T14:14:32Z</time>
      </trkpt>
      <trkpt lat="47.67094" lon="-2.98655">
        <ele>35.5</ele>
        <time>2020-06-06T14:14:33Z</time>
      </trkpt>
      <trkpt lat="47.67094" lon="-2.98661">
        <ele>35.7</ele>
        <time>2020-06-06T14:14:34Z</time>
      </trkpt>
      <trkpt lat="47.67094" lon="-2.98667">
        <ele>35.9</ele>
        <time>2020-06-06T14:14:35Z</time>
      </trkpt>
      <trkpt lat="47.67094" lon="-2.98673">
        <ele>36.1</ele>
        <time>2020-06-06T14:14:36Z</time>
      </trkpt>
      <trkpt lat="47.67094" lon="-2.98679">
        <ele>36.4</ele>
        <time>2020-06-06T14:14:37Z</time>
      </trkpt>
      <trkpt lat="47.67095" lon="-2.98686">
        <ele>35.9</ele>
        <time>2020-06-06T14:14:38Z</time>
      </trkpt>
      <trkpt lat="47.67095" lon="-2.98691">
        <ele>35.7</ele>
        <time>2020-06-06T14:14:39Z</time>
      </trkpt>
      <trkpt lat="47.67094" lon="-2.98696">
        <ele>35.6</ele>
        <time>2020-06-06T14:14:40Z</time>
      </trkpt>
      <trkpt lat="47.67091" lon="-2.98702">
        <ele>35.8</ele>
        <time>2020-06-06T14:14:41Z</time>
      </trkpt>
      <trkpt lat="47.67089" lon="-2.98707">
        <ele>35.8</ele>
        <time>2020-06-06T14:14:42Z</time>
      </trkpt>
      <trkpt lat="47.67088" lon="-2.98712">
        <ele>35.8</ele>
        <time>2020-06-06T14:14:43Z</time>
      </trkpt>
      <trkpt lat="47.67087" lon="-2.98717">
        <ele>35.8</ele>
        <time>2020-06-06T14:14:44Z</time>
      </trkpt>
      <trkpt lat="47.67086" lon="-2.98722">
        <ele>35.9</ele>
        <time>2020-06-06T14:14:45Z</time>
      </trkpt>
      <trkpt lat="47.67087" lon="-2.98727">
        <ele>35.9</ele>
        <time>2020-06-06T14:14:46Z</time>
      </trkpt>
      <trkpt lat="47.67086" lon="-2.98733">
        <ele>35.9</ele>
        <time>2020-06-06T14:14:47Z</time>
      </trkpt>
      <trkpt lat="47.67085" lon="-2.98738">
        <ele>35.9</ele>
        <time>2020-06-06T14:14:48Z</time>
      </trkpt>
      <trkpt lat="47.67085" lon="-2.98744">
        <ele>35.9</ele>
        <time>2020-06-06T14:14:49Z</time>
      </trkpt>
      <trkpt lat="47.67083" lon="-2.98749">
        <ele>36</ele>
        <time>2020-06-06T14:14:50Z</time>
      </trkpt>
      <trkpt lat="47.67083" lon="-2.98755">
        <ele>36</ele>
        <time>2020-06-06T14:14:51Z</time>
      </trkpt>
      <trkpt lat="47.67083" lon="-2.98761">
        <ele>36.1</ele>
        <time>2020-06-06T14:14:52Z</time>
      </trkpt>
      <trkpt lat="47.67082" lon="-2.98766">
        <ele>36.1</ele>
        <time>2020-06-06T14:14:53Z</time>
      </trkpt>
      <trkpt lat="47.67082" lon="-2.98772">
        <ele>36.3</ele>
        <time>2020-06-06T14:14:54Z</time>
      </trkpt>
      <trkpt lat="47.67081" lon="-2.98777">
        <ele>36.4</ele>
        <time>2020-06-06T14:14:55Z</time>
      </trkpt>
      <trkpt lat="47.67081" lon="-2.98782">
        <ele>36.6</ele>
        <time>2020-06-06T14:14:56Z</time>
      </trkpt>
      <trkpt lat="47.67081" lon="-2.98788">
        <ele>36.8</ele>
        <time>2020-06-06T14:14:57Z</time>
      </trkpt>
      <trkpt lat="47.67079" lon="-2.98793">
        <ele>36.9</ele>
        <time>2020-06-06T14:14:58Z</time>
      </trkpt>
      <trkpt lat="47.67079" lon="-2.98799">
        <ele>37.1</ele>
        <time>2020-06-06T14:14:59Z</time>
      </trkpt>
      <trkpt lat="47.67078" lon="-2.98805">
        <ele>37.3</ele>
        <time>2020-06-06T14:15:00Z</time>
      </trkpt>
      <trkpt lat="47.67077" lon="-2.98811">
        <ele>37.5</ele>
        <time>2020-06-06T14:15:01Z</time>
      </trkpt>
      <trkpt lat="47.67077" lon="-2.98816">
        <ele>37.7</ele>
        <time>2020-06-06T14:15:02Z</time>
      </trkpt>
      <trkpt lat="47.67077" lon="-2.9882">
        <ele>37.8</ele>
        <time>2020-06-06T14:15:03Z</time>
      </trkpt>
      <trkpt lat="47.67076" lon="-2.98826">
        <ele>38</ele>
        <time>2020-06-06T14:15:04Z</time>
      </trkpt>
      <trkpt lat="47.67076" lon="-2.9883">
        <ele>38.1</ele>
        <time>2020-06-06T14:15:05Z</time>
      </trkpt>
      <trkpt lat="47.67076" lon="-2.98835">
        <ele>38.2</ele>
        <time>2020-06-06T14:15:06Z</time>
      </trkpt>
      <trkpt lat="47.67076" lon="-2.98842">
        <ele>38.4</ele>
        <time>2020-06-06T14:15:07Z</time>
      </trkpt>
      <trkpt lat="47.67075" lon="-2.98846">
        <ele>38.6</ele>
        <time>2020-06-06T14:15:08Z</time>
      </trkpt>
      <trkpt lat="47.67075" lon="-2.98851">
        <ele>38.7</ele>
        <time>2020-06-06T14:15:09Z</time>
      </trkpt>
      <trkpt lat="47.67074" lon="-2.98858">
        <ele>38.7</ele>
        <time>2020-06-06T14:15:10Z</time>
      </trkpt>
      <trkpt lat="47.67073" lon="-2.98863">
        <ele>38.8</ele>
        <time>2020-06-06T14:15:11Z</time>
      </trkpt>
      <trkpt lat="47.67072" lon="-2.98868">
        <ele>38.8</ele>
        <time>2020-06-06T14:15:12Z</time>
      </trkpt>
      <trkpt lat="47.67071" lon="-2.98873">
        <ele>38.9</ele>
        <time>2020-06-06T14:15:13Z</time>
      </trkpt>
      <trkpt lat="47.6707" lon="-2.98879">
        <ele>38.9</ele>
        <time>2020-06-06T14:15:14Z</time>
      </trkpt>
      <trkpt lat="47.6707" lon="-2.98884">
        <ele>39</ele>
        <time>2020-06-06T14:15:15Z</time>
      </trkpt>
      <trkpt lat="47.67069" lon="-2.9889">
        <ele>39.1</ele>
        <time>2020-06-06T14:15:16Z</time>
      </trkpt>
      <trkpt lat="47.67068" lon="-2.98895">
        <ele>39.1</ele>
        <time>2020-06-06T14:15:17Z</time>
      </trkpt>
      <trkpt lat="47.67067" lon="-2.98902">
        <ele>39.2</ele>
        <time>2020-06-06T14:15:18Z</time>
      </trkpt>
      <trkpt lat="47.67067" lon="-2.98907">
        <ele>39.3</ele>
        <time>2020-06-06T14:15:19Z</time>
      </trkpt>
      <trkpt lat="47.67066" lon="-2.98912">
        <ele>39.4</ele>
        <time>2020-06-06T14:15:20Z</time>
      </trkpt>
      <trkpt lat="47.67065" lon="-2.98917">
        <ele>39.5</ele>
        <time>2020-06-06T14:15:21Z</time>
      </trkpt>
      <trkpt lat="47.67064" lon="-2.98923">
        <ele>39.5</ele>
        <time>2020-06-06T14:15:22Z</time>
      </trkpt>
      <trkpt lat="47.67064" lon="-2.98928">
        <ele>39.6</ele>
        <time>2020-06-06T14:15:23Z</time>
      </trkpt>
      <trkpt lat="47.67064" lon="-2.98934">
        <ele>39.7</ele>
        <time>2020-06-06T14:15:24Z</time>
      </trkpt>
      <trkpt lat="47.67063" lon="-2.9894">
        <ele>39.8</ele>
        <time>2020-06-06T14:15:25Z</time>
      </trkpt>
      <trkpt lat="47.67062" lon="-2.98945">
        <ele>39.9</ele>
        <time>2020-06-06T14:15:26Z</time>
      </trkpt>
      <trkpt lat="47.67062" lon="-2.9895">
        <ele>40</ele>
        <time>2020-06-06T14:15:27Z</time>
      </trkpt>
      <trkpt lat="47.67062" lon="-2.98955">
        <ele>40.1</ele>
        <time>2020-06-06T14:15:28Z</time>
      </trkpt>
      <trkpt lat="47.67061" lon="-2.98959">
        <ele>40.2</ele>
        <time>2020-06-06T14:15:29Z</time>
      </trkpt>
      <trkpt lat="47.67061" lon="-2.98965">
        <ele>40.3</ele>
        <time>2020-06-06T14:15:30Z</time>
      </trkpt>
      <trkpt lat="47.6706" lon="-2.9897">
        <ele>40.4</ele>
        <time>2020-06-06T14:15:31Z</time>
      </trkpt>
      <trkpt lat="47.67059" lon="-2.98975">
        <ele>40.4</ele>
        <time>2020-06-06T14:15:32Z</time>
      </trkpt>
      <trkpt lat="47.67058" lon="-2.9898">
        <ele>40.5</ele>
        <time>2020-06-06T14:15:33Z</time>
      </trkpt>
      <trkpt lat="47.67057" lon="-2.98984">
        <ele>40.6</ele>
        <time>2020-06-06T14:15:34Z</time>
      </trkpt>
      <trkpt lat="47.67056" lon="-2.98988">
        <ele>40.7</ele>
        <time>2020-06-06T14:15:35Z</time>
      </trkpt>
      <trkpt lat="47.67055" lon="-2.98993">
        <ele>40.8</ele>
        <time>2020-06-06T14:15:36Z</time>
      </trkpt>
      <trkpt lat="47.67055" lon="-2.98997">
        <ele>40.8</ele>
        <time>2020-06-06T14:15:37Z</time>
      </trkpt>
      <trkpt lat="47.67055" lon="-2.99002">
        <ele>40.9</ele>
        <time>2020-06-06T14:15:38Z</time>
      </trkpt>
      <trkpt lat="47.67055" lon="-2.99006">
        <ele>41</ele>
        <time>2020-06-06T14:15:39Z</time>
      </trkpt>
      <trkpt lat="47.67054" lon="-2.99011">
        <ele>41.2</ele>
        <time>2020-06-06T14:15:40Z</time>
      </trkpt>
      <trkpt lat="47.67054" lon="-2.99016">
        <ele>41.3</ele>
        <time>2020-06-06T14:15:41Z</time>
      </trkpt>
      <trkpt lat="47.67054" lon="-2.99021">
        <ele>41.4</ele>
        <time>2020-06-06T14:15:42Z</time>
      </trkpt>
      <trkpt lat="47.67054" lon="-2.99027">
        <ele>41.5</ele>
        <time>2020-06-06T14:15:43Z</time>
      </trkpt>
      <trkpt lat="47.67054" lon="-2.99032">
        <ele>41.6</ele>
        <time>2020-06-06T14:15:44Z</time>
      </trkpt>
      <trkpt lat="47.67053" lon="-2.99036">
        <ele>41.7</ele>
        <time>2020-06-06T14:15:45Z</time>
      </trkpt>
      <trkpt lat="47.67053" lon="-2.99039">
        <ele>41.8</ele>
        <time>2020-06-06T14:15:46Z</time>
      </trkpt>
      <trkpt lat="47.67054" lon="-2.9904">
        <ele>41.8</ele>
        <time>2020-06-06T14:15:47Z</time>
      </trkpt>
      <trkpt lat="47.67054" lon="-2.99041">
        <ele>42</ele>
        <time>2020-06-06T14:15:48Z</time>
      </trkpt>
      <trkpt lat="47.67053" lon="-2.99043">
        <ele>42</ele>
        <time>2020-06-06T14:15:49Z</time>
      </trkpt>
      <trkpt lat="47.67053" lon="-2.99044">
        <ele>42</ele>
        <time>2020-06-06T14:15:50Z</time>
      </trkpt>
      <trkpt lat="47.67054" lon="-2.99046">
        <ele>42</ele>
        <time>2020-06-06T14:15:51Z</time>
      </trkpt>
      <trkpt lat="47.67054" lon="-2.99049">
        <ele>42</ele>
        <time>2020-06-06T14:15:52Z</time>
      </trkpt>
      <trkpt lat="47.67055" lon="-2.99054">
        <ele>42</ele>
        <time>2020-06-06T14:15:53Z</time>
      </trkpt>
      <trkpt lat="47.67055" lon="-2.99056">
        <ele>42</ele>
        <time>2020-06-06T14:15:54Z</time>
      </trkpt>
      <trkpt lat="47.67055" lon="-2.99062">
        <ele>42</ele>
        <time>2020-06-06T14:15:55Z</time>
      </trkpt>
      <trkpt lat="47.67055" lon="-2.99068">
        <ele>42</ele>
        <time>2020-06-06T14:15:56Z</time>
      </trkpt>
      <trkpt lat="47.67055" lon="-2.99074">
        <ele>42</ele>
        <time>2020-06-06T14:15:57Z</time>
      </trkpt>
      <trkpt lat="47.67054" lon="-2.99079">
        <ele>42.1</ele>
        <time>2020-06-06T14:15:58Z</time>
      </trkpt>
      <trkpt lat="47.67055" lon="-2.99085">
        <ele>42.2</ele>
        <time>2020-06-06T14:15:59Z</time>
      </trkpt>
      <trkpt lat="47.67055" lon="-2.9909">
        <ele>42.2</ele>
        <time>2020-06-06T14:16:00Z</time>
      </trkpt>
      <trkpt lat="47.67056" lon="-2.99095">
        <ele>42.2</ele>
        <time>2020-06-06T14:16:01Z</time>
      </trkpt>
      <trkpt lat="47.67058" lon="-2.99099">
        <ele>42.2</ele>
        <time>2020-06-06T14:16:02Z</time>
      </trkpt>
      <trkpt lat="47.67058" lon="-2.99105">
        <ele>42.2</ele>
        <time>2020-06-06T14:16:03Z</time>
      </trkpt>
      <trkpt lat="47.67057" lon="-2.99109">
        <ele>42.3</ele>
        <time>2020-06-06T14:16:04Z</time>
      </trkpt>
      <trkpt lat="47.67058" lon="-2.99114">
        <ele>42.3</ele>
        <time>2020-06-06T14:16:05Z</time>
      </trkpt>
      <trkpt lat="47.67059" lon="-2.99119">
        <ele>42.3</ele>
        <time>2020-06-06T14:16:06Z</time>
      </trkpt>
      <trkpt lat="47.67061" lon="-2.99124">
        <ele>42.3</ele>
        <time>2020-06-06T14:16:07Z</time>
      </trkpt>
      <trkpt lat="47.67062" lon="-2.99129">
        <ele>42.3</ele>
        <time>2020-06-06T14:16:08Z</time>
      </trkpt>
      <trkpt lat="47.67062" lon="-2.99135">
        <ele>42.3</ele>
        <time>2020-06-06T14:16:09Z</time>
      </trkpt>
      <trkpt lat="47.67064" lon="-2.9914">
        <ele>42.4</ele>
        <time>2020-06-06T14:16:10Z</time>
      </trkpt>
      <trkpt lat="47.67065" lon="-2.99144">
        <ele>42.4</ele>
        <time>2020-06-06T14:16:11Z</time>
      </trkpt>
      <trkpt lat="47.67067" lon="-2.99149">
        <ele>42.5</ele>
        <time>2020-06-06T14:16:12Z</time>
      </trkpt>
      <trkpt lat="47.67068" lon="-2.99153">
        <ele>42.5</ele>
        <time>2020-06-06T14:16:13Z</time>
      </trkpt>
      <trkpt lat="47.6707" lon="-2.99158">
        <ele>42.6</ele>
        <time>2020-06-06T14:16:14Z</time>
      </trkpt>
      <trkpt lat="47.67071" lon="-2.99162">
        <ele>42.6</ele>
        <time>2020-06-06T14:16:15Z</time>
      </trkpt>
      <trkpt lat="47.67072" lon="-2.99166">
        <ele>42.6</ele>
        <time>2020-06-06T14:16:16Z</time>
      </trkpt>
      <trkpt lat="47.67074" lon="-2.99172">
        <ele>42.6</ele>
        <time>2020-06-06T14:16:17Z</time>
      </trkpt>
      <trkpt lat="47.67076" lon="-2.99176">
        <ele>42.6</ele>
        <time>2020-06-06T14:16:18Z</time>
      </trkpt>
      <trkpt lat="47.67079" lon="-2.99181">
        <ele>42.6</ele>
        <time>2020-06-06T14:16:19Z</time>
      </trkpt>
      <trkpt lat="47.6708" lon="-2.99186">
        <ele>42.6</ele>
        <time>2020-06-06T14:16:20Z</time>
      </trkpt>
      <trkpt lat="47.67082" lon="-2.9919">
        <ele>42.6</ele>
        <time>2020-06-06T14:16:21Z</time>
      </trkpt>
      <trkpt lat="47.67083" lon="-2.99196">
        <ele>42.7</ele>
        <time>2020-06-06T14:16:22Z</time>
      </trkpt>
      <trkpt lat="47.67085" lon="-2.99199">
        <ele>42.7</ele>
        <time>2020-06-06T14:16:23Z</time>
      </trkpt>
      <trkpt lat="47.67086" lon="-2.99203">
        <ele>42.7</ele>
        <time>2020-06-06T14:16:24Z</time>
      </trkpt>
      <trkpt lat="47.67087" lon="-2.99207">
        <ele>42.7</ele>
        <time>2020-06-06T14:16:25Z</time>
      </trkpt>
      <trkpt lat="47.67088" lon="-2.99212">
        <ele>42.7</ele>
        <time>2020-06-06T14:16:26Z</time>
      </trkpt>
      <trkpt lat="47.67089" lon="-2.99217">
        <ele>42.7</ele>
        <time>2020-06-06T14:16:27Z</time>
      </trkpt>
      <trkpt lat="47.67089" lon="-2.99219">
        <ele>42.7</ele>
        <time>2020-06-06T14:16:28Z</time>
      </trkpt>
      <trkpt lat="47.67089" lon="-2.99224">
        <ele>42.7</ele>
        <time>2020-06-06T14:16:29Z</time>
      </trkpt>
      <trkpt lat="47.67089" lon="-2.99228">
        <ele>42.7</ele>
        <time>2020-06-06T14:16:30Z</time>
      </trkpt>
      <trkpt lat="47.6709" lon="-2.99232">
        <ele>42.7</ele>
        <time>2020-06-06T14:16:31Z</time>
      </trkpt>
      <trkpt lat="47.67091" lon="-2.99237">
        <ele>42.7</ele>
        <time>2020-06-06T14:16:32Z</time>
      </trkpt>
      <trkpt lat="47.67092" lon="-2.99242">
        <ele>42.7</ele>
        <time>2020-06-06T14:16:33Z</time>
      </trkpt>
      <trkpt lat="47.67094" lon="-2.99245">
        <ele>42.7</ele>
        <time>2020-06-06T14:16:34Z</time>
      </trkpt>
      <trkpt lat="47.67096" lon="-2.9925">
        <ele>42.7</ele>
        <time>2020-06-06T14:16:35Z</time>
      </trkpt>
      <trkpt lat="47.67098" lon="-2.99255">
        <ele>42.6</ele>
        <time>2020-06-06T14:16:36Z</time>
      </trkpt>
      <trkpt lat="47.671" lon="-2.99259">
        <ele>42.6</ele>
        <time>2020-06-06T14:16:37Z</time>
      </trkpt>
      <trkpt lat="47.67101" lon="-2.99264">
        <ele>42.6</ele>
        <time>2020-06-06T14:16:38Z</time>
      </trkpt>
      <trkpt lat="47.67102" lon="-2.9927">
        <ele>42.5</ele>
        <time>2020-06-06T14:16:39Z</time>
      </trkpt>
      <trkpt lat="47.67104" lon="-2.99276">
        <ele>42.5</ele>
        <time>2020-06-06T14:16:40Z</time>
      </trkpt>
      <trkpt lat="47.67105" lon="-2.9928">
        <ele>42.4</ele>
        <time>2020-06-06T14:16:41Z</time>
      </trkpt>
      <trkpt lat="47.67107" lon="-2.99288">
        <ele>42.4</ele>
        <time>2020-06-06T14:16:42Z</time>
      </trkpt>
      <trkpt lat="47.67109" lon="-2.99294">
        <ele>42.3</ele>
        <time>2020-06-06T14:16:43Z</time>
      </trkpt>
      <trkpt lat="47.6711" lon="-2.99297">
        <ele>42.3</ele>
        <time>2020-06-06T14:16:44Z</time>
      </trkpt>
      <trkpt lat="47.67111" lon="-2.99302">
        <ele>42.2</ele>
        <time>2020-06-06T14:16:45Z</time>
      </trkpt>
      <trkpt lat="47.67113" lon="-2.99308">
        <ele>42.2</ele>
        <time>2020-06-06T14:16:46Z</time>
      </trkpt>
      <trkpt lat="47.67114" lon="-2.99314">
        <ele>42.2</ele>
        <time>2020-06-06T14:16:47Z</time>
      </trkpt>
      <trkpt lat="47.67115" lon="-2.99319">
        <ele>42.1</ele>
        <time>2020-06-06T14:16:48Z</time>
      </trkpt>
      <trkpt lat="47.67116" lon="-2.99325">
        <ele>42.1</ele>
        <time>2020-06-06T14:16:49Z</time>
      </trkpt>
      <trkpt lat="47.67118" lon="-2.99329">
        <ele>42.1</ele>
        <time>2020-06-06T14:16:50Z</time>
      </trkpt>
      <trkpt lat="47.67119" lon="-2.99334">
        <ele>42.1</ele>
        <time>2020-06-06T14:16:51Z</time>
      </trkpt>
      <trkpt lat="47.67121" lon="-2.99338">
        <ele>42</ele>
        <time>2020-06-06T14:16:52Z</time>
      </trkpt>
      <trkpt lat="47.67122" lon="-2.99344">
        <ele>42</ele>
        <time>2020-06-06T14:16:53Z</time>
      </trkpt>
      <trkpt lat="47.67123" lon="-2.99349">
        <ele>42</ele>
        <time>2020-06-06T14:16:54Z</time>
      </trkpt>
      <trkpt lat="47.67124" lon="-2.99353">
        <ele>41.9</ele>
        <time>2020-06-06T14:16:55Z</time>
      </trkpt>
      <trkpt lat="47.67126" lon="-2.99358">
        <ele>41.8</ele>
        <time>2020-06-06T14:16:56Z</time>
      </trkpt>
      <trkpt lat="47.67128" lon="-2.99363">
        <ele>41.8</ele>
        <time>2020-06-06T14:16:57Z</time>
      </trkpt>
      <trkpt lat="47.67129" lon="-2.99367">
        <ele>41.7</ele>
        <time>2020-06-06T14:16:58Z</time>
      </trkpt>
      <trkpt lat="47.67131" lon="-2.99372">
        <ele>41.7</ele>
        <time>2020-06-06T14:16:59Z</time>
      </trkpt>
      <trkpt lat="47.67132" lon="-2.99376">
        <ele>41.6</ele>
        <time>2020-06-06T14:17:00Z</time>
      </trkpt>
      <trkpt lat="47.67134" lon="-2.9938">
        <ele>41.6</ele>
        <time>2020-06-06T14:17:01Z</time>
      </trkpt>
      <trkpt lat="47.67137" lon="-2.99385">
        <ele>41.5</ele>
        <time>2020-06-06T14:17:02Z</time>
      </trkpt>
      <trkpt lat="47.67139" lon="-2.99389">
        <ele>41.5</ele>
        <time>2020-06-06T14:17:03Z</time>
      </trkpt>
      <trkpt lat="47.67141" lon="-2.99393">
        <ele>41.5</ele>
        <time>2020-06-06T14:17:04Z</time>
      </trkpt>
      <trkpt lat="47.67143" lon="-2.99397">
        <ele>41.5</ele>
        <time>2020-06-06T14:17:05Z</time>
      </trkpt>
      <trkpt lat="47.67145" lon="-2.99401">
        <ele>41.5</ele>
        <time>2020-06-06T14:17:06Z</time>
      </trkpt>
      <trkpt lat="47.67147" lon="-2.99407">
        <ele>41.5</ele>
        <time>2020-06-06T14:17:07Z</time>
      </trkpt>
      <trkpt lat="47.67148" lon="-2.99412">
        <ele>41.4</ele>
        <time>2020-06-06T14:17:08Z</time>
      </trkpt>
      <trkpt lat="47.67149" lon="-2.99417">
        <ele>41.3</ele>
        <time>2020-06-06T14:17:09Z</time>
      </trkpt>
      <trkpt lat="47.67151" lon="-2.99423">
        <ele>41.3</ele>
        <time>2020-06-06T14:17:10Z</time>
      </trkpt>
      <trkpt lat="47.67152" lon="-2.99428">
        <ele>41.3</ele>
        <time>2020-06-06T14:17:11Z</time>
      </trkpt>
      <trkpt lat="47.67154" lon="-2.99433">
        <ele>41.2</ele>
        <time>2020-06-06T14:17:12Z</time>
      </trkpt>
      <trkpt lat="47.67156" lon="-2.99437">
        <ele>41.2</ele>
        <time>2020-06-06T14:17:13Z</time>
      </trkpt>
      <trkpt lat="47.67159" lon="-2.99443">
        <ele>41.1</ele>
        <time>2020-06-06T14:17:14Z</time>
      </trkpt>
      <trkpt lat="47.67161" lon="-2.99449">
        <ele>41.1</ele>
        <time>2020-06-06T14:17:15Z</time>
      </trkpt>
      <trkpt lat="47.67162" lon="-2.99453">
        <ele>41.1</ele>
        <time>2020-06-06T14:17:16Z</time>
      </trkpt>
      <trkpt lat="47.67164" lon="-2.99459">
        <ele>41</ele>
        <time>2020-06-06T14:17:17Z</time>
      </trkpt>
      <trkpt lat="47.67166" lon="-2.99463">
        <ele>41</ele>
        <time>2020-06-06T14:17:18Z</time>
      </trkpt>
      <trkpt lat="47.67167" lon="-2.99468">
        <ele>41</ele>
        <time>2020-06-06T14:17:19Z</time>
      </trkpt>
      <trkpt lat="47.67169" lon="-2.99473">
        <ele>41</ele>
        <time>2020-06-06T14:17:20Z</time>
      </trkpt>
      <trkpt lat="47.67171" lon="-2.99478">
        <ele>40.9</ele>
        <time>2020-06-06T14:17:21Z</time>
      </trkpt>
      <trkpt lat="47.67172" lon="-2.99482">
        <ele>40.9</ele>
        <time>2020-06-06T14:17:22Z</time>
      </trkpt>
      <trkpt lat="47.67174" lon="-2.99487">
        <ele>40.9</ele>
        <time>2020-06-06T14:17:23Z</time>
      </trkpt>
      <trkpt lat="47.67174" lon="-2.99491">
        <ele>40.9</ele>
        <time>2020-06-06T14:17:24Z</time>
      </trkpt>
      <trkpt lat="47.67175" lon="-2.99496">
        <ele>40.8</ele>
        <time>2020-06-06T14:17:25Z</time>
      </trkpt>
      <trkpt lat="47.67176" lon="-2.995">
        <ele>40.8</ele>
        <time>2020-06-06T14:17:26Z</time>
      </trkpt>
      <trkpt lat="47.67177" lon="-2.99502">
        <ele>40.8</ele>
        <time>2020-06-06T14:17:27Z</time>
      </trkpt>
      <trkpt lat="47.67179" lon="-2.99507">
        <ele>40.7</ele>
        <time>2020-06-06T14:17:28Z</time>
      </trkpt>
      <trkpt lat="47.6718" lon="-2.99508">
        <ele>40.7</ele>
        <time>2020-06-06T14:17:29Z</time>
      </trkpt>
      <trkpt lat="47.67182" lon="-2.99512">
        <ele>40.7</ele>
        <time>2020-06-06T14:17:30Z</time>
      </trkpt>
      <trkpt lat="47.67182" lon="-2.99513">
        <ele>40.6</ele>
        <time>2020-06-06T14:17:31Z</time>
      </trkpt>
      <trkpt lat="47.67183" lon="-2.99515">
        <ele>40.6</ele>
        <time>2020-06-06T14:17:32Z</time>
      </trkpt>
      <trkpt lat="47.67184" lon="-2.99518">
        <ele>40.6</ele>
        <time>2020-06-06T14:17:33Z</time>
      </trkpt>
      <trkpt lat="47.67185" lon="-2.99522">
        <ele>40.5</ele>
        <time>2020-06-06T14:17:34Z</time>
      </trkpt>
      <trkpt lat="47.67186" lon="-2.99523">
        <ele>40.5</ele>
        <time>2020-06-06T14:17:35Z</time>
      </trkpt>
      <trkpt lat="47.67186" lon="-2.99526">
        <ele>40.5</ele>
        <time>2020-06-06T14:17:36Z</time>
      </trkpt>
      <trkpt lat="47.67187" lon="-2.99528">
        <ele>40.4</ele>
        <time>2020-06-06T14:17:37Z</time>
      </trkpt>
      <trkpt lat="47.67189" lon="-2.9953">
        <ele>40.4</ele>
        <time>2020-06-06T14:17:38Z</time>
      </trkpt>
      <trkpt lat="47.67189" lon="-2.99532">
        <ele>40.4</ele>
        <time>2020-06-06T14:17:39Z</time>
      </trkpt>
      <trkpt lat="47.6719" lon="-2.99535">
        <ele>40.4</ele>
        <time>2020-06-06T14:17:40Z</time>
      </trkpt>
      <trkpt lat="47.67191" lon="-2.99537">
        <ele>40.3</ele>
        <time>2020-06-06T14:17:41Z</time>
      </trkpt>
      <trkpt lat="47.67192" lon="-2.9954">
        <ele>40.3</ele>
        <time>2020-06-06T14:17:42Z</time>
      </trkpt>
      <trkpt lat="47.67194" lon="-2.99544">
        <ele>40.2</ele>
        <time>2020-06-06T14:17:43Z</time>
      </trkpt>
      <trkpt lat="47.67195" lon="-2.99547">
        <ele>40.2</ele>
        <time>2020-06-06T14:17:44Z</time>
      </trkpt>
      <trkpt lat="47.67197" lon="-2.99552">
        <ele>40.1</ele>
        <time>2020-06-06T14:17:45Z</time>
      </trkpt>
      <trkpt lat="47.67198" lon="-2.99556">
        <ele>40</ele>
        <time>2020-06-06T14:17:46Z</time>
      </trkpt>
      <trkpt lat="47.67201" lon="-2.99562">
        <ele>39.9</ele>
        <time>2020-06-06T14:17:47Z</time>
      </trkpt>
      <trkpt lat="47.67202" lon="-2.99568">
        <ele>39.8</ele>
        <time>2020-06-06T14:17:48Z</time>
      </trkpt>
      <trkpt lat="47.67204" lon="-2.99572">
        <ele>39.8</ele>
        <time>2020-06-06T14:17:49Z</time>
      </trkpt>
      <trkpt lat="47.67204" lon="-2.99577">
        <ele>39.7</ele>
        <time>2020-06-06T14:17:50Z</time>
      </trkpt>
      <trkpt lat="47.67206" lon="-2.99582">
        <ele>39.6</ele>
        <time>2020-06-06T14:17:51Z</time>
      </trkpt>
      <trkpt lat="47.67207" lon="-2.99587">
        <ele>39.5</ele>
        <time>2020-06-06T14:17:52Z</time>
      </trkpt>
      <trkpt lat="47.67208" lon="-2.99592">
        <ele>39.4</ele>
        <time>2020-06-06T14:17:53Z</time>
      </trkpt>
      <trkpt lat="47.6721" lon="-2.99597">
        <ele>39.2</ele>
        <time>2020-06-06T14:17:54Z</time>
      </trkpt>
      <trkpt lat="47.67212" lon="-2.99602">
        <ele>39.1</ele>
        <time>2020-06-06T14:17:55Z</time>
      </trkpt>
      <trkpt lat="47.67214" lon="-2.99607">
        <ele>39</ele>
        <time>2020-06-06T14:17:56Z</time>
      </trkpt>
      <trkpt lat="47.67215" lon="-2.99614">
        <ele>38.9</ele>
        <time>2020-06-06T14:17:57Z</time>
      </trkpt>
      <trkpt lat="47.67217" lon="-2.9962">
        <ele>38.7</ele>
        <time>2020-06-06T14:17:58Z</time>
      </trkpt>
      <trkpt lat="47.67219" lon="-2.99626">
        <ele>38.6</ele>
        <time>2020-06-06T14:17:59Z</time>
      </trkpt>
      <trkpt lat="47.67221" lon="-2.99632">
        <ele>38.3</ele>
        <time>2020-06-06T14:18:00Z</time>
      </trkpt>
      <trkpt lat="47.67222" lon="-2.99638">
        <ele>38.1</ele>
        <time>2020-06-06T14:18:01Z</time>
      </trkpt>
      <trkpt lat="47.67224" lon="-2.99644">
        <ele>37.9</ele>
        <time>2020-06-06T14:18:02Z</time>
      </trkpt>
      <trkpt lat="47.67226" lon="-2.99649">
        <ele>37.8</ele>
        <time>2020-06-06T14:18:03Z</time>
      </trkpt>
      <trkpt lat="47.67227" lon="-2.99653">
        <ele>37.7</ele>
        <time>2020-06-06T14:18:04Z</time>
      </trkpt>
      <trkpt lat="47.67229" lon="-2.99659">
        <ele>37.6</ele>
        <time>2020-06-06T14:18:05Z</time>
      </trkpt>
      <trkpt lat="47.67231" lon="-2.99665">
        <ele>37.5</ele>
        <time>2020-06-06T14:18:06Z</time>
      </trkpt>
      <trkpt lat="47.67234" lon="-2.99671">
        <ele>37.3</ele>
        <time>2020-06-06T14:18:07Z</time>
      </trkpt>
      <trkpt lat="47.67236" lon="-2.99677">
        <ele>37.2</ele>
        <time>2020-06-06T14:18:08Z</time>
      </trkpt>
      <trkpt lat="47.67238" lon="-2.99685">
        <ele>37.1</ele>
        <time>2020-06-06T14:18:09Z</time>
      </trkpt>
      <trkpt lat="47.67241" lon="-2.9969">
        <ele>37</ele>
        <time>2020-06-06T14:18:10Z</time>
      </trkpt>
      <trkpt lat="47.67243" lon="-2.99695">
        <ele>36.9</ele>
        <time>2020-06-06T14:18:11Z</time>
      </trkpt>
      <trkpt lat="47.67245" lon="-2.99701">
        <ele>36.7</ele>
        <time>2020-06-06T14:18:12Z</time>
      </trkpt>
      <trkpt lat="47.67247" lon="-2.99707">
        <ele>36.6</ele>
        <time>2020-06-06T14:18:13Z</time>
      </trkpt>
      <trkpt lat="47.67249" lon="-2.99714">
        <ele>36.5</ele>
        <time>2020-06-06T14:18:14Z</time>
      </trkpt>
      <trkpt lat="47.67251" lon="-2.9972">
        <ele>36.3</ele>
        <time>2020-06-06T14:18:15Z</time>
      </trkpt>
      <trkpt lat="47.67253" lon="-2.99725">
        <ele>36.2</ele>
        <time>2020-06-06T14:18:16Z</time>
      </trkpt>
      <trkpt lat="47.67256" lon="-2.9973">
        <ele>36.2</ele>
        <time>2020-06-06T14:18:17Z</time>
      </trkpt>
      <trkpt lat="47.67258" lon="-2.99736">
        <ele>36.2</ele>
        <time>2020-06-06T14:18:18Z</time>
      </trkpt>
      <trkpt lat="47.67259" lon="-2.99744">
        <ele>36</ele>
        <time>2020-06-06T14:18:19Z</time>
      </trkpt>
      <trkpt lat="47.67259" lon="-2.99752">
        <ele>35.7</ele>
        <time>2020-06-06T14:18:20Z</time>
      </trkpt>
      <trkpt lat="47.6726" lon="-2.9976">
        <ele>35.4</ele>
        <time>2020-06-06T14:18:21Z</time>
      </trkpt>
      <trkpt lat="47.67263" lon="-2.99767">
        <ele>35.2</ele>
        <time>2020-06-06T14:18:22Z</time>
      </trkpt>
      <trkpt lat="47.67265" lon="-2.99774">
        <ele>34.9</ele>
        <time>2020-06-06T14:18:23Z</time>
      </trkpt>
      <trkpt lat="47.67268" lon="-2.99782">
        <ele>34.6</ele>
        <time>2020-06-06T14:18:24Z</time>
      </trkpt>
      <trkpt lat="47.67271" lon="-2.9979">
        <ele>34.3</ele>
        <time>2020-06-06T14:18:25Z</time>
      </trkpt>
      <trkpt lat="47.67274" lon="-2.99797">
        <ele>34</ele>
        <time>2020-06-06T14:18:26Z</time>
      </trkpt>
      <trkpt lat="47.67278" lon="-2.99804">
        <ele>33.8</ele>
        <time>2020-06-06T14:18:27Z</time>
      </trkpt>
      <trkpt lat="47.67282" lon="-2.9981">
        <ele>33.5</ele>
        <time>2020-06-06T14:18:28Z</time>
      </trkpt>
      <trkpt lat="47.67285" lon="-2.99817">
        <ele>33.3</ele>
        <time>2020-06-06T14:18:29Z</time>
      </trkpt>
      <trkpt lat="47.67287" lon="-2.99824">
        <ele>33</ele>
        <time>2020-06-06T14:18:30Z</time>
      </trkpt>
      <trkpt lat="47.6729" lon="-2.9983">
        <ele>32.8</ele>
        <time>2020-06-06T14:18:31Z</time>
      </trkpt>
      <trkpt lat="47.67293" lon="-2.99838">
        <ele>32.5</ele>
        <time>2020-06-06T14:18:32Z</time>
      </trkpt>
      <trkpt lat="47.67295" lon="-2.99845">
        <ele>32.2</ele>
        <time>2020-06-06T14:18:33Z</time>
      </trkpt>
      <trkpt lat="47.67297" lon="-2.99852">
        <ele>31.9</ele>
        <time>2020-06-06T14:18:34Z</time>
      </trkpt>
      <trkpt lat="47.673" lon="-2.9986">
        <ele>31.7</ele>
        <time>2020-06-06T14:18:35Z</time>
      </trkpt>
      <trkpt lat="47.67302" lon="-2.99867">
        <ele>31.4</ele>
        <time>2020-06-06T14:18:36Z</time>
      </trkpt>
      <trkpt lat="47.67305" lon="-2.99874">
        <ele>31.1</ele>
        <time>2020-06-06T14:18:37Z</time>
      </trkpt>
      <trkpt lat="47.67308" lon="-2.99881">
        <ele>30.8</ele>
        <time>2020-06-06T14:18:38Z</time>
      </trkpt>
      <trkpt lat="47.67311" lon="-2.99888">
        <ele>30.6</ele>
        <time>2020-06-06T14:18:39Z</time>
      </trkpt>
      <trkpt lat="47.67314" lon="-2.99896">
        <ele>30.5</ele>
        <time>2020-06-06T14:18:40Z</time>
      </trkpt>
      <trkpt lat="47.67317" lon="-2.99904">
        <ele>30.3</ele>
        <time>2020-06-06T14:18:41Z</time>
      </trkpt>
      <trkpt lat="47.6732" lon="-2.99912">
        <ele>30.1</ele>
        <time>2020-06-06T14:18:42Z</time>
      </trkpt>
      <trkpt lat="47.67324" lon="-2.99919">
        <ele>30</ele>
        <time>2020-06-06T14:18:43Z</time>
      </trkpt>
      <trkpt lat="47.67327" lon="-2.99926">
        <ele>29.9</ele>
        <time>2020-06-06T14:18:44Z</time>
      </trkpt>
      <trkpt lat="47.67331" lon="-2.99934">
        <ele>29.8</ele>
        <time>2020-06-06T14:18:45Z</time>
      </trkpt>
      <trkpt lat="47.67334" lon="-2.99942">
        <ele>29.7</ele>
        <time>2020-06-06T14:18:46Z</time>
      </trkpt>
      <trkpt lat="47.67336" lon="-2.9995">
        <ele>29.6</ele>
        <time>2020-06-06T14:18:47Z</time>
      </trkpt>
      <trkpt lat="47.67341" lon="-2.99958">
        <ele>29.4</ele>
        <time>2020-06-06T14:18:48Z</time>
      </trkpt>
      <trkpt lat="47.67344" lon="-2.99965">
        <ele>29.3</ele>
        <time>2020-06-06T14:18:49Z</time>
      </trkpt>
      <trkpt lat="47.67348" lon="-2.99971">
        <ele>29.3</ele>
        <time>2020-06-06T14:18:50Z</time>
      </trkpt>
      <trkpt lat="47.67351" lon="-2.99978">
        <ele>29.2</ele>
        <time>2020-06-06T14:18:51Z</time>
      </trkpt>
      <trkpt lat="47.67354" lon="-2.99986">
        <ele>29.2</ele>
        <time>2020-06-06T14:18:52Z</time>
      </trkpt>
      <trkpt lat="47.67358" lon="-2.99993">
        <ele>29.1</ele>
        <time>2020-06-06T14:18:53Z</time>
      </trkpt>
      <trkpt lat="47.67362" lon="-3">
        <ele>29.1</ele>
        <time>2020-06-06T14:18:54Z</time>
      </trkpt>
      <trkpt lat="47.67365" lon="-3.00007">
        <ele>29.1</ele>
        <time>2020-06-06T14:18:55Z</time>
      </trkpt>
      <trkpt lat="47.67368" lon="-3.00013">
        <ele>29.2</ele>
        <time>2020-06-06T14:18:56Z</time>
      </trkpt>
      <trkpt lat="47.67371" lon="-3.0002">
        <ele>29.2</ele>
        <time>2020-06-06T14:18:57Z</time>
      </trkpt>
      <trkpt lat="47.67375" lon="-3.00027">
        <ele>29.3</ele>
        <time>2020-06-06T14:18:58Z</time>
      </trkpt>
      <trkpt lat="47.67378" lon="-3.00033">
        <ele>29.4</ele>
        <time>2020-06-06T14:18:59Z</time>
      </trkpt>
      <trkpt lat="47.67381" lon="-3.00039">
        <ele>29.5</ele>
        <time>2020-06-06T14:19:00Z</time>
      </trkpt>
      <trkpt lat="47.67383" lon="-3.00043">
        <ele>29.6</ele>
        <time>2020-06-06T14:19:01Z</time>
      </trkpt>
      <trkpt lat="47.67385" lon="-3.0005">
        <ele>29.7</ele>
        <time>2020-06-06T14:19:02Z</time>
      </trkpt>
      <trkpt lat="47.67387" lon="-3.00054">
        <ele>29.8</ele>
        <time>2020-06-06T14:19:03Z</time>
      </trkpt>
      <trkpt lat="47.67389" lon="-3.00059">
        <ele>29.9</ele>
        <time>2020-06-06T14:19:04Z</time>
      </trkpt>
      <trkpt lat="47.67392" lon="-3.00065">
        <ele>30</ele>
        <time>2020-06-06T14:19:05Z</time>
      </trkpt>
      <trkpt lat="47.67394" lon="-3.0007">
        <ele>30.1</ele>
        <time>2020-06-06T14:19:06Z</time>
      </trkpt>
      <trkpt lat="47.67396" lon="-3.00074">
        <ele>30.3</ele>
        <time>2020-06-06T14:19:07Z</time>
      </trkpt>
      <trkpt lat="47.67399" lon="-3.00079">
        <ele>30.4</ele>
        <time>2020-06-06T14:19:08Z</time>
      </trkpt>
      <trkpt lat="47.67401" lon="-3.00084">
        <ele>30.5</ele>
        <time>2020-06-06T14:19:09Z</time>
      </trkpt>
      <trkpt lat="47.67404" lon="-3.00089">
        <ele>30.7</ele>
        <time>2020-06-06T14:19:10Z</time>
      </trkpt>
      <trkpt lat="47.67405" lon="-3.00093">
        <ele>30.7</ele>
        <time>2020-06-06T14:19:11Z</time>
      </trkpt>
      <trkpt lat="47.67407" lon="-3.00098">
        <ele>30.8</ele>
        <time>2020-06-06T14:19:12Z</time>
      </trkpt>
      <trkpt lat="47.6741" lon="-3.00103">
        <ele>31</ele>
        <time>2020-06-06T14:19:13Z</time>
      </trkpt>
      <trkpt lat="47.67413" lon="-3.00108">
        <ele>31.1</ele>
        <time>2020-06-06T14:19:14Z</time>
      </trkpt>
      <trkpt lat="47.67416" lon="-3.00112">
        <ele>31.2</ele>
        <time>2020-06-06T14:19:15Z</time>
      </trkpt>
      <trkpt lat="47.67418" lon="-3.00117">
        <ele>31.3</ele>
        <time>2020-06-06T14:19:16Z</time>
      </trkpt>
      <trkpt lat="47.6742" lon="-3.00123">
        <ele>31.4</ele>
        <time>2020-06-06T14:19:17Z</time>
      </trkpt>
      <trkpt lat="47.67423" lon="-3.00128">
        <ele>31.6</ele>
        <time>2020-06-06T14:19:18Z</time>
      </trkpt>
      <trkpt lat="47.67425" lon="-3.00132">
        <ele>31.7</ele>
        <time>2020-06-06T14:19:19Z</time>
      </trkpt>
      <trkpt lat="47.67428" lon="-3.00137">
        <ele>31.8</ele>
        <time>2020-06-06T14:19:20Z</time>
      </trkpt>
      <trkpt lat="47.67431" lon="-3.00142">
        <ele>32</ele>
        <time>2020-06-06T14:19:21Z</time>
      </trkpt>
      <trkpt lat="47.67433" lon="-3.00147">
        <ele>32.1</ele>
        <time>2020-06-06T14:19:22Z</time>
      </trkpt>
      <trkpt lat="47.67436" lon="-3.00152">
        <ele>32.2</ele>
        <time>2020-06-06T14:19:23Z</time>
      </trkpt>
      <trkpt lat="47.67437" lon="-3.00157">
        <ele>32.3</ele>
        <time>2020-06-06T14:19:24Z</time>
      </trkpt>
      <trkpt lat="47.6744" lon="-3.00162">
        <ele>32.5</ele>
        <time>2020-06-06T14:19:25Z</time>
      </trkpt>
      <trkpt lat="47.67442" lon="-3.00168">
        <ele>32.6</ele>
        <time>2020-06-06T14:19:26Z</time>
      </trkpt>
      <trkpt lat="47.67445" lon="-3.00173">
        <ele>32.7</ele>
        <time>2020-06-06T14:19:27Z</time>
      </trkpt>
      <trkpt lat="47.67448" lon="-3.00178">
        <ele>32.9</ele>
        <time>2020-06-06T14:19:28Z</time>
      </trkpt>
      <trkpt lat="47.67451" lon="-3.00182">
        <ele>33</ele>
        <time>2020-06-06T14:19:29Z</time>
      </trkpt>
      <trkpt lat="47.67453" lon="-3.00188">
        <ele>33.1</ele>
        <time>2020-06-06T14:19:30Z</time>
      </trkpt>
      <trkpt lat="47.67457" lon="-3.00194">
        <ele>33.3</ele>
        <time>2020-06-06T14:19:31Z</time>
      </trkpt>
      <trkpt lat="47.67459" lon="-3.00199">
        <ele>33.4</ele>
        <time>2020-06-06T14:19:32Z</time>
      </trkpt>
      <trkpt lat="47.67461" lon="-3.00204">
        <ele>33.5</ele>
        <time>2020-06-06T14:19:33Z</time>
      </trkpt>
      <trkpt lat="47.67464" lon="-3.00209">
        <ele>33.6</ele>
        <time>2020-06-06T14:19:34Z</time>
      </trkpt>
      <trkpt lat="47.67466" lon="-3.00213">
        <ele>33.7</ele>
        <time>2020-06-06T14:19:35Z</time>
      </trkpt>
      <trkpt lat="47.67469" lon="-3.00218">
        <ele>33.8</ele>
        <time>2020-06-06T14:19:36Z</time>
      </trkpt>
      <trkpt lat="47.67471" lon="-3.00223">
        <ele>33.8</ele>
        <time>2020-06-06T14:19:37Z</time>
      </trkpt>
      <trkpt lat="47.67474" lon="-3.00228">
        <ele>33.9</ele>
        <time>2020-06-06T14:19:38Z</time>
      </trkpt>
      <trkpt lat="47.67476" lon="-3.00234">
        <ele>34.2</ele>
        <time>2020-06-06T14:19:39Z</time>
      </trkpt>
      <trkpt lat="47.67478" lon="-3.00239">
        <ele>34.3</ele>
        <time>2020-06-06T14:19:40Z</time>
      </trkpt>
      <trkpt lat="47.67481" lon="-3.00246">
        <ele>34.5</ele>
        <time>2020-06-06T14:19:41Z</time>
      </trkpt>
      <trkpt lat="47.67483" lon="-3.00251">
        <ele>34.6</ele>
        <time>2020-06-06T14:19:42Z</time>
      </trkpt>
      <trkpt lat="47.67485" lon="-3.00256">
        <ele>34.7</ele>
        <time>2020-06-06T14:19:43Z</time>
      </trkpt>
      <trkpt lat="47.67488" lon="-3.00262">
        <ele>34.8</ele>
        <time>2020-06-06T14:19:44Z</time>
      </trkpt>
      <trkpt lat="47.67492" lon="-3.00268">
        <ele>34.9</ele>
        <time>2020-06-06T14:19:45Z</time>
      </trkpt>
      <trkpt lat="47.67495" lon="-3.00273">
        <ele>35</ele>
        <time>2020-06-06T14:19:46Z</time>
      </trkpt>
      <trkpt lat="47.67498" lon="-3.00279">
        <ele>35.1</ele>
        <time>2020-06-06T14:19:47Z</time>
      </trkpt>
      <trkpt lat="47.67501" lon="-3.00284">
        <ele>35.2</ele>
        <time>2020-06-06T14:19:48Z</time>
      </trkpt>
      <trkpt lat="47.67504" lon="-3.00289">
        <ele>35.3</ele>
        <time>2020-06-06T14:19:49Z</time>
      </trkpt>
      <trkpt lat="47.67507" lon="-3.00295">
        <ele>35.4</ele>
        <time>2020-06-06T14:19:50Z</time>
      </trkpt>
      <trkpt lat="47.67509" lon="-3.003">
        <ele>35.4</ele>
        <time>2020-06-06T14:19:51Z</time>
      </trkpt>
      <trkpt lat="47.67512" lon="-3.00304">
        <ele>35.5</ele>
        <time>2020-06-06T14:19:52Z</time>
      </trkpt>
      <trkpt lat="47.67515" lon="-3.0031">
        <ele>35.5</ele>
        <time>2020-06-06T14:19:53Z</time>
      </trkpt>
      <trkpt lat="47.67517" lon="-3.00315">
        <ele>35.6</ele>
        <time>2020-06-06T14:19:54Z</time>
      </trkpt>
      <trkpt lat="47.6752" lon="-3.0032">
        <ele>35.6</ele>
        <time>2020-06-06T14:19:55Z</time>
      </trkpt>
      <trkpt lat="47.67522" lon="-3.00325">
        <ele>35.6</ele>
        <time>2020-06-06T14:19:56Z</time>
      </trkpt>
      <trkpt lat="47.67524" lon="-3.0033">
        <ele>35.6</ele>
        <time>2020-06-06T14:19:57Z</time>
      </trkpt>
      <trkpt lat="47.67526" lon="-3.00336">
        <ele>35.6</ele>
        <time>2020-06-06T14:19:58Z</time>
      </trkpt>
      <trkpt lat="47.67529" lon="-3.0034">
        <ele>35.7</ele>
        <time>2020-06-06T14:19:59Z</time>
      </trkpt>
      <trkpt lat="47.67531" lon="-3.00345">
        <ele>35.7</ele>
        <time>2020-06-06T14:20:00Z</time>
      </trkpt>
      <trkpt lat="47.67533" lon="-3.0035">
        <ele>35.7</ele>
        <time>2020-06-06T14:20:01Z</time>
      </trkpt>
      <trkpt lat="47.67536" lon="-3.00356">
        <ele>35.6</ele>
        <time>2020-06-06T14:20:02Z</time>
      </trkpt>
      <trkpt lat="47.67539" lon="-3.00361">
        <ele>35.6</ele>
        <time>2020-06-06T14:20:03Z</time>
      </trkpt>
      <trkpt lat="47.67541" lon="-3.00366">
        <ele>35.6</ele>
        <time>2020-06-06T14:20:04Z</time>
      </trkpt>
      <trkpt lat="47.67544" lon="-3.00372">
        <ele>35.6</ele>
        <time>2020-06-06T14:20:05Z</time>
      </trkpt>
      <trkpt lat="47.67546" lon="-3.00377">
        <ele>35.6</ele>
        <time>2020-06-06T14:20:06Z</time>
      </trkpt>
      <trkpt lat="47.67549" lon="-3.00382">
        <ele>35.6</ele>
        <time>2020-06-06T14:20:07Z</time>
      </trkpt>
      <trkpt lat="47.67552" lon="-3.00387">
        <ele>35.6</ele>
        <time>2020-06-06T14:20:08Z</time>
      </trkpt>
      <trkpt lat="47.67554" lon="-3.00392">
        <ele>35.6</ele>
        <time>2020-06-06T14:20:09Z</time>
      </trkpt>
      <trkpt lat="47.67556" lon="-3.00396">
        <ele>35.6</ele>
        <time>2020-06-06T14:20:10Z</time>
      </trkpt>
      <trkpt lat="47.67558" lon="-3.004">
        <ele>35.6</ele>
        <time>2020-06-06T14:20:11Z</time>
      </trkpt>
      <trkpt lat="47.67561" lon="-3.00406">
        <ele>35.6</ele>
        <time>2020-06-06T14:20:12Z</time>
      </trkpt>
      <trkpt lat="47.67564" lon="-3.00412">
        <ele>35.6</ele>
        <time>2020-06-06T14:20:13Z</time>
      </trkpt>
      <trkpt lat="47.67567" lon="-3.00416">
        <ele>35.6</ele>
        <time>2020-06-06T14:20:14Z</time>
      </trkpt>
      <trkpt lat="47.67569" lon="-3.00422">
        <ele>35.6</ele>
        <time>2020-06-06T14:20:15Z</time>
      </trkpt>
      <trkpt lat="47.67572" lon="-3.00427">
        <ele>35.6</ele>
        <time>2020-06-06T14:20:16Z</time>
      </trkpt>
      <trkpt lat="47.67574" lon="-3.00433">
        <ele>35.6</ele>
        <time>2020-06-06T14:20:17Z</time>
      </trkpt>
      <trkpt lat="47.67576" lon="-3.00438">
        <ele>35.5</ele>
        <time>2020-06-06T14:20:18Z</time>
      </trkpt>
      <trkpt lat="47.67579" lon="-3.00444">
        <ele>35.5</ele>
        <time>2020-06-06T14:20:19Z</time>
      </trkpt>
      <trkpt lat="47.67581" lon="-3.00449">
        <ele>35.5</ele>
        <time>2020-06-06T14:20:20Z</time>
      </trkpt>
      <trkpt lat="47.67584" lon="-3.00455">
        <ele>35.5</ele>
        <time>2020-06-06T14:20:21Z</time>
      </trkpt>
      <trkpt lat="47.67587" lon="-3.00461">
        <ele>35.5</ele>
        <time>2020-06-06T14:20:22Z</time>
      </trkpt>
      <trkpt lat="47.6759" lon="-3.00466">
        <ele>35.4</ele>
        <time>2020-06-06T14:20:23Z</time>
      </trkpt>
      <trkpt lat="47.67593" lon="-3.00471">
        <ele>35.4</ele>
        <time>2020-06-06T14:20:24Z</time>
      </trkpt>
      <trkpt lat="47.67596" lon="-3.00476">
        <ele>35.4</ele>
        <time>2020-06-06T14:20:25Z</time>
      </trkpt>
      <trkpt lat="47.67599" lon="-3.00481">
        <ele>35.3</ele>
        <time>2020-06-06T14:20:26Z</time>
      </trkpt>
      <trkpt lat="47.67601" lon="-3.00487">
        <ele>35.3</ele>
        <time>2020-06-06T14:20:27Z</time>
      </trkpt>
      <trkpt lat="47.67604" lon="-3.00492">
        <ele>35.3</ele>
        <time>2020-06-06T14:20:28Z</time>
      </trkpt>
      <trkpt lat="47.67606" lon="-3.00497">
        <ele>35.3</ele>
        <time>2020-06-06T14:20:29Z</time>
      </trkpt>
      <trkpt lat="47.67609" lon="-3.00501">
        <ele>35.2</ele>
        <time>2020-06-06T14:20:30Z</time>
      </trkpt>
      <trkpt lat="47.67611" lon="-3.00506">
        <ele>35.2</ele>
        <time>2020-06-06T14:20:31Z</time>
      </trkpt>
      <trkpt lat="47.67614" lon="-3.00511">
        <ele>35.2</ele>
        <time>2020-06-06T14:20:32Z</time>
      </trkpt>
      <trkpt lat="47.67616" lon="-3.00517">
        <ele>35.2</ele>
        <time>2020-06-06T14:20:33Z</time>
      </trkpt>
      <trkpt lat="47.67619" lon="-3.00523">
        <ele>35.2</ele>
        <time>2020-06-06T14:20:34Z</time>
      </trkpt>
      <trkpt lat="47.67622" lon="-3.00528">
        <ele>35.2</ele>
        <time>2020-06-06T14:20:35Z</time>
      </trkpt>
      <trkpt lat="47.67624" lon="-3.00534">
        <ele>35.1</ele>
        <time>2020-06-06T14:20:36Z</time>
      </trkpt>
      <trkpt lat="47.67626" lon="-3.0054">
        <ele>35.1</ele>
        <time>2020-06-06T14:20:37Z</time>
      </trkpt>
      <trkpt lat="47.67629" lon="-3.00545">
        <ele>35.1</ele>
        <time>2020-06-06T14:20:38Z</time>
      </trkpt>
      <trkpt lat="47.67632" lon="-3.0055">
        <ele>35.1</ele>
        <time>2020-06-06T14:20:39Z</time>
      </trkpt>
      <trkpt lat="47.67635" lon="-3.00556">
        <ele>35</ele>
        <time>2020-06-06T14:20:40Z</time>
      </trkpt>
      <trkpt lat="47.67637" lon="-3.00562">
        <ele>35</ele>
        <time>2020-06-06T14:20:41Z</time>
      </trkpt>
      <trkpt lat="47.6764" lon="-3.00568">
        <ele>35</ele>
        <time>2020-06-06T14:20:42Z</time>
      </trkpt>
      <trkpt lat="47.67643" lon="-3.00573">
        <ele>34.9</ele>
        <time>2020-06-06T14:20:43Z</time>
      </trkpt>
      <trkpt lat="47.67646" lon="-3.00579">
        <ele>34.9</ele>
        <time>2020-06-06T14:20:44Z</time>
      </trkpt>
      <trkpt lat="47.67649" lon="-3.00585">
        <ele>34.8</ele>
        <time>2020-06-06T14:20:45Z</time>
      </trkpt>
      <trkpt lat="47.67652" lon="-3.0059">
        <ele>34.7</ele>
        <time>2020-06-06T14:20:46Z</time>
      </trkpt>
      <trkpt lat="47.67655" lon="-3.00595">
        <ele>34.7</ele>
        <time>2020-06-06T14:20:47Z</time>
      </trkpt>
      <trkpt lat="47.67657" lon="-3.006">
        <ele>34.6</ele>
        <time>2020-06-06T14:20:48Z</time>
      </trkpt>
      <trkpt lat="47.67659" lon="-3.00607">
        <ele>34.5</ele>
        <time>2020-06-06T14:20:49Z</time>
      </trkpt>
      <trkpt lat="47.67662" lon="-3.00612">
        <ele>34.3</ele>
        <time>2020-06-06T14:20:50Z</time>
      </trkpt>
      <trkpt lat="47.67664" lon="-3.00618">
        <ele>34.2</ele>
        <time>2020-06-06T14:20:51Z</time>
      </trkpt>
      <trkpt lat="47.67666" lon="-3.00625">
        <ele>34.1</ele>
        <time>2020-06-06T14:20:52Z</time>
      </trkpt>
      <trkpt lat="47.67669" lon="-3.00632">
        <ele>34</ele>
        <time>2020-06-06T14:20:53Z</time>
      </trkpt>
      <trkpt lat="47.67672" lon="-3.0064">
        <ele>33.9</ele>
        <time>2020-06-06T14:20:54Z</time>
      </trkpt>
      <trkpt lat="47.67674" lon="-3.00647">
        <ele>33.8</ele>
        <time>2020-06-06T14:20:55Z</time>
      </trkpt>
      <trkpt lat="47.67677" lon="-3.00654">
        <ele>33.7</ele>
        <time>2020-06-06T14:20:56Z</time>
      </trkpt>
      <trkpt lat="47.6768" lon="-3.00661">
        <ele>33.5</ele>
        <time>2020-06-06T14:20:57Z</time>
      </trkpt>
      <trkpt lat="47.67684" lon="-3.00667">
        <ele>33.3</ele>
        <time>2020-06-06T14:20:58Z</time>
      </trkpt>
      <trkpt lat="47.67687" lon="-3.00674">
        <ele>33.2</ele>
        <time>2020-06-06T14:20:59Z</time>
      </trkpt>
      <trkpt lat="47.6769" lon="-3.00681">
        <ele>33</ele>
        <time>2020-06-06T14:21:00Z</time>
      </trkpt>
      <trkpt lat="47.67694" lon="-3.00689">
        <ele>32.9</ele>
        <time>2020-06-06T14:21:01Z</time>
      </trkpt>
      <trkpt lat="47.67698" lon="-3.00695">
        <ele>32.7</ele>
        <time>2020-06-06T14:21:02Z</time>
      </trkpt>
      <trkpt lat="47.67702" lon="-3.00702">
        <ele>32.7</ele>
        <time>2020-06-06T14:21:03Z</time>
      </trkpt>
      <trkpt lat="47.67705" lon="-3.00708">
        <ele>32.7</ele>
        <time>2020-06-06T14:21:04Z</time>
      </trkpt>
      <trkpt lat="47.67708" lon="-3.00714">
        <ele>32.7</ele>
        <time>2020-06-06T14:21:05Z</time>
      </trkpt>
      <trkpt lat="47.67711" lon="-3.0072">
        <ele>32.8</ele>
        <time>2020-06-06T14:21:06Z</time>
      </trkpt>
      <trkpt lat="47.67715" lon="-3.00726">
        <ele>32.8</ele>
        <time>2020-06-06T14:21:07Z</time>
      </trkpt>
      <trkpt lat="47.67718" lon="-3.00731">
        <ele>32.9</ele>
        <time>2020-06-06T14:21:08Z</time>
      </trkpt>
      <trkpt lat="47.6772" lon="-3.00736">
        <ele>32.9</ele>
        <time>2020-06-06T14:21:09Z</time>
      </trkpt>
      <trkpt lat="47.67724" lon="-3.00742">
        <ele>32.9</ele>
        <time>2020-06-06T14:21:10Z</time>
      </trkpt>
      <trkpt lat="47.67726" lon="-3.00747">
        <ele>33</ele>
        <time>2020-06-06T14:21:11Z</time>
      </trkpt>
      <trkpt lat="47.67729" lon="-3.00752">
        <ele>33</ele>
        <time>2020-06-06T14:21:12Z</time>
      </trkpt>
      <trkpt lat="47.67732" lon="-3.00756">
        <ele>33</ele>
        <time>2020-06-06T14:21:13Z</time>
      </trkpt>
      <trkpt lat="47.67735" lon="-3.00762">
        <ele>33.1</ele>
        <time>2020-06-06T14:21:14Z</time>
      </trkpt>
      <trkpt lat="47.67739" lon="-3.00768">
        <ele>33.1</ele>
        <time>2020-06-06T14:21:15Z</time>
      </trkpt>
      <trkpt lat="47.67743" lon="-3.00775">
        <ele>33.2</ele>
        <time>2020-06-06T14:21:16Z</time>
      </trkpt>
      <trkpt lat="47.67745" lon="-3.00781">
        <ele>33.3</ele>
        <time>2020-06-06T14:21:17Z</time>
      </trkpt>
      <trkpt lat="47.67748" lon="-3.00786">
        <ele>33.4</ele>
        <time>2020-06-06T14:21:18Z</time>
      </trkpt>
      <trkpt lat="47.67751" lon="-3.00792">
        <ele>33.5</ele>
        <time>2020-06-06T14:21:19Z</time>
      </trkpt>
      <trkpt lat="47.67754" lon="-3.00797">
        <ele>33.6</ele>
        <time>2020-06-06T14:21:20Z</time>
      </trkpt>
      <trkpt lat="47.67756" lon="-3.00804">
        <ele>33.7</ele>
        <time>2020-06-06T14:21:21Z</time>
      </trkpt>
      <trkpt lat="47.67759" lon="-3.00809">
        <ele>33.8</ele>
        <time>2020-06-06T14:21:22Z</time>
      </trkpt>
      <trkpt lat="47.67761" lon="-3.00813">
        <ele>33.9</ele>
        <time>2020-06-06T14:21:23Z</time>
      </trkpt>
      <trkpt lat="47.67763" lon="-3.00818">
        <ele>34</ele>
        <time>2020-06-06T14:21:24Z</time>
      </trkpt>
      <trkpt lat="47.67765" lon="-3.00823">
        <ele>34.1</ele>
        <time>2020-06-06T14:21:25Z</time>
      </trkpt>
      <trkpt lat="47.67768" lon="-3.00827">
        <ele>34.3</ele>
        <time>2020-06-06T14:21:26Z</time>
      </trkpt>
      <trkpt lat="47.6777" lon="-3.00832">
        <ele>34.5</ele>
        <time>2020-06-06T14:21:27Z</time>
      </trkpt>
      <trkpt lat="47.67773" lon="-3.00838">
        <ele>34.6</ele>
        <time>2020-06-06T14:21:28Z</time>
      </trkpt>
      <trkpt lat="47.67775" lon="-3.00843">
        <ele>34.8</ele>
        <time>2020-06-06T14:21:29Z</time>
      </trkpt>
      <trkpt lat="47.67778" lon="-3.00848">
        <ele>35</ele>
        <time>2020-06-06T14:21:30Z</time>
      </trkpt>
      <trkpt lat="47.67779" lon="-3.00853">
        <ele>35.2</ele>
        <time>2020-06-06T14:21:31Z</time>
      </trkpt>
      <trkpt lat="47.67782" lon="-3.00858">
        <ele>35.4</ele>
        <time>2020-06-06T14:21:32Z</time>
      </trkpt>
      <trkpt lat="47.67784" lon="-3.00863">
        <ele>35.6</ele>
        <time>2020-06-06T14:21:33Z</time>
      </trkpt>
      <trkpt lat="47.67787" lon="-3.00868">
        <ele>35.8</ele>
        <time>2020-06-06T14:21:34Z</time>
      </trkpt>
      <trkpt lat="47.6779" lon="-3.00873">
        <ele>36.1</ele>
        <time>2020-06-06T14:21:35Z</time>
      </trkpt>
      <trkpt lat="47.67794" lon="-3.00877">
        <ele>36.3</ele>
        <time>2020-06-06T14:21:36Z</time>
      </trkpt>
      <trkpt lat="47.67796" lon="-3.00881">
        <ele>36.5</ele>
        <time>2020-06-06T14:21:37Z</time>
      </trkpt>
      <trkpt lat="47.67799" lon="-3.00885">
        <ele>36.7</ele>
        <time>2020-06-06T14:21:38Z</time>
      </trkpt>
      <trkpt lat="47.67801" lon="-3.00891">
        <ele>37</ele>
        <time>2020-06-06T14:21:39Z</time>
      </trkpt>
      <trkpt lat="47.67804" lon="-3.00895">
        <ele>37.1</ele>
        <time>2020-06-06T14:21:40Z</time>
      </trkpt>
      <trkpt lat="47.67807" lon="-3.00899">
        <ele>37.2</ele>
        <time>2020-06-06T14:21:41Z</time>
      </trkpt>
      <trkpt lat="47.67811" lon="-3.00901">
        <ele>37.4</ele>
        <time>2020-06-06T14:21:42Z</time>
      </trkpt>
      <trkpt lat="47.67814" lon="-3.00904">
        <ele>37.5</ele>
        <time>2020-06-06T14:21:43Z</time>
      </trkpt>
      <trkpt lat="47.67817" lon="-3.00907">
        <ele>37.5</ele>
        <time>2020-06-06T14:21:44Z</time>
      </trkpt>
      <trkpt lat="47.67818" lon="-3.00913">
        <ele>37.6</ele>
        <time>2020-06-06T14:21:45Z</time>
      </trkpt>
      <trkpt lat="47.67818" lon="-3.00916">
        <ele>37.6</ele>
        <time>2020-06-06T14:21:46Z</time>
      </trkpt>
      <trkpt lat="47.6782" lon="-3.00921">
        <ele>37.6</ele>
        <time>2020-06-06T14:21:47Z</time>
      </trkpt>
      <trkpt lat="47.67822" lon="-3.00926">
        <ele>37.7</ele>
        <time>2020-06-06T14:21:48Z</time>
      </trkpt>
      <trkpt lat="47.67824" lon="-3.0093">
        <ele>37.9</ele>
        <time>2020-06-06T14:21:49Z</time>
      </trkpt>
      <trkpt lat="47.67827" lon="-3.00936">
        <ele>38</ele>
        <time>2020-06-06T14:21:50Z</time>
      </trkpt>
      <trkpt lat="47.67829" lon="-3.00941">
        <ele>38.1</ele>
        <time>2020-06-06T14:21:51Z</time>
      </trkpt>
      <trkpt lat="47.67833" lon="-3.00946">
        <ele>38.2</ele>
        <time>2020-06-06T14:21:52Z</time>
      </trkpt>
      <trkpt lat="47.67835" lon="-3.00951">
        <ele>38.3</ele>
        <time>2020-06-06T14:21:53Z</time>
      </trkpt>
      <trkpt lat="47.67839" lon="-3.00956">
        <ele>38.4</ele>
        <time>2020-06-06T14:21:54Z</time>
      </trkpt>
      <trkpt lat="47.67841" lon="-3.00962">
        <ele>38.5</ele>
        <time>2020-06-06T14:21:55Z</time>
      </trkpt>
      <trkpt lat="47.67844" lon="-3.00967">
        <ele>38.7</ele>
        <time>2020-06-06T14:21:56Z</time>
      </trkpt>
      <trkpt lat="47.67847" lon="-3.00972">
        <ele>38.9</ele>
        <time>2020-06-06T14:21:57Z</time>
      </trkpt>
      <trkpt lat="47.67849" lon="-3.00978">
        <ele>39</ele>
        <time>2020-06-06T14:21:58Z</time>
      </trkpt>
      <trkpt lat="47.67853" lon="-3.00983">
        <ele>39.2</ele>
        <time>2020-06-06T14:21:59Z</time>
      </trkpt>
      <trkpt lat="47.67855" lon="-3.00988">
        <ele>39.3</ele>
        <time>2020-06-06T14:22:00Z</time>
      </trkpt>
      <trkpt lat="47.67858" lon="-3.00994">
        <ele>39.5</ele>
        <time>2020-06-06T14:22:01Z</time>
      </trkpt>
      <trkpt lat="47.67861" lon="-3.00999">
        <ele>39.6</ele>
        <time>2020-06-06T14:22:02Z</time>
      </trkpt>
      <trkpt lat="47.67864" lon="-3.01004">
        <ele>39.7</ele>
        <time>2020-06-06T14:22:03Z</time>
      </trkpt>
      <trkpt lat="47.67867" lon="-3.01009">
        <ele>39.9</ele>
        <time>2020-06-06T14:22:04Z</time>
      </trkpt>
      <trkpt lat="47.67868" lon="-3.01014">
        <ele>40</ele>
        <time>2020-06-06T14:22:05Z</time>
      </trkpt>
      <trkpt lat="47.67871" lon="-3.01019">
        <ele>40.1</ele>
        <time>2020-06-06T14:22:06Z</time>
      </trkpt>
      <trkpt lat="47.67872" lon="-3.01024">
        <ele>40.2</ele>
        <time>2020-06-06T14:22:07Z</time>
      </trkpt>
      <trkpt lat="47.67874" lon="-3.01029">
        <ele>40.4</ele>
        <time>2020-06-06T14:22:08Z</time>
      </trkpt>
      <trkpt lat="47.67876" lon="-3.01033">
        <ele>40.5</ele>
        <time>2020-06-06T14:22:09Z</time>
      </trkpt>
      <trkpt lat="47.67877" lon="-3.01038">
        <ele>40.6</ele>
        <time>2020-06-06T14:22:10Z</time>
      </trkpt>
      <trkpt lat="47.67879" lon="-3.01042">
        <ele>40.7</ele>
        <time>2020-06-06T14:22:11Z</time>
      </trkpt>
      <trkpt lat="47.67881" lon="-3.01048">
        <ele>40.9</ele>
        <time>2020-06-06T14:22:12Z</time>
      </trkpt>
      <trkpt lat="47.67884" lon="-3.01053">
        <ele>41</ele>
        <time>2020-06-06T14:22:13Z</time>
      </trkpt>
      <trkpt lat="47.67886" lon="-3.01057">
        <ele>41.2</ele>
        <time>2020-06-06T14:22:14Z</time>
      </trkpt>
      <trkpt lat="47.67889" lon="-3.01062">
        <ele>41.3</ele>
        <time>2020-06-06T14:22:15Z</time>
      </trkpt>
      <trkpt lat="47.67891" lon="-3.01067">
        <ele>41.5</ele>
        <time>2020-06-06T14:22:16Z</time>
      </trkpt>
      <trkpt lat="47.67893" lon="-3.01071">
        <ele>41.6</ele>
        <time>2020-06-06T14:22:17Z</time>
      </trkpt>
      <trkpt lat="47.67895" lon="-3.01076">
        <ele>41.7</ele>
        <time>2020-06-06T14:22:18Z</time>
      </trkpt>
      <trkpt lat="47.67898" lon="-3.01081">
        <ele>41.8</ele>
        <time>2020-06-06T14:22:19Z</time>
      </trkpt>
      <trkpt lat="47.679" lon="-3.01086">
        <ele>42</ele>
        <time>2020-06-06T14:22:20Z</time>
      </trkpt>
      <trkpt lat="47.67902" lon="-3.01091">
        <ele>42.1</ele>
        <time>2020-06-06T14:22:21Z</time>
      </trkpt>
      <trkpt lat="47.67905" lon="-3.01095">
        <ele>42.2</ele>
        <time>2020-06-06T14:22:22Z</time>
      </trkpt>
      <trkpt lat="47.67907" lon="-3.01101">
        <ele>42.3</ele>
        <time>2020-06-06T14:22:23Z</time>
      </trkpt>
      <trkpt lat="47.67909" lon="-3.01106">
        <ele>42.3</ele>
        <time>2020-06-06T14:22:24Z</time>
      </trkpt>
      <trkpt lat="47.67911" lon="-3.01111">
        <ele>42.4</ele>
        <time>2020-06-06T14:22:25Z</time>
      </trkpt>
      <trkpt lat="47.67913" lon="-3.01115">
        <ele>42.5</ele>
        <time>2020-06-06T14:22:26Z</time>
      </trkpt>
      <trkpt lat="47.67916" lon="-3.01121">
        <ele>42.5</ele>
        <time>2020-06-06T14:22:27Z</time>
      </trkpt>
      <trkpt lat="47.67918" lon="-3.01126">
        <ele>42.5</ele>
        <time>2020-06-06T14:22:28Z</time>
      </trkpt>
      <trkpt lat="47.6792" lon="-3.01132">
        <ele>42.6</ele>
        <time>2020-06-06T14:22:29Z</time>
      </trkpt>
      <trkpt lat="47.67923" lon="-3.01137">
        <ele>42.6</ele>
        <time>2020-06-06T14:22:30Z</time>
      </trkpt>
      <trkpt lat="47.67926" lon="-3.01143">
        <ele>42.6</ele>
        <time>2020-06-06T14:22:31Z</time>
      </trkpt>
      <trkpt lat="47.67929" lon="-3.01149">
        <ele>42.6</ele>
        <time>2020-06-06T14:22:32Z</time>
      </trkpt>
      <trkpt lat="47.67931" lon="-3.01154">
        <ele>42.6</ele>
        <time>2020-06-06T14:22:33Z</time>
      </trkpt>
      <trkpt lat="47.67935" lon="-3.0116">
        <ele>42.5</ele>
        <time>2020-06-06T14:22:34Z</time>
      </trkpt>
      <trkpt lat="47.67937" lon="-3.01165">
        <ele>42.5</ele>
        <time>2020-06-06T14:22:35Z</time>
      </trkpt>
      <trkpt lat="47.6794" lon="-3.01171">
        <ele>42.5</ele>
        <time>2020-06-06T14:22:36Z</time>
      </trkpt>
      <trkpt lat="47.67942" lon="-3.01175">
        <ele>42.5</ele>
        <time>2020-06-06T14:22:37Z</time>
      </trkpt>
      <trkpt lat="47.67944" lon="-3.01181">
        <ele>42.4</ele>
        <time>2020-06-06T14:22:38Z</time>
      </trkpt>
      <trkpt lat="47.67948" lon="-3.01188">
        <ele>42.4</ele>
        <time>2020-06-06T14:22:39Z</time>
      </trkpt>
      <trkpt lat="47.6795" lon="-3.01194">
        <ele>42.4</ele>
        <time>2020-06-06T14:22:40Z</time>
      </trkpt>
      <trkpt lat="47.67954" lon="-3.012">
        <ele>42.4</ele>
        <time>2020-06-06T14:22:41Z</time>
      </trkpt>
      <trkpt lat="47.67958" lon="-3.01206">
        <ele>42.4</ele>
        <time>2020-06-06T14:22:42Z</time>
      </trkpt>
      <trkpt lat="47.67962" lon="-3.01213">
        <ele>42.3</ele>
        <time>2020-06-06T14:22:43Z</time>
      </trkpt>
      <trkpt lat="47.67965" lon="-3.0122">
        <ele>42.3</ele>
        <time>2020-06-06T14:22:44Z</time>
      </trkpt>
      <trkpt lat="47.67968" lon="-3.01226">
        <ele>42.3</ele>
        <time>2020-06-06T14:22:45Z</time>
      </trkpt>
      <trkpt lat="47.67971" lon="-3.01232">
        <ele>42.3</ele>
        <time>2020-06-06T14:22:46Z</time>
      </trkpt>
      <trkpt lat="47.67974" lon="-3.01237">
        <ele>42.3</ele>
        <time>2020-06-06T14:22:47Z</time>
      </trkpt>
      <trkpt lat="47.67977" lon="-3.01243">
        <ele>42.2</ele>
        <time>2020-06-06T14:22:48Z</time>
      </trkpt>
      <trkpt lat="47.6798" lon="-3.0125">
        <ele>42.2</ele>
        <time>2020-06-06T14:22:49Z</time>
      </trkpt>
      <trkpt lat="47.67982" lon="-3.01256">
        <ele>42.2</ele>
        <time>2020-06-06T14:22:50Z</time>
      </trkpt>
      <trkpt lat="47.67985" lon="-3.01262">
        <ele>42.2</ele>
        <time>2020-06-06T14:22:51Z</time>
      </trkpt>
      <trkpt lat="47.67988" lon="-3.01269">
        <ele>42.2</ele>
        <time>2020-06-06T14:22:52Z</time>
      </trkpt>
      <trkpt lat="47.67992" lon="-3.01275">
        <ele>42.2</ele>
        <time>2020-06-06T14:22:53Z</time>
      </trkpt>
      <trkpt lat="47.67995" lon="-3.01282">
        <ele>42.2</ele>
        <time>2020-06-06T14:22:54Z</time>
      </trkpt>
      <trkpt lat="47.67998" lon="-3.01288">
        <ele>42.2</ele>
        <time>2020-06-06T14:22:55Z</time>
      </trkpt>
      <trkpt lat="47.68002" lon="-3.01294">
        <ele>42.2</ele>
        <time>2020-06-06T14:22:56Z</time>
      </trkpt>
      <trkpt lat="47.68005" lon="-3.01301">
        <ele>42.2</ele>
        <time>2020-06-06T14:22:57Z</time>
      </trkpt>
      <trkpt lat="47.68008" lon="-3.01309">
        <ele>42.2</ele>
        <time>2020-06-06T14:22:58Z</time>
      </trkpt>
      <trkpt lat="47.68012" lon="-3.01316">
        <ele>42.2</ele>
        <time>2020-06-06T14:22:59Z</time>
      </trkpt>
      <trkpt lat="47.68015" lon="-3.01323">
        <ele>42.2</ele>
        <time>2020-06-06T14:23:00Z</time>
      </trkpt>
      <trkpt lat="47.68019" lon="-3.01329">
        <ele>42.2</ele>
        <time>2020-06-06T14:23:01Z</time>
      </trkpt>
      <trkpt lat="47.68022" lon="-3.01335">
        <ele>42.2</ele>
        <time>2020-06-06T14:23:02Z</time>
      </trkpt>
      <trkpt lat="47.68025" lon="-3.01341">
        <ele>42.3</ele>
        <time>2020-06-06T14:23:03Z</time>
      </trkpt>
      <trkpt lat="47.68028" lon="-3.01346">
        <ele>42.3</ele>
        <time>2020-06-06T14:23:04Z</time>
      </trkpt>
      <trkpt lat="47.68031" lon="-3.01352">
        <ele>42.2</ele>
        <time>2020-06-06T14:23:05Z</time>
      </trkpt>
      <trkpt lat="47.68034" lon="-3.01359">
        <ele>42.2</ele>
        <time>2020-06-06T14:23:06Z</time>
      </trkpt>
      <trkpt lat="47.68037" lon="-3.01365">
        <ele>42.1</ele>
        <time>2020-06-06T14:23:07Z</time>
      </trkpt>
      <trkpt lat="47.68041" lon="-3.0137">
        <ele>42.1</ele>
        <time>2020-06-06T14:23:08Z</time>
      </trkpt>
      <trkpt lat="47.68045" lon="-3.01374">
        <ele>42</ele>
        <time>2020-06-06T14:23:09Z</time>
      </trkpt>
      <trkpt lat="47.68048" lon="-3.0138">
        <ele>41.9</ele>
        <time>2020-06-06T14:23:10Z</time>
      </trkpt>
      <trkpt lat="47.6805" lon="-3.01387">
        <ele>41.8</ele>
        <time>2020-06-06T14:23:11Z</time>
      </trkpt>
      <trkpt lat="47.68053" lon="-3.01395">
        <ele>41.7</ele>
        <time>2020-06-06T14:23:12Z</time>
      </trkpt>
      <trkpt lat="47.68055" lon="-3.01402">
        <ele>41.7</ele>
        <time>2020-06-06T14:23:13Z</time>
      </trkpt>
      <trkpt lat="47.68058" lon="-3.01409">
        <ele>41.6</ele>
        <time>2020-06-06T14:23:14Z</time>
      </trkpt>
      <trkpt lat="47.68061" lon="-3.01417">
        <ele>41.5</ele>
        <time>2020-06-06T14:23:15Z</time>
      </trkpt>
      <trkpt lat="47.68064" lon="-3.01424">
        <ele>41.4</ele>
        <time>2020-06-06T14:23:16Z</time>
      </trkpt>
      <trkpt lat="47.68068" lon="-3.01431">
        <ele>41.3</ele>
        <time>2020-06-06T14:23:17Z</time>
      </trkpt>
      <trkpt lat="47.68071" lon="-3.01438">
        <ele>41.2</ele>
        <time>2020-06-06T14:23:18Z</time>
      </trkpt>
      <trkpt lat="47.68074" lon="-3.01445">
        <ele>41.1</ele>
        <time>2020-06-06T14:23:19Z</time>
      </trkpt>
      <trkpt lat="47.68078" lon="-3.01452">
        <ele>40.9</ele>
        <time>2020-06-06T14:23:20Z</time>
      </trkpt>
      <trkpt lat="47.68081" lon="-3.0146">
        <ele>40.8</ele>
        <time>2020-06-06T14:23:21Z</time>
      </trkpt>
      <trkpt lat="47.68085" lon="-3.01467">
        <ele>40.6</ele>
        <time>2020-06-06T14:23:22Z</time>
      </trkpt>
      <trkpt lat="47.68089" lon="-3.01473">
        <ele>40.5</ele>
        <time>2020-06-06T14:23:23Z</time>
      </trkpt>
      <trkpt lat="47.68093" lon="-3.01481">
        <ele>40.3</ele>
        <time>2020-06-06T14:23:24Z</time>
      </trkpt>
      <trkpt lat="47.68097" lon="-3.01489">
        <ele>40.2</ele>
        <time>2020-06-06T14:23:25Z</time>
      </trkpt>
      <trkpt lat="47.68102" lon="-3.01496">
        <ele>40</ele>
        <time>2020-06-06T14:23:26Z</time>
      </trkpt>
      <trkpt lat="47.68107" lon="-3.01502">
        <ele>39.9</ele>
        <time>2020-06-06T14:23:27Z</time>
      </trkpt>
      <trkpt lat="47.68113" lon="-3.01508">
        <ele>39.7</ele>
        <time>2020-06-06T14:23:28Z</time>
      </trkpt>
      <trkpt lat="47.68118" lon="-3.01514">
        <ele>39.6</ele>
        <time>2020-06-06T14:23:29Z</time>
      </trkpt>
      <trkpt lat="47.68122" lon="-3.01521">
        <ele>39.5</ele>
        <time>2020-06-06T14:23:30Z</time>
      </trkpt>
      <trkpt lat="47.68126" lon="-3.01527">
        <ele>39.4</ele>
        <time>2020-06-06T14:23:31Z</time>
      </trkpt>
      <trkpt lat="47.6813" lon="-3.01535">
        <ele>39.3</ele>
        <time>2020-06-06T14:23:32Z</time>
      </trkpt>
      <trkpt lat="47.68134" lon="-3.01541">
        <ele>39.2</ele>
        <time>2020-06-06T14:23:33Z</time>
      </trkpt>
      <trkpt lat="47.68137" lon="-3.01546">
        <ele>39.1</ele>
        <time>2020-06-06T14:23:34Z</time>
      </trkpt>
      <trkpt lat="47.68141" lon="-3.01552">
        <ele>39.1</ele>
        <time>2020-06-06T14:23:35Z</time>
      </trkpt>
      <trkpt lat="47.68145" lon="-3.01559">
        <ele>39</ele>
        <time>2020-06-06T14:23:36Z</time>
      </trkpt>
      <trkpt lat="47.68149" lon="-3.01565">
        <ele>39</ele>
        <time>2020-06-06T14:23:37Z</time>
      </trkpt>
      <trkpt lat="47.68153" lon="-3.0157">
        <ele>38.9</ele>
        <time>2020-06-06T14:23:38Z</time>
      </trkpt>
      <trkpt lat="47.68156" lon="-3.01575">
        <ele>38.9</ele>
        <time>2020-06-06T14:23:39Z</time>
      </trkpt>
      <trkpt lat="47.6816" lon="-3.0158">
        <ele>38.9</ele>
        <time>2020-06-06T14:23:40Z</time>
      </trkpt>
      <trkpt lat="47.68164" lon="-3.01585">
        <ele>38.9</ele>
        <time>2020-06-06T14:23:41Z</time>
      </trkpt>
      <trkpt lat="47.68169" lon="-3.01589">
        <ele>38.9</ele>
        <time>2020-06-06T14:23:42Z</time>
      </trkpt>
      <trkpt lat="47.68173" lon="-3.01592">
        <ele>38.9</ele>
        <time>2020-06-06T14:23:43Z</time>
      </trkpt>
      <trkpt lat="47.68178" lon="-3.01596">
        <ele>38.8</ele>
        <time>2020-06-06T14:23:44Z</time>
      </trkpt>
      <trkpt lat="47.68181" lon="-3.01601">
        <ele>38.8</ele>
        <time>2020-06-06T14:23:45Z</time>
      </trkpt>
      <trkpt lat="47.68185" lon="-3.01609">
        <ele>38.8</ele>
        <time>2020-06-06T14:23:46Z</time>
      </trkpt>
      <trkpt lat="47.68189" lon="-3.01616">
        <ele>38.8</ele>
        <time>2020-06-06T14:23:47Z</time>
      </trkpt>
      <trkpt lat="47.68193" lon="-3.01621">
        <ele>38.7</ele>
        <time>2020-06-06T14:23:48Z</time>
      </trkpt>
      <trkpt lat="47.68197" lon="-3.01626">
        <ele>38.7</ele>
        <time>2020-06-06T14:23:49Z</time>
      </trkpt>
      <trkpt lat="47.682" lon="-3.01631">
        <ele>38.6</ele>
        <time>2020-06-06T14:23:50Z</time>
      </trkpt>
      <trkpt lat="47.68204" lon="-3.01636">
        <ele>38.6</ele>
        <time>2020-06-06T14:23:51Z</time>
      </trkpt>
      <trkpt lat="47.68207" lon="-3.01642">
        <ele>38.6</ele>
        <time>2020-06-06T14:23:52Z</time>
      </trkpt>
      <trkpt lat="47.6821" lon="-3.01647">
        <ele>38.5</ele>
        <time>2020-06-06T14:23:53Z</time>
      </trkpt>
      <trkpt lat="47.68212" lon="-3.01651">
        <ele>38.5</ele>
        <time>2020-06-06T14:23:54Z</time>
      </trkpt>
      <trkpt lat="47.68215" lon="-3.01657">
        <ele>38.5</ele>
        <time>2020-06-06T14:23:55Z</time>
      </trkpt>
      <trkpt lat="47.68219" lon="-3.01662">
        <ele>38.5</ele>
        <time>2020-06-06T14:23:56Z</time>
      </trkpt>
      <trkpt lat="47.68223" lon="-3.01665">
        <ele>38.4</ele>
        <time>2020-06-06T14:23:57Z</time>
      </trkpt>
      <trkpt lat="47.68226" lon="-3.01669">
        <ele>38.4</ele>
        <time>2020-06-06T14:23:58Z</time>
      </trkpt>
      <trkpt lat="47.6823" lon="-3.01674">
        <ele>38.3</ele>
        <time>2020-06-06T14:23:59Z</time>
      </trkpt>
      <trkpt lat="47.68233" lon="-3.01678">
        <ele>38.3</ele>
        <time>2020-06-06T14:24:00Z</time>
      </trkpt>
      <trkpt lat="47.68238" lon="-3.0168">
        <ele>38.2</ele>
        <time>2020-06-06T14:24:01Z</time>
      </trkpt>
      <trkpt lat="47.68242" lon="-3.01684">
        <ele>38.1</ele>
        <time>2020-06-06T14:24:02Z</time>
      </trkpt>
      <trkpt lat="47.68246" lon="-3.0169">
        <ele>38</ele>
        <time>2020-06-06T14:24:03Z</time>
      </trkpt>
      <trkpt lat="47.6825" lon="-3.01695">
        <ele>38</ele>
        <time>2020-06-06T14:24:04Z</time>
      </trkpt>
      <trkpt lat="47.68253" lon="-3.017">
        <ele>37.9</ele>
        <time>2020-06-06T14:24:05Z</time>
      </trkpt>
      <trkpt lat="47.68257" lon="-3.01705">
        <ele>37.8</ele>
        <time>2020-06-06T14:24:06Z</time>
      </trkpt>
      <trkpt lat="47.6826" lon="-3.0171">
        <ele>37.7</ele>
        <time>2020-06-06T14:24:07Z</time>
      </trkpt>
      <trkpt lat="47.68264" lon="-3.01716">
        <ele>37.7</ele>
        <time>2020-06-06T14:24:08Z</time>
      </trkpt>
      <trkpt lat="47.68267" lon="-3.01722">
        <ele>37.6</ele>
        <time>2020-06-06T14:24:09Z</time>
      </trkpt>
      <trkpt lat="47.6827" lon="-3.01728">
        <ele>37.5</ele>
        <time>2020-06-06T14:24:10Z</time>
      </trkpt>
      <trkpt lat="47.68274" lon="-3.01733">
        <ele>37.4</ele>
        <time>2020-06-06T14:24:11Z</time>
      </trkpt>
      <trkpt lat="47.68277" lon="-3.01739">
        <ele>37.4</ele>
        <time>2020-06-06T14:24:12Z</time>
      </trkpt>
      <trkpt lat="47.68281" lon="-3.01746">
        <ele>37.3</ele>
        <time>2020-06-06T14:24:13Z</time>
      </trkpt>
      <trkpt lat="47.68285" lon="-3.01752">
        <ele>37.2</ele>
        <time>2020-06-06T14:24:14Z</time>
      </trkpt>
      <trkpt lat="47.68289" lon="-3.01756">
        <ele>37.1</ele>
        <time>2020-06-06T14:24:15Z</time>
      </trkpt>
      <trkpt lat="47.68294" lon="-3.0176">
        <ele>37.1</ele>
        <time>2020-06-06T14:24:16Z</time>
      </trkpt>
      <trkpt lat="47.68298" lon="-3.01764">
        <ele>37</ele>
        <time>2020-06-06T14:24:17Z</time>
      </trkpt>
      <trkpt lat="47.68301" lon="-3.0177">
        <ele>36.9</ele>
        <time>2020-06-06T14:24:18Z</time>
      </trkpt>
      <trkpt lat="47.68304" lon="-3.01776">
        <ele>36.9</ele>
        <time>2020-06-06T14:24:19Z</time>
      </trkpt>
      <trkpt lat="47.68308" lon="-3.0178">
        <ele>36.8</ele>
        <time>2020-06-06T14:24:20Z</time>
      </trkpt>
      <trkpt lat="47.68312" lon="-3.01784">
        <ele>36.8</ele>
        <time>2020-06-06T14:24:21Z</time>
      </trkpt>
      <trkpt lat="47.68315" lon="-3.01787">
        <ele>36.7</ele>
        <time>2020-06-06T14:24:22Z</time>
      </trkpt>
      <trkpt lat="47.68319" lon="-3.01789">
        <ele>36.7</ele>
        <time>2020-06-06T14:24:23Z</time>
      </trkpt>
      <trkpt lat="47.68322" lon="-3.01789">
        <ele>36.6</ele>
        <time>2020-06-06T14:24:24Z</time>
      </trkpt>
      <trkpt lat="47.68326" lon="-3.01788">
        <ele>36.6</ele>
        <time>2020-06-06T14:24:25Z</time>
      </trkpt>
      <trkpt lat="47.68331" lon="-3.01787">
        <ele>36.6</ele>
        <time>2020-06-06T14:24:26Z</time>
      </trkpt>
      <trkpt lat="47.68336" lon="-3.01787">
        <ele>36.6</ele>
        <time>2020-06-06T14:24:27Z</time>
      </trkpt>
      <trkpt lat="47.6834" lon="-3.01787">
        <ele>36.6</ele>
        <time>2020-06-06T14:24:28Z</time>
      </trkpt>
      <trkpt lat="47.68345" lon="-3.01786">
        <ele>36.6</ele>
        <time>2020-06-06T14:24:29Z</time>
      </trkpt>
      <trkpt lat="47.68349" lon="-3.01786">
        <ele>36.6</ele>
        <time>2020-06-06T14:24:30Z</time>
      </trkpt>
      <trkpt lat="47.68352" lon="-3.01788">
        <ele>36.6</ele>
        <time>2020-06-06T14:24:31Z</time>
      </trkpt>
      <trkpt lat="47.68355" lon="-3.01792">
        <ele>36.6</ele>
        <time>2020-06-06T14:24:32Z</time>
      </trkpt>
      <trkpt lat="47.68358" lon="-3.01797">
        <ele>36.6</ele>
        <time>2020-06-06T14:24:33Z</time>
      </trkpt>
      <trkpt lat="47.6836" lon="-3.01801">
        <ele>36.6</ele>
        <time>2020-06-06T14:24:34Z</time>
      </trkpt>
      <trkpt lat="47.68362" lon="-3.01805">
        <ele>36.6</ele>
        <time>2020-06-06T14:24:35Z</time>
      </trkpt>
      <trkpt lat="47.68364" lon="-3.01809">
        <ele>36.7</ele>
        <time>2020-06-06T14:24:36Z</time>
      </trkpt>
      <trkpt lat="47.68367" lon="-3.01815">
        <ele>36.7</ele>
        <time>2020-06-06T14:24:37Z</time>
      </trkpt>
      <trkpt lat="47.68368" lon="-3.01819">
        <ele>36.7</ele>
        <time>2020-06-06T14:24:38Z</time>
      </trkpt>
      <trkpt lat="47.68368" lon="-3.01825">
        <ele>36.7</ele>
        <time>2020-06-06T14:24:39Z</time>
      </trkpt>
      <trkpt lat="47.68368" lon="-3.01831">
        <ele>36.9</ele>
        <time>2020-06-06T14:24:40Z</time>
      </trkpt>
      <trkpt lat="47.68369" lon="-3.01838">
        <ele>36.9</ele>
        <time>2020-06-06T14:24:41Z</time>
      </trkpt>
      <trkpt lat="47.6837" lon="-3.01845">
        <ele>36.9</ele>
        <time>2020-06-06T14:24:42Z</time>
      </trkpt>
      <trkpt lat="47.6837" lon="-3.01851">
        <ele>36.9</ele>
        <time>2020-06-06T14:24:43Z</time>
      </trkpt>
      <trkpt lat="47.68371" lon="-3.01856">
        <ele>37</ele>
        <time>2020-06-06T14:24:44Z</time>
      </trkpt>
      <trkpt lat="47.68372" lon="-3.01862">
        <ele>37</ele>
        <time>2020-06-06T14:24:45Z</time>
      </trkpt>
      <trkpt lat="47.68375" lon="-3.01866">
        <ele>37</ele>
        <time>2020-06-06T14:24:46Z</time>
      </trkpt>
      <trkpt lat="47.68377" lon="-3.0187">
        <ele>37</ele>
        <time>2020-06-06T14:24:47Z</time>
      </trkpt>
      <trkpt lat="47.6838" lon="-3.01875">
        <ele>37.1</ele>
        <time>2020-06-06T14:24:48Z</time>
      </trkpt>
      <trkpt lat="47.68382" lon="-3.0188">
        <ele>37.1</ele>
        <time>2020-06-06T14:24:49Z</time>
      </trkpt>
      <trkpt lat="47.68385" lon="-3.01885">
        <ele>37.2</ele>
        <time>2020-06-06T14:24:50Z</time>
      </trkpt>
      <trkpt lat="47.68388" lon="-3.01889">
        <ele>37.2</ele>
        <time>2020-06-06T14:24:51Z</time>
      </trkpt>
      <trkpt lat="47.68391" lon="-3.01893">
        <ele>37.2</ele>
        <time>2020-06-06T14:24:52Z</time>
      </trkpt>
      <trkpt lat="47.68395" lon="-3.01895">
        <ele>37.3</ele>
        <time>2020-06-06T14:24:53Z</time>
      </trkpt>
      <trkpt lat="47.68399" lon="-3.01899">
        <ele>37.3</ele>
        <time>2020-06-06T14:24:54Z</time>
      </trkpt>
      <trkpt lat="47.68403" lon="-3.01902">
        <ele>37.3</ele>
        <time>2020-06-06T14:24:55Z</time>
      </trkpt>
      <trkpt lat="47.68406" lon="-3.01907">
        <ele>37.6</ele>
        <time>2020-06-06T14:24:56Z</time>
      </trkpt>
      <trkpt lat="47.6841" lon="-3.01912">
        <ele>37.7</ele>
        <time>2020-06-06T14:24:57Z</time>
      </trkpt>
      <trkpt lat="47.68413" lon="-3.01917">
        <ele>37.8</ele>
        <time>2020-06-06T14:24:58Z</time>
      </trkpt>
      <trkpt lat="47.68417" lon="-3.01922">
        <ele>37.9</ele>
        <time>2020-06-06T14:24:59Z</time>
      </trkpt>
      <trkpt lat="47.68421" lon="-3.01927">
        <ele>37.9</ele>
        <time>2020-06-06T14:25:00Z</time>
      </trkpt>
      <trkpt lat="47.68425" lon="-3.01931">
        <ele>37.9</ele>
        <time>2020-06-06T14:25:01Z</time>
      </trkpt>
      <trkpt lat="47.68429" lon="-3.01936">
        <ele>38</ele>
        <time>2020-06-06T14:25:02Z</time>
      </trkpt>
      <trkpt lat="47.68432" lon="-3.01941">
        <ele>38.1</ele>
        <time>2020-06-06T14:25:03Z</time>
      </trkpt>
      <trkpt lat="47.68437" lon="-3.01945">
        <ele>38.2</ele>
        <time>2020-06-06T14:25:04Z</time>
      </trkpt>
      <trkpt lat="47.68441" lon="-3.01951">
        <ele>38.3</ele>
        <time>2020-06-06T14:25:05Z</time>
      </trkpt>
      <trkpt lat="47.68444" lon="-3.01956">
        <ele>38.4</ele>
        <time>2020-06-06T14:25:06Z</time>
      </trkpt>
      <trkpt lat="47.68447" lon="-3.0196">
        <ele>38.4</ele>
        <time>2020-06-06T14:25:07Z</time>
      </trkpt>
      <trkpt lat="47.6845" lon="-3.01965">
        <ele>38.5</ele>
        <time>2020-06-06T14:25:08Z</time>
      </trkpt>
      <trkpt lat="47.68454" lon="-3.01971">
        <ele>38.6</ele>
        <time>2020-06-06T14:25:09Z</time>
      </trkpt>
      <trkpt lat="47.68458" lon="-3.01976">
        <ele>38.7</ele>
        <time>2020-06-06T14:25:10Z</time>
      </trkpt>
      <trkpt lat="47.68462" lon="-3.01981">
        <ele>38.8</ele>
        <time>2020-06-06T14:25:11Z</time>
      </trkpt>
      <trkpt lat="47.68465" lon="-3.01986">
        <ele>38.9</ele>
        <time>2020-06-06T14:25:12Z</time>
      </trkpt>
      <trkpt lat="47.68469" lon="-3.01992">
        <ele>39.1</ele>
        <time>2020-06-06T14:25:13Z</time>
      </trkpt>
      <trkpt lat="47.68472" lon="-3.01997">
        <ele>39.2</ele>
        <time>2020-06-06T14:25:14Z</time>
      </trkpt>
      <trkpt lat="47.68476" lon="-3.02002">
        <ele>39.3</ele>
        <time>2020-06-06T14:25:15Z</time>
      </trkpt>
      <trkpt lat="47.68479" lon="-3.02007">
        <ele>39.4</ele>
        <time>2020-06-06T14:25:16Z</time>
      </trkpt>
      <trkpt lat="47.68483" lon="-3.02012">
        <ele>39.6</ele>
        <time>2020-06-06T14:25:17Z</time>
      </trkpt>
      <trkpt lat="47.68487" lon="-3.02017">
        <ele>39.6</ele>
        <time>2020-06-06T14:25:18Z</time>
      </trkpt>
      <trkpt lat="47.6849" lon="-3.02022">
        <ele>39.7</ele>
        <time>2020-06-06T14:25:19Z</time>
      </trkpt>
      <trkpt lat="47.68494" lon="-3.02028">
        <ele>39.8</ele>
        <time>2020-06-06T14:25:20Z</time>
      </trkpt>
      <trkpt lat="47.68497" lon="-3.02034">
        <ele>39.9</ele>
        <time>2020-06-06T14:25:21Z</time>
      </trkpt>
      <trkpt lat="47.685" lon="-3.02039">
        <ele>39.9</ele>
        <time>2020-06-06T14:25:22Z</time>
      </trkpt>
      <trkpt lat="47.68504" lon="-3.02045">
        <ele>40</ele>
        <time>2020-06-06T14:25:23Z</time>
      </trkpt>
      <trkpt lat="47.68507" lon="-3.0205">
        <ele>40</ele>
        <time>2020-06-06T14:25:24Z</time>
      </trkpt>
      <trkpt lat="47.68511" lon="-3.02055">
        <ele>40</ele>
        <time>2020-06-06T14:25:25Z</time>
      </trkpt>
      <trkpt lat="47.68515" lon="-3.0206">
        <ele>40.1</ele>
        <time>2020-06-06T14:25:26Z</time>
      </trkpt>
      <trkpt lat="47.68518" lon="-3.02065">
        <ele>40</ele>
        <time>2020-06-06T14:25:27Z</time>
      </trkpt>
      <trkpt lat="47.68522" lon="-3.0207">
        <ele>40.1</ele>
        <time>2020-06-06T14:25:28Z</time>
      </trkpt>
      <trkpt lat="47.68525" lon="-3.02075">
        <ele>40.1</ele>
        <time>2020-06-06T14:25:29Z</time>
      </trkpt>
      <trkpt lat="47.68529" lon="-3.0208">
        <ele>40.2</ele>
        <time>2020-06-06T14:25:30Z</time>
      </trkpt>
      <trkpt lat="47.68533" lon="-3.02084">
        <ele>40.2</ele>
        <time>2020-06-06T14:25:31Z</time>
      </trkpt>
      <trkpt lat="47.68536" lon="-3.02089">
        <ele>40.2</ele>
        <time>2020-06-06T14:25:32Z</time>
      </trkpt>
      <trkpt lat="47.6854" lon="-3.02094">
        <ele>40.2</ele>
        <time>2020-06-06T14:25:33Z</time>
      </trkpt>
      <trkpt lat="47.68543" lon="-3.021">
        <ele>40.2</ele>
        <time>2020-06-06T14:25:34Z</time>
      </trkpt>
      <trkpt lat="47.68546" lon="-3.02105">
        <ele>40.2</ele>
        <time>2020-06-06T14:25:35Z</time>
      </trkpt>
      <trkpt lat="47.6855" lon="-3.02111">
        <ele>40.3</ele>
        <time>2020-06-06T14:25:36Z</time>
      </trkpt>
      <trkpt lat="47.68554" lon="-3.02116">
        <ele>40.3</ele>
        <time>2020-06-06T14:25:37Z</time>
      </trkpt>
      <trkpt lat="47.68559" lon="-3.02121">
        <ele>40.4</ele>
        <time>2020-06-06T14:25:38Z</time>
      </trkpt>
      <trkpt lat="47.68563" lon="-3.02127">
        <ele>40.4</ele>
        <time>2020-06-06T14:25:39Z</time>
      </trkpt>
      <trkpt lat="47.68567" lon="-3.02132">
        <ele>40.4</ele>
        <time>2020-06-06T14:25:40Z</time>
      </trkpt>
      <trkpt lat="47.6857" lon="-3.02139">
        <ele>40.4</ele>
        <time>2020-06-06T14:25:41Z</time>
      </trkpt>
      <trkpt lat="47.68573" lon="-3.02145">
        <ele>40.5</ele>
        <time>2020-06-06T14:25:42Z</time>
      </trkpt>
      <trkpt lat="47.68578" lon="-3.0215">
        <ele>40.5</ele>
        <time>2020-06-06T14:25:43Z</time>
      </trkpt>
      <trkpt lat="47.68581" lon="-3.02155">
        <ele>40.5</ele>
        <time>2020-06-06T14:25:44Z</time>
      </trkpt>
      <trkpt lat="47.68585" lon="-3.0216">
        <ele>40.5</ele>
        <time>2020-06-06T14:25:45Z</time>
      </trkpt>
      <trkpt lat="47.6859" lon="-3.02164">
        <ele>40.5</ele>
        <time>2020-06-06T14:25:46Z</time>
      </trkpt>
      <trkpt lat="47.68594" lon="-3.02169">
        <ele>40.5</ele>
        <time>2020-06-06T14:25:47Z</time>
      </trkpt>
      <trkpt lat="47.68598" lon="-3.02174">
        <ele>40.5</ele>
        <time>2020-06-06T14:25:48Z</time>
      </trkpt>
      <trkpt lat="47.68603" lon="-3.0218">
        <ele>40.6</ele>
        <time>2020-06-06T14:25:49Z</time>
      </trkpt>
      <trkpt lat="47.68608" lon="-3.02186">
        <ele>40.6</ele>
        <time>2020-06-06T14:25:50Z</time>
      </trkpt>
      <trkpt lat="47.68611" lon="-3.0219">
        <ele>40.6</ele>
        <time>2020-06-06T14:25:51Z</time>
      </trkpt>
      <trkpt lat="47.68615" lon="-3.02194">
        <ele>40.7</ele>
        <time>2020-06-06T14:25:52Z</time>
      </trkpt>
      <trkpt lat="47.68618" lon="-3.022">
        <ele>40.7</ele>
        <time>2020-06-06T14:25:53Z</time>
      </trkpt>
      <trkpt lat="47.68622" lon="-3.02206">
        <ele>40.7</ele>
        <time>2020-06-06T14:25:54Z</time>
      </trkpt>
      <trkpt lat="47.68627" lon="-3.02212">
        <ele>40.8</ele>
        <time>2020-06-06T14:25:55Z</time>
      </trkpt>
      <trkpt lat="47.68631" lon="-3.02217">
        <ele>40.8</ele>
        <time>2020-06-06T14:25:56Z</time>
      </trkpt>
      <trkpt lat="47.68636" lon="-3.02223">
        <ele>40.8</ele>
        <time>2020-06-06T14:25:57Z</time>
      </trkpt>
      <trkpt lat="47.6864" lon="-3.02228">
        <ele>40.9</ele>
        <time>2020-06-06T14:25:58Z</time>
      </trkpt>
      <trkpt lat="47.68644" lon="-3.02233">
        <ele>40.9</ele>
        <time>2020-06-06T14:25:59Z</time>
      </trkpt>
      <trkpt lat="47.68648" lon="-3.02239">
        <ele>40.9</ele>
        <time>2020-06-06T14:26:00Z</time>
      </trkpt>
      <trkpt lat="47.68652" lon="-3.02244">
        <ele>41</ele>
        <time>2020-06-06T14:26:01Z</time>
      </trkpt>
      <trkpt lat="47.68655" lon="-3.02249">
        <ele>41</ele>
        <time>2020-06-06T14:26:02Z</time>
      </trkpt>
      <trkpt lat="47.68659" lon="-3.02254">
        <ele>41.1</ele>
        <time>2020-06-06T14:26:03Z</time>
      </trkpt>
      <trkpt lat="47.68663" lon="-3.02261">
        <ele>41.2</ele>
        <time>2020-06-06T14:26:04Z</time>
      </trkpt>
      <trkpt lat="47.68667" lon="-3.02266">
        <ele>41.2</ele>
        <time>2020-06-06T14:26:05Z</time>
      </trkpt>
      <trkpt lat="47.6867" lon="-3.02271">
        <ele>41.3</ele>
        <time>2020-06-06T14:26:06Z</time>
      </trkpt>
      <trkpt lat="47.68675" lon="-3.02277">
        <ele>41.3</ele>
        <time>2020-06-06T14:26:07Z</time>
      </trkpt>
      <trkpt lat="47.68679" lon="-3.02282">
        <ele>41.4</ele>
        <time>2020-06-06T14:26:08Z</time>
      </trkpt>
      <trkpt lat="47.68683" lon="-3.02288">
        <ele>41.4</ele>
        <time>2020-06-06T14:26:09Z</time>
      </trkpt>
      <trkpt lat="47.68687" lon="-3.02293">
        <ele>41.4</ele>
        <time>2020-06-06T14:26:10Z</time>
      </trkpt>
      <trkpt lat="47.68691" lon="-3.02297">
        <ele>41.4</ele>
        <time>2020-06-06T14:26:11Z</time>
      </trkpt>
      <trkpt lat="47.68696" lon="-3.02303">
        <ele>41.4</ele>
        <time>2020-06-06T14:26:12Z</time>
      </trkpt>
      <trkpt lat="47.68701" lon="-3.02307">
        <ele>41.3</ele>
        <time>2020-06-06T14:26:13Z</time>
      </trkpt>
      <trkpt lat="47.68705" lon="-3.02312">
        <ele>41.2</ele>
        <time>2020-06-06T14:26:14Z</time>
      </trkpt>
      <trkpt lat="47.68709" lon="-3.02318">
        <ele>41.2</ele>
        <time>2020-06-06T14:26:15Z</time>
      </trkpt>
      <trkpt lat="47.68712" lon="-3.02325">
        <ele>41.1</ele>
        <time>2020-06-06T14:26:16Z</time>
      </trkpt>
      <trkpt lat="47.68716" lon="-3.02331">
        <ele>41</ele>
        <time>2020-06-06T14:26:17Z</time>
      </trkpt>
      <trkpt lat="47.6872" lon="-3.02337">
        <ele>40.9</ele>
        <time>2020-06-06T14:26:18Z</time>
      </trkpt>
      <trkpt lat="47.68725" lon="-3.02344">
        <ele>40.8</ele>
        <time>2020-06-06T14:26:19Z</time>
      </trkpt>
      <trkpt lat="47.6873" lon="-3.02352">
        <ele>40.7</ele>
        <time>2020-06-06T14:26:20Z</time>
      </trkpt>
      <trkpt lat="47.68735" lon="-3.0236">
        <ele>40.5</ele>
        <time>2020-06-06T14:26:21Z</time>
      </trkpt>
      <trkpt lat="47.6874" lon="-3.02367">
        <ele>40.4</ele>
        <time>2020-06-06T14:26:22Z</time>
      </trkpt>
      <trkpt lat="47.68745" lon="-3.02374">
        <ele>40.3</ele>
        <time>2020-06-06T14:26:23Z</time>
      </trkpt>
      <trkpt lat="47.68749" lon="-3.02382">
        <ele>40.2</ele>
        <time>2020-06-06T14:26:24Z</time>
      </trkpt>
      <trkpt lat="47.68753" lon="-3.02389">
        <ele>40.2</ele>
        <time>2020-06-06T14:26:25Z</time>
      </trkpt>
      <trkpt lat="47.68757" lon="-3.02395">
        <ele>40.2</ele>
        <time>2020-06-06T14:26:26Z</time>
      </trkpt>
      <trkpt lat="47.68761" lon="-3.02402">
        <ele>40.1</ele>
        <time>2020-06-06T14:26:27Z</time>
      </trkpt>
      <trkpt lat="47.68766" lon="-3.02409">
        <ele>40.1</ele>
        <time>2020-06-06T14:26:28Z</time>
      </trkpt>
      <trkpt lat="47.68771" lon="-3.02415">
        <ele>40</ele>
        <time>2020-06-06T14:26:29Z</time>
      </trkpt>
      <trkpt lat="47.68775" lon="-3.02421">
        <ele>40</ele>
        <time>2020-06-06T14:26:30Z</time>
      </trkpt>
      <trkpt lat="47.68779" lon="-3.02426">
        <ele>39.9</ele>
        <time>2020-06-06T14:26:31Z</time>
      </trkpt>
      <trkpt lat="47.68783" lon="-3.02432">
        <ele>39.9</ele>
        <time>2020-06-06T14:26:32Z</time>
      </trkpt>
      <trkpt lat="47.68788" lon="-3.0244">
        <ele>39.9</ele>
        <time>2020-06-06T14:26:33Z</time>
      </trkpt>
      <trkpt lat="47.68793" lon="-3.02446">
        <ele>39.8</ele>
        <time>2020-06-06T14:26:34Z</time>
      </trkpt>
      <trkpt lat="47.68798" lon="-3.02452">
        <ele>39.8</ele>
        <time>2020-06-06T14:26:35Z</time>
      </trkpt>
      <trkpt lat="47.68802" lon="-3.02457">
        <ele>39.7</ele>
        <time>2020-06-06T14:26:36Z</time>
      </trkpt>
      <trkpt lat="47.68807" lon="-3.02464">
        <ele>39.7</ele>
        <time>2020-06-06T14:26:37Z</time>
      </trkpt>
      <trkpt lat="47.68814" lon="-3.0247">
        <ele>39.6</ele>
        <time>2020-06-06T14:26:38Z</time>
      </trkpt>
      <trkpt lat="47.68818" lon="-3.02476">
        <ele>39.6</ele>
        <time>2020-06-06T14:26:39Z</time>
      </trkpt>
      <trkpt lat="47.68823" lon="-3.02482">
        <ele>39.6</ele>
        <time>2020-06-06T14:26:40Z</time>
      </trkpt>
      <trkpt lat="47.68829" lon="-3.02489">
        <ele>39.6</ele>
        <time>2020-06-06T14:26:41Z</time>
      </trkpt>
      <trkpt lat="47.68835" lon="-3.02495">
        <ele>39.5</ele>
        <time>2020-06-06T14:26:42Z</time>
      </trkpt>
      <trkpt lat="47.6884" lon="-3.02501">
        <ele>39.5</ele>
        <time>2020-06-06T14:26:43Z</time>
      </trkpt>
      <trkpt lat="47.68845" lon="-3.02509">
        <ele>39.4</ele>
        <time>2020-06-06T14:26:44Z</time>
      </trkpt>
      <trkpt lat="47.6885" lon="-3.02517">
        <ele>39.4</ele>
        <time>2020-06-06T14:26:45Z</time>
      </trkpt>
      <trkpt lat="47.68856" lon="-3.02524">
        <ele>39.4</ele>
        <time>2020-06-06T14:26:46Z</time>
      </trkpt>
      <trkpt lat="47.68861" lon="-3.0253">
        <ele>39.4</ele>
        <time>2020-06-06T14:26:47Z</time>
      </trkpt>
      <trkpt lat="47.68868" lon="-3.02538">
        <ele>39.4</ele>
        <time>2020-06-06T14:26:48Z</time>
      </trkpt>
      <trkpt lat="47.68873" lon="-3.02543">
        <ele>39.4</ele>
        <time>2020-06-06T14:26:49Z</time>
      </trkpt>
      <trkpt lat="47.68876" lon="-3.0255">
        <ele>39.4</ele>
        <time>2020-06-06T14:26:50Z</time>
      </trkpt>
      <trkpt lat="47.6888" lon="-3.02556">
        <ele>39.5</ele>
        <time>2020-06-06T14:26:51Z</time>
      </trkpt>
      <trkpt lat="47.68885" lon="-3.02562">
        <ele>39.6</ele>
        <time>2020-06-06T14:26:52Z</time>
      </trkpt>
      <trkpt lat="47.6889" lon="-3.02569">
        <ele>39.7</ele>
        <time>2020-06-06T14:26:53Z</time>
      </trkpt>
      <trkpt lat="47.68895" lon="-3.02576">
        <ele>39.8</ele>
        <time>2020-06-06T14:26:54Z</time>
      </trkpt>
      <trkpt lat="47.68899" lon="-3.02582">
        <ele>39.9</ele>
        <time>2020-06-06T14:26:55Z</time>
      </trkpt>
      <trkpt lat="47.68903" lon="-3.02589">
        <ele>40</ele>
        <time>2020-06-06T14:26:56Z</time>
      </trkpt>
      <trkpt lat="47.68907" lon="-3.02594">
        <ele>40.1</ele>
        <time>2020-06-06T14:26:57Z</time>
      </trkpt>
      <trkpt lat="47.68911" lon="-3.026">
        <ele>40.2</ele>
        <time>2020-06-06T14:26:58Z</time>
      </trkpt>
      <trkpt lat="47.68914" lon="-3.02606">
        <ele>40.4</ele>
        <time>2020-06-06T14:26:59Z</time>
      </trkpt>
      <trkpt lat="47.68918" lon="-3.02611">
        <ele>40.5</ele>
        <time>2020-06-06T14:27:00Z</time>
      </trkpt>
      <trkpt lat="47.68922" lon="-3.02617">
        <ele>40.7</ele>
        <time>2020-06-06T14:27:01Z</time>
      </trkpt>
      <trkpt lat="47.68926" lon="-3.02623">
        <ele>40.8</ele>
        <time>2020-06-06T14:27:02Z</time>
      </trkpt>
      <trkpt lat="47.6893" lon="-3.02628">
        <ele>40.9</ele>
        <time>2020-06-06T14:27:03Z</time>
      </trkpt>
      <trkpt lat="47.68934" lon="-3.02633">
        <ele>40.9</ele>
        <time>2020-06-06T14:27:04Z</time>
      </trkpt>
      <trkpt lat="47.68937" lon="-3.02639">
        <ele>40.9</ele>
        <time>2020-06-06T14:27:05Z</time>
      </trkpt>
      <trkpt lat="47.68942" lon="-3.02645">
        <ele>41</ele>
        <time>2020-06-06T14:27:06Z</time>
      </trkpt>
      <trkpt lat="47.68946" lon="-3.02649">
        <ele>41.1</ele>
        <time>2020-06-06T14:27:07Z</time>
      </trkpt>
      <trkpt lat="47.6895" lon="-3.02654">
        <ele>41.1</ele>
        <time>2020-06-06T14:27:08Z</time>
      </trkpt>
      <trkpt lat="47.68954" lon="-3.02659">
        <ele>41.2</ele>
        <time>2020-06-06T14:27:09Z</time>
      </trkpt>
      <trkpt lat="47.68957" lon="-3.02664">
        <ele>41.3</ele>
        <time>2020-06-06T14:27:10Z</time>
      </trkpt>
      <trkpt lat="47.6896" lon="-3.0267">
        <ele>41.4</ele>
        <time>2020-06-06T14:27:11Z</time>
      </trkpt>
      <trkpt lat="47.68964" lon="-3.02675">
        <ele>41.5</ele>
        <time>2020-06-06T14:27:12Z</time>
      </trkpt>
      <trkpt lat="47.68968" lon="-3.02681">
        <ele>41.5</ele>
        <time>2020-06-06T14:27:13Z</time>
      </trkpt>
      <trkpt lat="47.68971" lon="-3.02684">
        <ele>41.6</ele>
        <time>2020-06-06T14:27:14Z</time>
      </trkpt>
      <trkpt lat="47.68978" lon="-3.02691">
        <ele>41.7</ele>
        <time>2020-06-06T14:27:15Z</time>
      </trkpt>
      <trkpt lat="47.68981" lon="-3.02696">
        <ele>41.7</ele>
        <time>2020-06-06T14:27:16Z</time>
      </trkpt>
      <trkpt lat="47.68985" lon="-3.02701">
        <ele>41.8</ele>
        <time>2020-06-06T14:27:17Z</time>
      </trkpt>
      <trkpt lat="47.68989" lon="-3.02707">
        <ele>41.8</ele>
        <time>2020-06-06T14:27:18Z</time>
      </trkpt>
      <trkpt lat="47.68993" lon="-3.02712">
        <ele>41.9</ele>
        <time>2020-06-06T14:27:19Z</time>
      </trkpt>
      <trkpt lat="47.68996" lon="-3.02717">
        <ele>42</ele>
        <time>2020-06-06T14:27:20Z</time>
      </trkpt>
      <trkpt lat="47.68999" lon="-3.02721">
        <ele>42</ele>
        <time>2020-06-06T14:27:21Z</time>
      </trkpt>
      <trkpt lat="47.69002" lon="-3.02725">
        <ele>42.1</ele>
        <time>2020-06-06T14:27:22Z</time>
      </trkpt>
      <trkpt lat="47.69006" lon="-3.02731">
        <ele>42.1</ele>
        <time>2020-06-06T14:27:23Z</time>
      </trkpt>
      <trkpt lat="47.69009" lon="-3.02735">
        <ele>42.2</ele>
        <time>2020-06-06T14:27:24Z</time>
      </trkpt>
      <trkpt lat="47.69013" lon="-3.02741">
        <ele>42.2</ele>
        <time>2020-06-06T14:27:25Z</time>
      </trkpt>
      <trkpt lat="47.69017" lon="-3.02747">
        <ele>42.1</ele>
        <time>2020-06-06T14:27:26Z</time>
      </trkpt>
      <trkpt lat="47.69021" lon="-3.02755">
        <ele>42.1</ele>
        <time>2020-06-06T14:27:27Z</time>
      </trkpt>
      <trkpt lat="47.69024" lon="-3.02759">
        <ele>42.1</ele>
        <time>2020-06-06T14:27:28Z</time>
      </trkpt>
      <trkpt lat="47.69026" lon="-3.02765">
        <ele>42.1</ele>
        <time>2020-06-06T14:27:29Z</time>
      </trkpt>
      <trkpt lat="47.69031" lon="-3.02771">
        <ele>42</ele>
        <time>2020-06-06T14:27:30Z</time>
      </trkpt>
      <trkpt lat="47.69036" lon="-3.02777">
        <ele>42</ele>
        <time>2020-06-06T14:27:31Z</time>
      </trkpt>
      <trkpt lat="47.6904" lon="-3.02782">
        <ele>42</ele>
        <time>2020-06-06T14:27:32Z</time>
      </trkpt>
      <trkpt lat="47.69044" lon="-3.02789">
        <ele>42</ele>
        <time>2020-06-06T14:27:33Z</time>
      </trkpt>
      <trkpt lat="47.6905" lon="-3.02793">
        <ele>41.9</ele>
        <time>2020-06-06T14:27:34Z</time>
      </trkpt>
      <trkpt lat="47.69054" lon="-3.02797">
        <ele>41.9</ele>
        <time>2020-06-06T14:27:35Z</time>
      </trkpt>
      <trkpt lat="47.69058" lon="-3.02802">
        <ele>41.8</ele>
        <time>2020-06-06T14:27:36Z</time>
      </trkpt>
      <trkpt lat="47.69063" lon="-3.02809">
        <ele>41.8</ele>
        <time>2020-06-06T14:27:37Z</time>
      </trkpt>
      <trkpt lat="47.69066" lon="-3.02813">
        <ele>41.8</ele>
        <time>2020-06-06T14:27:38Z</time>
      </trkpt>
      <trkpt lat="47.6907" lon="-3.02819">
        <ele>41.8</ele>
        <time>2020-06-06T14:27:39Z</time>
      </trkpt>
      <trkpt lat="47.69074" lon="-3.02826">
        <ele>41.8</ele>
        <time>2020-06-06T14:27:40Z</time>
      </trkpt>
      <trkpt lat="47.69079" lon="-3.02832">
        <ele>41.8</ele>
        <time>2020-06-06T14:27:41Z</time>
      </trkpt>
      <trkpt lat="47.69083" lon="-3.02837">
        <ele>41.8</ele>
        <time>2020-06-06T14:27:42Z</time>
      </trkpt>
      <trkpt lat="47.69087" lon="-3.02842">
        <ele>41.8</ele>
        <time>2020-06-06T14:27:43Z</time>
      </trkpt>
      <trkpt lat="47.69091" lon="-3.02848">
        <ele>41.8</ele>
        <time>2020-06-06T14:27:44Z</time>
      </trkpt>
      <trkpt lat="47.69094" lon="-3.02853">
        <ele>41.8</ele>
        <time>2020-06-06T14:27:45Z</time>
      </trkpt>
      <trkpt lat="47.69099" lon="-3.0286">
        <ele>41.8</ele>
        <time>2020-06-06T14:27:46Z</time>
      </trkpt>
      <trkpt lat="47.69104" lon="-3.02867">
        <ele>41.8</ele>
        <time>2020-06-06T14:27:47Z</time>
      </trkpt>
      <trkpt lat="47.69108" lon="-3.02874">
        <ele>41.8</ele>
        <time>2020-06-06T14:27:48Z</time>
      </trkpt>
      <trkpt lat="47.69113" lon="-3.0288">
        <ele>41.8</ele>
        <time>2020-06-06T14:27:49Z</time>
      </trkpt>
      <trkpt lat="47.69116" lon="-3.02885">
        <ele>41.8</ele>
        <time>2020-06-06T14:27:50Z</time>
      </trkpt>
      <trkpt lat="47.6912" lon="-3.0289">
        <ele>41.7</ele>
        <time>2020-06-06T14:27:51Z</time>
      </trkpt>
      <trkpt lat="47.69123" lon="-3.02895">
        <ele>41.7</ele>
        <time>2020-06-06T14:27:52Z</time>
      </trkpt>
      <trkpt lat="47.69127" lon="-3.02901">
        <ele>41.7</ele>
        <time>2020-06-06T14:27:53Z</time>
      </trkpt>
      <trkpt lat="47.69131" lon="-3.02906">
        <ele>41.6</ele>
        <time>2020-06-06T14:27:54Z</time>
      </trkpt>
      <trkpt lat="47.69135" lon="-3.0291">
        <ele>41.6</ele>
        <time>2020-06-06T14:27:55Z</time>
      </trkpt>
      <trkpt lat="47.69137" lon="-3.02915">
        <ele>41.6</ele>
        <time>2020-06-06T14:27:56Z</time>
      </trkpt>
      <trkpt lat="47.69141" lon="-3.02921">
        <ele>41.5</ele>
        <time>2020-06-06T14:27:57Z</time>
      </trkpt>
      <trkpt lat="47.69145" lon="-3.02926">
        <ele>41.4</ele>
        <time>2020-06-06T14:27:58Z</time>
      </trkpt>
      <trkpt lat="47.69148" lon="-3.02931">
        <ele>41.4</ele>
        <time>2020-06-06T14:27:59Z</time>
      </trkpt>
      <trkpt lat="47.69153" lon="-3.02938">
        <ele>41.3</ele>
        <time>2020-06-06T14:28:00Z</time>
      </trkpt>
      <trkpt lat="47.69157" lon="-3.02943">
        <ele>41.2</ele>
        <time>2020-06-06T14:28:01Z</time>
      </trkpt>
      <trkpt lat="47.69161" lon="-3.02949">
        <ele>41.1</ele>
        <time>2020-06-06T14:28:02Z</time>
      </trkpt>
      <trkpt lat="47.69165" lon="-3.02955">
        <ele>41.1</ele>
        <time>2020-06-06T14:28:03Z</time>
      </trkpt>
      <trkpt lat="47.69169" lon="-3.02961">
        <ele>41.1</ele>
        <time>2020-06-06T14:28:04Z</time>
      </trkpt>
      <trkpt lat="47.69173" lon="-3.02966">
        <ele>41</ele>
        <time>2020-06-06T14:28:05Z</time>
      </trkpt>
      <trkpt lat="47.69178" lon="-3.02973">
        <ele>41</ele>
        <time>2020-06-06T14:28:06Z</time>
      </trkpt>
      <trkpt lat="47.69182" lon="-3.02979">
        <ele>40.9</ele>
        <time>2020-06-06T14:28:07Z</time>
      </trkpt>
      <trkpt lat="47.69185" lon="-3.02983">
        <ele>40.9</ele>
        <time>2020-06-06T14:28:08Z</time>
      </trkpt>
      <trkpt lat="47.6919" lon="-3.02989">
        <ele>40.8</ele>
        <time>2020-06-06T14:28:09Z</time>
      </trkpt>
      <trkpt lat="47.69194" lon="-3.02994">
        <ele>40.8</ele>
        <time>2020-06-06T14:28:10Z</time>
      </trkpt>
      <trkpt lat="47.69197" lon="-3.02998">
        <ele>40.8</ele>
        <time>2020-06-06T14:28:11Z</time>
      </trkpt>
      <trkpt lat="47.692" lon="-3.03002">
        <ele>40.8</ele>
        <time>2020-06-06T14:28:12Z</time>
      </trkpt>
      <trkpt lat="47.69204" lon="-3.03007">
        <ele>40.8</ele>
        <time>2020-06-06T14:28:13Z</time>
      </trkpt>
      <trkpt lat="47.69207" lon="-3.03012">
        <ele>40.8</ele>
        <time>2020-06-06T14:28:14Z</time>
      </trkpt>
      <trkpt lat="47.6921" lon="-3.03015">
        <ele>40.8</ele>
        <time>2020-06-06T14:28:15Z</time>
      </trkpt>
      <trkpt lat="47.69212" lon="-3.03019">
        <ele>40.8</ele>
        <time>2020-06-06T14:28:16Z</time>
      </trkpt>
      <trkpt lat="47.69216" lon="-3.03023">
        <ele>40.8</ele>
        <time>2020-06-06T14:28:17Z</time>
      </trkpt>
      <trkpt lat="47.69219" lon="-3.03028">
        <ele>40.8</ele>
        <time>2020-06-06T14:28:18Z</time>
      </trkpt>
      <trkpt lat="47.69222" lon="-3.03031">
        <ele>40.8</ele>
        <time>2020-06-06T14:28:19Z</time>
      </trkpt>
      <trkpt lat="47.69225" lon="-3.03034">
        <ele>40.8</ele>
        <time>2020-06-06T14:28:20Z</time>
      </trkpt>
      <trkpt lat="47.69227" lon="-3.03036">
        <ele>40.8</ele>
        <time>2020-06-06T14:28:21Z</time>
      </trkpt>
      <trkpt lat="47.69228" lon="-3.03038">
        <ele>40.9</ele>
        <time>2020-06-06T14:28:22Z</time>
      </trkpt>
      <trkpt lat="47.69228" lon="-3.03038">
        <ele>40.9</ele>
        <time>2020-06-06T14:28:23Z</time>
      </trkpt>
      <trkpt lat="47.69228" lon="-3.03039">
        <ele>40.9</ele>
        <time>2020-06-06T14:28:24Z</time>
      </trkpt>
      <trkpt lat="47.69228" lon="-3.03039">
        <ele>40.9</ele>
        <time>2020-06-06T14:28:25Z</time>
      </trkpt>
      <trkpt lat="47.69228" lon="-3.0304">
        <ele>40.9</ele>
        <time>2020-06-06T14:28:26Z</time>
      </trkpt>
      <trkpt lat="47.69228" lon="-3.0304">
        <ele>40.9</ele>
        <time>2020-06-06T14:28:27Z</time>
      </trkpt>
      <trkpt lat="47.69228" lon="-3.03041">
        <ele>40.9</ele>
        <time>2020-06-06T14:28:28Z</time>
      </trkpt>
      <trkpt lat="47.69229" lon="-3.03041">
        <ele>40.9</ele>
        <time>2020-06-06T14:28:29Z</time>
      </trkpt>
      <trkpt lat="47.69229" lon="-3.03042">
        <ele>40.9</ele>
        <time>2020-06-06T14:28:30Z</time>
      </trkpt>
      <trkpt lat="47.69229" lon="-3.03042">
        <ele>40.9</ele>
        <time>2020-06-06T14:28:31Z</time>
      </trkpt>
      <trkpt lat="47.69229" lon="-3.03043">
        <ele>40.9</ele>
        <time>2020-06-06T14:28:32Z</time>
      </trkpt>
      <trkpt lat="47.69229" lon="-3.03043">
        <ele>40.9</ele>
        <time>2020-06-06T14:28:33Z</time>
      </trkpt>
      <trkpt lat="47.69229" lon="-3.03044">
        <ele>40.9</ele>
        <time>2020-06-06T14:28:34Z</time>
      </trkpt>
      <trkpt lat="47.69229" lon="-3.03044">
        <ele>40.9</ele>
        <time>2020-06-06T14:31:31Z</time>
      </trkpt>
      <trkpt lat="47.6923" lon="-3.03045">
        <ele>40.9</ele>
        <time>2020-06-06T14:31:32Z</time>
      </trkpt>
      <trkpt lat="47.6923" lon="-3.03046">
        <ele>40.9</ele>
        <time>2020-06-06T14:31:33Z</time>
      </trkpt>
      <trkpt lat="47.69232" lon="-3.03048">
        <ele>40.9</ele>
        <time>2020-06-06T14:31:34Z</time>
      </trkpt>
      <trkpt lat="47.69234" lon="-3.03051">
        <ele>41</ele>
        <time>2020-06-06T14:31:35Z</time>
      </trkpt>
      <trkpt lat="47.69237" lon="-3.03055">
        <ele>41</ele>
        <time>2020-06-06T14:31:36Z</time>
      </trkpt>
      <trkpt lat="47.69238" lon="-3.03057">
        <ele>41</ele>
        <time>2020-06-06T14:31:37Z</time>
      </trkpt>
      <trkpt lat="47.6924" lon="-3.0306">
        <ele>41</ele>
        <time>2020-06-06T14:31:38Z</time>
      </trkpt>
      <trkpt lat="47.69242" lon="-3.03063">
        <ele>41</ele>
        <time>2020-06-06T14:31:39Z</time>
      </trkpt>
      <trkpt lat="47.69245" lon="-3.03067">
        <ele>41.1</ele>
        <time>2020-06-06T14:31:40Z</time>
      </trkpt>
      <trkpt lat="47.69247" lon="-3.03069">
        <ele>41.1</ele>
        <time>2020-06-06T14:31:41Z</time>
      </trkpt>
      <trkpt lat="47.6925" lon="-3.03073">
        <ele>41.2</ele>
        <time>2020-06-06T14:31:42Z</time>
      </trkpt>
      <trkpt lat="47.69252" lon="-3.03076">
        <ele>41.2</ele>
        <time>2020-06-06T14:31:43Z</time>
      </trkpt>
      <trkpt lat="47.69255" lon="-3.03078">
        <ele>41.3</ele>
        <time>2020-06-06T14:31:44Z</time>
      </trkpt>
      <trkpt lat="47.69256" lon="-3.03079">
        <ele>41.3</ele>
        <time>2020-06-06T14:31:45Z</time>
      </trkpt>
      <trkpt lat="47.69258" lon="-3.03078">
        <ele>41.3</ele>
        <time>2020-06-06T14:31:46Z</time>
      </trkpt>
      <trkpt lat="47.69259" lon="-3.03078">
        <ele>41.3</ele>
        <time>2020-06-06T14:31:47Z</time>
      </trkpt>
      <trkpt lat="47.69259" lon="-3.03077">
        <ele>41.3</ele>
        <time>2020-06-06T14:31:48Z</time>
      </trkpt>
      <trkpt lat="47.6926" lon="-3.03076">
        <ele>41.3</ele>
        <time>2020-06-06T14:31:49Z</time>
      </trkpt>
      <trkpt lat="47.6926" lon="-3.03076">
        <ele>41.3</ele>
        <time>2020-06-06T14:31:50Z</time>
      </trkpt>
      <trkpt lat="47.6926" lon="-3.03077">
        <ele>41.4</ele>
        <time>2020-06-06T14:31:51Z</time>
      </trkpt>
      <trkpt lat="47.69261" lon="-3.03079">
        <ele>41.4</ele>
        <time>2020-06-06T14:31:52Z</time>
      </trkpt>
      <trkpt lat="47.69262" lon="-3.03081">
        <ele>41.4</ele>
        <time>2020-06-06T14:31:53Z</time>
      </trkpt>
      <trkpt lat="47.69262" lon="-3.03083">
        <ele>41.4</ele>
        <time>2020-06-06T14:31:54Z</time>
      </trkpt>
      <trkpt lat="47.69263" lon="-3.03084">
        <ele>41.4</ele>
        <time>2020-06-06T14:31:55Z</time>
      </trkpt>
      <trkpt lat="47.69263" lon="-3.03086">
        <ele>41.4</ele>
        <time>2020-06-06T14:31:56Z</time>
      </trkpt>
      <trkpt lat="47.69263" lon="-3.03088">
        <ele>41.4</ele>
        <time>2020-06-06T14:32:44Z</time>
      </trkpt>
      <trkpt lat="47.69264" lon="-3.03089">
        <ele>41.4</ele>
        <time>2020-06-06T14:32:45Z</time>
      </trkpt>
      <trkpt lat="47.69266" lon="-3.03093">
        <ele>41.4</ele>
        <time>2020-06-06T14:32:46Z</time>
      </trkpt>
      <trkpt lat="47.69268" lon="-3.03098">
        <ele>41.4</ele>
        <time>2020-06-06T14:32:47Z</time>
      </trkpt>
      <trkpt lat="47.69271" lon="-3.03102">
        <ele>41.4</ele>
        <time>2020-06-06T14:32:48Z</time>
      </trkpt>
      <trkpt lat="47.69272" lon="-3.03104">
        <ele>41.4</ele>
        <time>2020-06-06T14:32:49Z</time>
      </trkpt>
      <trkpt lat="47.69275" lon="-3.03108">
        <ele>41.4</ele>
        <time>2020-06-06T14:32:50Z</time>
      </trkpt>
      <trkpt lat="47.69278" lon="-3.03111">
        <ele>41.3</ele>
        <time>2020-06-06T14:32:51Z</time>
      </trkpt>
      <trkpt lat="47.69282" lon="-3.03116">
        <ele>41.3</ele>
        <time>2020-06-06T14:32:52Z</time>
      </trkpt>
      <trkpt lat="47.69284" lon="-3.03121">
        <ele>41.3</ele>
        <time>2020-06-06T14:32:53Z</time>
      </trkpt>
      <trkpt lat="47.69287" lon="-3.03126">
        <ele>41.2</ele>
        <time>2020-06-06T14:32:54Z</time>
      </trkpt>
      <trkpt lat="47.69291" lon="-3.0313">
        <ele>41.2</ele>
        <time>2020-06-06T14:32:55Z</time>
      </trkpt>
      <trkpt lat="47.69293" lon="-3.03135">
        <ele>41.2</ele>
        <time>2020-06-06T14:32:56Z</time>
      </trkpt>
      <trkpt lat="47.69296" lon="-3.0314">
        <ele>41.1</ele>
        <time>2020-06-06T14:32:57Z</time>
      </trkpt>
      <trkpt lat="47.693" lon="-3.03145">
        <ele>41.1</ele>
        <time>2020-06-06T14:32:58Z</time>
      </trkpt>
      <trkpt lat="47.69303" lon="-3.03151">
        <ele>41</ele>
        <time>2020-06-06T14:32:59Z</time>
      </trkpt>
      <trkpt lat="47.69308" lon="-3.03157">
        <ele>41</ele>
        <time>2020-06-06T14:33:00Z</time>
      </trkpt>
      <trkpt lat="47.69312" lon="-3.03163">
        <ele>40.9</ele>
        <time>2020-06-06T14:33:01Z</time>
      </trkpt>
      <trkpt lat="47.69316" lon="-3.03169">
        <ele>40.9</ele>
        <time>2020-06-06T14:33:02Z</time>
      </trkpt>
      <trkpt lat="47.6932" lon="-3.03174">
        <ele>40.9</ele>
        <time>2020-06-06T14:33:03Z</time>
      </trkpt>
      <trkpt lat="47.69324" lon="-3.03179">
        <ele>40.9</ele>
        <time>2020-06-06T14:33:04Z</time>
      </trkpt>
      <trkpt lat="47.69328" lon="-3.03184">
        <ele>40.8</ele>
        <time>2020-06-06T14:33:05Z</time>
      </trkpt>
      <trkpt lat="47.69332" lon="-3.03189">
        <ele>40.8</ele>
        <time>2020-06-06T14:33:06Z</time>
      </trkpt>
      <trkpt lat="47.69337" lon="-3.03195">
        <ele>40.8</ele>
        <time>2020-06-06T14:33:07Z</time>
      </trkpt>
      <trkpt lat="47.69341" lon="-3.03201">
        <ele>40.8</ele>
        <time>2020-06-06T14:33:08Z</time>
      </trkpt>
      <trkpt lat="47.69345" lon="-3.03207">
        <ele>40.8</ele>
        <time>2020-06-06T14:33:09Z</time>
      </trkpt>
      <trkpt lat="47.6935" lon="-3.03212">
        <ele>40.6</ele>
        <time>2020-06-06T14:33:10Z</time>
      </trkpt>
      <trkpt lat="47.69355" lon="-3.03217">
        <ele>40.5</ele>
        <time>2020-06-06T14:33:11Z</time>
      </trkpt>
      <trkpt lat="47.6936" lon="-3.03223">
        <ele>40.5</ele>
        <time>2020-06-06T14:33:12Z</time>
      </trkpt>
      <trkpt lat="47.69365" lon="-3.03229">
        <ele>40.5</ele>
        <time>2020-06-06T14:33:13Z</time>
      </trkpt>
      <trkpt lat="47.6937" lon="-3.03234">
        <ele>40.6</ele>
        <time>2020-06-06T14:33:14Z</time>
      </trkpt>
      <trkpt lat="47.69375" lon="-3.0324">
        <ele>40.7</ele>
        <time>2020-06-06T14:33:15Z</time>
      </trkpt>
      <trkpt lat="47.6938" lon="-3.03245">
        <ele>40.8</ele>
        <time>2020-06-06T14:33:16Z</time>
      </trkpt>
      <trkpt lat="47.69384" lon="-3.03249">
        <ele>40.8</ele>
        <time>2020-06-06T14:33:17Z</time>
      </trkpt>
      <trkpt lat="47.69389" lon="-3.03254">
        <ele>41</ele>
        <time>2020-06-06T14:33:18Z</time>
      </trkpt>
      <trkpt lat="47.69394" lon="-3.03259">
        <ele>41.2</ele>
        <time>2020-06-06T14:33:19Z</time>
      </trkpt>
      <trkpt lat="47.69398" lon="-3.03265">
        <ele>41.5</ele>
        <time>2020-06-06T14:33:20Z</time>
      </trkpt>
      <trkpt lat="47.69403" lon="-3.0327">
        <ele>41.9</ele>
        <time>2020-06-06T14:33:21Z</time>
      </trkpt>
      <trkpt lat="47.69408" lon="-3.03275">
        <ele>42.3</ele>
        <time>2020-06-06T14:33:22Z</time>
      </trkpt>
      <trkpt lat="47.69411" lon="-3.0328">
        <ele>42.5</ele>
        <time>2020-06-06T14:33:23Z</time>
      </trkpt>
      <trkpt lat="47.69416" lon="-3.03284">
        <ele>42.7</ele>
        <time>2020-06-06T14:33:24Z</time>
      </trkpt>
      <trkpt lat="47.6942" lon="-3.03289">
        <ele>42.9</ele>
        <time>2020-06-06T14:33:25Z</time>
      </trkpt>
      <trkpt lat="47.69424" lon="-3.03294">
        <ele>43.1</ele>
        <time>2020-06-06T14:33:26Z</time>
      </trkpt>
      <trkpt lat="47.69428" lon="-3.03299">
        <ele>43.3</ele>
        <time>2020-06-06T14:33:27Z</time>
      </trkpt>
      <trkpt lat="47.69431" lon="-3.03304">
        <ele>43.5</ele>
        <time>2020-06-06T14:33:28Z</time>
      </trkpt>
      <trkpt lat="47.69434" lon="-3.03308">
        <ele>43.6</ele>
        <time>2020-06-06T14:33:29Z</time>
      </trkpt>
      <trkpt lat="47.69437" lon="-3.03313">
        <ele>43.8</ele>
        <time>2020-06-06T14:33:30Z</time>
      </trkpt>
      <trkpt lat="47.6944" lon="-3.03316">
        <ele>44</ele>
        <time>2020-06-06T14:33:31Z</time>
      </trkpt>
      <trkpt lat="47.69442" lon="-3.03318">
        <ele>44.1</ele>
        <time>2020-06-06T14:33:32Z</time>
      </trkpt>
      <trkpt lat="47.69444" lon="-3.03321">
        <ele>44.3</ele>
        <time>2020-06-06T14:33:33Z</time>
      </trkpt>
      <trkpt lat="47.69446" lon="-3.03324">
        <ele>44.4</ele>
        <time>2020-06-06T14:33:34Z</time>
      </trkpt>
      <trkpt lat="47.69449" lon="-3.03327">
        <ele>44.5</ele>
        <time>2020-06-06T14:33:35Z</time>
      </trkpt>
      <trkpt lat="47.69452" lon="-3.0333">
        <ele>44.7</ele>
        <time>2020-06-06T14:33:36Z</time>
      </trkpt>
      <trkpt lat="47.69454" lon="-3.03333">
        <ele>44.8</ele>
        <time>2020-06-06T14:33:37Z</time>
      </trkpt>
      <trkpt lat="47.69458" lon="-3.03337">
        <ele>44.9</ele>
        <time>2020-06-06T14:33:38Z</time>
      </trkpt>
      <trkpt lat="47.6946" lon="-3.0334">
        <ele>45</ele>
        <time>2020-06-06T14:33:39Z</time>
      </trkpt>
      <trkpt lat="47.69463" lon="-3.03343">
        <ele>45.1</ele>
        <time>2020-06-06T14:33:40Z</time>
      </trkpt>
      <trkpt lat="47.69466" lon="-3.03346">
        <ele>45.1</ele>
        <time>2020-06-06T14:33:41Z</time>
      </trkpt>
      <trkpt lat="47.6947" lon="-3.03348">
        <ele>45.1</ele>
        <time>2020-06-06T14:33:42Z</time>
      </trkpt>
      <trkpt lat="47.69472" lon="-3.03349">
        <ele>45.1</ele>
        <time>2020-06-06T14:33:43Z</time>
      </trkpt>
      <trkpt lat="47.69475" lon="-3.03351">
        <ele>45.1</ele>
        <time>2020-06-06T14:33:44Z</time>
      </trkpt>
      <trkpt lat="47.69478" lon="-3.03351">
        <ele>45.2</ele>
        <time>2020-06-06T14:33:45Z</time>
      </trkpt>
      <trkpt lat="47.69481" lon="-3.03355">
        <ele>45.2</ele>
        <time>2020-06-06T14:33:46Z</time>
      </trkpt>
      <trkpt lat="47.69484" lon="-3.03356">
        <ele>45.2</ele>
        <time>2020-06-06T14:33:47Z</time>
      </trkpt>
      <trkpt lat="47.69487" lon="-3.0336">
        <ele>45.2</ele>
        <time>2020-06-06T14:33:48Z</time>
      </trkpt>
      <trkpt lat="47.69487" lon="-3.03362">
        <ele>45.3</ele>
        <time>2020-06-06T14:33:49Z</time>
      </trkpt>
      <trkpt lat="47.6949" lon="-3.03365">
        <ele>45.3</ele>
        <time>2020-06-06T14:33:50Z</time>
      </trkpt>
      <trkpt lat="47.69492" lon="-3.03368">
        <ele>45.3</ele>
        <time>2020-06-06T14:33:51Z</time>
      </trkpt>
      <trkpt lat="47.69495" lon="-3.03372">
        <ele>45.3</ele>
        <time>2020-06-06T14:33:52Z</time>
      </trkpt>
      <trkpt lat="47.69497" lon="-3.03376">
        <ele>45.3</ele>
        <time>2020-06-06T14:33:53Z</time>
      </trkpt>
      <trkpt lat="47.695" lon="-3.03381">
        <ele>45.4</ele>
        <time>2020-06-06T14:33:54Z</time>
      </trkpt>
      <trkpt lat="47.69501" lon="-3.03385">
        <ele>45.5</ele>
        <time>2020-06-06T14:33:55Z</time>
      </trkpt>
      <trkpt lat="47.69504" lon="-3.03389">
        <ele>45.6</ele>
        <time>2020-06-06T14:33:56Z</time>
      </trkpt>
      <trkpt lat="47.69507" lon="-3.03393">
        <ele>45.7</ele>
        <time>2020-06-06T14:33:57Z</time>
      </trkpt>
      <trkpt lat="47.69509" lon="-3.03397">
        <ele>45.7</ele>
        <time>2020-06-06T14:33:58Z</time>
      </trkpt>
      <trkpt lat="47.69512" lon="-3.034">
        <ele>45.8</ele>
        <time>2020-06-06T14:33:59Z</time>
      </trkpt>
      <trkpt lat="47.69516" lon="-3.03406">
        <ele>45.8</ele>
        <time>2020-06-06T14:34:00Z</time>
      </trkpt>
      <trkpt lat="47.6952" lon="-3.03408">
        <ele>45.8</ele>
        <time>2020-06-06T14:34:01Z</time>
      </trkpt>
      <trkpt lat="47.69522" lon="-3.0341">
        <ele>45.7</ele>
        <time>2020-06-06T14:34:02Z</time>
      </trkpt>
      <trkpt lat="47.69525" lon="-3.03413">
        <ele>45.7</ele>
        <time>2020-06-06T14:34:03Z</time>
      </trkpt>
      <trkpt lat="47.69528" lon="-3.03416">
        <ele>45.6</ele>
        <time>2020-06-06T14:34:04Z</time>
      </trkpt>
      <trkpt lat="47.6953" lon="-3.03418">
        <ele>45.6</ele>
        <time>2020-06-06T14:34:05Z</time>
      </trkpt>
      <trkpt lat="47.69533" lon="-3.0342">
        <ele>45.5</ele>
        <time>2020-06-06T14:34:06Z</time>
      </trkpt>
      <trkpt lat="47.69536" lon="-3.03423">
        <ele>45.4</ele>
        <time>2020-06-06T14:34:07Z</time>
      </trkpt>
      <trkpt lat="47.6954" lon="-3.03425">
        <ele>45.3</ele>
        <time>2020-06-06T14:34:08Z</time>
      </trkpt>
      <trkpt lat="47.69543" lon="-3.03428">
        <ele>45.2</ele>
        <time>2020-06-06T14:34:09Z</time>
      </trkpt>
      <trkpt lat="47.69546" lon="-3.03432">
        <ele>45.1</ele>
        <time>2020-06-06T14:34:10Z</time>
      </trkpt>
      <trkpt lat="47.69548" lon="-3.03435">
        <ele>44.9</ele>
        <time>2020-06-06T14:34:11Z</time>
      </trkpt>
      <trkpt lat="47.69551" lon="-3.03439">
        <ele>44.7</ele>
        <time>2020-06-06T14:34:12Z</time>
      </trkpt>
      <trkpt lat="47.69555" lon="-3.03445">
        <ele>44.5</ele>
        <time>2020-06-06T14:34:13Z</time>
      </trkpt>
      <trkpt lat="47.69558" lon="-3.0345">
        <ele>44.2</ele>
        <time>2020-06-06T14:34:14Z</time>
      </trkpt>
      <trkpt lat="47.69561" lon="-3.03457">
        <ele>43.9</ele>
        <time>2020-06-06T14:34:15Z</time>
      </trkpt>
      <trkpt lat="47.69566" lon="-3.0346">
        <ele>43.8</ele>
        <time>2020-06-06T14:34:16Z</time>
      </trkpt>
      <trkpt lat="47.6957" lon="-3.03466">
        <ele>43.7</ele>
        <time>2020-06-06T14:34:17Z</time>
      </trkpt>
      <trkpt lat="47.69573" lon="-3.03471">
        <ele>43.6</ele>
        <time>2020-06-06T14:34:18Z</time>
      </trkpt>
      <trkpt lat="47.69578" lon="-3.03478">
        <ele>43.5</ele>
        <time>2020-06-06T14:34:19Z</time>
      </trkpt>
      <trkpt lat="47.69582" lon="-3.03484">
        <ele>43.4</ele>
        <time>2020-06-06T14:34:20Z</time>
      </trkpt>
      <trkpt lat="47.69587" lon="-3.0349">
        <ele>43.3</ele>
        <time>2020-06-06T14:34:21Z</time>
      </trkpt>
      <trkpt lat="47.69592" lon="-3.03496">
        <ele>43.1</ele>
        <time>2020-06-06T14:34:22Z</time>
      </trkpt>
      <trkpt lat="47.69597" lon="-3.035">
        <ele>43</ele>
        <time>2020-06-06T14:34:23Z</time>
      </trkpt>
      <trkpt lat="47.69602" lon="-3.03505">
        <ele>42.8</ele>
        <time>2020-06-06T14:34:24Z</time>
      </trkpt>
      <trkpt lat="47.69607" lon="-3.03511">
        <ele>42.7</ele>
        <time>2020-06-06T14:34:25Z</time>
      </trkpt>
      <trkpt lat="47.69612" lon="-3.03515">
        <ele>42.5</ele>
        <time>2020-06-06T14:34:26Z</time>
      </trkpt>
      <trkpt lat="47.69616" lon="-3.0352">
        <ele>42.3</ele>
        <time>2020-06-06T14:34:27Z</time>
      </trkpt>
      <trkpt lat="47.6962" lon="-3.03526">
        <ele>41.9</ele>
        <time>2020-06-06T14:34:28Z</time>
      </trkpt>
      <trkpt lat="47.69625" lon="-3.03531">
        <ele>41.5</ele>
        <time>2020-06-06T14:34:29Z</time>
      </trkpt>
      <trkpt lat="47.69629" lon="-3.03537">
        <ele>41.2</ele>
        <time>2020-06-06T14:34:30Z</time>
      </trkpt>
      <trkpt lat="47.69634" lon="-3.03543">
        <ele>41</ele>
        <time>2020-06-06T14:34:31Z</time>
      </trkpt>
      <trkpt lat="47.69638" lon="-3.03547">
        <ele>41</ele>
        <time>2020-06-06T14:34:32Z</time>
      </trkpt>
      <trkpt lat="47.69642" lon="-3.03553">
        <ele>40.8</ele>
        <time>2020-06-06T14:34:33Z</time>
      </trkpt>
      <trkpt lat="47.69646" lon="-3.03557">
        <ele>40.7</ele>
        <time>2020-06-06T14:34:34Z</time>
      </trkpt>
      <trkpt lat="47.6965" lon="-3.03563">
        <ele>40.6</ele>
        <time>2020-06-06T14:34:35Z</time>
      </trkpt>
      <trkpt lat="47.69654" lon="-3.03567">
        <ele>40.4</ele>
        <time>2020-06-06T14:34:36Z</time>
      </trkpt>
      <trkpt lat="47.69658" lon="-3.03571">
        <ele>40.2</ele>
        <time>2020-06-06T14:34:37Z</time>
      </trkpt>
      <trkpt lat="47.69662" lon="-3.03575">
        <ele>40.1</ele>
        <time>2020-06-06T14:34:38Z</time>
      </trkpt>
      <trkpt lat="47.69666" lon="-3.03581">
        <ele>39.9</ele>
        <time>2020-06-06T14:34:39Z</time>
      </trkpt>
      <trkpt lat="47.69669" lon="-3.03586">
        <ele>39.7</ele>
        <time>2020-06-06T14:34:40Z</time>
      </trkpt>
      <trkpt lat="47.69674" lon="-3.03592">
        <ele>39.5</ele>
        <time>2020-06-06T14:34:41Z</time>
      </trkpt>
      <trkpt lat="47.69678" lon="-3.03597">
        <ele>39.3</ele>
        <time>2020-06-06T14:34:42Z</time>
      </trkpt>
      <trkpt lat="47.69683" lon="-3.03602">
        <ele>39</ele>
        <time>2020-06-06T14:34:43Z</time>
      </trkpt>
      <trkpt lat="47.69688" lon="-3.03607">
        <ele>38.8</ele>
        <time>2020-06-06T14:34:44Z</time>
      </trkpt>
      <trkpt lat="47.69694" lon="-3.03613">
        <ele>38.5</ele>
        <time>2020-06-06T14:34:45Z</time>
      </trkpt>
      <trkpt lat="47.69699" lon="-3.03619">
        <ele>38.2</ele>
        <time>2020-06-06T14:34:46Z</time>
      </trkpt>
      <trkpt lat="47.69704" lon="-3.03625">
        <ele>38</ele>
        <time>2020-06-06T14:34:47Z</time>
      </trkpt>
      <trkpt lat="47.69709" lon="-3.03631">
        <ele>37.8</ele>
        <time>2020-06-06T14:34:48Z</time>
      </trkpt>
      <trkpt lat="47.69715" lon="-3.03637">
        <ele>37.5</ele>
        <time>2020-06-06T14:34:49Z</time>
      </trkpt>
      <trkpt lat="47.6972" lon="-3.03644">
        <ele>37.3</ele>
        <time>2020-06-06T14:34:50Z</time>
      </trkpt>
      <trkpt lat="47.69726" lon="-3.03652">
        <ele>37</ele>
        <time>2020-06-06T14:34:51Z</time>
      </trkpt>
      <trkpt lat="47.69731" lon="-3.03657">
        <ele>36.8</ele>
        <time>2020-06-06T14:34:52Z</time>
      </trkpt>
      <trkpt lat="47.69736" lon="-3.03664">
        <ele>36.7</ele>
        <time>2020-06-06T14:34:53Z</time>
      </trkpt>
      <trkpt lat="47.69743" lon="-3.03672">
        <ele>36.4</ele>
        <time>2020-06-06T14:34:54Z</time>
      </trkpt>
      <trkpt lat="47.69748" lon="-3.03679">
        <ele>36.3</ele>
        <time>2020-06-06T14:34:55Z</time>
      </trkpt>
      <trkpt lat="47.69754" lon="-3.03686">
        <ele>36.1</ele>
        <time>2020-06-06T14:34:56Z</time>
      </trkpt>
      <trkpt lat="47.69759" lon="-3.03692">
        <ele>36</ele>
        <time>2020-06-06T14:34:57Z</time>
      </trkpt>
      <trkpt lat="47.69765" lon="-3.03699">
        <ele>36</ele>
        <time>2020-06-06T14:34:58Z</time>
      </trkpt>
      <trkpt lat="47.6977" lon="-3.03706">
        <ele>35.9</ele>
        <time>2020-06-06T14:34:59Z</time>
      </trkpt>
      <trkpt lat="47.69775" lon="-3.03712">
        <ele>35.9</ele>
        <time>2020-06-06T14:35:00Z</time>
      </trkpt>
      <trkpt lat="47.69781" lon="-3.03718">
        <ele>35.9</ele>
        <time>2020-06-06T14:35:01Z</time>
      </trkpt>
      <trkpt lat="47.69785" lon="-3.03725">
        <ele>35.9</ele>
        <time>2020-06-06T14:35:02Z</time>
      </trkpt>
      <trkpt lat="47.69791" lon="-3.03732">
        <ele>35.8</ele>
        <time>2020-06-06T14:35:03Z</time>
      </trkpt>
      <trkpt lat="47.69796" lon="-3.03737">
        <ele>35.8</ele>
        <time>2020-06-06T14:35:04Z</time>
      </trkpt>
      <trkpt lat="47.69801" lon="-3.03744">
        <ele>35.8</ele>
        <time>2020-06-06T14:35:05Z</time>
      </trkpt>
      <trkpt lat="47.69806" lon="-3.03749">
        <ele>35.8</ele>
        <time>2020-06-06T14:35:06Z</time>
      </trkpt>
      <trkpt lat="47.69811" lon="-3.03755">
        <ele>35.8</ele>
        <time>2020-06-06T14:35:07Z</time>
      </trkpt>
      <trkpt lat="47.69816" lon="-3.03761">
        <ele>35.8</ele>
        <time>2020-06-06T14:35:08Z</time>
      </trkpt>
      <trkpt lat="47.69821" lon="-3.03767">
        <ele>35.8</ele>
        <time>2020-06-06T14:35:09Z</time>
      </trkpt>
      <trkpt lat="47.69826" lon="-3.03772">
        <ele>35.7</ele>
        <time>2020-06-06T14:35:10Z</time>
      </trkpt>
      <trkpt lat="47.69831" lon="-3.03778">
        <ele>35.7</ele>
        <time>2020-06-06T14:35:11Z</time>
      </trkpt>
      <trkpt lat="47.69835" lon="-3.03783">
        <ele>35.8</ele>
        <time>2020-06-06T14:35:12Z</time>
      </trkpt>
      <trkpt lat="47.6984" lon="-3.03789">
        <ele>35.8</ele>
        <time>2020-06-06T14:35:13Z</time>
      </trkpt>
      <trkpt lat="47.69844" lon="-3.03795">
        <ele>35.8</ele>
        <time>2020-06-06T14:35:14Z</time>
      </trkpt>
      <trkpt lat="47.69849" lon="-3.03801">
        <ele>35.9</ele>
        <time>2020-06-06T14:35:15Z</time>
      </trkpt>
      <trkpt lat="47.69853" lon="-3.03807">
        <ele>36</ele>
        <time>2020-06-06T14:35:16Z</time>
      </trkpt>
      <trkpt lat="47.69858" lon="-3.03812">
        <ele>36.1</ele>
        <time>2020-06-06T14:35:17Z</time>
      </trkpt>
      <trkpt lat="47.69862" lon="-3.03818">
        <ele>36.2</ele>
        <time>2020-06-06T14:35:18Z</time>
      </trkpt>
      <trkpt lat="47.69866" lon="-3.03824">
        <ele>36.3</ele>
        <time>2020-06-06T14:35:19Z</time>
      </trkpt>
      <trkpt lat="47.6987" lon="-3.0383">
        <ele>36.4</ele>
        <time>2020-06-06T14:35:20Z</time>
      </trkpt>
      <trkpt lat="47.69875" lon="-3.03835">
        <ele>36.5</ele>
        <time>2020-06-06T14:35:21Z</time>
      </trkpt>
      <trkpt lat="47.69879" lon="-3.03841">
        <ele>36.6</ele>
        <time>2020-06-06T14:35:22Z</time>
      </trkpt>
      <trkpt lat="47.69884" lon="-3.03846">
        <ele>36.8</ele>
        <time>2020-06-06T14:35:23Z</time>
      </trkpt>
      <trkpt lat="47.69889" lon="-3.03851">
        <ele>36.9</ele>
        <time>2020-06-06T14:35:24Z</time>
      </trkpt>
      <trkpt lat="47.69894" lon="-3.03856">
        <ele>37</ele>
        <time>2020-06-06T14:35:25Z</time>
      </trkpt>
      <trkpt lat="47.69898" lon="-3.03861">
        <ele>37.1</ele>
        <time>2020-06-06T14:35:26Z</time>
      </trkpt>
      <trkpt lat="47.69903" lon="-3.03866">
        <ele>37.1</ele>
        <time>2020-06-06T14:35:27Z</time>
      </trkpt>
      <trkpt lat="47.69907" lon="-3.03871">
        <ele>37.1</ele>
        <time>2020-06-06T14:35:28Z</time>
      </trkpt>
      <trkpt lat="47.69911" lon="-3.03876">
        <ele>37.1</ele>
        <time>2020-06-06T14:35:29Z</time>
      </trkpt>
      <trkpt lat="47.69915" lon="-3.03882">
        <ele>37.1</ele>
        <time>2020-06-06T14:35:30Z</time>
      </trkpt>
      <trkpt lat="47.69918" lon="-3.03888">
        <ele>37.2</ele>
        <time>2020-06-06T14:35:31Z</time>
      </trkpt>
      <trkpt lat="47.69923" lon="-3.03892">
        <ele>37.2</ele>
        <time>2020-06-06T14:35:32Z</time>
      </trkpt>
      <trkpt lat="47.69927" lon="-3.03898">
        <ele>37.2</ele>
        <time>2020-06-06T14:35:33Z</time>
      </trkpt>
      <trkpt lat="47.69932" lon="-3.03902">
        <ele>37.3</ele>
        <time>2020-06-06T14:35:34Z</time>
      </trkpt>
      <trkpt lat="47.69936" lon="-3.03907">
        <ele>37.3</ele>
        <time>2020-06-06T14:35:35Z</time>
      </trkpt>
      <trkpt lat="47.69941" lon="-3.03912">
        <ele>37.3</ele>
        <time>2020-06-06T14:35:36Z</time>
      </trkpt>
      <trkpt lat="47.69945" lon="-3.03917">
        <ele>37.3</ele>
        <time>2020-06-06T14:35:37Z</time>
      </trkpt>
      <trkpt lat="47.69949" lon="-3.03922">
        <ele>37.3</ele>
        <time>2020-06-06T14:35:38Z</time>
      </trkpt>
      <trkpt lat="47.69954" lon="-3.03928">
        <ele>37.3</ele>
        <time>2020-06-06T14:35:39Z</time>
      </trkpt>
      <trkpt lat="47.69958" lon="-3.03934">
        <ele>37.3</ele>
        <time>2020-06-06T14:35:40Z</time>
      </trkpt>
      <trkpt lat="47.69963" lon="-3.03939">
        <ele>37.3</ele>
        <time>2020-06-06T14:35:41Z</time>
      </trkpt>
      <trkpt lat="47.69968" lon="-3.03945">
        <ele>37.3</ele>
        <time>2020-06-06T14:35:42Z</time>
      </trkpt>
      <trkpt lat="47.69973" lon="-3.03949">
        <ele>37.2</ele>
        <time>2020-06-06T14:35:43Z</time>
      </trkpt>
      <trkpt lat="47.69977" lon="-3.03954">
        <ele>37.2</ele>
        <time>2020-06-06T14:35:44Z</time>
      </trkpt>
      <trkpt lat="47.69982" lon="-3.0396">
        <ele>37.2</ele>
        <time>2020-06-06T14:35:45Z</time>
      </trkpt>
      <trkpt lat="47.69988" lon="-3.03965">
        <ele>37.2</ele>
        <time>2020-06-06T14:35:46Z</time>
      </trkpt>
      <trkpt lat="47.69993" lon="-3.03971">
        <ele>37.2</ele>
        <time>2020-06-06T14:35:47Z</time>
      </trkpt>
      <trkpt lat="47.69998" lon="-3.03977">
        <ele>37.2</ele>
        <time>2020-06-06T14:35:48Z</time>
      </trkpt>
      <trkpt lat="47.70002" lon="-3.03982">
        <ele>37.1</ele>
        <time>2020-06-06T14:35:49Z</time>
      </trkpt>
      <trkpt lat="47.70007" lon="-3.03987">
        <ele>37.1</ele>
        <time>2020-06-06T14:35:50Z</time>
      </trkpt>
      <trkpt lat="47.70011" lon="-3.03993">
        <ele>37</ele>
        <time>2020-06-06T14:35:51Z</time>
      </trkpt>
      <trkpt lat="47.70016" lon="-3.03998">
        <ele>36.9</ele>
        <time>2020-06-06T14:35:52Z</time>
      </trkpt>
      <trkpt lat="47.70021" lon="-3.04003">
        <ele>36.9</ele>
        <time>2020-06-06T14:35:53Z</time>
      </trkpt>
      <trkpt lat="47.70026" lon="-3.04009">
        <ele>36.8</ele>
        <time>2020-06-06T14:35:54Z</time>
      </trkpt>
      <trkpt lat="47.70031" lon="-3.04014">
        <ele>36.6</ele>
        <time>2020-06-06T14:35:55Z</time>
      </trkpt>
      <trkpt lat="47.70036" lon="-3.04019">
        <ele>36.5</ele>
        <time>2020-06-06T14:35:56Z</time>
      </trkpt>
      <trkpt lat="47.70041" lon="-3.04023">
        <ele>36.4</ele>
        <time>2020-06-06T14:35:57Z</time>
      </trkpt>
      <trkpt lat="47.70046" lon="-3.04027">
        <ele>36.2</ele>
        <time>2020-06-06T14:35:58Z</time>
      </trkpt>
      <trkpt lat="47.70051" lon="-3.04032">
        <ele>36.1</ele>
        <time>2020-06-06T14:35:59Z</time>
      </trkpt>
      <trkpt lat="47.70057" lon="-3.04037">
        <ele>35.9</ele>
        <time>2020-06-06T14:36:00Z</time>
      </trkpt>
      <trkpt lat="47.70062" lon="-3.04041">
        <ele>35.7</ele>
        <time>2020-06-06T14:36:01Z</time>
      </trkpt>
      <trkpt lat="47.70067" lon="-3.04046">
        <ele>35.5</ele>
        <time>2020-06-06T14:36:02Z</time>
      </trkpt>
      <trkpt lat="47.70073" lon="-3.04052">
        <ele>35.2</ele>
        <time>2020-06-06T14:36:03Z</time>
      </trkpt>
      <trkpt lat="47.70079" lon="-3.04058">
        <ele>35</ele>
        <time>2020-06-06T14:36:04Z</time>
      </trkpt>
      <trkpt lat="47.70085" lon="-3.04064">
        <ele>34.7</ele>
        <time>2020-06-06T14:36:05Z</time>
      </trkpt>
      <trkpt lat="47.70091" lon="-3.0407">
        <ele>34.4</ele>
        <time>2020-06-06T14:36:06Z</time>
      </trkpt>
      <trkpt lat="47.70098" lon="-3.04076">
        <ele>34.2</ele>
        <time>2020-06-06T14:36:07Z</time>
      </trkpt>
      <trkpt lat="47.70104" lon="-3.04082">
        <ele>34</ele>
        <time>2020-06-06T14:36:08Z</time>
      </trkpt>
      <trkpt lat="47.70109" lon="-3.04088">
        <ele>33.8</ele>
        <time>2020-06-06T14:36:09Z</time>
      </trkpt>
      <trkpt lat="47.70116" lon="-3.04094">
        <ele>33.6</ele>
        <time>2020-06-06T14:36:10Z</time>
      </trkpt>
      <trkpt lat="47.70122" lon="-3.04099">
        <ele>33.3</ele>
        <time>2020-06-06T14:36:11Z</time>
      </trkpt>
      <trkpt lat="47.70127" lon="-3.04104">
        <ele>33</ele>
        <time>2020-06-06T14:36:12Z</time>
      </trkpt>
      <trkpt lat="47.70133" lon="-3.04109">
        <ele>32.8</ele>
        <time>2020-06-06T14:36:13Z</time>
      </trkpt>
      <trkpt lat="47.70139" lon="-3.04116">
        <ele>32.5</ele>
        <time>2020-06-06T14:36:14Z</time>
      </trkpt>
      <trkpt lat="47.70145" lon="-3.04122">
        <ele>32.3</ele>
        <time>2020-06-06T14:36:15Z</time>
      </trkpt>
      <trkpt lat="47.70151" lon="-3.04129">
        <ele>32.1</ele>
        <time>2020-06-06T14:36:16Z</time>
      </trkpt>
      <trkpt lat="47.70157" lon="-3.04135">
        <ele>31.9</ele>
        <time>2020-06-06T14:36:17Z</time>
      </trkpt>
      <trkpt lat="47.70163" lon="-3.04141">
        <ele>31.7</ele>
        <time>2020-06-06T14:36:18Z</time>
      </trkpt>
      <trkpt lat="47.70169" lon="-3.04148">
        <ele>31.5</ele>
        <time>2020-06-06T14:36:19Z</time>
      </trkpt>
      <trkpt lat="47.70174" lon="-3.04155">
        <ele>31.1</ele>
        <time>2020-06-06T14:36:20Z</time>
      </trkpt>
      <trkpt lat="47.7018" lon="-3.04161">
        <ele>30.8</ele>
        <time>2020-06-06T14:36:21Z</time>
      </trkpt>
      <trkpt lat="47.70186" lon="-3.04169">
        <ele>30.5</ele>
        <time>2020-06-06T14:36:22Z</time>
      </trkpt>
      <trkpt lat="47.70192" lon="-3.04176">
        <ele>30.2</ele>
        <time>2020-06-06T14:36:23Z</time>
      </trkpt>
      <trkpt lat="47.70197" lon="-3.04183">
        <ele>29.9</ele>
        <time>2020-06-06T14:36:24Z</time>
      </trkpt>
      <trkpt lat="47.70203" lon="-3.0419">
        <ele>29.6</ele>
        <time>2020-06-06T14:36:25Z</time>
      </trkpt>
      <trkpt lat="47.7021" lon="-3.04196">
        <ele>29.3</ele>
        <time>2020-06-06T14:36:26Z</time>
      </trkpt>
      <trkpt lat="47.70216" lon="-3.04203">
        <ele>29</ele>
        <time>2020-06-06T14:36:27Z</time>
      </trkpt>
      <trkpt lat="47.70222" lon="-3.0421">
        <ele>28.7</ele>
        <time>2020-06-06T14:36:28Z</time>
      </trkpt>
      <trkpt lat="47.70228" lon="-3.04216">
        <ele>28.4</ele>
        <time>2020-06-06T14:36:29Z</time>
      </trkpt>
      <trkpt lat="47.70234" lon="-3.04223">
        <ele>28.2</ele>
        <time>2020-06-06T14:36:30Z</time>
      </trkpt>
      <trkpt lat="47.7024" lon="-3.0423">
        <ele>27.9</ele>
        <time>2020-06-06T14:36:31Z</time>
      </trkpt>
      <trkpt lat="47.70246" lon="-3.04237">
        <ele>27.7</ele>
        <time>2020-06-06T14:36:32Z</time>
      </trkpt>
      <trkpt lat="47.70252" lon="-3.04244">
        <ele>27.6</ele>
        <time>2020-06-06T14:36:33Z</time>
      </trkpt>
      <trkpt lat="47.70258" lon="-3.04251">
        <ele>27.5</ele>
        <time>2020-06-06T14:36:34Z</time>
      </trkpt>
      <trkpt lat="47.70264" lon="-3.04258">
        <ele>27.4</ele>
        <time>2020-06-06T14:36:35Z</time>
      </trkpt>
      <trkpt lat="47.70269" lon="-3.04265">
        <ele>27.3</ele>
        <time>2020-06-06T14:36:36Z</time>
      </trkpt>
      <trkpt lat="47.70275" lon="-3.04271">
        <ele>27.3</ele>
        <time>2020-06-06T14:36:37Z</time>
      </trkpt>
      <trkpt lat="47.70281" lon="-3.04278">
        <ele>27.3</ele>
        <time>2020-06-06T14:36:38Z</time>
      </trkpt>
      <trkpt lat="47.70287" lon="-3.04284">
        <ele>27.2</ele>
        <time>2020-06-06T14:36:39Z</time>
      </trkpt>
      <trkpt lat="47.70292" lon="-3.0429">
        <ele>27.2</ele>
        <time>2020-06-06T14:36:40Z</time>
      </trkpt>
      <trkpt lat="47.70297" lon="-3.04296">
        <ele>27.1</ele>
        <time>2020-06-06T14:36:41Z</time>
      </trkpt>
      <trkpt lat="47.70302" lon="-3.04302">
        <ele>27</ele>
        <time>2020-06-06T14:36:42Z</time>
      </trkpt>
      <trkpt lat="47.70307" lon="-3.04308">
        <ele>27</ele>
        <time>2020-06-06T14:36:43Z</time>
      </trkpt>
      <trkpt lat="47.70312" lon="-3.04314">
        <ele>26.9</ele>
        <time>2020-06-06T14:36:44Z</time>
      </trkpt>
      <trkpt lat="47.70317" lon="-3.04319">
        <ele>26.9</ele>
        <time>2020-06-06T14:36:45Z</time>
      </trkpt>
      <trkpt lat="47.70322" lon="-3.04324">
        <ele>26.9</ele>
        <time>2020-06-06T14:36:46Z</time>
      </trkpt>
      <trkpt lat="47.70327" lon="-3.0433">
        <ele>26.9</ele>
        <time>2020-06-06T14:36:47Z</time>
      </trkpt>
      <trkpt lat="47.70332" lon="-3.04335">
        <ele>26.8</ele>
        <time>2020-06-06T14:36:48Z</time>
      </trkpt>
      <trkpt lat="47.70337" lon="-3.04341">
        <ele>26.8</ele>
        <time>2020-06-06T14:36:49Z</time>
      </trkpt>
      <trkpt lat="47.70343" lon="-3.04347">
        <ele>26.8</ele>
        <time>2020-06-06T14:36:50Z</time>
      </trkpt>
      <trkpt lat="47.70348" lon="-3.04352">
        <ele>26.7</ele>
        <time>2020-06-06T14:36:51Z</time>
      </trkpt>
      <trkpt lat="47.70353" lon="-3.04358">
        <ele>26.6</ele>
        <time>2020-06-06T14:36:52Z</time>
      </trkpt>
      <trkpt lat="47.70358" lon="-3.04364">
        <ele>26.6</ele>
        <time>2020-06-06T14:36:53Z</time>
      </trkpt>
      <trkpt lat="47.70363" lon="-3.04369">
        <ele>26.5</ele>
        <time>2020-06-06T14:36:54Z</time>
      </trkpt>
      <trkpt lat="47.70367" lon="-3.04375">
        <ele>26.4</ele>
        <time>2020-06-06T14:36:55Z</time>
      </trkpt>
      <trkpt lat="47.70372" lon="-3.04381">
        <ele>26.4</ele>
        <time>2020-06-06T14:36:56Z</time>
      </trkpt>
      <trkpt lat="47.70377" lon="-3.04387">
        <ele>26.3</ele>
        <time>2020-06-06T14:36:57Z</time>
      </trkpt>
      <trkpt lat="47.70382" lon="-3.04393">
        <ele>26.3</ele>
        <time>2020-06-06T14:36:58Z</time>
      </trkpt>
      <trkpt lat="47.70387" lon="-3.04399">
        <ele>26.3</ele>
        <time>2020-06-06T14:36:59Z</time>
      </trkpt>
      <trkpt lat="47.70391" lon="-3.04404">
        <ele>26.2</ele>
        <time>2020-06-06T14:37:00Z</time>
      </trkpt>
      <trkpt lat="47.70397" lon="-3.0441">
        <ele>26.2</ele>
        <time>2020-06-06T14:37:01Z</time>
      </trkpt>
      <trkpt lat="47.70402" lon="-3.04416">
        <ele>26.2</ele>
        <time>2020-06-06T14:37:02Z</time>
      </trkpt>
      <trkpt lat="47.70406" lon="-3.04421">
        <ele>26.2</ele>
        <time>2020-06-06T14:37:03Z</time>
      </trkpt>
      <trkpt lat="47.70412" lon="-3.04426">
        <ele>26.2</ele>
        <time>2020-06-06T14:37:04Z</time>
      </trkpt>
      <trkpt lat="47.70417" lon="-3.04432">
        <ele>26.2</ele>
        <time>2020-06-06T14:37:05Z</time>
      </trkpt>
      <trkpt lat="47.70422" lon="-3.04437">
        <ele>26.2</ele>
        <time>2020-06-06T14:37:06Z</time>
      </trkpt>
      <trkpt lat="47.70428" lon="-3.04442">
        <ele>26.1</ele>
        <time>2020-06-06T14:37:07Z</time>
      </trkpt>
      <trkpt lat="47.70434" lon="-3.04446">
        <ele>26</ele>
        <time>2020-06-06T14:37:08Z</time>
      </trkpt>
      <trkpt lat="47.7044" lon="-3.04451">
        <ele>26</ele>
        <time>2020-06-06T14:37:09Z</time>
      </trkpt>
      <trkpt lat="47.70447" lon="-3.04455">
        <ele>26</ele>
        <time>2020-06-06T14:37:10Z</time>
      </trkpt>
      <trkpt lat="47.70453" lon="-3.04459">
        <ele>26</ele>
        <time>2020-06-06T14:37:11Z</time>
      </trkpt>
      <trkpt lat="47.7046" lon="-3.04462">
        <ele>26</ele>
        <time>2020-06-06T14:37:12Z</time>
      </trkpt>
      <trkpt lat="47.70465" lon="-3.04463">
        <ele>26</ele>
        <time>2020-06-06T14:37:13Z</time>
      </trkpt>
      <trkpt lat="47.70472" lon="-3.04465">
        <ele>26</ele>
        <time>2020-06-06T14:37:14Z</time>
      </trkpt>
      <trkpt lat="47.70478" lon="-3.04466">
        <ele>26</ele>
        <time>2020-06-06T14:37:15Z</time>
      </trkpt>
      <trkpt lat="47.70484" lon="-3.04467">
        <ele>26</ele>
        <time>2020-06-06T14:37:16Z</time>
      </trkpt>
      <trkpt lat="47.70491" lon="-3.04468">
        <ele>26.1</ele>
        <time>2020-06-06T14:37:17Z</time>
      </trkpt>
      <trkpt lat="47.70497" lon="-3.04469">
        <ele>26.1</ele>
        <time>2020-06-06T14:37:18Z</time>
      </trkpt>
      <trkpt lat="47.70503" lon="-3.0447">
        <ele>26.2</ele>
        <time>2020-06-06T14:37:19Z</time>
      </trkpt>
      <trkpt lat="47.70509" lon="-3.0447">
        <ele>26.2</ele>
        <time>2020-06-06T14:37:20Z</time>
      </trkpt>
      <trkpt lat="47.70516" lon="-3.04472">
        <ele>26.3</ele>
        <time>2020-06-06T14:37:21Z</time>
      </trkpt>
      <trkpt lat="47.70523" lon="-3.04472">
        <ele>26.4</ele>
        <time>2020-06-06T14:37:22Z</time>
      </trkpt>
      <trkpt lat="47.70528" lon="-3.04472">
        <ele>26.4</ele>
        <time>2020-06-06T14:37:23Z</time>
      </trkpt>
      <trkpt lat="47.70533" lon="-3.04471">
        <ele>26.5</ele>
        <time>2020-06-06T14:37:24Z</time>
      </trkpt>
      <trkpt lat="47.70538" lon="-3.0447">
        <ele>26.5</ele>
        <time>2020-06-06T14:37:25Z</time>
      </trkpt>
      <trkpt lat="47.70543" lon="-3.0447">
        <ele>26.6</ele>
        <time>2020-06-06T14:37:26Z</time>
      </trkpt>
      <trkpt lat="47.70549" lon="-3.0447">
        <ele>26.7</ele>
        <time>2020-06-06T14:37:27Z</time>
      </trkpt>
      <trkpt lat="47.70554" lon="-3.04471">
        <ele>26.8</ele>
        <time>2020-06-06T14:37:28Z</time>
      </trkpt>
      <trkpt lat="47.70559" lon="-3.04471">
        <ele>26.9</ele>
        <time>2020-06-06T14:37:29Z</time>
      </trkpt>
      <trkpt lat="47.70565" lon="-3.04473">
        <ele>27</ele>
        <time>2020-06-06T14:37:30Z</time>
      </trkpt>
      <trkpt lat="47.7057" lon="-3.04475">
        <ele>27.1</ele>
        <time>2020-06-06T14:37:31Z</time>
      </trkpt>
      <trkpt lat="47.70575" lon="-3.04476">
        <ele>27.3</ele>
        <time>2020-06-06T14:37:32Z</time>
      </trkpt>
      <trkpt lat="47.7058" lon="-3.04478">
        <ele>27.4</ele>
        <time>2020-06-06T14:37:33Z</time>
      </trkpt>
      <trkpt lat="47.70585" lon="-3.0448">
        <ele>27.5</ele>
        <time>2020-06-06T14:37:34Z</time>
      </trkpt>
      <trkpt lat="47.7059" lon="-3.04483">
        <ele>27.6</ele>
        <time>2020-06-06T14:37:35Z</time>
      </trkpt>
      <trkpt lat="47.70594" lon="-3.04486">
        <ele>27.7</ele>
        <time>2020-06-06T14:37:36Z</time>
      </trkpt>
      <trkpt lat="47.706" lon="-3.04489">
        <ele>27.9</ele>
        <time>2020-06-06T14:37:37Z</time>
      </trkpt>
      <trkpt lat="47.70606" lon="-3.04493">
        <ele>28.1</ele>
        <time>2020-06-06T14:37:38Z</time>
      </trkpt>
      <trkpt lat="47.7061" lon="-3.04496">
        <ele>28.2</ele>
        <time>2020-06-06T14:37:39Z</time>
      </trkpt>
      <trkpt lat="47.70614" lon="-3.045">
        <ele>28.4</ele>
        <time>2020-06-06T14:37:40Z</time>
      </trkpt>
      <trkpt lat="47.70618" lon="-3.04504">
        <ele>28.6</ele>
        <time>2020-06-06T14:37:41Z</time>
      </trkpt>
      <trkpt lat="47.70621" lon="-3.04509">
        <ele>28.9</ele>
        <time>2020-06-06T14:37:42Z</time>
      </trkpt>
      <trkpt lat="47.70624" lon="-3.04515">
        <ele>29.1</ele>
        <time>2020-06-06T14:37:43Z</time>
      </trkpt>
      <trkpt lat="47.70628" lon="-3.04522">
        <ele>29.3</ele>
        <time>2020-06-06T14:37:44Z</time>
      </trkpt>
      <trkpt lat="47.70631" lon="-3.04526">
        <ele>29.5</ele>
        <time>2020-06-06T14:37:45Z</time>
      </trkpt>
      <trkpt lat="47.70635" lon="-3.04531">
        <ele>29.7</ele>
        <time>2020-06-06T14:37:46Z</time>
      </trkpt>
      <trkpt lat="47.70638" lon="-3.04536">
        <ele>29.9</ele>
        <time>2020-06-06T14:37:47Z</time>
      </trkpt>
      <trkpt lat="47.7064" lon="-3.04541">
        <ele>30</ele>
        <time>2020-06-06T14:37:48Z</time>
      </trkpt>
      <trkpt lat="47.70642" lon="-3.04546">
        <ele>30.2</ele>
        <time>2020-06-06T14:37:49Z</time>
      </trkpt>
      <trkpt lat="47.70645" lon="-3.04552">
        <ele>30.4</ele>
        <time>2020-06-06T14:37:50Z</time>
      </trkpt>
      <trkpt lat="47.70647" lon="-3.04557">
        <ele>30.6</ele>
        <time>2020-06-06T14:37:51Z</time>
      </trkpt>
      <trkpt lat="47.7065" lon="-3.04562">
        <ele>30.7</ele>
        <time>2020-06-06T14:37:52Z</time>
      </trkpt>
      <trkpt lat="47.70652" lon="-3.04567">
        <ele>30.9</ele>
        <time>2020-06-06T14:37:53Z</time>
      </trkpt>
      <trkpt lat="47.70654" lon="-3.04572">
        <ele>31.1</ele>
        <time>2020-06-06T14:37:54Z</time>
      </trkpt>
      <trkpt lat="47.70656" lon="-3.04577">
        <ele>31.3</ele>
        <time>2020-06-06T14:37:55Z</time>
      </trkpt>
      <trkpt lat="47.70657" lon="-3.04585">
        <ele>31.6</ele>
        <time>2020-06-06T14:37:56Z</time>
      </trkpt>
      <trkpt lat="47.70658" lon="-3.04592">
        <ele>31.8</ele>
        <time>2020-06-06T14:37:57Z</time>
      </trkpt>
      <trkpt lat="47.7066" lon="-3.04598">
        <ele>32</ele>
        <time>2020-06-06T14:37:58Z</time>
      </trkpt>
      <trkpt lat="47.70661" lon="-3.04603">
        <ele>32.2</ele>
        <time>2020-06-06T14:37:59Z</time>
      </trkpt>
      <trkpt lat="47.70662" lon="-3.04608">
        <ele>32.4</ele>
        <time>2020-06-06T14:38:00Z</time>
      </trkpt>
      <trkpt lat="47.70662" lon="-3.04614">
        <ele>32.6</ele>
        <time>2020-06-06T14:38:01Z</time>
      </trkpt>
      <trkpt lat="47.70663" lon="-3.04619">
        <ele>32.8</ele>
        <time>2020-06-06T14:38:02Z</time>
      </trkpt>
      <trkpt lat="47.70664" lon="-3.04625">
        <ele>33</ele>
        <time>2020-06-06T14:38:03Z</time>
      </trkpt>
      <trkpt lat="47.70664" lon="-3.0463">
        <ele>33.1</ele>
        <time>2020-06-06T14:38:04Z</time>
      </trkpt>
      <trkpt lat="47.70665" lon="-3.04636">
        <ele>33.3</ele>
        <time>2020-06-06T14:38:05Z</time>
      </trkpt>
      <trkpt lat="47.70665" lon="-3.04643">
        <ele>33.5</ele>
        <time>2020-06-06T14:38:06Z</time>
      </trkpt>
      <trkpt lat="47.70666" lon="-3.0465">
        <ele>33.6</ele>
        <time>2020-06-06T14:38:07Z</time>
      </trkpt>
      <trkpt lat="47.70666" lon="-3.04655">
        <ele>33.8</ele>
        <time>2020-06-06T14:38:08Z</time>
      </trkpt>
      <trkpt lat="47.70666" lon="-3.04661">
        <ele>34.1</ele>
        <time>2020-06-06T14:38:09Z</time>
      </trkpt>
      <trkpt lat="47.70666" lon="-3.04668">
        <ele>34.5</ele>
        <time>2020-06-06T14:38:10Z</time>
      </trkpt>
      <trkpt lat="47.70666" lon="-3.04675">
        <ele>34.9</ele>
        <time>2020-06-06T14:38:11Z</time>
      </trkpt>
      <trkpt lat="47.70665" lon="-3.04681">
        <ele>35.2</ele>
        <time>2020-06-06T14:38:12Z</time>
      </trkpt>
      <trkpt lat="47.70664" lon="-3.04688">
        <ele>35.7</ele>
        <time>2020-06-06T14:38:13Z</time>
      </trkpt>
      <trkpt lat="47.70664" lon="-3.04696">
        <ele>35.6</ele>
        <time>2020-06-06T14:38:14Z</time>
      </trkpt>
      <trkpt lat="47.70663" lon="-3.04703">
        <ele>35.6</ele>
        <time>2020-06-06T14:38:15Z</time>
      </trkpt>
      <trkpt lat="47.70663" lon="-3.0471">
        <ele>35.6</ele>
        <time>2020-06-06T14:38:16Z</time>
      </trkpt>
      <trkpt lat="47.70662" lon="-3.04717">
        <ele>35.7</ele>
        <time>2020-06-06T14:38:17Z</time>
      </trkpt>
      <trkpt lat="47.70661" lon="-3.04724">
        <ele>35.7</ele>
        <time>2020-06-06T14:38:18Z</time>
      </trkpt>
      <trkpt lat="47.7066" lon="-3.0473">
        <ele>35.7</ele>
        <time>2020-06-06T14:38:19Z</time>
      </trkpt>
      <trkpt lat="47.70659" lon="-3.04737">
        <ele>35.7</ele>
        <time>2020-06-06T14:38:20Z</time>
      </trkpt>
      <trkpt lat="47.70657" lon="-3.04746">
        <ele>35.7</ele>
        <time>2020-06-06T14:38:21Z</time>
      </trkpt>
      <trkpt lat="47.70655" lon="-3.04752">
        <ele>35.8</ele>
        <time>2020-06-06T14:38:22Z</time>
      </trkpt>
      <trkpt lat="47.70653" lon="-3.04759">
        <ele>35.8</ele>
        <time>2020-06-06T14:38:23Z</time>
      </trkpt>
      <trkpt lat="47.70651" lon="-3.04766">
        <ele>35.8</ele>
        <time>2020-06-06T14:38:24Z</time>
      </trkpt>
      <trkpt lat="47.7065" lon="-3.04772">
        <ele>35.8</ele>
        <time>2020-06-06T14:38:25Z</time>
      </trkpt>
      <trkpt lat="47.70648" lon="-3.04778">
        <ele>35.8</ele>
        <time>2020-06-06T14:38:26Z</time>
      </trkpt>
      <trkpt lat="47.70647" lon="-3.04785">
        <ele>35.8</ele>
        <time>2020-06-06T14:38:27Z</time>
      </trkpt>
      <trkpt lat="47.70645" lon="-3.04791">
        <ele>35.8</ele>
        <time>2020-06-06T14:38:28Z</time>
      </trkpt>
      <trkpt lat="47.70643" lon="-3.04799">
        <ele>35.8</ele>
        <time>2020-06-06T14:38:29Z</time>
      </trkpt>
      <trkpt lat="47.70641" lon="-3.04804">
        <ele>35.8</ele>
        <time>2020-06-06T14:38:30Z</time>
      </trkpt>
      <trkpt lat="47.70639" lon="-3.0481">
        <ele>35.7</ele>
        <time>2020-06-06T14:38:31Z</time>
      </trkpt>
      <trkpt lat="47.70638" lon="-3.04816">
        <ele>35.7</ele>
        <time>2020-06-06T14:38:32Z</time>
      </trkpt>
      <trkpt lat="47.70636" lon="-3.04822">
        <ele>35.6</ele>
        <time>2020-06-06T14:38:33Z</time>
      </trkpt>
      <trkpt lat="47.70635" lon="-3.04828">
        <ele>35.6</ele>
        <time>2020-06-06T14:38:34Z</time>
      </trkpt>
      <trkpt lat="47.70633" lon="-3.04835">
        <ele>35.6</ele>
        <time>2020-06-06T14:38:35Z</time>
      </trkpt>
      <trkpt lat="47.70632" lon="-3.04845">
        <ele>35.5</ele>
        <time>2020-06-06T14:38:36Z</time>
      </trkpt>
      <trkpt lat="47.70631" lon="-3.04855">
        <ele>35.4</ele>
        <time>2020-06-06T14:38:37Z</time>
      </trkpt>
      <trkpt lat="47.70631" lon="-3.04863">
        <ele>35.3</ele>
        <time>2020-06-06T14:38:38Z</time>
      </trkpt>
      <trkpt lat="47.7063" lon="-3.04872">
        <ele>35.1</ele>
        <time>2020-06-06T14:38:39Z</time>
      </trkpt>
      <trkpt lat="47.70629" lon="-3.04881">
        <ele>35</ele>
        <time>2020-06-06T14:38:40Z</time>
      </trkpt>
      <trkpt lat="47.70629" lon="-3.0489">
        <ele>34.9</ele>
        <time>2020-06-06T14:38:41Z</time>
      </trkpt>
      <trkpt lat="47.7063" lon="-3.04898">
        <ele>34.8</ele>
        <time>2020-06-06T14:38:42Z</time>
      </trkpt>
      <trkpt lat="47.7063" lon="-3.04906">
        <ele>34.6</ele>
        <time>2020-06-06T14:38:43Z</time>
      </trkpt>
      <trkpt lat="47.7063" lon="-3.04915">
        <ele>34.2</ele>
        <time>2020-06-06T14:38:44Z</time>
      </trkpt>
      <trkpt lat="47.70631" lon="-3.04923">
        <ele>33.9</ele>
        <time>2020-06-06T14:38:45Z</time>
      </trkpt>
      <trkpt lat="47.70632" lon="-3.04933">
        <ele>33.6</ele>
        <time>2020-06-06T14:38:46Z</time>
      </trkpt>
      <trkpt lat="47.70633" lon="-3.04941">
        <ele>33.3</ele>
        <time>2020-06-06T14:38:47Z</time>
      </trkpt>
      <trkpt lat="47.70635" lon="-3.0495">
        <ele>32.9</ele>
        <time>2020-06-06T14:38:48Z</time>
      </trkpt>
      <trkpt lat="47.70636" lon="-3.04959">
        <ele>32.6</ele>
        <time>2020-06-06T14:38:49Z</time>
      </trkpt>
      <trkpt lat="47.70638" lon="-3.04967">
        <ele>32.3</ele>
        <time>2020-06-06T14:38:50Z</time>
      </trkpt>
      <trkpt lat="47.70641" lon="-3.04976">
        <ele>31.9</ele>
        <time>2020-06-06T14:38:51Z</time>
      </trkpt>
      <trkpt lat="47.70645" lon="-3.04985">
        <ele>31.4</ele>
        <time>2020-06-06T14:38:52Z</time>
      </trkpt>
      <trkpt lat="47.70648" lon="-3.04993">
        <ele>31.1</ele>
        <time>2020-06-06T14:38:53Z</time>
      </trkpt>
      <trkpt lat="47.70652" lon="-3.05001">
        <ele>30.7</ele>
        <time>2020-06-06T14:38:54Z</time>
      </trkpt>
      <trkpt lat="47.70657" lon="-3.05009">
        <ele>30.7</ele>
        <time>2020-06-06T14:38:55Z</time>
      </trkpt>
      <trkpt lat="47.70663" lon="-3.05017">
        <ele>30.5</ele>
        <time>2020-06-06T14:38:56Z</time>
      </trkpt>
      <trkpt lat="47.70667" lon="-3.05024">
        <ele>30.3</ele>
        <time>2020-06-06T14:38:57Z</time>
      </trkpt>
      <trkpt lat="47.70673" lon="-3.05032">
        <ele>29.9</ele>
        <time>2020-06-06T14:38:58Z</time>
      </trkpt>
      <trkpt lat="47.70678" lon="-3.05037">
        <ele>29.6</ele>
        <time>2020-06-06T14:38:59Z</time>
      </trkpt>
      <trkpt lat="47.70684" lon="-3.05042">
        <ele>29.4</ele>
        <time>2020-06-06T14:39:00Z</time>
      </trkpt>
      <trkpt lat="47.7069" lon="-3.05046">
        <ele>29.1</ele>
        <time>2020-06-06T14:39:01Z</time>
      </trkpt>
      <trkpt lat="47.70696" lon="-3.0505">
        <ele>28.9</ele>
        <time>2020-06-06T14:39:02Z</time>
      </trkpt>
      <trkpt lat="47.70702" lon="-3.05054">
        <ele>28.6</ele>
        <time>2020-06-06T14:39:03Z</time>
      </trkpt>
      <trkpt lat="47.70709" lon="-3.05057">
        <ele>28.4</ele>
        <time>2020-06-06T14:39:04Z</time>
      </trkpt>
      <trkpt lat="47.70716" lon="-3.05061">
        <ele>28.1</ele>
        <time>2020-06-06T14:39:05Z</time>
      </trkpt>
      <trkpt lat="47.70723" lon="-3.05064">
        <ele>27.9</ele>
        <time>2020-06-06T14:39:06Z</time>
      </trkpt>
      <trkpt lat="47.7073" lon="-3.05066">
        <ele>27.8</ele>
        <time>2020-06-06T14:39:07Z</time>
      </trkpt>
      <trkpt lat="47.70736" lon="-3.05067">
        <ele>27.7</ele>
        <time>2020-06-06T14:39:08Z</time>
      </trkpt>
      <trkpt lat="47.70742" lon="-3.05068">
        <ele>27.6</ele>
        <time>2020-06-06T14:39:09Z</time>
      </trkpt>
      <trkpt lat="47.70748" lon="-3.05069">
        <ele>27.5</ele>
        <time>2020-06-06T14:39:10Z</time>
      </trkpt>
      <trkpt lat="47.70754" lon="-3.0507">
        <ele>27.4</ele>
        <time>2020-06-06T14:39:11Z</time>
      </trkpt>
      <trkpt lat="47.70759" lon="-3.05069">
        <ele>27.3</ele>
        <time>2020-06-06T14:39:12Z</time>
      </trkpt>
      <trkpt lat="47.70764" lon="-3.0507">
        <ele>27.3</ele>
        <time>2020-06-06T14:39:13Z</time>
      </trkpt>
      <trkpt lat="47.70769" lon="-3.0507">
        <ele>27.2</ele>
        <time>2020-06-06T14:39:14Z</time>
      </trkpt>
      <trkpt lat="47.70775" lon="-3.0507">
        <ele>27.2</ele>
        <time>2020-06-06T14:39:15Z</time>
      </trkpt>
      <trkpt lat="47.70781" lon="-3.0507">
        <ele>27.2</ele>
        <time>2020-06-06T14:39:16Z</time>
      </trkpt>
      <trkpt lat="47.70788" lon="-3.05071">
        <ele>27.3</ele>
        <time>2020-06-06T14:39:17Z</time>
      </trkpt>
      <trkpt lat="47.70793" lon="-3.05071">
        <ele>27.3</ele>
        <time>2020-06-06T14:39:18Z</time>
      </trkpt>
      <trkpt lat="47.70797" lon="-3.05071">
        <ele>27.4</ele>
        <time>2020-06-06T14:39:19Z</time>
      </trkpt>
      <trkpt lat="47.70803" lon="-3.05072">
        <ele>27.4</ele>
        <time>2020-06-06T14:39:20Z</time>
      </trkpt>
      <trkpt lat="47.70808" lon="-3.05072">
        <ele>27.5</ele>
        <time>2020-06-06T14:39:21Z</time>
      </trkpt>
      <trkpt lat="47.70814" lon="-3.05074">
        <ele>27.5</ele>
        <time>2020-06-06T14:39:22Z</time>
      </trkpt>
      <trkpt lat="47.70819" lon="-3.05075">
        <ele>27.6</ele>
        <time>2020-06-06T14:39:23Z</time>
      </trkpt>
      <trkpt lat="47.70825" lon="-3.05076">
        <ele>27.6</ele>
        <time>2020-06-06T14:39:24Z</time>
      </trkpt>
      <trkpt lat="47.7083" lon="-3.05077">
        <ele>27.7</ele>
        <time>2020-06-06T14:39:25Z</time>
      </trkpt>
      <trkpt lat="47.70836" lon="-3.05078">
        <ele>27.7</ele>
        <time>2020-06-06T14:39:26Z</time>
      </trkpt>
      <trkpt lat="47.7084" lon="-3.0508">
        <ele>27.7</ele>
        <time>2020-06-06T14:39:27Z</time>
      </trkpt>
      <trkpt lat="47.70844" lon="-3.05082">
        <ele>27.8</ele>
        <time>2020-06-06T14:39:28Z</time>
      </trkpt>
      <trkpt lat="47.70849" lon="-3.05084">
        <ele>27.8</ele>
        <time>2020-06-06T14:39:29Z</time>
      </trkpt>
      <trkpt lat="47.70853" lon="-3.05087">
        <ele>27.8</ele>
        <time>2020-06-06T14:39:30Z</time>
      </trkpt>
      <trkpt lat="47.70858" lon="-3.05091">
        <ele>27.9</ele>
        <time>2020-06-06T14:39:31Z</time>
      </trkpt>
      <trkpt lat="47.70863" lon="-3.05094">
        <ele>27.9</ele>
        <time>2020-06-06T14:39:32Z</time>
      </trkpt>
      <trkpt lat="47.70868" lon="-3.05097">
        <ele>27.9</ele>
        <time>2020-06-06T14:39:33Z</time>
      </trkpt>
      <trkpt lat="47.70872" lon="-3.05101">
        <ele>27.9</ele>
        <time>2020-06-06T14:39:34Z</time>
      </trkpt>
      <trkpt lat="47.70877" lon="-3.05105">
        <ele>28</ele>
        <time>2020-06-06T14:39:35Z</time>
      </trkpt>
      <trkpt lat="47.70881" lon="-3.05109">
        <ele>28</ele>
        <time>2020-06-06T14:39:36Z</time>
      </trkpt>
      <trkpt lat="47.70885" lon="-3.05113">
        <ele>28</ele>
        <time>2020-06-06T14:39:37Z</time>
      </trkpt>
      <trkpt lat="47.70889" lon="-3.05118">
        <ele>28.1</ele>
        <time>2020-06-06T14:39:38Z</time>
      </trkpt>
      <trkpt lat="47.70893" lon="-3.05122">
        <ele>28.1</ele>
        <time>2020-06-06T14:39:39Z</time>
      </trkpt>
      <trkpt lat="47.70897" lon="-3.05127">
        <ele>28.2</ele>
        <time>2020-06-06T14:39:40Z</time>
      </trkpt>
      <trkpt lat="47.70901" lon="-3.05131">
        <ele>28.2</ele>
        <time>2020-06-06T14:39:41Z</time>
      </trkpt>
      <trkpt lat="47.70906" lon="-3.05136">
        <ele>28.3</ele>
        <time>2020-06-06T14:39:42Z</time>
      </trkpt>
      <trkpt lat="47.7091" lon="-3.05141">
        <ele>28.3</ele>
        <time>2020-06-06T14:39:43Z</time>
      </trkpt>
      <trkpt lat="47.70915" lon="-3.05147">
        <ele>28.4</ele>
        <time>2020-06-06T14:39:44Z</time>
      </trkpt>
      <trkpt lat="47.70919" lon="-3.05153">
        <ele>28.5</ele>
        <time>2020-06-06T14:39:45Z</time>
      </trkpt>
      <trkpt lat="47.70924" lon="-3.05159">
        <ele>28.6</ele>
        <time>2020-06-06T14:39:46Z</time>
      </trkpt>
      <trkpt lat="47.70929" lon="-3.05165">
        <ele>28.6</ele>
        <time>2020-06-06T14:39:47Z</time>
      </trkpt>
      <trkpt lat="47.70933" lon="-3.0517">
        <ele>28.7</ele>
        <time>2020-06-06T14:39:48Z</time>
      </trkpt>
      <trkpt lat="47.70938" lon="-3.05176">
        <ele>28.8</ele>
        <time>2020-06-06T14:39:49Z</time>
      </trkpt>
      <trkpt lat="47.70943" lon="-3.05182">
        <ele>29</ele>
        <time>2020-06-06T14:39:50Z</time>
      </trkpt>
      <trkpt lat="47.70947" lon="-3.05188">
        <ele>29.2</ele>
        <time>2020-06-06T14:39:51Z</time>
      </trkpt>
      <trkpt lat="47.70952" lon="-3.05193">
        <ele>29.4</ele>
        <time>2020-06-06T14:39:52Z</time>
      </trkpt>
      <trkpt lat="47.70956" lon="-3.05198">
        <ele>29.6</ele>
        <time>2020-06-06T14:39:53Z</time>
      </trkpt>
      <trkpt lat="47.70961" lon="-3.05203">
        <ele>29.7</ele>
        <time>2020-06-06T14:39:54Z</time>
      </trkpt>
      <trkpt lat="47.70965" lon="-3.05208">
        <ele>29.9</ele>
        <time>2020-06-06T14:39:55Z</time>
      </trkpt>
      <trkpt lat="47.70969" lon="-3.05215">
        <ele>30</ele>
        <time>2020-06-06T14:39:56Z</time>
      </trkpt>
      <trkpt lat="47.70973" lon="-3.0522">
        <ele>30.2</ele>
        <time>2020-06-06T14:39:57Z</time>
      </trkpt>
      <trkpt lat="47.70978" lon="-3.05226">
        <ele>30.4</ele>
        <time>2020-06-06T14:39:58Z</time>
      </trkpt>
      <trkpt lat="47.70982" lon="-3.05231">
        <ele>30.5</ele>
        <time>2020-06-06T14:39:59Z</time>
      </trkpt>
      <trkpt lat="47.70988" lon="-3.05236">
        <ele>30.7</ele>
        <time>2020-06-06T14:40:00Z</time>
      </trkpt>
      <trkpt lat="47.70992" lon="-3.05241">
        <ele>30.9</ele>
        <time>2020-06-06T14:40:01Z</time>
      </trkpt>
      <trkpt lat="47.70996" lon="-3.05246">
        <ele>31.1</ele>
        <time>2020-06-06T14:40:02Z</time>
      </trkpt>
      <trkpt lat="47.71001" lon="-3.05251">
        <ele>31.3</ele>
        <time>2020-06-06T14:40:03Z</time>
      </trkpt>
      <trkpt lat="47.71006" lon="-3.05257">
        <ele>31.4</ele>
        <time>2020-06-06T14:40:04Z</time>
      </trkpt>
      <trkpt lat="47.7101" lon="-3.05263">
        <ele>31.6</ele>
        <time>2020-06-06T14:40:05Z</time>
      </trkpt>
      <trkpt lat="47.71015" lon="-3.05269">
        <ele>31.8</ele>
        <time>2020-06-06T14:40:06Z</time>
      </trkpt>
      <trkpt lat="47.7102" lon="-3.05274">
        <ele>31.9</ele>
        <time>2020-06-06T14:40:07Z</time>
      </trkpt>
      <trkpt lat="47.71024" lon="-3.0528">
        <ele>32.1</ele>
        <time>2020-06-06T14:40:08Z</time>
      </trkpt>
      <trkpt lat="47.71029" lon="-3.05286">
        <ele>32.2</ele>
        <time>2020-06-06T14:40:09Z</time>
      </trkpt>
      <trkpt lat="47.71034" lon="-3.05292">
        <ele>32.3</ele>
        <time>2020-06-06T14:40:10Z</time>
      </trkpt>
      <trkpt lat="47.71039" lon="-3.05298">
        <ele>32.4</ele>
        <time>2020-06-06T14:40:11Z</time>
      </trkpt>
      <trkpt lat="47.71044" lon="-3.05305">
        <ele>32.5</ele>
        <time>2020-06-06T14:40:12Z</time>
      </trkpt>
      <trkpt lat="47.71048" lon="-3.05312">
        <ele>32.6</ele>
        <time>2020-06-06T14:40:13Z</time>
      </trkpt>
      <trkpt lat="47.71054" lon="-3.05317">
        <ele>32.7</ele>
        <time>2020-06-06T14:40:14Z</time>
      </trkpt>
      <trkpt lat="47.71058" lon="-3.05323">
        <ele>32.7</ele>
        <time>2020-06-06T14:40:15Z</time>
      </trkpt>
      <trkpt lat="47.71063" lon="-3.05328">
        <ele>32.8</ele>
        <time>2020-06-06T14:40:16Z</time>
      </trkpt>
      <trkpt lat="47.71068" lon="-3.05333">
        <ele>32.8</ele>
        <time>2020-06-06T14:40:17Z</time>
      </trkpt>
      <trkpt lat="47.71072" lon="-3.05338">
        <ele>32.9</ele>
        <time>2020-06-06T14:40:18Z</time>
      </trkpt>
      <trkpt lat="47.71077" lon="-3.05344">
        <ele>32.9</ele>
        <time>2020-06-06T14:40:19Z</time>
      </trkpt>
      <trkpt lat="47.71081" lon="-3.05348">
        <ele>32.9</ele>
        <time>2020-06-06T14:40:20Z</time>
      </trkpt>
      <trkpt lat="47.71085" lon="-3.05353">
        <ele>32.9</ele>
        <time>2020-06-06T14:40:21Z</time>
      </trkpt>
      <trkpt lat="47.71088" lon="-3.05356">
        <ele>32.8</ele>
        <time>2020-06-06T14:40:22Z</time>
      </trkpt>
      <trkpt lat="47.71091" lon="-3.05361">
        <ele>32.8</ele>
        <time>2020-06-06T14:40:23Z</time>
      </trkpt>
      <trkpt lat="47.71095" lon="-3.05365">
        <ele>32.8</ele>
        <time>2020-06-06T14:40:24Z</time>
      </trkpt>
      <trkpt lat="47.71098" lon="-3.05369">
        <ele>32.8</ele>
        <time>2020-06-06T14:40:25Z</time>
      </trkpt>
      <trkpt lat="47.71102" lon="-3.05374">
        <ele>32.8</ele>
        <time>2020-06-06T14:40:26Z</time>
      </trkpt>
      <trkpt lat="47.71106" lon="-3.05379">
        <ele>32.8</ele>
        <time>2020-06-06T14:40:27Z</time>
      </trkpt>
      <trkpt lat="47.71112" lon="-3.05383">
        <ele>32.8</ele>
        <time>2020-06-06T14:40:28Z</time>
      </trkpt>
      <trkpt lat="47.71117" lon="-3.05388">
        <ele>32.8</ele>
        <time>2020-06-06T14:40:29Z</time>
      </trkpt>
      <trkpt lat="47.71122" lon="-3.05394">
        <ele>32.8</ele>
        <time>2020-06-06T14:40:30Z</time>
      </trkpt>
      <trkpt lat="47.71127" lon="-3.05399">
        <ele>32.7</ele>
        <time>2020-06-06T14:40:31Z</time>
      </trkpt>
      <trkpt lat="47.71132" lon="-3.05404">
        <ele>32.7</ele>
        <time>2020-06-06T14:40:32Z</time>
      </trkpt>
      <trkpt lat="47.71136" lon="-3.05409">
        <ele>32.7</ele>
        <time>2020-06-06T14:40:33Z</time>
      </trkpt>
      <trkpt lat="47.71141" lon="-3.05414">
        <ele>32.6</ele>
        <time>2020-06-06T14:40:34Z</time>
      </trkpt>
      <trkpt lat="47.71145" lon="-3.05419">
        <ele>32.6</ele>
        <time>2020-06-06T14:40:35Z</time>
      </trkpt>
      <trkpt lat="47.7115" lon="-3.05425">
        <ele>32.6</ele>
        <time>2020-06-06T14:40:36Z</time>
      </trkpt>
      <trkpt lat="47.71154" lon="-3.05429">
        <ele>32.6</ele>
        <time>2020-06-06T14:40:37Z</time>
      </trkpt>
      <trkpt lat="47.71159" lon="-3.05434">
        <ele>32.6</ele>
        <time>2020-06-06T14:40:38Z</time>
      </trkpt>
      <trkpt lat="47.71163" lon="-3.05438">
        <ele>32.6</ele>
        <time>2020-06-06T14:40:39Z</time>
      </trkpt>
      <trkpt lat="47.71167" lon="-3.05443">
        <ele>32.6</ele>
        <time>2020-06-06T14:40:40Z</time>
      </trkpt>
      <trkpt lat="47.71173" lon="-3.05448">
        <ele>32.6</ele>
        <time>2020-06-06T14:40:41Z</time>
      </trkpt>
      <trkpt lat="47.71178" lon="-3.05452">
        <ele>32.6</ele>
        <time>2020-06-06T14:40:42Z</time>
      </trkpt>
      <trkpt lat="47.71183" lon="-3.05456">
        <ele>32.6</ele>
        <time>2020-06-06T14:40:43Z</time>
      </trkpt>
      <trkpt lat="47.71188" lon="-3.05461">
        <ele>32.6</ele>
        <time>2020-06-06T14:40:44Z</time>
      </trkpt>
      <trkpt lat="47.71193" lon="-3.05466">
        <ele>32.5</ele>
        <time>2020-06-06T14:40:45Z</time>
      </trkpt>
      <trkpt lat="47.71198" lon="-3.05471">
        <ele>32.5</ele>
        <time>2020-06-06T14:40:46Z</time>
      </trkpt>
      <trkpt lat="47.71203" lon="-3.05476">
        <ele>32.5</ele>
        <time>2020-06-06T14:40:47Z</time>
      </trkpt>
      <trkpt lat="47.71208" lon="-3.05481">
        <ele>32.5</ele>
        <time>2020-06-06T14:40:48Z</time>
      </trkpt>
      <trkpt lat="47.71214" lon="-3.05486">
        <ele>32.4</ele>
        <time>2020-06-06T14:40:49Z</time>
      </trkpt>
      <trkpt lat="47.71218" lon="-3.05491">
        <ele>32.4</ele>
        <time>2020-06-06T14:40:50Z</time>
      </trkpt>
      <trkpt lat="47.71223" lon="-3.05497">
        <ele>32.4</ele>
        <time>2020-06-06T14:40:51Z</time>
      </trkpt>
      <trkpt lat="47.71228" lon="-3.05503">
        <ele>32.3</ele>
        <time>2020-06-06T14:40:52Z</time>
      </trkpt>
      <trkpt lat="47.71234" lon="-3.05508">
        <ele>32.3</ele>
        <time>2020-06-06T14:40:53Z</time>
      </trkpt>
      <trkpt lat="47.71239" lon="-3.05513">
        <ele>32.3</ele>
        <time>2020-06-06T14:40:54Z</time>
      </trkpt>
      <trkpt lat="47.71244" lon="-3.05519">
        <ele>32.2</ele>
        <time>2020-06-06T14:40:55Z</time>
      </trkpt>
      <trkpt lat="47.71248" lon="-3.05524">
        <ele>32.2</ele>
        <time>2020-06-06T14:40:56Z</time>
      </trkpt>
      <trkpt lat="47.71252" lon="-3.0553">
        <ele>32.2</ele>
        <time>2020-06-06T14:40:57Z</time>
      </trkpt>
      <trkpt lat="47.71257" lon="-3.05535">
        <ele>32.1</ele>
        <time>2020-06-06T14:40:58Z</time>
      </trkpt>
      <trkpt lat="47.71262" lon="-3.05542">
        <ele>32.1</ele>
        <time>2020-06-06T14:40:59Z</time>
      </trkpt>
      <trkpt lat="47.71266" lon="-3.05546">
        <ele>32.1</ele>
        <time>2020-06-06T14:41:00Z</time>
      </trkpt>
      <trkpt lat="47.7127" lon="-3.05552">
        <ele>32.2</ele>
        <time>2020-06-06T14:41:01Z</time>
      </trkpt>
      <trkpt lat="47.71275" lon="-3.05557">
        <ele>32.2</ele>
        <time>2020-06-06T14:41:02Z</time>
      </trkpt>
      <trkpt lat="47.7128" lon="-3.05562">
        <ele>32.2</ele>
        <time>2020-06-06T14:41:03Z</time>
      </trkpt>
      <trkpt lat="47.71285" lon="-3.05567">
        <ele>32.1</ele>
        <time>2020-06-06T14:41:04Z</time>
      </trkpt>
      <trkpt lat="47.7129" lon="-3.05574">
        <ele>32.1</ele>
        <time>2020-06-06T14:41:05Z</time>
      </trkpt>
      <trkpt lat="47.71293" lon="-3.05578">
        <ele>32.1</ele>
        <time>2020-06-06T14:41:06Z</time>
      </trkpt>
      <trkpt lat="47.71297" lon="-3.05581">
        <ele>32</ele>
        <time>2020-06-06T14:41:07Z</time>
      </trkpt>
      <trkpt lat="47.713" lon="-3.05586">
        <ele>32</ele>
        <time>2020-06-06T14:41:08Z</time>
      </trkpt>
      <trkpt lat="47.71304" lon="-3.05589">
        <ele>31.9</ele>
        <time>2020-06-06T14:41:09Z</time>
      </trkpt>
      <trkpt lat="47.71308" lon="-3.05594">
        <ele>31.9</ele>
        <time>2020-06-06T14:41:10Z</time>
      </trkpt>
      <trkpt lat="47.71312" lon="-3.056">
        <ele>31.8</ele>
        <time>2020-06-06T14:41:11Z</time>
      </trkpt>
      <trkpt lat="47.71315" lon="-3.05603">
        <ele>31.8</ele>
        <time>2020-06-06T14:41:12Z</time>
      </trkpt>
      <trkpt lat="47.71317" lon="-3.05609">
        <ele>31.7</ele>
        <time>2020-06-06T14:41:13Z</time>
      </trkpt>
      <trkpt lat="47.71321" lon="-3.05614">
        <ele>31.7</ele>
        <time>2020-06-06T14:41:14Z</time>
      </trkpt>
      <trkpt lat="47.71325" lon="-3.05621">
        <ele>31.6</ele>
        <time>2020-06-06T14:41:15Z</time>
      </trkpt>
      <trkpt lat="47.7133" lon="-3.05627">
        <ele>31.6</ele>
        <time>2020-06-06T14:41:16Z</time>
      </trkpt>
      <trkpt lat="47.71334" lon="-3.05632">
        <ele>31.5</ele>
        <time>2020-06-06T14:41:17Z</time>
      </trkpt>
      <trkpt lat="47.71337" lon="-3.05637">
        <ele>31.5</ele>
        <time>2020-06-06T14:41:18Z</time>
      </trkpt>
      <trkpt lat="47.71341" lon="-3.05643">
        <ele>31.4</ele>
        <time>2020-06-06T14:41:19Z</time>
      </trkpt>
      <trkpt lat="47.71345" lon="-3.05649">
        <ele>31.4</ele>
        <time>2020-06-06T14:41:20Z</time>
      </trkpt>
      <trkpt lat="47.71349" lon="-3.05657">
        <ele>31.3</ele>
        <time>2020-06-06T14:41:21Z</time>
      </trkpt>
      <trkpt lat="47.71353" lon="-3.05664">
        <ele>31.3</ele>
        <time>2020-06-06T14:41:22Z</time>
      </trkpt>
      <trkpt lat="47.71358" lon="-3.05672">
        <ele>31.2</ele>
        <time>2020-06-06T14:41:23Z</time>
      </trkpt>
      <trkpt lat="47.71362" lon="-3.0568">
        <ele>31.1</ele>
        <time>2020-06-06T14:41:24Z</time>
      </trkpt>
      <trkpt lat="47.71366" lon="-3.05686">
        <ele>31.1</ele>
        <time>2020-06-06T14:41:25Z</time>
      </trkpt>
      <trkpt lat="47.71371" lon="-3.05692">
        <ele>31</ele>
        <time>2020-06-06T14:41:26Z</time>
      </trkpt>
      <trkpt lat="47.71376" lon="-3.05699">
        <ele>30.8</ele>
        <time>2020-06-06T14:41:27Z</time>
      </trkpt>
      <trkpt lat="47.7138" lon="-3.05705">
        <ele>30.8</ele>
        <time>2020-06-06T14:41:28Z</time>
      </trkpt>
      <trkpt lat="47.71385" lon="-3.05711">
        <ele>30.7</ele>
        <time>2020-06-06T14:41:29Z</time>
      </trkpt>
      <trkpt lat="47.71389" lon="-3.05717">
        <ele>30.6</ele>
        <time>2020-06-06T14:41:30Z</time>
      </trkpt>
      <trkpt lat="47.71393" lon="-3.05723">
        <ele>30.5</ele>
        <time>2020-06-06T14:41:31Z</time>
      </trkpt>
      <trkpt lat="47.71397" lon="-3.0573">
        <ele>30.4</ele>
        <time>2020-06-06T14:41:32Z</time>
      </trkpt>
      <trkpt lat="47.71402" lon="-3.05736">
        <ele>30.3</ele>
        <time>2020-06-06T14:41:33Z</time>
      </trkpt>
      <trkpt lat="47.71406" lon="-3.05741">
        <ele>30.2</ele>
        <time>2020-06-06T14:41:34Z</time>
      </trkpt>
      <trkpt lat="47.71411" lon="-3.05746">
        <ele>30.1</ele>
        <time>2020-06-06T14:41:35Z</time>
      </trkpt>
      <trkpt lat="47.71415" lon="-3.05751">
        <ele>30.1</ele>
        <time>2020-06-06T14:41:36Z</time>
      </trkpt>
      <trkpt lat="47.7142" lon="-3.05757">
        <ele>30</ele>
        <time>2020-06-06T14:41:37Z</time>
      </trkpt>
      <trkpt lat="47.71424" lon="-3.05761">
        <ele>29.9</ele>
        <time>2020-06-06T14:41:38Z</time>
      </trkpt>
      <trkpt lat="47.71429" lon="-3.05766">
        <ele>29.8</ele>
        <time>2020-06-06T14:41:39Z</time>
      </trkpt>
      <trkpt lat="47.71434" lon="-3.05772">
        <ele>29.7</ele>
        <time>2020-06-06T14:41:40Z</time>
      </trkpt>
      <trkpt lat="47.71439" lon="-3.05777">
        <ele>29.6</ele>
        <time>2020-06-06T14:41:41Z</time>
      </trkpt>
      <trkpt lat="47.71444" lon="-3.05783">
        <ele>29.5</ele>
        <time>2020-06-06T14:41:42Z</time>
      </trkpt>
      <trkpt lat="47.71449" lon="-3.05789">
        <ele>29.4</ele>
        <time>2020-06-06T14:41:43Z</time>
      </trkpt>
      <trkpt lat="47.71454" lon="-3.05795">
        <ele>29.4</ele>
        <time>2020-06-06T14:41:44Z</time>
      </trkpt>
      <trkpt lat="47.71459" lon="-3.05801">
        <ele>29.3</ele>
        <time>2020-06-06T14:41:45Z</time>
      </trkpt>
      <trkpt lat="47.71464" lon="-3.05806">
        <ele>29.2</ele>
        <time>2020-06-06T14:41:46Z</time>
      </trkpt>
      <trkpt lat="47.71469" lon="-3.05811">
        <ele>29.1</ele>
        <time>2020-06-06T14:41:47Z</time>
      </trkpt>
      <trkpt lat="47.71472" lon="-3.05816">
        <ele>29</ele>
        <time>2020-06-06T14:41:48Z</time>
      </trkpt>
      <trkpt lat="47.71476" lon="-3.0582">
        <ele>28.9</ele>
        <time>2020-06-06T14:41:49Z</time>
      </trkpt>
      <trkpt lat="47.7148" lon="-3.05824">
        <ele>28.9</ele>
        <time>2020-06-06T14:41:50Z</time>
      </trkpt>
      <trkpt lat="47.71485" lon="-3.05829">
        <ele>28.8</ele>
        <time>2020-06-06T14:41:51Z</time>
      </trkpt>
      <trkpt lat="47.71489" lon="-3.05834">
        <ele>28.7</ele>
        <time>2020-06-06T14:41:52Z</time>
      </trkpt>
      <trkpt lat="47.71494" lon="-3.0584">
        <ele>28.7</ele>
        <time>2020-06-06T14:41:53Z</time>
      </trkpt>
      <trkpt lat="47.71498" lon="-3.05846">
        <ele>28.6</ele>
        <time>2020-06-06T14:41:54Z</time>
      </trkpt>
      <trkpt lat="47.71502" lon="-3.05852">
        <ele>28.5</ele>
        <time>2020-06-06T14:41:55Z</time>
      </trkpt>
      <trkpt lat="47.71507" lon="-3.05858">
        <ele>28.4</ele>
        <time>2020-06-06T14:41:56Z</time>
      </trkpt>
      <trkpt lat="47.71512" lon="-3.05864">
        <ele>28.4</ele>
        <time>2020-06-06T14:41:57Z</time>
      </trkpt>
      <trkpt lat="47.71516" lon="-3.05869">
        <ele>28.3</ele>
        <time>2020-06-06T14:41:58Z</time>
      </trkpt>
      <trkpt lat="47.71522" lon="-3.05876">
        <ele>28.2</ele>
        <time>2020-06-06T14:41:59Z</time>
      </trkpt>
      <trkpt lat="47.71526" lon="-3.05881">
        <ele>28.1</ele>
        <time>2020-06-06T14:42:00Z</time>
      </trkpt>
      <trkpt lat="47.71532" lon="-3.05886">
        <ele>28</ele>
        <time>2020-06-06T14:42:01Z</time>
      </trkpt>
      <trkpt lat="47.71536" lon="-3.05892">
        <ele>28</ele>
        <time>2020-06-06T14:42:02Z</time>
      </trkpt>
      <trkpt lat="47.71541" lon="-3.05898">
        <ele>27.9</ele>
        <time>2020-06-06T14:42:03Z</time>
      </trkpt>
      <trkpt lat="47.71545" lon="-3.05903">
        <ele>27.8</ele>
        <time>2020-06-06T14:42:04Z</time>
      </trkpt>
      <trkpt lat="47.7155" lon="-3.0591">
        <ele>27.7</ele>
        <time>2020-06-06T14:42:05Z</time>
      </trkpt>
      <trkpt lat="47.71556" lon="-3.05915">
        <ele>27.6</ele>
        <time>2020-06-06T14:42:06Z</time>
      </trkpt>
      <trkpt lat="47.71561" lon="-3.05921">
        <ele>27.5</ele>
        <time>2020-06-06T14:42:07Z</time>
      </trkpt>
      <trkpt lat="47.71567" lon="-3.05928">
        <ele>27.5</ele>
        <time>2020-06-06T14:42:08Z</time>
      </trkpt>
      <trkpt lat="47.71572" lon="-3.05934">
        <ele>27.4</ele>
        <time>2020-06-06T14:42:09Z</time>
      </trkpt>
      <trkpt lat="47.71577" lon="-3.0594">
        <ele>27.3</ele>
        <time>2020-06-06T14:42:10Z</time>
      </trkpt>
      <trkpt lat="47.71583" lon="-3.05946">
        <ele>27.2</ele>
        <time>2020-06-06T14:42:11Z</time>
      </trkpt>
      <trkpt lat="47.71587" lon="-3.05952">
        <ele>27.1</ele>
        <time>2020-06-06T14:42:12Z</time>
      </trkpt>
      <trkpt lat="47.71593" lon="-3.05958">
        <ele>27</ele>
        <time>2020-06-06T14:42:13Z</time>
      </trkpt>
      <trkpt lat="47.71598" lon="-3.05965">
        <ele>27</ele>
        <time>2020-06-06T14:42:14Z</time>
      </trkpt>
      <trkpt lat="47.71603" lon="-3.0597">
        <ele>26.9</ele>
        <time>2020-06-06T14:42:15Z</time>
      </trkpt>
      <trkpt lat="47.71607" lon="-3.05976">
        <ele>26.8</ele>
        <time>2020-06-06T14:42:16Z</time>
      </trkpt>
      <trkpt lat="47.71612" lon="-3.05982">
        <ele>26.6</ele>
        <time>2020-06-06T14:42:17Z</time>
      </trkpt>
      <trkpt lat="47.71617" lon="-3.05988">
        <ele>26.5</ele>
        <time>2020-06-06T14:42:18Z</time>
      </trkpt>
      <trkpt lat="47.71621" lon="-3.05993">
        <ele>26.4</ele>
        <time>2020-06-06T14:42:19Z</time>
      </trkpt>
      <trkpt lat="47.71626" lon="-3.06">
        <ele>26.4</ele>
        <time>2020-06-06T14:42:20Z</time>
      </trkpt>
      <trkpt lat="47.71631" lon="-3.06006">
        <ele>26.3</ele>
        <time>2020-06-06T14:42:21Z</time>
      </trkpt>
      <trkpt lat="47.71635" lon="-3.06012">
        <ele>26.2</ele>
        <time>2020-06-06T14:42:22Z</time>
      </trkpt>
      <trkpt lat="47.71641" lon="-3.06018">
        <ele>26.1</ele>
        <time>2020-06-06T14:42:23Z</time>
      </trkpt>
      <trkpt lat="47.71645" lon="-3.06025">
        <ele>26</ele>
        <time>2020-06-06T14:42:24Z</time>
      </trkpt>
      <trkpt lat="47.71649" lon="-3.0603">
        <ele>25.9</ele>
        <time>2020-06-06T14:42:25Z</time>
      </trkpt>
      <trkpt lat="47.71653" lon="-3.06036">
        <ele>25.8</ele>
        <time>2020-06-06T14:42:26Z</time>
      </trkpt>
      <trkpt lat="47.71658" lon="-3.06042">
        <ele>25.7</ele>
        <time>2020-06-06T14:42:27Z</time>
      </trkpt>
      <trkpt lat="47.71662" lon="-3.06048">
        <ele>25.6</ele>
        <time>2020-06-06T14:42:28Z</time>
      </trkpt>
      <trkpt lat="47.71667" lon="-3.06055">
        <ele>25.5</ele>
        <time>2020-06-06T14:42:29Z</time>
      </trkpt>
      <trkpt lat="47.71672" lon="-3.06061">
        <ele>25.4</ele>
        <time>2020-06-06T14:42:30Z</time>
      </trkpt>
      <trkpt lat="47.71677" lon="-3.06068">
        <ele>25.3</ele>
        <time>2020-06-06T14:42:31Z</time>
      </trkpt>
      <trkpt lat="47.71682" lon="-3.06076">
        <ele>25.2</ele>
        <time>2020-06-06T14:42:32Z</time>
      </trkpt>
      <trkpt lat="47.71687" lon="-3.06083">
        <ele>25.2</ele>
        <time>2020-06-06T14:42:33Z</time>
      </trkpt>
      <trkpt lat="47.71691" lon="-3.0609">
        <ele>25.1</ele>
        <time>2020-06-06T14:42:34Z</time>
      </trkpt>
      <trkpt lat="47.71695" lon="-3.06096">
        <ele>25</ele>
        <time>2020-06-06T14:42:35Z</time>
      </trkpt>
      <trkpt lat="47.71699" lon="-3.06103">
        <ele>25</ele>
        <time>2020-06-06T14:42:36Z</time>
      </trkpt>
      <trkpt lat="47.71703" lon="-3.06109">
        <ele>24.9</ele>
        <time>2020-06-06T14:42:37Z</time>
      </trkpt>
      <trkpt lat="47.71708" lon="-3.06116">
        <ele>24.8</ele>
        <time>2020-06-06T14:42:38Z</time>
      </trkpt>
      <trkpt lat="47.71713" lon="-3.06122">
        <ele>24.7</ele>
        <time>2020-06-06T14:42:39Z</time>
      </trkpt>
      <trkpt lat="47.71717" lon="-3.0613">
        <ele>24.6</ele>
        <time>2020-06-06T14:42:40Z</time>
      </trkpt>
      <trkpt lat="47.71721" lon="-3.06138">
        <ele>24.5</ele>
        <time>2020-06-06T14:42:41Z</time>
      </trkpt>
      <trkpt lat="47.71725" lon="-3.06146">
        <ele>24.4</ele>
        <time>2020-06-06T14:42:42Z</time>
      </trkpt>
      <trkpt lat="47.71729" lon="-3.06154">
        <ele>24.4</ele>
        <time>2020-06-06T14:42:43Z</time>
      </trkpt>
      <trkpt lat="47.71733" lon="-3.06161">
        <ele>24.3</ele>
        <time>2020-06-06T14:42:44Z</time>
      </trkpt>
      <trkpt lat="47.71738" lon="-3.06169">
        <ele>24.2</ele>
        <time>2020-06-06T14:42:45Z</time>
      </trkpt>
      <trkpt lat="47.71742" lon="-3.06177">
        <ele>24.1</ele>
        <time>2020-06-06T14:42:46Z</time>
      </trkpt>
      <trkpt lat="47.71747" lon="-3.06184">
        <ele>24</ele>
        <time>2020-06-06T14:42:47Z</time>
      </trkpt>
      <trkpt lat="47.71751" lon="-3.06191">
        <ele>23.9</ele>
        <time>2020-06-06T14:42:48Z</time>
      </trkpt>
      <trkpt lat="47.71755" lon="-3.06198">
        <ele>23.8</ele>
        <time>2020-06-06T14:42:49Z</time>
      </trkpt>
      <trkpt lat="47.7176" lon="-3.06206">
        <ele>23.7</ele>
        <time>2020-06-06T14:42:50Z</time>
      </trkpt>
      <trkpt lat="47.71764" lon="-3.06214">
        <ele>23.7</ele>
        <time>2020-06-06T14:42:51Z</time>
      </trkpt>
      <trkpt lat="47.71768" lon="-3.06221">
        <ele>23.6</ele>
        <time>2020-06-06T14:42:52Z</time>
      </trkpt>
      <trkpt lat="47.71772" lon="-3.06228">
        <ele>23.5</ele>
        <time>2020-06-06T14:42:53Z</time>
      </trkpt>
      <trkpt lat="47.71776" lon="-3.06235">
        <ele>23.4</ele>
        <time>2020-06-06T14:42:54Z</time>
      </trkpt>
      <trkpt lat="47.7178" lon="-3.06242">
        <ele>23.3</ele>
        <time>2020-06-06T14:42:55Z</time>
      </trkpt>
      <trkpt lat="47.71783" lon="-3.0625">
        <ele>23.2</ele>
        <time>2020-06-06T14:42:56Z</time>
      </trkpt>
      <trkpt lat="47.71787" lon="-3.06257">
        <ele>23.1</ele>
        <time>2020-06-06T14:42:57Z</time>
      </trkpt>
      <trkpt lat="47.71791" lon="-3.06264">
        <ele>23</ele>
        <time>2020-06-06T14:42:58Z</time>
      </trkpt>
      <trkpt lat="47.71795" lon="-3.06271">
        <ele>22.9</ele>
        <time>2020-06-06T14:42:59Z</time>
      </trkpt>
      <trkpt lat="47.71798" lon="-3.06279">
        <ele>22.8</ele>
        <time>2020-06-06T14:43:00Z</time>
      </trkpt>
      <trkpt lat="47.71802" lon="-3.06286">
        <ele>22.7</ele>
        <time>2020-06-06T14:43:01Z</time>
      </trkpt>
      <trkpt lat="47.71806" lon="-3.06294">
        <ele>22.6</ele>
        <time>2020-06-06T14:43:02Z</time>
      </trkpt>
      <trkpt lat="47.71809" lon="-3.06302">
        <ele>22.5</ele>
        <time>2020-06-06T14:43:03Z</time>
      </trkpt>
      <trkpt lat="47.71813" lon="-3.06309">
        <ele>22.5</ele>
        <time>2020-06-06T14:43:04Z</time>
      </trkpt>
      <trkpt lat="47.71817" lon="-3.06317">
        <ele>22.5</ele>
        <time>2020-06-06T14:43:05Z</time>
      </trkpt>
      <trkpt lat="47.7182" lon="-3.06324">
        <ele>22.4</ele>
        <time>2020-06-06T14:43:06Z</time>
      </trkpt>
      <trkpt lat="47.71824" lon="-3.06331">
        <ele>22.4</ele>
        <time>2020-06-06T14:43:07Z</time>
      </trkpt>
      <trkpt lat="47.71828" lon="-3.06339">
        <ele>22.4</ele>
        <time>2020-06-06T14:43:08Z</time>
      </trkpt>
      <trkpt lat="47.71831" lon="-3.06347">
        <ele>22.4</ele>
        <time>2020-06-06T14:43:09Z</time>
      </trkpt>
      <trkpt lat="47.71835" lon="-3.06355">
        <ele>22.4</ele>
        <time>2020-06-06T14:43:10Z</time>
      </trkpt>
      <trkpt lat="47.71838" lon="-3.06363">
        <ele>22.4</ele>
        <time>2020-06-06T14:43:11Z</time>
      </trkpt>
      <trkpt lat="47.71842" lon="-3.06372">
        <ele>22.4</ele>
        <time>2020-06-06T14:43:12Z</time>
      </trkpt>
      <trkpt lat="47.71846" lon="-3.06381">
        <ele>22.4</ele>
        <time>2020-06-06T14:43:13Z</time>
      </trkpt>
      <trkpt lat="47.71849" lon="-3.0639">
        <ele>22.4</ele>
        <time>2020-06-06T14:43:14Z</time>
      </trkpt>
      <trkpt lat="47.71853" lon="-3.06398">
        <ele>22.4</ele>
        <time>2020-06-06T14:43:15Z</time>
      </trkpt>
      <trkpt lat="47.71857" lon="-3.06406">
        <ele>22.5</ele>
        <time>2020-06-06T14:43:16Z</time>
      </trkpt>
      <trkpt lat="47.7186" lon="-3.06415">
        <ele>22.5</ele>
        <time>2020-06-06T14:43:17Z</time>
      </trkpt>
      <trkpt lat="47.71864" lon="-3.06423">
        <ele>22.6</ele>
        <time>2020-06-06T14:43:18Z</time>
      </trkpt>
      <trkpt lat="47.71867" lon="-3.06432">
        <ele>22.6</ele>
        <time>2020-06-06T14:43:19Z</time>
      </trkpt>
      <trkpt lat="47.7187" lon="-3.0644">
        <ele>22.7</ele>
        <time>2020-06-06T14:43:20Z</time>
      </trkpt>
      <trkpt lat="47.71873" lon="-3.06449">
        <ele>22.7</ele>
        <time>2020-06-06T14:43:21Z</time>
      </trkpt>
      <trkpt lat="47.71876" lon="-3.06456">
        <ele>22.8</ele>
        <time>2020-06-06T14:43:22Z</time>
      </trkpt>
      <trkpt lat="47.71879" lon="-3.06465">
        <ele>22.8</ele>
        <time>2020-06-06T14:43:23Z</time>
      </trkpt>
      <trkpt lat="47.71882" lon="-3.06473">
        <ele>22.9</ele>
        <time>2020-06-06T14:43:24Z</time>
      </trkpt>
      <trkpt lat="47.71885" lon="-3.06481">
        <ele>22.9</ele>
        <time>2020-06-06T14:43:25Z</time>
      </trkpt>
      <trkpt lat="47.71887" lon="-3.0649">
        <ele>23</ele>
        <time>2020-06-06T14:43:26Z</time>
      </trkpt>
      <trkpt lat="47.7189" lon="-3.06498">
        <ele>23.1</ele>
        <time>2020-06-06T14:43:27Z</time>
      </trkpt>
      <trkpt lat="47.71894" lon="-3.06505">
        <ele>23.2</ele>
        <time>2020-06-06T14:43:28Z</time>
      </trkpt>
      <trkpt lat="47.71897" lon="-3.06512">
        <ele>23.3</ele>
        <time>2020-06-06T14:43:29Z</time>
      </trkpt>
      <trkpt lat="47.719" lon="-3.0652">
        <ele>23.3</ele>
        <time>2020-06-06T14:43:30Z</time>
      </trkpt>
      <trkpt lat="47.71903" lon="-3.06528">
        <ele>23.3</ele>
        <time>2020-06-06T14:43:31Z</time>
      </trkpt>
      <trkpt lat="47.71906" lon="-3.06536">
        <ele>23.3</ele>
        <time>2020-06-06T14:43:32Z</time>
      </trkpt>
      <trkpt lat="47.71909" lon="-3.06543">
        <ele>23.4</ele>
        <time>2020-06-06T14:43:33Z</time>
      </trkpt>
      <trkpt lat="47.71912" lon="-3.0655">
        <ele>23.4</ele>
        <time>2020-06-06T14:43:34Z</time>
      </trkpt>
      <trkpt lat="47.71915" lon="-3.06557">
        <ele>23.4</ele>
        <time>2020-06-06T14:43:35Z</time>
      </trkpt>
      <trkpt lat="47.71918" lon="-3.06565">
        <ele>23.5</ele>
        <time>2020-06-06T14:43:36Z</time>
      </trkpt>
      <trkpt lat="47.71922" lon="-3.06573">
        <ele>23.6</ele>
        <time>2020-06-06T14:43:37Z</time>
      </trkpt>
      <trkpt lat="47.71924" lon="-3.06581">
        <ele>23.8</ele>
        <time>2020-06-06T14:43:38Z</time>
      </trkpt>
      <trkpt lat="47.71927" lon="-3.06589">
        <ele>23.9</ele>
        <time>2020-06-06T14:43:39Z</time>
      </trkpt>
      <trkpt lat="47.71931" lon="-3.06596">
        <ele>24</ele>
        <time>2020-06-06T14:43:40Z</time>
      </trkpt>
      <trkpt lat="47.71934" lon="-3.06603">
        <ele>24.2</ele>
        <time>2020-06-06T14:43:41Z</time>
      </trkpt>
      <trkpt lat="47.71937" lon="-3.0661">
        <ele>24.3</ele>
        <time>2020-06-06T14:43:42Z</time>
      </trkpt>
      <trkpt lat="47.7194" lon="-3.06618">
        <ele>24.4</ele>
        <time>2020-06-06T14:43:43Z</time>
      </trkpt>
      <trkpt lat="47.71943" lon="-3.06626">
        <ele>24.6</ele>
        <time>2020-06-06T14:43:44Z</time>
      </trkpt>
      <trkpt lat="47.71946" lon="-3.06634">
        <ele>24.7</ele>
        <time>2020-06-06T14:43:45Z</time>
      </trkpt>
      <trkpt lat="47.71949" lon="-3.06641">
        <ele>24.9</ele>
        <time>2020-06-06T14:43:46Z</time>
      </trkpt>
      <trkpt lat="47.71952" lon="-3.06649">
        <ele>25</ele>
        <time>2020-06-06T14:43:47Z</time>
      </trkpt>
      <trkpt lat="47.71955" lon="-3.06656">
        <ele>25.2</ele>
        <time>2020-06-06T14:43:48Z</time>
      </trkpt>
      <trkpt lat="47.71957" lon="-3.06663">
        <ele>25.4</ele>
        <time>2020-06-06T14:43:49Z</time>
      </trkpt>
      <trkpt lat="47.71961" lon="-3.06672">
        <ele>25.6</ele>
        <time>2020-06-06T14:43:50Z</time>
      </trkpt>
      <trkpt lat="47.71963" lon="-3.06679">
        <ele>25.8</ele>
        <time>2020-06-06T14:43:51Z</time>
      </trkpt>
      <trkpt lat="47.71966" lon="-3.06687">
        <ele>26</ele>
        <time>2020-06-06T14:43:52Z</time>
      </trkpt>
      <trkpt lat="47.71968" lon="-3.06694">
        <ele>26.2</ele>
        <time>2020-06-06T14:43:53Z</time>
      </trkpt>
      <trkpt lat="47.7197" lon="-3.067">
        <ele>26.3</ele>
        <time>2020-06-06T14:43:54Z</time>
      </trkpt>
      <trkpt lat="47.71972" lon="-3.06707">
        <ele>26.4</ele>
        <time>2020-06-06T14:43:55Z</time>
      </trkpt>
      <trkpt lat="47.71975" lon="-3.06714">
        <ele>26.6</ele>
        <time>2020-06-06T14:43:56Z</time>
      </trkpt>
      <trkpt lat="47.71978" lon="-3.06721">
        <ele>26.8</ele>
        <time>2020-06-06T14:43:57Z</time>
      </trkpt>
      <trkpt lat="47.7198" lon="-3.06728">
        <ele>26.9</ele>
        <time>2020-06-06T14:43:58Z</time>
      </trkpt>
      <trkpt lat="47.71982" lon="-3.06735">
        <ele>27.1</ele>
        <time>2020-06-06T14:43:59Z</time>
      </trkpt>
      <trkpt lat="47.71985" lon="-3.06741">
        <ele>27.2</ele>
        <time>2020-06-06T14:44:00Z</time>
      </trkpt>
      <trkpt lat="47.71988" lon="-3.06746">
        <ele>27.4</ele>
        <time>2020-06-06T14:44:01Z</time>
      </trkpt>
      <trkpt lat="47.71991" lon="-3.06754">
        <ele>27.5</ele>
        <time>2020-06-06T14:44:02Z</time>
      </trkpt>
      <trkpt lat="47.71993" lon="-3.0676">
        <ele>27.6</ele>
        <time>2020-06-06T14:44:03Z</time>
      </trkpt>
      <trkpt lat="47.71996" lon="-3.06767">
        <ele>27.8</ele>
        <time>2020-06-06T14:44:04Z</time>
      </trkpt>
      <trkpt lat="47.72" lon="-3.06776">
        <ele>28</ele>
        <time>2020-06-06T14:44:05Z</time>
      </trkpt>
      <trkpt lat="47.72002" lon="-3.06781">
        <ele>28.1</ele>
        <time>2020-06-06T14:44:06Z</time>
      </trkpt>
      <trkpt lat="47.72004" lon="-3.06786">
        <ele>28.2</ele>
        <time>2020-06-06T14:44:07Z</time>
      </trkpt>
      <trkpt lat="47.72005" lon="-3.06791">
        <ele>28.3</ele>
        <time>2020-06-06T14:44:08Z</time>
      </trkpt>
      <trkpt lat="47.72008" lon="-3.06797">
        <ele>28.4</ele>
        <time>2020-06-06T14:44:09Z</time>
      </trkpt>
      <trkpt lat="47.7201" lon="-3.06802">
        <ele>28.5</ele>
        <time>2020-06-06T14:44:10Z</time>
      </trkpt>
      <trkpt lat="47.72012" lon="-3.06807">
        <ele>28.6</ele>
        <time>2020-06-06T14:44:11Z</time>
      </trkpt>
      <trkpt lat="47.72015" lon="-3.06813">
        <ele>28.7</ele>
        <time>2020-06-06T14:44:12Z</time>
      </trkpt>
      <trkpt lat="47.72017" lon="-3.06819">
        <ele>28.9</ele>
        <time>2020-06-06T14:44:13Z</time>
      </trkpt>
      <trkpt lat="47.72019" lon="-3.06824">
        <ele>29</ele>
        <time>2020-06-06T14:44:14Z</time>
      </trkpt>
      <trkpt lat="47.72021" lon="-3.06829">
        <ele>29.1</ele>
        <time>2020-06-06T14:44:15Z</time>
      </trkpt>
      <trkpt lat="47.72023" lon="-3.06834">
        <ele>29.2</ele>
        <time>2020-06-06T14:44:16Z</time>
      </trkpt>
      <trkpt lat="47.72025" lon="-3.06839">
        <ele>29.3</ele>
        <time>2020-06-06T14:44:17Z</time>
      </trkpt>
      <trkpt lat="47.72027" lon="-3.06843">
        <ele>29.4</ele>
        <time>2020-06-06T14:44:18Z</time>
      </trkpt>
      <trkpt lat="47.7203" lon="-3.06848">
        <ele>29.5</ele>
        <time>2020-06-06T14:44:19Z</time>
      </trkpt>
      <trkpt lat="47.72032" lon="-3.06854">
        <ele>29.6</ele>
        <time>2020-06-06T14:44:20Z</time>
      </trkpt>
      <trkpt lat="47.72035" lon="-3.06861">
        <ele>29.7</ele>
        <time>2020-06-06T14:44:21Z</time>
      </trkpt>
      <trkpt lat="47.72037" lon="-3.06867">
        <ele>29.8</ele>
        <time>2020-06-06T14:44:22Z</time>
      </trkpt>
      <trkpt lat="47.7204" lon="-3.06872">
        <ele>29.8</ele>
        <time>2020-06-06T14:44:23Z</time>
      </trkpt>
      <trkpt lat="47.72042" lon="-3.06877">
        <ele>29.9</ele>
        <time>2020-06-06T14:44:24Z</time>
      </trkpt>
      <trkpt lat="47.72045" lon="-3.06884">
        <ele>30</ele>
        <time>2020-06-06T14:44:25Z</time>
      </trkpt>
      <trkpt lat="47.72047" lon="-3.06887">
        <ele>30.1</ele>
        <time>2020-06-06T14:44:26Z</time>
      </trkpt>
      <trkpt lat="47.72049" lon="-3.06893">
        <ele>30.2</ele>
        <time>2020-06-06T14:44:27Z</time>
      </trkpt>
      <trkpt lat="47.72051" lon="-3.06899">
        <ele>30.2</ele>
        <time>2020-06-06T14:44:28Z</time>
      </trkpt>
      <trkpt lat="47.72053" lon="-3.06904">
        <ele>30.3</ele>
        <time>2020-06-06T14:44:29Z</time>
      </trkpt>
      <trkpt lat="47.72055" lon="-3.06909">
        <ele>30.4</ele>
        <time>2020-06-06T14:44:30Z</time>
      </trkpt>
      <trkpt lat="47.72056" lon="-3.06915">
        <ele>30.5</ele>
        <time>2020-06-06T14:44:31Z</time>
      </trkpt>
      <trkpt lat="47.72059" lon="-3.0692">
        <ele>30.5</ele>
        <time>2020-06-06T14:44:32Z</time>
      </trkpt>
      <trkpt lat="47.72061" lon="-3.06927">
        <ele>30.6</ele>
        <time>2020-06-06T14:44:33Z</time>
      </trkpt>
      <trkpt lat="47.72063" lon="-3.06933">
        <ele>30.7</ele>
        <time>2020-06-06T14:44:34Z</time>
      </trkpt>
      <trkpt lat="47.72065" lon="-3.0694">
        <ele>30.8</ele>
        <time>2020-06-06T14:44:35Z</time>
      </trkpt>
      <trkpt lat="47.72067" lon="-3.06945">
        <ele>30.8</ele>
        <time>2020-06-06T14:44:36Z</time>
      </trkpt>
      <trkpt lat="47.7207" lon="-3.06951">
        <ele>30.9</ele>
        <time>2020-06-06T14:44:37Z</time>
      </trkpt>
      <trkpt lat="47.72072" lon="-3.06957">
        <ele>30.9</ele>
        <time>2020-06-06T14:44:38Z</time>
      </trkpt>
      <trkpt lat="47.72074" lon="-3.06962">
        <ele>31</ele>
        <time>2020-06-06T14:44:39Z</time>
      </trkpt>
      <trkpt lat="47.72076" lon="-3.06967">
        <ele>31</ele>
        <time>2020-06-06T14:44:40Z</time>
      </trkpt>
      <trkpt lat="47.72078" lon="-3.06973">
        <ele>31.1</ele>
        <time>2020-06-06T14:44:41Z</time>
      </trkpt>
      <trkpt lat="47.72081" lon="-3.0698">
        <ele>31.2</ele>
        <time>2020-06-06T14:44:42Z</time>
      </trkpt>
      <trkpt lat="47.72083" lon="-3.06986">
        <ele>31.2</ele>
        <time>2020-06-06T14:44:43Z</time>
      </trkpt>
      <trkpt lat="47.72085" lon="-3.06991">
        <ele>31.3</ele>
        <time>2020-06-06T14:44:44Z</time>
      </trkpt>
      <trkpt lat="47.72086" lon="-3.06996">
        <ele>31.3</ele>
        <time>2020-06-06T14:44:45Z</time>
      </trkpt>
      <trkpt lat="47.72089" lon="-3.07002">
        <ele>31.4</ele>
        <time>2020-06-06T14:44:46Z</time>
      </trkpt>
      <trkpt lat="47.72091" lon="-3.07007">
        <ele>31.4</ele>
        <time>2020-06-06T14:44:47Z</time>
      </trkpt>
      <trkpt lat="47.72094" lon="-3.07012">
        <ele>31.4</ele>
        <time>2020-06-06T14:44:48Z</time>
      </trkpt>
      <trkpt lat="47.72097" lon="-3.07017">
        <ele>31.5</ele>
        <time>2020-06-06T14:44:49Z</time>
      </trkpt>
      <trkpt lat="47.72099" lon="-3.07023">
        <ele>31.5</ele>
        <time>2020-06-06T14:44:50Z</time>
      </trkpt>
      <trkpt lat="47.72101" lon="-3.0703">
        <ele>31.5</ele>
        <time>2020-06-06T14:44:51Z</time>
      </trkpt>
      <trkpt lat="47.72103" lon="-3.07037">
        <ele>31.6</ele>
        <time>2020-06-06T14:44:52Z</time>
      </trkpt>
      <trkpt lat="47.72105" lon="-3.07042">
        <ele>31.6</ele>
        <time>2020-06-06T14:44:53Z</time>
      </trkpt>
      <trkpt lat="47.72107" lon="-3.07048">
        <ele>31.6</ele>
        <time>2020-06-06T14:44:54Z</time>
      </trkpt>
      <trkpt lat="47.7211" lon="-3.07055">
        <ele>31.6</ele>
        <time>2020-06-06T14:44:55Z</time>
      </trkpt>
      <trkpt lat="47.72113" lon="-3.07062">
        <ele>31.7</ele>
        <time>2020-06-06T14:44:56Z</time>
      </trkpt>
      <trkpt lat="47.72116" lon="-3.07068">
        <ele>31.7</ele>
        <time>2020-06-06T14:44:57Z</time>
      </trkpt>
      <trkpt lat="47.72118" lon="-3.07075">
        <ele>31.7</ele>
        <time>2020-06-06T14:44:58Z</time>
      </trkpt>
      <trkpt lat="47.72121" lon="-3.0708">
        <ele>31.7</ele>
        <time>2020-06-06T14:44:59Z</time>
      </trkpt>
      <trkpt lat="47.72123" lon="-3.07087">
        <ele>31.7</ele>
        <time>2020-06-06T14:45:00Z</time>
      </trkpt>
      <trkpt lat="47.72125" lon="-3.07093">
        <ele>31.7</ele>
        <time>2020-06-06T14:45:01Z</time>
      </trkpt>
      <trkpt lat="47.72128" lon="-3.07099">
        <ele>31.7</ele>
        <time>2020-06-06T14:45:02Z</time>
      </trkpt>
      <trkpt lat="47.7213" lon="-3.07106">
        <ele>31.7</ele>
        <time>2020-06-06T14:45:03Z</time>
      </trkpt>
      <trkpt lat="47.72133" lon="-3.07113">
        <ele>31.7</ele>
        <time>2020-06-06T14:45:04Z</time>
      </trkpt>
      <trkpt lat="47.72135" lon="-3.07119">
        <ele>31.8</ele>
        <time>2020-06-06T14:45:05Z</time>
      </trkpt>
      <trkpt lat="47.72137" lon="-3.07125">
        <ele>31.8</ele>
        <time>2020-06-06T14:45:06Z</time>
      </trkpt>
      <trkpt lat="47.7214" lon="-3.07132">
        <ele>31.8</ele>
        <time>2020-06-06T14:45:07Z</time>
      </trkpt>
      <trkpt lat="47.72142" lon="-3.07138">
        <ele>31.8</ele>
        <time>2020-06-06T14:45:08Z</time>
      </trkpt>
      <trkpt lat="47.72144" lon="-3.07144">
        <ele>31.8</ele>
        <time>2020-06-06T14:45:09Z</time>
      </trkpt>
      <trkpt lat="47.72147" lon="-3.07151">
        <ele>31.9</ele>
        <time>2020-06-06T14:45:10Z</time>
      </trkpt>
      <trkpt lat="47.72149" lon="-3.07158">
        <ele>31.9</ele>
        <time>2020-06-06T14:45:11Z</time>
      </trkpt>
      <trkpt lat="47.72151" lon="-3.07165">
        <ele>31.9</ele>
        <time>2020-06-06T14:45:12Z</time>
      </trkpt>
      <trkpt lat="47.72155" lon="-3.07173">
        <ele>32</ele>
        <time>2020-06-06T14:45:13Z</time>
      </trkpt>
      <trkpt lat="47.72158" lon="-3.0718">
        <ele>32</ele>
        <time>2020-06-06T14:45:14Z</time>
      </trkpt>
      <trkpt lat="47.7216" lon="-3.07186">
        <ele>32</ele>
        <time>2020-06-06T14:45:15Z</time>
      </trkpt>
      <trkpt lat="47.72164" lon="-3.07192">
        <ele>32</ele>
        <time>2020-06-06T14:45:16Z</time>
      </trkpt>
      <trkpt lat="47.72166" lon="-3.07197">
        <ele>32</ele>
        <time>2020-06-06T14:45:17Z</time>
      </trkpt>
      <trkpt lat="47.72168" lon="-3.07204">
        <ele>32.1</ele>
        <time>2020-06-06T14:45:18Z</time>
      </trkpt>
      <trkpt lat="47.72171" lon="-3.0721">
        <ele>32.1</ele>
        <time>2020-06-06T14:45:19Z</time>
      </trkpt>
      <trkpt lat="47.72174" lon="-3.07217">
        <ele>32.1</ele>
        <time>2020-06-06T14:45:20Z</time>
      </trkpt>
      <trkpt lat="47.72176" lon="-3.07225">
        <ele>32.1</ele>
        <time>2020-06-06T14:45:21Z</time>
      </trkpt>
      <trkpt lat="47.72178" lon="-3.07233">
        <ele>32.2</ele>
        <time>2020-06-06T14:45:22Z</time>
      </trkpt>
      <trkpt lat="47.72181" lon="-3.07239">
        <ele>32.2</ele>
        <time>2020-06-06T14:45:23Z</time>
      </trkpt>
      <trkpt lat="47.72182" lon="-3.07245">
        <ele>32.2</ele>
        <time>2020-06-06T14:45:24Z</time>
      </trkpt>
      <trkpt lat="47.72185" lon="-3.07251">
        <ele>32.2</ele>
        <time>2020-06-06T14:45:25Z</time>
      </trkpt>
      <trkpt lat="47.72189" lon="-3.07258">
        <ele>32.2</ele>
        <time>2020-06-06T14:45:26Z</time>
      </trkpt>
      <trkpt lat="47.72191" lon="-3.07265">
        <ele>32.2</ele>
        <time>2020-06-06T14:45:27Z</time>
      </trkpt>
      <trkpt lat="47.72194" lon="-3.07272">
        <ele>32.2</ele>
        <time>2020-06-06T14:45:28Z</time>
      </trkpt>
      <trkpt lat="47.72196" lon="-3.07278">
        <ele>32.3</ele>
        <time>2020-06-06T14:45:29Z</time>
      </trkpt>
      <trkpt lat="47.72198" lon="-3.07284">
        <ele>32.3</ele>
        <time>2020-06-06T14:45:30Z</time>
      </trkpt>
      <trkpt lat="47.72203" lon="-3.07291">
        <ele>32.3</ele>
        <time>2020-06-06T14:45:31Z</time>
      </trkpt>
      <trkpt lat="47.72204" lon="-3.07297">
        <ele>32.3</ele>
        <time>2020-06-06T14:45:32Z</time>
      </trkpt>
      <trkpt lat="47.72207" lon="-3.07305">
        <ele>32.3</ele>
        <time>2020-06-06T14:45:33Z</time>
      </trkpt>
      <trkpt lat="47.7221" lon="-3.07312">
        <ele>32.3</ele>
        <time>2020-06-06T14:45:34Z</time>
      </trkpt>
      <trkpt lat="47.72213" lon="-3.07319">
        <ele>32.3</ele>
        <time>2020-06-06T14:45:35Z</time>
      </trkpt>
      <trkpt lat="47.72216" lon="-3.07325">
        <ele>32.3</ele>
        <time>2020-06-06T14:45:36Z</time>
      </trkpt>
      <trkpt lat="47.72217" lon="-3.0733">
        <ele>32.3</ele>
        <time>2020-06-06T14:45:37Z</time>
      </trkpt>
      <trkpt lat="47.7222" lon="-3.07338">
        <ele>32.4</ele>
        <time>2020-06-06T14:45:38Z</time>
      </trkpt>
      <trkpt lat="47.72222" lon="-3.07346">
        <ele>32.4</ele>
        <time>2020-06-06T14:45:39Z</time>
      </trkpt>
      <trkpt lat="47.72225" lon="-3.07353">
        <ele>32.4</ele>
        <time>2020-06-06T14:45:40Z</time>
      </trkpt>
      <trkpt lat="47.72228" lon="-3.07358">
        <ele>32.4</ele>
        <time>2020-06-06T14:45:41Z</time>
      </trkpt>
      <trkpt lat="47.7223" lon="-3.07365">
        <ele>32.5</ele>
        <time>2020-06-06T14:45:42Z</time>
      </trkpt>
      <trkpt lat="47.72234" lon="-3.07372">
        <ele>32.5</ele>
        <time>2020-06-06T14:45:43Z</time>
      </trkpt>
      <trkpt lat="47.72237" lon="-3.07379">
        <ele>32.5</ele>
        <time>2020-06-06T14:45:44Z</time>
      </trkpt>
      <trkpt lat="47.7224" lon="-3.07385">
        <ele>32.5</ele>
        <time>2020-06-06T14:45:45Z</time>
      </trkpt>
      <trkpt lat="47.72243" lon="-3.07394">
        <ele>32.5</ele>
        <time>2020-06-06T14:45:46Z</time>
      </trkpt>
      <trkpt lat="47.72246" lon="-3.07401">
        <ele>32.5</ele>
        <time>2020-06-06T14:45:47Z</time>
      </trkpt>
      <trkpt lat="47.72248" lon="-3.07407">
        <ele>32.6</ele>
        <time>2020-06-06T14:45:48Z</time>
      </trkpt>
      <trkpt lat="47.7225" lon="-3.07413">
        <ele>32.6</ele>
        <time>2020-06-06T14:45:49Z</time>
      </trkpt>
      <trkpt lat="47.72253" lon="-3.07421">
        <ele>32.6</ele>
        <time>2020-06-06T14:45:50Z</time>
      </trkpt>
      <trkpt lat="47.72255" lon="-3.07428">
        <ele>32.7</ele>
        <time>2020-06-06T14:45:51Z</time>
      </trkpt>
      <trkpt lat="47.72258" lon="-3.07435">
        <ele>32.7</ele>
        <time>2020-06-06T14:45:52Z</time>
      </trkpt>
      <trkpt lat="47.72262" lon="-3.07443">
        <ele>32.7</ele>
        <time>2020-06-06T14:45:53Z</time>
      </trkpt>
      <trkpt lat="47.72265" lon="-3.07451">
        <ele>32.7</ele>
        <time>2020-06-06T14:45:54Z</time>
      </trkpt>
      <trkpt lat="47.72267" lon="-3.07457">
        <ele>32.8</ele>
        <time>2020-06-06T14:45:55Z</time>
      </trkpt>
      <trkpt lat="47.7227" lon="-3.07464">
        <ele>32.8</ele>
        <time>2020-06-06T14:45:56Z</time>
      </trkpt>
      <trkpt lat="47.72272" lon="-3.0747">
        <ele>32.8</ele>
        <time>2020-06-06T14:45:57Z</time>
      </trkpt>
      <trkpt lat="47.72274" lon="-3.07477">
        <ele>32.8</ele>
        <time>2020-06-06T14:45:58Z</time>
      </trkpt>
      <trkpt lat="47.72276" lon="-3.07484">
        <ele>32.8</ele>
        <time>2020-06-06T14:45:59Z</time>
      </trkpt>
      <trkpt lat="47.72279" lon="-3.0749">
        <ele>32.9</ele>
        <time>2020-06-06T14:46:00Z</time>
      </trkpt>
      <trkpt lat="47.72282" lon="-3.07498">
        <ele>32.9</ele>
        <time>2020-06-06T14:46:01Z</time>
      </trkpt>
      <trkpt lat="47.72284" lon="-3.07505">
        <ele>32.9</ele>
        <time>2020-06-06T14:46:02Z</time>
      </trkpt>
      <trkpt lat="47.72287" lon="-3.07512">
        <ele>33</ele>
        <time>2020-06-06T14:46:03Z</time>
      </trkpt>
      <trkpt lat="47.7229" lon="-3.0752">
        <ele>33</ele>
        <time>2020-06-06T14:46:04Z</time>
      </trkpt>
      <trkpt lat="47.72293" lon="-3.07527">
        <ele>33</ele>
        <time>2020-06-06T14:46:05Z</time>
      </trkpt>
      <trkpt lat="47.72296" lon="-3.07536">
        <ele>33.1</ele>
        <time>2020-06-06T14:46:06Z</time>
      </trkpt>
      <trkpt lat="47.72299" lon="-3.07544">
        <ele>33.1</ele>
        <time>2020-06-06T14:46:07Z</time>
      </trkpt>
      <trkpt lat="47.72302" lon="-3.07552">
        <ele>33.2</ele>
        <time>2020-06-06T14:46:08Z</time>
      </trkpt>
      <trkpt lat="47.72305" lon="-3.07561">
        <ele>33.2</ele>
        <time>2020-06-06T14:46:09Z</time>
      </trkpt>
      <trkpt lat="47.72307" lon="-3.07569">
        <ele>33.2</ele>
        <time>2020-06-06T14:46:10Z</time>
      </trkpt>
      <trkpt lat="47.7231" lon="-3.07577">
        <ele>33.2</ele>
        <time>2020-06-06T14:46:11Z</time>
      </trkpt>
      <trkpt lat="47.72313" lon="-3.07584">
        <ele>33.2</ele>
        <time>2020-06-06T14:46:12Z</time>
      </trkpt>
      <trkpt lat="47.72316" lon="-3.07592">
        <ele>33.3</ele>
        <time>2020-06-06T14:46:13Z</time>
      </trkpt>
      <trkpt lat="47.72319" lon="-3.07602">
        <ele>33.3</ele>
        <time>2020-06-06T14:46:14Z</time>
      </trkpt>
      <trkpt lat="47.72322" lon="-3.0761">
        <ele>33.3</ele>
        <time>2020-06-06T14:46:15Z</time>
      </trkpt>
      <trkpt lat="47.72325" lon="-3.07619">
        <ele>33.3</ele>
        <time>2020-06-06T14:46:16Z</time>
      </trkpt>
      <trkpt lat="47.72328" lon="-3.07627">
        <ele>33.4</ele>
        <time>2020-06-06T14:46:17Z</time>
      </trkpt>
      <trkpt lat="47.7233" lon="-3.07636">
        <ele>33.5</ele>
        <time>2020-06-06T14:46:18Z</time>
      </trkpt>
      <trkpt lat="47.72333" lon="-3.07644">
        <ele>33.6</ele>
        <time>2020-06-06T14:46:19Z</time>
      </trkpt>
      <trkpt lat="47.72336" lon="-3.07652">
        <ele>33.7</ele>
        <time>2020-06-06T14:46:20Z</time>
      </trkpt>
      <trkpt lat="47.72339" lon="-3.0766">
        <ele>33.9</ele>
        <time>2020-06-06T14:46:21Z</time>
      </trkpt>
      <trkpt lat="47.72342" lon="-3.07668">
        <ele>33.9</ele>
        <time>2020-06-06T14:46:22Z</time>
      </trkpt>
      <trkpt lat="47.72344" lon="-3.07676">
        <ele>33.9</ele>
        <time>2020-06-06T14:46:23Z</time>
      </trkpt>
      <trkpt lat="47.72346" lon="-3.07683">
        <ele>33.8</ele>
        <time>2020-06-06T14:46:24Z</time>
      </trkpt>
      <trkpt lat="47.7235" lon="-3.0769">
        <ele>33.8</ele>
        <time>2020-06-06T14:46:25Z</time>
      </trkpt>
      <trkpt lat="47.72353" lon="-3.07698">
        <ele>33.7</ele>
        <time>2020-06-06T14:46:26Z</time>
      </trkpt>
      <trkpt lat="47.72355" lon="-3.07705">
        <ele>33.7</ele>
        <time>2020-06-06T14:46:27Z</time>
      </trkpt>
      <trkpt lat="47.72358" lon="-3.07712">
        <ele>33.7</ele>
        <time>2020-06-06T14:46:28Z</time>
      </trkpt>
      <trkpt lat="47.72361" lon="-3.07719">
        <ele>33.6</ele>
        <time>2020-06-06T14:46:29Z</time>
      </trkpt>
      <trkpt lat="47.72363" lon="-3.07726">
        <ele>33.6</ele>
        <time>2020-06-06T14:46:30Z</time>
      </trkpt>
      <trkpt lat="47.72366" lon="-3.07733">
        <ele>33.6</ele>
        <time>2020-06-06T14:46:31Z</time>
      </trkpt>
      <trkpt lat="47.72369" lon="-3.0774">
        <ele>33.7</ele>
        <time>2020-06-06T14:46:32Z</time>
      </trkpt>
      <trkpt lat="47.72372" lon="-3.07747">
        <ele>33.7</ele>
        <time>2020-06-06T14:46:33Z</time>
      </trkpt>
      <trkpt lat="47.72374" lon="-3.07754">
        <ele>33.8</ele>
        <time>2020-06-06T14:46:34Z</time>
      </trkpt>
      <trkpt lat="47.72377" lon="-3.07762">
        <ele>33.8</ele>
        <time>2020-06-06T14:46:35Z</time>
      </trkpt>
      <trkpt lat="47.7238" lon="-3.07771">
        <ele>33.9</ele>
        <time>2020-06-06T14:46:36Z</time>
      </trkpt>
      <trkpt lat="47.72384" lon="-3.07778">
        <ele>34</ele>
        <time>2020-06-06T14:46:37Z</time>
      </trkpt>
      <trkpt lat="47.72388" lon="-3.07785">
        <ele>34</ele>
        <time>2020-06-06T14:46:38Z</time>
      </trkpt>
      <trkpt lat="47.72391" lon="-3.07791">
        <ele>34</ele>
        <time>2020-06-06T14:46:39Z</time>
      </trkpt>
      <trkpt lat="47.72395" lon="-3.07798">
        <ele>34</ele>
        <time>2020-06-06T14:46:40Z</time>
      </trkpt>
      <trkpt lat="47.72398" lon="-3.07804">
        <ele>33.9</ele>
        <time>2020-06-06T14:46:41Z</time>
      </trkpt>
      <trkpt lat="47.72402" lon="-3.0781">
        <ele>33.9</ele>
        <time>2020-06-06T14:46:42Z</time>
      </trkpt>
      <trkpt lat="47.72405" lon="-3.07815">
        <ele>34</ele>
        <time>2020-06-06T14:46:43Z</time>
      </trkpt>
      <trkpt lat="47.72408" lon="-3.07821">
        <ele>34</ele>
        <time>2020-06-06T14:46:44Z</time>
      </trkpt>
      <trkpt lat="47.72409" lon="-3.07825">
        <ele>34</ele>
        <time>2020-06-06T14:46:45Z</time>
      </trkpt>
      <trkpt lat="47.72411" lon="-3.07829">
        <ele>34</ele>
        <time>2020-06-06T14:46:46Z</time>
      </trkpt>
      <trkpt lat="47.72413" lon="-3.07834">
        <ele>34</ele>
        <time>2020-06-06T14:46:47Z</time>
      </trkpt>
      <trkpt lat="47.72415" lon="-3.07839">
        <ele>34.1</ele>
        <time>2020-06-06T14:46:48Z</time>
      </trkpt>
      <trkpt lat="47.72417" lon="-3.07845">
        <ele>34.1</ele>
        <time>2020-06-06T14:46:49Z</time>
      </trkpt>
      <trkpt lat="47.72419" lon="-3.07849">
        <ele>34.1</ele>
        <time>2020-06-06T14:46:50Z</time>
      </trkpt>
      <trkpt lat="47.72421" lon="-3.07854">
        <ele>34.1</ele>
        <time>2020-06-06T14:46:51Z</time>
      </trkpt>
      <trkpt lat="47.72423" lon="-3.0786">
        <ele>34.1</ele>
        <time>2020-06-06T14:46:52Z</time>
      </trkpt>
      <trkpt lat="47.72425" lon="-3.07863">
        <ele>34.1</ele>
        <time>2020-06-06T14:46:53Z</time>
      </trkpt>
      <trkpt lat="47.72426" lon="-3.07868">
        <ele>34.1</ele>
        <time>2020-06-06T14:46:54Z</time>
      </trkpt>
      <trkpt lat="47.72428" lon="-3.07872">
        <ele>34.1</ele>
        <time>2020-06-06T14:46:55Z</time>
      </trkpt>
      <trkpt lat="47.72429" lon="-3.07877">
        <ele>34.1</ele>
        <time>2020-06-06T14:46:56Z</time>
      </trkpt>
      <trkpt lat="47.72431" lon="-3.07882">
        <ele>34.1</ele>
        <time>2020-06-06T14:46:57Z</time>
      </trkpt>
      <trkpt lat="47.72432" lon="-3.07886">
        <ele>34.1</ele>
        <time>2020-06-06T14:46:58Z</time>
      </trkpt>
      <trkpt lat="47.72434" lon="-3.07891">
        <ele>34.1</ele>
        <time>2020-06-06T14:46:59Z</time>
      </trkpt>
      <trkpt lat="47.72435" lon="-3.07894">
        <ele>34.1</ele>
        <time>2020-06-06T14:47:00Z</time>
      </trkpt>
      <trkpt lat="47.72435" lon="-3.07896">
        <ele>34.1</ele>
        <time>2020-06-06T14:47:01Z</time>
      </trkpt>
      <trkpt lat="47.72437" lon="-3.079">
        <ele>34.1</ele>
        <time>2020-06-06T14:47:02Z</time>
      </trkpt>
      <trkpt lat="47.72438" lon="-3.07904">
        <ele>34.1</ele>
        <time>2020-06-06T14:47:03Z</time>
      </trkpt>
      <trkpt lat="47.72441" lon="-3.0791">
        <ele>34</ele>
        <time>2020-06-06T14:47:04Z</time>
      </trkpt>
      <trkpt lat="47.72441" lon="-3.07912">
        <ele>34</ele>
        <time>2020-06-06T14:47:05Z</time>
      </trkpt>
      <trkpt lat="47.72443" lon="-3.07915">
        <ele>34</ele>
        <time>2020-06-06T14:47:06Z</time>
      </trkpt>
      <trkpt lat="47.72445" lon="-3.0792">
        <ele>33.9</ele>
        <time>2020-06-06T14:47:07Z</time>
      </trkpt>
      <trkpt lat="47.72446" lon="-3.07922">
        <ele>33.9</ele>
        <time>2020-06-06T14:47:08Z</time>
      </trkpt>
      <trkpt lat="47.72447" lon="-3.07925">
        <ele>33.9</ele>
        <time>2020-06-06T14:47:09Z</time>
      </trkpt>
      <trkpt lat="47.72449" lon="-3.07929">
        <ele>33.8</ele>
        <time>2020-06-06T14:47:10Z</time>
      </trkpt>
      <trkpt lat="47.7245" lon="-3.07933">
        <ele>33.8</ele>
        <time>2020-06-06T14:47:11Z</time>
      </trkpt>
      <trkpt lat="47.72452" lon="-3.07938">
        <ele>33.7</ele>
        <time>2020-06-06T14:47:12Z</time>
      </trkpt>
      <trkpt lat="47.72453" lon="-3.0794">
        <ele>33.7</ele>
        <time>2020-06-06T14:47:13Z</time>
      </trkpt>
      <trkpt lat="47.72455" lon="-3.07946">
        <ele>33.6</ele>
        <time>2020-06-06T14:47:14Z</time>
      </trkpt>
      <trkpt lat="47.72455" lon="-3.07948">
        <ele>33.6</ele>
        <time>2020-06-06T14:47:15Z</time>
      </trkpt>
      <trkpt lat="47.72457" lon="-3.07953">
        <ele>33.6</ele>
        <time>2020-06-06T14:47:16Z</time>
      </trkpt>
      <trkpt lat="47.72458" lon="-3.07957">
        <ele>33.5</ele>
        <time>2020-06-06T14:47:17Z</time>
      </trkpt>
      <trkpt lat="47.72459" lon="-3.0796">
        <ele>33.5</ele>
        <time>2020-06-06T14:47:18Z</time>
      </trkpt>
      <trkpt lat="47.7246" lon="-3.07961">
        <ele>33.5</ele>
        <time>2020-06-06T14:47:19Z</time>
      </trkpt>
      <trkpt lat="47.72461" lon="-3.07963">
        <ele>33.5</ele>
        <time>2020-06-06T14:47:20Z</time>
      </trkpt>
      <trkpt lat="47.72461" lon="-3.07964">
        <ele>33.5</ele>
        <time>2020-06-06T14:47:21Z</time>
      </trkpt>
      <trkpt lat="47.72461" lon="-3.07965">
        <ele>33.5</ele>
        <time>2020-06-06T14:47:22Z</time>
      </trkpt>
      <trkpt lat="47.72462" lon="-3.07965">
        <ele>33.5</ele>
        <time>2020-06-06T14:47:23Z</time>
      </trkpt>
      <trkpt lat="47.72462" lon="-3.07966">
        <ele>33.5</ele>
        <time>2020-06-06T14:47:24Z</time>
      </trkpt>
      <trkpt lat="47.72462" lon="-3.07965">
        <ele>33.5</ele>
        <time>2020-06-06T14:47:25Z</time>
      </trkpt>
      <trkpt lat="47.72462" lon="-3.07966">
        <ele>33.5</ele>
        <time>2020-06-06T14:47:26Z</time>
      </trkpt>
      <trkpt lat="47.72463" lon="-3.07966">
        <ele>33.4</ele>
        <time>2020-06-06T14:47:27Z</time>
      </trkpt>
      <trkpt lat="47.72463" lon="-3.07965">
        <ele>33.4</ele>
        <time>2020-06-06T14:47:28Z</time>
      </trkpt>
      <trkpt lat="47.72463" lon="-3.07966">
        <ele>33.4</ele>
        <time>2020-06-06T14:47:29Z</time>
      </trkpt>
      <trkpt lat="47.72463" lon="-3.07967">
        <ele>33.4</ele>
        <time>2020-06-06T14:47:30Z</time>
      </trkpt>
      <trkpt lat="47.72463" lon="-3.07967">
        <ele>33.4</ele>
        <time>2020-06-06T14:47:31Z</time>
      </trkpt>
      <trkpt lat="47.72464" lon="-3.07967">
        <ele>33.4</ele>
        <time>2020-06-06T14:47:32Z</time>
      </trkpt>
      <trkpt lat="47.72464" lon="-3.07967">
        <ele>33.4</ele>
        <time>2020-06-06T14:47:33Z</time>
      </trkpt>
      <trkpt lat="47.72464" lon="-3.07968">
        <ele>33.4</ele>
        <time>2020-06-06T14:47:34Z</time>
      </trkpt>
      <trkpt lat="47.72464" lon="-3.07968">
        <ele>33.4</ele>
        <time>2020-06-06T14:47:35Z</time>
      </trkpt>
      <trkpt lat="47.72464" lon="-3.07968">
        <ele>33.4</ele>
        <time>2020-06-06T14:47:36Z</time>
      </trkpt>
      <trkpt lat="47.72465" lon="-3.07968">
        <ele>33.4</ele>
        <time>2020-06-06T14:47:37Z</time>
      </trkpt>
      <trkpt lat="47.7246" lon="-3.07971">
        <ele>33.4</ele>
        <time>2020-06-06T14:49:27Z</time>
      </trkpt>
      <trkpt lat="47.72461" lon="-3.07972">
        <ele>33.3</ele>
        <time>2020-06-06T14:49:28Z</time>
      </trkpt>
      <trkpt lat="47.72461" lon="-3.07973">
        <ele>33.3</ele>
        <time>2020-06-06T14:49:29Z</time>
      </trkpt>
      <trkpt lat="47.72462" lon="-3.07976">
        <ele>33.3</ele>
        <time>2020-06-06T14:49:30Z</time>
      </trkpt>
      <trkpt lat="47.72463" lon="-3.07978">
        <ele>33.3</ele>
        <time>2020-06-06T14:49:31Z</time>
      </trkpt>
      <trkpt lat="47.72464" lon="-3.07982">
        <ele>33.2</ele>
        <time>2020-06-06T14:49:32Z</time>
      </trkpt>
      <trkpt lat="47.72465" lon="-3.07983">
        <ele>33.2</ele>
        <time>2020-06-06T14:49:33Z</time>
      </trkpt>
      <trkpt lat="47.72466" lon="-3.07988">
        <ele>33.1</ele>
        <time>2020-06-06T14:49:34Z</time>
      </trkpt>
      <trkpt lat="47.72466" lon="-3.07989">
        <ele>33.1</ele>
        <time>2020-06-06T14:49:35Z</time>
      </trkpt>
      <trkpt lat="47.72467" lon="-3.07994">
        <ele>33.1</ele>
        <time>2020-06-06T14:49:36Z</time>
      </trkpt>
      <trkpt lat="47.72467" lon="-3.07995">
        <ele>33</ele>
        <time>2020-06-06T14:49:37Z</time>
      </trkpt>
      <trkpt lat="47.72467" lon="-3.08001">
        <ele>33</ele>
        <time>2020-06-06T14:49:38Z</time>
      </trkpt>
      <trkpt lat="47.72468" lon="-3.08003">
        <ele>32.9</ele>
        <time>2020-06-06T14:49:39Z</time>
      </trkpt>
      <trkpt lat="47.72469" lon="-3.08009">
        <ele>32.9</ele>
        <time>2020-06-06T14:49:40Z</time>
      </trkpt>
      <trkpt lat="47.72469" lon="-3.08011">
        <ele>32.8</ele>
        <time>2020-06-06T14:49:41Z</time>
      </trkpt>
      <trkpt lat="47.72469" lon="-3.08016">
        <ele>32.7</ele>
        <time>2020-06-06T14:49:42Z</time>
      </trkpt>
      <trkpt lat="47.7247" lon="-3.08021">
        <ele>32.6</ele>
        <time>2020-06-06T14:49:43Z</time>
      </trkpt>
      <trkpt lat="47.72471" lon="-3.08027">
        <ele>32.5</ele>
        <time>2020-06-06T14:49:44Z</time>
      </trkpt>
      <trkpt lat="47.72472" lon="-3.08033">
        <ele>32.4</ele>
        <time>2020-06-06T14:49:45Z</time>
      </trkpt>
      <trkpt lat="47.72473" lon="-3.08039">
        <ele>32.3</ele>
        <time>2020-06-06T14:49:46Z</time>
      </trkpt>
      <trkpt lat="47.72475" lon="-3.08045">
        <ele>32.1</ele>
        <time>2020-06-06T14:49:47Z</time>
      </trkpt>
      <trkpt lat="47.72476" lon="-3.08052">
        <ele>32</ele>
        <time>2020-06-06T14:49:48Z</time>
      </trkpt>
      <trkpt lat="47.72479" lon="-3.08059">
        <ele>31.8</ele>
        <time>2020-06-06T14:49:49Z</time>
      </trkpt>
      <trkpt lat="47.72481" lon="-3.08066">
        <ele>31.6</ele>
        <time>2020-06-06T14:49:50Z</time>
      </trkpt>
      <trkpt lat="47.72483" lon="-3.08073">
        <ele>31.4</ele>
        <time>2020-06-06T14:49:51Z</time>
      </trkpt>
      <trkpt lat="47.72485" lon="-3.08081">
        <ele>31.2</ele>
        <time>2020-06-06T14:49:52Z</time>
      </trkpt>
      <trkpt lat="47.72488" lon="-3.08091">
        <ele>30.9</ele>
        <time>2020-06-06T14:49:53Z</time>
      </trkpt>
      <trkpt lat="47.72491" lon="-3.081">
        <ele>30.6</ele>
        <time>2020-06-06T14:49:54Z</time>
      </trkpt>
      <trkpt lat="47.72495" lon="-3.08107">
        <ele>30.4</ele>
        <time>2020-06-06T14:49:55Z</time>
      </trkpt>
      <trkpt lat="47.72497" lon="-3.08115">
        <ele>30.2</ele>
        <time>2020-06-06T14:49:56Z</time>
      </trkpt>
      <trkpt lat="47.725" lon="-3.08121">
        <ele>30</ele>
        <time>2020-06-06T14:49:57Z</time>
      </trkpt>
      <trkpt lat="47.72506" lon="-3.08129">
        <ele>29.6</ele>
        <time>2020-06-06T14:49:58Z</time>
      </trkpt>
      <trkpt lat="47.72509" lon="-3.08136">
        <ele>29.4</ele>
        <time>2020-06-06T14:49:59Z</time>
      </trkpt>
      <trkpt lat="47.72514" lon="-3.08144">
        <ele>29.1</ele>
        <time>2020-06-06T14:50:00Z</time>
      </trkpt>
      <trkpt lat="47.7252" lon="-3.08151">
        <ele>28.8</ele>
        <time>2020-06-06T14:50:01Z</time>
      </trkpt>
      <trkpt lat="47.72524" lon="-3.08159">
        <ele>28.4</ele>
        <time>2020-06-06T14:50:02Z</time>
      </trkpt>
      <trkpt lat="47.72527" lon="-3.08167">
        <ele>28.1</ele>
        <time>2020-06-06T14:50:03Z</time>
      </trkpt>
      <trkpt lat="47.72531" lon="-3.08174">
        <ele>27.8</ele>
        <time>2020-06-06T14:50:04Z</time>
      </trkpt>
      <trkpt lat="47.72534" lon="-3.08182">
        <ele>27.6</ele>
        <time>2020-06-06T14:50:05Z</time>
      </trkpt>
      <trkpt lat="47.72538" lon="-3.0819">
        <ele>27.3</ele>
        <time>2020-06-06T14:50:06Z</time>
      </trkpt>
      <trkpt lat="47.72541" lon="-3.08199">
        <ele>27</ele>
        <time>2020-06-06T14:50:07Z</time>
      </trkpt>
      <trkpt lat="47.72545" lon="-3.08207">
        <ele>26.7</ele>
        <time>2020-06-06T14:50:08Z</time>
      </trkpt>
      <trkpt lat="47.72549" lon="-3.08216">
        <ele>26.5</ele>
        <time>2020-06-06T14:50:09Z</time>
      </trkpt>
      <trkpt lat="47.72552" lon="-3.08224">
        <ele>26.2</ele>
        <time>2020-06-06T14:50:10Z</time>
      </trkpt>
      <trkpt lat="47.72555" lon="-3.08232">
        <ele>25.9</ele>
        <time>2020-06-06T14:50:11Z</time>
      </trkpt>
      <trkpt lat="47.72558" lon="-3.08241">
        <ele>25.6</ele>
        <time>2020-06-06T14:50:12Z</time>
      </trkpt>
      <trkpt lat="47.72561" lon="-3.0825">
        <ele>25.3</ele>
        <time>2020-06-06T14:50:13Z</time>
      </trkpt>
      <trkpt lat="47.72565" lon="-3.0826">
        <ele>25</ele>
        <time>2020-06-06T14:50:14Z</time>
      </trkpt>
      <trkpt lat="47.72569" lon="-3.08269">
        <ele>24.7</ele>
        <time>2020-06-06T14:50:15Z</time>
      </trkpt>
      <trkpt lat="47.72572" lon="-3.08277">
        <ele>24.4</ele>
        <time>2020-06-06T14:50:16Z</time>
      </trkpt>
      <trkpt lat="47.72577" lon="-3.08287">
        <ele>24.1</ele>
        <time>2020-06-06T14:50:17Z</time>
      </trkpt>
      <trkpt lat="47.72581" lon="-3.08296">
        <ele>23.8</ele>
        <time>2020-06-06T14:50:18Z</time>
      </trkpt>
      <trkpt lat="47.72584" lon="-3.08305">
        <ele>23.5</ele>
        <time>2020-06-06T14:50:19Z</time>
      </trkpt>
      <trkpt lat="47.72587" lon="-3.08315">
        <ele>23.2</ele>
        <time>2020-06-06T14:50:20Z</time>
      </trkpt>
      <trkpt lat="47.72591" lon="-3.08325">
        <ele>22.9</ele>
        <time>2020-06-06T14:50:21Z</time>
      </trkpt>
      <trkpt lat="47.72595" lon="-3.08334">
        <ele>22.7</ele>
        <time>2020-06-06T14:50:22Z</time>
      </trkpt>
      <trkpt lat="47.72598" lon="-3.08343">
        <ele>22.4</ele>
        <time>2020-06-06T14:50:23Z</time>
      </trkpt>
      <trkpt lat="47.72602" lon="-3.08351">
        <ele>22.2</ele>
        <time>2020-06-06T14:50:24Z</time>
      </trkpt>
      <trkpt lat="47.72605" lon="-3.0836">
        <ele>21.9</ele>
        <time>2020-06-06T14:50:25Z</time>
      </trkpt>
      <trkpt lat="47.72608" lon="-3.08369">
        <ele>21.6</ele>
        <time>2020-06-06T14:50:26Z</time>
      </trkpt>
      <trkpt lat="47.72612" lon="-3.08379">
        <ele>21.3</ele>
        <time>2020-06-06T14:50:27Z</time>
      </trkpt>
      <trkpt lat="47.72615" lon="-3.08388">
        <ele>21</ele>
        <time>2020-06-06T14:50:28Z</time>
      </trkpt>
      <trkpt lat="47.72619" lon="-3.08397">
        <ele>20.7</ele>
        <time>2020-06-06T14:50:29Z</time>
      </trkpt>
      <trkpt lat="47.72622" lon="-3.08407">
        <ele>20.4</ele>
        <time>2020-06-06T14:50:30Z</time>
      </trkpt>
      <trkpt lat="47.72626" lon="-3.08416">
        <ele>20.1</ele>
        <time>2020-06-06T14:50:31Z</time>
      </trkpt>
      <trkpt lat="47.72629" lon="-3.08426">
        <ele>19.8</ele>
        <time>2020-06-06T14:50:32Z</time>
      </trkpt>
      <trkpt lat="47.72633" lon="-3.08435">
        <ele>19.5</ele>
        <time>2020-06-06T14:50:33Z</time>
      </trkpt>
      <trkpt lat="47.72637" lon="-3.08445">
        <ele>19.1</ele>
        <time>2020-06-06T14:50:34Z</time>
      </trkpt>
      <trkpt lat="47.7264" lon="-3.08454">
        <ele>18.8</ele>
        <time>2020-06-06T14:50:35Z</time>
      </trkpt>
      <trkpt lat="47.72644" lon="-3.08464">
        <ele>18.4</ele>
        <time>2020-06-06T14:50:36Z</time>
      </trkpt>
      <trkpt lat="47.72647" lon="-3.08473">
        <ele>18</ele>
        <time>2020-06-06T14:50:37Z</time>
      </trkpt>
      <trkpt lat="47.72649" lon="-3.08483">
        <ele>17.8</ele>
        <time>2020-06-06T14:50:38Z</time>
      </trkpt>
      <trkpt lat="47.72651" lon="-3.08494">
        <ele>17.5</ele>
        <time>2020-06-06T14:50:39Z</time>
      </trkpt>
      <trkpt lat="47.72652" lon="-3.08504">
        <ele>17.2</ele>
        <time>2020-06-06T14:50:40Z</time>
      </trkpt>
      <trkpt lat="47.72654" lon="-3.08514">
        <ele>16.9</ele>
        <time>2020-06-06T14:50:41Z</time>
      </trkpt>
      <trkpt lat="47.72655" lon="-3.08525">
        <ele>16.7</ele>
        <time>2020-06-06T14:50:42Z</time>
      </trkpt>
      <trkpt lat="47.72655" lon="-3.08536">
        <ele>16.4</ele>
        <time>2020-06-06T14:50:43Z</time>
      </trkpt>
      <trkpt lat="47.72655" lon="-3.08547">
        <ele>16.2</ele>
        <time>2020-06-06T14:50:44Z</time>
      </trkpt>
      <trkpt lat="47.72654" lon="-3.08557">
        <ele>15.9</ele>
        <time>2020-06-06T14:50:45Z</time>
      </trkpt>
      <trkpt lat="47.72655" lon="-3.08569">
        <ele>15.6</ele>
        <time>2020-06-06T14:50:46Z</time>
      </trkpt>
      <trkpt lat="47.72654" lon="-3.08579">
        <ele>15.3</ele>
        <time>2020-06-06T14:50:47Z</time>
      </trkpt>
      <trkpt lat="47.72654" lon="-3.0859">
        <ele>15.1</ele>
        <time>2020-06-06T14:50:48Z</time>
      </trkpt>
      <trkpt lat="47.72654" lon="-3.086">
        <ele>15</ele>
        <time>2020-06-06T14:50:49Z</time>
      </trkpt>
      <trkpt lat="47.72654" lon="-3.0861">
        <ele>14.9</ele>
        <time>2020-06-06T14:50:50Z</time>
      </trkpt>
      <trkpt lat="47.72654" lon="-3.0862">
        <ele>14.8</ele>
        <time>2020-06-06T14:50:51Z</time>
      </trkpt>
      <trkpt lat="47.72654" lon="-3.08629">
        <ele>14.7</ele>
        <time>2020-06-06T14:50:52Z</time>
      </trkpt>
      <trkpt lat="47.72654" lon="-3.08639">
        <ele>14.7</ele>
        <time>2020-06-06T14:50:53Z</time>
      </trkpt>
      <trkpt lat="47.72655" lon="-3.08647">
        <ele>14.7</ele>
        <time>2020-06-06T14:50:54Z</time>
      </trkpt>
      <trkpt lat="47.72657" lon="-3.08655">
        <ele>14.7</ele>
        <time>2020-06-06T14:50:55Z</time>
      </trkpt>
      <trkpt lat="47.72658" lon="-3.08664">
        <ele>14.8</ele>
        <time>2020-06-06T14:50:56Z</time>
      </trkpt>
      <trkpt lat="47.72659" lon="-3.08673">
        <ele>14.9</ele>
        <time>2020-06-06T14:50:57Z</time>
      </trkpt>
      <trkpt lat="47.7266" lon="-3.08681">
        <ele>15</ele>
        <time>2020-06-06T14:50:58Z</time>
      </trkpt>
      <trkpt lat="47.72661" lon="-3.0869">
        <ele>15.1</ele>
        <time>2020-06-06T14:50:59Z</time>
      </trkpt>
      <trkpt lat="47.72661" lon="-3.08699">
        <ele>15.3</ele>
        <time>2020-06-06T14:51:00Z</time>
      </trkpt>
      <trkpt lat="47.72662" lon="-3.08707">
        <ele>15.4</ele>
        <time>2020-06-06T14:51:01Z</time>
      </trkpt>
      <trkpt lat="47.72664" lon="-3.08714">
        <ele>15.6</ele>
        <time>2020-06-06T14:51:02Z</time>
      </trkpt>
      <trkpt lat="47.72665" lon="-3.08722">
        <ele>15.9</ele>
        <time>2020-06-06T14:51:03Z</time>
      </trkpt>
      <trkpt lat="47.72665" lon="-3.08729">
        <ele>16.2</ele>
        <time>2020-06-06T14:51:04Z</time>
      </trkpt>
      <trkpt lat="47.72666" lon="-3.08736">
        <ele>16.4</ele>
        <time>2020-06-06T14:51:05Z</time>
      </trkpt>
      <trkpt lat="47.72667" lon="-3.08742">
        <ele>16.7</ele>
        <time>2020-06-06T14:51:06Z</time>
      </trkpt>
      <trkpt lat="47.72667" lon="-3.08747">
        <ele>17</ele>
        <time>2020-06-06T14:51:07Z</time>
      </trkpt>
      <trkpt lat="47.72669" lon="-3.08752">
        <ele>17.2</ele>
        <time>2020-06-06T14:51:08Z</time>
      </trkpt>
      <trkpt lat="47.72671" lon="-3.08756">
        <ele>17.5</ele>
        <time>2020-06-06T14:51:09Z</time>
      </trkpt>
      <trkpt lat="47.72673" lon="-3.08759">
        <ele>17.7</ele>
        <time>2020-06-06T14:51:10Z</time>
      </trkpt>
      <trkpt lat="47.72675" lon="-3.08762">
        <ele>17.9</ele>
        <time>2020-06-06T14:51:11Z</time>
      </trkpt>
      <trkpt lat="47.72676" lon="-3.08763">
        <ele>18</ele>
        <time>2020-06-06T14:51:12Z</time>
      </trkpt>
      <trkpt lat="47.72678" lon="-3.08764">
        <ele>18.1</ele>
        <time>2020-06-06T14:51:13Z</time>
      </trkpt>
      <trkpt lat="47.72679" lon="-3.08764">
        <ele>18.2</ele>
        <time>2020-06-06T14:51:14Z</time>
      </trkpt>
      <trkpt lat="47.72679" lon="-3.08763">
        <ele>18.3</ele>
        <time>2020-06-06T14:51:15Z</time>
      </trkpt>
      <trkpt lat="47.72679" lon="-3.08762">
        <ele>18.3</ele>
        <time>2020-06-06T14:51:16Z</time>
      </trkpt>
      <trkpt lat="47.72679" lon="-3.08761">
        <ele>18.4</ele>
        <time>2020-06-06T14:51:17Z</time>
      </trkpt>
      <trkpt lat="47.72679" lon="-3.08762">
        <ele>18.4</ele>
        <time>2020-06-06T14:51:18Z</time>
      </trkpt>
      <trkpt lat="47.72679" lon="-3.08762">
        <ele>18.4</ele>
        <time>2020-06-06T14:51:19Z</time>
      </trkpt>
      <trkpt lat="47.72679" lon="-3.08761">
        <ele>18.4</ele>
        <time>2020-06-06T14:51:20Z</time>
      </trkpt>
      <trkpt lat="47.7268" lon="-3.08761">
        <ele>18.5</ele>
        <time>2020-06-06T14:51:21Z</time>
      </trkpt>
      <trkpt lat="47.7268" lon="-3.08761">
        <ele>18.5</ele>
        <time>2020-06-06T14:51:22Z</time>
      </trkpt>
      <trkpt lat="47.72682" lon="-3.08762">
        <ele>18.6</ele>
        <time>2020-06-06T14:51:23Z</time>
      </trkpt>
      <trkpt lat="47.72683" lon="-3.08763">
        <ele>18.8</ele>
        <time>2020-06-06T14:51:24Z</time>
      </trkpt>
      <trkpt lat="47.72685" lon="-3.08765">
        <ele>18.9</ele>
        <time>2020-06-06T14:52:12Z</time>
      </trkpt>
      <trkpt lat="47.72686" lon="-3.08766">
        <ele>19</ele>
        <time>2020-06-06T14:52:13Z</time>
      </trkpt>
      <trkpt lat="47.72688" lon="-3.08768">
        <ele>19.2</ele>
        <time>2020-06-06T14:52:14Z</time>
      </trkpt>
      <trkpt lat="47.72687" lon="-3.08772">
        <ele>19.3</ele>
        <time>2020-06-06T14:52:15Z</time>
      </trkpt>
      <trkpt lat="47.72686" lon="-3.08777">
        <ele>19.5</ele>
        <time>2020-06-06T14:52:16Z</time>
      </trkpt>
      <trkpt lat="47.72685" lon="-3.08781">
        <ele>19.7</ele>
        <time>2020-06-06T14:52:17Z</time>
      </trkpt>
      <trkpt lat="47.72684" lon="-3.08786">
        <ele>19.9</ele>
        <time>2020-06-06T14:52:18Z</time>
      </trkpt>
      <trkpt lat="47.72682" lon="-3.0879">
        <ele>20</ele>
        <time>2020-06-06T14:52:19Z</time>
      </trkpt>
      <trkpt lat="47.7268" lon="-3.08795">
        <ele>20</ele>
        <time>2020-06-06T14:52:20Z</time>
      </trkpt>
      <trkpt lat="47.72676" lon="-3.08799">
        <ele>20.1</ele>
        <time>2020-06-06T14:52:21Z</time>
      </trkpt>
      <trkpt lat="47.72673" lon="-3.08806">
        <ele>20.1</ele>
        <time>2020-06-06T14:52:22Z</time>
      </trkpt>
      <trkpt lat="47.7267" lon="-3.08811">
        <ele>20.2</ele>
        <time>2020-06-06T14:52:23Z</time>
      </trkpt>
      <trkpt lat="47.72665" lon="-3.08816">
        <ele>20.3</ele>
        <time>2020-06-06T14:52:24Z</time>
      </trkpt>
      <trkpt lat="47.72662" lon="-3.08822">
        <ele>20.3</ele>
        <time>2020-06-06T14:52:25Z</time>
      </trkpt>
      <trkpt lat="47.72658" lon="-3.08829">
        <ele>20.4</ele>
        <time>2020-06-06T14:52:26Z</time>
      </trkpt>
      <trkpt lat="47.72655" lon="-3.08835">
        <ele>20.5</ele>
        <time>2020-06-06T14:52:27Z</time>
      </trkpt>
      <trkpt lat="47.72651" lon="-3.08841">
        <ele>20.6</ele>
        <time>2020-06-06T14:52:28Z</time>
      </trkpt>
      <trkpt lat="47.72648" lon="-3.08847">
        <ele>20.7</ele>
        <time>2020-06-06T14:52:29Z</time>
      </trkpt>
      <trkpt lat="47.72645" lon="-3.08852">
        <ele>20.8</ele>
        <time>2020-06-06T14:52:30Z</time>
      </trkpt>
      <trkpt lat="47.72642" lon="-3.08859">
        <ele>20.9</ele>
        <time>2020-06-06T14:52:31Z</time>
      </trkpt>
      <trkpt lat="47.72639" lon="-3.08864">
        <ele>21</ele>
        <time>2020-06-06T14:52:32Z</time>
      </trkpt>
      <trkpt lat="47.72637" lon="-3.08871">
        <ele>21.1</ele>
        <time>2020-06-06T14:52:33Z</time>
      </trkpt>
      <trkpt lat="47.72634" lon="-3.08878">
        <ele>21.2</ele>
        <time>2020-06-06T14:52:34Z</time>
      </trkpt>
      <trkpt lat="47.72632" lon="-3.08885">
        <ele>21.3</ele>
        <time>2020-06-06T14:52:35Z</time>
      </trkpt>
      <trkpt lat="47.7263" lon="-3.08891">
        <ele>21.4</ele>
        <time>2020-06-06T14:52:36Z</time>
      </trkpt>
      <trkpt lat="47.72627" lon="-3.08896">
        <ele>21.5</ele>
        <time>2020-06-06T14:52:37Z</time>
      </trkpt>
      <trkpt lat="47.72624" lon="-3.08901">
        <ele>21.5</ele>
        <time>2020-06-06T14:52:38Z</time>
      </trkpt>
      <trkpt lat="47.72622" lon="-3.08907">
        <ele>21.6</ele>
        <time>2020-06-06T14:52:39Z</time>
      </trkpt>
      <trkpt lat="47.7262" lon="-3.08913">
        <ele>21.7</ele>
        <time>2020-06-06T14:52:40Z</time>
      </trkpt>
      <trkpt lat="47.72618" lon="-3.08918">
        <ele>21.8</ele>
        <time>2020-06-06T14:52:41Z</time>
      </trkpt>
      <trkpt lat="47.72616" lon="-3.08923">
        <ele>21.8</ele>
        <time>2020-06-06T14:52:42Z</time>
      </trkpt>
      <trkpt lat="47.72614" lon="-3.08927">
        <ele>21.9</ele>
        <time>2020-06-06T14:52:43Z</time>
      </trkpt>
      <trkpt lat="47.72612" lon="-3.08932">
        <ele>21.9</ele>
        <time>2020-06-06T14:52:44Z</time>
      </trkpt>
      <trkpt lat="47.72611" lon="-3.08936">
        <ele>21.9</ele>
        <time>2020-06-06T14:52:45Z</time>
      </trkpt>
      <trkpt lat="47.7261" lon="-3.0894">
        <ele>21.9</ele>
        <time>2020-06-06T14:52:46Z</time>
      </trkpt>
      <trkpt lat="47.72609" lon="-3.08942">
        <ele>21.9</ele>
        <time>2020-06-06T14:52:47Z</time>
      </trkpt>
      <trkpt lat="47.72609" lon="-3.08942">
        <ele>21.9</ele>
        <time>2020-06-06T14:52:48Z</time>
      </trkpt>
      <trkpt lat="47.72608" lon="-3.08942">
        <ele>21.9</ele>
        <time>2020-06-06T14:52:49Z</time>
      </trkpt>
      <trkpt lat="47.72608" lon="-3.08942">
        <ele>21.9</ele>
        <time>2020-06-06T14:52:50Z</time>
      </trkpt>
      <trkpt lat="47.72608" lon="-3.08942">
        <ele>21.9</ele>
        <time>2020-06-06T14:52:51Z</time>
      </trkpt>
      <trkpt lat="47.72608" lon="-3.08942">
        <ele>21.9</ele>
        <time>2020-06-06T14:52:52Z</time>
      </trkpt>
      <trkpt lat="47.72607" lon="-3.08942">
        <ele>21.9</ele>
        <time>2020-06-06T14:52:53Z</time>
      </trkpt>
      <trkpt lat="47.72607" lon="-3.08942">
        <ele>21.9</ele>
        <time>2020-06-06T14:52:54Z</time>
      </trkpt>
      <trkpt lat="47.72607" lon="-3.08942">
        <ele>21.9</ele>
        <time>2020-06-06T14:52:55Z</time>
      </trkpt>
      <trkpt lat="47.72607" lon="-3.08942">
        <ele>21.9</ele>
        <time>2020-06-06T14:52:56Z</time>
      </trkpt>
      <trkpt lat="47.72606" lon="-3.08942">
        <ele>21.9</ele>
        <time>2020-06-06T14:52:57Z</time>
      </trkpt>
      <trkpt lat="47.72606" lon="-3.08942">
        <ele>21.9</ele>
        <time>2020-06-06T14:52:58Z</time>
      </trkpt>
      <trkpt lat="47.72606" lon="-3.08942">
        <ele>21.9</ele>
        <time>2020-06-06T14:52:59Z</time>
      </trkpt>
      <trkpt lat="47.72606" lon="-3.08942">
        <ele>21.9</ele>
        <time>2020-06-06T14:53:00Z</time>
      </trkpt>
      <trkpt lat="47.72604" lon="-3.08945">
        <ele>21.9</ele>
        <time>2020-06-06T14:53:01Z</time>
      </trkpt>
      <trkpt lat="47.72603" lon="-3.08947">
        <ele>21.9</ele>
        <time>2020-06-06T14:53:02Z</time>
      </trkpt>
      <trkpt lat="47.72601" lon="-3.08948">
        <ele>21.9</ele>
        <time>2020-06-06T14:53:03Z</time>
      </trkpt>
      <trkpt lat="47.72598" lon="-3.08953">
        <ele>21.9</ele>
        <time>2020-06-06T14:53:04Z</time>
      </trkpt>
      <trkpt lat="47.72597" lon="-3.08955">
        <ele>21.9</ele>
        <time>2020-06-06T14:53:05Z</time>
      </trkpt>
      <trkpt lat="47.72595" lon="-3.08959">
        <ele>21.8</ele>
        <time>2020-06-06T14:53:06Z</time>
      </trkpt>
      <trkpt lat="47.72593" lon="-3.08962">
        <ele>21.8</ele>
        <time>2020-06-06T14:53:07Z</time>
      </trkpt>
      <trkpt lat="47.72591" lon="-3.08965">
        <ele>21.8</ele>
        <time>2020-06-06T14:53:08Z</time>
      </trkpt>
      <trkpt lat="47.7259" lon="-3.08967">
        <ele>21.8</ele>
        <time>2020-06-06T14:53:09Z</time>
      </trkpt>
      <trkpt lat="47.72587" lon="-3.0897">
        <ele>21.7</ele>
        <time>2020-06-06T14:53:10Z</time>
      </trkpt>
      <trkpt lat="47.72585" lon="-3.08975">
        <ele>21.7</ele>
        <time>2020-06-06T14:53:11Z</time>
      </trkpt>
      <trkpt lat="47.72583" lon="-3.08978">
        <ele>21.7</ele>
        <time>2020-06-06T14:53:12Z</time>
      </trkpt>
      <trkpt lat="47.72581" lon="-3.08982">
        <ele>21.6</ele>
        <time>2020-06-06T14:53:13Z</time>
      </trkpt>
      <trkpt lat="47.72578" lon="-3.08987">
        <ele>21.6</ele>
        <time>2020-06-06T14:53:14Z</time>
      </trkpt>
      <trkpt lat="47.72576" lon="-3.08992">
        <ele>21.5</ele>
        <time>2020-06-06T14:53:15Z</time>
      </trkpt>
      <trkpt lat="47.72573" lon="-3.08995">
        <ele>21.5</ele>
        <time>2020-06-06T14:53:16Z</time>
      </trkpt>
      <trkpt lat="47.72571" lon="-3.09">
        <ele>21.4</ele>
        <time>2020-06-06T14:53:17Z</time>
      </trkpt>
      <trkpt lat="47.72571" lon="-3.09006">
        <ele>21.4</ele>
        <time>2020-06-06T14:53:18Z</time>
      </trkpt>
      <trkpt lat="47.72572" lon="-3.09012">
        <ele>21.1</ele>
        <time>2020-06-06T14:53:19Z</time>
      </trkpt>
      <trkpt lat="47.72573" lon="-3.09018">
        <ele>21</ele>
        <time>2020-06-06T14:53:20Z</time>
      </trkpt>
      <trkpt lat="47.72574" lon="-3.09025">
        <ele>20.9</ele>
        <time>2020-06-06T14:53:21Z</time>
      </trkpt>
      <trkpt lat="47.72576" lon="-3.09029">
        <ele>20.9</ele>
        <time>2020-06-06T14:53:22Z</time>
      </trkpt>
      <trkpt lat="47.72577" lon="-3.09035">
        <ele>20.8</ele>
        <time>2020-06-06T14:53:23Z</time>
      </trkpt>
      <trkpt lat="47.72578" lon="-3.09041">
        <ele>20.8</ele>
        <time>2020-06-06T14:53:24Z</time>
      </trkpt>
      <trkpt lat="47.7258" lon="-3.09048">
        <ele>20.9</ele>
        <time>2020-06-06T14:53:25Z</time>
      </trkpt>
      <trkpt lat="47.72581" lon="-3.09055">
        <ele>20.9</ele>
        <time>2020-06-06T14:53:26Z</time>
      </trkpt>
      <trkpt lat="47.72582" lon="-3.09063">
        <ele>21</ele>
        <time>2020-06-06T14:53:27Z</time>
      </trkpt>
      <trkpt lat="47.72584" lon="-3.09069">
        <ele>21.1</ele>
        <time>2020-06-06T14:53:28Z</time>
      </trkpt>
      <trkpt lat="47.72585" lon="-3.09074">
        <ele>21.1</ele>
        <time>2020-06-06T14:53:29Z</time>
      </trkpt>
      <trkpt lat="47.72586" lon="-3.0908">
        <ele>21.2</ele>
        <time>2020-06-06T14:53:30Z</time>
      </trkpt>
      <trkpt lat="47.72587" lon="-3.09086">
        <ele>21.3</ele>
        <time>2020-06-06T14:53:31Z</time>
      </trkpt>
      <trkpt lat="47.72588" lon="-3.09092">
        <ele>21.4</ele>
        <time>2020-06-06T14:53:32Z</time>
      </trkpt>
      <trkpt lat="47.72589" lon="-3.09098">
        <ele>21.5</ele>
        <time>2020-06-06T14:53:33Z</time>
      </trkpt>
      <trkpt lat="47.72589" lon="-3.09104">
        <ele>21.6</ele>
        <time>2020-06-06T14:53:34Z</time>
      </trkpt>
      <trkpt lat="47.72591" lon="-3.0911">
        <ele>21.7</ele>
        <time>2020-06-06T14:53:35Z</time>
      </trkpt>
      <trkpt lat="47.72591" lon="-3.09118">
        <ele>21.9</ele>
        <time>2020-06-06T14:53:36Z</time>
      </trkpt>
      <trkpt lat="47.72592" lon="-3.09125">
        <ele>22</ele>
        <time>2020-06-06T14:53:37Z</time>
      </trkpt>
      <trkpt lat="47.72593" lon="-3.09131">
        <ele>22.2</ele>
        <time>2020-06-06T14:53:38Z</time>
      </trkpt>
      <trkpt lat="47.72594" lon="-3.09137">
        <ele>22.3</ele>
        <time>2020-06-06T14:53:39Z</time>
      </trkpt>
      <trkpt lat="47.72595" lon="-3.09142">
        <ele>22.4</ele>
        <time>2020-06-06T14:53:40Z</time>
      </trkpt>
      <trkpt lat="47.72596" lon="-3.09148">
        <ele>22.5</ele>
        <time>2020-06-06T14:53:41Z</time>
      </trkpt>
      <trkpt lat="47.72597" lon="-3.09154">
        <ele>22.6</ele>
        <time>2020-06-06T14:53:42Z</time>
      </trkpt>
      <trkpt lat="47.72598" lon="-3.09161">
        <ele>22.8</ele>
        <time>2020-06-06T14:53:43Z</time>
      </trkpt>
      <trkpt lat="47.72599" lon="-3.09167">
        <ele>22.9</ele>
        <time>2020-06-06T14:53:44Z</time>
      </trkpt>
      <trkpt lat="47.726" lon="-3.09173">
        <ele>23.1</ele>
        <time>2020-06-06T14:53:45Z</time>
      </trkpt>
      <trkpt lat="47.72601" lon="-3.0918">
        <ele>23.2</ele>
        <time>2020-06-06T14:53:46Z</time>
      </trkpt>
      <trkpt lat="47.72602" lon="-3.09185">
        <ele>23.3</ele>
        <time>2020-06-06T14:53:47Z</time>
      </trkpt>
      <trkpt lat="47.72604" lon="-3.09191">
        <ele>23.4</ele>
        <time>2020-06-06T14:53:48Z</time>
      </trkpt>
      <trkpt lat="47.72605" lon="-3.09195">
        <ele>23.5</ele>
        <time>2020-06-06T14:53:49Z</time>
      </trkpt>
      <trkpt lat="47.72606" lon="-3.092">
        <ele>23.7</ele>
        <time>2020-06-06T14:53:50Z</time>
      </trkpt>
      <trkpt lat="47.72607" lon="-3.09205">
        <ele>23.8</ele>
        <time>2020-06-06T14:53:51Z</time>
      </trkpt>
      <trkpt lat="47.72609" lon="-3.0921">
        <ele>24</ele>
        <time>2020-06-06T14:53:52Z</time>
      </trkpt>
      <trkpt lat="47.7261" lon="-3.09216">
        <ele>24.2</ele>
        <time>2020-06-06T14:53:53Z</time>
      </trkpt>
      <trkpt lat="47.72611" lon="-3.09223">
        <ele>24.4</ele>
        <time>2020-06-06T14:53:54Z</time>
      </trkpt>
      <trkpt lat="47.72612" lon="-3.09228">
        <ele>24.5</ele>
        <time>2020-06-06T14:53:55Z</time>
      </trkpt>
      <trkpt lat="47.72613" lon="-3.09234">
        <ele>24.7</ele>
        <time>2020-06-06T14:53:56Z</time>
      </trkpt>
      <trkpt lat="47.72614" lon="-3.09242">
        <ele>24.9</ele>
        <time>2020-06-06T14:53:57Z</time>
      </trkpt>
      <trkpt lat="47.72614" lon="-3.09247">
        <ele>25.1</ele>
        <time>2020-06-06T14:53:58Z</time>
      </trkpt>
      <trkpt lat="47.72615" lon="-3.09252">
        <ele>25.2</ele>
        <time>2020-06-06T14:53:59Z</time>
      </trkpt>
      <trkpt lat="47.72615" lon="-3.09259">
        <ele>25.4</ele>
        <time>2020-06-06T14:54:00Z</time>
      </trkpt>
      <trkpt lat="47.72615" lon="-3.09266">
        <ele>25.7</ele>
        <time>2020-06-06T14:54:01Z</time>
      </trkpt>
      <trkpt lat="47.72616" lon="-3.09273">
        <ele>25.9</ele>
        <time>2020-06-06T14:54:02Z</time>
      </trkpt>
      <trkpt lat="47.72617" lon="-3.09279">
        <ele>26.1</ele>
        <time>2020-06-06T14:54:03Z</time>
      </trkpt>
      <trkpt lat="47.72618" lon="-3.09285">
        <ele>26.3</ele>
        <time>2020-06-06T14:54:04Z</time>
      </trkpt>
      <trkpt lat="47.72618" lon="-3.09291">
        <ele>26.5</ele>
        <time>2020-06-06T14:54:05Z</time>
      </trkpt>
      <trkpt lat="47.72619" lon="-3.09298">
        <ele>26.7</ele>
        <time>2020-06-06T14:54:06Z</time>
      </trkpt>
      <trkpt lat="47.7262" lon="-3.09305">
        <ele>26.9</ele>
        <time>2020-06-06T14:54:07Z</time>
      </trkpt>
      <trkpt lat="47.72621" lon="-3.09311">
        <ele>27.1</ele>
        <time>2020-06-06T14:54:08Z</time>
      </trkpt>
      <trkpt lat="47.72622" lon="-3.09318">
        <ele>27.3</ele>
        <time>2020-06-06T14:54:09Z</time>
      </trkpt>
      <trkpt lat="47.72623" lon="-3.09324">
        <ele>27.5</ele>
        <time>2020-06-06T14:54:10Z</time>
      </trkpt>
      <trkpt lat="47.72623" lon="-3.09329">
        <ele>27.7</ele>
        <time>2020-06-06T14:54:11Z</time>
      </trkpt>
      <trkpt lat="47.72624" lon="-3.09336">
        <ele>27.9</ele>
        <time>2020-06-06T14:54:12Z</time>
      </trkpt>
      <trkpt lat="47.72625" lon="-3.09342">
        <ele>28.2</ele>
        <time>2020-06-06T14:54:13Z</time>
      </trkpt>
      <trkpt lat="47.72625" lon="-3.0935">
        <ele>28.6</ele>
        <time>2020-06-06T14:54:14Z</time>
      </trkpt>
      <trkpt lat="47.72625" lon="-3.09358">
        <ele>28.9</ele>
        <time>2020-06-06T14:54:15Z</time>
      </trkpt>
      <trkpt lat="47.72626" lon="-3.09364">
        <ele>29.1</ele>
        <time>2020-06-06T14:54:16Z</time>
      </trkpt>
      <trkpt lat="47.72627" lon="-3.09371">
        <ele>29.4</ele>
        <time>2020-06-06T14:54:17Z</time>
      </trkpt>
      <trkpt lat="47.72628" lon="-3.09376">
        <ele>29.6</ele>
        <time>2020-06-06T14:54:18Z</time>
      </trkpt>
      <trkpt lat="47.72629" lon="-3.0938">
        <ele>29.8</ele>
        <time>2020-06-06T14:54:19Z</time>
      </trkpt>
      <trkpt lat="47.7263" lon="-3.09386">
        <ele>30</ele>
        <time>2020-06-06T14:54:20Z</time>
      </trkpt>
      <trkpt lat="47.72631" lon="-3.09392">
        <ele>30.2</ele>
        <time>2020-06-06T14:54:21Z</time>
      </trkpt>
      <trkpt lat="47.72632" lon="-3.09398">
        <ele>30.5</ele>
        <time>2020-06-06T14:54:22Z</time>
      </trkpt>
      <trkpt lat="47.72633" lon="-3.09403">
        <ele>30.6</ele>
        <time>2020-06-06T14:54:23Z</time>
      </trkpt>
      <trkpt lat="47.72634" lon="-3.09407">
        <ele>30.8</ele>
        <time>2020-06-06T14:54:24Z</time>
      </trkpt>
      <trkpt lat="47.72635" lon="-3.09413">
        <ele>31</ele>
        <time>2020-06-06T14:54:25Z</time>
      </trkpt>
      <trkpt lat="47.72636" lon="-3.09415">
        <ele>31.1</ele>
        <time>2020-06-06T14:54:26Z</time>
      </trkpt>
      <trkpt lat="47.72636" lon="-3.09421">
        <ele>31.3</ele>
        <time>2020-06-06T14:54:27Z</time>
      </trkpt>
      <trkpt lat="47.72637" lon="-3.09426">
        <ele>31.5</ele>
        <time>2020-06-06T14:54:28Z</time>
      </trkpt>
      <trkpt lat="47.72638" lon="-3.09433">
        <ele>31.7</ele>
        <time>2020-06-06T14:54:29Z</time>
      </trkpt>
      <trkpt lat="47.72639" lon="-3.09438">
        <ele>31.9</ele>
        <time>2020-06-06T14:54:30Z</time>
      </trkpt>
      <trkpt lat="47.72639" lon="-3.09445">
        <ele>32.1</ele>
        <time>2020-06-06T14:54:31Z</time>
      </trkpt>
      <trkpt lat="47.7264" lon="-3.0945">
        <ele>32.3</ele>
        <time>2020-06-06T14:54:32Z</time>
      </trkpt>
      <trkpt lat="47.72641" lon="-3.09456">
        <ele>32.5</ele>
        <time>2020-06-06T14:54:33Z</time>
      </trkpt>
      <trkpt lat="47.72642" lon="-3.09462">
        <ele>32.6</ele>
        <time>2020-06-06T14:54:34Z</time>
      </trkpt>
      <trkpt lat="47.72643" lon="-3.09467">
        <ele>32.8</ele>
        <time>2020-06-06T14:54:35Z</time>
      </trkpt>
      <trkpt lat="47.72644" lon="-3.09471">
        <ele>32.9</ele>
        <time>2020-06-06T14:54:36Z</time>
      </trkpt>
      <trkpt lat="47.72644" lon="-3.09475">
        <ele>33</ele>
        <time>2020-06-06T14:54:37Z</time>
      </trkpt>
      <trkpt lat="47.72645" lon="-3.0948">
        <ele>33.1</ele>
        <time>2020-06-06T14:54:38Z</time>
      </trkpt>
      <trkpt lat="47.72645" lon="-3.09482">
        <ele>33.2</ele>
        <time>2020-06-06T14:54:39Z</time>
      </trkpt>
      <trkpt lat="47.72646" lon="-3.09486">
        <ele>33.3</ele>
        <time>2020-06-06T14:54:40Z</time>
      </trkpt>
      <trkpt lat="47.72648" lon="-3.09491">
        <ele>33.4</ele>
        <time>2020-06-06T14:54:41Z</time>
      </trkpt>
      <trkpt lat="47.72648" lon="-3.09493">
        <ele>33.4</ele>
        <time>2020-06-06T14:54:42Z</time>
      </trkpt>
      <trkpt lat="47.72651" lon="-3.09497">
        <ele>33.6</ele>
        <time>2020-06-06T14:54:43Z</time>
      </trkpt>
      <trkpt lat="47.72652" lon="-3.09499">
        <ele>33.6</ele>
        <time>2020-06-06T14:54:44Z</time>
      </trkpt>
      <trkpt lat="47.72655" lon="-3.095">
        <ele>33.7</ele>
        <time>2020-06-06T14:54:45Z</time>
      </trkpt>
      <trkpt lat="47.72657" lon="-3.095">
        <ele>33.7</ele>
        <time>2020-06-06T14:54:46Z</time>
      </trkpt>
      <trkpt lat="47.7266" lon="-3.095">
        <ele>33.7</ele>
        <time>2020-06-06T14:54:47Z</time>
      </trkpt>
      <trkpt lat="47.72663" lon="-3.095">
        <ele>33.7</ele>
        <time>2020-06-06T14:54:48Z</time>
      </trkpt>
      <trkpt lat="47.72667" lon="-3.095">
        <ele>33.6</ele>
        <time>2020-06-06T14:54:49Z</time>
      </trkpt>
      <trkpt lat="47.72672" lon="-3.09499">
        <ele>33.6</ele>
        <time>2020-06-06T14:54:50Z</time>
      </trkpt>
      <trkpt lat="47.72675" lon="-3.095">
        <ele>33.6</ele>
        <time>2020-06-06T14:54:51Z</time>
      </trkpt>
      <trkpt lat="47.72676" lon="-3.095">
        <ele>33.5</ele>
        <time>2020-06-06T14:54:52Z</time>
      </trkpt>
      <trkpt lat="47.72679" lon="-3.095">
        <ele>33.5</ele>
        <time>2020-06-06T14:54:53Z</time>
      </trkpt>
      <trkpt lat="47.72682" lon="-3.09498">
        <ele>33.5</ele>
        <time>2020-06-06T14:54:54Z</time>
      </trkpt>
      <trkpt lat="47.72685" lon="-3.09497">
        <ele>33.4</ele>
        <time>2020-06-06T14:54:55Z</time>
      </trkpt>
      <trkpt lat="47.72686" lon="-3.09496">
        <ele>33.4</ele>
        <time>2020-06-06T14:54:56Z</time>
      </trkpt>
      <trkpt lat="47.7269" lon="-3.09495">
        <ele>33.3</ele>
        <time>2020-06-06T14:54:57Z</time>
      </trkpt>
      <trkpt lat="47.72691" lon="-3.09495">
        <ele>33.3</ele>
        <time>2020-06-06T14:54:58Z</time>
      </trkpt>
      <trkpt lat="47.72693" lon="-3.09494">
        <ele>33.3</ele>
        <time>2020-06-06T14:54:59Z</time>
      </trkpt>
      <trkpt lat="47.72695" lon="-3.09493">
        <ele>33.2</ele>
        <time>2020-06-06T14:55:00Z</time>
      </trkpt>
      <trkpt lat="47.72695" lon="-3.09492">
        <ele>33.2</ele>
        <time>2020-06-06T14:55:01Z</time>
      </trkpt>
      <trkpt lat="47.72697" lon="-3.09491">
        <ele>33.2</ele>
        <time>2020-06-06T14:55:02Z</time>
      </trkpt>
      <trkpt lat="47.727" lon="-3.0949">
        <ele>33.1</ele>
        <time>2020-06-06T14:55:03Z</time>
      </trkpt>
      <trkpt lat="47.72701" lon="-3.0949">
        <ele>33.1</ele>
        <time>2020-06-06T14:55:04Z</time>
      </trkpt>
      <trkpt lat="47.72704" lon="-3.0949">
        <ele>33</ele>
        <time>2020-06-06T14:55:05Z</time>
      </trkpt>
      <trkpt lat="47.72706" lon="-3.0949">
        <ele>32.9</ele>
        <time>2020-06-06T14:55:06Z</time>
      </trkpt>
      <trkpt lat="47.72709" lon="-3.09489">
        <ele>32.8</ele>
        <time>2020-06-06T14:55:07Z</time>
      </trkpt>
      <trkpt lat="47.7271" lon="-3.09489">
        <ele>32.8</ele>
        <time>2020-06-06T14:55:08Z</time>
      </trkpt>
      <trkpt lat="47.72711" lon="-3.09489">
        <ele>32.7</ele>
        <time>2020-06-06T14:55:09Z</time>
      </trkpt>
      <trkpt lat="47.72711" lon="-3.09488">
        <ele>32.7</ele>
        <time>2020-06-06T14:55:10Z</time>
      </trkpt>
      <trkpt lat="47.72712" lon="-3.09488">
        <ele>32.7</ele>
        <time>2020-06-06T14:55:11Z</time>
      </trkpt>
      <trkpt lat="47.72712" lon="-3.09488">
        <ele>32.7</ele>
        <time>2020-06-06T14:55:12Z</time>
      </trkpt>
      <trkpt lat="47.72713" lon="-3.09489">
        <ele>32.7</ele>
        <time>2020-06-06T14:55:13Z</time>
      </trkpt>
      <trkpt lat="47.72712" lon="-3.09488">
        <ele>32.7</ele>
        <time>2020-06-06T14:55:14Z</time>
      </trkpt>
      <trkpt lat="47.72712" lon="-3.09488">
        <ele>32.6</ele>
        <time>2020-06-06T14:55:15Z</time>
      </trkpt>
      <trkpt lat="47.72711" lon="-3.09488">
        <ele>32.6</ele>
        <time>2020-06-06T14:55:16Z</time>
      </trkpt>
      <trkpt lat="47.72712" lon="-3.09489">
        <ele>32.6</ele>
        <time>2020-06-06T14:55:17Z</time>
      </trkpt>
      <trkpt lat="47.72713" lon="-3.09488">
        <ele>32.5</ele>
        <time>2020-06-06T14:55:18Z</time>
      </trkpt>
      <trkpt lat="47.72717" lon="-3.09487">
        <ele>32.4</ele>
        <time>2020-06-06T14:55:19Z</time>
      </trkpt>
      <trkpt lat="47.72718" lon="-3.09487">
        <ele>32.3</ele>
        <time>2020-06-06T14:55:20Z</time>
      </trkpt>
      <trkpt lat="47.72721" lon="-3.09486">
        <ele>32.2</ele>
        <time>2020-06-06T14:55:21Z</time>
      </trkpt>
      <trkpt lat="47.72725" lon="-3.09485">
        <ele>32</ele>
        <time>2020-06-06T14:55:22Z</time>
      </trkpt>
      <trkpt lat="47.72726" lon="-3.09485">
        <ele>32</ele>
        <time>2020-06-06T14:55:23Z</time>
      </trkpt>
      <trkpt lat="47.7273" lon="-3.09484">
        <ele>31.8</ele>
        <time>2020-06-06T14:55:24Z</time>
      </trkpt>
      <trkpt lat="47.72732" lon="-3.09484">
        <ele>31.7</ele>
        <time>2020-06-06T14:55:25Z</time>
      </trkpt>
      <trkpt lat="47.72735" lon="-3.09484">
        <ele>31.6</ele>
        <time>2020-06-06T14:55:26Z</time>
      </trkpt>
      <trkpt lat="47.7274" lon="-3.09482">
        <ele>31.4</ele>
        <time>2020-06-06T14:55:27Z</time>
      </trkpt>
      <trkpt lat="47.72744" lon="-3.09482">
        <ele>31.2</ele>
        <time>2020-06-06T14:55:28Z</time>
      </trkpt>
      <trkpt lat="47.72748" lon="-3.09482">
        <ele>31</ele>
        <time>2020-06-06T14:55:29Z</time>
      </trkpt>
      <trkpt lat="47.72752" lon="-3.09481">
        <ele>30.8</ele>
        <time>2020-06-06T14:55:30Z</time>
      </trkpt>
      <trkpt lat="47.72758" lon="-3.0948">
        <ele>30.6</ele>
        <time>2020-06-06T14:55:31Z</time>
      </trkpt>
      <trkpt lat="47.72764" lon="-3.09479">
        <ele>30.3</ele>
        <time>2020-06-06T14:55:32Z</time>
      </trkpt>
      <trkpt lat="47.72768" lon="-3.09477">
        <ele>30</ele>
        <time>2020-06-06T14:55:33Z</time>
      </trkpt>
      <trkpt lat="47.72772" lon="-3.09476">
        <ele>29.8</ele>
        <time>2020-06-06T14:55:34Z</time>
      </trkpt>
      <trkpt lat="47.72777" lon="-3.09474">
        <ele>29.6</ele>
        <time>2020-06-06T14:55:35Z</time>
      </trkpt>
      <trkpt lat="47.72783" lon="-3.09471">
        <ele>29.2</ele>
        <time>2020-06-06T14:55:36Z</time>
      </trkpt>
      <trkpt lat="47.7279" lon="-3.09469">
        <ele>28.9</ele>
        <time>2020-06-06T14:55:37Z</time>
      </trkpt>
      <trkpt lat="47.72797" lon="-3.09468">
        <ele>28.5</ele>
        <time>2020-06-06T14:55:38Z</time>
      </trkpt>
      <trkpt lat="47.72804" lon="-3.09467">
        <ele>28.1</ele>
        <time>2020-06-06T14:55:39Z</time>
      </trkpt>
      <trkpt lat="47.72811" lon="-3.09466">
        <ele>27.7</ele>
        <time>2020-06-06T14:55:40Z</time>
      </trkpt>
      <trkpt lat="47.72818" lon="-3.09465">
        <ele>27.4</ele>
        <time>2020-06-06T14:55:41Z</time>
      </trkpt>
      <trkpt lat="47.72826" lon="-3.09463">
        <ele>27</ele>
        <time>2020-06-06T14:55:42Z</time>
      </trkpt>
      <trkpt lat="47.72834" lon="-3.09462">
        <ele>26.7</ele>
        <time>2020-06-06T14:55:43Z</time>
      </trkpt>
      <trkpt lat="47.72842" lon="-3.0946">
        <ele>26.3</ele>
        <time>2020-06-06T14:55:44Z</time>
      </trkpt>
      <trkpt lat="47.7285" lon="-3.09459">
        <ele>26</ele>
        <time>2020-06-06T14:55:45Z</time>
      </trkpt>
      <trkpt lat="47.72859" lon="-3.09456">
        <ele>25.7</ele>
        <time>2020-06-06T14:55:46Z</time>
      </trkpt>
      <trkpt lat="47.72867" lon="-3.09455">
        <ele>25.4</ele>
        <time>2020-06-06T14:55:47Z</time>
      </trkpt>
      <trkpt lat="47.72876" lon="-3.09454">
        <ele>25.1</ele>
        <time>2020-06-06T14:55:48Z</time>
      </trkpt>
      <trkpt lat="47.72884" lon="-3.09452">
        <ele>24.8</ele>
        <time>2020-06-06T14:55:49Z</time>
      </trkpt>
      <trkpt lat="47.72892" lon="-3.09448">
        <ele>24.6</ele>
        <time>2020-06-06T14:55:50Z</time>
      </trkpt>
      <trkpt lat="47.72899" lon="-3.09441">
        <ele>24.5</ele>
        <time>2020-06-06T14:55:51Z</time>
      </trkpt>
      <trkpt lat="47.72905" lon="-3.09434">
        <ele>24.5</ele>
        <time>2020-06-06T14:55:52Z</time>
      </trkpt>
      <trkpt lat="47.7291" lon="-3.09428">
        <ele>24.4</ele>
        <time>2020-06-06T14:55:53Z</time>
      </trkpt>
      <trkpt lat="47.72916" lon="-3.09424">
        <ele>24.4</ele>
        <time>2020-06-06T14:55:54Z</time>
      </trkpt>
      <trkpt lat="47.72922" lon="-3.09422">
        <ele>24.3</ele>
        <time>2020-06-06T14:55:55Z</time>
      </trkpt>
      <trkpt lat="47.72928" lon="-3.09419">
        <ele>24.3</ele>
        <time>2020-06-06T14:55:56Z</time>
      </trkpt>
      <trkpt lat="47.72934" lon="-3.09415">
        <ele>24.2</ele>
        <time>2020-06-06T14:55:57Z</time>
      </trkpt>
      <trkpt lat="47.72939" lon="-3.09411">
        <ele>24.1</ele>
        <time>2020-06-06T14:55:58Z</time>
      </trkpt>
      <trkpt lat="47.72945" lon="-3.09408">
        <ele>24</ele>
        <time>2020-06-06T14:55:59Z</time>
      </trkpt>
      <trkpt lat="47.72951" lon="-3.09405">
        <ele>24</ele>
        <time>2020-06-06T14:56:00Z</time>
      </trkpt>
      <trkpt lat="47.72956" lon="-3.09402">
        <ele>23.9</ele>
        <time>2020-06-06T14:56:01Z</time>
      </trkpt>
      <trkpt lat="47.72961" lon="-3.09398">
        <ele>23.9</ele>
        <time>2020-06-06T14:56:02Z</time>
      </trkpt>
      <trkpt lat="47.72966" lon="-3.09395">
        <ele>23.9</ele>
        <time>2020-06-06T14:56:03Z</time>
      </trkpt>
      <trkpt lat="47.72972" lon="-3.09392">
        <ele>23.9</ele>
        <time>2020-06-06T14:56:04Z</time>
      </trkpt>
      <trkpt lat="47.72977" lon="-3.09389">
        <ele>23.9</ele>
        <time>2020-06-06T14:56:05Z</time>
      </trkpt>
      <trkpt lat="47.72983" lon="-3.09387">
        <ele>23.9</ele>
        <time>2020-06-06T14:56:06Z</time>
      </trkpt>
      <trkpt lat="47.72988" lon="-3.09385">
        <ele>23.9</ele>
        <time>2020-06-06T14:56:07Z</time>
      </trkpt>
      <trkpt lat="47.72994" lon="-3.09383">
        <ele>24</ele>
        <time>2020-06-06T14:56:08Z</time>
      </trkpt>
      <trkpt lat="47.73" lon="-3.09382">
        <ele>24</ele>
        <time>2020-06-06T14:56:09Z</time>
      </trkpt>
      <trkpt lat="47.73006" lon="-3.09381">
        <ele>24.1</ele>
        <time>2020-06-06T14:56:10Z</time>
      </trkpt>
      <trkpt lat="47.73012" lon="-3.0938">
        <ele>24.2</ele>
        <time>2020-06-06T14:56:11Z</time>
      </trkpt>
      <trkpt lat="47.73018" lon="-3.09381">
        <ele>24.2</ele>
        <time>2020-06-06T14:56:12Z</time>
      </trkpt>
      <trkpt lat="47.73024" lon="-3.09382">
        <ele>24.3</ele>
        <time>2020-06-06T14:56:13Z</time>
      </trkpt>
      <trkpt lat="47.73029" lon="-3.09382">
        <ele>24.4</ele>
        <time>2020-06-06T14:56:14Z</time>
      </trkpt>
      <trkpt lat="47.73035" lon="-3.09382">
        <ele>24.4</ele>
        <time>2020-06-06T14:56:15Z</time>
      </trkpt>
      <trkpt lat="47.7304" lon="-3.09381">
        <ele>24.5</ele>
        <time>2020-06-06T14:56:16Z</time>
      </trkpt>
      <trkpt lat="47.73045" lon="-3.09381">
        <ele>24.6</ele>
        <time>2020-06-06T14:56:17Z</time>
      </trkpt>
      <trkpt lat="47.7305" lon="-3.09381">
        <ele>24.8</ele>
        <time>2020-06-06T14:56:18Z</time>
      </trkpt>
      <trkpt lat="47.73055" lon="-3.09382">
        <ele>24.9</ele>
        <time>2020-06-06T14:56:19Z</time>
      </trkpt>
      <trkpt lat="47.7306" lon="-3.09382">
        <ele>24.9</ele>
        <time>2020-06-06T14:56:20Z</time>
      </trkpt>
      <trkpt lat="47.73064" lon="-3.09382">
        <ele>25</ele>
        <time>2020-06-06T14:56:21Z</time>
      </trkpt>
      <trkpt lat="47.73068" lon="-3.09382">
        <ele>25</ele>
        <time>2020-06-06T14:56:22Z</time>
      </trkpt>
      <trkpt lat="47.73072" lon="-3.09382">
        <ele>25</ele>
        <time>2020-06-06T14:56:23Z</time>
      </trkpt>
      <trkpt lat="47.73077" lon="-3.09382">
        <ele>25</ele>
        <time>2020-06-06T14:56:24Z</time>
      </trkpt>
      <trkpt lat="47.73081" lon="-3.09381">
        <ele>25.1</ele>
        <time>2020-06-06T14:56:25Z</time>
      </trkpt>
      <trkpt lat="47.73085" lon="-3.09381">
        <ele>25.1</ele>
        <time>2020-06-06T14:56:26Z</time>
      </trkpt>
      <trkpt lat="47.7309" lon="-3.09381">
        <ele>25.2</ele>
        <time>2020-06-06T14:56:27Z</time>
      </trkpt>
      <trkpt lat="47.73094" lon="-3.0938">
        <ele>25.2</ele>
        <time>2020-06-06T14:56:28Z</time>
      </trkpt>
      <trkpt lat="47.73099" lon="-3.09379">
        <ele>25.3</ele>
        <time>2020-06-06T14:56:29Z</time>
      </trkpt>
      <trkpt lat="47.73103" lon="-3.09377">
        <ele>25.4</ele>
        <time>2020-06-06T14:56:30Z</time>
      </trkpt>
      <trkpt lat="47.73108" lon="-3.09377">
        <ele>25.4</ele>
        <time>2020-06-06T14:56:31Z</time>
      </trkpt>
      <trkpt lat="47.73113" lon="-3.09375">
        <ele>25.4</ele>
        <time>2020-06-06T14:56:32Z</time>
      </trkpt>
      <trkpt lat="47.73117" lon="-3.09375">
        <ele>25.5</ele>
        <time>2020-06-06T14:56:33Z</time>
      </trkpt>
      <trkpt lat="47.73121" lon="-3.09372">
        <ele>25.5</ele>
        <time>2020-06-06T14:56:34Z</time>
      </trkpt>
      <trkpt lat="47.73126" lon="-3.09371">
        <ele>25.6</ele>
        <time>2020-06-06T14:56:35Z</time>
      </trkpt>
      <trkpt lat="47.7313" lon="-3.0937">
        <ele>25.7</ele>
        <time>2020-06-06T14:56:36Z</time>
      </trkpt>
      <trkpt lat="47.73135" lon="-3.0937">
        <ele>25.7</ele>
        <time>2020-06-06T14:56:37Z</time>
      </trkpt>
      <trkpt lat="47.73139" lon="-3.09369">
        <ele>25.7</ele>
        <time>2020-06-06T14:56:38Z</time>
      </trkpt>
      <trkpt lat="47.73144" lon="-3.09368">
        <ele>25.8</ele>
        <time>2020-06-06T14:56:39Z</time>
      </trkpt>
      <trkpt lat="47.73148" lon="-3.09368">
        <ele>25.8</ele>
        <time>2020-06-06T14:56:40Z</time>
      </trkpt>
      <trkpt lat="47.73152" lon="-3.09366">
        <ele>25.8</ele>
        <time>2020-06-06T14:56:41Z</time>
      </trkpt>
      <trkpt lat="47.73156" lon="-3.09364">
        <ele>25.9</ele>
        <time>2020-06-06T14:56:42Z</time>
      </trkpt>
      <trkpt lat="47.73161" lon="-3.09362">
        <ele>25.9</ele>
        <time>2020-06-06T14:56:43Z</time>
      </trkpt>
      <trkpt lat="47.73165" lon="-3.09361">
        <ele>25.9</ele>
        <time>2020-06-06T14:56:44Z</time>
      </trkpt>
      <trkpt lat="47.73169" lon="-3.0936">
        <ele>25.9</ele>
        <time>2020-06-06T14:56:45Z</time>
      </trkpt>
      <trkpt lat="47.73174" lon="-3.09358">
        <ele>25.9</ele>
        <time>2020-06-06T14:56:46Z</time>
      </trkpt>
      <trkpt lat="47.73178" lon="-3.09357">
        <ele>25.9</ele>
        <time>2020-06-06T14:56:47Z</time>
      </trkpt>
      <trkpt lat="47.73182" lon="-3.09357">
        <ele>25.9</ele>
        <time>2020-06-06T14:56:48Z</time>
      </trkpt>
      <trkpt lat="47.73187" lon="-3.09356">
        <ele>25.9</ele>
        <time>2020-06-06T14:56:49Z</time>
      </trkpt>
      <trkpt lat="47.73192" lon="-3.09356">
        <ele>25.9</ele>
        <time>2020-06-06T14:56:50Z</time>
      </trkpt>
      <trkpt lat="47.73197" lon="-3.09355">
        <ele>25.9</ele>
        <time>2020-06-06T14:56:51Z</time>
      </trkpt>
      <trkpt lat="47.73202" lon="-3.09354">
        <ele>25.9</ele>
        <time>2020-06-06T14:56:52Z</time>
      </trkpt>
      <trkpt lat="47.73207" lon="-3.09354">
        <ele>25.9</ele>
        <time>2020-06-06T14:56:53Z</time>
      </trkpt>
      <trkpt lat="47.73212" lon="-3.09353">
        <ele>25.8</ele>
        <time>2020-06-06T14:56:54Z</time>
      </trkpt>
      <trkpt lat="47.73217" lon="-3.09353">
        <ele>25.7</ele>
        <time>2020-06-06T14:56:55Z</time>
      </trkpt>
      <trkpt lat="47.73222" lon="-3.09353">
        <ele>25.7</ele>
        <time>2020-06-06T14:56:56Z</time>
      </trkpt>
      <trkpt lat="47.73227" lon="-3.09353">
        <ele>25.6</ele>
        <time>2020-06-06T14:56:57Z</time>
      </trkpt>
      <trkpt lat="47.73232" lon="-3.09352">
        <ele>25.5</ele>
        <time>2020-06-06T14:56:58Z</time>
      </trkpt>
      <trkpt lat="47.73237" lon="-3.0935">
        <ele>25.4</ele>
        <time>2020-06-06T14:56:59Z</time>
      </trkpt>
      <trkpt lat="47.73242" lon="-3.09348">
        <ele>25.4</ele>
        <time>2020-06-06T14:57:00Z</time>
      </trkpt>
      <trkpt lat="47.73247" lon="-3.09347">
        <ele>25.3</ele>
        <time>2020-06-06T14:57:01Z</time>
      </trkpt>
      <trkpt lat="47.73252" lon="-3.09346">
        <ele>25.3</ele>
        <time>2020-06-06T14:57:02Z</time>
      </trkpt>
      <trkpt lat="47.73256" lon="-3.09343">
        <ele>25.3</ele>
        <time>2020-06-06T14:57:03Z</time>
      </trkpt>
      <trkpt lat="47.73261" lon="-3.09339">
        <ele>25.3</ele>
        <time>2020-06-06T14:57:04Z</time>
      </trkpt>
      <trkpt lat="47.73266" lon="-3.09337">
        <ele>25.3</ele>
        <time>2020-06-06T14:57:05Z</time>
      </trkpt>
      <trkpt lat="47.7327" lon="-3.09334">
        <ele>25.3</ele>
        <time>2020-06-06T14:57:06Z</time>
      </trkpt>
      <trkpt lat="47.73275" lon="-3.09332">
        <ele>25.3</ele>
        <time>2020-06-06T14:57:07Z</time>
      </trkpt>
      <trkpt lat="47.73279" lon="-3.09329">
        <ele>25.3</ele>
        <time>2020-06-06T14:57:08Z</time>
      </trkpt>
      <trkpt lat="47.73284" lon="-3.09326">
        <ele>25.3</ele>
        <time>2020-06-06T14:57:09Z</time>
      </trkpt>
      <trkpt lat="47.73289" lon="-3.09324">
        <ele>25.4</ele>
        <time>2020-06-06T14:57:10Z</time>
      </trkpt>
      <trkpt lat="47.73293" lon="-3.09322">
        <ele>25.4</ele>
        <time>2020-06-06T14:57:11Z</time>
      </trkpt>
      <trkpt lat="47.73298" lon="-3.09318">
        <ele>25.4</ele>
        <time>2020-06-06T14:57:12Z</time>
      </trkpt>
      <trkpt lat="47.73302" lon="-3.09314">
        <ele>25.4</ele>
        <time>2020-06-06T14:57:13Z</time>
      </trkpt>
      <trkpt lat="47.73306" lon="-3.0931">
        <ele>25.4</ele>
        <time>2020-06-06T14:57:14Z</time>
      </trkpt>
      <trkpt lat="47.7331" lon="-3.09306">
        <ele>25.4</ele>
        <time>2020-06-06T14:57:15Z</time>
      </trkpt>
      <trkpt lat="47.73313" lon="-3.09301">
        <ele>25.4</ele>
        <time>2020-06-06T14:57:16Z</time>
      </trkpt>
      <trkpt lat="47.73317" lon="-3.09297">
        <ele>25.4</ele>
        <time>2020-06-06T14:57:17Z</time>
      </trkpt>
      <trkpt lat="47.7332" lon="-3.09293">
        <ele>25.4</ele>
        <time>2020-06-06T14:57:18Z</time>
      </trkpt>
      <trkpt lat="47.73324" lon="-3.0929">
        <ele>25.4</ele>
        <time>2020-06-06T14:57:19Z</time>
      </trkpt>
      <trkpt lat="47.73327" lon="-3.09288">
        <ele>25.4</ele>
        <time>2020-06-06T14:57:20Z</time>
      </trkpt>
      <trkpt lat="47.73331" lon="-3.09286">
        <ele>25.3</ele>
        <time>2020-06-06T14:57:21Z</time>
      </trkpt>
      <trkpt lat="47.73336" lon="-3.09285">
        <ele>25.3</ele>
        <time>2020-06-06T14:57:22Z</time>
      </trkpt>
      <trkpt lat="47.7334" lon="-3.09287">
        <ele>25.3</ele>
        <time>2020-06-06T14:57:23Z</time>
      </trkpt>
      <trkpt lat="47.73344" lon="-3.0929">
        <ele>25.2</ele>
        <time>2020-06-06T14:57:24Z</time>
      </trkpt>
      <trkpt lat="47.73348" lon="-3.09292">
        <ele>25.2</ele>
        <time>2020-06-06T14:57:25Z</time>
      </trkpt>
      <trkpt lat="47.73352" lon="-3.09294">
        <ele>25.2</ele>
        <time>2020-06-06T14:57:26Z</time>
      </trkpt>
      <trkpt lat="47.73356" lon="-3.09295">
        <ele>25.1</ele>
        <time>2020-06-06T14:57:27Z</time>
      </trkpt>
      <trkpt lat="47.7336" lon="-3.09296">
        <ele>25.1</ele>
        <time>2020-06-06T14:57:28Z</time>
      </trkpt>
      <trkpt lat="47.73363" lon="-3.09299">
        <ele>25.1</ele>
        <time>2020-06-06T14:57:29Z</time>
      </trkpt>
      <trkpt lat="47.73367" lon="-3.09301">
        <ele>25.1</ele>
        <time>2020-06-06T14:57:30Z</time>
      </trkpt>
      <trkpt lat="47.7337" lon="-3.09304">
        <ele>25.2</ele>
        <time>2020-06-06T14:57:31Z</time>
      </trkpt>
      <trkpt lat="47.73373" lon="-3.09307">
        <ele>25.2</ele>
        <time>2020-06-06T14:57:32Z</time>
      </trkpt>
      <trkpt lat="47.73377" lon="-3.09311">
        <ele>25.2</ele>
        <time>2020-06-06T14:57:33Z</time>
      </trkpt>
      <trkpt lat="47.73382" lon="-3.09314">
        <ele>25.2</ele>
        <time>2020-06-06T14:57:34Z</time>
      </trkpt>
      <trkpt lat="47.73387" lon="-3.09317">
        <ele>25.2</ele>
        <time>2020-06-06T14:57:35Z</time>
      </trkpt>
      <trkpt lat="47.73392" lon="-3.09319">
        <ele>25.2</ele>
        <time>2020-06-06T14:57:36Z</time>
      </trkpt>
      <trkpt lat="47.73397" lon="-3.09322">
        <ele>25.2</ele>
        <time>2020-06-06T14:57:37Z</time>
      </trkpt>
      <trkpt lat="47.73401" lon="-3.09325">
        <ele>25.2</ele>
        <time>2020-06-06T14:57:38Z</time>
      </trkpt>
      <trkpt lat="47.73406" lon="-3.09328">
        <ele>25.2</ele>
        <time>2020-06-06T14:57:39Z</time>
      </trkpt>
      <trkpt lat="47.7341" lon="-3.09332">
        <ele>25.2</ele>
        <time>2020-06-06T14:57:40Z</time>
      </trkpt>
      <trkpt lat="47.73414" lon="-3.09336">
        <ele>25.1</ele>
        <time>2020-06-06T14:57:41Z</time>
      </trkpt>
      <trkpt lat="47.73418" lon="-3.09341">
        <ele>25.1</ele>
        <time>2020-06-06T14:57:42Z</time>
      </trkpt>
      <trkpt lat="47.73422" lon="-3.09345">
        <ele>25</ele>
        <time>2020-06-06T14:57:43Z</time>
      </trkpt>
      <trkpt lat="47.73427" lon="-3.09349">
        <ele>25</ele>
        <time>2020-06-06T14:57:44Z</time>
      </trkpt>
      <trkpt lat="47.73431" lon="-3.09353">
        <ele>24.9</ele>
        <time>2020-06-06T14:57:45Z</time>
      </trkpt>
      <trkpt lat="47.73436" lon="-3.09356">
        <ele>24.8</ele>
        <time>2020-06-06T14:57:46Z</time>
      </trkpt>
      <trkpt lat="47.7344" lon="-3.0936">
        <ele>24.8</ele>
        <time>2020-06-06T14:57:47Z</time>
      </trkpt>
      <trkpt lat="47.73445" lon="-3.09364">
        <ele>24.7</ele>
        <time>2020-06-06T14:57:48Z</time>
      </trkpt>
      <trkpt lat="47.7345" lon="-3.09368">
        <ele>24.6</ele>
        <time>2020-06-06T14:57:49Z</time>
      </trkpt>
      <trkpt lat="47.73455" lon="-3.09373">
        <ele>24.5</ele>
        <time>2020-06-06T14:57:50Z</time>
      </trkpt>
      <trkpt lat="47.73461" lon="-3.09378">
        <ele>24.4</ele>
        <time>2020-06-06T14:57:51Z</time>
      </trkpt>
      <trkpt lat="47.73467" lon="-3.09382">
        <ele>24.3</ele>
        <time>2020-06-06T14:57:52Z</time>
      </trkpt>
      <trkpt lat="47.73472" lon="-3.09387">
        <ele>24.1</ele>
        <time>2020-06-06T14:57:53Z</time>
      </trkpt>
      <trkpt lat="47.73477" lon="-3.09391">
        <ele>24</ele>
        <time>2020-06-06T14:57:54Z</time>
      </trkpt>
      <trkpt lat="47.73482" lon="-3.09394">
        <ele>23.8</ele>
        <time>2020-06-06T14:57:55Z</time>
      </trkpt>
      <trkpt lat="47.73487" lon="-3.09398">
        <ele>23.7</ele>
        <time>2020-06-06T14:57:56Z</time>
      </trkpt>
      <trkpt lat="47.73492" lon="-3.09401">
        <ele>23.6</ele>
        <time>2020-06-06T14:57:57Z</time>
      </trkpt>
      <trkpt lat="47.73497" lon="-3.09406">
        <ele>23.5</ele>
        <time>2020-06-06T14:57:58Z</time>
      </trkpt>
      <trkpt lat="47.73501" lon="-3.09409">
        <ele>23.4</ele>
        <time>2020-06-06T14:57:59Z</time>
      </trkpt>
      <trkpt lat="47.73507" lon="-3.09415">
        <ele>23.2</ele>
        <time>2020-06-06T14:58:00Z</time>
      </trkpt>
      <trkpt lat="47.73512" lon="-3.09421">
        <ele>23</ele>
        <time>2020-06-06T14:58:01Z</time>
      </trkpt>
      <trkpt lat="47.73517" lon="-3.09427">
        <ele>22.9</ele>
        <time>2020-06-06T14:58:02Z</time>
      </trkpt>
      <trkpt lat="47.73522" lon="-3.09431">
        <ele>22.7</ele>
        <time>2020-06-06T14:58:03Z</time>
      </trkpt>
      <trkpt lat="47.73527" lon="-3.09436">
        <ele>22.5</ele>
        <time>2020-06-06T14:58:04Z</time>
      </trkpt>
      <trkpt lat="47.73533" lon="-3.09441">
        <ele>22.4</ele>
        <time>2020-06-06T14:58:05Z</time>
      </trkpt>
      <trkpt lat="47.73538" lon="-3.09446">
        <ele>22.2</ele>
        <time>2020-06-06T14:58:06Z</time>
      </trkpt>
      <trkpt lat="47.73544" lon="-3.0945">
        <ele>22.1</ele>
        <time>2020-06-06T14:58:07Z</time>
      </trkpt>
      <trkpt lat="47.73549" lon="-3.09455">
        <ele>21.9</ele>
        <time>2020-06-06T14:58:08Z</time>
      </trkpt>
      <trkpt lat="47.73554" lon="-3.0946">
        <ele>21.8</ele>
        <time>2020-06-06T14:58:09Z</time>
      </trkpt>
      <trkpt lat="47.73559" lon="-3.09465">
        <ele>21.6</ele>
        <time>2020-06-06T14:58:10Z</time>
      </trkpt>
      <trkpt lat="47.73565" lon="-3.09468">
        <ele>21.4</ele>
        <time>2020-06-06T14:58:11Z</time>
      </trkpt>
      <trkpt lat="47.73571" lon="-3.09473">
        <ele>21.3</ele>
        <time>2020-06-06T14:58:12Z</time>
      </trkpt>
      <trkpt lat="47.73576" lon="-3.09477">
        <ele>21.2</ele>
        <time>2020-06-06T14:58:13Z</time>
      </trkpt>
      <trkpt lat="47.73582" lon="-3.09481">
        <ele>21</ele>
        <time>2020-06-06T14:58:14Z</time>
      </trkpt>
      <trkpt lat="47.73586" lon="-3.09485">
        <ele>20.9</ele>
        <time>2020-06-06T14:58:15Z</time>
      </trkpt>
      <trkpt lat="47.73592" lon="-3.09489">
        <ele>20.8</ele>
        <time>2020-06-06T14:58:16Z</time>
      </trkpt>
      <trkpt lat="47.73596" lon="-3.09494">
        <ele>20.8</ele>
        <time>2020-06-06T14:58:17Z</time>
      </trkpt>
      <trkpt lat="47.73602" lon="-3.09498">
        <ele>20.7</ele>
        <time>2020-06-06T14:58:18Z</time>
      </trkpt>
      <trkpt lat="47.73607" lon="-3.09503">
        <ele>20.6</ele>
        <time>2020-06-06T14:58:19Z</time>
      </trkpt>
      <trkpt lat="47.73611" lon="-3.09507">
        <ele>20.5</ele>
        <time>2020-06-06T14:58:20Z</time>
      </trkpt>
      <trkpt lat="47.73616" lon="-3.09513">
        <ele>20.5</ele>
        <time>2020-06-06T14:58:21Z</time>
      </trkpt>
      <trkpt lat="47.7362" lon="-3.09517">
        <ele>20.4</ele>
        <time>2020-06-06T14:58:22Z</time>
      </trkpt>
      <trkpt lat="47.73624" lon="-3.09523">
        <ele>20.3</ele>
        <time>2020-06-06T14:58:23Z</time>
      </trkpt>
      <trkpt lat="47.73629" lon="-3.09531">
        <ele>20.2</ele>
        <time>2020-06-06T14:58:24Z</time>
      </trkpt>
      <trkpt lat="47.73633" lon="-3.09538">
        <ele>20.1</ele>
        <time>2020-06-06T14:58:25Z</time>
      </trkpt>
      <trkpt lat="47.73636" lon="-3.09545">
        <ele>20</ele>
        <time>2020-06-06T14:58:26Z</time>
      </trkpt>
      <trkpt lat="47.73639" lon="-3.09551">
        <ele>19.9</ele>
        <time>2020-06-06T14:58:27Z</time>
      </trkpt>
      <trkpt lat="47.73643" lon="-3.09557">
        <ele>19.8</ele>
        <time>2020-06-06T14:58:28Z</time>
      </trkpt>
      <trkpt lat="47.73648" lon="-3.09562">
        <ele>19.7</ele>
        <time>2020-06-06T14:58:29Z</time>
      </trkpt>
      <trkpt lat="47.73654" lon="-3.09565">
        <ele>19.6</ele>
        <time>2020-06-06T14:58:30Z</time>
      </trkpt>
      <trkpt lat="47.7366" lon="-3.09568">
        <ele>19.5</ele>
        <time>2020-06-06T14:58:31Z</time>
      </trkpt>
      <trkpt lat="47.73667" lon="-3.0957">
        <ele>19.5</ele>
        <time>2020-06-06T14:58:32Z</time>
      </trkpt>
      <trkpt lat="47.73673" lon="-3.09571">
        <ele>19.5</ele>
        <time>2020-06-06T14:58:33Z</time>
      </trkpt>
      <trkpt lat="47.73679" lon="-3.09572">
        <ele>19.4</ele>
        <time>2020-06-06T14:58:34Z</time>
      </trkpt>
      <trkpt lat="47.73685" lon="-3.09574">
        <ele>19.4</ele>
        <time>2020-06-06T14:58:35Z</time>
      </trkpt>
      <trkpt lat="47.7369" lon="-3.09577">
        <ele>19.4</ele>
        <time>2020-06-06T14:58:36Z</time>
      </trkpt>
      <trkpt lat="47.73695" lon="-3.0958">
        <ele>19.3</ele>
        <time>2020-06-06T14:58:37Z</time>
      </trkpt>
      <trkpt lat="47.73701" lon="-3.09582">
        <ele>19.3</ele>
        <time>2020-06-06T14:58:38Z</time>
      </trkpt>
      <trkpt lat="47.73706" lon="-3.09586">
        <ele>19.4</ele>
        <time>2020-06-06T14:58:39Z</time>
      </trkpt>
      <trkpt lat="47.73711" lon="-3.0959">
        <ele>19.4</ele>
        <time>2020-06-06T14:58:40Z</time>
      </trkpt>
      <trkpt lat="47.73717" lon="-3.09593">
        <ele>19.4</ele>
        <time>2020-06-06T14:58:41Z</time>
      </trkpt>
      <trkpt lat="47.73722" lon="-3.09597">
        <ele>19.4</ele>
        <time>2020-06-06T14:58:42Z</time>
      </trkpt>
      <trkpt lat="47.73726" lon="-3.096">
        <ele>19.4</ele>
        <time>2020-06-06T14:58:43Z</time>
      </trkpt>
      <trkpt lat="47.73731" lon="-3.09604">
        <ele>19.4</ele>
        <time>2020-06-06T14:58:44Z</time>
      </trkpt>
      <trkpt lat="47.73736" lon="-3.09607">
        <ele>19.4</ele>
        <time>2020-06-06T14:58:45Z</time>
      </trkpt>
      <trkpt lat="47.73741" lon="-3.09611">
        <ele>19.5</ele>
        <time>2020-06-06T14:58:46Z</time>
      </trkpt>
      <trkpt lat="47.73745" lon="-3.09614">
        <ele>19.5</ele>
        <time>2020-06-06T14:58:47Z</time>
      </trkpt>
      <trkpt lat="47.7375" lon="-3.09618">
        <ele>19.5</ele>
        <time>2020-06-06T14:58:48Z</time>
      </trkpt>
      <trkpt lat="47.73754" lon="-3.09622">
        <ele>19.6</ele>
        <time>2020-06-06T14:58:49Z</time>
      </trkpt>
      <trkpt lat="47.73759" lon="-3.09627">
        <ele>19.6</ele>
        <time>2020-06-06T14:58:50Z</time>
      </trkpt>
      <trkpt lat="47.73764" lon="-3.0963">
        <ele>19.6</ele>
        <time>2020-06-06T14:58:51Z</time>
      </trkpt>
      <trkpt lat="47.73768" lon="-3.09634">
        <ele>19.7</ele>
        <time>2020-06-06T14:58:52Z</time>
      </trkpt>
      <trkpt lat="47.73774" lon="-3.09638">
        <ele>19.7</ele>
        <time>2020-06-06T14:58:53Z</time>
      </trkpt>
      <trkpt lat="47.73777" lon="-3.09643">
        <ele>19.8</ele>
        <time>2020-06-06T14:58:54Z</time>
      </trkpt>
      <trkpt lat="47.73782" lon="-3.09647">
        <ele>19.8</ele>
        <time>2020-06-06T14:58:55Z</time>
      </trkpt>
      <trkpt lat="47.73786" lon="-3.0965">
        <ele>19.9</ele>
        <time>2020-06-06T14:58:56Z</time>
      </trkpt>
      <trkpt lat="47.73791" lon="-3.09655">
        <ele>19.9</ele>
        <time>2020-06-06T14:58:57Z</time>
      </trkpt>
      <trkpt lat="47.73795" lon="-3.09657">
        <ele>19.8</ele>
        <time>2020-06-06T14:58:58Z</time>
      </trkpt>
      <trkpt lat="47.73799" lon="-3.0966">
        <ele>19.8</ele>
        <time>2020-06-06T14:58:59Z</time>
      </trkpt>
      <trkpt lat="47.73804" lon="-3.09664">
        <ele>19.8</ele>
        <time>2020-06-06T14:59:00Z</time>
      </trkpt>
      <trkpt lat="47.73808" lon="-3.09668">
        <ele>19.7</ele>
        <time>2020-06-06T14:59:01Z</time>
      </trkpt>
      <trkpt lat="47.73813" lon="-3.09672">
        <ele>19.7</ele>
        <time>2020-06-06T14:59:02Z</time>
      </trkpt>
      <trkpt lat="47.73818" lon="-3.09676">
        <ele>19.7</ele>
        <time>2020-06-06T14:59:03Z</time>
      </trkpt>
      <trkpt lat="47.73823" lon="-3.0968">
        <ele>19.7</ele>
        <time>2020-06-06T14:59:04Z</time>
      </trkpt>
      <trkpt lat="47.73828" lon="-3.09684">
        <ele>19.7</ele>
        <time>2020-06-06T14:59:05Z</time>
      </trkpt>
      <trkpt lat="47.73834" lon="-3.09687">
        <ele>19.8</ele>
        <time>2020-06-06T14:59:06Z</time>
      </trkpt>
      <trkpt lat="47.73839" lon="-3.09691">
        <ele>19.8</ele>
        <time>2020-06-06T14:59:07Z</time>
      </trkpt>
      <trkpt lat="47.73842" lon="-3.09695">
        <ele>19.9</ele>
        <time>2020-06-06T14:59:08Z</time>
      </trkpt>
      <trkpt lat="47.73847" lon="-3.097">
        <ele>20.1</ele>
        <time>2020-06-06T14:59:09Z</time>
      </trkpt>
      <trkpt lat="47.73853" lon="-3.09704">
        <ele>20.1</ele>
        <time>2020-06-06T14:59:10Z</time>
      </trkpt>
      <trkpt lat="47.73858" lon="-3.09708">
        <ele>20.1</ele>
        <time>2020-06-06T14:59:11Z</time>
      </trkpt>
      <trkpt lat="47.73863" lon="-3.09713">
        <ele>20.1</ele>
        <time>2020-06-06T14:59:12Z</time>
      </trkpt>
      <trkpt lat="47.73867" lon="-3.09717">
        <ele>20.1</ele>
        <time>2020-06-06T14:59:13Z</time>
      </trkpt>
      <trkpt lat="47.73871" lon="-3.0972">
        <ele>20.1</ele>
        <time>2020-06-06T14:59:14Z</time>
      </trkpt>
      <trkpt lat="47.73875" lon="-3.09724">
        <ele>20.1</ele>
        <time>2020-06-06T14:59:15Z</time>
      </trkpt>
      <trkpt lat="47.73881" lon="-3.09729">
        <ele>20.1</ele>
        <time>2020-06-06T14:59:16Z</time>
      </trkpt>
      <trkpt lat="47.73887" lon="-3.09734">
        <ele>20.2</ele>
        <time>2020-06-06T14:59:17Z</time>
      </trkpt>
      <trkpt lat="47.73893" lon="-3.0974">
        <ele>20.2</ele>
        <time>2020-06-06T14:59:18Z</time>
      </trkpt>
      <trkpt lat="47.73898" lon="-3.09745">
        <ele>20.2</ele>
        <time>2020-06-06T14:59:19Z</time>
      </trkpt>
      <trkpt lat="47.73903" lon="-3.09749">
        <ele>20.2</ele>
        <time>2020-06-06T14:59:20Z</time>
      </trkpt>
      <trkpt lat="47.73909" lon="-3.09753">
        <ele>20.2</ele>
        <time>2020-06-06T14:59:21Z</time>
      </trkpt>
      <trkpt lat="47.73914" lon="-3.09756">
        <ele>20.3</ele>
        <time>2020-06-06T14:59:22Z</time>
      </trkpt>
      <trkpt lat="47.73919" lon="-3.09761">
        <ele>20.3</ele>
        <time>2020-06-06T14:59:23Z</time>
      </trkpt>
      <trkpt lat="47.73924" lon="-3.09765">
        <ele>20.3</ele>
        <time>2020-06-06T14:59:24Z</time>
      </trkpt>
      <trkpt lat="47.73928" lon="-3.09769">
        <ele>20.3</ele>
        <time>2020-06-06T14:59:25Z</time>
      </trkpt>
      <trkpt lat="47.73933" lon="-3.09773">
        <ele>20.3</ele>
        <time>2020-06-06T14:59:26Z</time>
      </trkpt>
      <trkpt lat="47.73938" lon="-3.09777">
        <ele>20.2</ele>
        <time>2020-06-06T14:59:27Z</time>
      </trkpt>
      <trkpt lat="47.73943" lon="-3.09781">
        <ele>20.2</ele>
        <time>2020-06-06T14:59:28Z</time>
      </trkpt>
      <trkpt lat="47.73947" lon="-3.09785">
        <ele>20.2</ele>
        <time>2020-06-06T14:59:29Z</time>
      </trkpt>
      <trkpt lat="47.73952" lon="-3.09789">
        <ele>20.2</ele>
        <time>2020-06-06T14:59:30Z</time>
      </trkpt>
      <trkpt lat="47.73957" lon="-3.09793">
        <ele>20.2</ele>
        <time>2020-06-06T14:59:31Z</time>
      </trkpt>
      <trkpt lat="47.73963" lon="-3.09797">
        <ele>20.2</ele>
        <time>2020-06-06T14:59:32Z</time>
      </trkpt>
      <trkpt lat="47.73969" lon="-3.09802">
        <ele>20.2</ele>
        <time>2020-06-06T14:59:33Z</time>
      </trkpt>
      <trkpt lat="47.73974" lon="-3.09807">
        <ele>20.3</ele>
        <time>2020-06-06T14:59:34Z</time>
      </trkpt>
      <trkpt lat="47.73979" lon="-3.09811">
        <ele>20.4</ele>
        <time>2020-06-06T14:59:35Z</time>
      </trkpt>
      <trkpt lat="47.73984" lon="-3.09814">
        <ele>20.4</ele>
        <time>2020-06-06T14:59:36Z</time>
      </trkpt>
      <trkpt lat="47.73988" lon="-3.09818">
        <ele>20.5</ele>
        <time>2020-06-06T14:59:37Z</time>
      </trkpt>
      <trkpt lat="47.73994" lon="-3.09821">
        <ele>20.5</ele>
        <time>2020-06-06T14:59:38Z</time>
      </trkpt>
      <trkpt lat="47.73998" lon="-3.09824">
        <ele>20.6</ele>
        <time>2020-06-06T14:59:39Z</time>
      </trkpt>
      <trkpt lat="47.74003" lon="-3.09828">
        <ele>20.6</ele>
        <time>2020-06-06T14:59:40Z</time>
      </trkpt>
      <trkpt lat="47.74008" lon="-3.09833">
        <ele>20.6</ele>
        <time>2020-06-06T14:59:41Z</time>
      </trkpt>
      <trkpt lat="47.74013" lon="-3.09837">
        <ele>20.7</ele>
        <time>2020-06-06T14:59:42Z</time>
      </trkpt>
      <trkpt lat="47.74017" lon="-3.09842">
        <ele>20.7</ele>
        <time>2020-06-06T14:59:43Z</time>
      </trkpt>
      <trkpt lat="47.74022" lon="-3.09846">
        <ele>20.7</ele>
        <time>2020-06-06T14:59:44Z</time>
      </trkpt>
      <trkpt lat="47.74026" lon="-3.09849">
        <ele>20.7</ele>
        <time>2020-06-06T14:59:45Z</time>
      </trkpt>
      <trkpt lat="47.7403" lon="-3.09851">
        <ele>20.7</ele>
        <time>2020-06-06T14:59:46Z</time>
      </trkpt>
      <trkpt lat="47.74034" lon="-3.09854">
        <ele>20.8</ele>
        <time>2020-06-06T14:59:47Z</time>
      </trkpt>
      <trkpt lat="47.74038" lon="-3.09857">
        <ele>20.8</ele>
        <time>2020-06-06T14:59:48Z</time>
      </trkpt>
      <trkpt lat="47.74041" lon="-3.0986">
        <ele>20.8</ele>
        <time>2020-06-06T14:59:49Z</time>
      </trkpt>
      <trkpt lat="47.74045" lon="-3.09863">
        <ele>20.8</ele>
        <time>2020-06-06T14:59:50Z</time>
      </trkpt>
      <trkpt lat="47.74051" lon="-3.09868">
        <ele>20.9</ele>
        <time>2020-06-06T14:59:51Z</time>
      </trkpt>
      <trkpt lat="47.74056" lon="-3.09871">
        <ele>20.9</ele>
        <time>2020-06-06T14:59:52Z</time>
      </trkpt>
      <trkpt lat="47.74062" lon="-3.09875">
        <ele>20.9</ele>
        <time>2020-06-06T14:59:53Z</time>
      </trkpt>
      <trkpt lat="47.74068" lon="-3.0988">
        <ele>20.9</ele>
        <time>2020-06-06T14:59:54Z</time>
      </trkpt>
      <trkpt lat="47.74072" lon="-3.09884">
        <ele>21</ele>
        <time>2020-06-06T14:59:55Z</time>
      </trkpt>
      <trkpt lat="47.74077" lon="-3.09889">
        <ele>21</ele>
        <time>2020-06-06T14:59:56Z</time>
      </trkpt>
      <trkpt lat="47.74081" lon="-3.09893">
        <ele>21</ele>
        <time>2020-06-06T14:59:57Z</time>
      </trkpt>
      <trkpt lat="47.74087" lon="-3.09897">
        <ele>21.1</ele>
        <time>2020-06-06T14:59:58Z</time>
      </trkpt>
      <trkpt lat="47.74092" lon="-3.09901">
        <ele>21.2</ele>
        <time>2020-06-06T14:59:59Z</time>
      </trkpt>
      <trkpt lat="47.74096" lon="-3.09905">
        <ele>21.2</ele>
        <time>2020-06-06T15:00:00Z</time>
      </trkpt>
      <trkpt lat="47.74101" lon="-3.09908">
        <ele>21.3</ele>
        <time>2020-06-06T15:00:01Z</time>
      </trkpt>
      <trkpt lat="47.74106" lon="-3.09912">
        <ele>21.3</ele>
        <time>2020-06-06T15:00:02Z</time>
      </trkpt>
      <trkpt lat="47.7411" lon="-3.09916">
        <ele>21.4</ele>
        <time>2020-06-06T15:00:03Z</time>
      </trkpt>
      <trkpt lat="47.74116" lon="-3.0992">
        <ele>21.4</ele>
        <time>2020-06-06T15:00:04Z</time>
      </trkpt>
      <trkpt lat="47.7412" lon="-3.09923">
        <ele>21.5</ele>
        <time>2020-06-06T15:00:05Z</time>
      </trkpt>
      <trkpt lat="47.74124" lon="-3.09927">
        <ele>21.5</ele>
        <time>2020-06-06T15:00:06Z</time>
      </trkpt>
      <trkpt lat="47.74128" lon="-3.09931">
        <ele>21.6</ele>
        <time>2020-06-06T15:00:07Z</time>
      </trkpt>
      <trkpt lat="47.74133" lon="-3.09935">
        <ele>21.6</ele>
        <time>2020-06-06T15:00:08Z</time>
      </trkpt>
      <trkpt lat="47.7414" lon="-3.09938">
        <ele>21.7</ele>
        <time>2020-06-06T15:00:09Z</time>
      </trkpt>
      <trkpt lat="47.74146" lon="-3.09942">
        <ele>21.8</ele>
        <time>2020-06-06T15:00:10Z</time>
      </trkpt>
      <trkpt lat="47.74152" lon="-3.09945">
        <ele>21.9</ele>
        <time>2020-06-06T15:00:11Z</time>
      </trkpt>
      <trkpt lat="47.74157" lon="-3.09948">
        <ele>22</ele>
        <time>2020-06-06T15:00:12Z</time>
      </trkpt>
      <trkpt lat="47.74162" lon="-3.09952">
        <ele>22</ele>
        <time>2020-06-06T15:00:13Z</time>
      </trkpt>
      <trkpt lat="47.74166" lon="-3.09955">
        <ele>22.1</ele>
        <time>2020-06-06T15:00:14Z</time>
      </trkpt>
      <trkpt lat="47.7417" lon="-3.09959">
        <ele>22.1</ele>
        <time>2020-06-06T15:00:15Z</time>
      </trkpt>
      <trkpt lat="47.74174" lon="-3.09963">
        <ele>22.2</ele>
        <time>2020-06-06T15:00:16Z</time>
      </trkpt>
      <trkpt lat="47.74177" lon="-3.09967">
        <ele>22.2</ele>
        <time>2020-06-06T15:00:17Z</time>
      </trkpt>
      <trkpt lat="47.74182" lon="-3.0997">
        <ele>22.3</ele>
        <time>2020-06-06T15:00:18Z</time>
      </trkpt>
      <trkpt lat="47.74184" lon="-3.09972">
        <ele>22.4</ele>
        <time>2020-06-06T15:00:19Z</time>
      </trkpt>
      <trkpt lat="47.74188" lon="-3.09975">
        <ele>22.4</ele>
        <time>2020-06-06T15:00:20Z</time>
      </trkpt>
      <trkpt lat="47.74192" lon="-3.09978">
        <ele>22.5</ele>
        <time>2020-06-06T15:00:21Z</time>
      </trkpt>
      <trkpt lat="47.74196" lon="-3.09982">
        <ele>22.6</ele>
        <time>2020-06-06T15:00:22Z</time>
      </trkpt>
      <trkpt lat="47.74199" lon="-3.09986">
        <ele>22.7</ele>
        <time>2020-06-06T15:00:23Z</time>
      </trkpt>
      <trkpt lat="47.74203" lon="-3.0999">
        <ele>22.8</ele>
        <time>2020-06-06T15:00:24Z</time>
      </trkpt>
      <trkpt lat="47.74208" lon="-3.09994">
        <ele>23</ele>
        <time>2020-06-06T15:00:25Z</time>
      </trkpt>
      <trkpt lat="47.74213" lon="-3.09998">
        <ele>23</ele>
        <time>2020-06-06T15:00:26Z</time>
      </trkpt>
      <trkpt lat="47.74218" lon="-3.10001">
        <ele>23</ele>
        <time>2020-06-06T15:00:27Z</time>
      </trkpt>
      <trkpt lat="47.74221" lon="-3.10005">
        <ele>23</ele>
        <time>2020-06-06T15:00:28Z</time>
      </trkpt>
      <trkpt lat="47.74225" lon="-3.10008">
        <ele>23</ele>
        <time>2020-06-06T15:00:29Z</time>
      </trkpt>
      <trkpt lat="47.7423" lon="-3.10012">
        <ele>22.9</ele>
        <time>2020-06-06T15:00:30Z</time>
      </trkpt>
      <trkpt lat="47.74235" lon="-3.10016">
        <ele>22.9</ele>
        <time>2020-06-06T15:00:31Z</time>
      </trkpt>
      <trkpt lat="47.7424" lon="-3.10022">
        <ele>22.9</ele>
        <time>2020-06-06T15:00:32Z</time>
      </trkpt>
      <trkpt lat="47.74246" lon="-3.10027">
        <ele>22.9</ele>
        <time>2020-06-06T15:00:33Z</time>
      </trkpt>
      <trkpt lat="47.7425" lon="-3.10032">
        <ele>22.8</ele>
        <time>2020-06-06T15:00:34Z</time>
      </trkpt>
      <trkpt lat="47.74254" lon="-3.10037">
        <ele>22.8</ele>
        <time>2020-06-06T15:00:35Z</time>
      </trkpt>
      <trkpt lat="47.74258" lon="-3.10041">
        <ele>22.8</ele>
        <time>2020-06-06T15:00:36Z</time>
      </trkpt>
      <trkpt lat="47.74262" lon="-3.10044">
        <ele>22.8</ele>
        <time>2020-06-06T15:00:37Z</time>
      </trkpt>
      <trkpt lat="47.74267" lon="-3.10049">
        <ele>22.8</ele>
        <time>2020-06-06T15:00:38Z</time>
      </trkpt>
      <trkpt lat="47.74272" lon="-3.10053">
        <ele>22.8</ele>
        <time>2020-06-06T15:00:39Z</time>
      </trkpt>
      <trkpt lat="47.74277" lon="-3.10057">
        <ele>22.7</ele>
        <time>2020-06-06T15:00:40Z</time>
      </trkpt>
      <trkpt lat="47.74282" lon="-3.10061">
        <ele>22.7</ele>
        <time>2020-06-06T15:00:41Z</time>
      </trkpt>
      <trkpt lat="47.74287" lon="-3.10065">
        <ele>22.7</ele>
        <time>2020-06-06T15:00:42Z</time>
      </trkpt>
      <trkpt lat="47.74292" lon="-3.10068">
        <ele>22.7</ele>
        <time>2020-06-06T15:00:43Z</time>
      </trkpt>
      <trkpt lat="47.74297" lon="-3.10071">
        <ele>22.6</ele>
        <time>2020-06-06T15:00:44Z</time>
      </trkpt>
      <trkpt lat="47.74301" lon="-3.10075">
        <ele>22.6</ele>
        <time>2020-06-06T15:00:45Z</time>
      </trkpt>
      <trkpt lat="47.74305" lon="-3.10079">
        <ele>22.6</ele>
        <time>2020-06-06T15:00:46Z</time>
      </trkpt>
      <trkpt lat="47.74309" lon="-3.10083">
        <ele>22.6</ele>
        <time>2020-06-06T15:00:47Z</time>
      </trkpt>
      <trkpt lat="47.74313" lon="-3.10086">
        <ele>22.6</ele>
        <time>2020-06-06T15:00:48Z</time>
      </trkpt>
      <trkpt lat="47.74317" lon="-3.10089">
        <ele>22.5</ele>
        <time>2020-06-06T15:00:49Z</time>
      </trkpt>
      <trkpt lat="47.74322" lon="-3.10093">
        <ele>22.5</ele>
        <time>2020-06-06T15:00:50Z</time>
      </trkpt>
      <trkpt lat="47.74326" lon="-3.10096">
        <ele>22.5</ele>
        <time>2020-06-06T15:00:51Z</time>
      </trkpt>
      <trkpt lat="47.7433" lon="-3.10099">
        <ele>22.5</ele>
        <time>2020-06-06T15:00:52Z</time>
      </trkpt>
      <trkpt lat="47.74333" lon="-3.10101">
        <ele>22.5</ele>
        <time>2020-06-06T15:00:53Z</time>
      </trkpt>
      <trkpt lat="47.74337" lon="-3.10104">
        <ele>22.5</ele>
        <time>2020-06-06T15:00:54Z</time>
      </trkpt>
      <trkpt lat="47.74341" lon="-3.10108">
        <ele>22.5</ele>
        <time>2020-06-06T15:00:55Z</time>
      </trkpt>
      <trkpt lat="47.74345" lon="-3.1011">
        <ele>22.5</ele>
        <time>2020-06-06T15:00:56Z</time>
      </trkpt>
      <trkpt lat="47.7435" lon="-3.10115">
        <ele>22.4</ele>
        <time>2020-06-06T15:00:57Z</time>
      </trkpt>
      <trkpt lat="47.74355" lon="-3.10119">
        <ele>22.4</ele>
        <time>2020-06-06T15:00:58Z</time>
      </trkpt>
      <trkpt lat="47.74361" lon="-3.10123">
        <ele>22.4</ele>
        <time>2020-06-06T15:00:59Z</time>
      </trkpt>
      <trkpt lat="47.74365" lon="-3.10127">
        <ele>22.3</ele>
        <time>2020-06-06T15:01:00Z</time>
      </trkpt>
      <trkpt lat="47.7437" lon="-3.1013">
        <ele>22.2</ele>
        <time>2020-06-06T15:01:01Z</time>
      </trkpt>
      <trkpt lat="47.74373" lon="-3.10133">
        <ele>22.2</ele>
        <time>2020-06-06T15:01:02Z</time>
      </trkpt>
      <trkpt lat="47.74378" lon="-3.10136">
        <ele>22.1</ele>
        <time>2020-06-06T15:01:03Z</time>
      </trkpt>
      <trkpt lat="47.74381" lon="-3.10139">
        <ele>22.1</ele>
        <time>2020-06-06T15:01:04Z</time>
      </trkpt>
      <trkpt lat="47.74385" lon="-3.10142">
        <ele>22.1</ele>
        <time>2020-06-06T15:01:05Z</time>
      </trkpt>
      <trkpt lat="47.74389" lon="-3.10145">
        <ele>22</ele>
        <time>2020-06-06T15:01:06Z</time>
      </trkpt>
      <trkpt lat="47.74393" lon="-3.10148">
        <ele>22</ele>
        <time>2020-06-06T15:01:07Z</time>
      </trkpt>
      <trkpt lat="47.74397" lon="-3.10151">
        <ele>22</ele>
        <time>2020-06-06T15:01:08Z</time>
      </trkpt>
      <trkpt lat="47.74402" lon="-3.10155">
        <ele>22</ele>
        <time>2020-06-06T15:01:09Z</time>
      </trkpt>
      <trkpt lat="47.74405" lon="-3.10159">
        <ele>22</ele>
        <time>2020-06-06T15:01:10Z</time>
      </trkpt>
      <trkpt lat="47.7441" lon="-3.10163">
        <ele>22</ele>
        <time>2020-06-06T15:01:11Z</time>
      </trkpt>
      <trkpt lat="47.74414" lon="-3.10166">
        <ele>22.1</ele>
        <time>2020-06-06T15:01:12Z</time>
      </trkpt>
      <trkpt lat="47.74418" lon="-3.10171">
        <ele>22.1</ele>
        <time>2020-06-06T15:01:13Z</time>
      </trkpt>
      <trkpt lat="47.74422" lon="-3.10175">
        <ele>22.4</ele>
        <time>2020-06-06T15:01:14Z</time>
      </trkpt>
      <trkpt lat="47.74426" lon="-3.10178">
        <ele>22.5</ele>
        <time>2020-06-06T15:01:15Z</time>
      </trkpt>
      <trkpt lat="47.74431" lon="-3.10182">
        <ele>22.4</ele>
        <time>2020-06-06T15:01:16Z</time>
      </trkpt>
      <trkpt lat="47.74435" lon="-3.10185">
        <ele>22.3</ele>
        <time>2020-06-06T15:01:17Z</time>
      </trkpt>
      <trkpt lat="47.7444" lon="-3.10188">
        <ele>22.2</ele>
        <time>2020-06-06T15:01:18Z</time>
      </trkpt>
      <trkpt lat="47.74443" lon="-3.10191">
        <ele>22</ele>
        <time>2020-06-06T15:01:19Z</time>
      </trkpt>
      <trkpt lat="47.74449" lon="-3.10197">
        <ele>21.8</ele>
        <time>2020-06-06T15:01:20Z</time>
      </trkpt>
      <trkpt lat="47.74453" lon="-3.10202">
        <ele>21.5</ele>
        <time>2020-06-06T15:01:21Z</time>
      </trkpt>
      <trkpt lat="47.74458" lon="-3.10208">
        <ele>21.3</ele>
        <time>2020-06-06T15:01:22Z</time>
      </trkpt>
      <trkpt lat="47.74463" lon="-3.10214">
        <ele>21.1</ele>
        <time>2020-06-06T15:01:23Z</time>
      </trkpt>
      <trkpt lat="47.74468" lon="-3.1022">
        <ele>21</ele>
        <time>2020-06-06T15:01:24Z</time>
      </trkpt>
      <trkpt lat="47.74473" lon="-3.10226">
        <ele>20.8</ele>
        <time>2020-06-06T15:01:25Z</time>
      </trkpt>
      <trkpt lat="47.74477" lon="-3.10231">
        <ele>20.7</ele>
        <time>2020-06-06T15:01:26Z</time>
      </trkpt>
      <trkpt lat="47.74482" lon="-3.10235">
        <ele>20.7</ele>
        <time>2020-06-06T15:01:27Z</time>
      </trkpt>
      <trkpt lat="47.74487" lon="-3.1024">
        <ele>20.6</ele>
        <time>2020-06-06T15:01:28Z</time>
      </trkpt>
      <trkpt lat="47.74492" lon="-3.10243">
        <ele>20.6</ele>
        <time>2020-06-06T15:01:29Z</time>
      </trkpt>
      <trkpt lat="47.74496" lon="-3.10246">
        <ele>20.6</ele>
        <time>2020-06-06T15:01:30Z</time>
      </trkpt>
      <trkpt lat="47.745" lon="-3.10249">
        <ele>20.6</ele>
        <time>2020-06-06T15:01:31Z</time>
      </trkpt>
      <trkpt lat="47.74504" lon="-3.10252">
        <ele>20.6</ele>
        <time>2020-06-06T15:01:32Z</time>
      </trkpt>
      <trkpt lat="47.74508" lon="-3.10255">
        <ele>20.6</ele>
        <time>2020-06-06T15:01:33Z</time>
      </trkpt>
      <trkpt lat="47.74513" lon="-3.10259">
        <ele>20.6</ele>
        <time>2020-06-06T15:01:34Z</time>
      </trkpt>
      <trkpt lat="47.74517" lon="-3.10263">
        <ele>20.6</ele>
        <time>2020-06-06T15:01:35Z</time>
      </trkpt>
      <trkpt lat="47.74521" lon="-3.10267">
        <ele>20.6</ele>
        <time>2020-06-06T15:01:36Z</time>
      </trkpt>
      <trkpt lat="47.74524" lon="-3.10269">
        <ele>20.6</ele>
        <time>2020-06-06T15:01:37Z</time>
      </trkpt>
      <trkpt lat="47.74528" lon="-3.10272">
        <ele>20.6</ele>
        <time>2020-06-06T15:01:38Z</time>
      </trkpt>
      <trkpt lat="47.74531" lon="-3.10275">
        <ele>20.6</ele>
        <time>2020-06-06T15:01:39Z</time>
      </trkpt>
      <trkpt lat="47.74535" lon="-3.10278">
        <ele>20.6</ele>
        <time>2020-06-06T15:01:40Z</time>
      </trkpt>
      <trkpt lat="47.74539" lon="-3.10282">
        <ele>20.6</ele>
        <time>2020-06-06T15:01:41Z</time>
      </trkpt>
      <trkpt lat="47.74543" lon="-3.10286">
        <ele>20.6</ele>
        <time>2020-06-06T15:01:42Z</time>
      </trkpt>
      <trkpt lat="47.74547" lon="-3.1029">
        <ele>20.6</ele>
        <time>2020-06-06T15:01:43Z</time>
      </trkpt>
      <trkpt lat="47.74552" lon="-3.10294">
        <ele>20.5</ele>
        <time>2020-06-06T15:01:44Z</time>
      </trkpt>
      <trkpt lat="47.74556" lon="-3.10297">
        <ele>20.5</ele>
        <time>2020-06-06T15:01:45Z</time>
      </trkpt>
      <trkpt lat="47.7456" lon="-3.103">
        <ele>20.5</ele>
        <time>2020-06-06T15:01:46Z</time>
      </trkpt>
      <trkpt lat="47.74566" lon="-3.10305">
        <ele>20.5</ele>
        <time>2020-06-06T15:01:47Z</time>
      </trkpt>
      <trkpt lat="47.7457" lon="-3.1031">
        <ele>20.5</ele>
        <time>2020-06-06T15:01:48Z</time>
      </trkpt>
      <trkpt lat="47.74574" lon="-3.10314">
        <ele>20.5</ele>
        <time>2020-06-06T15:01:49Z</time>
      </trkpt>
      <trkpt lat="47.74578" lon="-3.10317">
        <ele>20.5</ele>
        <time>2020-06-06T15:01:50Z</time>
      </trkpt>
      <trkpt lat="47.74583" lon="-3.10322">
        <ele>20.5</ele>
        <time>2020-06-06T15:01:51Z</time>
      </trkpt>
      <trkpt lat="47.74587" lon="-3.10325">
        <ele>20.6</ele>
        <time>2020-06-06T15:01:52Z</time>
      </trkpt>
      <trkpt lat="47.74591" lon="-3.10329">
        <ele>20.6</ele>
        <time>2020-06-06T15:01:53Z</time>
      </trkpt>
      <trkpt lat="47.74597" lon="-3.10334">
        <ele>20.7</ele>
        <time>2020-06-06T15:01:54Z</time>
      </trkpt>
      <trkpt lat="47.74601" lon="-3.10337">
        <ele>20.7</ele>
        <time>2020-06-06T15:01:55Z</time>
      </trkpt>
      <trkpt lat="47.74606" lon="-3.10341">
        <ele>20.8</ele>
        <time>2020-06-06T15:01:56Z</time>
      </trkpt>
      <trkpt lat="47.7461" lon="-3.10345">
        <ele>20.8</ele>
        <time>2020-06-06T15:01:57Z</time>
      </trkpt>
      <trkpt lat="47.74615" lon="-3.10348">
        <ele>20.9</ele>
        <time>2020-06-06T15:01:58Z</time>
      </trkpt>
      <trkpt lat="47.7462" lon="-3.10352">
        <ele>21</ele>
        <time>2020-06-06T15:01:59Z</time>
      </trkpt>
      <trkpt lat="47.74624" lon="-3.10356">
        <ele>21</ele>
        <time>2020-06-06T15:02:00Z</time>
      </trkpt>
      <trkpt lat="47.74627" lon="-3.1036">
        <ele>21.1</ele>
        <time>2020-06-06T15:02:01Z</time>
      </trkpt>
      <trkpt lat="47.74631" lon="-3.10364">
        <ele>21.2</ele>
        <time>2020-06-06T15:02:02Z</time>
      </trkpt>
      <trkpt lat="47.74634" lon="-3.10369">
        <ele>21.2</ele>
        <time>2020-06-06T15:02:03Z</time>
      </trkpt>
      <trkpt lat="47.74636" lon="-3.10373">
        <ele>21.3</ele>
        <time>2020-06-06T15:02:04Z</time>
      </trkpt>
      <trkpt lat="47.74638" lon="-3.10377">
        <ele>21.4</ele>
        <time>2020-06-06T15:02:05Z</time>
      </trkpt>
      <trkpt lat="47.7464" lon="-3.10382">
        <ele>21.4</ele>
        <time>2020-06-06T15:02:06Z</time>
      </trkpt>
      <trkpt lat="47.74642" lon="-3.10386">
        <ele>21.5</ele>
        <time>2020-06-06T15:02:07Z</time>
      </trkpt>
      <trkpt lat="47.74644" lon="-3.10391">
        <ele>21.6</ele>
        <time>2020-06-06T15:02:08Z</time>
      </trkpt>
      <trkpt lat="47.74646" lon="-3.10397">
        <ele>21.7</ele>
        <time>2020-06-06T15:02:09Z</time>
      </trkpt>
      <trkpt lat="47.74648" lon="-3.10403">
        <ele>21.8</ele>
        <time>2020-06-06T15:02:10Z</time>
      </trkpt>
      <trkpt lat="47.74651" lon="-3.1041">
        <ele>21.9</ele>
        <time>2020-06-06T15:02:11Z</time>
      </trkpt>
      <trkpt lat="47.74653" lon="-3.10417">
        <ele>22.1</ele>
        <time>2020-06-06T15:02:12Z</time>
      </trkpt>
      <trkpt lat="47.74655" lon="-3.10425">
        <ele>22.2</ele>
        <time>2020-06-06T15:02:13Z</time>
      </trkpt>
      <trkpt lat="47.74658" lon="-3.10432">
        <ele>22.3</ele>
        <time>2020-06-06T15:02:14Z</time>
      </trkpt>
      <trkpt lat="47.74662" lon="-3.10439">
        <ele>22.5</ele>
        <time>2020-06-06T15:02:15Z</time>
      </trkpt>
      <trkpt lat="47.74665" lon="-3.10444">
        <ele>22.6</ele>
        <time>2020-06-06T15:02:16Z</time>
      </trkpt>
      <trkpt lat="47.74669" lon="-3.10449">
        <ele>22.7</ele>
        <time>2020-06-06T15:02:17Z</time>
      </trkpt>
      <trkpt lat="47.74672" lon="-3.10452">
        <ele>22.8</ele>
        <time>2020-06-06T15:02:18Z</time>
      </trkpt>
      <trkpt lat="47.74677" lon="-3.10454">
        <ele>23</ele>
        <time>2020-06-06T15:02:19Z</time>
      </trkpt>
      <trkpt lat="47.74682" lon="-3.10455">
        <ele>23.1</ele>
        <time>2020-06-06T15:02:20Z</time>
      </trkpt>
      <trkpt lat="47.74686" lon="-3.10456">
        <ele>23.2</ele>
        <time>2020-06-06T15:02:21Z</time>
      </trkpt>
      <trkpt lat="47.74691" lon="-3.10457">
        <ele>23.3</ele>
        <time>2020-06-06T15:02:22Z</time>
      </trkpt>
      <trkpt lat="47.74695" lon="-3.10458">
        <ele>23.5</ele>
        <time>2020-06-06T15:02:23Z</time>
      </trkpt>
      <trkpt lat="47.74699" lon="-3.1046">
        <ele>23.6</ele>
        <time>2020-06-06T15:02:24Z</time>
      </trkpt>
      <trkpt lat="47.74703" lon="-3.10461">
        <ele>23.8</ele>
        <time>2020-06-06T15:02:25Z</time>
      </trkpt>
      <trkpt lat="47.74707" lon="-3.10463">
        <ele>24</ele>
        <time>2020-06-06T15:02:26Z</time>
      </trkpt>
      <trkpt lat="47.7471" lon="-3.10468">
        <ele>24.2</ele>
        <time>2020-06-06T15:02:27Z</time>
      </trkpt>
      <trkpt lat="47.74714" lon="-3.10474">
        <ele>24.4</ele>
        <time>2020-06-06T15:02:28Z</time>
      </trkpt>
      <trkpt lat="47.74717" lon="-3.1048">
        <ele>24.6</ele>
        <time>2020-06-06T15:02:29Z</time>
      </trkpt>
      <trkpt lat="47.74719" lon="-3.10485">
        <ele>24.8</ele>
        <time>2020-06-06T15:02:30Z</time>
      </trkpt>
      <trkpt lat="47.74723" lon="-3.1049">
        <ele>25</ele>
        <time>2020-06-06T15:02:31Z</time>
      </trkpt>
      <trkpt lat="47.74725" lon="-3.10494">
        <ele>25.1</ele>
        <time>2020-06-06T15:02:32Z</time>
      </trkpt>
      <trkpt lat="47.74728" lon="-3.10498">
        <ele>25.3</ele>
        <time>2020-06-06T15:02:33Z</time>
      </trkpt>
      <trkpt lat="47.74731" lon="-3.10502">
        <ele>25.5</ele>
        <time>2020-06-06T15:02:34Z</time>
      </trkpt>
      <trkpt lat="47.74735" lon="-3.10504">
        <ele>25.6</ele>
        <time>2020-06-06T15:02:35Z</time>
      </trkpt>
      <trkpt lat="47.74739" lon="-3.10506">
        <ele>25.8</ele>
        <time>2020-06-06T15:02:36Z</time>
      </trkpt>
      <trkpt lat="47.74743" lon="-3.10507">
        <ele>26</ele>
        <time>2020-06-06T15:02:37Z</time>
      </trkpt>
      <trkpt lat="47.74747" lon="-3.10508">
        <ele>26.1</ele>
        <time>2020-06-06T15:02:38Z</time>
      </trkpt>
      <trkpt lat="47.74751" lon="-3.1051">
        <ele>26.3</ele>
        <time>2020-06-06T15:02:39Z</time>
      </trkpt>
      <trkpt lat="47.74754" lon="-3.10511">
        <ele>26.4</ele>
        <time>2020-06-06T15:02:40Z</time>
      </trkpt>
      <trkpt lat="47.74758" lon="-3.10512">
        <ele>26.6</ele>
        <time>2020-06-06T15:02:41Z</time>
      </trkpt>
      <trkpt lat="47.74761" lon="-3.10513">
        <ele>26.7</ele>
        <time>2020-06-06T15:02:42Z</time>
      </trkpt>
      <trkpt lat="47.74765" lon="-3.10512">
        <ele>26.8</ele>
        <time>2020-06-06T15:02:43Z</time>
      </trkpt>
      <trkpt lat="47.7477" lon="-3.10511">
        <ele>27</ele>
        <time>2020-06-06T15:02:44Z</time>
      </trkpt>
      <trkpt lat="47.74773" lon="-3.1051">
        <ele>27.1</ele>
        <time>2020-06-06T15:02:45Z</time>
      </trkpt>
      <trkpt lat="47.74776" lon="-3.10507">
        <ele>27.1</ele>
        <time>2020-06-06T15:02:46Z</time>
      </trkpt>
      <trkpt lat="47.74779" lon="-3.10506">
        <ele>27.1</ele>
        <time>2020-06-06T15:02:47Z</time>
      </trkpt>
      <trkpt lat="47.74782" lon="-3.10504">
        <ele>27.2</ele>
        <time>2020-06-06T15:02:48Z</time>
      </trkpt>
      <trkpt lat="47.74786" lon="-3.10502">
        <ele>27.2</ele>
        <time>2020-06-06T15:02:49Z</time>
      </trkpt>
      <trkpt lat="47.7479" lon="-3.10501">
        <ele>27.2</ele>
        <time>2020-06-06T15:02:50Z</time>
      </trkpt>
      <trkpt lat="47.74793" lon="-3.105">
        <ele>27.3</ele>
        <time>2020-06-06T15:02:51Z</time>
      </trkpt>
      <trkpt lat="47.74796" lon="-3.10498">
        <ele>27.3</ele>
        <time>2020-06-06T15:02:52Z</time>
      </trkpt>
      <trkpt lat="47.74799" lon="-3.10496">
        <ele>27.3</ele>
        <time>2020-06-06T15:02:53Z</time>
      </trkpt>
      <trkpt lat="47.748" lon="-3.10495">
        <ele>27.3</ele>
        <time>2020-06-06T15:02:54Z</time>
      </trkpt>
      <trkpt lat="47.74803" lon="-3.10493">
        <ele>27.4</ele>
        <time>2020-06-06T15:02:55Z</time>
      </trkpt>
      <trkpt lat="47.74804" lon="-3.10492">
        <ele>27.4</ele>
        <time>2020-06-06T15:02:56Z</time>
      </trkpt>
      <trkpt lat="47.74805" lon="-3.10491">
        <ele>27.4</ele>
        <time>2020-06-06T15:02:57Z</time>
      </trkpt>
      <trkpt lat="47.74806" lon="-3.10489">
        <ele>27.4</ele>
        <time>2020-06-06T15:02:58Z</time>
      </trkpt>
      <trkpt lat="47.74807" lon="-3.10489">
        <ele>27.4</ele>
        <time>2020-06-06T15:02:59Z</time>
      </trkpt>
      <trkpt lat="47.74805" lon="-3.10489">
        <ele>27.4</ele>
        <time>2020-06-06T15:03:00Z</time>
      </trkpt>
      <trkpt lat="47.74806" lon="-3.1049">
        <ele>27.4</ele>
        <time>2020-06-06T15:03:01Z</time>
      </trkpt>
      <trkpt lat="47.74806" lon="-3.1049">
        <ele>27.4</ele>
        <time>2020-06-06T15:03:02Z</time>
      </trkpt>
      <trkpt lat="47.74805" lon="-3.1049">
        <ele>27.4</ele>
        <time>2020-06-06T15:03:03Z</time>
      </trkpt>
      <trkpt lat="47.74805" lon="-3.10489">
        <ele>27.5</ele>
        <time>2020-06-06T15:03:04Z</time>
      </trkpt>
      <trkpt lat="47.74805" lon="-3.10489">
        <ele>27.5</ele>
        <time>2020-06-06T15:03:05Z</time>
      </trkpt>
      <trkpt lat="47.74805" lon="-3.10488">
        <ele>27.5</ele>
        <time>2020-06-06T15:03:06Z</time>
      </trkpt>
      <trkpt lat="47.74805" lon="-3.10488">
        <ele>27.5</ele>
        <time>2020-06-06T15:03:07Z</time>
      </trkpt>
      <trkpt lat="47.74805" lon="-3.10488">
        <ele>27.5</ele>
        <time>2020-06-06T15:03:08Z</time>
      </trkpt>
      <trkpt lat="47.74805" lon="-3.10488">
        <ele>27.5</ele>
        <time>2020-06-06T15:03:09Z</time>
      </trkpt>
      <trkpt lat="47.74805" lon="-3.10488">
        <ele>27.5</ele>
        <time>2020-06-06T15:03:10Z</time>
      </trkpt>
      <trkpt lat="47.74815" lon="-3.10482">
        <ele>27.6</ele>
        <time>2020-06-06T15:08:13Z</time>
      </trkpt>
      <trkpt lat="47.74817" lon="-3.1048">
        <ele>27.6</ele>
        <time>2020-06-06T15:08:14Z</time>
      </trkpt>
      <trkpt lat="47.74818" lon="-3.1048">
        <ele>27.6</ele>
        <time>2020-06-06T15:08:15Z</time>
      </trkpt>
      <trkpt lat="47.7482" lon="-3.10478">
        <ele>27.6</ele>
        <time>2020-06-06T15:08:16Z</time>
      </trkpt>
      <trkpt lat="47.74822" lon="-3.10475">
        <ele>27.6</ele>
        <time>2020-06-06T15:08:17Z</time>
      </trkpt>
      <trkpt lat="47.74823" lon="-3.10474">
        <ele>27.6</ele>
        <time>2020-06-06T15:08:18Z</time>
      </trkpt>
      <trkpt lat="47.74826" lon="-3.10472">
        <ele>27.5</ele>
        <time>2020-06-06T15:08:19Z</time>
      </trkpt>
      <trkpt lat="47.74827" lon="-3.10471">
        <ele>27.5</ele>
        <time>2020-06-06T15:08:20Z</time>
      </trkpt>
      <trkpt lat="47.7483" lon="-3.10469">
        <ele>27.5</ele>
        <time>2020-06-06T15:08:21Z</time>
      </trkpt>
      <trkpt lat="47.74832" lon="-3.10468">
        <ele>27.5</ele>
        <time>2020-06-06T15:08:22Z</time>
      </trkpt>
      <trkpt lat="47.74835" lon="-3.10467">
        <ele>27.4</ele>
        <time>2020-06-06T15:08:23Z</time>
      </trkpt>
      <trkpt lat="47.74836" lon="-3.10466">
        <ele>27.4</ele>
        <time>2020-06-06T15:08:24Z</time>
      </trkpt>
      <trkpt lat="47.74839" lon="-3.10467">
        <ele>27.3</ele>
        <time>2020-06-06T15:08:25Z</time>
      </trkpt>
      <trkpt lat="47.7484" lon="-3.10468">
        <ele>27.2</ele>
        <time>2020-06-06T15:08:26Z</time>
      </trkpt>
      <trkpt lat="47.74843" lon="-3.10471">
        <ele>27.2</ele>
        <time>2020-06-06T15:08:27Z</time>
      </trkpt>
      <trkpt lat="47.74847" lon="-3.10475">
        <ele>27.1</ele>
        <time>2020-06-06T15:08:28Z</time>
      </trkpt>
      <trkpt lat="47.7485" lon="-3.10478">
        <ele>26.9</ele>
        <time>2020-06-06T15:08:29Z</time>
      </trkpt>
      <trkpt lat="47.74854" lon="-3.10482">
        <ele>26.8</ele>
        <time>2020-06-06T15:08:30Z</time>
      </trkpt>
      <trkpt lat="47.74858" lon="-3.10485">
        <ele>26.7</ele>
        <time>2020-06-06T15:08:31Z</time>
      </trkpt>
      <trkpt lat="47.74863" lon="-3.10488">
        <ele>26.5</ele>
        <time>2020-06-06T15:08:32Z</time>
      </trkpt>
      <trkpt lat="47.74868" lon="-3.10491">
        <ele>26.4</ele>
        <time>2020-06-06T15:08:33Z</time>
      </trkpt>
      <trkpt lat="47.74874" lon="-3.10494">
        <ele>26.2</ele>
        <time>2020-06-06T15:08:34Z</time>
      </trkpt>
      <trkpt lat="47.7488" lon="-3.10498">
        <ele>26</ele>
        <time>2020-06-06T15:08:35Z</time>
      </trkpt>
      <trkpt lat="47.74884" lon="-3.10502">
        <ele>25.8</ele>
        <time>2020-06-06T15:08:36Z</time>
      </trkpt>
      <trkpt lat="47.74888" lon="-3.10506">
        <ele>25.6</ele>
        <time>2020-06-06T15:08:37Z</time>
      </trkpt>
      <trkpt lat="47.74892" lon="-3.1051">
        <ele>25.5</ele>
        <time>2020-06-06T15:08:38Z</time>
      </trkpt>
      <trkpt lat="47.74896" lon="-3.10513">
        <ele>25.3</ele>
        <time>2020-06-06T15:08:39Z</time>
      </trkpt>
      <trkpt lat="47.74901" lon="-3.10515">
        <ele>25.1</ele>
        <time>2020-06-06T15:08:40Z</time>
      </trkpt>
      <trkpt lat="47.74906" lon="-3.10519">
        <ele>24.9</ele>
        <time>2020-06-06T15:08:41Z</time>
      </trkpt>
      <trkpt lat="47.74912" lon="-3.10524">
        <ele>24.6</ele>
        <time>2020-06-06T15:08:42Z</time>
      </trkpt>
      <trkpt lat="47.74917" lon="-3.10528">
        <ele>24.4</ele>
        <time>2020-06-06T15:08:43Z</time>
      </trkpt>
      <trkpt lat="47.74922" lon="-3.10535">
        <ele>24.1</ele>
        <time>2020-06-06T15:08:44Z</time>
      </trkpt>
      <trkpt lat="47.74928" lon="-3.1054">
        <ele>23.8</ele>
        <time>2020-06-06T15:08:45Z</time>
      </trkpt>
      <trkpt lat="47.74935" lon="-3.10545">
        <ele>23.4</ele>
        <time>2020-06-06T15:08:46Z</time>
      </trkpt>
      <trkpt lat="47.74942" lon="-3.10549">
        <ele>23.1</ele>
        <time>2020-06-06T15:08:47Z</time>
      </trkpt>
      <trkpt lat="47.74947" lon="-3.10554">
        <ele>22.9</ele>
        <time>2020-06-06T15:08:48Z</time>
      </trkpt>
      <trkpt lat="47.74955" lon="-3.1056">
        <ele>22.5</ele>
        <time>2020-06-06T15:08:49Z</time>
      </trkpt>
      <trkpt lat="47.74961" lon="-3.10565">
        <ele>22.2</ele>
        <time>2020-06-06T15:08:50Z</time>
      </trkpt>
      <trkpt lat="47.74968" lon="-3.10571">
        <ele>21.9</ele>
        <time>2020-06-06T15:08:51Z</time>
      </trkpt>
      <trkpt lat="47.74974" lon="-3.10577">
        <ele>21.6</ele>
        <time>2020-06-06T15:08:52Z</time>
      </trkpt>
      <trkpt lat="47.74981" lon="-3.10582">
        <ele>21.3</ele>
        <time>2020-06-06T15:08:53Z</time>
      </trkpt>
      <trkpt lat="47.74987" lon="-3.10587">
        <ele>21</ele>
        <time>2020-06-06T15:08:54Z</time>
      </trkpt>
      <trkpt lat="47.74994" lon="-3.10593">
        <ele>20.7</ele>
        <time>2020-06-06T15:08:55Z</time>
      </trkpt>
      <trkpt lat="47.75" lon="-3.10598">
        <ele>20.4</ele>
        <time>2020-06-06T15:08:56Z</time>
      </trkpt>
      <trkpt lat="47.75007" lon="-3.10605">
        <ele>20</ele>
        <time>2020-06-06T15:08:57Z</time>
      </trkpt>
      <trkpt lat="47.75014" lon="-3.10611">
        <ele>19.6</ele>
        <time>2020-06-06T15:08:58Z</time>
      </trkpt>
      <trkpt lat="47.7502" lon="-3.10616">
        <ele>19.3</ele>
        <time>2020-06-06T15:08:59Z</time>
      </trkpt>
      <trkpt lat="47.75027" lon="-3.1062">
        <ele>18.9</ele>
        <time>2020-06-06T15:09:00Z</time>
      </trkpt>
      <trkpt lat="47.75033" lon="-3.10626">
        <ele>18.5</ele>
        <time>2020-06-06T15:09:01Z</time>
      </trkpt>
      <trkpt lat="47.75039" lon="-3.10631">
        <ele>18.2</ele>
        <time>2020-06-06T15:09:02Z</time>
      </trkpt>
      <trkpt lat="47.75045" lon="-3.10637">
        <ele>17.8</ele>
        <time>2020-06-06T15:09:03Z</time>
      </trkpt>
      <trkpt lat="47.75052" lon="-3.10642">
        <ele>17.4</ele>
        <time>2020-06-06T15:09:04Z</time>
      </trkpt>
      <trkpt lat="47.75058" lon="-3.10648">
        <ele>17</ele>
        <time>2020-06-06T15:09:05Z</time>
      </trkpt>
      <trkpt lat="47.75064" lon="-3.10653">
        <ele>16.5</ele>
        <time>2020-06-06T15:09:06Z</time>
      </trkpt>
      <trkpt lat="47.75071" lon="-3.10658">
        <ele>16.1</ele>
        <time>2020-06-06T15:09:07Z</time>
      </trkpt>
      <trkpt lat="47.75078" lon="-3.10665">
        <ele>15.7</ele>
        <time>2020-06-06T15:09:08Z</time>
      </trkpt>
      <trkpt lat="47.75085" lon="-3.10671">
        <ele>15.3</ele>
        <time>2020-06-06T15:09:09Z</time>
      </trkpt>
      <trkpt lat="47.75092" lon="-3.10678">
        <ele>15</ele>
        <time>2020-06-06T15:09:10Z</time>
      </trkpt>
      <trkpt lat="47.751" lon="-3.10684">
        <ele>14.7</ele>
        <time>2020-06-06T15:09:11Z</time>
      </trkpt>
      <trkpt lat="47.75107" lon="-3.1069">
        <ele>14.3</ele>
        <time>2020-06-06T15:09:12Z</time>
      </trkpt>
      <trkpt lat="47.75114" lon="-3.10696">
        <ele>14.1</ele>
        <time>2020-06-06T15:09:13Z</time>
      </trkpt>
      <trkpt lat="47.75121" lon="-3.10703">
        <ele>13.8</ele>
        <time>2020-06-06T15:09:14Z</time>
      </trkpt>
      <trkpt lat="47.75128" lon="-3.1071">
        <ele>13.6</ele>
        <time>2020-06-06T15:09:15Z</time>
      </trkpt>
      <trkpt lat="47.75135" lon="-3.10717">
        <ele>13.4</ele>
        <time>2020-06-06T15:09:16Z</time>
      </trkpt>
      <trkpt lat="47.75142" lon="-3.10723">
        <ele>13.2</ele>
        <time>2020-06-06T15:09:17Z</time>
      </trkpt>
      <trkpt lat="47.75149" lon="-3.10729">
        <ele>12.9</ele>
        <time>2020-06-06T15:09:18Z</time>
      </trkpt>
      <trkpt lat="47.75156" lon="-3.10735">
        <ele>12.8</ele>
        <time>2020-06-06T15:09:19Z</time>
      </trkpt>
      <trkpt lat="47.75162" lon="-3.1074">
        <ele>12.6</ele>
        <time>2020-06-06T15:09:20Z</time>
      </trkpt>
      <trkpt lat="47.75169" lon="-3.10745">
        <ele>12.5</ele>
        <time>2020-06-06T15:09:21Z</time>
      </trkpt>
      <trkpt lat="47.75175" lon="-3.10751">
        <ele>12.5</ele>
        <time>2020-06-06T15:09:22Z</time>
      </trkpt>
      <trkpt lat="47.75182" lon="-3.10756">
        <ele>12.4</ele>
        <time>2020-06-06T15:09:23Z</time>
      </trkpt>
      <trkpt lat="47.75189" lon="-3.1076">
        <ele>12.3</ele>
        <time>2020-06-06T15:09:24Z</time>
      </trkpt>
      <trkpt lat="47.75195" lon="-3.10765">
        <ele>12.2</ele>
        <time>2020-06-06T15:09:25Z</time>
      </trkpt>
      <trkpt lat="47.75201" lon="-3.1077">
        <ele>12</ele>
        <time>2020-06-06T15:09:26Z</time>
      </trkpt>
      <trkpt lat="47.75207" lon="-3.10775">
        <ele>11.8</ele>
        <time>2020-06-06T15:09:27Z</time>
      </trkpt>
      <trkpt lat="47.75213" lon="-3.1078">
        <ele>11.7</ele>
        <time>2020-06-06T15:09:28Z</time>
      </trkpt>
      <trkpt lat="47.7522" lon="-3.10785">
        <ele>11.5</ele>
        <time>2020-06-06T15:09:29Z</time>
      </trkpt>
      <trkpt lat="47.75226" lon="-3.1079">
        <ele>11.3</ele>
        <time>2020-06-06T15:09:30Z</time>
      </trkpt>
      <trkpt lat="47.75232" lon="-3.10796">
        <ele>11.1</ele>
        <time>2020-06-06T15:09:31Z</time>
      </trkpt>
      <trkpt lat="47.75238" lon="-3.10801">
        <ele>11</ele>
        <time>2020-06-06T15:09:32Z</time>
      </trkpt>
      <trkpt lat="47.75244" lon="-3.10806">
        <ele>10.9</ele>
        <time>2020-06-06T15:09:33Z</time>
      </trkpt>
      <trkpt lat="47.7525" lon="-3.10812">
        <ele>10.7</ele>
        <time>2020-06-06T15:09:34Z</time>
      </trkpt>
      <trkpt lat="47.75255" lon="-3.10818">
        <ele>10.5</ele>
        <time>2020-06-06T15:09:35Z</time>
      </trkpt>
      <trkpt lat="47.75261" lon="-3.10824">
        <ele>10.4</ele>
        <time>2020-06-06T15:09:36Z</time>
      </trkpt>
      <trkpt lat="47.75267" lon="-3.10828">
        <ele>10.2</ele>
        <time>2020-06-06T15:09:37Z</time>
      </trkpt>
      <trkpt lat="47.75273" lon="-3.10833">
        <ele>10.2</ele>
        <time>2020-06-06T15:09:38Z</time>
      </trkpt>
      <trkpt lat="47.75279" lon="-3.10839">
        <ele>10.1</ele>
        <time>2020-06-06T15:09:39Z</time>
      </trkpt>
      <trkpt lat="47.75286" lon="-3.10845">
        <ele>10</ele>
        <time>2020-06-06T15:09:40Z</time>
      </trkpt>
      <trkpt lat="47.75292" lon="-3.10849">
        <ele>9.8</ele>
        <time>2020-06-06T15:09:41Z</time>
      </trkpt>
      <trkpt lat="47.75299" lon="-3.10855">
        <ele>9.7</ele>
        <time>2020-06-06T15:09:42Z</time>
      </trkpt>
      <trkpt lat="47.75305" lon="-3.1086">
        <ele>9.6</ele>
        <time>2020-06-06T15:09:43Z</time>
      </trkpt>
      <trkpt lat="47.75312" lon="-3.10866">
        <ele>9.4</ele>
        <time>2020-06-06T15:09:44Z</time>
      </trkpt>
      <trkpt lat="47.75318" lon="-3.10872">
        <ele>9.3</ele>
        <time>2020-06-06T15:09:45Z</time>
      </trkpt>
      <trkpt lat="47.75324" lon="-3.10877">
        <ele>9.2</ele>
        <time>2020-06-06T15:09:46Z</time>
      </trkpt>
      <trkpt lat="47.75331" lon="-3.10883">
        <ele>9.1</ele>
        <time>2020-06-06T15:09:47Z</time>
      </trkpt>
      <trkpt lat="47.75337" lon="-3.10888">
        <ele>9.1</ele>
        <time>2020-06-06T15:09:48Z</time>
      </trkpt>
      <trkpt lat="47.75343" lon="-3.10893">
        <ele>9.1</ele>
        <time>2020-06-06T15:09:49Z</time>
      </trkpt>
      <trkpt lat="47.75349" lon="-3.10898">
        <ele>9.1</ele>
        <time>2020-06-06T15:09:50Z</time>
      </trkpt>
      <trkpt lat="47.75355" lon="-3.10903">
        <ele>9</ele>
        <time>2020-06-06T15:09:51Z</time>
      </trkpt>
      <trkpt lat="47.75361" lon="-3.10909">
        <ele>9</ele>
        <time>2020-06-06T15:09:52Z</time>
      </trkpt>
      <trkpt lat="47.75367" lon="-3.10914">
        <ele>9.1</ele>
        <time>2020-06-06T15:09:53Z</time>
      </trkpt>
      <trkpt lat="47.75373" lon="-3.10919">
        <ele>9</ele>
        <time>2020-06-06T15:09:54Z</time>
      </trkpt>
      <trkpt lat="47.75379" lon="-3.10925">
        <ele>8.8</ele>
        <time>2020-06-06T15:09:55Z</time>
      </trkpt>
      <trkpt lat="47.75385" lon="-3.1093">
        <ele>8.7</ele>
        <time>2020-06-06T15:09:56Z</time>
      </trkpt>
      <trkpt lat="47.75392" lon="-3.10935">
        <ele>8.5</ele>
        <time>2020-06-06T15:09:57Z</time>
      </trkpt>
      <trkpt lat="47.75398" lon="-3.1094">
        <ele>8.3</ele>
        <time>2020-06-06T15:09:58Z</time>
      </trkpt>
      <trkpt lat="47.75404" lon="-3.10946">
        <ele>8.1</ele>
        <time>2020-06-06T15:09:59Z</time>
      </trkpt>
      <trkpt lat="47.75411" lon="-3.10952">
        <ele>8</ele>
        <time>2020-06-06T15:10:00Z</time>
      </trkpt>
      <trkpt lat="47.75417" lon="-3.10958">
        <ele>7.9</ele>
        <time>2020-06-06T15:10:01Z</time>
      </trkpt>
      <trkpt lat="47.75424" lon="-3.10963">
        <ele>7.7</ele>
        <time>2020-06-06T15:10:02Z</time>
      </trkpt>
      <trkpt lat="47.7543" lon="-3.10968">
        <ele>7.6</ele>
        <time>2020-06-06T15:10:03Z</time>
      </trkpt>
      <trkpt lat="47.75436" lon="-3.10974">
        <ele>7.7</ele>
        <time>2020-06-06T15:10:04Z</time>
      </trkpt>
      <trkpt lat="47.75443" lon="-3.10979">
        <ele>7.8</ele>
        <time>2020-06-06T15:10:05Z</time>
      </trkpt>
      <trkpt lat="47.75449" lon="-3.10985">
        <ele>7.7</ele>
        <time>2020-06-06T15:10:06Z</time>
      </trkpt>
      <trkpt lat="47.75456" lon="-3.1099">
        <ele>7.6</ele>
        <time>2020-06-06T15:10:07Z</time>
      </trkpt>
      <trkpt lat="47.75462" lon="-3.10995">
        <ele>7.5</ele>
        <time>2020-06-06T15:10:08Z</time>
      </trkpt>
      <trkpt lat="47.75468" lon="-3.11001">
        <ele>7.4</ele>
        <time>2020-06-06T15:10:09Z</time>
      </trkpt>
      <trkpt lat="47.75475" lon="-3.11006">
        <ele>7.4</ele>
        <time>2020-06-06T15:10:10Z</time>
      </trkpt>
      <trkpt lat="47.75482" lon="-3.11012">
        <ele>7.3</ele>
        <time>2020-06-06T15:10:11Z</time>
      </trkpt>
      <trkpt lat="47.75488" lon="-3.11017">
        <ele>7.3</ele>
        <time>2020-06-06T15:10:12Z</time>
      </trkpt>
      <trkpt lat="47.75494" lon="-3.11023">
        <ele>7.3</ele>
        <time>2020-06-06T15:10:13Z</time>
      </trkpt>
      <trkpt lat="47.755" lon="-3.11029">
        <ele>7.3</ele>
        <time>2020-06-06T15:10:14Z</time>
      </trkpt>
      <trkpt lat="47.75506" lon="-3.11034">
        <ele>7.4</ele>
        <time>2020-06-06T15:10:15Z</time>
      </trkpt>
      <trkpt lat="47.75512" lon="-3.11038">
        <ele>7.4</ele>
        <time>2020-06-06T15:10:16Z</time>
      </trkpt>
      <trkpt lat="47.75518" lon="-3.11044">
        <ele>7.4</ele>
        <time>2020-06-06T15:10:17Z</time>
      </trkpt>
      <trkpt lat="47.75524" lon="-3.11048">
        <ele>7.5</ele>
        <time>2020-06-06T15:10:18Z</time>
      </trkpt>
      <trkpt lat="47.7553" lon="-3.11054">
        <ele>7.5</ele>
        <time>2020-06-06T15:10:19Z</time>
      </trkpt>
      <trkpt lat="47.75536" lon="-3.11059">
        <ele>7.6</ele>
        <time>2020-06-06T15:10:20Z</time>
      </trkpt>
      <trkpt lat="47.75542" lon="-3.11063">
        <ele>7.6</ele>
        <time>2020-06-06T15:10:21Z</time>
      </trkpt>
      <trkpt lat="47.75548" lon="-3.11069">
        <ele>7.7</ele>
        <time>2020-06-06T15:10:22Z</time>
      </trkpt>
      <trkpt lat="47.75555" lon="-3.11074">
        <ele>7.7</ele>
        <time>2020-06-06T15:10:23Z</time>
      </trkpt>
      <trkpt lat="47.75561" lon="-3.11078">
        <ele>7.8</ele>
        <time>2020-06-06T15:10:24Z</time>
      </trkpt>
      <trkpt lat="47.75567" lon="-3.11083">
        <ele>7.8</ele>
        <time>2020-06-06T15:10:25Z</time>
      </trkpt>
      <trkpt lat="47.75573" lon="-3.11088">
        <ele>7.9</ele>
        <time>2020-06-06T15:10:26Z</time>
      </trkpt>
      <trkpt lat="47.75579" lon="-3.11092">
        <ele>7.9</ele>
        <time>2020-06-06T15:10:27Z</time>
      </trkpt>
      <trkpt lat="47.75584" lon="-3.11097">
        <ele>8</ele>
        <time>2020-06-06T15:10:28Z</time>
      </trkpt>
      <trkpt lat="47.75589" lon="-3.11103">
        <ele>8</ele>
        <time>2020-06-06T15:10:29Z</time>
      </trkpt>
      <trkpt lat="47.75594" lon="-3.11108">
        <ele>8</ele>
        <time>2020-06-06T15:10:30Z</time>
      </trkpt>
      <trkpt lat="47.75599" lon="-3.11113">
        <ele>8</ele>
        <time>2020-06-06T15:10:31Z</time>
      </trkpt>
      <trkpt lat="47.75604" lon="-3.11119">
        <ele>8.1</ele>
        <time>2020-06-06T15:10:32Z</time>
      </trkpt>
      <trkpt lat="47.75608" lon="-3.11126">
        <ele>8.1</ele>
        <time>2020-06-06T15:10:33Z</time>
      </trkpt>
      <trkpt lat="47.75612" lon="-3.11132">
        <ele>8.2</ele>
        <time>2020-06-06T15:10:34Z</time>
      </trkpt>
      <trkpt lat="47.75616" lon="-3.11138">
        <ele>8.3</ele>
        <time>2020-06-06T15:10:35Z</time>
      </trkpt>
      <trkpt lat="47.7562" lon="-3.11145">
        <ele>8.3</ele>
        <time>2020-06-06T15:10:36Z</time>
      </trkpt>
      <trkpt lat="47.75624" lon="-3.11151">
        <ele>8.4</ele>
        <time>2020-06-06T15:10:37Z</time>
      </trkpt>
      <trkpt lat="47.75627" lon="-3.11159">
        <ele>8.4</ele>
        <time>2020-06-06T15:10:38Z</time>
      </trkpt>
      <trkpt lat="47.7563" lon="-3.11166">
        <ele>8.5</ele>
        <time>2020-06-06T15:10:39Z</time>
      </trkpt>
      <trkpt lat="47.75633" lon="-3.11173">
        <ele>8.6</ele>
        <time>2020-06-06T15:10:40Z</time>
      </trkpt>
      <trkpt lat="47.75637" lon="-3.1118">
        <ele>8.6</ele>
        <time>2020-06-06T15:10:41Z</time>
      </trkpt>
      <trkpt lat="47.75639" lon="-3.11188">
        <ele>8.7</ele>
        <time>2020-06-06T15:10:42Z</time>
      </trkpt>
      <trkpt lat="47.75642" lon="-3.11196">
        <ele>8.8</ele>
        <time>2020-06-06T15:10:43Z</time>
      </trkpt>
      <trkpt lat="47.75644" lon="-3.11203">
        <ele>8.8</ele>
        <time>2020-06-06T15:10:44Z</time>
      </trkpt>
      <trkpt lat="47.75646" lon="-3.1121">
        <ele>8.8</ele>
        <time>2020-06-06T15:10:45Z</time>
      </trkpt>
      <trkpt lat="47.75648" lon="-3.11218">
        <ele>8.8</ele>
        <time>2020-06-06T15:10:46Z</time>
      </trkpt>
      <trkpt lat="47.7565" lon="-3.11226">
        <ele>8.9</ele>
        <time>2020-06-06T15:10:47Z</time>
      </trkpt>
      <trkpt lat="47.75652" lon="-3.11234">
        <ele>8.9</ele>
        <time>2020-06-06T15:10:48Z</time>
      </trkpt>
      <trkpt lat="47.75655" lon="-3.11242">
        <ele>8.9</ele>
        <time>2020-06-06T15:10:49Z</time>
      </trkpt>
      <trkpt lat="47.75658" lon="-3.1125">
        <ele>8.9</ele>
        <time>2020-06-06T15:10:50Z</time>
      </trkpt>
      <trkpt lat="47.75659" lon="-3.11258">
        <ele>8.9</ele>
        <time>2020-06-06T15:10:51Z</time>
      </trkpt>
      <trkpt lat="47.75662" lon="-3.11266">
        <ele>8.9</ele>
        <time>2020-06-06T15:10:52Z</time>
      </trkpt>
      <trkpt lat="47.75665" lon="-3.11273">
        <ele>8.9</ele>
        <time>2020-06-06T15:10:53Z</time>
      </trkpt>
      <trkpt lat="47.75667" lon="-3.1128">
        <ele>8.9</ele>
        <time>2020-06-06T15:10:54Z</time>
      </trkpt>
      <trkpt lat="47.75669" lon="-3.11288">
        <ele>8.9</ele>
        <time>2020-06-06T15:10:55Z</time>
      </trkpt>
      <trkpt lat="47.75672" lon="-3.11295">
        <ele>8.9</ele>
        <time>2020-06-06T15:10:56Z</time>
      </trkpt>
      <trkpt lat="47.75674" lon="-3.113">
        <ele>9</ele>
        <time>2020-06-06T15:10:57Z</time>
      </trkpt>
      <trkpt lat="47.75676" lon="-3.11306">
        <ele>9</ele>
        <time>2020-06-06T15:10:58Z</time>
      </trkpt>
      <trkpt lat="47.75677" lon="-3.11311">
        <ele>9</ele>
        <time>2020-06-06T15:10:59Z</time>
      </trkpt>
      <trkpt lat="47.7568" lon="-3.11318">
        <ele>9.1</ele>
        <time>2020-06-06T15:11:00Z</time>
      </trkpt>
      <trkpt lat="47.75682" lon="-3.11324">
        <ele>9.1</ele>
        <time>2020-06-06T15:11:01Z</time>
      </trkpt>
      <trkpt lat="47.75684" lon="-3.11331">
        <ele>9</ele>
        <time>2020-06-06T15:11:02Z</time>
      </trkpt>
      <trkpt lat="47.75685" lon="-3.11337">
        <ele>9</ele>
        <time>2020-06-06T15:11:03Z</time>
      </trkpt>
      <trkpt lat="47.75687" lon="-3.11344">
        <ele>8.9</ele>
        <time>2020-06-06T15:11:04Z</time>
      </trkpt>
      <trkpt lat="47.75689" lon="-3.11351">
        <ele>8.9</ele>
        <time>2020-06-06T15:11:05Z</time>
      </trkpt>
      <trkpt lat="47.75692" lon="-3.11357">
        <ele>8.9</ele>
        <time>2020-06-06T15:11:06Z</time>
      </trkpt>
      <trkpt lat="47.75694" lon="-3.11364">
        <ele>8.9</ele>
        <time>2020-06-06T15:11:07Z</time>
      </trkpt>
      <trkpt lat="47.75696" lon="-3.11371">
        <ele>8.9</ele>
        <time>2020-06-06T15:11:08Z</time>
      </trkpt>
      <trkpt lat="47.75697" lon="-3.11377">
        <ele>9</ele>
        <time>2020-06-06T15:11:09Z</time>
      </trkpt>
      <trkpt lat="47.75699" lon="-3.11383">
        <ele>9.1</ele>
        <time>2020-06-06T15:11:10Z</time>
      </trkpt>
      <trkpt lat="47.75701" lon="-3.11389">
        <ele>9.1</ele>
        <time>2020-06-06T15:11:11Z</time>
      </trkpt>
      <trkpt lat="47.75702" lon="-3.11392">
        <ele>9.2</ele>
        <time>2020-06-06T15:11:12Z</time>
      </trkpt>
      <trkpt lat="47.75704" lon="-3.11397">
        <ele>9.2</ele>
        <time>2020-06-06T15:11:13Z</time>
      </trkpt>
      <trkpt lat="47.75706" lon="-3.11403">
        <ele>9.3</ele>
        <time>2020-06-06T15:11:14Z</time>
      </trkpt>
      <trkpt lat="47.75707" lon="-3.11408">
        <ele>9.4</ele>
        <time>2020-06-06T15:11:15Z</time>
      </trkpt>
      <trkpt lat="47.75709" lon="-3.11414">
        <ele>9.4</ele>
        <time>2020-06-06T15:11:16Z</time>
      </trkpt>
      <trkpt lat="47.75711" lon="-3.1142">
        <ele>9.5</ele>
        <time>2020-06-06T15:11:17Z</time>
      </trkpt>
      <trkpt lat="47.75712" lon="-3.11425">
        <ele>9.5</ele>
        <time>2020-06-06T15:11:18Z</time>
      </trkpt>
      <trkpt lat="47.75715" lon="-3.11431">
        <ele>9.6</ele>
        <time>2020-06-06T15:11:19Z</time>
      </trkpt>
      <trkpt lat="47.75717" lon="-3.11438">
        <ele>9.6</ele>
        <time>2020-06-06T15:11:20Z</time>
      </trkpt>
      <trkpt lat="47.75719" lon="-3.11444">
        <ele>9.7</ele>
        <time>2020-06-06T15:11:21Z</time>
      </trkpt>
      <trkpt lat="47.75721" lon="-3.1145">
        <ele>9.8</ele>
        <time>2020-06-06T15:11:22Z</time>
      </trkpt>
      <trkpt lat="47.75723" lon="-3.11456">
        <ele>9.9</ele>
        <time>2020-06-06T15:11:23Z</time>
      </trkpt>
      <trkpt lat="47.75724" lon="-3.11462">
        <ele>9.9</ele>
        <time>2020-06-06T15:11:24Z</time>
      </trkpt>
      <trkpt lat="47.75726" lon="-3.11468">
        <ele>10</ele>
        <time>2020-06-06T15:11:25Z</time>
      </trkpt>
      <trkpt lat="47.75729" lon="-3.11475">
        <ele>10.1</ele>
        <time>2020-06-06T15:11:26Z</time>
      </trkpt>
      <trkpt lat="47.75731" lon="-3.11481">
        <ele>10.1</ele>
        <time>2020-06-06T15:11:27Z</time>
      </trkpt>
      <trkpt lat="47.75733" lon="-3.11488">
        <ele>10.2</ele>
        <time>2020-06-06T15:11:28Z</time>
      </trkpt>
      <trkpt lat="47.75735" lon="-3.11495">
        <ele>10.3</ele>
        <time>2020-06-06T15:11:29Z</time>
      </trkpt>
      <trkpt lat="47.75736" lon="-3.115">
        <ele>10.3</ele>
        <time>2020-06-06T15:11:30Z</time>
      </trkpt>
      <trkpt lat="47.75737" lon="-3.11504">
        <ele>10.3</ele>
        <time>2020-06-06T15:11:31Z</time>
      </trkpt>
      <trkpt lat="47.75738" lon="-3.11509">
        <ele>10.3</ele>
        <time>2020-06-06T15:11:32Z</time>
      </trkpt>
      <trkpt lat="47.75739" lon="-3.11514">
        <ele>10.4</ele>
        <time>2020-06-06T15:11:33Z</time>
      </trkpt>
      <trkpt lat="47.75741" lon="-3.11519">
        <ele>10.4</ele>
        <time>2020-06-06T15:11:34Z</time>
      </trkpt>
      <trkpt lat="47.75743" lon="-3.11525">
        <ele>10.4</ele>
        <time>2020-06-06T15:11:35Z</time>
      </trkpt>
      <trkpt lat="47.75746" lon="-3.11531">
        <ele>10.4</ele>
        <time>2020-06-06T15:11:36Z</time>
      </trkpt>
      <trkpt lat="47.75748" lon="-3.11538">
        <ele>10.4</ele>
        <time>2020-06-06T15:11:37Z</time>
      </trkpt>
      <trkpt lat="47.7575" lon="-3.11545">
        <ele>10.5</ele>
        <time>2020-06-06T15:11:38Z</time>
      </trkpt>
      <trkpt lat="47.75752" lon="-3.11553">
        <ele>10.5</ele>
        <time>2020-06-06T15:11:39Z</time>
      </trkpt>
      <trkpt lat="47.75754" lon="-3.1156">
        <ele>10.5</ele>
        <time>2020-06-06T15:11:40Z</time>
      </trkpt>
      <trkpt lat="47.75757" lon="-3.11568">
        <ele>10.5</ele>
        <time>2020-06-06T15:11:41Z</time>
      </trkpt>
      <trkpt lat="47.75759" lon="-3.11577">
        <ele>10.5</ele>
        <time>2020-06-06T15:11:42Z</time>
      </trkpt>
      <trkpt lat="47.7576" lon="-3.11584">
        <ele>10.5</ele>
        <time>2020-06-06T15:11:43Z</time>
      </trkpt>
      <trkpt lat="47.75762" lon="-3.11592">
        <ele>10.5</ele>
        <time>2020-06-06T15:11:44Z</time>
      </trkpt>
      <trkpt lat="47.75763" lon="-3.116">
        <ele>10.4</ele>
        <time>2020-06-06T15:11:45Z</time>
      </trkpt>
      <trkpt lat="47.75765" lon="-3.11607">
        <ele>10.3</ele>
        <time>2020-06-06T15:11:46Z</time>
      </trkpt>
      <trkpt lat="47.75767" lon="-3.11616">
        <ele>10.3</ele>
        <time>2020-06-06T15:11:47Z</time>
      </trkpt>
      <trkpt lat="47.75768" lon="-3.11625">
        <ele>10.2</ele>
        <time>2020-06-06T15:11:48Z</time>
      </trkpt>
      <trkpt lat="47.7577" lon="-3.11634">
        <ele>10.1</ele>
        <time>2020-06-06T15:11:49Z</time>
      </trkpt>
      <trkpt lat="47.75772" lon="-3.11643">
        <ele>10</ele>
        <time>2020-06-06T15:11:50Z</time>
      </trkpt>
      <trkpt lat="47.75773" lon="-3.11653">
        <ele>10</ele>
        <time>2020-06-06T15:11:51Z</time>
      </trkpt>
      <trkpt lat="47.75775" lon="-3.11661">
        <ele>9.9</ele>
        <time>2020-06-06T15:11:52Z</time>
      </trkpt>
      <trkpt lat="47.75777" lon="-3.11671">
        <ele>9.9</ele>
        <time>2020-06-06T15:11:53Z</time>
      </trkpt>
      <trkpt lat="47.75778" lon="-3.1168">
        <ele>9.8</ele>
        <time>2020-06-06T15:11:54Z</time>
      </trkpt>
      <trkpt lat="47.75779" lon="-3.11689">
        <ele>9.7</ele>
        <time>2020-06-06T15:11:55Z</time>
      </trkpt>
      <trkpt lat="47.7578" lon="-3.11696">
        <ele>9.7</ele>
        <time>2020-06-06T15:11:56Z</time>
      </trkpt>
      <trkpt lat="47.75781" lon="-3.11704">
        <ele>9.6</ele>
        <time>2020-06-06T15:11:57Z</time>
      </trkpt>
      <trkpt lat="47.75782" lon="-3.11713">
        <ele>9.6</ele>
        <time>2020-06-06T15:11:58Z</time>
      </trkpt>
      <trkpt lat="47.75783" lon="-3.11721">
        <ele>9.6</ele>
        <time>2020-06-06T15:11:59Z</time>
      </trkpt>
      <trkpt lat="47.75784" lon="-3.11727">
        <ele>9.6</ele>
        <time>2020-06-06T15:12:00Z</time>
      </trkpt>
      <trkpt lat="47.75785" lon="-3.11734">
        <ele>9.5</ele>
        <time>2020-06-06T15:12:01Z</time>
      </trkpt>
      <trkpt lat="47.75787" lon="-3.11739">
        <ele>9.5</ele>
        <time>2020-06-06T15:12:02Z</time>
      </trkpt>
      <trkpt lat="47.75788" lon="-3.11746">
        <ele>9.5</ele>
        <time>2020-06-06T15:12:03Z</time>
      </trkpt>
      <trkpt lat="47.7579" lon="-3.11752">
        <ele>9.5</ele>
        <time>2020-06-06T15:12:04Z</time>
      </trkpt>
      <trkpt lat="47.75791" lon="-3.1176">
        <ele>9.5</ele>
        <time>2020-06-06T15:12:05Z</time>
      </trkpt>
      <trkpt lat="47.75793" lon="-3.11768">
        <ele>9.4</ele>
        <time>2020-06-06T15:12:06Z</time>
      </trkpt>
      <trkpt lat="47.75795" lon="-3.11777">
        <ele>9.4</ele>
        <time>2020-06-06T15:12:07Z</time>
      </trkpt>
      <trkpt lat="47.75797" lon="-3.11786">
        <ele>9.4</ele>
        <time>2020-06-06T15:12:08Z</time>
      </trkpt>
      <trkpt lat="47.75798" lon="-3.11794">
        <ele>9.3</ele>
        <time>2020-06-06T15:12:09Z</time>
      </trkpt>
      <trkpt lat="47.75799" lon="-3.11803">
        <ele>9.2</ele>
        <time>2020-06-06T15:12:10Z</time>
      </trkpt>
      <trkpt lat="47.758" lon="-3.11812">
        <ele>9.1</ele>
        <time>2020-06-06T15:12:11Z</time>
      </trkpt>
      <trkpt lat="47.75801" lon="-3.1182">
        <ele>9.1</ele>
        <time>2020-06-06T15:12:12Z</time>
      </trkpt>
      <trkpt lat="47.75802" lon="-3.11829">
        <ele>9</ele>
        <time>2020-06-06T15:12:13Z</time>
      </trkpt>
      <trkpt lat="47.75803" lon="-3.11839">
        <ele>8.9</ele>
        <time>2020-06-06T15:12:14Z</time>
      </trkpt>
      <trkpt lat="47.75803" lon="-3.11848">
        <ele>8.8</ele>
        <time>2020-06-06T15:12:15Z</time>
      </trkpt>
      <trkpt lat="47.75803" lon="-3.11857">
        <ele>8.7</ele>
        <time>2020-06-06T15:12:16Z</time>
      </trkpt>
      <trkpt lat="47.75802" lon="-3.11865">
        <ele>8.6</ele>
        <time>2020-06-06T15:12:17Z</time>
      </trkpt>
      <trkpt lat="47.75801" lon="-3.11873">
        <ele>8.6</ele>
        <time>2020-06-06T15:12:18Z</time>
      </trkpt>
      <trkpt lat="47.758" lon="-3.11882">
        <ele>8.5</ele>
        <time>2020-06-06T15:12:19Z</time>
      </trkpt>
      <trkpt lat="47.75798" lon="-3.11889">
        <ele>8.4</ele>
        <time>2020-06-06T15:12:20Z</time>
      </trkpt>
      <trkpt lat="47.75796" lon="-3.11897">
        <ele>8.3</ele>
        <time>2020-06-06T15:12:21Z</time>
      </trkpt>
      <trkpt lat="47.75794" lon="-3.11906">
        <ele>8.2</ele>
        <time>2020-06-06T15:12:22Z</time>
      </trkpt>
      <trkpt lat="47.75791" lon="-3.11914">
        <ele>8.1</ele>
        <time>2020-06-06T15:12:23Z</time>
      </trkpt>
      <trkpt lat="47.75788" lon="-3.11921">
        <ele>8</ele>
        <time>2020-06-06T15:12:24Z</time>
      </trkpt>
      <trkpt lat="47.75785" lon="-3.11929">
        <ele>7.9</ele>
        <time>2020-06-06T15:12:25Z</time>
      </trkpt>
      <trkpt lat="47.75781" lon="-3.11937">
        <ele>7.8</ele>
        <time>2020-06-06T15:12:26Z</time>
      </trkpt>
      <trkpt lat="47.75777" lon="-3.11944">
        <ele>7.7</ele>
        <time>2020-06-06T15:12:27Z</time>
      </trkpt>
      <trkpt lat="47.75772" lon="-3.11953">
        <ele>7.6</ele>
        <time>2020-06-06T15:12:28Z</time>
      </trkpt>
      <trkpt lat="47.75768" lon="-3.11961">
        <ele>7.5</ele>
        <time>2020-06-06T15:12:29Z</time>
      </trkpt>
      <trkpt lat="47.75763" lon="-3.1197">
        <ele>7.4</ele>
        <time>2020-06-06T15:12:30Z</time>
      </trkpt>
      <trkpt lat="47.75759" lon="-3.11978">
        <ele>7.3</ele>
        <time>2020-06-06T15:12:31Z</time>
      </trkpt>
      <trkpt lat="47.75754" lon="-3.11987">
        <ele>7.3</ele>
        <time>2020-06-06T15:12:32Z</time>
      </trkpt>
      <trkpt lat="47.75749" lon="-3.11996">
        <ele>7.3</ele>
        <time>2020-06-06T15:12:33Z</time>
      </trkpt>
      <trkpt lat="47.75745" lon="-3.12005">
        <ele>7.3</ele>
        <time>2020-06-06T15:12:34Z</time>
      </trkpt>
      <trkpt lat="47.7574" lon="-3.12014">
        <ele>7.3</ele>
        <time>2020-06-06T15:12:35Z</time>
      </trkpt>
      <trkpt lat="47.75736" lon="-3.12022">
        <ele>7.3</ele>
        <time>2020-06-06T15:12:36Z</time>
      </trkpt>
      <trkpt lat="47.75732" lon="-3.12031">
        <ele>7.4</ele>
        <time>2020-06-06T15:12:37Z</time>
      </trkpt>
      <trkpt lat="47.75729" lon="-3.12039">
        <ele>7.5</ele>
        <time>2020-06-06T15:12:38Z</time>
      </trkpt>
      <trkpt lat="47.75727" lon="-3.12047">
        <ele>7.6</ele>
        <time>2020-06-06T15:12:39Z</time>
      </trkpt>
      <trkpt lat="47.75726" lon="-3.12057">
        <ele>7.7</ele>
        <time>2020-06-06T15:12:40Z</time>
      </trkpt>
      <trkpt lat="47.75724" lon="-3.12065">
        <ele>7.8</ele>
        <time>2020-06-06T15:12:41Z</time>
      </trkpt>
      <trkpt lat="47.75723" lon="-3.12074">
        <ele>7.9</ele>
        <time>2020-06-06T15:12:42Z</time>
      </trkpt>
      <trkpt lat="47.75723" lon="-3.12084">
        <ele>8</ele>
        <time>2020-06-06T15:12:43Z</time>
      </trkpt>
      <trkpt lat="47.75723" lon="-3.12093">
        <ele>8.1</ele>
        <time>2020-06-06T15:12:44Z</time>
      </trkpt>
      <trkpt lat="47.75723" lon="-3.12102">
        <ele>8.3</ele>
        <time>2020-06-06T15:12:45Z</time>
      </trkpt>
      <trkpt lat="47.75724" lon="-3.12109">
        <ele>8.4</ele>
        <time>2020-06-06T15:12:46Z</time>
      </trkpt>
      <trkpt lat="47.75727" lon="-3.12116">
        <ele>8.5</ele>
        <time>2020-06-06T15:12:47Z</time>
      </trkpt>
      <trkpt lat="47.75728" lon="-3.12122">
        <ele>8.6</ele>
        <time>2020-06-06T15:12:48Z</time>
      </trkpt>
      <trkpt lat="47.7573" lon="-3.12129">
        <ele>8.7</ele>
        <time>2020-06-06T15:12:49Z</time>
      </trkpt>
      <trkpt lat="47.75732" lon="-3.12134">
        <ele>8.8</ele>
        <time>2020-06-06T15:12:50Z</time>
      </trkpt>
      <trkpt lat="47.75736" lon="-3.12137">
        <ele>8.9</ele>
        <time>2020-06-06T15:12:51Z</time>
      </trkpt>
      <trkpt lat="47.7574" lon="-3.12139">
        <ele>9.1</ele>
        <time>2020-06-06T15:12:52Z</time>
      </trkpt>
      <trkpt lat="47.75745" lon="-3.12141">
        <ele>9.2</ele>
        <time>2020-06-06T15:12:53Z</time>
      </trkpt>
      <trkpt lat="47.7575" lon="-3.12142">
        <ele>9.3</ele>
        <time>2020-06-06T15:12:54Z</time>
      </trkpt>
      <trkpt lat="47.75755" lon="-3.12143">
        <ele>9.6</ele>
        <time>2020-06-06T15:12:55Z</time>
      </trkpt>
      <trkpt lat="47.75759" lon="-3.12143">
        <ele>9.8</ele>
        <time>2020-06-06T15:12:56Z</time>
      </trkpt>
      <trkpt lat="47.75765" lon="-3.12143">
        <ele>10</ele>
        <time>2020-06-06T15:12:57Z</time>
      </trkpt>
      <trkpt lat="47.7577" lon="-3.12141">
        <ele>10.2</ele>
        <time>2020-06-06T15:12:58Z</time>
      </trkpt>
      <trkpt lat="47.75775" lon="-3.12137">
        <ele>10.5</ele>
        <time>2020-06-06T15:12:59Z</time>
      </trkpt>
      <trkpt lat="47.7578" lon="-3.12133">
        <ele>10.8</ele>
        <time>2020-06-06T15:13:00Z</time>
      </trkpt>
      <trkpt lat="47.75784" lon="-3.12131">
        <ele>11</ele>
        <time>2020-06-06T15:13:01Z</time>
      </trkpt>
      <trkpt lat="47.75788" lon="-3.12128">
        <ele>11.2</ele>
        <time>2020-06-06T15:13:02Z</time>
      </trkpt>
      <trkpt lat="47.75792" lon="-3.12126">
        <ele>11.5</ele>
        <time>2020-06-06T15:13:03Z</time>
      </trkpt>
      <trkpt lat="47.75797" lon="-3.12123">
        <ele>11.8</ele>
        <time>2020-06-06T15:13:04Z</time>
      </trkpt>
      <trkpt lat="47.75802" lon="-3.12121">
        <ele>12.2</ele>
        <time>2020-06-06T15:13:05Z</time>
      </trkpt>
      <trkpt lat="47.75806" lon="-3.12118">
        <ele>12.4</ele>
        <time>2020-06-06T15:13:06Z</time>
      </trkpt>
      <trkpt lat="47.7581" lon="-3.12115">
        <ele>12.7</ele>
        <time>2020-06-06T15:13:07Z</time>
      </trkpt>
      <trkpt lat="47.75814" lon="-3.12111">
        <ele>13.1</ele>
        <time>2020-06-06T15:13:08Z</time>
      </trkpt>
      <trkpt lat="47.75818" lon="-3.12107">
        <ele>13.4</ele>
        <time>2020-06-06T15:13:09Z</time>
      </trkpt>
      <trkpt lat="47.75822" lon="-3.12104">
        <ele>13.7</ele>
        <time>2020-06-06T15:13:10Z</time>
      </trkpt>
      <trkpt lat="47.75826" lon="-3.12101">
        <ele>14</ele>
        <time>2020-06-06T15:13:11Z</time>
      </trkpt>
      <trkpt lat="47.7583" lon="-3.12098">
        <ele>14.3</ele>
        <time>2020-06-06T15:13:12Z</time>
      </trkpt>
      <trkpt lat="47.75833" lon="-3.12096">
        <ele>14.5</ele>
        <time>2020-06-06T15:13:13Z</time>
      </trkpt>
      <trkpt lat="47.75838" lon="-3.12094">
        <ele>14.8</ele>
        <time>2020-06-06T15:13:14Z</time>
      </trkpt>
      <trkpt lat="47.75841" lon="-3.12093">
        <ele>14.9</ele>
        <time>2020-06-06T15:13:15Z</time>
      </trkpt>
      <trkpt lat="47.75844" lon="-3.12091">
        <ele>15.1</ele>
        <time>2020-06-06T15:13:16Z</time>
      </trkpt>
      <trkpt lat="47.75847" lon="-3.1209">
        <ele>15.2</ele>
        <time>2020-06-06T15:13:17Z</time>
      </trkpt>
      <trkpt lat="47.7585" lon="-3.12089">
        <ele>15.3</ele>
        <time>2020-06-06T15:13:18Z</time>
      </trkpt>
      <trkpt lat="47.75853" lon="-3.12087">
        <ele>15.5</ele>
        <time>2020-06-06T15:13:19Z</time>
      </trkpt>
      <trkpt lat="47.75857" lon="-3.12085">
        <ele>15.6</ele>
        <time>2020-06-06T15:13:20Z</time>
      </trkpt>
      <trkpt lat="47.75861" lon="-3.12083">
        <ele>15.6</ele>
        <time>2020-06-06T15:13:21Z</time>
      </trkpt>
      <trkpt lat="47.75864" lon="-3.12081">
        <ele>15.6</ele>
        <time>2020-06-06T15:13:22Z</time>
      </trkpt>
      <trkpt lat="47.75866" lon="-3.12079">
        <ele>15.6</ele>
        <time>2020-06-06T15:13:23Z</time>
      </trkpt>
      <trkpt lat="47.75869" lon="-3.12076">
        <ele>15.6</ele>
        <time>2020-06-06T15:13:24Z</time>
      </trkpt>
      <trkpt lat="47.75872" lon="-3.12074">
        <ele>15.6</ele>
        <time>2020-06-06T15:13:25Z</time>
      </trkpt>
      <trkpt lat="47.75875" lon="-3.12073">
        <ele>15.6</ele>
        <time>2020-06-06T15:13:26Z</time>
      </trkpt>
      <trkpt lat="47.75878" lon="-3.12071">
        <ele>15.5</ele>
        <time>2020-06-06T15:13:27Z</time>
      </trkpt>
      <trkpt lat="47.75881" lon="-3.12069">
        <ele>15.4</ele>
        <time>2020-06-06T15:13:28Z</time>
      </trkpt>
      <trkpt lat="47.75884" lon="-3.12067">
        <ele>15.3</ele>
        <time>2020-06-06T15:13:29Z</time>
      </trkpt>
      <trkpt lat="47.75888" lon="-3.12064">
        <ele>15.2</ele>
        <time>2020-06-06T15:13:30Z</time>
      </trkpt>
      <trkpt lat="47.75893" lon="-3.12062">
        <ele>14.9</ele>
        <time>2020-06-06T15:13:31Z</time>
      </trkpt>
      <trkpt lat="47.75898" lon="-3.12058">
        <ele>14.7</ele>
        <time>2020-06-06T15:13:32Z</time>
      </trkpt>
      <trkpt lat="47.75903" lon="-3.12054">
        <ele>14.4</ele>
        <time>2020-06-06T15:13:33Z</time>
      </trkpt>
      <trkpt lat="47.75908" lon="-3.1205">
        <ele>14.1</ele>
        <time>2020-06-06T15:13:34Z</time>
      </trkpt>
      <trkpt lat="47.75914" lon="-3.12046">
        <ele>13.8</ele>
        <time>2020-06-06T15:13:35Z</time>
      </trkpt>
      <trkpt lat="47.7592" lon="-3.12042">
        <ele>13.4</ele>
        <time>2020-06-06T15:13:36Z</time>
      </trkpt>
      <trkpt lat="47.75927" lon="-3.12037">
        <ele>13</ele>
        <time>2020-06-06T15:13:37Z</time>
      </trkpt>
      <trkpt lat="47.75934" lon="-3.12032">
        <ele>12.7</ele>
        <time>2020-06-06T15:13:38Z</time>
      </trkpt>
      <trkpt lat="47.75941" lon="-3.12023">
        <ele>12.4</ele>
        <time>2020-06-06T15:13:39Z</time>
      </trkpt>
      <trkpt lat="47.75947" lon="-3.12013">
        <ele>12.3</ele>
        <time>2020-06-06T15:13:40Z</time>
      </trkpt>
      <trkpt lat="47.75952" lon="-3.12004">
        <ele>12.1</ele>
        <time>2020-06-06T15:13:41Z</time>
      </trkpt>
      <trkpt lat="47.75958" lon="-3.11997">
        <ele>12</ele>
        <time>2020-06-06T15:13:42Z</time>
      </trkpt>
      <trkpt lat="47.75965" lon="-3.11992">
        <ele>11.9</ele>
        <time>2020-06-06T15:13:43Z</time>
      </trkpt>
      <trkpt lat="47.75972" lon="-3.11988">
        <ele>11.7</ele>
        <time>2020-06-06T15:13:44Z</time>
      </trkpt>
      <trkpt lat="47.7598" lon="-3.11983">
        <ele>11.4</ele>
        <time>2020-06-06T15:13:45Z</time>
      </trkpt>
      <trkpt lat="47.75987" lon="-3.11974">
        <ele>11.1</ele>
        <time>2020-06-06T15:13:46Z</time>
      </trkpt>
      <trkpt lat="47.75994" lon="-3.11966">
        <ele>10.9</ele>
        <time>2020-06-06T15:13:47Z</time>
      </trkpt>
      <trkpt lat="47.76001" lon="-3.11958">
        <ele>10.8</ele>
        <time>2020-06-06T15:13:48Z</time>
      </trkpt>
      <trkpt lat="47.76007" lon="-3.11951">
        <ele>10.8</ele>
        <time>2020-06-06T15:13:49Z</time>
      </trkpt>
      <trkpt lat="47.76013" lon="-3.11943">
        <ele>10.8</ele>
        <time>2020-06-06T15:13:50Z</time>
      </trkpt>
      <trkpt lat="47.7602" lon="-3.11936">
        <ele>10.8</ele>
        <time>2020-06-06T15:13:51Z</time>
      </trkpt>
      <trkpt lat="47.76026" lon="-3.11928">
        <ele>10.9</ele>
        <time>2020-06-06T15:13:52Z</time>
      </trkpt>
      <trkpt lat="47.76032" lon="-3.1192">
        <ele>11.1</ele>
        <time>2020-06-06T15:13:53Z</time>
      </trkpt>
      <trkpt lat="47.76039" lon="-3.11913">
        <ele>11.3</ele>
        <time>2020-06-06T15:13:54Z</time>
      </trkpt>
      <trkpt lat="47.76045" lon="-3.11905">
        <ele>11.5</ele>
        <time>2020-06-06T15:13:55Z</time>
      </trkpt>
      <trkpt lat="47.76051" lon="-3.11898">
        <ele>11.8</ele>
        <time>2020-06-06T15:13:56Z</time>
      </trkpt>
      <trkpt lat="47.76058" lon="-3.11891">
        <ele>12</ele>
        <time>2020-06-06T15:13:57Z</time>
      </trkpt>
      <trkpt lat="47.76064" lon="-3.11885">
        <ele>12.3</ele>
        <time>2020-06-06T15:13:58Z</time>
      </trkpt>
      <trkpt lat="47.76069" lon="-3.11878">
        <ele>12.4</ele>
        <time>2020-06-06T15:13:59Z</time>
      </trkpt>
      <trkpt lat="47.76074" lon="-3.11872">
        <ele>12.5</ele>
        <time>2020-06-06T15:14:00Z</time>
      </trkpt>
      <trkpt lat="47.76079" lon="-3.11866">
        <ele>12.7</ele>
        <time>2020-06-06T15:14:01Z</time>
      </trkpt>
      <trkpt lat="47.76084" lon="-3.11861">
        <ele>12.8</ele>
        <time>2020-06-06T15:14:02Z</time>
      </trkpt>
      <trkpt lat="47.76088" lon="-3.11857">
        <ele>13</ele>
        <time>2020-06-06T15:14:03Z</time>
      </trkpt>
      <trkpt lat="47.76093" lon="-3.11851">
        <ele>13.1</ele>
        <time>2020-06-06T15:14:04Z</time>
      </trkpt>
      <trkpt lat="47.76097" lon="-3.11847">
        <ele>13.2</ele>
        <time>2020-06-06T15:14:05Z</time>
      </trkpt>
      <trkpt lat="47.761" lon="-3.11842">
        <ele>13.3</ele>
        <time>2020-06-06T15:14:06Z</time>
      </trkpt>
      <trkpt lat="47.76104" lon="-3.11838">
        <ele>13.5</ele>
        <time>2020-06-06T15:14:07Z</time>
      </trkpt>
      <trkpt lat="47.76107" lon="-3.11833">
        <ele>13.5</ele>
        <time>2020-06-06T15:14:08Z</time>
      </trkpt>
      <trkpt lat="47.76111" lon="-3.1183">
        <ele>14</ele>
        <time>2020-06-06T15:14:09Z</time>
      </trkpt>
      <trkpt lat="47.76115" lon="-3.11828">
        <ele>14.2</ele>
        <time>2020-06-06T15:14:10Z</time>
      </trkpt>
      <trkpt lat="47.76119" lon="-3.1183">
        <ele>14.3</ele>
        <time>2020-06-06T15:14:11Z</time>
      </trkpt>
      <trkpt lat="47.76122" lon="-3.11833">
        <ele>14.5</ele>
        <time>2020-06-06T15:14:12Z</time>
      </trkpt>
      <trkpt lat="47.76124" lon="-3.11838">
        <ele>14.6</ele>
        <time>2020-06-06T15:14:13Z</time>
      </trkpt>
      <trkpt lat="47.76126" lon="-3.11843">
        <ele>14.7</ele>
        <time>2020-06-06T15:14:14Z</time>
      </trkpt>
      <trkpt lat="47.76128" lon="-3.11849">
        <ele>14.8</ele>
        <time>2020-06-06T15:14:15Z</time>
      </trkpt>
      <trkpt lat="47.7613" lon="-3.11855">
        <ele>15</ele>
        <time>2020-06-06T15:14:16Z</time>
      </trkpt>
      <trkpt lat="47.76132" lon="-3.11861">
        <ele>15.1</ele>
        <time>2020-06-06T15:14:17Z</time>
      </trkpt>
      <trkpt lat="47.76133" lon="-3.11867">
        <ele>15.2</ele>
        <time>2020-06-06T15:14:18Z</time>
      </trkpt>
      <trkpt lat="47.76135" lon="-3.11874">
        <ele>15.4</ele>
        <time>2020-06-06T15:14:19Z</time>
      </trkpt>
      <trkpt lat="47.76136" lon="-3.11881">
        <ele>15.6</ele>
        <time>2020-06-06T15:14:20Z</time>
      </trkpt>
      <trkpt lat="47.76138" lon="-3.11887">
        <ele>15.8</ele>
        <time>2020-06-06T15:14:21Z</time>
      </trkpt>
      <trkpt lat="47.76139" lon="-3.11894">
        <ele>16</ele>
        <time>2020-06-06T15:14:22Z</time>
      </trkpt>
      <trkpt lat="47.7614" lon="-3.11901">
        <ele>16.2</ele>
        <time>2020-06-06T15:14:23Z</time>
      </trkpt>
      <trkpt lat="47.76143" lon="-3.11907">
        <ele>16.4</ele>
        <time>2020-06-06T15:14:24Z</time>
      </trkpt>
      <trkpt lat="47.76145" lon="-3.11912">
        <ele>16.6</ele>
        <time>2020-06-06T15:14:25Z</time>
      </trkpt>
      <trkpt lat="47.76148" lon="-3.11919">
        <ele>16.8</ele>
        <time>2020-06-06T15:14:26Z</time>
      </trkpt>
      <trkpt lat="47.76149" lon="-3.11925">
        <ele>17</ele>
        <time>2020-06-06T15:14:27Z</time>
      </trkpt>
      <trkpt lat="47.76151" lon="-3.11932">
        <ele>17.2</ele>
        <time>2020-06-06T15:14:28Z</time>
      </trkpt>
      <trkpt lat="47.76153" lon="-3.11938">
        <ele>17.3</ele>
        <time>2020-06-06T15:14:29Z</time>
      </trkpt>
      <trkpt lat="47.76154" lon="-3.11944">
        <ele>17.5</ele>
        <time>2020-06-06T15:14:30Z</time>
      </trkpt>
      <trkpt lat="47.76158" lon="-3.1195">
        <ele>17.7</ele>
        <time>2020-06-06T15:14:31Z</time>
      </trkpt>
      <trkpt lat="47.76162" lon="-3.11956">
        <ele>17.9</ele>
        <time>2020-06-06T15:14:32Z</time>
      </trkpt>
      <trkpt lat="47.76165" lon="-3.11962">
        <ele>18</ele>
        <time>2020-06-06T15:14:33Z</time>
      </trkpt>
      <trkpt lat="47.76167" lon="-3.11967">
        <ele>18.1</ele>
        <time>2020-06-06T15:14:34Z</time>
      </trkpt>
      <trkpt lat="47.7617" lon="-3.11973">
        <ele>18.2</ele>
        <time>2020-06-06T15:14:35Z</time>
      </trkpt>
      <trkpt lat="47.76173" lon="-3.11979">
        <ele>18.3</ele>
        <time>2020-06-06T15:14:36Z</time>
      </trkpt>
      <trkpt lat="47.76177" lon="-3.11985">
        <ele>18.4</ele>
        <time>2020-06-06T15:14:37Z</time>
      </trkpt>
      <trkpt lat="47.76181" lon="-3.11989">
        <ele>18.7</ele>
        <time>2020-06-06T15:14:38Z</time>
      </trkpt>
      <trkpt lat="47.76185" lon="-3.11993">
        <ele>18.9</ele>
        <time>2020-06-06T15:14:39Z</time>
      </trkpt>
      <trkpt lat="47.76189" lon="-3.11997">
        <ele>19.1</ele>
        <time>2020-06-06T15:14:40Z</time>
      </trkpt>
      <trkpt lat="47.76191" lon="-3.12">
        <ele>19.3</ele>
        <time>2020-06-06T15:14:41Z</time>
      </trkpt>
      <trkpt lat="47.76194" lon="-3.12004">
        <ele>19.5</ele>
        <time>2020-06-06T15:14:42Z</time>
      </trkpt>
      <trkpt lat="47.76198" lon="-3.12007">
        <ele>19.7</ele>
        <time>2020-06-06T15:14:43Z</time>
      </trkpt>
      <trkpt lat="47.762" lon="-3.1201">
        <ele>19.9</ele>
        <time>2020-06-06T15:14:44Z</time>
      </trkpt>
      <trkpt lat="47.76203" lon="-3.12014">
        <ele>20</ele>
        <time>2020-06-06T15:14:45Z</time>
      </trkpt>
      <trkpt lat="47.76204" lon="-3.12018">
        <ele>20</ele>
        <time>2020-06-06T15:14:46Z</time>
      </trkpt>
      <trkpt lat="47.76207" lon="-3.12021">
        <ele>20.1</ele>
        <time>2020-06-06T15:14:47Z</time>
      </trkpt>
      <trkpt lat="47.76209" lon="-3.12026">
        <ele>20.2</ele>
        <time>2020-06-06T15:14:48Z</time>
      </trkpt>
      <trkpt lat="47.7621" lon="-3.1203">
        <ele>20.3</ele>
        <time>2020-06-06T15:14:49Z</time>
      </trkpt>
      <trkpt lat="47.76212" lon="-3.12039">
        <ele>20.4</ele>
        <time>2020-06-06T15:14:50Z</time>
      </trkpt>
      <trkpt lat="47.76213" lon="-3.12045">
        <ele>20.5</ele>
        <time>2020-06-06T15:14:51Z</time>
      </trkpt>
      <trkpt lat="47.76213" lon="-3.12048">
        <ele>20.5</ele>
        <time>2020-06-06T15:14:52Z</time>
      </trkpt>
      <trkpt lat="47.76213" lon="-3.1205">
        <ele>20.5</ele>
        <time>2020-06-06T15:14:53Z</time>
      </trkpt>
      <trkpt lat="47.76213" lon="-3.12052">
        <ele>20.5</ele>
        <time>2020-06-06T15:14:54Z</time>
      </trkpt>
      <trkpt lat="47.76212" lon="-3.12052">
        <ele>20.5</ele>
        <time>2020-06-06T15:14:55Z</time>
      </trkpt>
      <trkpt lat="47.76212" lon="-3.12055">
        <ele>20.6</ele>
        <time>2020-06-06T15:14:56Z</time>
      </trkpt>
      <trkpt lat="47.76213" lon="-3.12058">
        <ele>20.6</ele>
        <time>2020-06-06T15:14:57Z</time>
      </trkpt>
      <trkpt lat="47.76213" lon="-3.12062">
        <ele>20.6</ele>
        <time>2020-06-06T15:14:58Z</time>
      </trkpt>
      <trkpt lat="47.76214" lon="-3.12067">
        <ele>20.6</ele>
        <time>2020-06-06T15:14:59Z</time>
      </trkpt>
      <trkpt lat="47.76215" lon="-3.12071">
        <ele>20.6</ele>
        <time>2020-06-06T15:15:00Z</time>
      </trkpt>
      <trkpt lat="47.76216" lon="-3.12076">
        <ele>20.5</ele>
        <time>2020-06-06T15:15:01Z</time>
      </trkpt>
      <trkpt lat="47.76217" lon="-3.1208">
        <ele>20.5</ele>
        <time>2020-06-06T15:15:02Z</time>
      </trkpt>
      <trkpt lat="47.76221" lon="-3.12081">
        <ele>20.5</ele>
        <time>2020-06-06T15:15:03Z</time>
      </trkpt>
      <trkpt lat="47.76224" lon="-3.12082">
        <ele>20.8</ele>
        <time>2020-06-06T15:15:04Z</time>
      </trkpt>
      <trkpt lat="47.76228" lon="-3.12079">
        <ele>20.8</ele>
        <time>2020-06-06T15:15:05Z</time>
      </trkpt>
      <trkpt lat="47.7623" lon="-3.12077">
        <ele>20.9</ele>
        <time>2020-06-06T15:15:06Z</time>
      </trkpt>
      <trkpt lat="47.76231" lon="-3.12076">
        <ele>20.9</ele>
        <time>2020-06-06T15:15:07Z</time>
      </trkpt>
      <trkpt lat="47.76234" lon="-3.12073">
        <ele>21</ele>
        <time>2020-06-06T15:15:08Z</time>
      </trkpt>
      <trkpt lat="47.76237" lon="-3.12069">
        <ele>21.1</ele>
        <time>2020-06-06T15:15:09Z</time>
      </trkpt>
      <trkpt lat="47.76241" lon="-3.12066">
        <ele>21.2</ele>
        <time>2020-06-06T15:15:10Z</time>
      </trkpt>
      <trkpt lat="47.76242" lon="-3.12065">
        <ele>21.2</ele>
        <time>2020-06-06T15:15:11Z</time>
      </trkpt>
      <trkpt lat="47.76244" lon="-3.12062">
        <ele>21.3</ele>
        <time>2020-06-06T15:15:12Z</time>
      </trkpt>
      <trkpt lat="47.76245" lon="-3.1206">
        <ele>21.3</ele>
        <time>2020-06-06T15:15:13Z</time>
      </trkpt>
      <trkpt lat="47.76247" lon="-3.12058">
        <ele>21.3</ele>
        <time>2020-06-06T15:15:14Z</time>
      </trkpt>
      <trkpt lat="47.76248" lon="-3.12056">
        <ele>21.4</ele>
        <time>2020-06-06T15:15:15Z</time>
      </trkpt>
      <trkpt lat="47.76249" lon="-3.12052">
        <ele>21.4</ele>
        <time>2020-06-06T15:15:16Z</time>
      </trkpt>
      <trkpt lat="47.76249" lon="-3.1205">
        <ele>21.5</ele>
        <time>2020-06-06T15:15:17Z</time>
      </trkpt>
      <trkpt lat="47.76248" lon="-3.12046">
        <ele>21.5</ele>
        <time>2020-06-06T15:15:18Z</time>
      </trkpt>
      <trkpt lat="47.76247" lon="-3.12045">
        <ele>21.5</ele>
        <time>2020-06-06T15:15:19Z</time>
      </trkpt>
      <trkpt lat="47.76248" lon="-3.12044">
        <ele>21.6</ele>
        <time>2020-06-06T15:15:20Z</time>
      </trkpt>
      <trkpt lat="47.76247" lon="-3.12044">
        <ele>21.6</ele>
        <time>2020-06-06T15:15:21Z</time>
      </trkpt>
      <trkpt lat="47.76248" lon="-3.12044">
        <ele>21.6</ele>
        <time>2020-06-06T15:15:22Z</time>
      </trkpt>
      <trkpt lat="47.76248" lon="-3.12045">
        <ele>21.6</ele>
        <time>2020-06-06T15:15:23Z</time>
      </trkpt>
      <trkpt lat="47.76248" lon="-3.12044">
        <ele>21.6</ele>
        <time>2020-06-06T15:15:24Z</time>
      </trkpt>
      <trkpt lat="47.76248" lon="-3.12043">
        <ele>21.6</ele>
        <time>2020-06-06T15:15:25Z</time>
      </trkpt>
      <trkpt lat="47.76248" lon="-3.12042">
        <ele>21.6</ele>
        <time>2020-06-06T15:15:26Z</time>
      </trkpt>
      <trkpt lat="47.76248" lon="-3.12042">
        <ele>21.7</ele>
        <time>2020-06-06T15:15:27Z</time>
      </trkpt>
      <trkpt lat="47.76248" lon="-3.12042">
        <ele>21.7</ele>
        <time>2020-06-06T15:15:28Z</time>
      </trkpt>
      <trkpt lat="47.76248" lon="-3.12042">
        <ele>21.7</ele>
        <time>2020-06-06T15:15:29Z</time>
      </trkpt>
      <trkpt lat="47.76248" lon="-3.12041">
        <ele>21.7</ele>
        <time>2020-06-06T15:15:30Z</time>
      </trkpt>
      <trkpt lat="47.76249" lon="-3.12042">
        <ele>21.7</ele>
        <time>2020-06-06T15:15:31Z</time>
      </trkpt>
      <trkpt lat="47.76249" lon="-3.12042">
        <ele>21.7</ele>
        <time>2020-06-06T15:15:32Z</time>
      </trkpt>
      <trkpt lat="47.76249" lon="-3.12042">
        <ele>21.7</ele>
        <time>2020-06-06T15:15:33Z</time>
      </trkpt>
      <trkpt lat="47.76239" lon="-3.1206">
        <ele>21.5</ele>
        <time>2020-06-06T16:11:06Z</time>
      </trkpt>
      <trkpt lat="47.76239" lon="-3.1206">
        <ele>21.5</ele>
        <time>2020-06-06T16:11:07Z</time>
      </trkpt>
      <trkpt lat="47.76239" lon="-3.1206">
        <ele>21.5</ele>
        <time>2020-06-06T16:11:08Z</time>
      </trkpt>
      <trkpt lat="47.76239" lon="-3.1206">
        <ele>21.5</ele>
        <time>2020-06-06T16:11:09Z</time>
      </trkpt>
      <trkpt lat="47.76239" lon="-3.1206">
        <ele>21.5</ele>
        <time>2020-06-06T16:11:10Z</time>
      </trkpt>
      <trkpt lat="47.76239" lon="-3.1206">
        <ele>21.5</ele>
        <time>2020-06-06T16:11:11Z</time>
      </trkpt>
      <trkpt lat="47.76239" lon="-3.1206">
        <ele>21.5</ele>
        <time>2020-06-06T16:11:12Z</time>
      </trkpt>
      <trkpt lat="47.76239" lon="-3.1206">
        <ele>21.5</ele>
        <time>2020-06-06T16:11:13Z</time>
      </trkpt>
      <trkpt lat="47.76239" lon="-3.1206">
        <ele>21.5</ele>
        <time>2020-06-06T16:11:14Z</time>
      </trkpt>
      <trkpt lat="47.76239" lon="-3.1206">
        <ele>21.4</ele>
        <time>2020-06-06T16:11:15Z</time>
      </trkpt>
      <trkpt lat="47.76239" lon="-3.12061">
        <ele>21.4</ele>
        <time>2020-06-06T16:11:16Z</time>
      </trkpt>
      <trkpt lat="47.76239" lon="-3.12063">
        <ele>21.4</ele>
        <time>2020-06-06T16:11:17Z</time>
      </trkpt>
      <trkpt lat="47.76238" lon="-3.12065">
        <ele>21.3</ele>
        <time>2020-06-06T16:11:18Z</time>
      </trkpt>
      <trkpt lat="47.76238" lon="-3.12067">
        <ele>21.3</ele>
        <time>2020-06-06T16:11:19Z</time>
      </trkpt>
      <trkpt lat="47.76238" lon="-3.12069">
        <ele>21.2</ele>
        <time>2020-06-06T16:11:20Z</time>
      </trkpt>
      <trkpt lat="47.76235" lon="-3.12071">
        <ele>21.1</ele>
        <time>2020-06-06T16:11:21Z</time>
      </trkpt>
      <trkpt lat="47.76234" lon="-3.12071">
        <ele>21.1</ele>
        <time>2020-06-06T16:11:22Z</time>
      </trkpt>
      <trkpt lat="47.7623" lon="-3.12074">
        <ele>21</ele>
        <time>2020-06-06T16:11:23Z</time>
      </trkpt>
      <trkpt lat="47.76229" lon="-3.12075">
        <ele>21</ele>
        <time>2020-06-06T16:11:24Z</time>
      </trkpt>
      <trkpt lat="47.76227" lon="-3.12077">
        <ele>20.9</ele>
        <time>2020-06-06T16:11:25Z</time>
      </trkpt>
      <trkpt lat="47.76224" lon="-3.12077">
        <ele>20.8</ele>
        <time>2020-06-06T16:11:26Z</time>
      </trkpt>
      <trkpt lat="47.7622" lon="-3.12077">
        <ele>20.7</ele>
        <time>2020-06-06T16:11:27Z</time>
      </trkpt>
      <trkpt lat="47.76217" lon="-3.1208">
        <ele>20.6</ele>
        <time>2020-06-06T16:11:28Z</time>
      </trkpt>
      <trkpt lat="47.76216" lon="-3.12083">
        <ele>20.5</ele>
        <time>2020-06-06T16:11:29Z</time>
      </trkpt>
      <trkpt lat="47.76214" lon="-3.12083">
        <ele>20.5</ele>
        <time>2020-06-06T16:11:30Z</time>
      </trkpt>
      <trkpt lat="47.76213" lon="-3.12084">
        <ele>20.5</ele>
        <time>2020-06-06T16:11:31Z</time>
      </trkpt>
      <trkpt lat="47.76212" lon="-3.12082">
        <ele>20.5</ele>
        <time>2020-06-06T16:11:32Z</time>
      </trkpt>
      <trkpt lat="47.76212" lon="-3.12081">
        <ele>20.5</ele>
        <time>2020-06-06T16:11:33Z</time>
      </trkpt>
      <trkpt lat="47.76212" lon="-3.1208">
        <ele>20.5</ele>
        <time>2020-06-06T16:11:34Z</time>
      </trkpt>
      <trkpt lat="47.76213" lon="-3.12078">
        <ele>20.5</ele>
        <time>2020-06-06T16:11:35Z</time>
      </trkpt>
      <trkpt lat="47.76213" lon="-3.12077">
        <ele>20.6</ele>
        <time>2020-06-06T16:11:36Z</time>
      </trkpt>
      <trkpt lat="47.76213" lon="-3.12072">
        <ele>20.6</ele>
        <time>2020-06-06T16:11:37Z</time>
      </trkpt>
      <trkpt lat="47.76212" lon="-3.12071">
        <ele>20.6</ele>
        <time>2020-06-06T16:11:38Z</time>
      </trkpt>
      <trkpt lat="47.76212" lon="-3.12066">
        <ele>20.6</ele>
        <time>2020-06-06T16:11:39Z</time>
      </trkpt>
      <trkpt lat="47.76211" lon="-3.1206">
        <ele>20.6</ele>
        <time>2020-06-06T16:11:40Z</time>
      </trkpt>
      <trkpt lat="47.76211" lon="-3.12058">
        <ele>20.6</ele>
        <time>2020-06-06T16:11:41Z</time>
      </trkpt>
      <trkpt lat="47.7621" lon="-3.12055">
        <ele>20.5</ele>
        <time>2020-06-06T16:11:42Z</time>
      </trkpt>
      <trkpt lat="47.76209" lon="-3.12051">
        <ele>20.5</ele>
        <time>2020-06-06T16:11:43Z</time>
      </trkpt>
      <trkpt lat="47.76208" lon="-3.12045">
        <ele>20.5</ele>
        <time>2020-06-06T16:11:44Z</time>
      </trkpt>
      <trkpt lat="47.76206" lon="-3.1204">
        <ele>20.4</ele>
        <time>2020-06-06T16:11:45Z</time>
      </trkpt>
      <trkpt lat="47.76206" lon="-3.12034">
        <ele>20.3</ele>
        <time>2020-06-06T16:11:46Z</time>
      </trkpt>
      <trkpt lat="47.76204" lon="-3.12028">
        <ele>20.2</ele>
        <time>2020-06-06T16:11:47Z</time>
      </trkpt>
      <trkpt lat="47.76202" lon="-3.12023">
        <ele>20.1</ele>
        <time>2020-06-06T16:11:48Z</time>
      </trkpt>
      <trkpt lat="47.76201" lon="-3.12018">
        <ele>19.9</ele>
        <time>2020-06-06T16:11:49Z</time>
      </trkpt>
      <trkpt lat="47.76199" lon="-3.12014">
        <ele>19.9</ele>
        <time>2020-06-06T16:11:50Z</time>
      </trkpt>
      <trkpt lat="47.76197" lon="-3.12009">
        <ele>19.7</ele>
        <time>2020-06-06T16:11:51Z</time>
      </trkpt>
      <trkpt lat="47.76193" lon="-3.12004">
        <ele>19.5</ele>
        <time>2020-06-06T16:11:52Z</time>
      </trkpt>
      <trkpt lat="47.76188" lon="-3.12">
        <ele>19.2</ele>
        <time>2020-06-06T16:11:53Z</time>
      </trkpt>
      <trkpt lat="47.76184" lon="-3.11995">
        <ele>18.9</ele>
        <time>2020-06-06T16:11:54Z</time>
      </trkpt>
      <trkpt lat="47.7618" lon="-3.11989">
        <ele>18.6</ele>
        <time>2020-06-06T16:11:55Z</time>
      </trkpt>
      <trkpt lat="47.76175" lon="-3.11984">
        <ele>18.4</ele>
        <time>2020-06-06T16:11:56Z</time>
      </trkpt>
      <trkpt lat="47.7617" lon="-3.11979">
        <ele>18.3</ele>
        <time>2020-06-06T16:11:57Z</time>
      </trkpt>
      <trkpt lat="47.76166" lon="-3.11974">
        <ele>18.1</ele>
        <time>2020-06-06T16:11:58Z</time>
      </trkpt>
      <trkpt lat="47.76162" lon="-3.11966">
        <ele>18</ele>
        <time>2020-06-06T16:11:59Z</time>
      </trkpt>
      <trkpt lat="47.76159" lon="-3.11957">
        <ele>17.8</ele>
        <time>2020-06-06T16:12:00Z</time>
      </trkpt>
      <trkpt lat="47.76156" lon="-3.11949">
        <ele>17.5</ele>
        <time>2020-06-06T16:12:01Z</time>
      </trkpt>
      <trkpt lat="47.76153" lon="-3.11941">
        <ele>17.3</ele>
        <time>2020-06-06T16:12:02Z</time>
      </trkpt>
      <trkpt lat="47.76149" lon="-3.11935">
        <ele>17</ele>
        <time>2020-06-06T16:12:03Z</time>
      </trkpt>
      <trkpt lat="47.76147" lon="-3.11927">
        <ele>16.8</ele>
        <time>2020-06-06T16:12:04Z</time>
      </trkpt>
      <trkpt lat="47.76144" lon="-3.11919">
        <ele>16.5</ele>
        <time>2020-06-06T16:12:05Z</time>
      </trkpt>
      <trkpt lat="47.76141" lon="-3.1191">
        <ele>16.2</ele>
        <time>2020-06-06T16:12:06Z</time>
      </trkpt>
      <trkpt lat="47.76137" lon="-3.11902">
        <ele>15.9</ele>
        <time>2020-06-06T16:12:07Z</time>
      </trkpt>
      <trkpt lat="47.76134" lon="-3.11893">
        <ele>15.6</ele>
        <time>2020-06-06T16:12:08Z</time>
      </trkpt>
      <trkpt lat="47.76132" lon="-3.11881">
        <ele>15.3</ele>
        <time>2020-06-06T16:12:09Z</time>
      </trkpt>
      <trkpt lat="47.7613" lon="-3.11871">
        <ele>15</ele>
        <time>2020-06-06T16:12:10Z</time>
      </trkpt>
      <trkpt lat="47.76128" lon="-3.11863">
        <ele>14.8</ele>
        <time>2020-06-06T16:12:11Z</time>
      </trkpt>
      <trkpt lat="47.76126" lon="-3.11855">
        <ele>14.7</ele>
        <time>2020-06-06T16:12:12Z</time>
      </trkpt>
      <trkpt lat="47.76125" lon="-3.11848">
        <ele>14.5</ele>
        <time>2020-06-06T16:12:13Z</time>
      </trkpt>
      <trkpt lat="47.76123" lon="-3.11842">
        <ele>14.4</ele>
        <time>2020-06-06T16:12:14Z</time>
      </trkpt>
      <trkpt lat="47.76122" lon="-3.11837">
        <ele>14</ele>
        <time>2020-06-06T16:12:15Z</time>
      </trkpt>
      <trkpt lat="47.7612" lon="-3.11834">
        <ele>14</ele>
        <time>2020-06-06T16:12:16Z</time>
      </trkpt>
      <trkpt lat="47.76116" lon="-3.11834">
        <ele>13.9</ele>
        <time>2020-06-06T16:12:17Z</time>
      </trkpt>
      <trkpt lat="47.76112" lon="-3.11837">
        <ele>13.8</ele>
        <time>2020-06-06T16:12:18Z</time>
      </trkpt>
      <trkpt lat="47.76108" lon="-3.11839">
        <ele>13.5</ele>
        <time>2020-06-06T16:12:19Z</time>
      </trkpt>
      <trkpt lat="47.76104" lon="-3.11843">
        <ele>13.4</ele>
        <time>2020-06-06T16:12:20Z</time>
      </trkpt>
      <trkpt lat="47.761" lon="-3.11848">
        <ele>13.3</ele>
        <time>2020-06-06T16:12:21Z</time>
      </trkpt>
      <trkpt lat="47.76096" lon="-3.11854">
        <ele>13.1</ele>
        <time>2020-06-06T16:12:22Z</time>
      </trkpt>
      <trkpt lat="47.76092" lon="-3.1186">
        <ele>13</ele>
        <time>2020-06-06T16:12:23Z</time>
      </trkpt>
      <trkpt lat="47.76088" lon="-3.11865">
        <ele>12.9</ele>
        <time>2020-06-06T16:12:24Z</time>
      </trkpt>
      <trkpt lat="47.76084" lon="-3.11871">
        <ele>12.7</ele>
        <time>2020-06-06T16:12:25Z</time>
      </trkpt>
      <trkpt lat="47.7608" lon="-3.11876">
        <ele>12.6</ele>
        <time>2020-06-06T16:12:26Z</time>
      </trkpt>
      <trkpt lat="47.76075" lon="-3.11881">
        <ele>12.5</ele>
        <time>2020-06-06T16:12:27Z</time>
      </trkpt>
      <trkpt lat="47.7607" lon="-3.11887">
        <ele>12.4</ele>
        <time>2020-06-06T16:12:28Z</time>
      </trkpt>
      <trkpt lat="47.76066" lon="-3.11892">
        <ele>12.3</ele>
        <time>2020-06-06T16:12:29Z</time>
      </trkpt>
      <trkpt lat="47.76062" lon="-3.11898">
        <ele>12.2</ele>
        <time>2020-06-06T16:12:30Z</time>
      </trkpt>
      <trkpt lat="47.76057" lon="-3.11905">
        <ele>12.1</ele>
        <time>2020-06-06T16:12:31Z</time>
      </trkpt>
      <trkpt lat="47.76052" lon="-3.11911">
        <ele>12</ele>
        <time>2020-06-06T16:12:32Z</time>
      </trkpt>
      <trkpt lat="47.76047" lon="-3.11915">
        <ele>12</ele>
        <time>2020-06-06T16:12:33Z</time>
      </trkpt>
      <trkpt lat="47.76042" lon="-3.11921">
        <ele>11.9</ele>
        <time>2020-06-06T16:12:34Z</time>
      </trkpt>
      <trkpt lat="47.76037" lon="-3.11926">
        <ele>11.8</ele>
        <time>2020-06-06T16:12:35Z</time>
      </trkpt>
      <trkpt lat="47.76032" lon="-3.11932">
        <ele>11.7</ele>
        <time>2020-06-06T16:12:36Z</time>
      </trkpt>
      <trkpt lat="47.76027" lon="-3.11938">
        <ele>11.6</ele>
        <time>2020-06-06T16:12:37Z</time>
      </trkpt>
      <trkpt lat="47.76022" lon="-3.11944">
        <ele>11.5</ele>
        <time>2020-06-06T16:12:38Z</time>
      </trkpt>
      <trkpt lat="47.76018" lon="-3.11951">
        <ele>11.4</ele>
        <time>2020-06-06T16:12:39Z</time>
      </trkpt>
      <trkpt lat="47.76012" lon="-3.11957">
        <ele>11.3</ele>
        <time>2020-06-06T16:12:40Z</time>
      </trkpt>
      <trkpt lat="47.76007" lon="-3.11963">
        <ele>11.3</ele>
        <time>2020-06-06T16:12:41Z</time>
      </trkpt>
      <trkpt lat="47.76002" lon="-3.11968">
        <ele>11.2</ele>
        <time>2020-06-06T16:12:42Z</time>
      </trkpt>
      <trkpt lat="47.75998" lon="-3.11974">
        <ele>11.2</ele>
        <time>2020-06-06T16:12:43Z</time>
      </trkpt>
      <trkpt lat="47.75993" lon="-3.1198">
        <ele>11.2</ele>
        <time>2020-06-06T16:12:44Z</time>
      </trkpt>
      <trkpt lat="47.75989" lon="-3.11987">
        <ele>11.2</ele>
        <time>2020-06-06T16:12:45Z</time>
      </trkpt>
      <trkpt lat="47.75985" lon="-3.11992">
        <ele>11.3</ele>
        <time>2020-06-06T16:12:46Z</time>
      </trkpt>
      <trkpt lat="47.75981" lon="-3.11999">
        <ele>11.4</ele>
        <time>2020-06-06T16:12:47Z</time>
      </trkpt>
      <trkpt lat="47.75978" lon="-3.12007">
        <ele>11.4</ele>
        <time>2020-06-06T16:12:48Z</time>
      </trkpt>
      <trkpt lat="47.75974" lon="-3.12013">
        <ele>11.5</ele>
        <time>2020-06-06T16:12:49Z</time>
      </trkpt>
      <trkpt lat="47.75971" lon="-3.1202">
        <ele>11.7</ele>
        <time>2020-06-06T16:12:50Z</time>
      </trkpt>
      <trkpt lat="47.75968" lon="-3.12026">
        <ele>11.8</ele>
        <time>2020-06-06T16:12:51Z</time>
      </trkpt>
      <trkpt lat="47.75964" lon="-3.12031">
        <ele>11.9</ele>
        <time>2020-06-06T16:12:52Z</time>
      </trkpt>
      <trkpt lat="47.75959" lon="-3.12034">
        <ele>12.4</ele>
        <time>2020-06-06T16:12:53Z</time>
      </trkpt>
      <trkpt lat="47.75954" lon="-3.12035">
        <ele>12.3</ele>
        <time>2020-06-06T16:12:54Z</time>
      </trkpt>
      <trkpt lat="47.75949" lon="-3.12034">
        <ele>12.3</ele>
        <time>2020-06-06T16:12:55Z</time>
      </trkpt>
      <trkpt lat="47.75944" lon="-3.12034">
        <ele>12.3</ele>
        <time>2020-06-06T16:12:56Z</time>
      </trkpt>
      <trkpt lat="47.75939" lon="-3.12033">
        <ele>12.5</ele>
        <time>2020-06-06T16:12:57Z</time>
      </trkpt>
      <trkpt lat="47.75933" lon="-3.12033">
        <ele>12.6</ele>
        <time>2020-06-06T16:12:58Z</time>
      </trkpt>
      <trkpt lat="47.75929" lon="-3.12036">
        <ele>12.9</ele>
        <time>2020-06-06T16:12:59Z</time>
      </trkpt>
      <trkpt lat="47.75924" lon="-3.12038">
        <ele>13.1</ele>
        <time>2020-06-06T16:13:00Z</time>
      </trkpt>
      <trkpt lat="47.7592" lon="-3.1204">
        <ele>13.3</ele>
        <time>2020-06-06T16:13:01Z</time>
      </trkpt>
      <trkpt lat="47.75916" lon="-3.12042">
        <ele>13.5</ele>
        <time>2020-06-06T16:13:02Z</time>
      </trkpt>
      <trkpt lat="47.75912" lon="-3.12044">
        <ele>13.7</ele>
        <time>2020-06-06T16:13:03Z</time>
      </trkpt>
      <trkpt lat="47.75909" lon="-3.12047">
        <ele>13.9</ele>
        <time>2020-06-06T16:13:04Z</time>
      </trkpt>
      <trkpt lat="47.75905" lon="-3.12049">
        <ele>14.1</ele>
        <time>2020-06-06T16:13:05Z</time>
      </trkpt>
      <trkpt lat="47.75902" lon="-3.1205">
        <ele>14.3</ele>
        <time>2020-06-06T16:13:06Z</time>
      </trkpt>
      <trkpt lat="47.75898" lon="-3.12053">
        <ele>14.6</ele>
        <time>2020-06-06T16:13:07Z</time>
      </trkpt>
      <trkpt lat="47.75895" lon="-3.12054">
        <ele>14.7</ele>
        <time>2020-06-06T16:13:08Z</time>
      </trkpt>
      <trkpt lat="47.75891" lon="-3.12057">
        <ele>14.9</ele>
        <time>2020-06-06T16:13:09Z</time>
      </trkpt>
      <trkpt lat="47.75887" lon="-3.1206">
        <ele>15.1</ele>
        <time>2020-06-06T16:13:10Z</time>
      </trkpt>
      <trkpt lat="47.75886" lon="-3.12061">
        <ele>15.2</ele>
        <time>2020-06-06T16:13:11Z</time>
      </trkpt>
      <trkpt lat="47.75883" lon="-3.12063">
        <ele>15.3</ele>
        <time>2020-06-06T16:13:12Z</time>
      </trkpt>
      <trkpt lat="47.75882" lon="-3.12064">
        <ele>15.3</ele>
        <time>2020-06-06T16:13:13Z</time>
      </trkpt>
      <trkpt lat="47.75881" lon="-3.12065">
        <ele>15.4</ele>
        <time>2020-06-06T16:13:14Z</time>
      </trkpt>
      <trkpt lat="47.75879" lon="-3.12067">
        <ele>15.5</ele>
        <time>2020-06-06T16:13:15Z</time>
      </trkpt>
      <trkpt lat="47.75878" lon="-3.12068">
        <ele>15.5</ele>
        <time>2020-06-06T16:13:16Z</time>
      </trkpt>
      <trkpt lat="47.75873" lon="-3.12072">
        <ele>15.6</ele>
        <time>2020-06-06T16:13:17Z</time>
      </trkpt>
      <trkpt lat="47.7587" lon="-3.12074">
        <ele>15.6</ele>
        <time>2020-06-06T16:13:18Z</time>
      </trkpt>
      <trkpt lat="47.75868" lon="-3.12076">
        <ele>15.6</ele>
        <time>2020-06-06T16:13:19Z</time>
      </trkpt>
      <trkpt lat="47.75867" lon="-3.12076">
        <ele>15.6</ele>
        <time>2020-06-06T16:13:20Z</time>
      </trkpt>
      <trkpt lat="47.75863" lon="-3.1208">
        <ele>15.6</ele>
        <time>2020-06-06T16:13:21Z</time>
      </trkpt>
      <trkpt lat="47.75862" lon="-3.12081">
        <ele>15.6</ele>
        <time>2020-06-06T16:13:22Z</time>
      </trkpt>
      <trkpt lat="47.75862" lon="-3.12081">
        <ele>15.6</ele>
        <time>2020-06-06T16:13:23Z</time>
      </trkpt>
      <trkpt lat="47.75861" lon="-3.1208">
        <ele>15.6</ele>
        <time>2020-06-06T16:13:24Z</time>
      </trkpt>
      <trkpt lat="47.7586" lon="-3.1208">
        <ele>15.6</ele>
        <time>2020-06-06T16:13:25Z</time>
      </trkpt>
      <trkpt lat="47.7586" lon="-3.12079">
        <ele>15.6</ele>
        <time>2020-06-06T16:13:26Z</time>
      </trkpt>
      <trkpt lat="47.75862" lon="-3.12078">
        <ele>15.6</ele>
        <time>2020-06-06T16:13:27Z</time>
      </trkpt>
      <trkpt lat="47.75861" lon="-3.12078">
        <ele>15.6</ele>
        <time>2020-06-06T16:13:28Z</time>
      </trkpt>
      <trkpt lat="47.75861" lon="-3.12078">
        <ele>15.6</ele>
        <time>2020-06-06T16:13:29Z</time>
      </trkpt>
      <trkpt lat="47.75861" lon="-3.12078">
        <ele>15.6</ele>
        <time>2020-06-06T16:13:30Z</time>
      </trkpt>
      <trkpt lat="47.7586" lon="-3.12078">
        <ele>15.6</ele>
        <time>2020-06-06T16:13:31Z</time>
      </trkpt>
      <trkpt lat="47.7586" lon="-3.12079">
        <ele>15.6</ele>
        <time>2020-06-06T16:13:32Z</time>
      </trkpt>
      <trkpt lat="47.7586" lon="-3.12079">
        <ele>15.6</ele>
        <time>2020-06-06T16:13:33Z</time>
      </trkpt>
      <trkpt lat="47.75859" lon="-3.1208">
        <ele>15.6</ele>
        <time>2020-06-06T16:13:34Z</time>
      </trkpt>
      <trkpt lat="47.75859" lon="-3.1208">
        <ele>15.6</ele>
        <time>2020-06-06T16:13:35Z</time>
      </trkpt>
      <trkpt lat="47.75859" lon="-3.1208">
        <ele>15.6</ele>
        <time>2020-06-06T16:13:36Z</time>
      </trkpt>
      <trkpt lat="47.75859" lon="-3.1208">
        <ele>15.6</ele>
        <time>2020-06-06T16:13:37Z</time>
      </trkpt>
      <trkpt lat="47.75859" lon="-3.12081">
        <ele>15.6</ele>
        <time>2020-06-06T16:13:38Z</time>
      </trkpt>
      <trkpt lat="47.75858" lon="-3.12082">
        <ele>15.6</ele>
        <time>2020-06-06T16:13:39Z</time>
      </trkpt>
      <trkpt lat="47.75858" lon="-3.12082">
        <ele>15.6</ele>
        <time>2020-06-06T16:13:40Z</time>
      </trkpt>
      <trkpt lat="47.75858" lon="-3.12082">
        <ele>15.6</ele>
        <time>2020-06-06T16:13:41Z</time>
      </trkpt>
      <trkpt lat="47.75857" lon="-3.12083">
        <ele>15.6</ele>
        <time>2020-06-06T16:13:42Z</time>
      </trkpt>
      <trkpt lat="47.75857" lon="-3.12084">
        <ele>15.6</ele>
        <time>2020-06-06T16:13:43Z</time>
      </trkpt>
      <trkpt lat="47.75857" lon="-3.12085">
        <ele>15.6</ele>
        <time>2020-06-06T16:13:44Z</time>
      </trkpt>
      <trkpt lat="47.75857" lon="-3.12086">
        <ele>15.5</ele>
        <time>2020-06-06T16:14:50Z</time>
      </trkpt>
      <trkpt lat="47.75857" lon="-3.12087">
        <ele>15.5</ele>
        <time>2020-06-06T16:14:51Z</time>
      </trkpt>
      <trkpt lat="47.75854" lon="-3.12089">
        <ele>15.4</ele>
        <time>2020-06-06T16:14:52Z</time>
      </trkpt>
      <trkpt lat="47.75851" lon="-3.12091">
        <ele>15.3</ele>
        <time>2020-06-06T16:14:53Z</time>
      </trkpt>
      <trkpt lat="47.75847" lon="-3.12094">
        <ele>15.1</ele>
        <time>2020-06-06T16:14:54Z</time>
      </trkpt>
      <trkpt lat="47.75842" lon="-3.12096">
        <ele>14.9</ele>
        <time>2020-06-06T16:14:55Z</time>
      </trkpt>
      <trkpt lat="47.75837" lon="-3.121">
        <ele>14.6</ele>
        <time>2020-06-06T16:14:56Z</time>
      </trkpt>
      <trkpt lat="47.75833" lon="-3.12103">
        <ele>14.3</ele>
        <time>2020-06-06T16:14:57Z</time>
      </trkpt>
      <trkpt lat="47.75827" lon="-3.12107">
        <ele>13.9</ele>
        <time>2020-06-06T16:14:58Z</time>
      </trkpt>
      <trkpt lat="47.75822" lon="-3.1211">
        <ele>13.5</ele>
        <time>2020-06-06T16:14:59Z</time>
      </trkpt>
      <trkpt lat="47.75816" lon="-3.12115">
        <ele>13.1</ele>
        <time>2020-06-06T16:15:00Z</time>
      </trkpt>
      <trkpt lat="47.75809" lon="-3.12119">
        <ele>12.6</ele>
        <time>2020-06-06T16:15:01Z</time>
      </trkpt>
      <trkpt lat="47.75803" lon="-3.12123">
        <ele>12.1</ele>
        <time>2020-06-06T16:15:02Z</time>
      </trkpt>
      <trkpt lat="47.75795" lon="-3.12127">
        <ele>11.6</ele>
        <time>2020-06-06T16:15:03Z</time>
      </trkpt>
      <trkpt lat="47.75788" lon="-3.12131">
        <ele>11.2</ele>
        <time>2020-06-06T16:15:04Z</time>
      </trkpt>
      <trkpt lat="47.75781" lon="-3.12136">
        <ele>10.7</ele>
        <time>2020-06-06T16:15:05Z</time>
      </trkpt>
      <trkpt lat="47.75775" lon="-3.12141">
        <ele>10.4</ele>
        <time>2020-06-06T16:15:06Z</time>
      </trkpt>
      <trkpt lat="47.7577" lon="-3.12144">
        <ele>10.1</ele>
        <time>2020-06-06T16:15:07Z</time>
      </trkpt>
      <trkpt lat="47.75768" lon="-3.12146">
        <ele>10</ele>
        <time>2020-06-06T16:15:08Z</time>
      </trkpt>
      <trkpt lat="47.75765" lon="-3.12148">
        <ele>9.9</ele>
        <time>2020-06-06T16:15:09Z</time>
      </trkpt>
      <trkpt lat="47.75764" lon="-3.12149">
        <ele>9.9</ele>
        <time>2020-06-06T16:15:10Z</time>
      </trkpt>
      <trkpt lat="47.7576" lon="-3.1215">
        <ele>9.7</ele>
        <time>2020-06-06T16:15:11Z</time>
      </trkpt>
      <trkpt lat="47.75759" lon="-3.12151">
        <ele>9.7</ele>
        <time>2020-06-06T16:15:12Z</time>
      </trkpt>
      <trkpt lat="47.75755" lon="-3.12157">
        <ele>9.5</ele>
        <time>2020-06-06T16:15:13Z</time>
      </trkpt>
      <trkpt lat="47.75753" lon="-3.12162">
        <ele>9.5</ele>
        <time>2020-06-06T16:15:14Z</time>
      </trkpt>
      <trkpt lat="47.75751" lon="-3.12167">
        <ele>9.6</ele>
        <time>2020-06-06T16:15:15Z</time>
      </trkpt>
      <trkpt lat="47.75748" lon="-3.12174">
        <ele>9.6</ele>
        <time>2020-06-06T16:15:16Z</time>
      </trkpt>
      <trkpt lat="47.75745" lon="-3.12177">
        <ele>9.6</ele>
        <time>2020-06-06T16:15:17Z</time>
      </trkpt>
      <trkpt lat="47.75743" lon="-3.12182">
        <ele>9.6</ele>
        <time>2020-06-06T16:15:18Z</time>
      </trkpt>
      <trkpt lat="47.75738" lon="-3.12186">
        <ele>9.6</ele>
        <time>2020-06-06T16:15:19Z</time>
      </trkpt>
      <trkpt lat="47.75736" lon="-3.12188">
        <ele>9.6</ele>
        <time>2020-06-06T16:15:20Z</time>
      </trkpt>
      <trkpt lat="47.75731" lon="-3.12192">
        <ele>9.6</ele>
        <time>2020-06-06T16:15:21Z</time>
      </trkpt>
      <trkpt lat="47.80209" lon="-3.58061">
        <ele>65.7</ele>
        <time>2020-06-06T18:59:53Z</time>
      </trkpt>
      <trkpt lat="47.80208" lon="-3.58061">
        <ele>65.7</ele>
        <time>2020-06-06T18:59:54Z</time>
      </trkpt>
      <trkpt lat="47.80182" lon="-3.58009">
        <ele>65.8</ele>
        <time>2020-06-06T18:59:56Z</time>
      </trkpt>
      <trkpt lat="47.80191" lon="-3.58014">
        <ele>65.8</ele>
        <time>2020-06-06T18:59:57Z</time>
      </trkpt>
      <trkpt lat="47.80193" lon="-3.58016">
        <ele>65.8</ele>
        <time>2020-06-06T18:59:58Z</time>
      </trkpt>
      <trkpt lat="47.80193" lon="-3.58016">
        <ele>65.8</ele>
        <time>2020-06-06T18:59:59Z</time>
      </trkpt>
      <trkpt lat="47.80193" lon="-3.5802">
        <ele>65.8</ele>
        <time>2020-06-06T19:00:00Z</time>
      </trkpt>
      <trkpt lat="47.80191" lon="-3.58026">
        <ele>65.8</ele>
        <time>2020-06-06T19:00:01Z</time>
      </trkpt>
      <trkpt lat="47.80191" lon="-3.58025">
        <ele>65.8</ele>
        <time>2020-06-06T19:00:02Z</time>
      </trkpt>
      <trkpt lat="47.80191" lon="-3.58023">
        <ele>65.8</ele>
        <time>2020-06-06T19:00:04Z</time>
      </trkpt>
      <trkpt lat="47.80189" lon="-3.58019">
        <ele>65.8</ele>
        <time>2020-06-06T19:00:13Z</time>
      </trkpt>
      <trkpt lat="47.8019" lon="-3.58019">
        <ele>65.8</ele>
        <time>2020-06-06T19:00:14Z</time>
      </trkpt>
      <trkpt lat="47.8019" lon="-3.58019">
        <ele>65.8</ele>
        <time>2020-06-06T19:00:15Z</time>
      </trkpt>
    </trkseg>
  </trk>
</gpx>